<?xml version="1.0" encoding="UTF-8" standalone="no" ?>
<gpx xmlns="http://www.topografix.com/GPX/1/1" xmlns:xsi="http://www.w3.org/2001/XMLSchema-instance" xsi:schemaLocation="http://www.topografix.com/GPX/1/1 http://www.topografix.com/GPX/1/1/gpx.xsd" version="1.1" creator="VisuGPX - https://www.visugpx.com">
  <metadata>
    <name>Dom/pont tarrets</name>
  </metadata>
  <trk>
    <name><![CDATA[2023 11 26 Dom/pont tarrets]]></name>
    <trkseg>
      <trkpt lat="45.83334" lon="4.70881">
        <ele>356.36926</ele>
        <time>2023-11-26T13:11:53.434Z</time>
      </trkpt>
      <trkpt lat="45.83333" lon="4.70879">
        <ele>331.49356</ele>
        <time>2023-11-26T13:13:56.000Z</time>
      </trkpt>
      <trkpt lat="45.83333" lon="4.70874">
        <ele>323.24252</ele>
        <time>2023-11-26T13:13:58.000Z</time>
      </trkpt>
      <trkpt lat="45.83333" lon="4.7087">
        <ele>319.16663</ele>
        <time>2023-11-26T13:13:59.000Z</time>
      </trkpt>
      <trkpt lat="45.83333" lon="4.70867">
        <ele>316.66144</ele>
        <time>2023-11-26T13:14:00.000Z</time>
      </trkpt>
      <trkpt lat="45.83333" lon="4.70863">
        <ele>315.00217</ele>
        <time>2023-11-26T13:14:01.000Z</time>
      </trkpt>
      <trkpt lat="45.83334" lon="4.70858">
        <ele>313.71484</ele>
        <time>2023-11-26T13:14:02.000Z</time>
      </trkpt>
      <trkpt lat="45.83334" lon="4.70854">
        <ele>312.7908</ele>
        <time>2023-11-26T13:14:03.000Z</time>
      </trkpt>
      <trkpt lat="45.83335" lon="4.70849">
        <ele>312.15958</ele>
        <time>2023-11-26T13:14:04.000Z</time>
      </trkpt>
      <trkpt lat="45.83335" lon="4.70845">
        <ele>311.64081</ele>
        <time>2023-11-26T13:14:05.000Z</time>
      </trkpt>
      <trkpt lat="45.83335" lon="4.7084">
        <ele>311.23331</ele>
        <time>2023-11-26T13:14:06.000Z</time>
      </trkpt>
      <trkpt lat="45.83336" lon="4.70836">
        <ele>310.9306</ele>
        <time>2023-11-26T13:14:07.000Z</time>
      </trkpt>
      <trkpt lat="45.83337" lon="4.70831">
        <ele>310.67526</ele>
        <time>2023-11-26T13:14:08.000Z</time>
      </trkpt>
      <trkpt lat="45.83338" lon="4.70827">
        <ele>310.37332</ele>
        <time>2023-11-26T13:14:09.000Z</time>
      </trkpt>
      <trkpt lat="45.83339" lon="4.70823">
        <ele>310.09784</ele>
        <time>2023-11-26T13:14:10.000Z</time>
      </trkpt>
      <trkpt lat="45.83339" lon="4.70819">
        <ele>309.87082</ele>
        <time>2023-11-26T13:14:11.000Z</time>
      </trkpt>
      <trkpt lat="45.8334" lon="4.70814">
        <ele>309.63019</ele>
        <time>2023-11-26T13:14:12.000Z</time>
      </trkpt>
      <trkpt lat="45.8334" lon="4.7081">
        <ele>309.41772</ele>
        <time>2023-11-26T13:14:13.000Z</time>
      </trkpt>
      <trkpt lat="45.8334" lon="4.70806">
        <ele>309.22604</ele>
        <time>2023-11-26T13:14:14.000Z</time>
      </trkpt>
      <trkpt lat="45.8334" lon="4.70801">
        <ele>309.052</ele>
        <time>2023-11-26T13:14:15.000Z</time>
      </trkpt>
      <trkpt lat="45.83341" lon="4.70796">
        <ele>306.54147</ele>
        <time>2023-11-26T13:14:16.000Z</time>
      </trkpt>
      <trkpt lat="45.83341" lon="4.70791">
        <ele>306.52753</ele>
        <time>2023-11-26T13:14:17.000Z</time>
      </trkpt>
      <trkpt lat="45.83342" lon="4.70786">
        <ele>306.52899</ele>
        <time>2023-11-26T13:14:18.000Z</time>
      </trkpt>
      <trkpt lat="45.83342" lon="4.7078">
        <ele>306.52222</ele>
        <time>2023-11-26T13:14:19.000Z</time>
      </trkpt>
      <trkpt lat="45.83342" lon="4.70774">
        <ele>306.52383</ele>
        <time>2023-11-26T13:14:20.000Z</time>
      </trkpt>
      <trkpt lat="45.83343" lon="4.70768">
        <ele>306.45038</ele>
        <time>2023-11-26T13:14:21.000Z</time>
      </trkpt>
      <trkpt lat="45.83343" lon="4.70763">
        <ele>306.43854</ele>
        <time>2023-11-26T13:14:22.000Z</time>
      </trkpt>
      <trkpt lat="45.83343" lon="4.70757">
        <ele>306.43536</ele>
        <time>2023-11-26T13:14:23.000Z</time>
      </trkpt>
      <trkpt lat="45.83344" lon="4.70751">
        <ele>306.38373</ele>
        <time>2023-11-26T13:14:24.000Z</time>
      </trkpt>
      <trkpt lat="45.83344" lon="4.70745">
        <ele>306.35434</ele>
        <time>2023-11-26T13:14:25.000Z</time>
      </trkpt>
      <trkpt lat="45.83344" lon="4.7074">
        <ele>306.33353</ele>
        <time>2023-11-26T13:14:26.000Z</time>
      </trkpt>
      <trkpt lat="45.83344" lon="4.70734">
        <ele>306.28387</ele>
        <time>2023-11-26T13:14:27.000Z</time>
      </trkpt>
      <trkpt lat="45.83344" lon="4.70728">
        <ele>306.26553</ele>
        <time>2023-11-26T13:14:28.000Z</time>
      </trkpt>
      <trkpt lat="45.83345" lon="4.70723">
        <ele>306.32697</ele>
        <time>2023-11-26T13:14:29.000Z</time>
      </trkpt>
      <trkpt lat="45.83345" lon="4.70717">
        <ele>306.41116</ele>
        <time>2023-11-26T13:14:30.000Z</time>
      </trkpt>
      <trkpt lat="45.83345" lon="4.70712">
        <ele>306.47983</ele>
        <time>2023-11-26T13:14:31.000Z</time>
      </trkpt>
      <trkpt lat="45.83345" lon="4.70706">
        <ele>306.57996</ele>
        <time>2023-11-26T13:14:32.000Z</time>
      </trkpt>
      <trkpt lat="45.83345" lon="4.707">
        <ele>306.67978</ele>
        <time>2023-11-26T13:14:33.000Z</time>
      </trkpt>
      <trkpt lat="45.83346" lon="4.70694">
        <ele>306.79779</ele>
        <time>2023-11-26T13:14:34.000Z</time>
      </trkpt>
      <trkpt lat="45.83346" lon="4.70688">
        <ele>306.93304</ele>
        <time>2023-11-26T13:14:35.000Z</time>
      </trkpt>
      <trkpt lat="45.83346" lon="4.70682">
        <ele>307.02945</ele>
        <time>2023-11-26T13:14:36.000Z</time>
      </trkpt>
      <trkpt lat="45.83347" lon="4.70676">
        <ele>307.11206</ele>
        <time>2023-11-26T13:14:37.000Z</time>
      </trkpt>
      <trkpt lat="45.83347" lon="4.70669">
        <ele>307.1774</ele>
        <time>2023-11-26T13:14:38.000Z</time>
      </trkpt>
      <trkpt lat="45.83348" lon="4.70662">
        <ele>307.25052</ele>
        <time>2023-11-26T13:14:39.000Z</time>
      </trkpt>
      <trkpt lat="45.83349" lon="4.70655">
        <ele>307.31656</ele>
        <time>2023-11-26T13:14:40.000Z</time>
      </trkpt>
      <trkpt lat="45.83351" lon="4.70649">
        <ele>307.68195</ele>
        <time>2023-11-26T13:14:41.000Z</time>
      </trkpt>
      <trkpt lat="45.83351" lon="4.70643">
        <ele>307.85162</ele>
        <time>2023-11-26T13:14:42.000Z</time>
      </trkpt>
      <trkpt lat="45.8335" lon="4.70637">
        <ele>308.04788</ele>
        <time>2023-11-26T13:14:43.000Z</time>
      </trkpt>
      <trkpt lat="45.83351" lon="4.70629">
        <ele>308.24237</ele>
        <time>2023-11-26T13:14:44.000Z</time>
      </trkpt>
      <trkpt lat="45.83351" lon="4.70622">
        <ele>308.43076</ele>
        <time>2023-11-26T13:14:45.000Z</time>
      </trkpt>
      <trkpt lat="45.83351" lon="4.70616">
        <ele>308.59003</ele>
        <time>2023-11-26T13:14:46.000Z</time>
      </trkpt>
      <trkpt lat="45.83353" lon="4.7061">
        <ele>308.74423</ele>
        <time>2023-11-26T13:14:47.000Z</time>
      </trkpt>
      <trkpt lat="45.83357" lon="4.70606">
        <ele>308.84903</ele>
        <time>2023-11-26T13:14:48.000Z</time>
      </trkpt>
      <trkpt lat="45.83362" lon="4.70605">
        <ele>308.92038</ele>
        <time>2023-11-26T13:14:49.000Z</time>
      </trkpt>
      <trkpt lat="45.83367" lon="4.70605">
        <ele>308.77289</ele>
        <time>2023-11-26T13:14:50.000Z</time>
      </trkpt>
      <trkpt lat="45.83373" lon="4.70605">
        <ele>308.60483</ele>
        <time>2023-11-26T13:14:51.000Z</time>
      </trkpt>
      <trkpt lat="45.83378" lon="4.70606">
        <ele>308.43726</ele>
        <time>2023-11-26T13:14:52.000Z</time>
      </trkpt>
      <trkpt lat="45.83383" lon="4.70607">
        <ele>308.25031</ele>
        <time>2023-11-26T13:14:53.000Z</time>
      </trkpt>
      <trkpt lat="45.83389" lon="4.70608">
        <ele>308.02429</ele>
        <time>2023-11-26T13:14:54.000Z</time>
      </trkpt>
      <trkpt lat="45.83394" lon="4.70609">
        <ele>307.76773</ele>
        <time>2023-11-26T13:14:55.000Z</time>
      </trkpt>
      <trkpt lat="45.83399" lon="4.70609">
        <ele>307.53741</ele>
        <time>2023-11-26T13:14:56.000Z</time>
      </trkpt>
      <trkpt lat="45.83404" lon="4.70609">
        <ele>307.31564</ele>
        <time>2023-11-26T13:14:57.000Z</time>
      </trkpt>
      <trkpt lat="45.83409" lon="4.70609">
        <ele>307.08832</ele>
        <time>2023-11-26T13:14:58.000Z</time>
      </trkpt>
      <trkpt lat="45.83413" lon="4.70611">
        <ele>306.85629</ele>
        <time>2023-11-26T13:14:59.000Z</time>
      </trkpt>
      <trkpt lat="45.83419" lon="4.70613">
        <ele>306.6109</ele>
        <time>2023-11-26T13:15:00.000Z</time>
      </trkpt>
      <trkpt lat="45.83424" lon="4.70613">
        <ele>306.10895</ele>
        <time>2023-11-26T13:15:01.000Z</time>
      </trkpt>
      <trkpt lat="45.8343" lon="4.70615">
        <ele>305.74554</ele>
        <time>2023-11-26T13:15:02.000Z</time>
      </trkpt>
      <trkpt lat="45.83436" lon="4.70615">
        <ele>305.33392</ele>
        <time>2023-11-26T13:15:03.000Z</time>
      </trkpt>
      <trkpt lat="45.83441" lon="4.70614">
        <ele>304.94116</ele>
        <time>2023-11-26T13:15:04.000Z</time>
      </trkpt>
      <trkpt lat="45.83447" lon="4.70615">
        <ele>304.55423</ele>
        <time>2023-11-26T13:15:05.000Z</time>
      </trkpt>
      <trkpt lat="45.83451" lon="4.70616">
        <ele>304.18549</ele>
        <time>2023-11-26T13:15:06.000Z</time>
      </trkpt>
      <trkpt lat="45.83456" lon="4.70617">
        <ele>303.86392</ele>
        <time>2023-11-26T13:15:07.000Z</time>
      </trkpt>
      <trkpt lat="45.83461" lon="4.70616">
        <ele>303.5455</ele>
        <time>2023-11-26T13:15:08.000Z</time>
      </trkpt>
      <trkpt lat="45.83467" lon="4.70616">
        <ele>303.21848</ele>
        <time>2023-11-26T13:15:09.000Z</time>
      </trkpt>
      <trkpt lat="45.83473" lon="4.70616">
        <ele>303.09711</ele>
        <time>2023-11-26T13:15:10.000Z</time>
      </trkpt>
      <trkpt lat="45.83478" lon="4.70616">
        <ele>303.05579</ele>
        <time>2023-11-26T13:15:11.000Z</time>
      </trkpt>
      <trkpt lat="45.83484" lon="4.70615">
        <ele>303.01254</ele>
        <time>2023-11-26T13:15:12.000Z</time>
      </trkpt>
      <trkpt lat="45.83489" lon="4.70613">
        <ele>303.02472</ele>
        <time>2023-11-26T13:15:13.000Z</time>
      </trkpt>
      <trkpt lat="45.83495" lon="4.70613">
        <ele>303.04572</ele>
        <time>2023-11-26T13:15:14.000Z</time>
      </trkpt>
      <trkpt lat="45.83502" lon="4.70613">
        <ele>302.98703</ele>
        <time>2023-11-26T13:15:15.000Z</time>
      </trkpt>
      <trkpt lat="45.83507" lon="4.70612">
        <ele>302.90106</ele>
        <time>2023-11-26T13:15:16.000Z</time>
      </trkpt>
      <trkpt lat="45.83513" lon="4.70612">
        <ele>302.77863</ele>
        <time>2023-11-26T13:15:17.000Z</time>
      </trkpt>
      <trkpt lat="45.83519" lon="4.70612">
        <ele>302.62189</ele>
        <time>2023-11-26T13:15:18.000Z</time>
      </trkpt>
      <trkpt lat="45.83524" lon="4.70611">
        <ele>302.46796</ele>
        <time>2023-11-26T13:15:19.000Z</time>
      </trkpt>
      <trkpt lat="45.83529" lon="4.70611">
        <ele>302.29938</ele>
        <time>2023-11-26T13:15:20.000Z</time>
      </trkpt>
      <trkpt lat="45.83534" lon="4.7061">
        <ele>302.14117</ele>
        <time>2023-11-26T13:15:21.000Z</time>
      </trkpt>
      <trkpt lat="45.83539" lon="4.7061">
        <ele>302.0137</ele>
        <time>2023-11-26T13:15:22.000Z</time>
      </trkpt>
      <trkpt lat="45.83545" lon="4.7061">
        <ele>301.84256</ele>
        <time>2023-11-26T13:15:23.000Z</time>
      </trkpt>
      <trkpt lat="45.83551" lon="4.70609">
        <ele>301.65018</ele>
        <time>2023-11-26T13:15:24.000Z</time>
      </trkpt>
      <trkpt lat="45.83556" lon="4.70609">
        <ele>301.43912</ele>
        <time>2023-11-26T13:15:25.000Z</time>
      </trkpt>
      <trkpt lat="45.83561" lon="4.70608">
        <ele>301.22134</ele>
        <time>2023-11-26T13:15:26.000Z</time>
      </trkpt>
      <trkpt lat="45.83566" lon="4.70609">
        <ele>300.96976</ele>
        <time>2023-11-26T13:15:27.000Z</time>
      </trkpt>
      <trkpt lat="45.83571" lon="4.7061">
        <ele>300.73016</ele>
        <time>2023-11-26T13:15:28.000Z</time>
      </trkpt>
      <trkpt lat="45.83576" lon="4.70611">
        <ele>300.51331</ele>
        <time>2023-11-26T13:15:29.000Z</time>
      </trkpt>
      <trkpt lat="45.83582" lon="4.70613">
        <ele>300.29306</ele>
        <time>2023-11-26T13:15:30.000Z</time>
      </trkpt>
      <trkpt lat="45.83587" lon="4.70614">
        <ele>300.01926</ele>
        <time>2023-11-26T13:15:31.000Z</time>
      </trkpt>
      <trkpt lat="45.83592" lon="4.70616">
        <ele>299.75284</ele>
        <time>2023-11-26T13:15:32.000Z</time>
      </trkpt>
      <trkpt lat="45.83598" lon="4.70618">
        <ele>299.43195</ele>
        <time>2023-11-26T13:15:33.000Z</time>
      </trkpt>
      <trkpt lat="45.83603" lon="4.7062">
        <ele>299.13898</ele>
        <time>2023-11-26T13:15:34.000Z</time>
      </trkpt>
      <trkpt lat="45.83607" lon="4.70621">
        <ele>298.92105</ele>
        <time>2023-11-26T13:15:35.000Z</time>
      </trkpt>
      <trkpt lat="45.83613" lon="4.70622">
        <ele>298.71683</ele>
        <time>2023-11-26T13:15:36.000Z</time>
      </trkpt>
      <trkpt lat="45.83618" lon="4.70624">
        <ele>298.53802</ele>
        <time>2023-11-26T13:15:37.000Z</time>
      </trkpt>
      <trkpt lat="45.83622" lon="4.70624">
        <ele>298.40118</ele>
        <time>2023-11-26T13:15:38.000Z</time>
      </trkpt>
      <trkpt lat="45.83628" lon="4.70623">
        <ele>298.23712</ele>
        <time>2023-11-26T13:15:39.000Z</time>
      </trkpt>
      <trkpt lat="45.83633" lon="4.70621">
        <ele>298.17328</ele>
        <time>2023-11-26T13:15:40.000Z</time>
      </trkpt>
      <trkpt lat="45.83637" lon="4.70619">
        <ele>298.18542</ele>
        <time>2023-11-26T13:15:41.000Z</time>
      </trkpt>
      <trkpt lat="45.83642" lon="4.70615">
        <ele>298.19525</ele>
        <time>2023-11-26T13:15:42.000Z</time>
      </trkpt>
      <trkpt lat="45.83647" lon="4.70612">
        <ele>298.08307</ele>
        <time>2023-11-26T13:15:43.000Z</time>
      </trkpt>
      <trkpt lat="45.83651" lon="4.70608">
        <ele>298.01892</ele>
        <time>2023-11-26T13:15:44.000Z</time>
      </trkpt>
      <trkpt lat="45.83655" lon="4.70604">
        <ele>297.94525</ele>
        <time>2023-11-26T13:15:45.000Z</time>
      </trkpt>
      <trkpt lat="45.8366" lon="4.70602">
        <ele>297.8472</ele>
        <time>2023-11-26T13:15:46.000Z</time>
      </trkpt>
      <trkpt lat="45.83665" lon="4.706">
        <ele>297.73529</ele>
        <time>2023-11-26T13:15:47.000Z</time>
      </trkpt>
      <trkpt lat="45.8367" lon="4.70599">
        <ele>297.61688</ele>
        <time>2023-11-26T13:15:48.000Z</time>
      </trkpt>
      <trkpt lat="45.83675" lon="4.70598">
        <ele>297.49655</ele>
        <time>2023-11-26T13:15:49.000Z</time>
      </trkpt>
      <trkpt lat="45.83681" lon="4.70597">
        <ele>297.37323</ele>
        <time>2023-11-26T13:15:50.000Z</time>
      </trkpt>
      <trkpt lat="45.83686" lon="4.70595">
        <ele>297.24988</ele>
        <time>2023-11-26T13:15:51.000Z</time>
      </trkpt>
      <trkpt lat="45.8369" lon="4.70593">
        <ele>297.12872</ele>
        <time>2023-11-26T13:15:52.000Z</time>
      </trkpt>
      <trkpt lat="45.83695" lon="4.70592">
        <ele>297.00174</ele>
        <time>2023-11-26T13:15:53.000Z</time>
      </trkpt>
      <trkpt lat="45.83701" lon="4.70592">
        <ele>296.849</ele>
        <time>2023-11-26T13:15:54.000Z</time>
      </trkpt>
      <trkpt lat="45.83706" lon="4.70591">
        <ele>296.7153</ele>
        <time>2023-11-26T13:15:55.000Z</time>
      </trkpt>
      <trkpt lat="45.83712" lon="4.70592">
        <ele>296.56049</ele>
        <time>2023-11-26T13:15:56.000Z</time>
      </trkpt>
      <trkpt lat="45.83717" lon="4.70591">
        <ele>296.50366</ele>
        <time>2023-11-26T13:15:57.000Z</time>
      </trkpt>
      <trkpt lat="45.83723" lon="4.70589">
        <ele>296.43753</ele>
        <time>2023-11-26T13:15:58.000Z</time>
      </trkpt>
      <trkpt lat="45.83728" lon="4.70588">
        <ele>296.24469</ele>
        <time>2023-11-26T13:15:59.000Z</time>
      </trkpt>
      <trkpt lat="45.83733" lon="4.70585">
        <ele>296.04556</ele>
        <time>2023-11-26T13:16:00.000Z</time>
      </trkpt>
      <trkpt lat="45.83739" lon="4.70583">
        <ele>295.72156</ele>
        <time>2023-11-26T13:16:01.000Z</time>
      </trkpt>
      <trkpt lat="45.83744" lon="4.70582">
        <ele>295.38214</ele>
        <time>2023-11-26T13:16:02.000Z</time>
      </trkpt>
      <trkpt lat="45.8375" lon="4.7058">
        <ele>295.18204</ele>
        <time>2023-11-26T13:16:03.000Z</time>
      </trkpt>
      <trkpt lat="45.83755" lon="4.70577">
        <ele>294.94757</ele>
        <time>2023-11-26T13:16:04.000Z</time>
      </trkpt>
      <trkpt lat="45.83761" lon="4.70574">
        <ele>294.71747</ele>
        <time>2023-11-26T13:16:05.000Z</time>
      </trkpt>
      <trkpt lat="45.83767" lon="4.70571">
        <ele>294.5105</ele>
        <time>2023-11-26T13:16:06.000Z</time>
      </trkpt>
      <trkpt lat="45.83773" lon="4.70568">
        <ele>294.29797</ele>
        <time>2023-11-26T13:16:07.000Z</time>
      </trkpt>
      <trkpt lat="45.83779" lon="4.70565">
        <ele>294.09332</ele>
        <time>2023-11-26T13:16:08.000Z</time>
      </trkpt>
      <trkpt lat="45.83784" lon="4.70561">
        <ele>293.88864</ele>
        <time>2023-11-26T13:16:09.000Z</time>
      </trkpt>
      <trkpt lat="45.83789" lon="4.70557">
        <ele>293.70905</ele>
        <time>2023-11-26T13:16:10.000Z</time>
      </trkpt>
      <trkpt lat="45.83795" lon="4.70554">
        <ele>293.52798</ele>
        <time>2023-11-26T13:16:11.000Z</time>
      </trkpt>
      <trkpt lat="45.838" lon="4.7055">
        <ele>293.33597</ele>
        <time>2023-11-26T13:16:12.000Z</time>
      </trkpt>
      <trkpt lat="45.83805" lon="4.70546">
        <ele>293.15912</ele>
        <time>2023-11-26T13:16:13.000Z</time>
      </trkpt>
      <trkpt lat="45.8381" lon="4.70542">
        <ele>292.98709</ele>
        <time>2023-11-26T13:16:14.000Z</time>
      </trkpt>
      <trkpt lat="45.83815" lon="4.70539">
        <ele>292.8114</ele>
        <time>2023-11-26T13:16:15.000Z</time>
      </trkpt>
      <trkpt lat="45.83821" lon="4.70536">
        <ele>292.64682</ele>
        <time>2023-11-26T13:16:16.000Z</time>
      </trkpt>
      <trkpt lat="45.83826" lon="4.70532">
        <ele>292.39178</ele>
        <time>2023-11-26T13:16:17.000Z</time>
      </trkpt>
      <trkpt lat="45.83831" lon="4.70529">
        <ele>292.05563</ele>
        <time>2023-11-26T13:16:18.000Z</time>
      </trkpt>
      <trkpt lat="45.83836" lon="4.70524">
        <ele>291.87277</ele>
        <time>2023-11-26T13:16:19.000Z</time>
      </trkpt>
      <trkpt lat="45.83841" lon="4.7052">
        <ele>291.64911</ele>
        <time>2023-11-26T13:16:20.000Z</time>
      </trkpt>
      <trkpt lat="45.83846" lon="4.70516">
        <ele>291.49545</ele>
        <time>2023-11-26T13:16:21.000Z</time>
      </trkpt>
      <trkpt lat="45.83851" lon="4.70512">
        <ele>291.38904</ele>
        <time>2023-11-26T13:16:22.000Z</time>
      </trkpt>
      <trkpt lat="45.83856" lon="4.70508">
        <ele>291.42926</ele>
        <time>2023-11-26T13:16:23.000Z</time>
      </trkpt>
      <trkpt lat="45.83861" lon="4.70506">
        <ele>291.73175</ele>
        <time>2023-11-26T13:16:24.000Z</time>
      </trkpt>
      <trkpt lat="45.83866" lon="4.70502">
        <ele>292.03162</ele>
        <time>2023-11-26T13:16:25.000Z</time>
      </trkpt>
      <trkpt lat="45.8387" lon="4.70499">
        <ele>292.32809</ele>
        <time>2023-11-26T13:16:26.000Z</time>
      </trkpt>
      <trkpt lat="45.83874" lon="4.70496">
        <ele>292.24744</ele>
        <time>2023-11-26T13:16:27.000Z</time>
      </trkpt>
      <trkpt lat="45.83879" lon="4.70493">
        <ele>292.13647</ele>
        <time>2023-11-26T13:16:28.000Z</time>
      </trkpt>
      <trkpt lat="45.83883" lon="4.70491">
        <ele>292.04855</ele>
        <time>2023-11-26T13:16:29.000Z</time>
      </trkpt>
      <trkpt lat="45.83888" lon="4.70489">
        <ele>291.94131</ele>
        <time>2023-11-26T13:16:30.000Z</time>
      </trkpt>
      <trkpt lat="45.83893" lon="4.70487">
        <ele>292.24097</ele>
        <time>2023-11-26T13:16:31.000Z</time>
      </trkpt>
      <trkpt lat="45.83897" lon="4.70485">
        <ele>292.55032</ele>
        <time>2023-11-26T13:16:32.000Z</time>
      </trkpt>
      <trkpt lat="45.83902" lon="4.70483">
        <ele>292.86441</ele>
        <time>2023-11-26T13:16:33.000Z</time>
      </trkpt>
      <trkpt lat="45.83907" lon="4.70482">
        <ele>293.16193</ele>
        <time>2023-11-26T13:16:34.000Z</time>
      </trkpt>
      <trkpt lat="45.83911" lon="4.7048">
        <ele>293.46393</ele>
        <time>2023-11-26T13:16:35.000Z</time>
      </trkpt>
      <trkpt lat="45.83916" lon="4.70478">
        <ele>293.76532</ele>
        <time>2023-11-26T13:16:36.000Z</time>
      </trkpt>
      <trkpt lat="45.8392" lon="4.70477">
        <ele>294.05157</ele>
        <time>2023-11-26T13:16:37.000Z</time>
      </trkpt>
      <trkpt lat="45.83924" lon="4.70475">
        <ele>294.41794</ele>
        <time>2023-11-26T13:16:38.000Z</time>
      </trkpt>
      <trkpt lat="45.83927" lon="4.70475">
        <ele>294.89215</ele>
        <time>2023-11-26T13:16:39.000Z</time>
      </trkpt>
      <trkpt lat="45.8393" lon="4.70472">
        <ele>295.01535</ele>
        <time>2023-11-26T13:16:40.000Z</time>
      </trkpt>
      <trkpt lat="45.83931" lon="4.7047">
        <ele>295.18747</ele>
        <time>2023-11-26T13:16:41.000Z</time>
      </trkpt>
      <trkpt lat="45.83932" lon="4.70466">
        <ele>295.32739</ele>
        <time>2023-11-26T13:16:42.000Z</time>
      </trkpt>
      <trkpt lat="45.83933" lon="4.70462">
        <ele>295.34055</ele>
        <time>2023-11-26T13:16:43.000Z</time>
      </trkpt>
      <trkpt lat="45.83936" lon="4.70457">
        <ele>295.11566</ele>
        <time>2023-11-26T13:16:44.000Z</time>
      </trkpt>
      <trkpt lat="45.83939" lon="4.70453">
        <ele>294.92221</ele>
        <time>2023-11-26T13:16:45.000Z</time>
      </trkpt>
      <trkpt lat="45.83942" lon="4.7045">
        <ele>294.60587</ele>
        <time>2023-11-26T13:16:46.000Z</time>
      </trkpt>
      <trkpt lat="45.83946" lon="4.70447">
        <ele>294.55618</ele>
        <time>2023-11-26T13:16:47.000Z</time>
      </trkpt>
      <trkpt lat="45.8395" lon="4.70444">
        <ele>294.54663</ele>
        <time>2023-11-26T13:16:48.000Z</time>
      </trkpt>
      <trkpt lat="45.83954" lon="4.70441">
        <ele>294.7735</ele>
        <time>2023-11-26T13:16:49.000Z</time>
      </trkpt>
      <trkpt lat="45.83958" lon="4.70438">
        <ele>294.99561</ele>
        <time>2023-11-26T13:16:50.000Z</time>
      </trkpt>
      <trkpt lat="45.83962" lon="4.70435">
        <ele>294.8139</ele>
        <time>2023-11-26T13:16:51.000Z</time>
      </trkpt>
      <trkpt lat="45.83966" lon="4.70433">
        <ele>294.33347</ele>
        <time>2023-11-26T13:16:52.000Z</time>
      </trkpt>
      <trkpt lat="45.83971" lon="4.7043">
        <ele>293.89447</ele>
        <time>2023-11-26T13:16:53.000Z</time>
      </trkpt>
      <trkpt lat="45.83975" lon="4.70426">
        <ele>293.513</ele>
        <time>2023-11-26T13:16:54.000Z</time>
      </trkpt>
      <trkpt lat="45.83979" lon="4.70424">
        <ele>292.96765</ele>
        <time>2023-11-26T13:16:55.000Z</time>
      </trkpt>
      <trkpt lat="45.83984" lon="4.70422">
        <ele>292.43411</ele>
        <time>2023-11-26T13:16:56.000Z</time>
      </trkpt>
      <trkpt lat="45.83988" lon="4.70419">
        <ele>291.9227</ele>
        <time>2023-11-26T13:16:57.000Z</time>
      </trkpt>
      <trkpt lat="45.83993" lon="4.70417">
        <ele>291.42542</ele>
        <time>2023-11-26T13:16:58.000Z</time>
      </trkpt>
      <trkpt lat="45.83997" lon="4.70415">
        <ele>290.81134</ele>
        <time>2023-11-26T13:16:59.000Z</time>
      </trkpt>
      <trkpt lat="45.84002" lon="4.70414">
        <ele>290.53497</ele>
        <time>2023-11-26T13:17:00.000Z</time>
      </trkpt>
      <trkpt lat="45.84007" lon="4.70413">
        <ele>290.18066</ele>
        <time>2023-11-26T13:17:01.000Z</time>
      </trkpt>
      <trkpt lat="45.84011" lon="4.70412">
        <ele>289.84534</ele>
        <time>2023-11-26T13:17:02.000Z</time>
      </trkpt>
      <trkpt lat="45.84016" lon="4.70409">
        <ele>289.5105</ele>
        <time>2023-11-26T13:17:03.000Z</time>
      </trkpt>
      <trkpt lat="45.84021" lon="4.70407">
        <ele>289.15753</ele>
        <time>2023-11-26T13:17:04.000Z</time>
      </trkpt>
      <trkpt lat="45.84026" lon="4.70404">
        <ele>288.77359</ele>
        <time>2023-11-26T13:17:05.000Z</time>
      </trkpt>
      <trkpt lat="45.8403" lon="4.70402">
        <ele>288.60504</ele>
        <time>2023-11-26T13:17:06.000Z</time>
      </trkpt>
      <trkpt lat="45.84034" lon="4.70399">
        <ele>288.61853</ele>
        <time>2023-11-26T13:17:07.000Z</time>
      </trkpt>
      <trkpt lat="45.84039" lon="4.70398">
        <ele>288.47546</ele>
        <time>2023-11-26T13:17:08.000Z</time>
      </trkpt>
      <trkpt lat="45.84044" lon="4.70395">
        <ele>287.9241</ele>
        <time>2023-11-26T13:17:09.000Z</time>
      </trkpt>
      <trkpt lat="45.84049" lon="4.70393">
        <ele>287.39673</ele>
        <time>2023-11-26T13:17:10.000Z</time>
      </trkpt>
      <trkpt lat="45.84053" lon="4.7039">
        <ele>286.87347</ele>
        <time>2023-11-26T13:17:11.000Z</time>
      </trkpt>
      <trkpt lat="45.84058" lon="4.70389">
        <ele>287.10199</ele>
        <time>2023-11-26T13:17:12.000Z</time>
      </trkpt>
      <trkpt lat="45.84062" lon="4.70386">
        <ele>287.3038</ele>
        <time>2023-11-26T13:17:13.000Z</time>
      </trkpt>
      <trkpt lat="45.84066" lon="4.70383">
        <ele>287.48657</ele>
        <time>2023-11-26T13:17:14.000Z</time>
      </trkpt>
      <trkpt lat="45.8407" lon="4.7038">
        <ele>287.8262</ele>
        <time>2023-11-26T13:17:15.000Z</time>
      </trkpt>
      <trkpt lat="45.84074" lon="4.70377">
        <ele>288.18823</ele>
        <time>2023-11-26T13:17:16.000Z</time>
      </trkpt>
      <trkpt lat="45.84078" lon="4.70375">
        <ele>288.69247</ele>
        <time>2023-11-26T13:17:17.000Z</time>
      </trkpt>
      <trkpt lat="45.84082" lon="4.70373">
        <ele>289.17056</ele>
        <time>2023-11-26T13:17:18.000Z</time>
      </trkpt>
      <trkpt lat="45.84087" lon="4.70372">
        <ele>289.69611</ele>
        <time>2023-11-26T13:17:19.000Z</time>
      </trkpt>
      <trkpt lat="45.84091" lon="4.70369">
        <ele>290.26926</ele>
        <time>2023-11-26T13:17:20.000Z</time>
      </trkpt>
      <trkpt lat="45.84096" lon="4.70367">
        <ele>290.86102</ele>
        <time>2023-11-26T13:17:21.000Z</time>
      </trkpt>
      <trkpt lat="45.841" lon="4.70364">
        <ele>291.43634</ele>
        <time>2023-11-26T13:17:22.000Z</time>
      </trkpt>
      <trkpt lat="45.84104" lon="4.70361">
        <ele>291.68088</ele>
        <time>2023-11-26T13:17:23.000Z</time>
      </trkpt>
      <trkpt lat="45.84108" lon="4.70359">
        <ele>291.99081</ele>
        <time>2023-11-26T13:17:24.000Z</time>
      </trkpt>
      <trkpt lat="45.84112" lon="4.70356">
        <ele>292.30289</ele>
        <time>2023-11-26T13:17:25.000Z</time>
      </trkpt>
      <trkpt lat="45.84115" lon="4.70349">
        <ele>292.55695</ele>
        <time>2023-11-26T13:17:26.000Z</time>
      </trkpt>
      <trkpt lat="45.84115" lon="4.70343">
        <ele>292.73935</ele>
        <time>2023-11-26T13:17:27.000Z</time>
      </trkpt>
      <trkpt lat="45.84115" lon="4.70337">
        <ele>293.04047</ele>
        <time>2023-11-26T13:17:28.000Z</time>
      </trkpt>
      <trkpt lat="45.84115" lon="4.70331">
        <ele>293.47116</ele>
        <time>2023-11-26T13:17:29.000Z</time>
      </trkpt>
      <trkpt lat="45.84115" lon="4.70325">
        <ele>293.89069</ele>
        <time>2023-11-26T13:17:30.000Z</time>
      </trkpt>
      <trkpt lat="45.84115" lon="4.70318">
        <ele>294.30505</ele>
        <time>2023-11-26T13:17:31.000Z</time>
      </trkpt>
      <trkpt lat="45.84115" lon="4.70311">
        <ele>294.2334</ele>
        <time>2023-11-26T13:17:32.000Z</time>
      </trkpt>
      <trkpt lat="45.84114" lon="4.70305">
        <ele>294.13153</ele>
        <time>2023-11-26T13:17:33.000Z</time>
      </trkpt>
      <trkpt lat="45.84114" lon="4.70298">
        <ele>294.01208</ele>
        <time>2023-11-26T13:17:34.000Z</time>
      </trkpt>
      <trkpt lat="45.84114" lon="4.70292">
        <ele>293.91257</ele>
        <time>2023-11-26T13:17:35.000Z</time>
      </trkpt>
      <trkpt lat="45.84114" lon="4.70285">
        <ele>293.78934</ele>
        <time>2023-11-26T13:17:36.000Z</time>
      </trkpt>
      <trkpt lat="45.84114" lon="4.7028">
        <ele>293.50342</ele>
        <time>2023-11-26T13:17:37.000Z</time>
      </trkpt>
      <trkpt lat="45.84113" lon="4.70272">
        <ele>293.21912</ele>
        <time>2023-11-26T13:17:38.000Z</time>
      </trkpt>
      <trkpt lat="45.84113" lon="4.70265">
        <ele>292.96136</ele>
        <time>2023-11-26T13:17:39.000Z</time>
      </trkpt>
      <trkpt lat="45.84113" lon="4.7026">
        <ele>292.60376</ele>
        <time>2023-11-26T13:17:40.000Z</time>
      </trkpt>
      <trkpt lat="45.84112" lon="4.70253">
        <ele>292.25674</ele>
        <time>2023-11-26T13:17:41.000Z</time>
      </trkpt>
      <trkpt lat="45.84112" lon="4.70246">
        <ele>291.92722</ele>
        <time>2023-11-26T13:17:42.000Z</time>
      </trkpt>
      <trkpt lat="45.84111" lon="4.70239">
        <ele>292.26581</ele>
        <time>2023-11-26T13:17:43.000Z</time>
      </trkpt>
      <trkpt lat="45.8411" lon="4.70233">
        <ele>292.21896</ele>
        <time>2023-11-26T13:17:44.000Z</time>
      </trkpt>
      <trkpt lat="45.8411" lon="4.70227">
        <ele>292.35712</ele>
        <time>2023-11-26T13:17:45.000Z</time>
      </trkpt>
      <trkpt lat="45.8411" lon="4.70219">
        <ele>292.44492</ele>
        <time>2023-11-26T13:17:46.000Z</time>
      </trkpt>
      <trkpt lat="45.84109" lon="4.70213">
        <ele>292.55225</ele>
        <time>2023-11-26T13:17:47.000Z</time>
      </trkpt>
      <trkpt lat="45.84108" lon="4.70207">
        <ele>292.7926</ele>
        <time>2023-11-26T13:17:48.000Z</time>
      </trkpt>
      <trkpt lat="45.84108" lon="4.702">
        <ele>293.06894</ele>
        <time>2023-11-26T13:17:49.000Z</time>
      </trkpt>
      <trkpt lat="45.84108" lon="4.70193">
        <ele>292.95148</ele>
        <time>2023-11-26T13:17:50.000Z</time>
      </trkpt>
      <trkpt lat="45.84108" lon="4.70187">
        <ele>292.86746</ele>
        <time>2023-11-26T13:17:51.000Z</time>
      </trkpt>
      <trkpt lat="45.84107" lon="4.70179">
        <ele>292.80658</ele>
        <time>2023-11-26T13:17:52.000Z</time>
      </trkpt>
      <trkpt lat="45.84107" lon="4.70172">
        <ele>292.93661</ele>
        <time>2023-11-26T13:17:53.000Z</time>
      </trkpt>
      <trkpt lat="45.84107" lon="4.70166">
        <ele>293.21378</ele>
        <time>2023-11-26T13:17:54.000Z</time>
      </trkpt>
      <trkpt lat="45.84105" lon="4.70159">
        <ele>293.07901</ele>
        <time>2023-11-26T13:17:55.000Z</time>
      </trkpt>
      <trkpt lat="45.84105" lon="4.70152">
        <ele>292.99619</ele>
        <time>2023-11-26T13:17:56.000Z</time>
      </trkpt>
      <trkpt lat="45.84106" lon="4.70147">
        <ele>292.87045</ele>
        <time>2023-11-26T13:17:57.000Z</time>
      </trkpt>
      <trkpt lat="45.84107" lon="4.7014">
        <ele>292.73846</ele>
        <time>2023-11-26T13:17:58.000Z</time>
      </trkpt>
      <trkpt lat="45.84108" lon="4.70136">
        <ele>292.52606</ele>
        <time>2023-11-26T13:17:59.000Z</time>
      </trkpt>
      <trkpt lat="45.84111" lon="4.70131">
        <ele>292.36359</ele>
        <time>2023-11-26T13:18:00.000Z</time>
      </trkpt>
      <trkpt lat="45.84115" lon="4.70127">
        <ele>292.20718</ele>
        <time>2023-11-26T13:18:01.000Z</time>
      </trkpt>
      <trkpt lat="45.8412" lon="4.70123">
        <ele>291.99603</ele>
        <time>2023-11-26T13:18:02.000Z</time>
      </trkpt>
      <trkpt lat="45.84124" lon="4.70119">
        <ele>291.42023</ele>
        <time>2023-11-26T13:18:03.000Z</time>
      </trkpt>
      <trkpt lat="45.84129" lon="4.70115">
        <ele>291.16187</ele>
        <time>2023-11-26T13:18:04.000Z</time>
      </trkpt>
      <trkpt lat="45.84135" lon="4.70112">
        <ele>290.69803</ele>
        <time>2023-11-26T13:18:05.000Z</time>
      </trkpt>
      <trkpt lat="45.84139" lon="4.70108">
        <ele>290.28104</ele>
        <time>2023-11-26T13:18:06.000Z</time>
      </trkpt>
      <trkpt lat="45.84143" lon="4.70103">
        <ele>290.0369</ele>
        <time>2023-11-26T13:18:07.000Z</time>
      </trkpt>
      <trkpt lat="45.84148" lon="4.70098">
        <ele>289.68124</ele>
        <time>2023-11-26T13:18:08.000Z</time>
      </trkpt>
      <trkpt lat="45.84153" lon="4.70094">
        <ele>289.30225</ele>
        <time>2023-11-26T13:18:09.000Z</time>
      </trkpt>
      <trkpt lat="45.84159" lon="4.70089">
        <ele>289.31232</ele>
        <time>2023-11-26T13:18:10.000Z</time>
      </trkpt>
      <trkpt lat="45.84164" lon="4.70085">
        <ele>289.272</ele>
        <time>2023-11-26T13:18:11.000Z</time>
      </trkpt>
      <trkpt lat="45.8417" lon="4.70081">
        <ele>289.2594</ele>
        <time>2023-11-26T13:18:12.000Z</time>
      </trkpt>
      <trkpt lat="45.84176" lon="4.70079">
        <ele>289.08575</ele>
        <time>2023-11-26T13:18:13.000Z</time>
      </trkpt>
      <trkpt lat="45.84182" lon="4.70076">
        <ele>288.76678</ele>
        <time>2023-11-26T13:18:14.000Z</time>
      </trkpt>
      <trkpt lat="45.84187" lon="4.70071">
        <ele>288.83923</ele>
        <time>2023-11-26T13:18:15.000Z</time>
      </trkpt>
      <trkpt lat="45.84193" lon="4.70067">
        <ele>288.8573</ele>
        <time>2023-11-26T13:18:16.000Z</time>
      </trkpt>
      <trkpt lat="45.84199" lon="4.70062">
        <ele>288.91455</ele>
        <time>2023-11-26T13:18:17.000Z</time>
      </trkpt>
      <trkpt lat="45.84205" lon="4.70059">
        <ele>288.98331</ele>
        <time>2023-11-26T13:18:18.000Z</time>
      </trkpt>
      <trkpt lat="45.8421" lon="4.70055">
        <ele>289.05786</ele>
        <time>2023-11-26T13:18:19.000Z</time>
      </trkpt>
      <trkpt lat="45.84217" lon="4.70052">
        <ele>289.1185</ele>
        <time>2023-11-26T13:18:20.000Z</time>
      </trkpt>
      <trkpt lat="45.84223" lon="4.70047">
        <ele>288.96524</ele>
        <time>2023-11-26T13:18:21.000Z</time>
      </trkpt>
      <trkpt lat="45.84228" lon="4.70045">
        <ele>288.82895</ele>
        <time>2023-11-26T13:18:22.000Z</time>
      </trkpt>
      <trkpt lat="45.84235" lon="4.70041">
        <ele>288.6926</ele>
        <time>2023-11-26T13:18:23.000Z</time>
      </trkpt>
      <trkpt lat="45.84243" lon="4.70039">
        <ele>288.52011</ele>
        <time>2023-11-26T13:18:24.000Z</time>
      </trkpt>
      <trkpt lat="45.84249" lon="4.70039">
        <ele>288.31793</ele>
        <time>2023-11-26T13:18:25.000Z</time>
      </trkpt>
      <trkpt lat="45.84255" lon="4.70039">
        <ele>288.07819</ele>
        <time>2023-11-26T13:18:26.000Z</time>
      </trkpt>
      <trkpt lat="45.84261" lon="4.70039">
        <ele>287.67081</ele>
        <time>2023-11-26T13:18:27.000Z</time>
      </trkpt>
      <trkpt lat="45.84267" lon="4.70041">
        <ele>287.23022</ele>
        <time>2023-11-26T13:18:28.000Z</time>
      </trkpt>
      <trkpt lat="45.84271" lon="4.70043">
        <ele>286.77264</ele>
        <time>2023-11-26T13:18:29.000Z</time>
      </trkpt>
      <trkpt lat="45.84277" lon="4.70045">
        <ele>286.31653</ele>
        <time>2023-11-26T13:18:30.000Z</time>
      </trkpt>
      <trkpt lat="45.8428" lon="4.70048">
        <ele>285.89862</ele>
        <time>2023-11-26T13:18:31.000Z</time>
      </trkpt>
      <trkpt lat="45.84285" lon="4.70051">
        <ele>285.45328</ele>
        <time>2023-11-26T13:18:32.000Z</time>
      </trkpt>
      <trkpt lat="45.8429" lon="4.70055">
        <ele>284.97699</ele>
        <time>2023-11-26T13:18:33.000Z</time>
      </trkpt>
      <trkpt lat="45.84294" lon="4.70058">
        <ele>284.51465</ele>
        <time>2023-11-26T13:18:34.000Z</time>
      </trkpt>
      <trkpt lat="45.84297" lon="4.70062">
        <ele>284.08563</ele>
        <time>2023-11-26T13:18:35.000Z</time>
      </trkpt>
      <trkpt lat="45.843" lon="4.70065">
        <ele>283.64322</ele>
        <time>2023-11-26T13:18:36.000Z</time>
      </trkpt>
      <trkpt lat="45.84305" lon="4.7007">
        <ele>283.27887</ele>
        <time>2023-11-26T13:18:37.000Z</time>
      </trkpt>
      <trkpt lat="45.84308" lon="4.70073">
        <ele>283.00574</ele>
        <time>2023-11-26T13:18:38.000Z</time>
      </trkpt>
      <trkpt lat="45.84311" lon="4.70074">
        <ele>282.48407</ele>
        <time>2023-11-26T13:18:39.000Z</time>
      </trkpt>
      <trkpt lat="45.84313" lon="4.70077">
        <ele>282.10001</ele>
        <time>2023-11-26T13:18:40.000Z</time>
      </trkpt>
      <trkpt lat="45.84314" lon="4.70079">
        <ele>281.89325</ele>
        <time>2023-11-26T13:18:41.000Z</time>
      </trkpt>
      <trkpt lat="45.84315" lon="4.70082">
        <ele>281.77997</ele>
        <time>2023-11-26T13:18:42.000Z</time>
      </trkpt>
      <trkpt lat="45.84318" lon="4.70083">
        <ele>281.74835</ele>
        <time>2023-11-26T13:18:43.000Z</time>
      </trkpt>
      <trkpt lat="45.84321" lon="4.70085">
        <ele>281.68616</ele>
        <time>2023-11-26T13:18:44.000Z</time>
      </trkpt>
      <trkpt lat="45.84324" lon="4.70087">
        <ele>281.71136</ele>
        <time>2023-11-26T13:18:45.000Z</time>
      </trkpt>
      <trkpt lat="45.84326" lon="4.70089">
        <ele>281.69769</ele>
        <time>2023-11-26T13:18:46.000Z</time>
      </trkpt>
      <trkpt lat="45.84329" lon="4.70091">
        <ele>281.81067</ele>
        <time>2023-11-26T13:18:47.000Z</time>
      </trkpt>
      <trkpt lat="45.84331" lon="4.70093">
        <ele>281.97079</ele>
        <time>2023-11-26T13:18:48.000Z</time>
      </trkpt>
      <trkpt lat="45.84334" lon="4.70095">
        <ele>282.15387</ele>
        <time>2023-11-26T13:18:49.000Z</time>
      </trkpt>
      <trkpt lat="45.84336" lon="4.70098">
        <ele>282.34396</ele>
        <time>2023-11-26T13:18:50.000Z</time>
      </trkpt>
      <trkpt lat="45.84339" lon="4.70099">
        <ele>282.53857</ele>
        <time>2023-11-26T13:18:51.000Z</time>
      </trkpt>
      <trkpt lat="45.84342" lon="4.70101">
        <ele>282.74014</ele>
        <time>2023-11-26T13:18:52.000Z</time>
      </trkpt>
      <trkpt lat="45.84345" lon="4.70103">
        <ele>283.07452</ele>
        <time>2023-11-26T13:18:53.000Z</time>
      </trkpt>
      <trkpt lat="45.84348" lon="4.70104">
        <ele>283.44797</ele>
        <time>2023-11-26T13:18:54.000Z</time>
      </trkpt>
      <trkpt lat="45.84351" lon="4.70104">
        <ele>283.75095</ele>
        <time>2023-11-26T13:18:55.000Z</time>
      </trkpt>
      <trkpt lat="45.84355" lon="4.70104">
        <ele>284.06793</ele>
        <time>2023-11-26T13:18:56.000Z</time>
      </trkpt>
      <trkpt lat="45.84358" lon="4.70105">
        <ele>284.28119</ele>
        <time>2023-11-26T13:18:57.000Z</time>
      </trkpt>
      <trkpt lat="45.84361" lon="4.70106">
        <ele>284.36359</ele>
        <time>2023-11-26T13:18:58.000Z</time>
      </trkpt>
      <trkpt lat="45.84364" lon="4.70106">
        <ele>284.61389</ele>
        <time>2023-11-26T13:18:59.000Z</time>
      </trkpt>
      <trkpt lat="45.84368" lon="4.70106">
        <ele>284.74771</ele>
        <time>2023-11-26T13:19:00.000Z</time>
      </trkpt>
      <trkpt lat="45.84371" lon="4.70106">
        <ele>284.94275</ele>
        <time>2023-11-26T13:19:01.000Z</time>
      </trkpt>
      <trkpt lat="45.84375" lon="4.70107">
        <ele>284.96133</ele>
        <time>2023-11-26T13:19:02.000Z</time>
      </trkpt>
      <trkpt lat="45.8438" lon="4.70108">
        <ele>284.98724</ele>
        <time>2023-11-26T13:19:03.000Z</time>
      </trkpt>
      <trkpt lat="45.84384" lon="4.70109">
        <ele>285.02917</ele>
        <time>2023-11-26T13:19:04.000Z</time>
      </trkpt>
      <trkpt lat="45.84388" lon="4.7011">
        <ele>285.07495</ele>
        <time>2023-11-26T13:19:05.000Z</time>
      </trkpt>
      <trkpt lat="45.84392" lon="4.7011">
        <ele>285.16232</ele>
        <time>2023-11-26T13:19:06.000Z</time>
      </trkpt>
      <trkpt lat="45.84396" lon="4.7011">
        <ele>285.05597</ele>
        <time>2023-11-26T13:19:07.000Z</time>
      </trkpt>
      <trkpt lat="45.844" lon="4.70111">
        <ele>284.85669</ele>
        <time>2023-11-26T13:19:08.000Z</time>
      </trkpt>
      <trkpt lat="45.84404" lon="4.70111">
        <ele>284.6709</ele>
        <time>2023-11-26T13:19:09.000Z</time>
      </trkpt>
      <trkpt lat="45.84407" lon="4.70112">
        <ele>284.45819</ele>
        <time>2023-11-26T13:19:10.000Z</time>
      </trkpt>
      <trkpt lat="45.84411" lon="4.70112">
        <ele>284.36105</ele>
        <time>2023-11-26T13:19:11.000Z</time>
      </trkpt>
      <trkpt lat="45.84413" lon="4.70112">
        <ele>284.29474</ele>
        <time>2023-11-26T13:19:12.000Z</time>
      </trkpt>
      <trkpt lat="45.84416" lon="4.70111">
        <ele>283.71091</ele>
        <time>2023-11-26T13:19:13.000Z</time>
      </trkpt>
      <trkpt lat="45.84418" lon="4.70109">
        <ele>283.27249</ele>
        <time>2023-11-26T13:19:14.000Z</time>
      </trkpt>
      <trkpt lat="45.84421" lon="4.70107">
        <ele>282.89044</ele>
        <time>2023-11-26T13:19:15.000Z</time>
      </trkpt>
      <trkpt lat="45.84423" lon="4.70103">
        <ele>282.41882</ele>
        <time>2023-11-26T13:19:16.000Z</time>
      </trkpt>
      <trkpt lat="45.84425" lon="4.701">
        <ele>282.01749</ele>
        <time>2023-11-26T13:19:17.000Z</time>
      </trkpt>
      <trkpt lat="45.84427" lon="4.70097">
        <ele>281.72031</ele>
        <time>2023-11-26T13:19:18.000Z</time>
      </trkpt>
      <trkpt lat="45.84428" lon="4.70095">
        <ele>281.49084</ele>
        <time>2023-11-26T13:19:19.000Z</time>
      </trkpt>
      <trkpt lat="45.8443" lon="4.70093">
        <ele>281.19022</ele>
        <time>2023-11-26T13:19:20.000Z</time>
      </trkpt>
      <trkpt lat="45.84432" lon="4.70091">
        <ele>280.90619</ele>
        <time>2023-11-26T13:19:21.000Z</time>
      </trkpt>
      <trkpt lat="45.84434" lon="4.70089">
        <ele>280.79877</ele>
        <time>2023-11-26T13:19:22.000Z</time>
      </trkpt>
      <trkpt lat="45.84436" lon="4.70087">
        <ele>280.66373</ele>
        <time>2023-11-26T13:19:23.000Z</time>
      </trkpt>
      <trkpt lat="45.84438" lon="4.70086">
        <ele>280.75684</ele>
        <time>2023-11-26T13:19:24.000Z</time>
      </trkpt>
      <trkpt lat="45.8444" lon="4.70084">
        <ele>280.89545</ele>
        <time>2023-11-26T13:19:25.000Z</time>
      </trkpt>
      <trkpt lat="45.84442" lon="4.70081">
        <ele>280.67303</ele>
        <time>2023-11-26T13:19:27.000Z</time>
      </trkpt>
      <trkpt lat="45.84444" lon="4.70079">
        <ele>280.59821</ele>
        <time>2023-11-26T13:19:29.000Z</time>
      </trkpt>
      <trkpt lat="45.84445" lon="4.70078">
        <ele>280.46442</ele>
        <time>2023-11-26T13:19:32.000Z</time>
      </trkpt>
      <trkpt lat="45.84446" lon="4.70074">
        <ele>280.36884</ele>
        <time>2023-11-26T13:19:39.000Z</time>
      </trkpt>
      <trkpt lat="45.84448" lon="4.70071">
        <ele>280.40884</ele>
        <time>2023-11-26T13:19:41.000Z</time>
      </trkpt>
      <trkpt lat="45.84449" lon="4.70068">
        <ele>280.29996</ele>
        <time>2023-11-26T13:19:42.000Z</time>
      </trkpt>
      <trkpt lat="45.84451" lon="4.70066">
        <ele>280.25314</ele>
        <time>2023-11-26T13:19:43.000Z</time>
      </trkpt>
      <trkpt lat="45.84452" lon="4.70064">
        <ele>280.68259</ele>
        <time>2023-11-26T13:19:44.000Z</time>
      </trkpt>
      <trkpt lat="45.84454" lon="4.70062">
        <ele>280.58917</ele>
        <time>2023-11-26T13:19:45.000Z</time>
      </trkpt>
      <trkpt lat="45.84456" lon="4.70059">
        <ele>280.55133</ele>
        <time>2023-11-26T13:19:46.000Z</time>
      </trkpt>
      <trkpt lat="45.84458" lon="4.70057">
        <ele>280.591</ele>
        <time>2023-11-26T13:19:47.000Z</time>
      </trkpt>
      <trkpt lat="45.8446" lon="4.70054">
        <ele>280.59152</ele>
        <time>2023-11-26T13:19:48.000Z</time>
      </trkpt>
      <trkpt lat="45.84461" lon="4.70051">
        <ele>280.48419</ele>
        <time>2023-11-26T13:19:49.000Z</time>
      </trkpt>
      <trkpt lat="45.84463" lon="4.70048">
        <ele>280.42688</ele>
        <time>2023-11-26T13:19:50.000Z</time>
      </trkpt>
      <trkpt lat="45.84465" lon="4.70045">
        <ele>280.51816</ele>
        <time>2023-11-26T13:19:51.000Z</time>
      </trkpt>
      <trkpt lat="45.84467" lon="4.70041">
        <ele>280.45792</ele>
        <time>2023-11-26T13:19:52.000Z</time>
      </trkpt>
      <trkpt lat="45.84469" lon="4.70036">
        <ele>280.26227</ele>
        <time>2023-11-26T13:19:53.000Z</time>
      </trkpt>
      <trkpt lat="45.84471" lon="4.70032">
        <ele>280.06097</ele>
        <time>2023-11-26T13:19:54.000Z</time>
      </trkpt>
      <trkpt lat="45.84472" lon="4.70028">
        <ele>279.65735</ele>
        <time>2023-11-26T13:19:55.000Z</time>
      </trkpt>
      <trkpt lat="45.84474" lon="4.70024">
        <ele>279.3576</ele>
        <time>2023-11-26T13:19:56.000Z</time>
      </trkpt>
      <trkpt lat="45.84475" lon="4.7002">
        <ele>279.50333</ele>
        <time>2023-11-26T13:19:57.000Z</time>
      </trkpt>
      <trkpt lat="45.84477" lon="4.70016">
        <ele>279.66129</ele>
        <time>2023-11-26T13:19:58.000Z</time>
      </trkpt>
      <trkpt lat="45.84479" lon="4.70012">
        <ele>279.98441</ele>
        <time>2023-11-26T13:19:59.000Z</time>
      </trkpt>
      <trkpt lat="45.84481" lon="4.70009">
        <ele>279.90073</ele>
        <time>2023-11-26T13:20:00.000Z</time>
      </trkpt>
      <trkpt lat="45.84484" lon="4.70008">
        <ele>279.75372</ele>
        <time>2023-11-26T13:20:01.000Z</time>
      </trkpt>
      <trkpt lat="45.84486" lon="4.70008">
        <ele>279.60016</ele>
        <time>2023-11-26T13:20:02.000Z</time>
      </trkpt>
      <trkpt lat="45.84488" lon="4.7001">
        <ele>279.34509</ele>
        <time>2023-11-26T13:20:03.000Z</time>
      </trkpt>
      <trkpt lat="45.8449" lon="4.70012">
        <ele>279.02374</ele>
        <time>2023-11-26T13:20:04.000Z</time>
      </trkpt>
      <trkpt lat="45.84493" lon="4.70014">
        <ele>278.9715</ele>
        <time>2023-11-26T13:20:05.000Z</time>
      </trkpt>
      <trkpt lat="45.84495" lon="4.70016">
        <ele>278.87604</ele>
        <time>2023-11-26T13:20:06.000Z</time>
      </trkpt>
      <trkpt lat="45.84498" lon="4.70019">
        <ele>278.83206</ele>
        <time>2023-11-26T13:20:07.000Z</time>
      </trkpt>
      <trkpt lat="45.84502" lon="4.70021">
        <ele>278.77774</ele>
        <time>2023-11-26T13:20:08.000Z</time>
      </trkpt>
      <trkpt lat="45.84505" lon="4.70023">
        <ele>278.69519</ele>
        <time>2023-11-26T13:20:09.000Z</time>
      </trkpt>
      <trkpt lat="45.84508" lon="4.70025">
        <ele>278.54358</ele>
        <time>2023-11-26T13:20:10.000Z</time>
      </trkpt>
      <trkpt lat="45.84512" lon="4.70028">
        <ele>278.31763</ele>
        <time>2023-11-26T13:20:11.000Z</time>
      </trkpt>
      <trkpt lat="45.84515" lon="4.70031">
        <ele>278.23654</ele>
        <time>2023-11-26T13:20:12.000Z</time>
      </trkpt>
      <trkpt lat="45.84518" lon="4.70034">
        <ele>278.26175</ele>
        <time>2023-11-26T13:20:13.000Z</time>
      </trkpt>
      <trkpt lat="45.8452" lon="4.70036">
        <ele>278.24615</ele>
        <time>2023-11-26T13:20:14.000Z</time>
      </trkpt>
      <trkpt lat="45.84522" lon="4.70039">
        <ele>278.30258</ele>
        <time>2023-11-26T13:20:15.000Z</time>
      </trkpt>
      <trkpt lat="45.84525" lon="4.70042">
        <ele>278.36801</ele>
        <time>2023-11-26T13:20:16.000Z</time>
      </trkpt>
      <trkpt lat="45.84528" lon="4.70044">
        <ele>278.4588</ele>
        <time>2023-11-26T13:20:17.000Z</time>
      </trkpt>
      <trkpt lat="45.8453" lon="4.70047">
        <ele>278.07562</ele>
        <time>2023-11-26T13:20:18.000Z</time>
      </trkpt>
      <trkpt lat="45.84532" lon="4.70048">
        <ele>277.71954</ele>
        <time>2023-11-26T13:20:19.000Z</time>
      </trkpt>
      <trkpt lat="45.84534" lon="4.7005">
        <ele>277.94089</ele>
        <time>2023-11-26T13:20:20.000Z</time>
      </trkpt>
      <trkpt lat="45.84537" lon="4.70054">
        <ele>278.1272</ele>
        <time>2023-11-26T13:20:21.000Z</time>
      </trkpt>
      <trkpt lat="45.84539" lon="4.70058">
        <ele>278.48199</ele>
        <time>2023-11-26T13:20:22.000Z</time>
      </trkpt>
      <trkpt lat="45.8454" lon="4.70062">
        <ele>278.38956</ele>
        <time>2023-11-26T13:20:23.000Z</time>
      </trkpt>
      <trkpt lat="45.84542" lon="4.70067">
        <ele>278.3573</ele>
        <time>2023-11-26T13:20:24.000Z</time>
      </trkpt>
      <trkpt lat="45.84544" lon="4.70072">
        <ele>278.37045</ele>
        <time>2023-11-26T13:20:25.000Z</time>
      </trkpt>
      <trkpt lat="45.84546" lon="4.70077">
        <ele>278.48526</ele>
        <time>2023-11-26T13:20:26.000Z</time>
      </trkpt>
      <trkpt lat="45.84549" lon="4.70081">
        <ele>278.55869</ele>
        <time>2023-11-26T13:20:27.000Z</time>
      </trkpt>
      <trkpt lat="45.84552" lon="4.70084">
        <ele>278.82745</ele>
        <time>2023-11-26T13:20:28.000Z</time>
      </trkpt>
      <trkpt lat="45.84556" lon="4.70087">
        <ele>279.08002</ele>
        <time>2023-11-26T13:20:29.000Z</time>
      </trkpt>
      <trkpt lat="45.84559" lon="4.7009">
        <ele>279.02942</ele>
        <time>2023-11-26T13:20:30.000Z</time>
      </trkpt>
      <trkpt lat="45.84562" lon="4.70093">
        <ele>279.03983</ele>
        <time>2023-11-26T13:20:31.000Z</time>
      </trkpt>
      <trkpt lat="45.84566" lon="4.70097">
        <ele>278.96936</ele>
        <time>2023-11-26T13:20:32.000Z</time>
      </trkpt>
      <trkpt lat="45.84569" lon="4.70099">
        <ele>278.91962</ele>
        <time>2023-11-26T13:20:33.000Z</time>
      </trkpt>
      <trkpt lat="45.84572" lon="4.70102">
        <ele>278.9306</ele>
        <time>2023-11-26T13:20:34.000Z</time>
      </trkpt>
      <trkpt lat="45.84575" lon="4.70105">
        <ele>278.98993</ele>
        <time>2023-11-26T13:20:35.000Z</time>
      </trkpt>
      <trkpt lat="45.84578" lon="4.70108">
        <ele>278.74695</ele>
        <time>2023-11-26T13:20:36.000Z</time>
      </trkpt>
      <trkpt lat="45.84581" lon="4.70111">
        <ele>278.49222</ele>
        <time>2023-11-26T13:20:37.000Z</time>
      </trkpt>
      <trkpt lat="45.84583" lon="4.70115">
        <ele>278.59991</ele>
        <time>2023-11-26T13:20:38.000Z</time>
      </trkpt>
      <trkpt lat="45.84586" lon="4.70117">
        <ele>278.67203</ele>
        <time>2023-11-26T13:20:39.000Z</time>
      </trkpt>
      <trkpt lat="45.84589" lon="4.7012">
        <ele>278.57373</ele>
        <time>2023-11-26T13:20:40.000Z</time>
      </trkpt>
      <trkpt lat="45.84593" lon="4.70123">
        <ele>278.40179</ele>
        <time>2023-11-26T13:20:41.000Z</time>
      </trkpt>
      <trkpt lat="45.84597" lon="4.70127">
        <ele>278.0845</ele>
        <time>2023-11-26T13:20:42.000Z</time>
      </trkpt>
      <trkpt lat="45.846" lon="4.7013">
        <ele>278.27164</ele>
        <time>2023-11-26T13:20:43.000Z</time>
      </trkpt>
      <trkpt lat="45.84603" lon="4.70133">
        <ele>278.40305</ele>
        <time>2023-11-26T13:20:44.000Z</time>
      </trkpt>
      <trkpt lat="45.84606" lon="4.70137">
        <ele>278.55795</ele>
        <time>2023-11-26T13:20:45.000Z</time>
      </trkpt>
      <trkpt lat="45.84609" lon="4.7014">
        <ele>278.55969</ele>
        <time>2023-11-26T13:20:46.000Z</time>
      </trkpt>
      <trkpt lat="45.84612" lon="4.70144">
        <ele>278.56842</ele>
        <time>2023-11-26T13:20:47.000Z</time>
      </trkpt>
      <trkpt lat="45.84616" lon="4.70146">
        <ele>278.29794</ele>
        <time>2023-11-26T13:20:48.000Z</time>
      </trkpt>
      <trkpt lat="45.84619" lon="4.70148">
        <ele>278.14539</ele>
        <time>2023-11-26T13:20:49.000Z</time>
      </trkpt>
      <trkpt lat="45.84621" lon="4.7015">
        <ele>278.45279</ele>
        <time>2023-11-26T13:20:50.000Z</time>
      </trkpt>
      <trkpt lat="45.84624" lon="4.70152">
        <ele>278.67157</ele>
        <time>2023-11-26T13:20:51.000Z</time>
      </trkpt>
      <trkpt lat="45.84627" lon="4.70152">
        <ele>278.9455</ele>
        <time>2023-11-26T13:20:52.000Z</time>
      </trkpt>
      <trkpt lat="45.8463" lon="4.7015">
        <ele>279.15692</ele>
        <time>2023-11-26T13:20:53.000Z</time>
      </trkpt>
      <trkpt lat="45.84632" lon="4.70148">
        <ele>279.3316</ele>
        <time>2023-11-26T13:20:54.000Z</time>
      </trkpt>
      <trkpt lat="45.84635" lon="4.70145">
        <ele>279.47852</ele>
        <time>2023-11-26T13:20:55.000Z</time>
      </trkpt>
      <trkpt lat="45.84637" lon="4.70142">
        <ele>279.76294</ele>
        <time>2023-11-26T13:20:56.000Z</time>
      </trkpt>
      <trkpt lat="45.84639" lon="4.7014">
        <ele>279.9631</ele>
        <time>2023-11-26T13:20:57.000Z</time>
      </trkpt>
      <trkpt lat="45.8464" lon="4.70137">
        <ele>280.09351</ele>
        <time>2023-11-26T13:20:58.000Z</time>
      </trkpt>
      <trkpt lat="45.84641" lon="4.70132">
        <ele>280.23599</ele>
        <time>2023-11-26T13:20:59.000Z</time>
      </trkpt>
      <trkpt lat="45.84641" lon="4.70128">
        <ele>280.32907</ele>
        <time>2023-11-26T13:21:00.000Z</time>
      </trkpt>
      <trkpt lat="45.84643" lon="4.70122">
        <ele>280.3576</ele>
        <time>2023-11-26T13:21:01.000Z</time>
      </trkpt>
      <trkpt lat="45.84646" lon="4.70117">
        <ele>280.3764</ele>
        <time>2023-11-26T13:21:02.000Z</time>
      </trkpt>
      <trkpt lat="45.84649" lon="4.70113">
        <ele>280.45975</ele>
        <time>2023-11-26T13:21:03.000Z</time>
      </trkpt>
      <trkpt lat="45.84653" lon="4.70109">
        <ele>280.664</ele>
        <time>2023-11-26T13:21:04.000Z</time>
      </trkpt>
      <trkpt lat="45.84661" lon="4.70103">
        <ele>280.47617</ele>
        <time>2023-11-26T13:21:05.000Z</time>
      </trkpt>
      <trkpt lat="45.84666" lon="4.70098">
        <ele>280.42911</ele>
        <time>2023-11-26T13:21:06.000Z</time>
      </trkpt>
      <trkpt lat="45.84671" lon="4.70093">
        <ele>280.39252</ele>
        <time>2023-11-26T13:21:07.000Z</time>
      </trkpt>
      <trkpt lat="45.84674" lon="4.70089">
        <ele>280.34692</ele>
        <time>2023-11-26T13:21:08.000Z</time>
      </trkpt>
      <trkpt lat="45.8468" lon="4.70085">
        <ele>280.25336</ele>
        <time>2023-11-26T13:21:09.000Z</time>
      </trkpt>
      <trkpt lat="45.84684" lon="4.70081">
        <ele>279.93329</ele>
        <time>2023-11-26T13:21:10.000Z</time>
      </trkpt>
      <trkpt lat="45.84688" lon="4.70077">
        <ele>279.63306</ele>
        <time>2023-11-26T13:21:11.000Z</time>
      </trkpt>
      <trkpt lat="45.84694" lon="4.70074">
        <ele>279.29153</ele>
        <time>2023-11-26T13:21:12.000Z</time>
      </trkpt>
      <trkpt lat="45.84698" lon="4.70069">
        <ele>278.90897</ele>
        <time>2023-11-26T13:21:13.000Z</time>
      </trkpt>
      <trkpt lat="45.84704" lon="4.70064">
        <ele>278.49631</ele>
        <time>2023-11-26T13:21:14.000Z</time>
      </trkpt>
      <trkpt lat="45.84708" lon="4.70059">
        <ele>278.00064</ele>
        <time>2023-11-26T13:21:15.000Z</time>
      </trkpt>
      <trkpt lat="45.84713" lon="4.70055">
        <ele>277.48209</ele>
        <time>2023-11-26T13:21:16.000Z</time>
      </trkpt>
      <trkpt lat="45.84719" lon="4.7005">
        <ele>276.96124</ele>
        <time>2023-11-26T13:21:17.000Z</time>
      </trkpt>
      <trkpt lat="45.84724" lon="4.70045">
        <ele>276.49734</ele>
        <time>2023-11-26T13:21:18.000Z</time>
      </trkpt>
      <trkpt lat="45.84729" lon="4.7004">
        <ele>275.99994</ele>
        <time>2023-11-26T13:21:19.000Z</time>
      </trkpt>
      <trkpt lat="45.84735" lon="4.70038">
        <ele>275.49469</ele>
        <time>2023-11-26T13:21:20.000Z</time>
      </trkpt>
      <trkpt lat="45.84739" lon="4.70032">
        <ele>275.10822</ele>
        <time>2023-11-26T13:21:21.000Z</time>
      </trkpt>
      <trkpt lat="45.84747" lon="4.70027">
        <ele>274.69305</ele>
        <time>2023-11-26T13:21:22.000Z</time>
      </trkpt>
      <trkpt lat="45.84755" lon="4.70022">
        <ele>274.32028</ele>
        <time>2023-11-26T13:21:23.000Z</time>
      </trkpt>
      <trkpt lat="45.84761" lon="4.70017">
        <ele>273.82196</ele>
        <time>2023-11-26T13:21:24.000Z</time>
      </trkpt>
      <trkpt lat="45.84769" lon="4.70015">
        <ele>273.81082</ele>
        <time>2023-11-26T13:21:25.000Z</time>
      </trkpt>
      <trkpt lat="45.84775" lon="4.70015">
        <ele>273.67874</ele>
        <time>2023-11-26T13:21:26.000Z</time>
      </trkpt>
      <trkpt lat="45.84781" lon="4.70014">
        <ele>273.56229</ele>
        <time>2023-11-26T13:21:27.000Z</time>
      </trkpt>
      <trkpt lat="45.84786" lon="4.70015">
        <ele>273.1579</ele>
        <time>2023-11-26T13:21:28.000Z</time>
      </trkpt>
      <trkpt lat="45.84795" lon="4.70014">
        <ele>272.85229</ele>
        <time>2023-11-26T13:21:29.000Z</time>
      </trkpt>
      <trkpt lat="45.84801" lon="4.70013">
        <ele>272.71893</ele>
        <time>2023-11-26T13:21:30.000Z</time>
      </trkpt>
      <trkpt lat="45.84806" lon="4.7001">
        <ele>272.68842</ele>
        <time>2023-11-26T13:21:31.000Z</time>
      </trkpt>
      <trkpt lat="45.84813" lon="4.70008">
        <ele>272.70065</ele>
        <time>2023-11-26T13:21:32.000Z</time>
      </trkpt>
      <trkpt lat="45.8482" lon="4.70007">
        <ele>272.61969</ele>
        <time>2023-11-26T13:21:33.000Z</time>
      </trkpt>
      <trkpt lat="45.84826" lon="4.70005">
        <ele>272.53607</ele>
        <time>2023-11-26T13:21:34.000Z</time>
      </trkpt>
      <trkpt lat="45.84832" lon="4.70002">
        <ele>272.42545</ele>
        <time>2023-11-26T13:21:35.000Z</time>
      </trkpt>
      <trkpt lat="45.84838" lon="4.69997">
        <ele>272.2579</ele>
        <time>2023-11-26T13:21:36.000Z</time>
      </trkpt>
      <trkpt lat="45.84843" lon="4.69992">
        <ele>271.99805</ele>
        <time>2023-11-26T13:21:37.000Z</time>
      </trkpt>
      <trkpt lat="45.84848" lon="4.69987">
        <ele>271.98944</ele>
        <time>2023-11-26T13:21:38.000Z</time>
      </trkpt>
      <trkpt lat="45.84853" lon="4.6998">
        <ele>272.23999</ele>
        <time>2023-11-26T13:21:39.000Z</time>
      </trkpt>
      <trkpt lat="45.84855" lon="4.69974">
        <ele>272.47665</ele>
        <time>2023-11-26T13:21:40.000Z</time>
      </trkpt>
      <trkpt lat="45.84857" lon="4.6997">
        <ele>272.10043</ele>
        <time>2023-11-26T13:21:41.000Z</time>
      </trkpt>
      <trkpt lat="45.8486" lon="4.69968">
        <ele>271.76346</ele>
        <time>2023-11-26T13:21:42.000Z</time>
      </trkpt>
      <trkpt lat="45.84864" lon="4.69967">
        <ele>271.14389</ele>
        <time>2023-11-26T13:21:43.000Z</time>
      </trkpt>
      <trkpt lat="45.84867" lon="4.69966">
        <ele>270.47308</ele>
        <time>2023-11-26T13:21:44.000Z</time>
      </trkpt>
      <trkpt lat="45.8487" lon="4.69966">
        <ele>269.70166</ele>
        <time>2023-11-26T13:21:45.000Z</time>
      </trkpt>
      <trkpt lat="45.84875" lon="4.69965">
        <ele>268.88885</ele>
        <time>2023-11-26T13:21:46.000Z</time>
      </trkpt>
      <trkpt lat="45.84879" lon="4.69964">
        <ele>268.02393</ele>
        <time>2023-11-26T13:21:47.000Z</time>
      </trkpt>
      <trkpt lat="45.84883" lon="4.69963">
        <ele>267.811</ele>
        <time>2023-11-26T13:21:48.000Z</time>
      </trkpt>
      <trkpt lat="45.84887" lon="4.6996">
        <ele>267.50616</ele>
        <time>2023-11-26T13:21:49.000Z</time>
      </trkpt>
      <trkpt lat="45.84892" lon="4.69956">
        <ele>267.17996</ele>
        <time>2023-11-26T13:21:50.000Z</time>
      </trkpt>
      <trkpt lat="45.84895" lon="4.69955">
        <ele>266.80328</ele>
        <time>2023-11-26T13:21:51.000Z</time>
      </trkpt>
      <trkpt lat="45.849" lon="4.69953">
        <ele>266.66672</ele>
        <time>2023-11-26T13:21:52.000Z</time>
      </trkpt>
      <trkpt lat="45.84903" lon="4.69951">
        <ele>266.08051</ele>
        <time>2023-11-26T13:21:53.000Z</time>
      </trkpt>
      <trkpt lat="45.84907" lon="4.6995">
        <ele>265.68814</ele>
        <time>2023-11-26T13:21:54.000Z</time>
      </trkpt>
      <trkpt lat="45.84912" lon="4.6995">
        <ele>265.28134</ele>
        <time>2023-11-26T13:21:55.000Z</time>
      </trkpt>
      <trkpt lat="45.84918" lon="4.69951">
        <ele>264.9173</ele>
        <time>2023-11-26T13:21:56.000Z</time>
      </trkpt>
      <trkpt lat="45.84924" lon="4.69952">
        <ele>264.64264</ele>
        <time>2023-11-26T13:21:57.000Z</time>
      </trkpt>
      <trkpt lat="45.8493" lon="4.69954">
        <ele>264.07718</ele>
        <time>2023-11-26T13:21:58.000Z</time>
      </trkpt>
      <trkpt lat="45.84938" lon="4.69954">
        <ele>263.16153</ele>
        <time>2023-11-26T13:21:59.000Z</time>
      </trkpt>
      <trkpt lat="45.84943" lon="4.69953">
        <ele>262.28873</ele>
        <time>2023-11-26T13:22:00.000Z</time>
      </trkpt>
      <trkpt lat="45.84947" lon="4.6995">
        <ele>262.40872</ele>
        <time>2023-11-26T13:22:01.000Z</time>
      </trkpt>
      <trkpt lat="45.84953" lon="4.69947">
        <ele>262.82285</ele>
        <time>2023-11-26T13:22:02.000Z</time>
      </trkpt>
      <trkpt lat="45.84957" lon="4.69943">
        <ele>262.65536</ele>
        <time>2023-11-26T13:22:03.000Z</time>
      </trkpt>
      <trkpt lat="45.84963" lon="4.69942">
        <ele>262.68488</ele>
        <time>2023-11-26T13:22:04.000Z</time>
      </trkpt>
      <trkpt lat="45.84967" lon="4.69941">
        <ele>262.7399</ele>
        <time>2023-11-26T13:22:05.000Z</time>
      </trkpt>
      <trkpt lat="45.84972" lon="4.69938">
        <ele>262.73273</ele>
        <time>2023-11-26T13:22:06.000Z</time>
      </trkpt>
      <trkpt lat="45.84976" lon="4.69936">
        <ele>262.77762</ele>
        <time>2023-11-26T13:22:07.000Z</time>
      </trkpt>
      <trkpt lat="45.84979" lon="4.6993">
        <ele>262.62009</ele>
        <time>2023-11-26T13:22:08.000Z</time>
      </trkpt>
      <trkpt lat="45.84982" lon="4.69924">
        <ele>262.49384</ele>
        <time>2023-11-26T13:22:09.000Z</time>
      </trkpt>
      <trkpt lat="45.84988" lon="4.69922">
        <ele>262.33057</ele>
        <time>2023-11-26T13:22:10.000Z</time>
      </trkpt>
      <trkpt lat="45.84993" lon="4.69918">
        <ele>261.91672</ele>
        <time>2023-11-26T13:22:11.000Z</time>
      </trkpt>
      <trkpt lat="45.84997" lon="4.69915">
        <ele>261.17755</ele>
        <time>2023-11-26T13:22:12.000Z</time>
      </trkpt>
      <trkpt lat="45.85002" lon="4.6991">
        <ele>261.36517</ele>
        <time>2023-11-26T13:22:13.000Z</time>
      </trkpt>
      <trkpt lat="45.85008" lon="4.69908">
        <ele>261.5824</ele>
        <time>2023-11-26T13:22:14.000Z</time>
      </trkpt>
      <trkpt lat="45.85013" lon="4.69908">
        <ele>261.00491</ele>
        <time>2023-11-26T13:22:15.000Z</time>
      </trkpt>
      <trkpt lat="45.85016" lon="4.69904">
        <ele>260.42752</ele>
        <time>2023-11-26T13:22:16.000Z</time>
      </trkpt>
      <trkpt lat="45.85022" lon="4.69902">
        <ele>259.86951</ele>
        <time>2023-11-26T13:22:17.000Z</time>
      </trkpt>
      <trkpt lat="45.85026" lon="4.69897">
        <ele>259.41815</ele>
        <time>2023-11-26T13:22:18.000Z</time>
      </trkpt>
      <trkpt lat="45.85032" lon="4.69895">
        <ele>259.08981</ele>
        <time>2023-11-26T13:22:19.000Z</time>
      </trkpt>
      <trkpt lat="45.85036" lon="4.69895">
        <ele>258.98663</ele>
        <time>2023-11-26T13:22:20.000Z</time>
      </trkpt>
      <trkpt lat="45.85043" lon="4.69896">
        <ele>258.46185</ele>
        <time>2023-11-26T13:22:21.000Z</time>
      </trkpt>
      <trkpt lat="45.85049" lon="4.69894">
        <ele>257.97388</ele>
        <time>2023-11-26T13:22:22.000Z</time>
      </trkpt>
      <trkpt lat="45.85055" lon="4.69894">
        <ele>257.4328</ele>
        <time>2023-11-26T13:22:23.000Z</time>
      </trkpt>
      <trkpt lat="45.85061" lon="4.69894">
        <ele>256.81308</ele>
        <time>2023-11-26T13:22:24.000Z</time>
      </trkpt>
      <trkpt lat="45.85065" lon="4.69892">
        <ele>256.04996</ele>
        <time>2023-11-26T13:22:25.000Z</time>
      </trkpt>
      <trkpt lat="45.8507" lon="4.6989">
        <ele>255.48772</ele>
        <time>2023-11-26T13:22:26.000Z</time>
      </trkpt>
      <trkpt lat="45.85076" lon="4.69886">
        <ele>254.88147</ele>
        <time>2023-11-26T13:22:27.000Z</time>
      </trkpt>
      <trkpt lat="45.85079" lon="4.69881">
        <ele>254.16809</ele>
        <time>2023-11-26T13:22:28.000Z</time>
      </trkpt>
      <trkpt lat="45.85085" lon="4.69876">
        <ele>253.80437</ele>
        <time>2023-11-26T13:22:29.000Z</time>
      </trkpt>
      <trkpt lat="45.85091" lon="4.69873">
        <ele>253.41263</ele>
        <time>2023-11-26T13:22:30.000Z</time>
      </trkpt>
      <trkpt lat="45.85095" lon="4.69869">
        <ele>253.20142</ele>
        <time>2023-11-26T13:22:31.000Z</time>
      </trkpt>
      <trkpt lat="45.851" lon="4.69864">
        <ele>253.04561</ele>
        <time>2023-11-26T13:22:32.000Z</time>
      </trkpt>
      <trkpt lat="45.85105" lon="4.6986">
        <ele>252.53743</ele>
        <time>2023-11-26T13:22:33.000Z</time>
      </trkpt>
      <trkpt lat="45.8511" lon="4.69854">
        <ele>250.18869</ele>
        <time>2023-11-26T13:22:34.000Z</time>
      </trkpt>
      <trkpt lat="45.85115" lon="4.69852">
        <ele>250.18535</ele>
        <time>2023-11-26T13:22:35.000Z</time>
      </trkpt>
      <trkpt lat="45.8512" lon="4.69846">
        <ele>250.19287</ele>
        <time>2023-11-26T13:22:36.000Z</time>
      </trkpt>
      <trkpt lat="45.85126" lon="4.69844">
        <ele>250.18118</ele>
        <time>2023-11-26T13:22:37.000Z</time>
      </trkpt>
      <trkpt lat="45.8513" lon="4.69842">
        <ele>250.1265</ele>
        <time>2023-11-26T13:22:38.000Z</time>
      </trkpt>
      <trkpt lat="45.85135" lon="4.69841">
        <ele>250.04732</ele>
        <time>2023-11-26T13:22:39.000Z</time>
      </trkpt>
      <trkpt lat="45.8514" lon="4.69839">
        <ele>248.04868</ele>
        <time>2023-11-26T13:22:40.000Z</time>
      </trkpt>
      <trkpt lat="45.85143" lon="4.69836">
        <ele>247.65759</ele>
        <time>2023-11-26T13:22:41.000Z</time>
      </trkpt>
      <trkpt lat="45.85146" lon="4.69831">
        <ele>246.90393</ele>
        <time>2023-11-26T13:22:42.000Z</time>
      </trkpt>
      <trkpt lat="45.85147" lon="4.69825">
        <ele>247.17346</ele>
        <time>2023-11-26T13:22:43.000Z</time>
      </trkpt>
      <trkpt lat="45.85147" lon="4.69816">
        <ele>247.39331</ele>
        <time>2023-11-26T13:22:44.000Z</time>
      </trkpt>
      <trkpt lat="45.85147" lon="4.69808">
        <ele>247.73357</ele>
        <time>2023-11-26T13:22:45.000Z</time>
      </trkpt>
      <trkpt lat="45.85144" lon="4.69798">
        <ele>248.02182</ele>
        <time>2023-11-26T13:22:46.000Z</time>
      </trkpt>
      <trkpt lat="45.85142" lon="4.69787">
        <ele>248.1803</ele>
        <time>2023-11-26T13:22:47.000Z</time>
      </trkpt>
      <trkpt lat="45.8514" lon="4.69777">
        <ele>248.52206</ele>
        <time>2023-11-26T13:22:48.000Z</time>
      </trkpt>
      <trkpt lat="45.85137" lon="4.69767">
        <ele>248.60564</ele>
        <time>2023-11-26T13:22:49.000Z</time>
      </trkpt>
      <trkpt lat="45.85136" lon="4.69754">
        <ele>247.98166</ele>
        <time>2023-11-26T13:22:50.000Z</time>
      </trkpt>
      <trkpt lat="45.85136" lon="4.69745">
        <ele>247.47311</ele>
        <time>2023-11-26T13:22:51.000Z</time>
      </trkpt>
      <trkpt lat="45.85134" lon="4.69734">
        <ele>246.84189</ele>
        <time>2023-11-26T13:22:52.000Z</time>
      </trkpt>
      <trkpt lat="45.85133" lon="4.69723">
        <ele>246.26152</ele>
        <time>2023-11-26T13:22:53.000Z</time>
      </trkpt>
      <trkpt lat="45.85135" lon="4.69716">
        <ele>247.37845</ele>
        <time>2023-11-26T13:22:54.000Z</time>
      </trkpt>
      <trkpt lat="45.85134" lon="4.69708">
        <ele>247.54582</ele>
        <time>2023-11-26T13:22:55.000Z</time>
      </trkpt>
      <trkpt lat="45.85134" lon="4.697">
        <ele>247.86282</ele>
        <time>2023-11-26T13:22:56.000Z</time>
      </trkpt>
      <trkpt lat="45.85135" lon="4.69693">
        <ele>248.19987</ele>
        <time>2023-11-26T13:22:57.000Z</time>
      </trkpt>
      <trkpt lat="45.85134" lon="4.69687">
        <ele>248.1008</ele>
        <time>2023-11-26T13:22:58.000Z</time>
      </trkpt>
      <trkpt lat="45.85132" lon="4.69682">
        <ele>247.99951</ele>
        <time>2023-11-26T13:22:59.000Z</time>
      </trkpt>
      <trkpt lat="45.85132" lon="4.69677">
        <ele>249.56409</ele>
        <time>2023-11-26T13:23:00.000Z</time>
      </trkpt>
      <trkpt lat="45.8513" lon="4.69673">
        <ele>249.63985</ele>
        <time>2023-11-26T13:23:01.000Z</time>
      </trkpt>
      <trkpt lat="45.85129" lon="4.69669">
        <ele>249.73894</ele>
        <time>2023-11-26T13:23:02.000Z</time>
      </trkpt>
      <trkpt lat="45.85127" lon="4.69664">
        <ele>247.69583</ele>
        <time>2023-11-26T13:23:03.000Z</time>
      </trkpt>
      <trkpt lat="45.85125" lon="4.69661">
        <ele>247.41226</ele>
        <time>2023-11-26T13:23:05.000Z</time>
      </trkpt>
      <trkpt lat="45.85123" lon="4.69659">
        <ele>247.10446</ele>
        <time>2023-11-26T13:23:06.000Z</time>
      </trkpt>
      <trkpt lat="45.85123" lon="4.69655">
        <ele>246.74321</ele>
        <time>2023-11-26T13:23:07.000Z</time>
      </trkpt>
      <trkpt lat="45.85123" lon="4.69651">
        <ele>246.51413</ele>
        <time>2023-11-26T13:23:08.000Z</time>
      </trkpt>
      <trkpt lat="45.85122" lon="4.69647">
        <ele>245.59441</ele>
        <time>2023-11-26T13:23:09.000Z</time>
      </trkpt>
      <trkpt lat="45.85122" lon="4.69642">
        <ele>244.58516</ele>
        <time>2023-11-26T13:23:10.000Z</time>
      </trkpt>
      <trkpt lat="45.85122" lon="4.69637">
        <ele>244.25713</ele>
        <time>2023-11-26T13:23:11.000Z</time>
      </trkpt>
      <trkpt lat="45.85121" lon="4.69631">
        <ele>243.82169</ele>
        <time>2023-11-26T13:23:12.000Z</time>
      </trkpt>
      <trkpt lat="45.85121" lon="4.69625">
        <ele>243.51689</ele>
        <time>2023-11-26T13:23:13.000Z</time>
      </trkpt>
      <trkpt lat="45.85121" lon="4.69618">
        <ele>243.15646</ele>
        <time>2023-11-26T13:23:14.000Z</time>
      </trkpt>
      <trkpt lat="45.85121" lon="4.69611">
        <ele>242.73466</ele>
        <time>2023-11-26T13:23:15.000Z</time>
      </trkpt>
      <trkpt lat="45.85122" lon="4.69603">
        <ele>241.74519</ele>
        <time>2023-11-26T13:23:16.000Z</time>
      </trkpt>
      <trkpt lat="45.85123" lon="4.69596">
        <ele>241.00618</ele>
        <time>2023-11-26T13:23:17.000Z</time>
      </trkpt>
      <trkpt lat="45.85123" lon="4.69588">
        <ele>240.20979</ele>
        <time>2023-11-26T13:23:18.000Z</time>
      </trkpt>
      <trkpt lat="45.85124" lon="4.69582">
        <ele>238.32779</ele>
        <time>2023-11-26T13:23:19.000Z</time>
      </trkpt>
      <trkpt lat="45.85125" lon="4.69576">
        <ele>236.46909</ele>
        <time>2023-11-26T13:23:20.000Z</time>
      </trkpt>
      <trkpt lat="45.85126" lon="4.69568">
        <ele>234.63928</ele>
        <time>2023-11-26T13:23:21.000Z</time>
      </trkpt>
      <trkpt lat="45.85127" lon="4.69561">
        <ele>232.72237</ele>
        <time>2023-11-26T13:23:22.000Z</time>
      </trkpt>
      <trkpt lat="45.85128" lon="4.69554">
        <ele>230.72542</ele>
        <time>2023-11-26T13:23:23.000Z</time>
      </trkpt>
      <trkpt lat="45.85129" lon="4.69548">
        <ele>230.57739</ele>
        <time>2023-11-26T13:23:24.000Z</time>
      </trkpt>
      <trkpt lat="45.8513" lon="4.69542">
        <ele>228.63782</ele>
        <time>2023-11-26T13:23:25.000Z</time>
      </trkpt>
      <trkpt lat="45.8513" lon="4.69534">
        <ele>226.70293</ele>
        <time>2023-11-26T13:23:26.000Z</time>
      </trkpt>
      <trkpt lat="45.85132" lon="4.69529">
        <ele>224.8544</ele>
        <time>2023-11-26T13:23:27.000Z</time>
      </trkpt>
      <trkpt lat="45.85132" lon="4.69524">
        <ele>223.00403</ele>
        <time>2023-11-26T13:23:28.000Z</time>
      </trkpt>
      <trkpt lat="45.85133" lon="4.69516">
        <ele>221.73828</ele>
        <time>2023-11-26T13:23:29.000Z</time>
      </trkpt>
      <trkpt lat="45.85135" lon="4.69508">
        <ele>220.39204</ele>
        <time>2023-11-26T13:23:30.000Z</time>
      </trkpt>
      <trkpt lat="45.85136" lon="4.69501">
        <ele>219.13411</ele>
        <time>2023-11-26T13:23:31.000Z</time>
      </trkpt>
      <trkpt lat="45.85137" lon="4.69495">
        <ele>217.88728</ele>
        <time>2023-11-26T13:23:32.000Z</time>
      </trkpt>
      <trkpt lat="45.85138" lon="4.69487">
        <ele>217.79646</ele>
        <time>2023-11-26T13:23:33.000Z</time>
      </trkpt>
      <trkpt lat="45.85138" lon="4.69481">
        <ele>217.72763</ele>
        <time>2023-11-26T13:23:34.000Z</time>
      </trkpt>
      <trkpt lat="45.8514" lon="4.69473">
        <ele>217.67273</ele>
        <time>2023-11-26T13:23:35.000Z</time>
      </trkpt>
      <trkpt lat="45.85142" lon="4.69465">
        <ele>217.61787</ele>
        <time>2023-11-26T13:23:36.000Z</time>
      </trkpt>
      <trkpt lat="45.85142" lon="4.69458">
        <ele>217.14299</ele>
        <time>2023-11-26T13:23:37.000Z</time>
      </trkpt>
      <trkpt lat="45.85144" lon="4.69451">
        <ele>216.67285</ele>
        <time>2023-11-26T13:23:38.000Z</time>
      </trkpt>
      <trkpt lat="45.85145" lon="4.69443">
        <ele>217.73288</ele>
        <time>2023-11-26T13:23:39.000Z</time>
      </trkpt>
      <trkpt lat="45.85147" lon="4.69435">
        <ele>217.53854</ele>
        <time>2023-11-26T13:23:40.000Z</time>
      </trkpt>
      <trkpt lat="45.85148" lon="4.69427">
        <ele>217.3107</ele>
        <time>2023-11-26T13:23:41.000Z</time>
      </trkpt>
      <trkpt lat="45.8515" lon="4.69418">
        <ele>217.06218</ele>
        <time>2023-11-26T13:23:42.000Z</time>
      </trkpt>
      <trkpt lat="45.85152" lon="4.69409">
        <ele>216.87692</ele>
        <time>2023-11-26T13:23:43.000Z</time>
      </trkpt>
      <trkpt lat="45.85154" lon="4.69401">
        <ele>216.71365</ele>
        <time>2023-11-26T13:23:44.000Z</time>
      </trkpt>
      <trkpt lat="45.85156" lon="4.69393">
        <ele>216.51694</ele>
        <time>2023-11-26T13:23:45.000Z</time>
      </trkpt>
      <trkpt lat="45.85158" lon="4.69384">
        <ele>216.34323</ele>
        <time>2023-11-26T13:23:46.000Z</time>
      </trkpt>
      <trkpt lat="45.85159" lon="4.69376">
        <ele>216.05099</ele>
        <time>2023-11-26T13:23:47.000Z</time>
      </trkpt>
      <trkpt lat="45.85161" lon="4.69368">
        <ele>215.80388</ele>
        <time>2023-11-26T13:23:48.000Z</time>
      </trkpt>
      <trkpt lat="45.85162" lon="4.69359">
        <ele>215.54977</ele>
        <time>2023-11-26T13:23:49.000Z</time>
      </trkpt>
      <trkpt lat="45.85164" lon="4.69353">
        <ele>215.36739</ele>
        <time>2023-11-26T13:23:50.000Z</time>
      </trkpt>
      <trkpt lat="45.85165" lon="4.69346">
        <ele>215.17497</ele>
        <time>2023-11-26T13:23:51.000Z</time>
      </trkpt>
      <trkpt lat="45.85167" lon="4.69336">
        <ele>214.96111</ele>
        <time>2023-11-26T13:23:52.000Z</time>
      </trkpt>
      <trkpt lat="45.85169" lon="4.69329">
        <ele>213.56111</ele>
        <time>2023-11-26T13:23:53.000Z</time>
      </trkpt>
      <trkpt lat="45.85172" lon="4.69323">
        <ele>212.15726</ele>
        <time>2023-11-26T13:23:54.000Z</time>
      </trkpt>
      <trkpt lat="45.85173" lon="4.69315">
        <ele>210.77512</ele>
        <time>2023-11-26T13:23:55.000Z</time>
      </trkpt>
      <trkpt lat="45.85175" lon="4.69309">
        <ele>209.40987</ele>
        <time>2023-11-26T13:23:56.000Z</time>
      </trkpt>
      <trkpt lat="45.85176" lon="4.69302">
        <ele>208.09993</ele>
        <time>2023-11-26T13:23:57.000Z</time>
      </trkpt>
      <trkpt lat="45.85176" lon="4.69294">
        <ele>206.81291</ele>
        <time>2023-11-26T13:23:58.000Z</time>
      </trkpt>
      <trkpt lat="45.85177" lon="4.69286">
        <ele>205.5116</ele>
        <time>2023-11-26T13:23:59.000Z</time>
      </trkpt>
      <trkpt lat="45.85179" lon="4.69278">
        <ele>205.53362</ele>
        <time>2023-11-26T13:24:00.000Z</time>
      </trkpt>
      <trkpt lat="45.85178" lon="4.69272">
        <ele>205.6088</ele>
        <time>2023-11-26T13:24:01.000Z</time>
      </trkpt>
      <trkpt lat="45.85178" lon="4.69264">
        <ele>205.73611</ele>
        <time>2023-11-26T13:24:02.000Z</time>
      </trkpt>
      <trkpt lat="45.85177" lon="4.69258">
        <ele>205.74739</ele>
        <time>2023-11-26T13:24:03.000Z</time>
      </trkpt>
      <trkpt lat="45.85177" lon="4.69251">
        <ele>205.76193</ele>
        <time>2023-11-26T13:24:04.000Z</time>
      </trkpt>
      <trkpt lat="45.85177" lon="4.69246">
        <ele>205.82315</ele>
        <time>2023-11-26T13:24:05.000Z</time>
      </trkpt>
      <trkpt lat="45.85177" lon="4.69242">
        <ele>205.90361</ele>
        <time>2023-11-26T13:24:06.000Z</time>
      </trkpt>
      <trkpt lat="45.85177" lon="4.69238">
        <ele>206.05649</ele>
        <time>2023-11-26T13:24:08.000Z</time>
      </trkpt>
      <trkpt lat="45.85177" lon="4.69235">
        <ele>206.2229</ele>
        <time>2023-11-26T13:24:15.000Z</time>
      </trkpt>
      <trkpt lat="45.85176" lon="4.69232">
        <ele>206.40518</ele>
        <time>2023-11-26T13:24:17.000Z</time>
      </trkpt>
      <trkpt lat="45.85175" lon="4.6923">
        <ele>206.60217</ele>
        <time>2023-11-26T13:24:18.000Z</time>
      </trkpt>
      <trkpt lat="45.85175" lon="4.69227">
        <ele>206.74556</ele>
        <time>2023-11-26T13:24:19.000Z</time>
      </trkpt>
      <trkpt lat="45.85176" lon="4.69224">
        <ele>206.86169</ele>
        <time>2023-11-26T13:24:20.000Z</time>
      </trkpt>
      <trkpt lat="45.85176" lon="4.69221">
        <ele>207.01151</ele>
        <time>2023-11-26T13:24:21.000Z</time>
      </trkpt>
      <trkpt lat="45.85177" lon="4.69217">
        <ele>207.15988</ele>
        <time>2023-11-26T13:24:22.000Z</time>
      </trkpt>
      <trkpt lat="45.85177" lon="4.69213">
        <ele>207.2655</ele>
        <time>2023-11-26T13:24:23.000Z</time>
      </trkpt>
      <trkpt lat="45.85177" lon="4.69209">
        <ele>207.35233</ele>
        <time>2023-11-26T13:24:24.000Z</time>
      </trkpt>
      <trkpt lat="45.85177" lon="4.69205">
        <ele>207.3945</ele>
        <time>2023-11-26T13:24:25.000Z</time>
      </trkpt>
      <trkpt lat="45.85178" lon="4.69201">
        <ele>207.43582</ele>
        <time>2023-11-26T13:24:26.000Z</time>
      </trkpt>
      <trkpt lat="45.8518" lon="4.69196">
        <ele>207.46658</ele>
        <time>2023-11-26T13:24:27.000Z</time>
      </trkpt>
      <trkpt lat="45.85183" lon="4.69192">
        <ele>207.41592</ele>
        <time>2023-11-26T13:24:28.000Z</time>
      </trkpt>
      <trkpt lat="45.85188" lon="4.69189">
        <ele>207.32175</ele>
        <time>2023-11-26T13:24:29.000Z</time>
      </trkpt>
      <trkpt lat="45.85193" lon="4.69188">
        <ele>207.20047</ele>
        <time>2023-11-26T13:24:30.000Z</time>
      </trkpt>
      <trkpt lat="45.85198" lon="4.69187">
        <ele>207.16728</ele>
        <time>2023-11-26T13:24:31.000Z</time>
      </trkpt>
      <trkpt lat="45.85203" lon="4.69184">
        <ele>207.13445</ele>
        <time>2023-11-26T13:24:32.000Z</time>
      </trkpt>
      <trkpt lat="45.85208" lon="4.69182">
        <ele>207.07523</ele>
        <time>2023-11-26T13:24:33.000Z</time>
      </trkpt>
      <trkpt lat="45.85212" lon="4.69181">
        <ele>206.93497</ele>
        <time>2023-11-26T13:24:34.000Z</time>
      </trkpt>
      <trkpt lat="45.85218" lon="4.69182">
        <ele>206.78032</ele>
        <time>2023-11-26T13:24:35.000Z</time>
      </trkpt>
      <trkpt lat="45.85223" lon="4.69181">
        <ele>206.62497</ele>
        <time>2023-11-26T13:24:36.000Z</time>
      </trkpt>
      <trkpt lat="45.85229" lon="4.6918">
        <ele>206.4687</ele>
        <time>2023-11-26T13:24:37.000Z</time>
      </trkpt>
      <trkpt lat="45.85234" lon="4.69177">
        <ele>206.32634</ele>
        <time>2023-11-26T13:24:38.000Z</time>
      </trkpt>
      <trkpt lat="45.85238" lon="4.69173">
        <ele>206.0616</ele>
        <time>2023-11-26T13:24:39.000Z</time>
      </trkpt>
      <trkpt lat="45.85243" lon="4.6917">
        <ele>205.86148</ele>
        <time>2023-11-26T13:24:40.000Z</time>
      </trkpt>
      <trkpt lat="45.85247" lon="4.69167">
        <ele>205.66068</ele>
        <time>2023-11-26T13:24:41.000Z</time>
      </trkpt>
      <trkpt lat="45.85251" lon="4.69162">
        <ele>205.46626</ele>
        <time>2023-11-26T13:24:42.000Z</time>
      </trkpt>
      <trkpt lat="45.85256" lon="4.69156">
        <ele>205.28525</ele>
        <time>2023-11-26T13:24:43.000Z</time>
      </trkpt>
      <trkpt lat="45.8526" lon="4.6915">
        <ele>205.11238</ele>
        <time>2023-11-26T13:24:44.000Z</time>
      </trkpt>
      <trkpt lat="45.85263" lon="4.69145">
        <ele>204.91658</ele>
        <time>2023-11-26T13:24:45.000Z</time>
      </trkpt>
      <trkpt lat="45.85267" lon="4.69139">
        <ele>204.74983</ele>
        <time>2023-11-26T13:24:46.000Z</time>
      </trkpt>
      <trkpt lat="45.8527" lon="4.69134">
        <ele>204.61551</ele>
        <time>2023-11-26T13:24:47.000Z</time>
      </trkpt>
      <trkpt lat="45.85273" lon="4.6913">
        <ele>204.46136</ele>
        <time>2023-11-26T13:24:48.000Z</time>
      </trkpt>
      <trkpt lat="45.85276" lon="4.69125">
        <ele>204.32288</ele>
        <time>2023-11-26T13:24:49.000Z</time>
      </trkpt>
      <trkpt lat="45.8528" lon="4.69121">
        <ele>204.20657</ele>
        <time>2023-11-26T13:24:50.000Z</time>
      </trkpt>
      <trkpt lat="45.85283" lon="4.69116">
        <ele>204.13948</ele>
        <time>2023-11-26T13:24:51.000Z</time>
      </trkpt>
      <trkpt lat="45.85286" lon="4.69111">
        <ele>204.06416</ele>
        <time>2023-11-26T13:24:52.000Z</time>
      </trkpt>
      <trkpt lat="45.85288" lon="4.69107">
        <ele>203.96463</ele>
        <time>2023-11-26T13:24:53.000Z</time>
      </trkpt>
      <trkpt lat="45.85292" lon="4.691">
        <ele>203.91678</ele>
        <time>2023-11-26T13:24:54.000Z</time>
      </trkpt>
      <trkpt lat="45.85296" lon="4.69095">
        <ele>203.86349</ele>
        <time>2023-11-26T13:24:55.000Z</time>
      </trkpt>
      <trkpt lat="45.853" lon="4.69089">
        <ele>203.7634</ele>
        <time>2023-11-26T13:24:56.000Z</time>
      </trkpt>
      <trkpt lat="45.85303" lon="4.69082">
        <ele>203.69543</ele>
        <time>2023-11-26T13:24:57.000Z</time>
      </trkpt>
      <trkpt lat="45.85307" lon="4.69075">
        <ele>203.59683</ele>
        <time>2023-11-26T13:24:58.000Z</time>
      </trkpt>
      <trkpt lat="45.85311" lon="4.6907">
        <ele>203.61015</ele>
        <time>2023-11-26T13:24:59.000Z</time>
      </trkpt>
      <trkpt lat="45.85313" lon="4.69063">
        <ele>204.60847</ele>
        <time>2023-11-26T13:25:00.000Z</time>
      </trkpt>
      <trkpt lat="45.85317" lon="4.69057">
        <ele>205.76445</ele>
        <time>2023-11-26T13:25:01.000Z</time>
      </trkpt>
      <trkpt lat="45.8532" lon="4.69051">
        <ele>206.91777</ele>
        <time>2023-11-26T13:25:02.000Z</time>
      </trkpt>
      <trkpt lat="45.85324" lon="4.69044">
        <ele>208.05566</ele>
        <time>2023-11-26T13:25:03.000Z</time>
      </trkpt>
      <trkpt lat="45.85327" lon="4.69038">
        <ele>209.25571</ele>
        <time>2023-11-26T13:25:04.000Z</time>
      </trkpt>
      <trkpt lat="45.8533" lon="4.69031">
        <ele>210.4375</ele>
        <time>2023-11-26T13:25:05.000Z</time>
      </trkpt>
      <trkpt lat="45.85334" lon="4.69025">
        <ele>211.59065</ele>
        <time>2023-11-26T13:25:06.000Z</time>
      </trkpt>
      <trkpt lat="45.85338" lon="4.69018">
        <ele>212.72891</ele>
        <time>2023-11-26T13:25:07.000Z</time>
      </trkpt>
      <trkpt lat="45.85341" lon="4.69012">
        <ele>213.87109</ele>
        <time>2023-11-26T13:25:08.000Z</time>
      </trkpt>
      <trkpt lat="45.85344" lon="4.69007">
        <ele>215.00171</ele>
        <time>2023-11-26T13:25:09.000Z</time>
      </trkpt>
      <trkpt lat="45.85347" lon="4.69">
        <ele>216.10855</ele>
        <time>2023-11-26T13:25:10.000Z</time>
      </trkpt>
      <trkpt lat="45.85349" lon="4.68994">
        <ele>216.36789</ele>
        <time>2023-11-26T13:25:11.000Z</time>
      </trkpt>
      <trkpt lat="45.85352" lon="4.68988">
        <ele>216.62398</ele>
        <time>2023-11-26T13:25:12.000Z</time>
      </trkpt>
      <trkpt lat="45.85356" lon="4.68981">
        <ele>216.94194</ele>
        <time>2023-11-26T13:25:13.000Z</time>
      </trkpt>
      <trkpt lat="45.85359" lon="4.68974">
        <ele>217.23189</ele>
        <time>2023-11-26T13:25:14.000Z</time>
      </trkpt>
      <trkpt lat="45.85362" lon="4.68967">
        <ele>217.54338</ele>
        <time>2023-11-26T13:25:15.000Z</time>
      </trkpt>
      <trkpt lat="45.85365" lon="4.68961">
        <ele>218.02939</ele>
        <time>2023-11-26T13:25:16.000Z</time>
      </trkpt>
      <trkpt lat="45.85368" lon="4.68955">
        <ele>218.58296</ele>
        <time>2023-11-26T13:25:17.000Z</time>
      </trkpt>
      <trkpt lat="45.85372" lon="4.68949">
        <ele>218.77608</ele>
        <time>2023-11-26T13:25:18.000Z</time>
      </trkpt>
      <trkpt lat="45.85375" lon="4.68943">
        <ele>219.05688</ele>
        <time>2023-11-26T13:25:19.000Z</time>
      </trkpt>
      <trkpt lat="45.85377" lon="4.68937">
        <ele>218.34201</ele>
        <time>2023-11-26T13:25:20.000Z</time>
      </trkpt>
      <trkpt lat="45.85379" lon="4.68929">
        <ele>217.47063</ele>
        <time>2023-11-26T13:25:21.000Z</time>
      </trkpt>
      <trkpt lat="45.8538" lon="4.68923">
        <ele>216.59148</ele>
        <time>2023-11-26T13:25:22.000Z</time>
      </trkpt>
      <trkpt lat="45.85383" lon="4.68916">
        <ele>215.7292</ele>
        <time>2023-11-26T13:25:23.000Z</time>
      </trkpt>
      <trkpt lat="45.85385" lon="4.68909">
        <ele>214.81804</ele>
        <time>2023-11-26T13:25:24.000Z</time>
      </trkpt>
      <trkpt lat="45.85387" lon="4.68903">
        <ele>214.2244</ele>
        <time>2023-11-26T13:25:25.000Z</time>
      </trkpt>
      <trkpt lat="45.8539" lon="4.68895">
        <ele>213.67061</ele>
        <time>2023-11-26T13:25:26.000Z</time>
      </trkpt>
      <trkpt lat="45.85392" lon="4.68888">
        <ele>213.09729</ele>
        <time>2023-11-26T13:25:27.000Z</time>
      </trkpt>
      <trkpt lat="45.85394" lon="4.6888">
        <ele>212.16023</ele>
        <time>2023-11-26T13:25:28.000Z</time>
      </trkpt>
      <trkpt lat="45.85395" lon="4.68873">
        <ele>211.241</ele>
        <time>2023-11-26T13:25:29.000Z</time>
      </trkpt>
      <trkpt lat="45.85397" lon="4.68866">
        <ele>210.33878</ele>
        <time>2023-11-26T13:25:30.000Z</time>
      </trkpt>
      <trkpt lat="45.85398" lon="4.6886">
        <ele>210.26111</ele>
        <time>2023-11-26T13:25:31.000Z</time>
      </trkpt>
      <trkpt lat="45.85399" lon="4.68852">
        <ele>210.18941</ele>
        <time>2023-11-26T13:25:32.000Z</time>
      </trkpt>
      <trkpt lat="45.854" lon="4.68845">
        <ele>210.09909</ele>
        <time>2023-11-26T13:25:33.000Z</time>
      </trkpt>
      <trkpt lat="45.85403" lon="4.6884">
        <ele>210.04436</ele>
        <time>2023-11-26T13:25:34.000Z</time>
      </trkpt>
      <trkpt lat="45.85407" lon="4.68836">
        <ele>209.95523</ele>
        <time>2023-11-26T13:25:35.000Z</time>
      </trkpt>
      <trkpt lat="45.8541" lon="4.68835">
        <ele>209.73445</ele>
        <time>2023-11-26T13:25:36.000Z</time>
      </trkpt>
      <trkpt lat="45.85415" lon="4.68836">
        <ele>209.38181</ele>
        <time>2023-11-26T13:25:37.000Z</time>
      </trkpt>
      <trkpt lat="45.8542" lon="4.68837">
        <ele>209.41853</ele>
        <time>2023-11-26T13:25:38.000Z</time>
      </trkpt>
      <trkpt lat="45.85425" lon="4.68838">
        <ele>209.48276</ele>
        <time>2023-11-26T13:25:39.000Z</time>
      </trkpt>
      <trkpt lat="45.85428" lon="4.68842">
        <ele>209.44283</ele>
        <time>2023-11-26T13:25:40.000Z</time>
      </trkpt>
      <trkpt lat="45.85432" lon="4.68844">
        <ele>209.60442</ele>
        <time>2023-11-26T13:25:41.000Z</time>
      </trkpt>
      <trkpt lat="45.85437" lon="4.68846">
        <ele>209.74365</ele>
        <time>2023-11-26T13:25:42.000Z</time>
      </trkpt>
      <trkpt lat="45.85442" lon="4.68847">
        <ele>209.85506</ele>
        <time>2023-11-26T13:25:43.000Z</time>
      </trkpt>
      <trkpt lat="45.85446" lon="4.68848">
        <ele>210.06546</ele>
        <time>2023-11-26T13:25:44.000Z</time>
      </trkpt>
      <trkpt lat="45.85451" lon="4.68847">
        <ele>210.0247</ele>
        <time>2023-11-26T13:25:45.000Z</time>
      </trkpt>
      <trkpt lat="45.85455" lon="4.68846">
        <ele>209.59021</ele>
        <time>2023-11-26T13:25:46.000Z</time>
      </trkpt>
      <trkpt lat="45.8546" lon="4.68845">
        <ele>209.26706</ele>
        <time>2023-11-26T13:25:47.000Z</time>
      </trkpt>
      <trkpt lat="45.85464" lon="4.68844">
        <ele>209.42876</ele>
        <time>2023-11-26T13:25:48.000Z</time>
      </trkpt>
      <trkpt lat="45.85477" lon="4.68836">
        <ele>209.91618</ele>
        <time>2023-11-26T13:25:51.000Z</time>
      </trkpt>
      <trkpt lat="45.8548" lon="4.68836">
        <ele>210.31467</ele>
        <time>2023-11-26T13:25:52.000Z</time>
      </trkpt>
      <trkpt lat="45.85484" lon="4.68837">
        <ele>210.62735</ele>
        <time>2023-11-26T13:25:53.000Z</time>
      </trkpt>
      <trkpt lat="45.85489" lon="4.68837">
        <ele>210.96371</ele>
        <time>2023-11-26T13:25:54.000Z</time>
      </trkpt>
      <trkpt lat="45.85494" lon="4.68837">
        <ele>211.32625</ele>
        <time>2023-11-26T13:25:55.000Z</time>
      </trkpt>
      <trkpt lat="45.85499" lon="4.68837">
        <ele>211.67618</ele>
        <time>2023-11-26T13:25:56.000Z</time>
      </trkpt>
      <trkpt lat="45.85502" lon="4.68834">
        <ele>212.03882</ele>
        <time>2023-11-26T13:25:57.000Z</time>
      </trkpt>
      <trkpt lat="45.85505" lon="4.68831">
        <ele>212.36446</ele>
        <time>2023-11-26T13:25:58.000Z</time>
      </trkpt>
      <trkpt lat="45.85506" lon="4.68824">
        <ele>212.69331</ele>
        <time>2023-11-26T13:25:59.000Z</time>
      </trkpt>
      <trkpt lat="45.85507" lon="4.68818">
        <ele>212.98616</ele>
        <time>2023-11-26T13:26:00.000Z</time>
      </trkpt>
      <trkpt lat="45.85506" lon="4.68811">
        <ele>213.16902</ele>
        <time>2023-11-26T13:26:01.000Z</time>
      </trkpt>
      <trkpt lat="45.85505" lon="4.68805">
        <ele>213.46155</ele>
        <time>2023-11-26T13:26:02.000Z</time>
      </trkpt>
      <trkpt lat="45.85504" lon="4.68797">
        <ele>213.25114</ele>
        <time>2023-11-26T13:26:03.000Z</time>
      </trkpt>
      <trkpt lat="45.85504" lon="4.6879">
        <ele>213.18246</ele>
        <time>2023-11-26T13:26:04.000Z</time>
      </trkpt>
      <trkpt lat="45.85503" lon="4.68782">
        <ele>213.13448</ele>
        <time>2023-11-26T13:26:05.000Z</time>
      </trkpt>
      <trkpt lat="45.85502" lon="4.68775">
        <ele>212.98425</ele>
        <time>2023-11-26T13:26:06.000Z</time>
      </trkpt>
      <trkpt lat="45.85505" lon="4.6877">
        <ele>213.03125</ele>
        <time>2023-11-26T13:26:07.000Z</time>
      </trkpt>
      <trkpt lat="45.85509" lon="4.68765">
        <ele>213.64426</ele>
        <time>2023-11-26T13:26:08.000Z</time>
      </trkpt>
      <trkpt lat="45.85513" lon="4.68761">
        <ele>214.18819</ele>
        <time>2023-11-26T13:26:09.000Z</time>
      </trkpt>
      <trkpt lat="45.85519" lon="4.68758">
        <ele>214.17557</ele>
        <time>2023-11-26T13:26:10.000Z</time>
      </trkpt>
      <trkpt lat="45.85523" lon="4.68756">
        <ele>213.86108</ele>
        <time>2023-11-26T13:26:11.000Z</time>
      </trkpt>
      <trkpt lat="45.85527" lon="4.68754">
        <ele>213.62141</ele>
        <time>2023-11-26T13:26:12.000Z</time>
      </trkpt>
      <trkpt lat="45.85531" lon="4.68753">
        <ele>213.45967</ele>
        <time>2023-11-26T13:26:13.000Z</time>
      </trkpt>
      <trkpt lat="45.85538" lon="4.68752">
        <ele>213.33061</ele>
        <time>2023-11-26T13:26:15.000Z</time>
      </trkpt>
      <trkpt lat="45.85541" lon="4.68752">
        <ele>213.50259</ele>
        <time>2023-11-26T13:26:16.000Z</time>
      </trkpt>
      <trkpt lat="45.85545" lon="4.68752">
        <ele>213.65039</ele>
        <time>2023-11-26T13:26:17.000Z</time>
      </trkpt>
      <trkpt lat="45.85548" lon="4.68751">
        <ele>213.76761</ele>
        <time>2023-11-26T13:26:18.000Z</time>
      </trkpt>
      <trkpt lat="45.8555" lon="4.68747">
        <ele>213.86919</ele>
        <time>2023-11-26T13:26:19.000Z</time>
      </trkpt>
      <trkpt lat="45.85552" lon="4.68745">
        <ele>213.92941</ele>
        <time>2023-11-26T13:26:20.000Z</time>
      </trkpt>
      <trkpt lat="45.85555" lon="4.6874">
        <ele>214.05972</ele>
        <time>2023-11-26T13:26:21.000Z</time>
      </trkpt>
      <trkpt lat="45.85557" lon="4.68741">
        <ele>213.58455</ele>
        <time>2023-11-26T13:26:22.000Z</time>
      </trkpt>
      <trkpt lat="45.8556" lon="4.68744">
        <ele>213.13142</ele>
        <time>2023-11-26T13:26:23.000Z</time>
      </trkpt>
      <trkpt lat="45.85563" lon="4.68746">
        <ele>212.97424</ele>
        <time>2023-11-26T13:26:24.000Z</time>
      </trkpt>
      <trkpt lat="45.85566" lon="4.68748">
        <ele>212.72989</ele>
        <time>2023-11-26T13:26:25.000Z</time>
      </trkpt>
      <trkpt lat="45.85571" lon="4.68749">
        <ele>212.73288</ele>
        <time>2023-11-26T13:26:26.000Z</time>
      </trkpt>
      <trkpt lat="45.85575" lon="4.6875">
        <ele>212.77104</ele>
        <time>2023-11-26T13:26:27.000Z</time>
      </trkpt>
      <trkpt lat="45.85581" lon="4.68748">
        <ele>212.55112</ele>
        <time>2023-11-26T13:26:28.000Z</time>
      </trkpt>
      <trkpt lat="45.85586" lon="4.68746">
        <ele>212.07352</ele>
        <time>2023-11-26T13:26:29.000Z</time>
      </trkpt>
      <trkpt lat="45.8559" lon="4.68742">
        <ele>211.15678</ele>
        <time>2023-11-26T13:26:30.000Z</time>
      </trkpt>
      <trkpt lat="45.85594" lon="4.6874">
        <ele>210.66118</ele>
        <time>2023-11-26T13:26:31.000Z</time>
      </trkpt>
      <trkpt lat="45.85599" lon="4.68735">
        <ele>210.10666</ele>
        <time>2023-11-26T13:26:32.000Z</time>
      </trkpt>
      <trkpt lat="45.85603" lon="4.68733">
        <ele>209.55952</ele>
        <time>2023-11-26T13:26:33.000Z</time>
      </trkpt>
      <trkpt lat="45.85607" lon="4.6873">
        <ele>209.03516</ele>
        <time>2023-11-26T13:26:34.000Z</time>
      </trkpt>
      <trkpt lat="45.85611" lon="4.68727">
        <ele>208.46724</ele>
        <time>2023-11-26T13:26:35.000Z</time>
      </trkpt>
      <trkpt lat="45.85615" lon="4.68724">
        <ele>208.21785</ele>
        <time>2023-11-26T13:26:36.000Z</time>
      </trkpt>
      <trkpt lat="45.85619" lon="4.68723">
        <ele>207.66956</ele>
        <time>2023-11-26T13:26:37.000Z</time>
      </trkpt>
      <trkpt lat="45.85624" lon="4.6872">
        <ele>207.16232</ele>
        <time>2023-11-26T13:26:38.000Z</time>
      </trkpt>
      <trkpt lat="45.85628" lon="4.6872">
        <ele>206.67087</ele>
        <time>2023-11-26T13:26:39.000Z</time>
      </trkpt>
      <trkpt lat="45.85633" lon="4.68719">
        <ele>206.21272</ele>
        <time>2023-11-26T13:26:40.000Z</time>
      </trkpt>
      <trkpt lat="45.85637" lon="4.68718">
        <ele>205.71887</ele>
        <time>2023-11-26T13:26:41.000Z</time>
      </trkpt>
      <trkpt lat="45.85641" lon="4.68716">
        <ele>205.86516</ele>
        <time>2023-11-26T13:26:42.000Z</time>
      </trkpt>
      <trkpt lat="45.85646" lon="4.68714">
        <ele>205.99748</ele>
        <time>2023-11-26T13:26:43.000Z</time>
      </trkpt>
      <trkpt lat="45.8565" lon="4.68711">
        <ele>206.29056</ele>
        <time>2023-11-26T13:26:44.000Z</time>
      </trkpt>
      <trkpt lat="45.85654" lon="4.68709">
        <ele>206.63924</ele>
        <time>2023-11-26T13:26:45.000Z</time>
      </trkpt>
      <trkpt lat="45.85659" lon="4.68709">
        <ele>206.75967</ele>
        <time>2023-11-26T13:26:46.000Z</time>
      </trkpt>
      <trkpt lat="45.85664" lon="4.68708">
        <ele>206.46785</ele>
        <time>2023-11-26T13:26:47.000Z</time>
      </trkpt>
      <trkpt lat="45.85669" lon="4.68707">
        <ele>206.29404</ele>
        <time>2023-11-26T13:26:48.000Z</time>
      </trkpt>
      <trkpt lat="45.85673" lon="4.68706">
        <ele>206.19975</ele>
        <time>2023-11-26T13:26:49.000Z</time>
      </trkpt>
      <trkpt lat="45.85677" lon="4.68704">
        <ele>206.48726</ele>
        <time>2023-11-26T13:26:50.000Z</time>
      </trkpt>
      <trkpt lat="45.85682" lon="4.68703">
        <ele>206.80447</ele>
        <time>2023-11-26T13:26:51.000Z</time>
      </trkpt>
      <trkpt lat="45.85686" lon="4.68702">
        <ele>207.13431</ele>
        <time>2023-11-26T13:26:52.000Z</time>
      </trkpt>
      <trkpt lat="45.8569" lon="4.687">
        <ele>207.45903</ele>
        <time>2023-11-26T13:26:53.000Z</time>
      </trkpt>
      <trkpt lat="45.85694" lon="4.68699">
        <ele>207.72949</ele>
        <time>2023-11-26T13:26:54.000Z</time>
      </trkpt>
      <trkpt lat="45.857" lon="4.68698">
        <ele>208.04874</ele>
        <time>2023-11-26T13:26:55.000Z</time>
      </trkpt>
      <trkpt lat="45.85704" lon="4.68697">
        <ele>207.88596</ele>
        <time>2023-11-26T13:26:56.000Z</time>
      </trkpt>
      <trkpt lat="45.85708" lon="4.68696">
        <ele>208.13684</ele>
        <time>2023-11-26T13:26:57.000Z</time>
      </trkpt>
      <trkpt lat="45.85713" lon="4.68695">
        <ele>208.4248</ele>
        <time>2023-11-26T13:26:58.000Z</time>
      </trkpt>
      <trkpt lat="45.85719" lon="4.68695">
        <ele>208.31522</ele>
        <time>2023-11-26T13:26:59.000Z</time>
      </trkpt>
      <trkpt lat="45.85724" lon="4.68693">
        <ele>208.32285</ele>
        <time>2023-11-26T13:27:00.000Z</time>
      </trkpt>
      <trkpt lat="45.85729" lon="4.68692">
        <ele>208.30771</ele>
        <time>2023-11-26T13:27:01.000Z</time>
      </trkpt>
      <trkpt lat="45.85733" lon="4.68691">
        <ele>208.25021</ele>
        <time>2023-11-26T13:27:02.000Z</time>
      </trkpt>
      <trkpt lat="45.85738" lon="4.68688">
        <ele>208.20566</ele>
        <time>2023-11-26T13:27:03.000Z</time>
      </trkpt>
      <trkpt lat="45.85744" lon="4.68686">
        <ele>208.005</ele>
        <time>2023-11-26T13:27:04.000Z</time>
      </trkpt>
      <trkpt lat="45.85748" lon="4.68683">
        <ele>207.72664</ele>
        <time>2023-11-26T13:27:05.000Z</time>
      </trkpt>
      <trkpt lat="45.85753" lon="4.6868">
        <ele>207.40466</ele>
        <time>2023-11-26T13:27:06.000Z</time>
      </trkpt>
      <trkpt lat="45.85757" lon="4.68677">
        <ele>207.46997</ele>
        <time>2023-11-26T13:27:07.000Z</time>
      </trkpt>
      <trkpt lat="45.85761" lon="4.68675">
        <ele>207.46965</ele>
        <time>2023-11-26T13:27:08.000Z</time>
      </trkpt>
      <trkpt lat="45.85765" lon="4.68671">
        <ele>207.63364</ele>
        <time>2023-11-26T13:27:09.000Z</time>
      </trkpt>
      <trkpt lat="45.85769" lon="4.68668">
        <ele>207.96985</ele>
        <time>2023-11-26T13:27:10.000Z</time>
      </trkpt>
      <trkpt lat="45.85773" lon="4.68664">
        <ele>207.90886</ele>
        <time>2023-11-26T13:27:11.000Z</time>
      </trkpt>
      <trkpt lat="45.85778" lon="4.6866">
        <ele>207.91145</ele>
        <time>2023-11-26T13:27:12.000Z</time>
      </trkpt>
      <trkpt lat="45.85781" lon="4.68656">
        <ele>207.92102</ele>
        <time>2023-11-26T13:27:13.000Z</time>
      </trkpt>
      <trkpt lat="45.85785" lon="4.68653">
        <ele>207.99309</ele>
        <time>2023-11-26T13:27:14.000Z</time>
      </trkpt>
      <trkpt lat="45.85788" lon="4.6865">
        <ele>207.99289</ele>
        <time>2023-11-26T13:27:15.000Z</time>
      </trkpt>
      <trkpt lat="45.85791" lon="4.68647">
        <ele>207.84274</ele>
        <time>2023-11-26T13:27:16.000Z</time>
      </trkpt>
      <trkpt lat="45.85794" lon="4.68644">
        <ele>207.61235</ele>
        <time>2023-11-26T13:27:17.000Z</time>
      </trkpt>
      <trkpt lat="45.85797" lon="4.68641">
        <ele>207.27982</ele>
        <time>2023-11-26T13:27:18.000Z</time>
      </trkpt>
      <trkpt lat="45.85801" lon="4.68639">
        <ele>207.3448</ele>
        <time>2023-11-26T13:27:19.000Z</time>
      </trkpt>
      <trkpt lat="45.85804" lon="4.68635">
        <ele>207.30644</ele>
        <time>2023-11-26T13:27:20.000Z</time>
      </trkpt>
      <trkpt lat="45.85807" lon="4.68632">
        <ele>207.27414</ele>
        <time>2023-11-26T13:27:21.000Z</time>
      </trkpt>
      <trkpt lat="45.8581" lon="4.68629">
        <ele>207.27127</ele>
        <time>2023-11-26T13:27:22.000Z</time>
      </trkpt>
      <trkpt lat="45.85811" lon="4.68625">
        <ele>207.23303</ele>
        <time>2023-11-26T13:27:23.000Z</time>
      </trkpt>
      <trkpt lat="45.85812" lon="4.6862">
        <ele>207.18283</ele>
        <time>2023-11-26T13:27:24.000Z</time>
      </trkpt>
      <trkpt lat="45.85812" lon="4.68614">
        <ele>207.14262</ele>
        <time>2023-11-26T13:27:25.000Z</time>
      </trkpt>
      <trkpt lat="45.85813" lon="4.68608">
        <ele>207.13274</ele>
        <time>2023-11-26T13:27:26.000Z</time>
      </trkpt>
      <trkpt lat="45.85811" lon="4.68602">
        <ele>207.06482</ele>
        <time>2023-11-26T13:27:27.000Z</time>
      </trkpt>
      <trkpt lat="45.8581" lon="4.68596">
        <ele>207.00623</ele>
        <time>2023-11-26T13:27:28.000Z</time>
      </trkpt>
      <trkpt lat="45.85809" lon="4.68589">
        <ele>206.74612</ele>
        <time>2023-11-26T13:27:29.000Z</time>
      </trkpt>
      <trkpt lat="45.85808" lon="4.68583">
        <ele>206.36975</ele>
        <time>2023-11-26T13:27:30.000Z</time>
      </trkpt>
      <trkpt lat="45.85806" lon="4.68576">
        <ele>206.36089</ele>
        <time>2023-11-26T13:27:31.000Z</time>
      </trkpt>
      <trkpt lat="45.85805" lon="4.68571">
        <ele>206.29678</ele>
        <time>2023-11-26T13:27:32.000Z</time>
      </trkpt>
      <trkpt lat="45.85803" lon="4.68564">
        <ele>206.21577</ele>
        <time>2023-11-26T13:27:33.000Z</time>
      </trkpt>
      <trkpt lat="45.85801" lon="4.68558">
        <ele>206.13936</ele>
        <time>2023-11-26T13:27:34.000Z</time>
      </trkpt>
      <trkpt lat="45.85799" lon="4.68552">
        <ele>206.12158</ele>
        <time>2023-11-26T13:27:35.000Z</time>
      </trkpt>
      <trkpt lat="45.85797" lon="4.68547">
        <ele>206.04732</ele>
        <time>2023-11-26T13:27:36.000Z</time>
      </trkpt>
      <trkpt lat="45.85795" lon="4.68541">
        <ele>205.96318</ele>
        <time>2023-11-26T13:27:37.000Z</time>
      </trkpt>
      <trkpt lat="45.85793" lon="4.68535">
        <ele>206.12671</ele>
        <time>2023-11-26T13:27:38.000Z</time>
      </trkpt>
      <trkpt lat="45.85791" lon="4.68528">
        <ele>206.28777</ele>
        <time>2023-11-26T13:27:39.000Z</time>
      </trkpt>
      <trkpt lat="45.85789" lon="4.68522">
        <ele>206.51224</ele>
        <time>2023-11-26T13:27:40.000Z</time>
      </trkpt>
      <trkpt lat="45.85786" lon="4.68514">
        <ele>206.86946</ele>
        <time>2023-11-26T13:27:41.000Z</time>
      </trkpt>
      <trkpt lat="45.85785" lon="4.68509">
        <ele>207.25876</ele>
        <time>2023-11-26T13:27:42.000Z</time>
      </trkpt>
      <trkpt lat="45.85783" lon="4.68502">
        <ele>207.25269</ele>
        <time>2023-11-26T13:27:43.000Z</time>
      </trkpt>
      <trkpt lat="45.85783" lon="4.68494">
        <ele>207.31889</ele>
        <time>2023-11-26T13:27:44.000Z</time>
      </trkpt>
      <trkpt lat="45.85783" lon="4.68487">
        <ele>207.31731</ele>
        <time>2023-11-26T13:27:45.000Z</time>
      </trkpt>
      <trkpt lat="45.85782" lon="4.6848">
        <ele>207.24783</ele>
        <time>2023-11-26T13:27:46.000Z</time>
      </trkpt>
      <trkpt lat="45.85781" lon="4.68474">
        <ele>207.23709</ele>
        <time>2023-11-26T13:27:47.000Z</time>
      </trkpt>
      <trkpt lat="45.85779" lon="4.68467">
        <ele>207.21672</ele>
        <time>2023-11-26T13:27:48.000Z</time>
      </trkpt>
      <trkpt lat="45.85778" lon="4.68461">
        <ele>207.24146</ele>
        <time>2023-11-26T13:27:49.000Z</time>
      </trkpt>
      <trkpt lat="45.85777" lon="4.68455">
        <ele>207.27104</ele>
        <time>2023-11-26T13:27:50.000Z</time>
      </trkpt>
      <trkpt lat="45.85775" lon="4.6845">
        <ele>207.52756</ele>
        <time>2023-11-26T13:27:51.000Z</time>
      </trkpt>
      <trkpt lat="45.85773" lon="4.68443">
        <ele>207.76138</ele>
        <time>2023-11-26T13:27:52.000Z</time>
      </trkpt>
      <trkpt lat="45.85772" lon="4.68437">
        <ele>208.00708</ele>
        <time>2023-11-26T13:27:53.000Z</time>
      </trkpt>
      <trkpt lat="45.8577" lon="4.68432">
        <ele>208.25456</ele>
        <time>2023-11-26T13:27:54.000Z</time>
      </trkpt>
      <trkpt lat="45.85768" lon="4.68427">
        <ele>208.49532</ele>
        <time>2023-11-26T13:27:55.000Z</time>
      </trkpt>
      <trkpt lat="45.85766" lon="4.6842">
        <ele>208.76169</ele>
        <time>2023-11-26T13:27:56.000Z</time>
      </trkpt>
      <trkpt lat="45.85764" lon="4.68414">
        <ele>209.04044</ele>
        <time>2023-11-26T13:27:57.000Z</time>
      </trkpt>
      <trkpt lat="45.85762" lon="4.68408">
        <ele>209.17744</ele>
        <time>2023-11-26T13:27:58.000Z</time>
      </trkpt>
      <trkpt lat="45.85759" lon="4.68401">
        <ele>209.38968</ele>
        <time>2023-11-26T13:27:59.000Z</time>
      </trkpt>
      <trkpt lat="45.85759" lon="4.68395">
        <ele>209.14656</ele>
        <time>2023-11-26T13:28:00.000Z</time>
      </trkpt>
      <trkpt lat="45.85756" lon="4.68389">
        <ele>208.82971</ele>
        <time>2023-11-26T13:28:01.000Z</time>
      </trkpt>
      <trkpt lat="45.85754" lon="4.68384">
        <ele>208.4838</ele>
        <time>2023-11-26T13:28:02.000Z</time>
      </trkpt>
      <trkpt lat="45.85751" lon="4.68378">
        <ele>208.54163</ele>
        <time>2023-11-26T13:28:03.000Z</time>
      </trkpt>
      <trkpt lat="45.85749" lon="4.68372">
        <ele>208.53731</ele>
        <time>2023-11-26T13:28:04.000Z</time>
      </trkpt>
      <trkpt lat="45.85747" lon="4.68367">
        <ele>208.7471</ele>
        <time>2023-11-26T13:28:05.000Z</time>
      </trkpt>
      <trkpt lat="45.85745" lon="4.68361">
        <ele>209.02396</ele>
        <time>2023-11-26T13:28:06.000Z</time>
      </trkpt>
      <trkpt lat="45.85743" lon="4.68355">
        <ele>209.29773</ele>
        <time>2023-11-26T13:28:07.000Z</time>
      </trkpt>
      <trkpt lat="45.85742" lon="4.68348">
        <ele>209.58374</ele>
        <time>2023-11-26T13:28:08.000Z</time>
      </trkpt>
      <trkpt lat="45.85739" lon="4.68341">
        <ele>209.82397</ele>
        <time>2023-11-26T13:28:09.000Z</time>
      </trkpt>
      <trkpt lat="45.85737" lon="4.68335">
        <ele>210.03625</ele>
        <time>2023-11-26T13:28:10.000Z</time>
      </trkpt>
      <trkpt lat="45.85735" lon="4.68329">
        <ele>210.05298</ele>
        <time>2023-11-26T13:28:11.000Z</time>
      </trkpt>
      <trkpt lat="45.85732" lon="4.68323">
        <ele>210.07585</ele>
        <time>2023-11-26T13:28:12.000Z</time>
      </trkpt>
      <trkpt lat="45.85729" lon="4.68318">
        <ele>210.10043</ele>
        <time>2023-11-26T13:28:13.000Z</time>
      </trkpt>
      <trkpt lat="45.85726" lon="4.68311">
        <ele>210.19083</ele>
        <time>2023-11-26T13:28:14.000Z</time>
      </trkpt>
      <trkpt lat="45.85722" lon="4.68307">
        <ele>210.30228</ele>
        <time>2023-11-26T13:28:15.000Z</time>
      </trkpt>
      <trkpt lat="45.85719" lon="4.68303">
        <ele>210.43478</ele>
        <time>2023-11-26T13:28:16.000Z</time>
      </trkpt>
      <trkpt lat="45.85715" lon="4.68298">
        <ele>210.59647</ele>
        <time>2023-11-26T13:28:17.000Z</time>
      </trkpt>
      <trkpt lat="45.8571" lon="4.68294">
        <ele>210.29367</ele>
        <time>2023-11-26T13:28:18.000Z</time>
      </trkpt>
      <trkpt lat="45.85707" lon="4.68289">
        <ele>209.93962</ele>
        <time>2023-11-26T13:28:19.000Z</time>
      </trkpt>
      <trkpt lat="45.85704" lon="4.68284">
        <ele>209.93506</ele>
        <time>2023-11-26T13:28:20.000Z</time>
      </trkpt>
      <trkpt lat="45.857" lon="4.6828">
        <ele>209.86563</ele>
        <time>2023-11-26T13:28:21.000Z</time>
      </trkpt>
      <trkpt lat="45.85696" lon="4.68275">
        <ele>209.81161</ele>
        <time>2023-11-26T13:28:22.000Z</time>
      </trkpt>
      <trkpt lat="45.85692" lon="4.6827">
        <ele>209.78568</ele>
        <time>2023-11-26T13:28:23.000Z</time>
      </trkpt>
      <trkpt lat="45.85688" lon="4.68265">
        <ele>209.7496</ele>
        <time>2023-11-26T13:28:24.000Z</time>
      </trkpt>
      <trkpt lat="45.85685" lon="4.6826">
        <ele>209.57036</ele>
        <time>2023-11-26T13:28:25.000Z</time>
      </trkpt>
      <trkpt lat="45.85681" lon="4.68256">
        <ele>209.43091</ele>
        <time>2023-11-26T13:28:26.000Z</time>
      </trkpt>
      <trkpt lat="45.85677" lon="4.68252">
        <ele>209.29802</ele>
        <time>2023-11-26T13:28:27.000Z</time>
      </trkpt>
      <trkpt lat="45.85672" lon="4.68247">
        <ele>209.15422</ele>
        <time>2023-11-26T13:28:28.000Z</time>
      </trkpt>
      <trkpt lat="45.85668" lon="4.68242">
        <ele>209.07605</ele>
        <time>2023-11-26T13:28:29.000Z</time>
      </trkpt>
      <trkpt lat="45.85664" lon="4.68237">
        <ele>208.96785</ele>
        <time>2023-11-26T13:28:30.000Z</time>
      </trkpt>
      <trkpt lat="45.8566" lon="4.68232">
        <ele>208.73543</ele>
        <time>2023-11-26T13:28:31.000Z</time>
      </trkpt>
      <trkpt lat="45.85656" lon="4.68228">
        <ele>208.52576</ele>
        <time>2023-11-26T13:28:32.000Z</time>
      </trkpt>
      <trkpt lat="45.85652" lon="4.68223">
        <ele>208.314</ele>
        <time>2023-11-26T13:28:33.000Z</time>
      </trkpt>
      <trkpt lat="45.85648" lon="4.68219">
        <ele>208.01541</ele>
        <time>2023-11-26T13:28:34.000Z</time>
      </trkpt>
      <trkpt lat="45.85644" lon="4.68214">
        <ele>207.66382</ele>
        <time>2023-11-26T13:28:35.000Z</time>
      </trkpt>
      <trkpt lat="45.8564" lon="4.68209">
        <ele>207.33481</ele>
        <time>2023-11-26T13:28:36.000Z</time>
      </trkpt>
      <trkpt lat="45.85637" lon="4.68204">
        <ele>206.94846</ele>
        <time>2023-11-26T13:28:37.000Z</time>
      </trkpt>
      <trkpt lat="45.85633" lon="4.682">
        <ele>206.98682</ele>
        <time>2023-11-26T13:28:38.000Z</time>
      </trkpt>
      <trkpt lat="45.8563" lon="4.68194">
        <ele>207.01929</ele>
        <time>2023-11-26T13:28:39.000Z</time>
      </trkpt>
      <trkpt lat="45.85627" lon="4.68188">
        <ele>207.37968</ele>
        <time>2023-11-26T13:28:40.000Z</time>
      </trkpt>
      <trkpt lat="45.85624" lon="4.68183">
        <ele>207.72983</ele>
        <time>2023-11-26T13:28:41.000Z</time>
      </trkpt>
      <trkpt lat="45.85621" lon="4.68179">
        <ele>208.08984</ele>
        <time>2023-11-26T13:28:42.000Z</time>
      </trkpt>
      <trkpt lat="45.85617" lon="4.68175">
        <ele>208.41122</ele>
        <time>2023-11-26T13:28:43.000Z</time>
      </trkpt>
      <trkpt lat="45.85615" lon="4.6817">
        <ele>208.75835</ele>
        <time>2023-11-26T13:28:44.000Z</time>
      </trkpt>
      <trkpt lat="45.85611" lon="4.68164">
        <ele>209.06706</ele>
        <time>2023-11-26T13:28:45.000Z</time>
      </trkpt>
      <trkpt lat="45.85609" lon="4.68159">
        <ele>209.35149</ele>
        <time>2023-11-26T13:28:46.000Z</time>
      </trkpt>
      <trkpt lat="45.85606" lon="4.68154">
        <ele>209.63396</ele>
        <time>2023-11-26T13:28:47.000Z</time>
      </trkpt>
      <trkpt lat="45.85603" lon="4.68148">
        <ele>209.92961</ele>
        <time>2023-11-26T13:28:48.000Z</time>
      </trkpt>
      <trkpt lat="45.85601" lon="4.68142">
        <ele>209.89291</ele>
        <time>2023-11-26T13:28:49.000Z</time>
      </trkpt>
      <trkpt lat="45.85598" lon="4.68137">
        <ele>210.00223</ele>
        <time>2023-11-26T13:28:50.000Z</time>
      </trkpt>
      <trkpt lat="45.85596" lon="4.68132">
        <ele>210.23271</ele>
        <time>2023-11-26T13:28:51.000Z</time>
      </trkpt>
      <trkpt lat="45.85593" lon="4.68129">
        <ele>210.44711</ele>
        <time>2023-11-26T13:28:52.000Z</time>
      </trkpt>
      <trkpt lat="45.85591" lon="4.68124">
        <ele>210.68802</ele>
        <time>2023-11-26T13:28:53.000Z</time>
      </trkpt>
      <trkpt lat="45.85587" lon="4.68119">
        <ele>210.96147</ele>
        <time>2023-11-26T13:28:54.000Z</time>
      </trkpt>
      <trkpt lat="45.85583" lon="4.68114">
        <ele>211.4115</ele>
        <time>2023-11-26T13:28:55.000Z</time>
      </trkpt>
      <trkpt lat="45.85582" lon="4.68107">
        <ele>211.90654</ele>
        <time>2023-11-26T13:28:56.000Z</time>
      </trkpt>
      <trkpt lat="45.8558" lon="4.68101">
        <ele>212.36926</ele>
        <time>2023-11-26T13:28:57.000Z</time>
      </trkpt>
      <trkpt lat="45.85577" lon="4.68095">
        <ele>212.85332</ele>
        <time>2023-11-26T13:28:58.000Z</time>
      </trkpt>
      <trkpt lat="45.85575" lon="4.68091">
        <ele>213.43159</ele>
        <time>2023-11-26T13:28:59.000Z</time>
      </trkpt>
      <trkpt lat="45.85571" lon="4.68085">
        <ele>213.81503</ele>
        <time>2023-11-26T13:29:00.000Z</time>
      </trkpt>
      <trkpt lat="45.85571" lon="4.6808">
        <ele>213.87627</ele>
        <time>2023-11-26T13:29:01.000Z</time>
      </trkpt>
      <trkpt lat="45.85568" lon="4.68074">
        <ele>213.97322</ele>
        <time>2023-11-26T13:29:02.000Z</time>
      </trkpt>
      <trkpt lat="45.85566" lon="4.68067">
        <ele>214.10831</ele>
        <time>2023-11-26T13:29:03.000Z</time>
      </trkpt>
      <trkpt lat="45.85562" lon="4.6806">
        <ele>214.14676</ele>
        <time>2023-11-26T13:29:04.000Z</time>
      </trkpt>
      <trkpt lat="45.85559" lon="4.68052">
        <ele>214.14139</ele>
        <time>2023-11-26T13:29:05.000Z</time>
      </trkpt>
      <trkpt lat="45.85557" lon="4.68047">
        <ele>214.24442</ele>
        <time>2023-11-26T13:29:06.000Z</time>
      </trkpt>
      <trkpt lat="45.85556" lon="4.68041">
        <ele>214.44254</ele>
        <time>2023-11-26T13:29:07.000Z</time>
      </trkpt>
      <trkpt lat="45.85554" lon="4.68035">
        <ele>214.2054</ele>
        <time>2023-11-26T13:29:08.000Z</time>
      </trkpt>
      <trkpt lat="45.85553" lon="4.68028">
        <ele>214.29068</ele>
        <time>2023-11-26T13:29:09.000Z</time>
      </trkpt>
      <trkpt lat="45.8555" lon="4.68022">
        <ele>214.35233</ele>
        <time>2023-11-26T13:29:10.000Z</time>
      </trkpt>
      <trkpt lat="45.85548" lon="4.68017">
        <ele>214.36765</ele>
        <time>2023-11-26T13:29:11.000Z</time>
      </trkpt>
      <trkpt lat="45.85546" lon="4.6801">
        <ele>214.41895</ele>
        <time>2023-11-26T13:29:12.000Z</time>
      </trkpt>
      <trkpt lat="45.85545" lon="4.68004">
        <ele>214.47942</ele>
        <time>2023-11-26T13:29:13.000Z</time>
      </trkpt>
      <trkpt lat="45.85543" lon="4.67998">
        <ele>214.59073</ele>
        <time>2023-11-26T13:29:14.000Z</time>
      </trkpt>
      <trkpt lat="45.85541" lon="4.67992">
        <ele>214.53474</ele>
        <time>2023-11-26T13:29:15.000Z</time>
      </trkpt>
      <trkpt lat="45.85542" lon="4.67987">
        <ele>214.43047</ele>
        <time>2023-11-26T13:29:16.000Z</time>
      </trkpt>
      <trkpt lat="45.85541" lon="4.67984">
        <ele>214.68921</ele>
        <time>2023-11-26T13:29:17.000Z</time>
      </trkpt>
      <trkpt lat="45.8554" lon="4.67979">
        <ele>214.92815</ele>
        <time>2023-11-26T13:29:18.000Z</time>
      </trkpt>
      <trkpt lat="45.85539" lon="4.67974">
        <ele>215.04155</ele>
        <time>2023-11-26T13:29:19.000Z</time>
      </trkpt>
      <trkpt lat="45.85538" lon="4.67971">
        <ele>215.06271</ele>
        <time>2023-11-26T13:29:20.000Z</time>
      </trkpt>
      <trkpt lat="45.85537" lon="4.67967">
        <ele>215.00693</ele>
        <time>2023-11-26T13:29:21.000Z</time>
      </trkpt>
      <trkpt lat="45.85536" lon="4.67964">
        <ele>214.92151</ele>
        <time>2023-11-26T13:29:22.000Z</time>
      </trkpt>
      <trkpt lat="45.85536" lon="4.67962">
        <ele>214.8718</ele>
        <time>2023-11-26T13:29:23.000Z</time>
      </trkpt>
      <trkpt lat="45.85535" lon="4.67957">
        <ele>214.85086</ele>
        <time>2023-11-26T13:29:25.000Z</time>
      </trkpt>
      <trkpt lat="45.85534" lon="4.67955">
        <ele>214.90561</ele>
        <time>2023-11-26T13:29:26.000Z</time>
      </trkpt>
      <trkpt lat="45.85533" lon="4.67952">
        <ele>214.88049</ele>
        <time>2023-11-26T13:29:27.000Z</time>
      </trkpt>
      <trkpt lat="45.85532" lon="4.67948">
        <ele>214.98161</ele>
        <time>2023-11-26T13:29:28.000Z</time>
      </trkpt>
      <trkpt lat="45.8553" lon="4.67943">
        <ele>215.46973</ele>
        <time>2023-11-26T13:29:29.000Z</time>
      </trkpt>
      <trkpt lat="45.85528" lon="4.67939">
        <ele>215.90218</ele>
        <time>2023-11-26T13:29:30.000Z</time>
      </trkpt>
      <trkpt lat="45.85526" lon="4.67934">
        <ele>216.33203</ele>
        <time>2023-11-26T13:29:31.000Z</time>
      </trkpt>
      <trkpt lat="45.85524" lon="4.6793">
        <ele>216.39653</ele>
        <time>2023-11-26T13:29:32.000Z</time>
      </trkpt>
      <trkpt lat="45.85522" lon="4.67924">
        <ele>216.50333</ele>
        <time>2023-11-26T13:29:33.000Z</time>
      </trkpt>
      <trkpt lat="45.8552" lon="4.67919">
        <ele>216.54021</ele>
        <time>2023-11-26T13:29:34.000Z</time>
      </trkpt>
      <trkpt lat="45.85518" lon="4.67914">
        <ele>216.45261</ele>
        <time>2023-11-26T13:29:35.000Z</time>
      </trkpt>
      <trkpt lat="45.85516" lon="4.67908">
        <ele>216.41545</ele>
        <time>2023-11-26T13:29:36.000Z</time>
      </trkpt>
      <trkpt lat="45.85514" lon="4.67902">
        <ele>216.37354</ele>
        <time>2023-11-26T13:29:37.000Z</time>
      </trkpt>
      <trkpt lat="45.85512" lon="4.67897">
        <ele>215.99777</ele>
        <time>2023-11-26T13:29:38.000Z</time>
      </trkpt>
      <trkpt lat="45.8551" lon="4.67889">
        <ele>215.59538</ele>
        <time>2023-11-26T13:29:39.000Z</time>
      </trkpt>
      <trkpt lat="45.8551" lon="4.67883">
        <ele>215.24251</ele>
        <time>2023-11-26T13:29:40.000Z</time>
      </trkpt>
      <trkpt lat="45.85508" lon="4.67876">
        <ele>214.90474</ele>
        <time>2023-11-26T13:29:41.000Z</time>
      </trkpt>
      <trkpt lat="45.85506" lon="4.67869">
        <ele>214.92122</ele>
        <time>2023-11-26T13:29:42.000Z</time>
      </trkpt>
      <trkpt lat="45.85503" lon="4.67862">
        <ele>214.91174</ele>
        <time>2023-11-26T13:29:43.000Z</time>
      </trkpt>
      <trkpt lat="45.85503" lon="4.67855">
        <ele>214.87198</ele>
        <time>2023-11-26T13:29:44.000Z</time>
      </trkpt>
      <trkpt lat="45.85501" lon="4.67849">
        <ele>214.93692</ele>
        <time>2023-11-26T13:29:45.000Z</time>
      </trkpt>
      <trkpt lat="45.855" lon="4.67843">
        <ele>215.00603</ele>
        <time>2023-11-26T13:29:46.000Z</time>
      </trkpt>
      <trkpt lat="45.85499" lon="4.67837">
        <ele>215.00797</ele>
        <time>2023-11-26T13:29:47.000Z</time>
      </trkpt>
      <trkpt lat="45.85498" lon="4.67831">
        <ele>214.75967</ele>
        <time>2023-11-26T13:29:48.000Z</time>
      </trkpt>
      <trkpt lat="45.85496" lon="4.67825">
        <ele>214.45828</ele>
        <time>2023-11-26T13:29:49.000Z</time>
      </trkpt>
      <trkpt lat="45.85494" lon="4.67819">
        <ele>214.16611</ele>
        <time>2023-11-26T13:29:50.000Z</time>
      </trkpt>
      <trkpt lat="45.85491" lon="4.67811">
        <ele>213.77754</ele>
        <time>2023-11-26T13:29:51.000Z</time>
      </trkpt>
      <trkpt lat="45.8549" lon="4.67807">
        <ele>213.7509</ele>
        <time>2023-11-26T13:29:52.000Z</time>
      </trkpt>
      <trkpt lat="45.8549" lon="4.67801">
        <ele>213.64888</ele>
        <time>2023-11-26T13:29:53.000Z</time>
      </trkpt>
      <trkpt lat="45.85489" lon="4.67793">
        <ele>213.61337</ele>
        <time>2023-11-26T13:29:54.000Z</time>
      </trkpt>
      <trkpt lat="45.85487" lon="4.67788">
        <ele>213.71819</ele>
        <time>2023-11-26T13:29:55.000Z</time>
      </trkpt>
      <trkpt lat="45.85488" lon="4.6778">
        <ele>213.75232</ele>
        <time>2023-11-26T13:29:56.000Z</time>
      </trkpt>
      <trkpt lat="45.85488" lon="4.67773">
        <ele>213.74832</ele>
        <time>2023-11-26T13:29:57.000Z</time>
      </trkpt>
      <trkpt lat="45.8549" lon="4.67765">
        <ele>213.74094</ele>
        <time>2023-11-26T13:29:58.000Z</time>
      </trkpt>
      <trkpt lat="45.85491" lon="4.6776">
        <ele>213.67256</ele>
        <time>2023-11-26T13:29:59.000Z</time>
      </trkpt>
      <trkpt lat="45.85493" lon="4.67753">
        <ele>213.53738</ele>
        <time>2023-11-26T13:30:00.000Z</time>
      </trkpt>
      <trkpt lat="45.85495" lon="4.67747">
        <ele>213.37137</ele>
        <time>2023-11-26T13:30:01.000Z</time>
      </trkpt>
      <trkpt lat="45.85497" lon="4.6774">
        <ele>213.23909</ele>
        <time>2023-11-26T13:30:02.000Z</time>
      </trkpt>
      <trkpt lat="45.855" lon="4.67735">
        <ele>213.09732</ele>
        <time>2023-11-26T13:30:03.000Z</time>
      </trkpt>
      <trkpt lat="45.85502" lon="4.6773">
        <ele>212.96089</ele>
        <time>2023-11-26T13:30:04.000Z</time>
      </trkpt>
      <trkpt lat="45.85505" lon="4.67725">
        <ele>212.79111</ele>
        <time>2023-11-26T13:30:05.000Z</time>
      </trkpt>
      <trkpt lat="45.85508" lon="4.67718">
        <ele>212.58667</ele>
        <time>2023-11-26T13:30:06.000Z</time>
      </trkpt>
      <trkpt lat="45.8551" lon="4.67711">
        <ele>212.38704</ele>
        <time>2023-11-26T13:30:07.000Z</time>
      </trkpt>
      <trkpt lat="45.85513" lon="4.67706">
        <ele>212.15015</ele>
        <time>2023-11-26T13:30:08.000Z</time>
      </trkpt>
      <trkpt lat="45.85516" lon="4.677">
        <ele>211.92911</ele>
        <time>2023-11-26T13:30:09.000Z</time>
      </trkpt>
      <trkpt lat="45.85519" lon="4.67695">
        <ele>211.67729</ele>
        <time>2023-11-26T13:30:10.000Z</time>
      </trkpt>
      <trkpt lat="45.85522" lon="4.6769">
        <ele>211.4209</ele>
        <time>2023-11-26T13:30:11.000Z</time>
      </trkpt>
      <trkpt lat="45.85524" lon="4.67685">
        <ele>211.17859</ele>
        <time>2023-11-26T13:30:12.000Z</time>
      </trkpt>
      <trkpt lat="45.85527" lon="4.6768">
        <ele>210.96037</ele>
        <time>2023-11-26T13:30:13.000Z</time>
      </trkpt>
      <trkpt lat="45.85531" lon="4.67676">
        <ele>210.6694</ele>
        <time>2023-11-26T13:30:14.000Z</time>
      </trkpt>
      <trkpt lat="45.85534" lon="4.67672">
        <ele>210.31836</ele>
        <time>2023-11-26T13:30:15.000Z</time>
      </trkpt>
      <trkpt lat="45.85539" lon="4.67666">
        <ele>209.99622</ele>
        <time>2023-11-26T13:30:16.000Z</time>
      </trkpt>
      <trkpt lat="45.85542" lon="4.67662">
        <ele>209.72485</ele>
        <time>2023-11-26T13:30:17.000Z</time>
      </trkpt>
      <trkpt lat="45.85546" lon="4.67658">
        <ele>209.47705</ele>
        <time>2023-11-26T13:30:18.000Z</time>
      </trkpt>
      <trkpt lat="45.85549" lon="4.67655">
        <ele>209.31482</ele>
        <time>2023-11-26T13:30:19.000Z</time>
      </trkpt>
      <trkpt lat="45.85552" lon="4.67651">
        <ele>209.16928</ele>
        <time>2023-11-26T13:30:20.000Z</time>
      </trkpt>
      <trkpt lat="45.85556" lon="4.67647">
        <ele>209.02133</ele>
        <time>2023-11-26T13:30:21.000Z</time>
      </trkpt>
      <trkpt lat="45.85559" lon="4.67644">
        <ele>208.93559</ele>
        <time>2023-11-26T13:30:22.000Z</time>
      </trkpt>
      <trkpt lat="45.85562" lon="4.6764">
        <ele>208.85747</ele>
        <time>2023-11-26T13:30:23.000Z</time>
      </trkpt>
      <trkpt lat="45.85565" lon="4.67637">
        <ele>208.75481</ele>
        <time>2023-11-26T13:30:24.000Z</time>
      </trkpt>
      <trkpt lat="45.8557" lon="4.67633">
        <ele>208.61093</ele>
        <time>2023-11-26T13:30:25.000Z</time>
      </trkpt>
      <trkpt lat="45.85573" lon="4.67629">
        <ele>208.51172</ele>
        <time>2023-11-26T13:30:26.000Z</time>
      </trkpt>
      <trkpt lat="45.85577" lon="4.67625">
        <ele>208.43149</ele>
        <time>2023-11-26T13:30:27.000Z</time>
      </trkpt>
      <trkpt lat="45.8558" lon="4.67621">
        <ele>208.40396</ele>
        <time>2023-11-26T13:30:28.000Z</time>
      </trkpt>
      <trkpt lat="45.85583" lon="4.67617">
        <ele>208.4364</ele>
        <time>2023-11-26T13:30:29.000Z</time>
      </trkpt>
      <trkpt lat="45.85586" lon="4.67612">
        <ele>208.46634</ele>
        <time>2023-11-26T13:30:30.000Z</time>
      </trkpt>
      <trkpt lat="45.8559" lon="4.67608">
        <ele>208.53865</ele>
        <time>2023-11-26T13:30:31.000Z</time>
      </trkpt>
      <trkpt lat="45.85594" lon="4.67603">
        <ele>208.63022</ele>
        <time>2023-11-26T13:30:32.000Z</time>
      </trkpt>
      <trkpt lat="45.85597" lon="4.67599">
        <ele>208.68124</ele>
        <time>2023-11-26T13:30:33.000Z</time>
      </trkpt>
      <trkpt lat="45.856" lon="4.67595">
        <ele>208.76767</ele>
        <time>2023-11-26T13:30:34.000Z</time>
      </trkpt>
      <trkpt lat="45.85605" lon="4.67591">
        <ele>208.86633</ele>
        <time>2023-11-26T13:30:35.000Z</time>
      </trkpt>
      <trkpt lat="45.85608" lon="4.67588">
        <ele>208.93918</ele>
        <time>2023-11-26T13:30:36.000Z</time>
      </trkpt>
      <trkpt lat="45.85611" lon="4.67584">
        <ele>208.97717</ele>
        <time>2023-11-26T13:30:37.000Z</time>
      </trkpt>
      <trkpt lat="45.85614" lon="4.67581">
        <ele>209.03732</ele>
        <time>2023-11-26T13:30:38.000Z</time>
      </trkpt>
      <trkpt lat="45.85618" lon="4.67577">
        <ele>209.06975</ele>
        <time>2023-11-26T13:30:39.000Z</time>
      </trkpt>
      <trkpt lat="45.85621" lon="4.67574">
        <ele>209.12598</ele>
        <time>2023-11-26T13:30:40.000Z</time>
      </trkpt>
      <trkpt lat="45.85625" lon="4.67571">
        <ele>209.21558</ele>
        <time>2023-11-26T13:30:41.000Z</time>
      </trkpt>
      <trkpt lat="45.85628" lon="4.67568">
        <ele>209.23804</ele>
        <time>2023-11-26T13:30:42.000Z</time>
      </trkpt>
      <trkpt lat="45.85632" lon="4.67565">
        <ele>209.26724</ele>
        <time>2023-11-26T13:30:43.000Z</time>
      </trkpt>
      <trkpt lat="45.85636" lon="4.67561">
        <ele>209.27625</ele>
        <time>2023-11-26T13:30:44.000Z</time>
      </trkpt>
      <trkpt lat="45.85639" lon="4.67559">
        <ele>209.32986</ele>
        <time>2023-11-26T13:30:45.000Z</time>
      </trkpt>
      <trkpt lat="45.85642" lon="4.67556">
        <ele>209.36113</ele>
        <time>2023-11-26T13:30:46.000Z</time>
      </trkpt>
      <trkpt lat="45.85646" lon="4.67553">
        <ele>209.38901</ele>
        <time>2023-11-26T13:30:47.000Z</time>
      </trkpt>
      <trkpt lat="45.85649" lon="4.6755">
        <ele>209.42351</ele>
        <time>2023-11-26T13:30:48.000Z</time>
      </trkpt>
      <trkpt lat="45.85653" lon="4.67546">
        <ele>209.47012</ele>
        <time>2023-11-26T13:30:49.000Z</time>
      </trkpt>
      <trkpt lat="45.85657" lon="4.67543">
        <ele>209.55415</ele>
        <time>2023-11-26T13:30:50.000Z</time>
      </trkpt>
      <trkpt lat="45.8566" lon="4.6754">
        <ele>209.54875</ele>
        <time>2023-11-26T13:30:51.000Z</time>
      </trkpt>
      <trkpt lat="45.85663" lon="4.67536">
        <ele>209.55038</ele>
        <time>2023-11-26T13:30:52.000Z</time>
      </trkpt>
      <trkpt lat="45.85667" lon="4.67532">
        <ele>209.56563</ele>
        <time>2023-11-26T13:30:53.000Z</time>
      </trkpt>
      <trkpt lat="45.85671" lon="4.67528">
        <ele>209.56787</ele>
        <time>2023-11-26T13:30:54.000Z</time>
      </trkpt>
      <trkpt lat="45.85674" lon="4.67526">
        <ele>209.54517</ele>
        <time>2023-11-26T13:30:55.000Z</time>
      </trkpt>
      <trkpt lat="45.85678" lon="4.67522">
        <ele>209.54941</ele>
        <time>2023-11-26T13:30:56.000Z</time>
      </trkpt>
      <trkpt lat="45.85681" lon="4.67518">
        <ele>209.56502</ele>
        <time>2023-11-26T13:30:57.000Z</time>
      </trkpt>
      <trkpt lat="45.85684" lon="4.67514">
        <ele>209.56487</ele>
        <time>2023-11-26T13:30:58.000Z</time>
      </trkpt>
      <trkpt lat="45.85688" lon="4.6751">
        <ele>209.55798</ele>
        <time>2023-11-26T13:30:59.000Z</time>
      </trkpt>
      <trkpt lat="45.85691" lon="4.67505">
        <ele>209.54744</ele>
        <time>2023-11-26T13:31:00.000Z</time>
      </trkpt>
      <trkpt lat="45.85694" lon="4.67501">
        <ele>209.54231</ele>
        <time>2023-11-26T13:31:01.000Z</time>
      </trkpt>
      <trkpt lat="45.85698" lon="4.67497">
        <ele>209.55852</ele>
        <time>2023-11-26T13:31:02.000Z</time>
      </trkpt>
      <trkpt lat="45.857" lon="4.67492">
        <ele>209.62273</ele>
        <time>2023-11-26T13:31:03.000Z</time>
      </trkpt>
      <trkpt lat="45.85704" lon="4.67487">
        <ele>209.70596</ele>
        <time>2023-11-26T13:31:04.000Z</time>
      </trkpt>
      <trkpt lat="45.85707" lon="4.67482">
        <ele>209.75577</ele>
        <time>2023-11-26T13:31:05.000Z</time>
      </trkpt>
      <trkpt lat="45.8571" lon="4.67477">
        <ele>209.79936</ele>
        <time>2023-11-26T13:31:06.000Z</time>
      </trkpt>
      <trkpt lat="45.85713" lon="4.67473">
        <ele>209.80994</ele>
        <time>2023-11-26T13:31:07.000Z</time>
      </trkpt>
      <trkpt lat="45.85716" lon="4.67469">
        <ele>209.8251</ele>
        <time>2023-11-26T13:31:08.000Z</time>
      </trkpt>
      <trkpt lat="45.85719" lon="4.67465">
        <ele>209.82828</ele>
        <time>2023-11-26T13:31:09.000Z</time>
      </trkpt>
      <trkpt lat="45.85722" lon="4.67461">
        <ele>209.82837</ele>
        <time>2023-11-26T13:31:10.000Z</time>
      </trkpt>
      <trkpt lat="45.85724" lon="4.67458">
        <ele>209.88864</ele>
        <time>2023-11-26T13:31:11.000Z</time>
      </trkpt>
      <trkpt lat="45.85726" lon="4.67454">
        <ele>209.95573</ele>
        <time>2023-11-26T13:31:12.000Z</time>
      </trkpt>
      <trkpt lat="45.85728" lon="4.6745">
        <ele>210.02768</ele>
        <time>2023-11-26T13:31:13.000Z</time>
      </trkpt>
      <trkpt lat="45.85731" lon="4.67446">
        <ele>210.10403</ele>
        <time>2023-11-26T13:31:14.000Z</time>
      </trkpt>
      <trkpt lat="45.85734" lon="4.67441">
        <ele>210.15019</ele>
        <time>2023-11-26T13:31:15.000Z</time>
      </trkpt>
      <trkpt lat="45.85737" lon="4.67436">
        <ele>210.17679</ele>
        <time>2023-11-26T13:31:16.000Z</time>
      </trkpt>
      <trkpt lat="45.85739" lon="4.67432">
        <ele>210.19116</ele>
        <time>2023-11-26T13:31:17.000Z</time>
      </trkpt>
      <trkpt lat="45.85741" lon="4.67427">
        <ele>210.14262</ele>
        <time>2023-11-26T13:31:18.000Z</time>
      </trkpt>
      <trkpt lat="45.85743" lon="4.67422">
        <ele>210.09468</ele>
        <time>2023-11-26T13:31:19.000Z</time>
      </trkpt>
      <trkpt lat="45.85745" lon="4.67416">
        <ele>210.0518</ele>
        <time>2023-11-26T13:31:20.000Z</time>
      </trkpt>
      <trkpt lat="45.85748" lon="4.67411">
        <ele>210.00322</ele>
        <time>2023-11-26T13:31:21.000Z</time>
      </trkpt>
      <trkpt lat="45.85751" lon="4.67406">
        <ele>209.9519</ele>
        <time>2023-11-26T13:31:22.000Z</time>
      </trkpt>
      <trkpt lat="45.85753" lon="4.674">
        <ele>209.82663</ele>
        <time>2023-11-26T13:31:23.000Z</time>
      </trkpt>
      <trkpt lat="45.85756" lon="4.67394">
        <ele>209.66769</ele>
        <time>2023-11-26T13:31:24.000Z</time>
      </trkpt>
      <trkpt lat="45.85758" lon="4.67389">
        <ele>209.51584</ele>
        <time>2023-11-26T13:31:25.000Z</time>
      </trkpt>
      <trkpt lat="45.8576" lon="4.67383">
        <ele>209.36487</ele>
        <time>2023-11-26T13:31:26.000Z</time>
      </trkpt>
      <trkpt lat="45.85762" lon="4.67379">
        <ele>209.25285</ele>
        <time>2023-11-26T13:31:27.000Z</time>
      </trkpt>
      <trkpt lat="45.85764" lon="4.67374">
        <ele>209.1508</ele>
        <time>2023-11-26T13:31:28.000Z</time>
      </trkpt>
      <trkpt lat="45.85767" lon="4.6737">
        <ele>209.07808</ele>
        <time>2023-11-26T13:31:29.000Z</time>
      </trkpt>
      <trkpt lat="45.8577" lon="4.67367">
        <ele>209.21724</ele>
        <time>2023-11-26T13:31:30.000Z</time>
      </trkpt>
      <trkpt lat="45.85774" lon="4.67365">
        <ele>209.49673</ele>
        <time>2023-11-26T13:31:31.000Z</time>
      </trkpt>
      <trkpt lat="45.85777" lon="4.67361">
        <ele>209.74736</ele>
        <time>2023-11-26T13:31:32.000Z</time>
      </trkpt>
      <trkpt lat="45.8578" lon="4.67357">
        <ele>209.66959</ele>
        <time>2023-11-26T13:31:33.000Z</time>
      </trkpt>
      <trkpt lat="45.85779" lon="4.67352">
        <ele>209.6707</ele>
        <time>2023-11-26T13:31:34.000Z</time>
      </trkpt>
      <trkpt lat="45.85778" lon="4.67347">
        <ele>209.6824</ele>
        <time>2023-11-26T13:31:35.000Z</time>
      </trkpt>
      <trkpt lat="45.85776" lon="4.67344">
        <ele>209.6987</ele>
        <time>2023-11-26T13:31:36.000Z</time>
      </trkpt>
      <trkpt lat="45.85775" lon="4.67341">
        <ele>209.7338</ele>
        <time>2023-11-26T13:31:37.000Z</time>
      </trkpt>
      <trkpt lat="45.85774" lon="4.67337">
        <ele>209.80557</ele>
        <time>2023-11-26T13:31:38.000Z</time>
      </trkpt>
      <trkpt lat="45.85774" lon="4.6733">
        <ele>209.87903</ele>
        <time>2023-11-26T13:31:39.000Z</time>
      </trkpt>
      <trkpt lat="45.85772" lon="4.67325">
        <ele>209.96341</ele>
        <time>2023-11-26T13:31:40.000Z</time>
      </trkpt>
      <trkpt lat="45.85769" lon="4.67321">
        <ele>210.00623</ele>
        <time>2023-11-26T13:31:41.000Z</time>
      </trkpt>
      <trkpt lat="45.85765" lon="4.67317">
        <ele>210.04886</ele>
        <time>2023-11-26T13:31:42.000Z</time>
      </trkpt>
      <trkpt lat="45.85761" lon="4.67314">
        <ele>210.30057</ele>
        <time>2023-11-26T13:31:43.000Z</time>
      </trkpt>
      <trkpt lat="45.85759" lon="4.67309">
        <ele>210.60281</ele>
        <time>2023-11-26T13:31:44.000Z</time>
      </trkpt>
      <trkpt lat="45.85755" lon="4.67305">
        <ele>210.84799</ele>
        <time>2023-11-26T13:31:45.000Z</time>
      </trkpt>
      <trkpt lat="45.85752" lon="4.67301">
        <ele>211.16699</ele>
        <time>2023-11-26T13:31:46.000Z</time>
      </trkpt>
      <trkpt lat="45.85749" lon="4.67298">
        <ele>211.43481</ele>
        <time>2023-11-26T13:31:47.000Z</time>
      </trkpt>
      <trkpt lat="45.85745" lon="4.67294">
        <ele>211.64682</ele>
        <time>2023-11-26T13:31:48.000Z</time>
      </trkpt>
      <trkpt lat="45.85744" lon="4.6729">
        <ele>211.7957</ele>
        <time>2023-11-26T13:31:49.000Z</time>
      </trkpt>
      <trkpt lat="45.8574" lon="4.67286">
        <ele>211.68375</ele>
        <time>2023-11-26T13:31:50.000Z</time>
      </trkpt>
      <trkpt lat="45.85737" lon="4.67283">
        <ele>211.41841</ele>
        <time>2023-11-26T13:31:51.000Z</time>
      </trkpt>
      <trkpt lat="45.85734" lon="4.67281">
        <ele>211.22697</ele>
        <time>2023-11-26T13:31:52.000Z</time>
      </trkpt>
      <trkpt lat="45.8573" lon="4.67278">
        <ele>211.42822</ele>
        <time>2023-11-26T13:31:53.000Z</time>
      </trkpt>
      <trkpt lat="45.85727" lon="4.67276">
        <ele>211.56172</ele>
        <time>2023-11-26T13:31:54.000Z</time>
      </trkpt>
      <trkpt lat="45.85723" lon="4.67274">
        <ele>211.64731</ele>
        <time>2023-11-26T13:31:55.000Z</time>
      </trkpt>
      <trkpt lat="45.8572" lon="4.67272">
        <ele>211.80586</ele>
        <time>2023-11-26T13:31:56.000Z</time>
      </trkpt>
      <trkpt lat="45.85716" lon="4.67269">
        <ele>211.91545</ele>
        <time>2023-11-26T13:31:57.000Z</time>
      </trkpt>
      <trkpt lat="45.85712" lon="4.67267">
        <ele>212.07588</ele>
        <time>2023-11-26T13:31:58.000Z</time>
      </trkpt>
      <trkpt lat="45.85708" lon="4.67264">
        <ele>212.21274</ele>
        <time>2023-11-26T13:31:59.000Z</time>
      </trkpt>
      <trkpt lat="45.85704" lon="4.67262">
        <ele>212.25577</ele>
        <time>2023-11-26T13:32:00.000Z</time>
      </trkpt>
      <trkpt lat="45.857" lon="4.67261">
        <ele>212.34622</ele>
        <time>2023-11-26T13:32:01.000Z</time>
      </trkpt>
      <trkpt lat="45.85697" lon="4.67261">
        <ele>212.46977</ele>
        <time>2023-11-26T13:32:02.000Z</time>
      </trkpt>
      <trkpt lat="45.85691" lon="4.67259">
        <ele>212.34787</ele>
        <time>2023-11-26T13:32:03.000Z</time>
      </trkpt>
      <trkpt lat="45.85686" lon="4.67258">
        <ele>212.17551</ele>
        <time>2023-11-26T13:32:04.000Z</time>
      </trkpt>
      <trkpt lat="45.85684" lon="4.67256">
        <ele>212.16202</ele>
        <time>2023-11-26T13:32:05.000Z</time>
      </trkpt>
      <trkpt lat="45.85679" lon="4.67255">
        <ele>212.16573</ele>
        <time>2023-11-26T13:32:06.000Z</time>
      </trkpt>
      <trkpt lat="45.85676" lon="4.67252">
        <ele>212.2347</ele>
        <time>2023-11-26T13:32:07.000Z</time>
      </trkpt>
      <trkpt lat="45.85674" lon="4.6725">
        <ele>212.42058</ele>
        <time>2023-11-26T13:32:08.000Z</time>
      </trkpt>
      <trkpt lat="45.85671" lon="4.67249">
        <ele>212.70081</ele>
        <time>2023-11-26T13:32:09.000Z</time>
      </trkpt>
      <trkpt lat="45.85667" lon="4.67247">
        <ele>212.99385</ele>
        <time>2023-11-26T13:32:10.000Z</time>
      </trkpt>
      <trkpt lat="45.85662" lon="4.67243">
        <ele>213.33916</ele>
        <time>2023-11-26T13:32:11.000Z</time>
      </trkpt>
      <trkpt lat="45.85658" lon="4.67239">
        <ele>213.60498</ele>
        <time>2023-11-26T13:32:12.000Z</time>
      </trkpt>
      <trkpt lat="45.85654" lon="4.67236">
        <ele>214.033</ele>
        <time>2023-11-26T13:32:13.000Z</time>
      </trkpt>
      <trkpt lat="45.85651" lon="4.67234">
        <ele>214.50208</ele>
        <time>2023-11-26T13:32:14.000Z</time>
      </trkpt>
      <trkpt lat="45.85649" lon="4.67232">
        <ele>215.14494</ele>
        <time>2023-11-26T13:32:15.000Z</time>
      </trkpt>
      <trkpt lat="45.85646" lon="4.6723">
        <ele>215.7061</ele>
        <time>2023-11-26T13:32:16.000Z</time>
      </trkpt>
      <trkpt lat="45.85643" lon="4.67227">
        <ele>216.3311</ele>
        <time>2023-11-26T13:32:17.000Z</time>
      </trkpt>
      <trkpt lat="45.8564" lon="4.67224">
        <ele>217.04745</ele>
        <time>2023-11-26T13:32:18.000Z</time>
      </trkpt>
      <trkpt lat="45.85637" lon="4.67221">
        <ele>217.44498</ele>
        <time>2023-11-26T13:32:19.000Z</time>
      </trkpt>
      <trkpt lat="45.85634" lon="4.67218">
        <ele>217.94873</ele>
        <time>2023-11-26T13:32:20.000Z</time>
      </trkpt>
      <trkpt lat="45.85631" lon="4.67215">
        <ele>218.44844</ele>
        <time>2023-11-26T13:32:21.000Z</time>
      </trkpt>
      <trkpt lat="45.85628" lon="4.67211">
        <ele>218.88919</ele>
        <time>2023-11-26T13:32:22.000Z</time>
      </trkpt>
      <trkpt lat="45.85625" lon="4.67207">
        <ele>219.34953</ele>
        <time>2023-11-26T13:32:23.000Z</time>
      </trkpt>
      <trkpt lat="45.85622" lon="4.67203">
        <ele>219.83</ele>
        <time>2023-11-26T13:32:24.000Z</time>
      </trkpt>
      <trkpt lat="45.8562" lon="4.67199">
        <ele>220.30704</ele>
        <time>2023-11-26T13:32:25.000Z</time>
      </trkpt>
      <trkpt lat="45.85618" lon="4.67195">
        <ele>220.87032</ele>
        <time>2023-11-26T13:32:26.000Z</time>
      </trkpt>
      <trkpt lat="45.85616" lon="4.67191">
        <ele>221.40372</ele>
        <time>2023-11-26T13:32:27.000Z</time>
      </trkpt>
      <trkpt lat="45.85614" lon="4.67186">
        <ele>221.89314</ele>
        <time>2023-11-26T13:32:28.000Z</time>
      </trkpt>
      <trkpt lat="45.85612" lon="4.67182">
        <ele>222.37741</ele>
        <time>2023-11-26T13:32:29.000Z</time>
      </trkpt>
      <trkpt lat="45.8561" lon="4.67176">
        <ele>222.91971</ele>
        <time>2023-11-26T13:32:30.000Z</time>
      </trkpt>
      <trkpt lat="45.85608" lon="4.67171">
        <ele>222.99771</ele>
        <time>2023-11-26T13:32:31.000Z</time>
      </trkpt>
      <trkpt lat="45.85606" lon="4.67166">
        <ele>223.10974</ele>
        <time>2023-11-26T13:32:32.000Z</time>
      </trkpt>
      <trkpt lat="45.85603" lon="4.6716">
        <ele>223.00935</ele>
        <time>2023-11-26T13:32:33.000Z</time>
      </trkpt>
      <trkpt lat="45.85601" lon="4.67154">
        <ele>222.83965</ele>
        <time>2023-11-26T13:32:34.000Z</time>
      </trkpt>
      <trkpt lat="45.85598" lon="4.67149">
        <ele>222.52026</ele>
        <time>2023-11-26T13:32:35.000Z</time>
      </trkpt>
      <trkpt lat="45.85596" lon="4.67144">
        <ele>222.19846</ele>
        <time>2023-11-26T13:32:36.000Z</time>
      </trkpt>
      <trkpt lat="45.85593" lon="4.67137">
        <ele>221.80969</ele>
        <time>2023-11-26T13:32:37.000Z</time>
      </trkpt>
      <trkpt lat="45.85589" lon="4.67132">
        <ele>221.29163</ele>
        <time>2023-11-26T13:32:38.000Z</time>
      </trkpt>
      <trkpt lat="45.85588" lon="4.67127">
        <ele>221.14143</ele>
        <time>2023-11-26T13:32:39.000Z</time>
      </trkpt>
      <trkpt lat="45.85586" lon="4.6712">
        <ele>221.01225</ele>
        <time>2023-11-26T13:32:40.000Z</time>
      </trkpt>
      <trkpt lat="45.85584" lon="4.67113">
        <ele>220.8302</ele>
        <time>2023-11-26T13:32:41.000Z</time>
      </trkpt>
      <trkpt lat="45.85582" lon="4.67108">
        <ele>220.64836</ele>
        <time>2023-11-26T13:32:42.000Z</time>
      </trkpt>
      <trkpt lat="45.8558" lon="4.67101">
        <ele>220.47917</ele>
        <time>2023-11-26T13:32:43.000Z</time>
      </trkpt>
      <trkpt lat="45.85578" lon="4.67095">
        <ele>220.38391</ele>
        <time>2023-11-26T13:32:44.000Z</time>
      </trkpt>
      <trkpt lat="45.85576" lon="4.6709">
        <ele>219.60677</ele>
        <time>2023-11-26T13:32:45.000Z</time>
      </trkpt>
      <trkpt lat="45.85574" lon="4.67083">
        <ele>218.66129</ele>
        <time>2023-11-26T13:32:46.000Z</time>
      </trkpt>
      <trkpt lat="45.85573" lon="4.67079">
        <ele>217.74495</ele>
        <time>2023-11-26T13:32:47.000Z</time>
      </trkpt>
      <trkpt lat="45.85572" lon="4.67073">
        <ele>216.81648</ele>
        <time>2023-11-26T13:32:48.000Z</time>
      </trkpt>
      <trkpt lat="45.8557" lon="4.67068">
        <ele>215.87134</ele>
        <time>2023-11-26T13:32:49.000Z</time>
      </trkpt>
      <trkpt lat="45.85568" lon="4.67063">
        <ele>214.9238</ele>
        <time>2023-11-26T13:32:50.000Z</time>
      </trkpt>
      <trkpt lat="45.85565" lon="4.67058">
        <ele>214.32898</ele>
        <time>2023-11-26T13:32:51.000Z</time>
      </trkpt>
      <trkpt lat="45.85563" lon="4.67053">
        <ele>213.74089</ele>
        <time>2023-11-26T13:32:52.000Z</time>
      </trkpt>
      <trkpt lat="45.85561" lon="4.67049">
        <ele>213.15898</ele>
        <time>2023-11-26T13:32:53.000Z</time>
      </trkpt>
      <trkpt lat="45.85559" lon="4.67044">
        <ele>212.60075</ele>
        <time>2023-11-26T13:32:54.000Z</time>
      </trkpt>
      <trkpt lat="45.85558" lon="4.6704">
        <ele>212.07886</ele>
        <time>2023-11-26T13:32:55.000Z</time>
      </trkpt>
      <trkpt lat="45.85556" lon="4.67035">
        <ele>211.56458</ele>
        <time>2023-11-26T13:32:56.000Z</time>
      </trkpt>
      <trkpt lat="45.85555" lon="4.6703">
        <ele>211.12029</ele>
        <time>2023-11-26T13:32:57.000Z</time>
      </trkpt>
      <trkpt lat="45.85553" lon="4.67024">
        <ele>210.6694</ele>
        <time>2023-11-26T13:32:58.000Z</time>
      </trkpt>
      <trkpt lat="45.85552" lon="4.67018">
        <ele>210.22531</ele>
        <time>2023-11-26T13:32:59.000Z</time>
      </trkpt>
      <trkpt lat="45.8555" lon="4.67012">
        <ele>209.73376</ele>
        <time>2023-11-26T13:33:00.000Z</time>
      </trkpt>
      <trkpt lat="45.85549" lon="4.67006">
        <ele>209.26045</ele>
        <time>2023-11-26T13:33:01.000Z</time>
      </trkpt>
      <trkpt lat="45.85548" lon="4.67001">
        <ele>208.81433</ele>
        <time>2023-11-26T13:33:02.000Z</time>
      </trkpt>
      <trkpt lat="45.85546" lon="4.66995">
        <ele>208.38411</ele>
        <time>2023-11-26T13:33:03.000Z</time>
      </trkpt>
      <trkpt lat="45.85545" lon="4.6699">
        <ele>207.88818</ele>
        <time>2023-11-26T13:33:04.000Z</time>
      </trkpt>
      <trkpt lat="45.85543" lon="4.66985">
        <ele>207.98982</ele>
        <time>2023-11-26T13:33:05.000Z</time>
      </trkpt>
      <trkpt lat="45.85541" lon="4.66981">
        <ele>208.06621</ele>
        <time>2023-11-26T13:33:06.000Z</time>
      </trkpt>
      <trkpt lat="45.8554" lon="4.66977">
        <ele>208.12503</ele>
        <time>2023-11-26T13:33:07.000Z</time>
      </trkpt>
      <trkpt lat="45.85538" lon="4.66973">
        <ele>208.16646</ele>
        <time>2023-11-26T13:33:08.000Z</time>
      </trkpt>
      <trkpt lat="45.85537" lon="4.66969">
        <ele>208.14383</ele>
        <time>2023-11-26T13:33:09.000Z</time>
      </trkpt>
      <trkpt lat="45.85536" lon="4.66966">
        <ele>208.14705</ele>
        <time>2023-11-26T13:33:10.000Z</time>
      </trkpt>
      <trkpt lat="45.85535" lon="4.66963">
        <ele>208.19348</ele>
        <time>2023-11-26T13:33:11.000Z</time>
      </trkpt>
      <trkpt lat="45.85534" lon="4.66959">
        <ele>208.28838</ele>
        <time>2023-11-26T13:33:13.000Z</time>
      </trkpt>
      <trkpt lat="45.85535" lon="4.66956">
        <ele>208.34647</ele>
        <time>2023-11-26T13:33:14.000Z</time>
      </trkpt>
      <trkpt lat="45.85536" lon="4.66953">
        <ele>208.40837</ele>
        <time>2023-11-26T13:33:15.000Z</time>
      </trkpt>
      <trkpt lat="45.8554" lon="4.6695">
        <ele>208.45467</ele>
        <time>2023-11-26T13:33:16.000Z</time>
      </trkpt>
      <trkpt lat="45.85543" lon="4.66948">
        <ele>208.5054</ele>
        <time>2023-11-26T13:33:17.000Z</time>
      </trkpt>
      <trkpt lat="45.85548" lon="4.66947">
        <ele>208.50566</ele>
        <time>2023-11-26T13:33:18.000Z</time>
      </trkpt>
      <trkpt lat="45.85552" lon="4.66946">
        <ele>208.5079</ele>
        <time>2023-11-26T13:33:19.000Z</time>
      </trkpt>
      <trkpt lat="45.85556" lon="4.66946">
        <ele>208.51408</ele>
        <time>2023-11-26T13:33:20.000Z</time>
      </trkpt>
      <trkpt lat="45.85561" lon="4.66945">
        <ele>208.49666</ele>
        <time>2023-11-26T13:33:21.000Z</time>
      </trkpt>
      <trkpt lat="45.85565" lon="4.66945">
        <ele>208.46855</ele>
        <time>2023-11-26T13:33:22.000Z</time>
      </trkpt>
      <trkpt lat="45.8557" lon="4.66944">
        <ele>208.43103</ele>
        <time>2023-11-26T13:33:23.000Z</time>
      </trkpt>
      <trkpt lat="45.85574" lon="4.66943">
        <ele>208.38179</ele>
        <time>2023-11-26T13:33:24.000Z</time>
      </trkpt>
      <trkpt lat="45.8558" lon="4.66941">
        <ele>208.30746</ele>
        <time>2023-11-26T13:33:25.000Z</time>
      </trkpt>
      <trkpt lat="45.85584" lon="4.66941">
        <ele>208.21736</ele>
        <time>2023-11-26T13:33:26.000Z</time>
      </trkpt>
      <trkpt lat="45.85588" lon="4.66939">
        <ele>208.12289</ele>
        <time>2023-11-26T13:33:27.000Z</time>
      </trkpt>
      <trkpt lat="45.85592" lon="4.66937">
        <ele>208.01749</ele>
        <time>2023-11-26T13:33:28.000Z</time>
      </trkpt>
      <trkpt lat="45.85598" lon="4.66937">
        <ele>207.89072</ele>
        <time>2023-11-26T13:33:29.000Z</time>
      </trkpt>
      <trkpt lat="45.85603" lon="4.66935">
        <ele>207.78238</ele>
        <time>2023-11-26T13:33:30.000Z</time>
      </trkpt>
      <trkpt lat="45.85607" lon="4.66934">
        <ele>207.61783</ele>
        <time>2023-11-26T13:33:31.000Z</time>
      </trkpt>
      <trkpt lat="45.85612" lon="4.66933">
        <ele>207.45251</ele>
        <time>2023-11-26T13:33:32.000Z</time>
      </trkpt>
      <trkpt lat="45.85616" lon="4.66931">
        <ele>207.2596</ele>
        <time>2023-11-26T13:33:33.000Z</time>
      </trkpt>
      <trkpt lat="45.8562" lon="4.6693">
        <ele>207.08133</ele>
        <time>2023-11-26T13:33:34.000Z</time>
      </trkpt>
      <trkpt lat="45.85623" lon="4.66928">
        <ele>206.91183</ele>
        <time>2023-11-26T13:33:35.000Z</time>
      </trkpt>
      <trkpt lat="45.85627" lon="4.66926">
        <ele>206.74158</ele>
        <time>2023-11-26T13:33:36.000Z</time>
      </trkpt>
      <trkpt lat="45.8563" lon="4.66923">
        <ele>206.58215</ele>
        <time>2023-11-26T13:33:37.000Z</time>
      </trkpt>
      <trkpt lat="45.85634" lon="4.66922">
        <ele>206.46848</ele>
        <time>2023-11-26T13:33:38.000Z</time>
      </trkpt>
      <trkpt lat="45.85638" lon="4.6692">
        <ele>206.36682</ele>
        <time>2023-11-26T13:33:39.000Z</time>
      </trkpt>
      <trkpt lat="45.85642" lon="4.66919">
        <ele>206.27011</ele>
        <time>2023-11-26T13:33:40.000Z</time>
      </trkpt>
      <trkpt lat="45.85646" lon="4.66918">
        <ele>206.22079</ele>
        <time>2023-11-26T13:33:41.000Z</time>
      </trkpt>
      <trkpt lat="45.85649" lon="4.66917">
        <ele>206.20218</ele>
        <time>2023-11-26T13:33:42.000Z</time>
      </trkpt>
      <trkpt lat="45.85652" lon="4.66917">
        <ele>206.20142</ele>
        <time>2023-11-26T13:33:43.000Z</time>
      </trkpt>
      <trkpt lat="45.85656" lon="4.66916">
        <ele>206.21135</ele>
        <time>2023-11-26T13:33:44.000Z</time>
      </trkpt>
      <trkpt lat="45.85659" lon="4.66915">
        <ele>206.25949</ele>
        <time>2023-11-26T13:33:45.000Z</time>
      </trkpt>
      <trkpt lat="45.85663" lon="4.66914">
        <ele>206.29922</ele>
        <time>2023-11-26T13:33:46.000Z</time>
      </trkpt>
      <trkpt lat="45.85666" lon="4.66913">
        <ele>206.36768</ele>
        <time>2023-11-26T13:33:47.000Z</time>
      </trkpt>
      <trkpt lat="45.85669" lon="4.66913">
        <ele>206.45805</ele>
        <time>2023-11-26T13:33:48.000Z</time>
      </trkpt>
      <trkpt lat="45.85673" lon="4.66912">
        <ele>206.56099</ele>
        <time>2023-11-26T13:33:49.000Z</time>
      </trkpt>
      <trkpt lat="45.85676" lon="4.66912">
        <ele>206.65244</ele>
        <time>2023-11-26T13:33:50.000Z</time>
      </trkpt>
      <trkpt lat="45.85679" lon="4.66912">
        <ele>206.76717</ele>
        <time>2023-11-26T13:33:51.000Z</time>
      </trkpt>
      <trkpt lat="45.85682" lon="4.66912">
        <ele>206.8842</ele>
        <time>2023-11-26T13:33:52.000Z</time>
      </trkpt>
      <trkpt lat="45.85685" lon="4.66912">
        <ele>206.96208</ele>
        <time>2023-11-26T13:33:53.000Z</time>
      </trkpt>
      <trkpt lat="45.85688" lon="4.66912">
        <ele>207.03113</ele>
        <time>2023-11-26T13:33:54.000Z</time>
      </trkpt>
      <trkpt lat="45.85691" lon="4.66912">
        <ele>207.10449</ele>
        <time>2023-11-26T13:33:55.000Z</time>
      </trkpt>
      <trkpt lat="45.85695" lon="4.66912">
        <ele>207.17497</ele>
        <time>2023-11-26T13:33:56.000Z</time>
      </trkpt>
      <trkpt lat="45.85698" lon="4.66911">
        <ele>207.20517</ele>
        <time>2023-11-26T13:33:57.000Z</time>
      </trkpt>
      <trkpt lat="45.857" lon="4.66909">
        <ele>207.21194</ele>
        <time>2023-11-26T13:33:58.000Z</time>
      </trkpt>
      <trkpt lat="45.85703" lon="4.66906">
        <ele>207.23311</ele>
        <time>2023-11-26T13:33:59.000Z</time>
      </trkpt>
      <trkpt lat="45.85704" lon="4.66901">
        <ele>207.23111</ele>
        <time>2023-11-26T13:34:00.000Z</time>
      </trkpt>
      <trkpt lat="45.85705" lon="4.66896">
        <ele>207.20285</ele>
        <time>2023-11-26T13:34:01.000Z</time>
      </trkpt>
      <trkpt lat="45.85704" lon="4.66891">
        <ele>207.18669</ele>
        <time>2023-11-26T13:34:02.000Z</time>
      </trkpt>
      <trkpt lat="45.85704" lon="4.66886">
        <ele>207.16667</ele>
        <time>2023-11-26T13:34:03.000Z</time>
      </trkpt>
      <trkpt lat="45.85702" lon="4.66881">
        <ele>207.15788</ele>
        <time>2023-11-26T13:34:04.000Z</time>
      </trkpt>
      <trkpt lat="45.857" lon="4.66877">
        <ele>207.13571</ele>
        <time>2023-11-26T13:34:05.000Z</time>
      </trkpt>
      <trkpt lat="45.85697" lon="4.66873">
        <ele>207.12253</ele>
        <time>2023-11-26T13:34:06.000Z</time>
      </trkpt>
      <trkpt lat="45.85695" lon="4.66869">
        <ele>207.10701</ele>
        <time>2023-11-26T13:34:07.000Z</time>
      </trkpt>
      <trkpt lat="45.85692" lon="4.66866">
        <ele>207.05545</ele>
        <time>2023-11-26T13:34:08.000Z</time>
      </trkpt>
      <trkpt lat="45.85691" lon="4.66862">
        <ele>207.01213</ele>
        <time>2023-11-26T13:34:09.000Z</time>
      </trkpt>
      <trkpt lat="45.8569" lon="4.66858">
        <ele>206.97685</ele>
        <time>2023-11-26T13:34:10.000Z</time>
      </trkpt>
      <trkpt lat="45.85689" lon="4.66853">
        <ele>206.9595</ele>
        <time>2023-11-26T13:34:11.000Z</time>
      </trkpt>
      <trkpt lat="45.8569" lon="4.66848">
        <ele>206.98837</ele>
        <time>2023-11-26T13:34:12.000Z</time>
      </trkpt>
      <trkpt lat="45.8569" lon="4.66844">
        <ele>207.01021</ele>
        <time>2023-11-26T13:34:13.000Z</time>
      </trkpt>
      <trkpt lat="45.85691" lon="4.66839">
        <ele>207.0618</ele>
        <time>2023-11-26T13:34:14.000Z</time>
      </trkpt>
      <trkpt lat="45.85693" lon="4.66836">
        <ele>207.11978</ele>
        <time>2023-11-26T13:34:15.000Z</time>
      </trkpt>
      <trkpt lat="45.85695" lon="4.66833">
        <ele>207.19771</ele>
        <time>2023-11-26T13:34:16.000Z</time>
      </trkpt>
      <trkpt lat="45.85697" lon="4.66831">
        <ele>207.29939</ele>
        <time>2023-11-26T13:34:17.000Z</time>
      </trkpt>
      <trkpt lat="45.857" lon="4.6683">
        <ele>207.41367</ele>
        <time>2023-11-26T13:34:18.000Z</time>
      </trkpt>
      <trkpt lat="45.85703" lon="4.66829">
        <ele>207.52534</ele>
        <time>2023-11-26T13:34:19.000Z</time>
      </trkpt>
      <trkpt lat="45.85705" lon="4.66828">
        <ele>207.64734</ele>
        <time>2023-11-26T13:34:20.000Z</time>
      </trkpt>
      <trkpt lat="45.85708" lon="4.66827">
        <ele>207.7706</ele>
        <time>2023-11-26T13:34:21.000Z</time>
      </trkpt>
      <trkpt lat="45.8571" lon="4.66827">
        <ele>208.31924</ele>
        <time>2023-11-26T13:34:22.000Z</time>
      </trkpt>
      <trkpt lat="45.85712" lon="4.66827">
        <ele>208.90825</ele>
        <time>2023-11-26T13:34:23.000Z</time>
      </trkpt>
      <trkpt lat="45.85715" lon="4.66827">
        <ele>209.50717</ele>
        <time>2023-11-26T13:34:24.000Z</time>
      </trkpt>
      <trkpt lat="45.85717" lon="4.66827">
        <ele>209.71667</ele>
        <time>2023-11-26T13:34:25.000Z</time>
      </trkpt>
      <trkpt lat="45.85719" lon="4.66828">
        <ele>209.94356</ele>
        <time>2023-11-26T13:34:26.000Z</time>
      </trkpt>
      <trkpt lat="45.85721" lon="4.66828">
        <ele>210.18413</ele>
        <time>2023-11-26T13:34:27.000Z</time>
      </trkpt>
      <trkpt lat="45.85723" lon="4.66829">
        <ele>210.45102</ele>
        <time>2023-11-26T13:34:28.000Z</time>
      </trkpt>
      <trkpt lat="45.85725" lon="4.6683">
        <ele>210.71768</ele>
        <time>2023-11-26T13:34:29.000Z</time>
      </trkpt>
      <trkpt lat="45.85728" lon="4.6683">
        <ele>210.99687</ele>
        <time>2023-11-26T13:34:30.000Z</time>
      </trkpt>
      <trkpt lat="45.8573" lon="4.6683">
        <ele>211.26059</ele>
        <time>2023-11-26T13:34:31.000Z</time>
      </trkpt>
      <trkpt lat="45.85732" lon="4.66829">
        <ele>211.51421</ele>
        <time>2023-11-26T13:34:32.000Z</time>
      </trkpt>
      <trkpt lat="45.85734" lon="4.66829">
        <ele>211.76839</ele>
        <time>2023-11-26T13:34:33.000Z</time>
      </trkpt>
      <trkpt lat="45.85737" lon="4.66829">
        <ele>212.00986</ele>
        <time>2023-11-26T13:34:34.000Z</time>
      </trkpt>
      <trkpt lat="45.85739" lon="4.6683">
        <ele>212.2211</ele>
        <time>2023-11-26T13:34:35.000Z</time>
      </trkpt>
      <trkpt lat="45.85742" lon="4.6683">
        <ele>212.42386</ele>
        <time>2023-11-26T13:34:36.000Z</time>
      </trkpt>
      <trkpt lat="45.85744" lon="4.6683">
        <ele>212.66122</ele>
        <time>2023-11-26T13:34:37.000Z</time>
      </trkpt>
      <trkpt lat="45.85746" lon="4.6683">
        <ele>212.90019</ele>
        <time>2023-11-26T13:34:38.000Z</time>
      </trkpt>
      <trkpt lat="45.85748" lon="4.66829">
        <ele>213.1395</ele>
        <time>2023-11-26T13:34:39.000Z</time>
      </trkpt>
      <trkpt lat="45.85751" lon="4.66829">
        <ele>213.38309</ele>
        <time>2023-11-26T13:34:40.000Z</time>
      </trkpt>
      <trkpt lat="45.85753" lon="4.66829">
        <ele>213.6272</ele>
        <time>2023-11-26T13:34:41.000Z</time>
      </trkpt>
      <trkpt lat="45.85756" lon="4.66829">
        <ele>213.41728</ele>
        <time>2023-11-26T13:34:42.000Z</time>
      </trkpt>
      <trkpt lat="45.85759" lon="4.66828">
        <ele>213.18352</ele>
        <time>2023-11-26T13:34:43.000Z</time>
      </trkpt>
      <trkpt lat="45.85761" lon="4.66826">
        <ele>212.91829</ele>
        <time>2023-11-26T13:34:44.000Z</time>
      </trkpt>
      <trkpt lat="45.85764" lon="4.66824">
        <ele>213.03865</ele>
        <time>2023-11-26T13:34:45.000Z</time>
      </trkpt>
      <trkpt lat="45.85767" lon="4.66821">
        <ele>213.14856</ele>
        <time>2023-11-26T13:34:46.000Z</time>
      </trkpt>
      <trkpt lat="45.85769" lon="4.66819">
        <ele>213.25217</ele>
        <time>2023-11-26T13:34:47.000Z</time>
      </trkpt>
      <trkpt lat="45.85772" lon="4.66817">
        <ele>213.35623</ele>
        <time>2023-11-26T13:34:48.000Z</time>
      </trkpt>
      <trkpt lat="45.85774" lon="4.66814">
        <ele>213.46008</ele>
        <time>2023-11-26T13:34:49.000Z</time>
      </trkpt>
      <trkpt lat="45.85776" lon="4.66811">
        <ele>213.55884</ele>
        <time>2023-11-26T13:34:50.000Z</time>
      </trkpt>
      <trkpt lat="45.85778" lon="4.66808">
        <ele>213.65152</ele>
        <time>2023-11-26T13:34:51.000Z</time>
      </trkpt>
      <trkpt lat="45.8578" lon="4.66804">
        <ele>213.74695</ele>
        <time>2023-11-26T13:34:52.000Z</time>
      </trkpt>
      <trkpt lat="45.85782" lon="4.66801">
        <ele>213.8667</ele>
        <time>2023-11-26T13:34:53.000Z</time>
      </trkpt>
      <trkpt lat="45.85783" lon="4.66797">
        <ele>213.99223</ele>
        <time>2023-11-26T13:34:54.000Z</time>
      </trkpt>
      <trkpt lat="45.85785" lon="4.66793">
        <ele>214.14143</ele>
        <time>2023-11-26T13:34:55.000Z</time>
      </trkpt>
      <trkpt lat="45.85786" lon="4.6679">
        <ele>214.26865</ele>
        <time>2023-11-26T13:34:56.000Z</time>
      </trkpt>
      <trkpt lat="45.85786" lon="4.66786">
        <ele>214.36594</ele>
        <time>2023-11-26T13:34:57.000Z</time>
      </trkpt>
      <trkpt lat="45.85787" lon="4.66782">
        <ele>214.39365</ele>
        <time>2023-11-26T13:34:58.000Z</time>
      </trkpt>
      <trkpt lat="45.85788" lon="4.66779">
        <ele>214.43689</ele>
        <time>2023-11-26T13:34:59.000Z</time>
      </trkpt>
      <trkpt lat="45.85789" lon="4.66775">
        <ele>214.49284</ele>
        <time>2023-11-26T13:35:00.000Z</time>
      </trkpt>
      <trkpt lat="45.8579" lon="4.66771">
        <ele>214.54575</ele>
        <time>2023-11-26T13:35:01.000Z</time>
      </trkpt>
      <trkpt lat="45.85791" lon="4.66767">
        <ele>214.61389</ele>
        <time>2023-11-26T13:35:02.000Z</time>
      </trkpt>
      <trkpt lat="45.85792" lon="4.66763">
        <ele>214.64786</ele>
        <time>2023-11-26T13:35:03.000Z</time>
      </trkpt>
      <trkpt lat="45.85794" lon="4.66759">
        <ele>214.81125</ele>
        <time>2023-11-26T13:35:04.000Z</time>
      </trkpt>
      <trkpt lat="45.85795" lon="4.66756">
        <ele>214.95459</ele>
        <time>2023-11-26T13:35:05.000Z</time>
      </trkpt>
      <trkpt lat="45.85797" lon="4.66752">
        <ele>215.09802</ele>
        <time>2023-11-26T13:35:06.000Z</time>
      </trkpt>
      <trkpt lat="45.85798" lon="4.66748">
        <ele>215.21909</ele>
        <time>2023-11-26T13:35:07.000Z</time>
      </trkpt>
      <trkpt lat="45.85798" lon="4.66744">
        <ele>215.34619</ele>
        <time>2023-11-26T13:35:08.000Z</time>
      </trkpt>
      <trkpt lat="45.85799" lon="4.66739">
        <ele>215.48071</ele>
        <time>2023-11-26T13:35:09.000Z</time>
      </trkpt>
      <trkpt lat="45.858" lon="4.66735">
        <ele>215.64705</ele>
        <time>2023-11-26T13:35:10.000Z</time>
      </trkpt>
      <trkpt lat="45.85801" lon="4.66731">
        <ele>215.80881</ele>
        <time>2023-11-26T13:35:11.000Z</time>
      </trkpt>
      <trkpt lat="45.85802" lon="4.66727">
        <ele>215.96671</ele>
        <time>2023-11-26T13:35:12.000Z</time>
      </trkpt>
      <trkpt lat="45.85804" lon="4.66723">
        <ele>216.09892</ele>
        <time>2023-11-26T13:35:13.000Z</time>
      </trkpt>
      <trkpt lat="45.85806" lon="4.6672">
        <ele>216.2332</ele>
        <time>2023-11-26T13:35:14.000Z</time>
      </trkpt>
      <trkpt lat="45.85808" lon="4.66716">
        <ele>216.34338</ele>
        <time>2023-11-26T13:35:15.000Z</time>
      </trkpt>
      <trkpt lat="45.8581" lon="4.66713">
        <ele>216.49959</ele>
        <time>2023-11-26T13:35:16.000Z</time>
      </trkpt>
      <trkpt lat="45.85812" lon="4.6671">
        <ele>216.58488</ele>
        <time>2023-11-26T13:35:17.000Z</time>
      </trkpt>
      <trkpt lat="45.85815" lon="4.66708">
        <ele>216.71631</ele>
        <time>2023-11-26T13:35:18.000Z</time>
      </trkpt>
      <trkpt lat="45.85818" lon="4.66706">
        <ele>216.81274</ele>
        <time>2023-11-26T13:35:19.000Z</time>
      </trkpt>
      <trkpt lat="45.8582" lon="4.66705">
        <ele>216.89795</ele>
        <time>2023-11-26T13:35:20.000Z</time>
      </trkpt>
      <trkpt lat="45.85823" lon="4.66704">
        <ele>217.09741</ele>
        <time>2023-11-26T13:35:21.000Z</time>
      </trkpt>
      <trkpt lat="45.85825" lon="4.66703">
        <ele>217.29594</ele>
        <time>2023-11-26T13:35:22.000Z</time>
      </trkpt>
      <trkpt lat="45.85828" lon="4.66702">
        <ele>217.51433</ele>
        <time>2023-11-26T13:35:23.000Z</time>
      </trkpt>
      <trkpt lat="45.85831" lon="4.66701">
        <ele>217.67136</ele>
        <time>2023-11-26T13:35:24.000Z</time>
      </trkpt>
      <trkpt lat="45.85834" lon="4.667">
        <ele>217.8243</ele>
        <time>2023-11-26T13:35:25.000Z</time>
      </trkpt>
      <trkpt lat="45.85837" lon="4.66699">
        <ele>217.99561</ele>
        <time>2023-11-26T13:35:26.000Z</time>
      </trkpt>
      <trkpt lat="45.85839" lon="4.66699">
        <ele>218.1254</ele>
        <time>2023-11-26T13:35:27.000Z</time>
      </trkpt>
      <trkpt lat="45.85842" lon="4.66698">
        <ele>218.21082</ele>
        <time>2023-11-26T13:35:28.000Z</time>
      </trkpt>
      <trkpt lat="45.85844" lon="4.66697">
        <ele>218.44221</ele>
        <time>2023-11-26T13:35:29.000Z</time>
      </trkpt>
      <trkpt lat="45.85846" lon="4.66697">
        <ele>218.65659</ele>
        <time>2023-11-26T13:35:30.000Z</time>
      </trkpt>
      <trkpt lat="45.85849" lon="4.66697">
        <ele>218.87032</ele>
        <time>2023-11-26T13:35:31.000Z</time>
      </trkpt>
      <trkpt lat="45.85851" lon="4.66696">
        <ele>219.09123</ele>
        <time>2023-11-26T13:35:32.000Z</time>
      </trkpt>
      <trkpt lat="45.85853" lon="4.66695">
        <ele>219.34378</ele>
        <time>2023-11-26T13:35:33.000Z</time>
      </trkpt>
      <trkpt lat="45.85856" lon="4.66694">
        <ele>219.60645</ele>
        <time>2023-11-26T13:35:34.000Z</time>
      </trkpt>
      <trkpt lat="45.85858" lon="4.66693">
        <ele>219.89868</ele>
        <time>2023-11-26T13:35:35.000Z</time>
      </trkpt>
      <trkpt lat="45.8586" lon="4.66692">
        <ele>220.17009</ele>
        <time>2023-11-26T13:35:36.000Z</time>
      </trkpt>
      <trkpt lat="45.85862" lon="4.66692">
        <ele>220.53018</ele>
        <time>2023-11-26T13:35:37.000Z</time>
      </trkpt>
      <trkpt lat="45.85865" lon="4.66691">
        <ele>220.89214</ele>
        <time>2023-11-26T13:35:38.000Z</time>
      </trkpt>
      <trkpt lat="45.85867" lon="4.66689">
        <ele>221.2159</ele>
        <time>2023-11-26T13:35:39.000Z</time>
      </trkpt>
      <trkpt lat="45.85868" lon="4.66688">
        <ele>221.54707</ele>
        <time>2023-11-26T13:35:40.000Z</time>
      </trkpt>
      <trkpt lat="45.8587" lon="4.66686">
        <ele>221.70895</ele>
        <time>2023-11-26T13:35:41.000Z</time>
      </trkpt>
      <trkpt lat="45.85872" lon="4.66685">
        <ele>221.80911</ele>
        <time>2023-11-26T13:35:42.000Z</time>
      </trkpt>
      <trkpt lat="45.85874" lon="4.66682">
        <ele>222.05901</ele>
        <time>2023-11-26T13:35:43.000Z</time>
      </trkpt>
      <trkpt lat="45.85875" lon="4.6668">
        <ele>222.2209</ele>
        <time>2023-11-26T13:35:44.000Z</time>
      </trkpt>
      <trkpt lat="45.85876" lon="4.66676">
        <ele>222.40808</ele>
        <time>2023-11-26T13:35:45.000Z</time>
      </trkpt>
      <trkpt lat="45.85876" lon="4.66673">
        <ele>222.58501</ele>
        <time>2023-11-26T13:35:46.000Z</time>
      </trkpt>
      <trkpt lat="45.85876" lon="4.66669">
        <ele>222.84663</ele>
        <time>2023-11-26T13:35:47.000Z</time>
      </trkpt>
      <trkpt lat="45.85875" lon="4.66665">
        <ele>223.1257</ele>
        <time>2023-11-26T13:35:48.000Z</time>
      </trkpt>
      <trkpt lat="45.85873" lon="4.66661">
        <ele>223.26736</ele>
        <time>2023-11-26T13:35:49.000Z</time>
      </trkpt>
      <trkpt lat="45.85872" lon="4.66659">
        <ele>223.39063</ele>
        <time>2023-11-26T13:35:50.000Z</time>
      </trkpt>
      <trkpt lat="45.8587" lon="4.66657">
        <ele>223.51717</ele>
        <time>2023-11-26T13:35:51.000Z</time>
      </trkpt>
      <trkpt lat="45.85868" lon="4.66655">
        <ele>223.65776</ele>
        <time>2023-11-26T13:35:52.000Z</time>
      </trkpt>
      <trkpt lat="45.85865" lon="4.66654">
        <ele>223.70259</ele>
        <time>2023-11-26T13:35:53.000Z</time>
      </trkpt>
      <trkpt lat="45.85863" lon="4.66654">
        <ele>223.66719</ele>
        <time>2023-11-26T13:35:54.000Z</time>
      </trkpt>
      <trkpt lat="45.85861" lon="4.66653">
        <ele>223.62753</ele>
        <time>2023-11-26T13:35:55.000Z</time>
      </trkpt>
      <trkpt lat="45.85858" lon="4.66652">
        <ele>223.7908</ele>
        <time>2023-11-26T13:35:56.000Z</time>
      </trkpt>
      <trkpt lat="45.85856" lon="4.66651">
        <ele>223.90706</ele>
        <time>2023-11-26T13:35:57.000Z</time>
      </trkpt>
      <trkpt lat="45.85855" lon="4.6665">
        <ele>224.01022</ele>
        <time>2023-11-26T13:35:58.000Z</time>
      </trkpt>
      <trkpt lat="45.85853" lon="4.66648">
        <ele>224.18387</ele>
        <time>2023-11-26T13:35:59.000Z</time>
      </trkpt>
      <trkpt lat="45.85851" lon="4.66646">
        <ele>224.35185</ele>
        <time>2023-11-26T13:36:00.000Z</time>
      </trkpt>
      <trkpt lat="45.85849" lon="4.66644">
        <ele>224.59187</ele>
        <time>2023-11-26T13:36:01.000Z</time>
      </trkpt>
      <trkpt lat="45.85848" lon="4.66642">
        <ele>224.92232</ele>
        <time>2023-11-26T13:36:02.000Z</time>
      </trkpt>
      <trkpt lat="45.85846" lon="4.6664">
        <ele>225.11345</ele>
        <time>2023-11-26T13:36:03.000Z</time>
      </trkpt>
      <trkpt lat="45.85844" lon="4.66638">
        <ele>225.34038</ele>
        <time>2023-11-26T13:36:04.000Z</time>
      </trkpt>
      <trkpt lat="45.85842" lon="4.66636">
        <ele>225.56754</ele>
        <time>2023-11-26T13:36:05.000Z</time>
      </trkpt>
      <trkpt lat="45.8584" lon="4.66633">
        <ele>225.81726</ele>
        <time>2023-11-26T13:36:06.000Z</time>
      </trkpt>
      <trkpt lat="45.85839" lon="4.6663">
        <ele>226.05449</ele>
        <time>2023-11-26T13:36:07.000Z</time>
      </trkpt>
      <trkpt lat="45.85837" lon="4.66628">
        <ele>226.31201</ele>
        <time>2023-11-26T13:36:08.000Z</time>
      </trkpt>
      <trkpt lat="45.85836" lon="4.66625">
        <ele>226.55432</ele>
        <time>2023-11-26T13:36:09.000Z</time>
      </trkpt>
      <trkpt lat="45.85834" lon="4.66622">
        <ele>226.83096</ele>
        <time>2023-11-26T13:36:10.000Z</time>
      </trkpt>
      <trkpt lat="45.85833" lon="4.6662">
        <ele>227.12537</ele>
        <time>2023-11-26T13:36:11.000Z</time>
      </trkpt>
      <trkpt lat="45.85831" lon="4.66617">
        <ele>227.4054</ele>
        <time>2023-11-26T13:36:12.000Z</time>
      </trkpt>
      <trkpt lat="45.8583" lon="4.66614">
        <ele>227.79085</ele>
        <time>2023-11-26T13:36:13.000Z</time>
      </trkpt>
      <trkpt lat="45.85828" lon="4.66612">
        <ele>228.25378</ele>
        <time>2023-11-26T13:36:14.000Z</time>
      </trkpt>
      <trkpt lat="45.85827" lon="4.66609">
        <ele>228.75003</ele>
        <time>2023-11-26T13:36:15.000Z</time>
      </trkpt>
      <trkpt lat="45.85825" lon="4.66606">
        <ele>229.0242</ele>
        <time>2023-11-26T13:36:16.000Z</time>
      </trkpt>
      <trkpt lat="45.85824" lon="4.66604">
        <ele>229.35332</ele>
        <time>2023-11-26T13:36:17.000Z</time>
      </trkpt>
      <trkpt lat="45.85822" lon="4.66601">
        <ele>229.70947</ele>
        <time>2023-11-26T13:36:18.000Z</time>
      </trkpt>
      <trkpt lat="45.85821" lon="4.66598">
        <ele>230.06706</ele>
        <time>2023-11-26T13:36:19.000Z</time>
      </trkpt>
      <trkpt lat="45.8582" lon="4.66596">
        <ele>230.42546</ele>
        <time>2023-11-26T13:36:20.000Z</time>
      </trkpt>
      <trkpt lat="45.85818" lon="4.66595">
        <ele>230.7878</ele>
        <time>2023-11-26T13:36:21.000Z</time>
      </trkpt>
      <trkpt lat="45.85818" lon="4.6659">
        <ele>231.07588</ele>
        <time>2023-11-26T13:36:23.000Z</time>
      </trkpt>
      <trkpt lat="45.85818" lon="4.66587">
        <ele>231.30872</ele>
        <time>2023-11-26T13:36:24.000Z</time>
      </trkpt>
      <trkpt lat="45.85817" lon="4.66584">
        <ele>231.34729</ele>
        <time>2023-11-26T13:36:25.000Z</time>
      </trkpt>
      <trkpt lat="45.85817" lon="4.66581">
        <ele>231.38228</ele>
        <time>2023-11-26T13:36:26.000Z</time>
      </trkpt>
      <trkpt lat="45.85817" lon="4.66577">
        <ele>231.30632</ele>
        <time>2023-11-26T13:36:27.000Z</time>
      </trkpt>
      <trkpt lat="45.85817" lon="4.66574">
        <ele>231.53166</ele>
        <time>2023-11-26T13:36:28.000Z</time>
      </trkpt>
      <trkpt lat="45.85818" lon="4.66571">
        <ele>231.71138</ele>
        <time>2023-11-26T13:36:29.000Z</time>
      </trkpt>
      <trkpt lat="45.85818" lon="4.66568">
        <ele>231.90999</ele>
        <time>2023-11-26T13:36:30.000Z</time>
      </trkpt>
      <trkpt lat="45.85819" lon="4.66565">
        <ele>232.07295</ele>
        <time>2023-11-26T13:36:31.000Z</time>
      </trkpt>
      <trkpt lat="45.85821" lon="4.66562">
        <ele>232.2426</ele>
        <time>2023-11-26T13:36:32.000Z</time>
      </trkpt>
      <trkpt lat="45.85822" lon="4.66559">
        <ele>232.4334</ele>
        <time>2023-11-26T13:36:33.000Z</time>
      </trkpt>
      <trkpt lat="45.85824" lon="4.66557">
        <ele>232.6187</ele>
        <time>2023-11-26T13:36:34.000Z</time>
      </trkpt>
      <trkpt lat="45.85826" lon="4.66555">
        <ele>232.78049</ele>
        <time>2023-11-26T13:36:35.000Z</time>
      </trkpt>
      <trkpt lat="45.85828" lon="4.66553">
        <ele>232.92062</ele>
        <time>2023-11-26T13:36:36.000Z</time>
      </trkpt>
      <trkpt lat="45.8583" lon="4.66551">
        <ele>233.04822</ele>
        <time>2023-11-26T13:36:37.000Z</time>
      </trkpt>
      <trkpt lat="45.85832" lon="4.6655">
        <ele>233.16623</ele>
        <time>2023-11-26T13:36:38.000Z</time>
      </trkpt>
      <trkpt lat="45.85834" lon="4.66548">
        <ele>233.29768</ele>
        <time>2023-11-26T13:36:39.000Z</time>
      </trkpt>
      <trkpt lat="45.85836" lon="4.66547">
        <ele>233.44568</ele>
        <time>2023-11-26T13:36:40.000Z</time>
      </trkpt>
      <trkpt lat="45.85838" lon="4.66545">
        <ele>233.56819</ele>
        <time>2023-11-26T13:36:41.000Z</time>
      </trkpt>
      <trkpt lat="45.8584" lon="4.66543">
        <ele>233.69144</ele>
        <time>2023-11-26T13:36:42.000Z</time>
      </trkpt>
      <trkpt lat="45.85842" lon="4.6654">
        <ele>233.89255</ele>
        <time>2023-11-26T13:36:43.000Z</time>
      </trkpt>
      <trkpt lat="45.85843" lon="4.66538">
        <ele>234.14217</ele>
        <time>2023-11-26T13:36:44.000Z</time>
      </trkpt>
      <trkpt lat="45.85845" lon="4.66535">
        <ele>234.58989</ele>
        <time>2023-11-26T13:36:45.000Z</time>
      </trkpt>
      <trkpt lat="45.85846" lon="4.66532">
        <ele>235.02847</ele>
        <time>2023-11-26T13:36:46.000Z</time>
      </trkpt>
      <trkpt lat="45.85847" lon="4.6653">
        <ele>235.5531</ele>
        <time>2023-11-26T13:36:47.000Z</time>
      </trkpt>
      <trkpt lat="45.85848" lon="4.66527">
        <ele>235.74849</ele>
        <time>2023-11-26T13:36:48.000Z</time>
      </trkpt>
      <trkpt lat="45.85848" lon="4.66524">
        <ele>235.993</ele>
        <time>2023-11-26T13:36:49.000Z</time>
      </trkpt>
      <trkpt lat="45.85849" lon="4.66522">
        <ele>236.19531</ele>
        <time>2023-11-26T13:36:50.000Z</time>
      </trkpt>
      <trkpt lat="45.85849" lon="4.66519">
        <ele>236.43311</ele>
        <time>2023-11-26T13:36:51.000Z</time>
      </trkpt>
      <trkpt lat="45.8585" lon="4.66516">
        <ele>236.65146</ele>
        <time>2023-11-26T13:36:52.000Z</time>
      </trkpt>
      <trkpt lat="45.8585" lon="4.66513">
        <ele>236.84842</ele>
        <time>2023-11-26T13:36:53.000Z</time>
      </trkpt>
      <trkpt lat="45.85851" lon="4.6651">
        <ele>237.0472</ele>
        <time>2023-11-26T13:36:54.000Z</time>
      </trkpt>
      <trkpt lat="45.85851" lon="4.66506">
        <ele>237.26619</ele>
        <time>2023-11-26T13:36:55.000Z</time>
      </trkpt>
      <trkpt lat="45.85852" lon="4.66504">
        <ele>237.48914</ele>
        <time>2023-11-26T13:36:56.000Z</time>
      </trkpt>
      <trkpt lat="45.85853" lon="4.66501">
        <ele>237.74304</ele>
        <time>2023-11-26T13:36:57.000Z</time>
      </trkpt>
      <trkpt lat="45.85853" lon="4.66498">
        <ele>237.96284</ele>
        <time>2023-11-26T13:36:58.000Z</time>
      </trkpt>
      <trkpt lat="45.85854" lon="4.66495">
        <ele>238.17404</ele>
        <time>2023-11-26T13:36:59.000Z</time>
      </trkpt>
      <trkpt lat="45.85855" lon="4.66491">
        <ele>238.34555</ele>
        <time>2023-11-26T13:37:00.000Z</time>
      </trkpt>
      <trkpt lat="45.85855" lon="4.66488">
        <ele>238.53174</ele>
        <time>2023-11-26T13:37:01.000Z</time>
      </trkpt>
      <trkpt lat="45.85856" lon="4.66485">
        <ele>238.71419</ele>
        <time>2023-11-26T13:37:02.000Z</time>
      </trkpt>
      <trkpt lat="45.85857" lon="4.66482">
        <ele>238.88557</ele>
        <time>2023-11-26T13:37:03.000Z</time>
      </trkpt>
      <trkpt lat="45.85857" lon="4.66479">
        <ele>239.02783</ele>
        <time>2023-11-26T13:37:04.000Z</time>
      </trkpt>
      <trkpt lat="45.85858" lon="4.66475">
        <ele>239.16714</ele>
        <time>2023-11-26T13:37:05.000Z</time>
      </trkpt>
      <trkpt lat="45.85858" lon="4.66471">
        <ele>239.31538</ele>
        <time>2023-11-26T13:37:06.000Z</time>
      </trkpt>
      <trkpt lat="45.85859" lon="4.66468">
        <ele>239.46451</ele>
        <time>2023-11-26T13:37:07.000Z</time>
      </trkpt>
      <trkpt lat="45.8586" lon="4.66465">
        <ele>239.65341</ele>
        <time>2023-11-26T13:37:08.000Z</time>
      </trkpt>
      <trkpt lat="45.8586" lon="4.66461">
        <ele>239.86177</ele>
        <time>2023-11-26T13:37:09.000Z</time>
      </trkpt>
      <trkpt lat="45.85861" lon="4.66458">
        <ele>240.10616</ele>
        <time>2023-11-26T13:37:10.000Z</time>
      </trkpt>
      <trkpt lat="45.85862" lon="4.66454">
        <ele>240.32475</ele>
        <time>2023-11-26T13:37:11.000Z</time>
      </trkpt>
      <trkpt lat="45.85862" lon="4.66451">
        <ele>240.5623</ele>
        <time>2023-11-26T13:37:12.000Z</time>
      </trkpt>
      <trkpt lat="45.85863" lon="4.66447">
        <ele>240.77803</ele>
        <time>2023-11-26T13:37:13.000Z</time>
      </trkpt>
      <trkpt lat="45.85864" lon="4.66444">
        <ele>240.81802</ele>
        <time>2023-11-26T13:37:14.000Z</time>
      </trkpt>
      <trkpt lat="45.85865" lon="4.66441">
        <ele>240.82532</ele>
        <time>2023-11-26T13:37:15.000Z</time>
      </trkpt>
      <trkpt lat="45.85867" lon="4.66438">
        <ele>240.70964</ele>
        <time>2023-11-26T13:37:16.000Z</time>
      </trkpt>
      <trkpt lat="45.85868" lon="4.66435">
        <ele>240.59814</ele>
        <time>2023-11-26T13:37:17.000Z</time>
      </trkpt>
      <trkpt lat="45.85869" lon="4.66432">
        <ele>240.42703</ele>
        <time>2023-11-26T13:37:18.000Z</time>
      </trkpt>
      <trkpt lat="45.8587" lon="4.66429">
        <ele>240.21423</ele>
        <time>2023-11-26T13:37:19.000Z</time>
      </trkpt>
      <trkpt lat="45.85871" lon="4.66426">
        <ele>240.46477</ele>
        <time>2023-11-26T13:37:20.000Z</time>
      </trkpt>
      <trkpt lat="45.85872" lon="4.66423">
        <ele>240.67117</ele>
        <time>2023-11-26T13:37:21.000Z</time>
      </trkpt>
      <trkpt lat="45.85873" lon="4.6642">
        <ele>240.84872</ele>
        <time>2023-11-26T13:37:22.000Z</time>
      </trkpt>
      <trkpt lat="45.85873" lon="4.66416">
        <ele>241.05527</ele>
        <time>2023-11-26T13:37:23.000Z</time>
      </trkpt>
      <trkpt lat="45.85874" lon="4.66414">
        <ele>241.2856</ele>
        <time>2023-11-26T13:37:24.000Z</time>
      </trkpt>
      <trkpt lat="45.85875" lon="4.66411">
        <ele>241.5159</ele>
        <time>2023-11-26T13:37:25.000Z</time>
      </trkpt>
      <trkpt lat="45.85876" lon="4.66408">
        <ele>241.73601</ele>
        <time>2023-11-26T13:37:26.000Z</time>
      </trkpt>
      <trkpt lat="45.85878" lon="4.66405">
        <ele>241.96509</ele>
        <time>2023-11-26T13:37:27.000Z</time>
      </trkpt>
      <trkpt lat="45.85879" lon="4.66402">
        <ele>242.15681</ele>
        <time>2023-11-26T13:37:28.000Z</time>
      </trkpt>
      <trkpt lat="45.8588" lon="4.66399">
        <ele>242.33623</ele>
        <time>2023-11-26T13:37:29.000Z</time>
      </trkpt>
      <trkpt lat="45.85881" lon="4.66396">
        <ele>242.47604</ele>
        <time>2023-11-26T13:37:30.000Z</time>
      </trkpt>
      <trkpt lat="45.85882" lon="4.66393">
        <ele>242.62468</ele>
        <time>2023-11-26T13:37:31.000Z</time>
      </trkpt>
      <trkpt lat="45.85883" lon="4.6639">
        <ele>242.74619</ele>
        <time>2023-11-26T13:37:32.000Z</time>
      </trkpt>
      <trkpt lat="45.85884" lon="4.66387">
        <ele>242.88663</ele>
        <time>2023-11-26T13:37:33.000Z</time>
      </trkpt>
      <trkpt lat="45.85884" lon="4.66384">
        <ele>243.1825</ele>
        <time>2023-11-26T13:37:34.000Z</time>
      </trkpt>
      <trkpt lat="45.85885" lon="4.66381">
        <ele>243.51978</ele>
        <time>2023-11-26T13:37:35.000Z</time>
      </trkpt>
      <trkpt lat="45.85886" lon="4.66377">
        <ele>243.94217</ele>
        <time>2023-11-26T13:37:36.000Z</time>
      </trkpt>
      <trkpt lat="45.85887" lon="4.66374">
        <ele>244.33316</ele>
        <time>2023-11-26T13:37:37.000Z</time>
      </trkpt>
      <trkpt lat="45.85888" lon="4.66371">
        <ele>244.81918</ele>
        <time>2023-11-26T13:37:38.000Z</time>
      </trkpt>
      <trkpt lat="45.85889" lon="4.66368">
        <ele>245.13663</ele>
        <time>2023-11-26T13:37:39.000Z</time>
      </trkpt>
      <trkpt lat="45.85889" lon="4.66365">
        <ele>244.89404</ele>
        <time>2023-11-26T13:37:40.000Z</time>
      </trkpt>
      <trkpt lat="45.8589" lon="4.66362">
        <ele>244.57231</ele>
        <time>2023-11-26T13:37:41.000Z</time>
      </trkpt>
      <trkpt lat="45.85891" lon="4.66359">
        <ele>244.69511</ele>
        <time>2023-11-26T13:37:42.000Z</time>
      </trkpt>
      <trkpt lat="45.85892" lon="4.66356">
        <ele>244.69125</ele>
        <time>2023-11-26T13:37:43.000Z</time>
      </trkpt>
      <trkpt lat="45.85893" lon="4.66353">
        <ele>244.70003</ele>
        <time>2023-11-26T13:37:44.000Z</time>
      </trkpt>
      <trkpt lat="45.85894" lon="4.6635">
        <ele>244.72331</ele>
        <time>2023-11-26T13:37:45.000Z</time>
      </trkpt>
      <trkpt lat="45.85895" lon="4.66347">
        <ele>244.76456</ele>
        <time>2023-11-26T13:37:46.000Z</time>
      </trkpt>
      <trkpt lat="45.85896" lon="4.66344">
        <ele>244.80496</ele>
        <time>2023-11-26T13:37:47.000Z</time>
      </trkpt>
      <trkpt lat="45.85896" lon="4.66342">
        <ele>244.80057</ele>
        <time>2023-11-26T13:37:48.000Z</time>
      </trkpt>
      <trkpt lat="45.85896" lon="4.66337">
        <ele>244.76265</ele>
        <time>2023-11-26T13:37:50.000Z</time>
      </trkpt>
      <trkpt lat="45.85897" lon="4.66333">
        <ele>244.76953</ele>
        <time>2023-11-26T13:37:51.000Z</time>
      </trkpt>
      <trkpt lat="45.85897" lon="4.6633">
        <ele>244.71953</ele>
        <time>2023-11-26T13:37:52.000Z</time>
      </trkpt>
      <trkpt lat="45.85899" lon="4.66327">
        <ele>244.64648</ele>
        <time>2023-11-26T13:37:53.000Z</time>
      </trkpt>
      <trkpt lat="45.859" lon="4.66324">
        <ele>244.58195</ele>
        <time>2023-11-26T13:37:54.000Z</time>
      </trkpt>
      <trkpt lat="45.85902" lon="4.66321">
        <ele>244.33875</ele>
        <time>2023-11-26T13:37:55.000Z</time>
      </trkpt>
      <trkpt lat="45.85903" lon="4.66318">
        <ele>244.07552</ele>
        <time>2023-11-26T13:37:56.000Z</time>
      </trkpt>
      <trkpt lat="45.85904" lon="4.66316">
        <ele>243.67192</ele>
        <time>2023-11-26T13:37:57.000Z</time>
      </trkpt>
      <trkpt lat="45.85905" lon="4.66312">
        <ele>243.74448</ele>
        <time>2023-11-26T13:37:58.000Z</time>
      </trkpt>
      <trkpt lat="45.85906" lon="4.66309">
        <ele>243.70255</ele>
        <time>2023-11-26T13:37:59.000Z</time>
      </trkpt>
      <trkpt lat="45.85907" lon="4.66306">
        <ele>243.86649</ele>
        <time>2023-11-26T13:38:00.000Z</time>
      </trkpt>
      <trkpt lat="45.85909" lon="4.66303">
        <ele>244.15764</ele>
        <time>2023-11-26T13:38:01.000Z</time>
      </trkpt>
      <trkpt lat="45.8591" lon="4.66301">
        <ele>244.56348</ele>
        <time>2023-11-26T13:38:02.000Z</time>
      </trkpt>
      <trkpt lat="45.85911" lon="4.66298">
        <ele>244.55484</ele>
        <time>2023-11-26T13:38:03.000Z</time>
      </trkpt>
      <trkpt lat="45.85913" lon="4.66295">
        <ele>244.68941</ele>
        <time>2023-11-26T13:38:04.000Z</time>
      </trkpt>
      <trkpt lat="45.85914" lon="4.66292">
        <ele>244.77278</ele>
        <time>2023-11-26T13:38:05.000Z</time>
      </trkpt>
      <trkpt lat="45.85915" lon="4.66289">
        <ele>244.83081</ele>
        <time>2023-11-26T13:38:06.000Z</time>
      </trkpt>
      <trkpt lat="45.85917" lon="4.66286">
        <ele>244.88232</ele>
        <time>2023-11-26T13:38:07.000Z</time>
      </trkpt>
      <trkpt lat="45.85918" lon="4.66282">
        <ele>244.91997</ele>
        <time>2023-11-26T13:38:08.000Z</time>
      </trkpt>
      <trkpt lat="45.8592" lon="4.66279">
        <ele>245.01221</ele>
        <time>2023-11-26T13:38:09.000Z</time>
      </trkpt>
      <trkpt lat="45.85922" lon="4.66276">
        <ele>244.8477</ele>
        <time>2023-11-26T13:38:10.000Z</time>
      </trkpt>
      <trkpt lat="45.85924" lon="4.66273">
        <ele>244.66269</ele>
        <time>2023-11-26T13:38:11.000Z</time>
      </trkpt>
      <trkpt lat="45.85926" lon="4.6627">
        <ele>244.41878</ele>
        <time>2023-11-26T13:38:12.000Z</time>
      </trkpt>
      <trkpt lat="45.85928" lon="4.66268">
        <ele>244.66849</ele>
        <time>2023-11-26T13:38:13.000Z</time>
      </trkpt>
      <trkpt lat="45.8593" lon="4.66265">
        <ele>244.79822</ele>
        <time>2023-11-26T13:38:14.000Z</time>
      </trkpt>
      <trkpt lat="45.85931" lon="4.66262">
        <ele>245.10977</ele>
        <time>2023-11-26T13:38:15.000Z</time>
      </trkpt>
      <trkpt lat="45.85933" lon="4.66259">
        <ele>245.41147</ele>
        <time>2023-11-26T13:38:16.000Z</time>
      </trkpt>
      <trkpt lat="45.85935" lon="4.66256">
        <ele>245.8632</ele>
        <time>2023-11-26T13:38:17.000Z</time>
      </trkpt>
      <trkpt lat="45.85936" lon="4.66253">
        <ele>245.86609</ele>
        <time>2023-11-26T13:38:18.000Z</time>
      </trkpt>
      <trkpt lat="45.85938" lon="4.6625">
        <ele>245.95737</ele>
        <time>2023-11-26T13:38:19.000Z</time>
      </trkpt>
      <trkpt lat="45.8594" lon="4.66247">
        <ele>246.07976</ele>
        <time>2023-11-26T13:38:20.000Z</time>
      </trkpt>
      <trkpt lat="45.85942" lon="4.66243">
        <ele>246.17728</ele>
        <time>2023-11-26T13:38:21.000Z</time>
      </trkpt>
      <trkpt lat="45.85944" lon="4.66239">
        <ele>246.2812</ele>
        <time>2023-11-26T13:38:22.000Z</time>
      </trkpt>
      <trkpt lat="45.85945" lon="4.66235">
        <ele>246.36002</ele>
        <time>2023-11-26T13:38:23.000Z</time>
      </trkpt>
      <trkpt lat="45.85948" lon="4.66232">
        <ele>246.35762</ele>
        <time>2023-11-26T13:38:24.000Z</time>
      </trkpt>
      <trkpt lat="45.8595" lon="4.66231">
        <ele>246.54439</ele>
        <time>2023-11-26T13:38:25.000Z</time>
      </trkpt>
      <trkpt lat="45.85954" lon="4.66232">
        <ele>246.54964</ele>
        <time>2023-11-26T13:38:26.000Z</time>
      </trkpt>
      <trkpt lat="45.85957" lon="4.66235">
        <ele>246.54765</ele>
        <time>2023-11-26T13:38:27.000Z</time>
      </trkpt>
      <trkpt lat="45.85959" lon="4.66238">
        <ele>246.55127</ele>
        <time>2023-11-26T13:38:28.000Z</time>
      </trkpt>
      <trkpt lat="45.85962" lon="4.66242">
        <ele>246.3425</ele>
        <time>2023-11-26T13:38:29.000Z</time>
      </trkpt>
      <trkpt lat="45.85965" lon="4.66245">
        <ele>246.41154</ele>
        <time>2023-11-26T13:38:30.000Z</time>
      </trkpt>
      <trkpt lat="45.85967" lon="4.66248">
        <ele>246.31119</ele>
        <time>2023-11-26T13:38:31.000Z</time>
      </trkpt>
      <trkpt lat="45.8597" lon="4.66251">
        <ele>246.76579</ele>
        <time>2023-11-26T13:38:32.000Z</time>
      </trkpt>
      <trkpt lat="45.85972" lon="4.66254">
        <ele>246.68228</ele>
        <time>2023-11-26T13:38:33.000Z</time>
      </trkpt>
      <trkpt lat="45.85975" lon="4.66257">
        <ele>246.67322</ele>
        <time>2023-11-26T13:38:34.000Z</time>
      </trkpt>
      <trkpt lat="45.85977" lon="4.6626">
        <ele>246.66898</ele>
        <time>2023-11-26T13:38:35.000Z</time>
      </trkpt>
      <trkpt lat="45.8598" lon="4.66264">
        <ele>246.63818</ele>
        <time>2023-11-26T13:38:36.000Z</time>
      </trkpt>
      <trkpt lat="45.85983" lon="4.66267">
        <ele>246.59492</ele>
        <time>2023-11-26T13:38:37.000Z</time>
      </trkpt>
      <trkpt lat="45.85985" lon="4.6627">
        <ele>246.51839</ele>
        <time>2023-11-26T13:38:38.000Z</time>
      </trkpt>
      <trkpt lat="45.85988" lon="4.66272">
        <ele>246.43042</ele>
        <time>2023-11-26T13:38:39.000Z</time>
      </trkpt>
      <trkpt lat="45.85991" lon="4.66275">
        <ele>246.00117</ele>
        <time>2023-11-26T13:38:40.000Z</time>
      </trkpt>
      <trkpt lat="45.85994" lon="4.66278">
        <ele>245.49651</ele>
        <time>2023-11-26T13:38:41.000Z</time>
      </trkpt>
      <trkpt lat="45.85997" lon="4.66282">
        <ele>245.41772</ele>
        <time>2023-11-26T13:38:42.000Z</time>
      </trkpt>
      <trkpt lat="45.85999" lon="4.66287">
        <ele>245.23941</ele>
        <time>2023-11-26T13:38:43.000Z</time>
      </trkpt>
      <trkpt lat="45.86003" lon="4.66292">
        <ele>245.05818</ele>
        <time>2023-11-26T13:38:44.000Z</time>
      </trkpt>
      <trkpt lat="45.86007" lon="4.66298">
        <ele>244.68144</ele>
        <time>2023-11-26T13:38:45.000Z</time>
      </trkpt>
      <trkpt lat="45.86011" lon="4.66302">
        <ele>244.47334</ele>
        <time>2023-11-26T13:38:46.000Z</time>
      </trkpt>
      <trkpt lat="45.86015" lon="4.66306">
        <ele>244.24211</ele>
        <time>2023-11-26T13:38:47.000Z</time>
      </trkpt>
      <trkpt lat="45.86019" lon="4.66309">
        <ele>243.98398</ele>
        <time>2023-11-26T13:38:48.000Z</time>
      </trkpt>
      <trkpt lat="45.86024" lon="4.6631">
        <ele>243.9335</ele>
        <time>2023-11-26T13:38:49.000Z</time>
      </trkpt>
      <trkpt lat="45.86028" lon="4.66309">
        <ele>243.8479</ele>
        <time>2023-11-26T13:38:50.000Z</time>
      </trkpt>
      <trkpt lat="45.86031" lon="4.66306">
        <ele>243.92075</ele>
        <time>2023-11-26T13:38:51.000Z</time>
      </trkpt>
      <trkpt lat="45.86034" lon="4.66301">
        <ele>243.50034</ele>
        <time>2023-11-26T13:38:52.000Z</time>
      </trkpt>
      <trkpt lat="45.86036" lon="4.66298">
        <ele>243.21033</ele>
        <time>2023-11-26T13:38:53.000Z</time>
      </trkpt>
      <trkpt lat="45.8604" lon="4.66295">
        <ele>242.86584</ele>
        <time>2023-11-26T13:38:54.000Z</time>
      </trkpt>
      <trkpt lat="45.86042" lon="4.66292">
        <ele>242.55444</ele>
        <time>2023-11-26T13:38:55.000Z</time>
      </trkpt>
      <trkpt lat="45.86044" lon="4.66288">
        <ele>242.29549</ele>
        <time>2023-11-26T13:38:56.000Z</time>
      </trkpt>
      <trkpt lat="45.86046" lon="4.66283">
        <ele>241.9948</ele>
        <time>2023-11-26T13:38:57.000Z</time>
      </trkpt>
      <trkpt lat="45.86048" lon="4.6628">
        <ele>241.60564</ele>
        <time>2023-11-26T13:38:58.000Z</time>
      </trkpt>
      <trkpt lat="45.86051" lon="4.66275">
        <ele>241.05952</ele>
        <time>2023-11-26T13:38:59.000Z</time>
      </trkpt>
      <trkpt lat="45.86053" lon="4.6627">
        <ele>240.80984</ele>
        <time>2023-11-26T13:39:00.000Z</time>
      </trkpt>
      <trkpt lat="45.86055" lon="4.66267">
        <ele>240.63289</ele>
        <time>2023-11-26T13:39:01.000Z</time>
      </trkpt>
      <trkpt lat="45.86056" lon="4.66264">
        <ele>240.38565</ele>
        <time>2023-11-26T13:39:02.000Z</time>
      </trkpt>
      <trkpt lat="45.86058" lon="4.6626">
        <ele>240.23425</ele>
        <time>2023-11-26T13:39:03.000Z</time>
      </trkpt>
      <trkpt lat="45.86059" lon="4.66257">
        <ele>240.08725</ele>
        <time>2023-11-26T13:39:04.000Z</time>
      </trkpt>
      <trkpt lat="45.86061" lon="4.66254">
        <ele>239.94931</ele>
        <time>2023-11-26T13:39:05.000Z</time>
      </trkpt>
      <trkpt lat="45.86064" lon="4.6625">
        <ele>239.85014</ele>
        <time>2023-11-26T13:39:06.000Z</time>
      </trkpt>
      <trkpt lat="45.86067" lon="4.66248">
        <ele>239.77299</ele>
        <time>2023-11-26T13:39:07.000Z</time>
      </trkpt>
      <trkpt lat="45.86071" lon="4.66246">
        <ele>239.66721</ele>
        <time>2023-11-26T13:39:08.000Z</time>
      </trkpt>
      <trkpt lat="45.86075" lon="4.66244">
        <ele>239.50781</ele>
        <time>2023-11-26T13:39:09.000Z</time>
      </trkpt>
      <trkpt lat="45.86079" lon="4.66242">
        <ele>239.39169</ele>
        <time>2023-11-26T13:39:10.000Z</time>
      </trkpt>
      <trkpt lat="45.86083" lon="4.66239">
        <ele>239.28267</ele>
        <time>2023-11-26T13:39:11.000Z</time>
      </trkpt>
      <trkpt lat="45.86088" lon="4.66236">
        <ele>239.25235</ele>
        <time>2023-11-26T13:39:12.000Z</time>
      </trkpt>
      <trkpt lat="45.86091" lon="4.66232">
        <ele>239.17004</ele>
        <time>2023-11-26T13:39:13.000Z</time>
      </trkpt>
      <trkpt lat="45.86094" lon="4.66228">
        <ele>239.13049</ele>
        <time>2023-11-26T13:39:14.000Z</time>
      </trkpt>
      <trkpt lat="45.86097" lon="4.66224">
        <ele>239.08658</ele>
        <time>2023-11-26T13:39:15.000Z</time>
      </trkpt>
      <trkpt lat="45.86099" lon="4.66219">
        <ele>239.02356</ele>
        <time>2023-11-26T13:39:16.000Z</time>
      </trkpt>
      <trkpt lat="45.86101" lon="4.66215">
        <ele>238.85287</ele>
        <time>2023-11-26T13:39:17.000Z</time>
      </trkpt>
      <trkpt lat="45.86102" lon="4.6621">
        <ele>238.59016</ele>
        <time>2023-11-26T13:39:18.000Z</time>
      </trkpt>
      <trkpt lat="45.86103" lon="4.66205">
        <ele>238.93384</ele>
        <time>2023-11-26T13:39:19.000Z</time>
      </trkpt>
      <trkpt lat="45.86103" lon="4.662">
        <ele>239.24532</ele>
        <time>2023-11-26T13:39:20.000Z</time>
      </trkpt>
      <trkpt lat="45.86102" lon="4.66195">
        <ele>239.57471</ele>
        <time>2023-11-26T13:39:21.000Z</time>
      </trkpt>
      <trkpt lat="45.86101" lon="4.6619">
        <ele>239.54907</ele>
        <time>2023-11-26T13:39:22.000Z</time>
      </trkpt>
      <trkpt lat="45.86101" lon="4.66185">
        <ele>239.48337</ele>
        <time>2023-11-26T13:39:23.000Z</time>
      </trkpt>
      <trkpt lat="45.861" lon="4.6618">
        <ele>239.46487</ele>
        <time>2023-11-26T13:39:24.000Z</time>
      </trkpt>
      <trkpt lat="45.86099" lon="4.66175">
        <ele>239.50774</ele>
        <time>2023-11-26T13:39:25.000Z</time>
      </trkpt>
      <trkpt lat="45.86098" lon="4.66169">
        <ele>239.55042</ele>
        <time>2023-11-26T13:39:26.000Z</time>
      </trkpt>
      <trkpt lat="45.86097" lon="4.66164">
        <ele>239.58249</ele>
        <time>2023-11-26T13:39:27.000Z</time>
      </trkpt>
      <trkpt lat="45.86095" lon="4.6616">
        <ele>239.66338</ele>
        <time>2023-11-26T13:39:28.000Z</time>
      </trkpt>
      <trkpt lat="45.86094" lon="4.66155">
        <ele>239.79843</ele>
        <time>2023-11-26T13:39:29.000Z</time>
      </trkpt>
      <trkpt lat="45.86092" lon="4.6615">
        <ele>239.94536</ele>
        <time>2023-11-26T13:39:30.000Z</time>
      </trkpt>
      <trkpt lat="45.86091" lon="4.66146">
        <ele>239.91232</ele>
        <time>2023-11-26T13:39:31.000Z</time>
      </trkpt>
      <trkpt lat="45.86089" lon="4.66141">
        <ele>239.77461</ele>
        <time>2023-11-26T13:39:32.000Z</time>
      </trkpt>
      <trkpt lat="45.86088" lon="4.66137">
        <ele>239.58621</ele>
        <time>2023-11-26T13:39:33.000Z</time>
      </trkpt>
      <trkpt lat="45.86086" lon="4.66132">
        <ele>239.85307</ele>
        <time>2023-11-26T13:39:34.000Z</time>
      </trkpt>
      <trkpt lat="45.86085" lon="4.66127">
        <ele>240.02713</ele>
        <time>2023-11-26T13:39:35.000Z</time>
      </trkpt>
      <trkpt lat="45.86083" lon="4.66123">
        <ele>240.19441</ele>
        <time>2023-11-26T13:39:36.000Z</time>
      </trkpt>
      <trkpt lat="45.86082" lon="4.66118">
        <ele>240.32541</ele>
        <time>2023-11-26T13:39:37.000Z</time>
      </trkpt>
      <trkpt lat="45.86081" lon="4.66114">
        <ele>240.52771</ele>
        <time>2023-11-26T13:39:38.000Z</time>
      </trkpt>
      <trkpt lat="45.8608" lon="4.6611">
        <ele>240.70161</ele>
        <time>2023-11-26T13:39:39.000Z</time>
      </trkpt>
      <trkpt lat="45.86079" lon="4.66105">
        <ele>240.8468</ele>
        <time>2023-11-26T13:39:40.000Z</time>
      </trkpt>
      <trkpt lat="45.86078" lon="4.661">
        <ele>240.90646</ele>
        <time>2023-11-26T13:39:41.000Z</time>
      </trkpt>
      <trkpt lat="45.86077" lon="4.66095">
        <ele>240.92978</ele>
        <time>2023-11-26T13:39:42.000Z</time>
      </trkpt>
      <trkpt lat="45.86077" lon="4.6609">
        <ele>241.05379</ele>
        <time>2023-11-26T13:39:43.000Z</time>
      </trkpt>
      <trkpt lat="45.86076" lon="4.66086">
        <ele>241.15031</ele>
        <time>2023-11-26T13:39:44.000Z</time>
      </trkpt>
      <trkpt lat="45.86076" lon="4.66081">
        <ele>241.02129</ele>
        <time>2023-11-26T13:39:45.000Z</time>
      </trkpt>
      <trkpt lat="45.86076" lon="4.66076">
        <ele>240.87549</ele>
        <time>2023-11-26T13:39:46.000Z</time>
      </trkpt>
      <trkpt lat="45.86077" lon="4.66071">
        <ele>240.73172</ele>
        <time>2023-11-26T13:39:47.000Z</time>
      </trkpt>
      <trkpt lat="45.86077" lon="4.66066">
        <ele>240.57979</ele>
        <time>2023-11-26T13:39:48.000Z</time>
      </trkpt>
      <trkpt lat="45.86077" lon="4.66061">
        <ele>240.4104</ele>
        <time>2023-11-26T13:39:49.000Z</time>
      </trkpt>
      <trkpt lat="45.86077" lon="4.66056">
        <ele>240.11055</ele>
        <time>2023-11-26T13:39:50.000Z</time>
      </trkpt>
      <trkpt lat="45.86077" lon="4.66051">
        <ele>239.98909</ele>
        <time>2023-11-26T13:39:51.000Z</time>
      </trkpt>
      <trkpt lat="45.86077" lon="4.66047">
        <ele>240.36787</ele>
        <time>2023-11-26T13:39:52.000Z</time>
      </trkpt>
      <trkpt lat="45.86078" lon="4.66043">
        <ele>240.74214</ele>
        <time>2023-11-26T13:39:53.000Z</time>
      </trkpt>
      <trkpt lat="45.86078" lon="4.6604">
        <ele>240.68637</ele>
        <time>2023-11-26T13:39:54.000Z</time>
      </trkpt>
      <trkpt lat="45.86078" lon="4.66036">
        <ele>240.696</ele>
        <time>2023-11-26T13:39:55.000Z</time>
      </trkpt>
      <trkpt lat="45.86078" lon="4.66032">
        <ele>240.68318</ele>
        <time>2023-11-26T13:39:56.000Z</time>
      </trkpt>
      <trkpt lat="45.86079" lon="4.66028">
        <ele>240.91475</ele>
        <time>2023-11-26T13:39:57.000Z</time>
      </trkpt>
      <trkpt lat="45.86081" lon="4.66023">
        <ele>241.29158</ele>
        <time>2023-11-26T13:39:58.000Z</time>
      </trkpt>
      <trkpt lat="45.86082" lon="4.66018">
        <ele>241.27348</ele>
        <time>2023-11-26T13:39:59.000Z</time>
      </trkpt>
      <trkpt lat="45.86085" lon="4.66014">
        <ele>241.30313</ele>
        <time>2023-11-26T13:40:00.000Z</time>
      </trkpt>
      <trkpt lat="45.86087" lon="4.66009">
        <ele>241.39981</ele>
        <time>2023-11-26T13:40:01.000Z</time>
      </trkpt>
      <trkpt lat="45.8609" lon="4.66003">
        <ele>241.5251</ele>
        <time>2023-11-26T13:40:02.000Z</time>
      </trkpt>
      <trkpt lat="45.86092" lon="4.65998">
        <ele>241.47977</ele>
        <time>2023-11-26T13:40:03.000Z</time>
      </trkpt>
      <trkpt lat="45.86094" lon="4.65992">
        <ele>241.53059</ele>
        <time>2023-11-26T13:40:04.000Z</time>
      </trkpt>
      <trkpt lat="45.86096" lon="4.65987">
        <ele>241.82088</ele>
        <time>2023-11-26T13:40:05.000Z</time>
      </trkpt>
      <trkpt lat="45.86098" lon="4.65983">
        <ele>241.91707</ele>
        <time>2023-11-26T13:40:06.000Z</time>
      </trkpt>
      <trkpt lat="45.861" lon="4.65979">
        <ele>242.03867</ele>
        <time>2023-11-26T13:40:07.000Z</time>
      </trkpt>
      <trkpt lat="45.86102" lon="4.65975">
        <ele>242.00725</ele>
        <time>2023-11-26T13:40:08.000Z</time>
      </trkpt>
      <trkpt lat="45.86104" lon="4.65972">
        <ele>242.44519</ele>
        <time>2023-11-26T13:40:09.000Z</time>
      </trkpt>
      <trkpt lat="45.86105" lon="4.65969">
        <ele>242.91216</ele>
        <time>2023-11-26T13:40:10.000Z</time>
      </trkpt>
      <trkpt lat="45.86107" lon="4.65967">
        <ele>243.40726</ele>
        <time>2023-11-26T13:40:11.000Z</time>
      </trkpt>
      <trkpt lat="45.86109" lon="4.65966">
        <ele>243.44214</ele>
        <time>2023-11-26T13:40:12.000Z</time>
      </trkpt>
      <trkpt lat="45.86111" lon="4.65966">
        <ele>243.47546</ele>
        <time>2023-11-26T13:40:23.000Z</time>
      </trkpt>
      <trkpt lat="45.86113" lon="4.65966">
        <ele>243.51834</ele>
        <time>2023-11-26T13:40:24.000Z</time>
      </trkpt>
      <trkpt lat="45.86115" lon="4.65966">
        <ele>243.55688</ele>
        <time>2023-11-26T13:40:25.000Z</time>
      </trkpt>
      <trkpt lat="45.86117" lon="4.65967">
        <ele>243.61978</ele>
        <time>2023-11-26T13:40:26.000Z</time>
      </trkpt>
      <trkpt lat="45.86119" lon="4.65969">
        <ele>243.63086</ele>
        <time>2023-11-26T13:40:27.000Z</time>
      </trkpt>
      <trkpt lat="45.86121" lon="4.6597">
        <ele>243.6337</ele>
        <time>2023-11-26T13:40:28.000Z</time>
      </trkpt>
      <trkpt lat="45.86124" lon="4.65971">
        <ele>243.62068</ele>
        <time>2023-11-26T13:40:29.000Z</time>
      </trkpt>
      <trkpt lat="45.86128" lon="4.65971">
        <ele>243.63264</ele>
        <time>2023-11-26T13:40:30.000Z</time>
      </trkpt>
      <trkpt lat="45.86131" lon="4.6597">
        <ele>243.61922</ele>
        <time>2023-11-26T13:40:31.000Z</time>
      </trkpt>
      <trkpt lat="45.86134" lon="4.65968">
        <ele>243.59055</ele>
        <time>2023-11-26T13:40:32.000Z</time>
      </trkpt>
      <trkpt lat="45.86138" lon="4.65964">
        <ele>243.63213</ele>
        <time>2023-11-26T13:40:33.000Z</time>
      </trkpt>
      <trkpt lat="45.86141" lon="4.65962">
        <ele>243.55363</ele>
        <time>2023-11-26T13:40:34.000Z</time>
      </trkpt>
      <trkpt lat="45.86144" lon="4.65959">
        <ele>243.42966</ele>
        <time>2023-11-26T13:40:35.000Z</time>
      </trkpt>
      <trkpt lat="45.86147" lon="4.65956">
        <ele>243.53316</ele>
        <time>2023-11-26T13:40:36.000Z</time>
      </trkpt>
      <trkpt lat="45.8615" lon="4.65953">
        <ele>243.6326</ele>
        <time>2023-11-26T13:40:37.000Z</time>
      </trkpt>
      <trkpt lat="45.86154" lon="4.6595">
        <ele>243.85904</ele>
        <time>2023-11-26T13:40:38.000Z</time>
      </trkpt>
      <trkpt lat="45.86157" lon="4.65947">
        <ele>243.65337</ele>
        <time>2023-11-26T13:40:39.000Z</time>
      </trkpt>
      <trkpt lat="45.86161" lon="4.65944">
        <ele>243.5488</ele>
        <time>2023-11-26T13:40:40.000Z</time>
      </trkpt>
      <trkpt lat="45.86165" lon="4.6594">
        <ele>243.38022</ele>
        <time>2023-11-26T13:40:41.000Z</time>
      </trkpt>
      <trkpt lat="45.86169" lon="4.65937">
        <ele>243.24373</ele>
        <time>2023-11-26T13:40:42.000Z</time>
      </trkpt>
      <trkpt lat="45.86174" lon="4.65934">
        <ele>243.15446</ele>
        <time>2023-11-26T13:40:43.000Z</time>
      </trkpt>
      <trkpt lat="45.86178" lon="4.65932">
        <ele>243.03259</ele>
        <time>2023-11-26T13:40:44.000Z</time>
      </trkpt>
      <trkpt lat="45.86183" lon="4.6593">
        <ele>242.88193</ele>
        <time>2023-11-26T13:40:45.000Z</time>
      </trkpt>
      <trkpt lat="45.86186" lon="4.65927">
        <ele>242.71866</ele>
        <time>2023-11-26T13:40:46.000Z</time>
      </trkpt>
      <trkpt lat="45.8619" lon="4.65924">
        <ele>242.56465</ele>
        <time>2023-11-26T13:40:47.000Z</time>
      </trkpt>
      <trkpt lat="45.86194" lon="4.65921">
        <ele>242.42896</ele>
        <time>2023-11-26T13:40:48.000Z</time>
      </trkpt>
      <trkpt lat="45.86198" lon="4.65917">
        <ele>242.3334</ele>
        <time>2023-11-26T13:40:49.000Z</time>
      </trkpt>
      <trkpt lat="45.86202" lon="4.65914">
        <ele>242.22668</ele>
        <time>2023-11-26T13:40:50.000Z</time>
      </trkpt>
      <trkpt lat="45.86206" lon="4.65911">
        <ele>241.87479</ele>
        <time>2023-11-26T13:40:51.000Z</time>
      </trkpt>
      <trkpt lat="45.8621" lon="4.65909">
        <ele>241.5217</ele>
        <time>2023-11-26T13:40:52.000Z</time>
      </trkpt>
      <trkpt lat="45.86214" lon="4.65905">
        <ele>241.09659</ele>
        <time>2023-11-26T13:40:53.000Z</time>
      </trkpt>
      <trkpt lat="45.86218" lon="4.65902">
        <ele>241.05376</ele>
        <time>2023-11-26T13:40:54.000Z</time>
      </trkpt>
      <trkpt lat="45.86224" lon="4.65899">
        <ele>240.93234</ele>
        <time>2023-11-26T13:40:55.000Z</time>
      </trkpt>
      <trkpt lat="45.86229" lon="4.65896">
        <ele>240.76059</ele>
        <time>2023-11-26T13:40:56.000Z</time>
      </trkpt>
      <trkpt lat="45.86235" lon="4.65892">
        <ele>240.54785</ele>
        <time>2023-11-26T13:40:57.000Z</time>
      </trkpt>
      <trkpt lat="45.86241" lon="4.65887">
        <ele>240.33623</ele>
        <time>2023-11-26T13:40:58.000Z</time>
      </trkpt>
      <trkpt lat="45.86247" lon="4.65882">
        <ele>240.08984</ele>
        <time>2023-11-26T13:40:59.000Z</time>
      </trkpt>
      <trkpt lat="45.86251" lon="4.65875">
        <ele>239.90385</ele>
        <time>2023-11-26T13:41:00.000Z</time>
      </trkpt>
      <trkpt lat="45.86254" lon="4.65869">
        <ele>239.48657</ele>
        <time>2023-11-26T13:41:01.000Z</time>
      </trkpt>
      <trkpt lat="45.86258" lon="4.65864">
        <ele>239.07285</ele>
        <time>2023-11-26T13:41:02.000Z</time>
      </trkpt>
      <trkpt lat="45.86261" lon="4.65857">
        <ele>238.66129</ele>
        <time>2023-11-26T13:41:03.000Z</time>
      </trkpt>
      <trkpt lat="45.86264" lon="4.65852">
        <ele>238.28745</ele>
        <time>2023-11-26T13:41:04.000Z</time>
      </trkpt>
      <trkpt lat="45.86266" lon="4.65846">
        <ele>237.94116</ele>
        <time>2023-11-26T13:41:05.000Z</time>
      </trkpt>
      <trkpt lat="45.86269" lon="4.65841">
        <ele>237.61699</ele>
        <time>2023-11-26T13:41:06.000Z</time>
      </trkpt>
      <trkpt lat="45.86272" lon="4.65836">
        <ele>237.29732</ele>
        <time>2023-11-26T13:41:07.000Z</time>
      </trkpt>
      <trkpt lat="45.86275" lon="4.65831">
        <ele>236.97049</ele>
        <time>2023-11-26T13:41:08.000Z</time>
      </trkpt>
      <trkpt lat="45.86278" lon="4.65825">
        <ele>236.62305</ele>
        <time>2023-11-26T13:41:09.000Z</time>
      </trkpt>
      <trkpt lat="45.86281" lon="4.6582">
        <ele>236.29724</ele>
        <time>2023-11-26T13:41:10.000Z</time>
      </trkpt>
      <trkpt lat="45.86284" lon="4.65816">
        <ele>236.23906</ele>
        <time>2023-11-26T13:41:11.000Z</time>
      </trkpt>
      <trkpt lat="45.86286" lon="4.65811">
        <ele>236.20235</ele>
        <time>2023-11-26T13:41:12.000Z</time>
      </trkpt>
      <trkpt lat="45.86289" lon="4.65807">
        <ele>236.28275</ele>
        <time>2023-11-26T13:41:13.000Z</time>
      </trkpt>
      <trkpt lat="45.86292" lon="4.65802">
        <ele>236.00674</ele>
        <time>2023-11-26T13:41:14.000Z</time>
      </trkpt>
      <trkpt lat="45.86295" lon="4.65797">
        <ele>235.82051</ele>
        <time>2023-11-26T13:41:15.000Z</time>
      </trkpt>
      <trkpt lat="45.86298" lon="4.65792">
        <ele>235.66397</ele>
        <time>2023-11-26T13:41:16.000Z</time>
      </trkpt>
      <trkpt lat="45.86301" lon="4.65787">
        <ele>235.54636</ele>
        <time>2023-11-26T13:41:17.000Z</time>
      </trkpt>
      <trkpt lat="45.86304" lon="4.65783">
        <ele>235.47099</ele>
        <time>2023-11-26T13:41:18.000Z</time>
      </trkpt>
      <trkpt lat="45.86306" lon="4.65777">
        <ele>235.4133</ele>
        <time>2023-11-26T13:41:19.000Z</time>
      </trkpt>
      <trkpt lat="45.86309" lon="4.65773">
        <ele>235.29599</ele>
        <time>2023-11-26T13:41:20.000Z</time>
      </trkpt>
      <trkpt lat="45.86312" lon="4.65768">
        <ele>235.82669</ele>
        <time>2023-11-26T13:41:21.000Z</time>
      </trkpt>
      <trkpt lat="45.86315" lon="4.65763">
        <ele>236.21931</ele>
        <time>2023-11-26T13:41:22.000Z</time>
      </trkpt>
      <trkpt lat="45.86318" lon="4.65758">
        <ele>236.64763</ele>
        <time>2023-11-26T13:41:23.000Z</time>
      </trkpt>
      <trkpt lat="45.86321" lon="4.65754">
        <ele>237.08633</ele>
        <time>2023-11-26T13:41:24.000Z</time>
      </trkpt>
      <trkpt lat="45.86323" lon="4.6575">
        <ele>237.52507</ele>
        <time>2023-11-26T13:41:25.000Z</time>
      </trkpt>
      <trkpt lat="45.86325" lon="4.65747">
        <ele>237.95076</ele>
        <time>2023-11-26T13:41:26.000Z</time>
      </trkpt>
      <trkpt lat="45.86327" lon="4.65742">
        <ele>238.37302</ele>
        <time>2023-11-26T13:41:27.000Z</time>
      </trkpt>
      <trkpt lat="45.86329" lon="4.65738">
        <ele>238.78098</ele>
        <time>2023-11-26T13:41:28.000Z</time>
      </trkpt>
      <trkpt lat="45.86332" lon="4.65734">
        <ele>238.93648</ele>
        <time>2023-11-26T13:41:29.000Z</time>
      </trkpt>
      <trkpt lat="45.86334" lon="4.65729">
        <ele>239.04825</ele>
        <time>2023-11-26T13:41:30.000Z</time>
      </trkpt>
      <trkpt lat="45.86337" lon="4.65725">
        <ele>239.58139</ele>
        <time>2023-11-26T13:41:31.000Z</time>
      </trkpt>
      <trkpt lat="45.86339" lon="4.6572">
        <ele>240.03398</ele>
        <time>2023-11-26T13:41:32.000Z</time>
      </trkpt>
      <trkpt lat="45.86342" lon="4.65716">
        <ele>240.48701</ele>
        <time>2023-11-26T13:41:33.000Z</time>
      </trkpt>
      <trkpt lat="45.86344" lon="4.65713">
        <ele>240.93222</ele>
        <time>2023-11-26T13:41:34.000Z</time>
      </trkpt>
      <trkpt lat="45.86347" lon="4.65709">
        <ele>241.39192</ele>
        <time>2023-11-26T13:41:35.000Z</time>
      </trkpt>
      <trkpt lat="45.86349" lon="4.65705">
        <ele>241.80608</ele>
        <time>2023-11-26T13:41:36.000Z</time>
      </trkpt>
      <trkpt lat="45.86351" lon="4.65701">
        <ele>242.18852</ele>
        <time>2023-11-26T13:41:37.000Z</time>
      </trkpt>
      <trkpt lat="45.86353" lon="4.65697">
        <ele>242.54477</ele>
        <time>2023-11-26T13:41:38.000Z</time>
      </trkpt>
      <trkpt lat="45.86355" lon="4.65693">
        <ele>242.87903</ele>
        <time>2023-11-26T13:41:39.000Z</time>
      </trkpt>
      <trkpt lat="45.86357" lon="4.65689">
        <ele>243.24582</ele>
        <time>2023-11-26T13:41:40.000Z</time>
      </trkpt>
      <trkpt lat="45.8636" lon="4.65685">
        <ele>242.94185</ele>
        <time>2023-11-26T13:41:41.000Z</time>
      </trkpt>
      <trkpt lat="45.86362" lon="4.6568">
        <ele>242.65779</ele>
        <time>2023-11-26T13:41:42.000Z</time>
      </trkpt>
      <trkpt lat="45.86364" lon="4.65676">
        <ele>242.26834</ele>
        <time>2023-11-26T13:41:43.000Z</time>
      </trkpt>
      <trkpt lat="45.86366" lon="4.65672">
        <ele>241.81448</ele>
        <time>2023-11-26T13:41:44.000Z</time>
      </trkpt>
      <trkpt lat="45.86368" lon="4.65668">
        <ele>241.39619</ele>
        <time>2023-11-26T13:41:45.000Z</time>
      </trkpt>
      <trkpt lat="45.86371" lon="4.65665">
        <ele>241.55444</ele>
        <time>2023-11-26T13:41:46.000Z</time>
      </trkpt>
      <trkpt lat="45.86374" lon="4.65663">
        <ele>241.63606</ele>
        <time>2023-11-26T13:41:47.000Z</time>
      </trkpt>
      <trkpt lat="45.86377" lon="4.65662">
        <ele>241.78989</ele>
        <time>2023-11-26T13:41:48.000Z</time>
      </trkpt>
      <trkpt lat="45.86381" lon="4.65662">
        <ele>242.16533</ele>
        <time>2023-11-26T13:41:49.000Z</time>
      </trkpt>
      <trkpt lat="45.86385" lon="4.65661">
        <ele>242.56326</ele>
        <time>2023-11-26T13:41:50.000Z</time>
      </trkpt>
      <trkpt lat="45.86388" lon="4.65661">
        <ele>242.54196</ele>
        <time>2023-11-26T13:41:51.000Z</time>
      </trkpt>
      <trkpt lat="45.86392" lon="4.65659">
        <ele>242.61124</ele>
        <time>2023-11-26T13:41:52.000Z</time>
      </trkpt>
      <trkpt lat="45.86396" lon="4.65657">
        <ele>242.68274</ele>
        <time>2023-11-26T13:41:53.000Z</time>
      </trkpt>
      <trkpt lat="45.86399" lon="4.65654">
        <ele>242.78842</ele>
        <time>2023-11-26T13:41:54.000Z</time>
      </trkpt>
      <trkpt lat="45.86402" lon="4.65651">
        <ele>242.89384</ele>
        <time>2023-11-26T13:41:55.000Z</time>
      </trkpt>
      <trkpt lat="45.86405" lon="4.65649">
        <ele>243.02437</ele>
        <time>2023-11-26T13:41:56.000Z</time>
      </trkpt>
      <trkpt lat="45.86408" lon="4.65646">
        <ele>243.18567</ele>
        <time>2023-11-26T13:41:57.000Z</time>
      </trkpt>
      <trkpt lat="45.86411" lon="4.65642">
        <ele>243.38522</ele>
        <time>2023-11-26T13:41:58.000Z</time>
      </trkpt>
      <trkpt lat="45.86414" lon="4.65638">
        <ele>243.59317</ele>
        <time>2023-11-26T13:41:59.000Z</time>
      </trkpt>
      <trkpt lat="45.86417" lon="4.65635">
        <ele>243.74319</ele>
        <time>2023-11-26T13:42:00.000Z</time>
      </trkpt>
      <trkpt lat="45.8642" lon="4.65632">
        <ele>243.99072</ele>
        <time>2023-11-26T13:42:01.000Z</time>
      </trkpt>
      <trkpt lat="45.86423" lon="4.65628">
        <ele>244.19695</ele>
        <time>2023-11-26T13:42:02.000Z</time>
      </trkpt>
      <trkpt lat="45.86426" lon="4.65624">
        <ele>244.92453</ele>
        <time>2023-11-26T13:42:03.000Z</time>
      </trkpt>
      <trkpt lat="45.86429" lon="4.6562">
        <ele>245.57561</ele>
        <time>2023-11-26T13:42:04.000Z</time>
      </trkpt>
      <trkpt lat="45.86433" lon="4.65619">
        <ele>246.18289</ele>
        <time>2023-11-26T13:42:05.000Z</time>
      </trkpt>
      <trkpt lat="45.86437" lon="4.65619">
        <ele>246.19299</ele>
        <time>2023-11-26T13:42:06.000Z</time>
      </trkpt>
      <trkpt lat="45.86442" lon="4.65621">
        <ele>247.42014</ele>
        <time>2023-11-26T13:42:07.000Z</time>
      </trkpt>
      <trkpt lat="45.86446" lon="4.65623">
        <ele>248.57413</ele>
        <time>2023-11-26T13:42:08.000Z</time>
      </trkpt>
      <trkpt lat="45.86449" lon="4.65625">
        <ele>249.74541</ele>
        <time>2023-11-26T13:42:09.000Z</time>
      </trkpt>
      <trkpt lat="45.86453" lon="4.65628">
        <ele>250.92081</ele>
        <time>2023-11-26T13:42:10.000Z</time>
      </trkpt>
      <trkpt lat="45.86456" lon="4.6563">
        <ele>252.09964</ele>
        <time>2023-11-26T13:42:11.000Z</time>
      </trkpt>
      <trkpt lat="45.8646" lon="4.65632">
        <ele>253.23267</ele>
        <time>2023-11-26T13:42:12.000Z</time>
      </trkpt>
      <trkpt lat="45.86464" lon="4.65632">
        <ele>254.35779</ele>
        <time>2023-11-26T13:42:13.000Z</time>
      </trkpt>
      <trkpt lat="45.86468" lon="4.6563">
        <ele>255.47188</ele>
        <time>2023-11-26T13:42:14.000Z</time>
      </trkpt>
      <trkpt lat="45.86471" lon="4.65626">
        <ele>256.58099</ele>
        <time>2023-11-26T13:42:15.000Z</time>
      </trkpt>
      <trkpt lat="45.86473" lon="4.65621">
        <ele>257.70746</ele>
        <time>2023-11-26T13:42:16.000Z</time>
      </trkpt>
      <trkpt lat="45.86475" lon="4.65616">
        <ele>258.94757</ele>
        <time>2023-11-26T13:42:17.000Z</time>
      </trkpt>
      <trkpt lat="45.86476" lon="4.6561">
        <ele>260.14798</ele>
        <time>2023-11-26T13:42:18.000Z</time>
      </trkpt>
      <trkpt lat="45.86477" lon="4.65604">
        <ele>261.45721</ele>
        <time>2023-11-26T13:42:19.000Z</time>
      </trkpt>
      <trkpt lat="45.86478" lon="4.65598">
        <ele>262.48917</ele>
        <time>2023-11-26T13:42:20.000Z</time>
      </trkpt>
      <trkpt lat="45.86479" lon="4.65592">
        <ele>263.77515</ele>
        <time>2023-11-26T13:42:21.000Z</time>
      </trkpt>
      <trkpt lat="45.8648" lon="4.65586">
        <ele>265.19296</ele>
        <time>2023-11-26T13:42:22.000Z</time>
      </trkpt>
      <trkpt lat="45.86482" lon="4.6558">
        <ele>266.15668</ele>
        <time>2023-11-26T13:42:23.000Z</time>
      </trkpt>
      <trkpt lat="45.86483" lon="4.65574">
        <ele>267.22864</ele>
        <time>2023-11-26T13:42:24.000Z</time>
      </trkpt>
      <trkpt lat="45.86485" lon="4.65568">
        <ele>268.27417</ele>
        <time>2023-11-26T13:42:25.000Z</time>
      </trkpt>
      <trkpt lat="45.86488" lon="4.6556">
        <ele>269.3634</ele>
        <time>2023-11-26T13:42:26.000Z</time>
      </trkpt>
      <trkpt lat="45.8649" lon="4.65552">
        <ele>269.31186</ele>
        <time>2023-11-26T13:42:27.000Z</time>
      </trkpt>
      <trkpt lat="45.86492" lon="4.65544">
        <ele>269.24561</ele>
        <time>2023-11-26T13:42:28.000Z</time>
      </trkpt>
      <trkpt lat="45.86494" lon="4.65536">
        <ele>269.17032</ele>
        <time>2023-11-26T13:42:29.000Z</time>
      </trkpt>
      <trkpt lat="45.86496" lon="4.65528">
        <ele>269.09232</ele>
        <time>2023-11-26T13:42:30.000Z</time>
      </trkpt>
      <trkpt lat="45.86497" lon="4.65521">
        <ele>269.0011</ele>
        <time>2023-11-26T13:42:31.000Z</time>
      </trkpt>
      <trkpt lat="45.86498" lon="4.65512">
        <ele>268.94705</ele>
        <time>2023-11-26T13:42:32.000Z</time>
      </trkpt>
      <trkpt lat="45.86499" lon="4.65504">
        <ele>269.09018</ele>
        <time>2023-11-26T13:42:33.000Z</time>
      </trkpt>
      <trkpt lat="45.865" lon="4.65497">
        <ele>269.23642</ele>
        <time>2023-11-26T13:42:34.000Z</time>
      </trkpt>
      <trkpt lat="45.86502" lon="4.65489">
        <ele>269.04523</ele>
        <time>2023-11-26T13:42:35.000Z</time>
      </trkpt>
      <trkpt lat="45.86504" lon="4.65482">
        <ele>268.8851</ele>
        <time>2023-11-26T13:42:36.000Z</time>
      </trkpt>
      <trkpt lat="45.86506" lon="4.65476">
        <ele>268.56772</ele>
        <time>2023-11-26T13:42:37.000Z</time>
      </trkpt>
      <trkpt lat="45.86509" lon="4.6547">
        <ele>268.26675</ele>
        <time>2023-11-26T13:42:38.000Z</time>
      </trkpt>
      <trkpt lat="45.8651" lon="4.65464">
        <ele>267.86456</ele>
        <time>2023-11-26T13:42:39.000Z</time>
      </trkpt>
      <trkpt lat="45.86512" lon="4.65458">
        <ele>267.70825</ele>
        <time>2023-11-26T13:42:40.000Z</time>
      </trkpt>
      <trkpt lat="45.86515" lon="4.65452">
        <ele>267.49362</ele>
        <time>2023-11-26T13:42:41.000Z</time>
      </trkpt>
      <trkpt lat="45.86517" lon="4.65446">
        <ele>267.2999</ele>
        <time>2023-11-26T13:42:42.000Z</time>
      </trkpt>
      <trkpt lat="45.86518" lon="4.65439">
        <ele>267.1774</ele>
        <time>2023-11-26T13:42:43.000Z</time>
      </trkpt>
      <trkpt lat="45.8652" lon="4.65433">
        <ele>267.07846</ele>
        <time>2023-11-26T13:42:44.000Z</time>
      </trkpt>
      <trkpt lat="45.86522" lon="4.65425">
        <ele>266.9783</ele>
        <time>2023-11-26T13:42:45.000Z</time>
      </trkpt>
      <trkpt lat="45.86524" lon="4.65419">
        <ele>265.60736</ele>
        <time>2023-11-26T13:42:46.000Z</time>
      </trkpt>
      <trkpt lat="45.86525" lon="4.65412">
        <ele>264.13089</ele>
        <time>2023-11-26T13:42:47.000Z</time>
      </trkpt>
      <trkpt lat="45.86526" lon="4.65405">
        <ele>262.6897</ele>
        <time>2023-11-26T13:42:48.000Z</time>
      </trkpt>
      <trkpt lat="45.86527" lon="4.65397">
        <ele>261.07343</ele>
        <time>2023-11-26T13:42:49.000Z</time>
      </trkpt>
      <trkpt lat="45.86527" lon="4.65391">
        <ele>259.45493</ele>
        <time>2023-11-26T13:42:50.000Z</time>
      </trkpt>
      <trkpt lat="45.86529" lon="4.65385">
        <ele>257.68924</ele>
        <time>2023-11-26T13:42:51.000Z</time>
      </trkpt>
      <trkpt lat="45.8653" lon="4.65378">
        <ele>257.78525</ele>
        <time>2023-11-26T13:42:52.000Z</time>
      </trkpt>
      <trkpt lat="45.8653" lon="4.65373">
        <ele>257.65131</ele>
        <time>2023-11-26T13:42:53.000Z</time>
      </trkpt>
      <trkpt lat="45.86531" lon="4.65367">
        <ele>257.15851</ele>
        <time>2023-11-26T13:42:54.000Z</time>
      </trkpt>
      <trkpt lat="45.86533" lon="4.65362">
        <ele>257.08014</ele>
        <time>2023-11-26T13:42:55.000Z</time>
      </trkpt>
      <trkpt lat="45.86535" lon="4.65355">
        <ele>256.96561</ele>
        <time>2023-11-26T13:42:56.000Z</time>
      </trkpt>
      <trkpt lat="45.86536" lon="4.6535">
        <ele>256.87155</ele>
        <time>2023-11-26T13:42:57.000Z</time>
      </trkpt>
      <trkpt lat="45.8654" lon="4.65344">
        <ele>255.30891</ele>
        <time>2023-11-26T13:42:58.000Z</time>
      </trkpt>
      <trkpt lat="45.86543" lon="4.65338">
        <ele>254.01933</ele>
        <time>2023-11-26T13:42:59.000Z</time>
      </trkpt>
      <trkpt lat="45.86546" lon="4.65332">
        <ele>252.69197</ele>
        <time>2023-11-26T13:43:00.000Z</time>
      </trkpt>
      <trkpt lat="45.86549" lon="4.65328">
        <ele>251.41663</ele>
        <time>2023-11-26T13:43:01.000Z</time>
      </trkpt>
      <trkpt lat="45.86551" lon="4.65323">
        <ele>250.14775</ele>
        <time>2023-11-26T13:43:02.000Z</time>
      </trkpt>
      <trkpt lat="45.86554" lon="4.65319">
        <ele>248.79276</ele>
        <time>2023-11-26T13:43:03.000Z</time>
      </trkpt>
      <trkpt lat="45.86557" lon="4.65315">
        <ele>247.45352</ele>
        <time>2023-11-26T13:43:04.000Z</time>
      </trkpt>
      <trkpt lat="45.8656" lon="4.6531">
        <ele>246.18115</ele>
        <time>2023-11-26T13:43:05.000Z</time>
      </trkpt>
      <trkpt lat="45.86562" lon="4.65306">
        <ele>245.99834</ele>
        <time>2023-11-26T13:43:06.000Z</time>
      </trkpt>
      <trkpt lat="45.86565" lon="4.65301">
        <ele>245.97908</ele>
        <time>2023-11-26T13:43:07.000Z</time>
      </trkpt>
      <trkpt lat="45.86568" lon="4.65296">
        <ele>245.86755</ele>
        <time>2023-11-26T13:43:08.000Z</time>
      </trkpt>
      <trkpt lat="45.86571" lon="4.65292">
        <ele>245.83484</ele>
        <time>2023-11-26T13:43:09.000Z</time>
      </trkpt>
      <trkpt lat="45.86573" lon="4.65287">
        <ele>245.79691</ele>
        <time>2023-11-26T13:43:10.000Z</time>
      </trkpt>
      <trkpt lat="45.86576" lon="4.65283">
        <ele>246.38261</ele>
        <time>2023-11-26T13:43:11.000Z</time>
      </trkpt>
      <trkpt lat="45.86578" lon="4.65278">
        <ele>245.07874</ele>
        <time>2023-11-26T13:43:12.000Z</time>
      </trkpt>
      <trkpt lat="45.86581" lon="4.65273">
        <ele>243.83859</ele>
        <time>2023-11-26T13:43:13.000Z</time>
      </trkpt>
      <trkpt lat="45.86583" lon="4.65268">
        <ele>242.93547</ele>
        <time>2023-11-26T13:43:14.000Z</time>
      </trkpt>
      <trkpt lat="45.86586" lon="4.65264">
        <ele>241.94919</ele>
        <time>2023-11-26T13:43:15.000Z</time>
      </trkpt>
      <trkpt lat="45.86588" lon="4.6526">
        <ele>240.7933</ele>
        <time>2023-11-26T13:43:16.000Z</time>
      </trkpt>
      <trkpt lat="45.86591" lon="4.65256">
        <ele>239.53775</ele>
        <time>2023-11-26T13:43:17.000Z</time>
      </trkpt>
      <trkpt lat="45.86593" lon="4.65252">
        <ele>239.67439</ele>
        <time>2023-11-26T13:43:18.000Z</time>
      </trkpt>
      <trkpt lat="45.86595" lon="4.65247">
        <ele>239.99069</ele>
        <time>2023-11-26T13:43:19.000Z</time>
      </trkpt>
      <trkpt lat="45.86597" lon="4.65243">
        <ele>240.30774</ele>
        <time>2023-11-26T13:43:20.000Z</time>
      </trkpt>
      <trkpt lat="45.86598" lon="4.65238">
        <ele>240.60287</ele>
        <time>2023-11-26T13:43:21.000Z</time>
      </trkpt>
      <trkpt lat="45.866" lon="4.65234">
        <ele>240.91882</ele>
        <time>2023-11-26T13:43:22.000Z</time>
      </trkpt>
      <trkpt lat="45.86602" lon="4.6523">
        <ele>241.26521</ele>
        <time>2023-11-26T13:43:23.000Z</time>
      </trkpt>
      <trkpt lat="45.86604" lon="4.65227">
        <ele>241.58223</ele>
        <time>2023-11-26T13:43:24.000Z</time>
      </trkpt>
      <trkpt lat="45.86606" lon="4.65223">
        <ele>241.82866</ele>
        <time>2023-11-26T13:43:25.000Z</time>
      </trkpt>
      <trkpt lat="45.86608" lon="4.6522">
        <ele>242.24438</ele>
        <time>2023-11-26T13:43:26.000Z</time>
      </trkpt>
      <trkpt lat="45.86611" lon="4.65216">
        <ele>242.60535</ele>
        <time>2023-11-26T13:43:27.000Z</time>
      </trkpt>
      <trkpt lat="45.86613" lon="4.65212">
        <ele>243.05637</ele>
        <time>2023-11-26T13:43:28.000Z</time>
      </trkpt>
      <trkpt lat="45.86615" lon="4.65209">
        <ele>243.54214</ele>
        <time>2023-11-26T13:43:29.000Z</time>
      </trkpt>
      <trkpt lat="45.86618" lon="4.65205">
        <ele>244.01863</ele>
        <time>2023-11-26T13:43:30.000Z</time>
      </trkpt>
      <trkpt lat="45.8662" lon="4.65201">
        <ele>244.05823</ele>
        <time>2023-11-26T13:43:31.000Z</time>
      </trkpt>
      <trkpt lat="45.86623" lon="4.65198">
        <ele>244.11983</ele>
        <time>2023-11-26T13:43:32.000Z</time>
      </trkpt>
      <trkpt lat="45.86625" lon="4.65194">
        <ele>244.15764</ele>
        <time>2023-11-26T13:43:33.000Z</time>
      </trkpt>
      <trkpt lat="45.86627" lon="4.65191">
        <ele>243.98596</ele>
        <time>2023-11-26T13:43:34.000Z</time>
      </trkpt>
      <trkpt lat="45.86629" lon="4.65188">
        <ele>243.65323</ele>
        <time>2023-11-26T13:43:35.000Z</time>
      </trkpt>
      <trkpt lat="45.86631" lon="4.65185">
        <ele>243.46573</ele>
        <time>2023-11-26T13:43:36.000Z</time>
      </trkpt>
      <trkpt lat="45.86634" lon="4.65182">
        <ele>244.8894</ele>
        <time>2023-11-26T13:43:37.000Z</time>
      </trkpt>
      <trkpt lat="45.86636" lon="4.6518">
        <ele>246.35281</ele>
        <time>2023-11-26T13:43:38.000Z</time>
      </trkpt>
      <trkpt lat="45.86639" lon="4.65179">
        <ele>247.36333</ele>
        <time>2023-11-26T13:43:39.000Z</time>
      </trkpt>
      <trkpt lat="45.86642" lon="4.65179">
        <ele>248.5863</ele>
        <time>2023-11-26T13:43:40.000Z</time>
      </trkpt>
      <trkpt lat="45.86645" lon="4.6518">
        <ele>249.86246</ele>
        <time>2023-11-26T13:43:41.000Z</time>
      </trkpt>
      <trkpt lat="45.86649" lon="4.65182">
        <ele>250.78897</ele>
        <time>2023-11-26T13:43:42.000Z</time>
      </trkpt>
      <trkpt lat="45.86653" lon="4.65187">
        <ele>251.7323</ele>
        <time>2023-11-26T13:43:43.000Z</time>
      </trkpt>
      <trkpt lat="45.86658" lon="4.65188">
        <ele>252.64131</ele>
        <time>2023-11-26T13:43:44.000Z</time>
      </trkpt>
      <trkpt lat="45.86665" lon="4.65189">
        <ele>253.55826</ele>
        <time>2023-11-26T13:43:45.000Z</time>
      </trkpt>
      <trkpt lat="45.86672" lon="4.65188">
        <ele>254.42575</ele>
        <time>2023-11-26T13:43:46.000Z</time>
      </trkpt>
      <trkpt lat="45.8668" lon="4.65186">
        <ele>255.2435</ele>
        <time>2023-11-26T13:43:47.000Z</time>
      </trkpt>
      <trkpt lat="45.86689" lon="4.65183">
        <ele>256.00485</ele>
        <time>2023-11-26T13:43:48.000Z</time>
      </trkpt>
      <trkpt lat="45.86697" lon="4.65179">
        <ele>256.7934</ele>
        <time>2023-11-26T13:43:49.000Z</time>
      </trkpt>
      <trkpt lat="45.86708" lon="4.65175">
        <ele>257.50735</ele>
        <time>2023-11-26T13:43:50.000Z</time>
      </trkpt>
      <trkpt lat="45.86717" lon="4.65169">
        <ele>258.19687</ele>
        <time>2023-11-26T13:43:51.000Z</time>
      </trkpt>
      <trkpt lat="45.86727" lon="4.65163">
        <ele>259.03687</ele>
        <time>2023-11-26T13:43:52.000Z</time>
      </trkpt>
      <trkpt lat="45.86737" lon="4.65157">
        <ele>259.95355</ele>
        <time>2023-11-26T13:43:53.000Z</time>
      </trkpt>
      <trkpt lat="45.86745" lon="4.65151">
        <ele>261.11533</ele>
        <time>2023-11-26T13:43:54.000Z</time>
      </trkpt>
      <trkpt lat="45.86755" lon="4.65144">
        <ele>262.35846</ele>
        <time>2023-11-26T13:43:55.000Z</time>
      </trkpt>
      <trkpt lat="45.86766" lon="4.65136">
        <ele>263.60825</ele>
        <time>2023-11-26T13:43:56.000Z</time>
      </trkpt>
      <trkpt lat="45.86775" lon="4.65127">
        <ele>262.77887</ele>
        <time>2023-11-26T13:43:57.000Z</time>
      </trkpt>
      <trkpt lat="45.86783" lon="4.65114">
        <ele>261.99664</ele>
        <time>2023-11-26T13:43:58.000Z</time>
      </trkpt>
      <trkpt lat="45.86789" lon="4.65102">
        <ele>261.23654</ele>
        <time>2023-11-26T13:43:59.000Z</time>
      </trkpt>
      <trkpt lat="45.86794" lon="4.65089">
        <ele>260.32385</ele>
        <time>2023-11-26T13:44:00.000Z</time>
      </trkpt>
      <trkpt lat="45.868" lon="4.65077">
        <ele>259.26837</ele>
        <time>2023-11-26T13:44:01.000Z</time>
      </trkpt>
      <trkpt lat="45.86804" lon="4.65066">
        <ele>258.57828</ele>
        <time>2023-11-26T13:44:02.000Z</time>
      </trkpt>
      <trkpt lat="45.86807" lon="4.65056">
        <ele>257.90012</ele>
        <time>2023-11-26T13:44:03.000Z</time>
      </trkpt>
      <trkpt lat="45.8681" lon="4.65046">
        <ele>257.2543</ele>
        <time>2023-11-26T13:44:04.000Z</time>
      </trkpt>
      <trkpt lat="45.86813" lon="4.65039">
        <ele>256.65216</ele>
        <time>2023-11-26T13:44:05.000Z</time>
      </trkpt>
      <trkpt lat="45.86815" lon="4.65031">
        <ele>256.07867</ele>
        <time>2023-11-26T13:44:06.000Z</time>
      </trkpt>
      <trkpt lat="45.86818" lon="4.65024">
        <ele>255.52084</ele>
        <time>2023-11-26T13:44:07.000Z</time>
      </trkpt>
      <trkpt lat="45.86821" lon="4.65018">
        <ele>255.32645</ele>
        <time>2023-11-26T13:44:08.000Z</time>
      </trkpt>
      <trkpt lat="45.86823" lon="4.65011">
        <ele>255.18831</ele>
        <time>2023-11-26T13:44:09.000Z</time>
      </trkpt>
      <trkpt lat="45.86825" lon="4.65006">
        <ele>255.21468</ele>
        <time>2023-11-26T13:44:10.000Z</time>
      </trkpt>
      <trkpt lat="45.86828" lon="4.64999">
        <ele>255.29507</ele>
        <time>2023-11-26T13:44:11.000Z</time>
      </trkpt>
      <trkpt lat="45.86831" lon="4.64994">
        <ele>254.70389</ele>
        <time>2023-11-26T13:44:12.000Z</time>
      </trkpt>
      <trkpt lat="45.86833" lon="4.64987">
        <ele>254.07722</ele>
        <time>2023-11-26T13:44:13.000Z</time>
      </trkpt>
      <trkpt lat="45.86836" lon="4.6498">
        <ele>253.41599</ele>
        <time>2023-11-26T13:44:14.000Z</time>
      </trkpt>
      <trkpt lat="45.86838" lon="4.64974">
        <ele>252.81589</ele>
        <time>2023-11-26T13:44:15.000Z</time>
      </trkpt>
      <trkpt lat="45.8684" lon="4.64968">
        <ele>252.22771</ele>
        <time>2023-11-26T13:44:16.000Z</time>
      </trkpt>
      <trkpt lat="45.86843" lon="4.64961">
        <ele>252.21114</ele>
        <time>2023-11-26T13:44:17.000Z</time>
      </trkpt>
      <trkpt lat="45.86847" lon="4.64954">
        <ele>252.17236</ele>
        <time>2023-11-26T13:44:18.000Z</time>
      </trkpt>
      <trkpt lat="45.8685" lon="4.64946">
        <ele>252.20454</ele>
        <time>2023-11-26T13:44:19.000Z</time>
      </trkpt>
      <trkpt lat="45.86854" lon="4.64939">
        <ele>252.45023</ele>
        <time>2023-11-26T13:44:20.000Z</time>
      </trkpt>
      <trkpt lat="45.86858" lon="4.64934">
        <ele>252.73801</ele>
        <time>2023-11-26T13:44:21.000Z</time>
      </trkpt>
      <trkpt lat="45.8686" lon="4.64928">
        <ele>253.05058</ele>
        <time>2023-11-26T13:44:22.000Z</time>
      </trkpt>
      <trkpt lat="45.86863" lon="4.64921">
        <ele>253.56844</ele>
        <time>2023-11-26T13:44:23.000Z</time>
      </trkpt>
      <trkpt lat="45.86866" lon="4.64914">
        <ele>253.54851</ele>
        <time>2023-11-26T13:44:24.000Z</time>
      </trkpt>
      <trkpt lat="45.86869" lon="4.64909">
        <ele>253.56206</ele>
        <time>2023-11-26T13:44:25.000Z</time>
      </trkpt>
      <trkpt lat="45.86872" lon="4.64902">
        <ele>253.63423</ele>
        <time>2023-11-26T13:44:26.000Z</time>
      </trkpt>
      <trkpt lat="45.86874" lon="4.64895">
        <ele>253.7637</ele>
        <time>2023-11-26T13:44:27.000Z</time>
      </trkpt>
      <trkpt lat="45.86876" lon="4.64889">
        <ele>253.81924</ele>
        <time>2023-11-26T13:44:28.000Z</time>
      </trkpt>
      <trkpt lat="45.86879" lon="4.64882">
        <ele>254.08585</ele>
        <time>2023-11-26T13:44:29.000Z</time>
      </trkpt>
      <trkpt lat="45.86881" lon="4.64875">
        <ele>253.78687</ele>
        <time>2023-11-26T13:44:30.000Z</time>
      </trkpt>
      <trkpt lat="45.86884" lon="4.64868">
        <ele>253.56889</ele>
        <time>2023-11-26T13:44:31.000Z</time>
      </trkpt>
      <trkpt lat="45.86886" lon="4.6486">
        <ele>253.87515</ele>
        <time>2023-11-26T13:44:32.000Z</time>
      </trkpt>
      <trkpt lat="45.86889" lon="4.64852">
        <ele>254.19235</ele>
        <time>2023-11-26T13:44:33.000Z</time>
      </trkpt>
      <trkpt lat="45.86894" lon="4.64845">
        <ele>254.77934</ele>
        <time>2023-11-26T13:44:34.000Z</time>
      </trkpt>
      <trkpt lat="45.86897" lon="4.64839">
        <ele>255.54887</ele>
        <time>2023-11-26T13:44:35.000Z</time>
      </trkpt>
      <trkpt lat="45.86901" lon="4.64833">
        <ele>256.33987</ele>
        <time>2023-11-26T13:44:36.000Z</time>
      </trkpt>
      <trkpt lat="45.86905" lon="4.64826">
        <ele>257.15851</ele>
        <time>2023-11-26T13:44:37.000Z</time>
      </trkpt>
      <trkpt lat="45.86909" lon="4.6482">
        <ele>258.06488</ele>
        <time>2023-11-26T13:44:38.000Z</time>
      </trkpt>
      <trkpt lat="45.86913" lon="4.64813">
        <ele>258.2915</ele>
        <time>2023-11-26T13:44:39.000Z</time>
      </trkpt>
      <trkpt lat="45.86916" lon="4.64808">
        <ele>258.4093</ele>
        <time>2023-11-26T13:44:40.000Z</time>
      </trkpt>
      <trkpt lat="45.8692" lon="4.64802">
        <ele>258.51868</ele>
        <time>2023-11-26T13:44:41.000Z</time>
      </trkpt>
      <trkpt lat="45.86923" lon="4.64796">
        <ele>258.47321</ele>
        <time>2023-11-26T13:44:42.000Z</time>
      </trkpt>
      <trkpt lat="45.86926" lon="4.64792">
        <ele>258.14606</ele>
        <time>2023-11-26T13:44:43.000Z</time>
      </trkpt>
      <trkpt lat="45.8693" lon="4.64787">
        <ele>258.36215</ele>
        <time>2023-11-26T13:44:44.000Z</time>
      </trkpt>
      <trkpt lat="45.86933" lon="4.64784">
        <ele>258.43582</ele>
        <time>2023-11-26T13:44:45.000Z</time>
      </trkpt>
      <trkpt lat="45.86938" lon="4.64781">
        <ele>258.60727</ele>
        <time>2023-11-26T13:44:46.000Z</time>
      </trkpt>
      <trkpt lat="45.86943" lon="4.64778">
        <ele>258.84241</ele>
        <time>2023-11-26T13:44:47.000Z</time>
      </trkpt>
      <trkpt lat="45.86947" lon="4.64775">
        <ele>258.91422</ele>
        <time>2023-11-26T13:44:48.000Z</time>
      </trkpt>
      <trkpt lat="45.86952" lon="4.64772">
        <ele>258.80988</ele>
        <time>2023-11-26T13:44:49.000Z</time>
      </trkpt>
      <trkpt lat="45.86957" lon="4.64767">
        <ele>258.65137</ele>
        <time>2023-11-26T13:44:50.000Z</time>
      </trkpt>
      <trkpt lat="45.86963" lon="4.64762">
        <ele>258.39432</ele>
        <time>2023-11-26T13:44:51.000Z</time>
      </trkpt>
      <trkpt lat="45.86968" lon="4.64758">
        <ele>258.12872</ele>
        <time>2023-11-26T13:44:52.000Z</time>
      </trkpt>
      <trkpt lat="45.86974" lon="4.64753">
        <ele>257.82553</ele>
        <time>2023-11-26T13:44:53.000Z</time>
      </trkpt>
      <trkpt lat="45.86979" lon="4.64747">
        <ele>257.21649</ele>
        <time>2023-11-26T13:44:54.000Z</time>
      </trkpt>
      <trkpt lat="45.86983" lon="4.64741">
        <ele>256.46307</ele>
        <time>2023-11-26T13:44:55.000Z</time>
      </trkpt>
      <trkpt lat="45.86987" lon="4.64734">
        <ele>255.64453</ele>
        <time>2023-11-26T13:44:56.000Z</time>
      </trkpt>
      <trkpt lat="45.86991" lon="4.64727">
        <ele>254.80608</ele>
        <time>2023-11-26T13:44:57.000Z</time>
      </trkpt>
      <trkpt lat="45.86996" lon="4.64721">
        <ele>253.89929</ele>
        <time>2023-11-26T13:44:58.000Z</time>
      </trkpt>
      <trkpt lat="45.87001" lon="4.64716">
        <ele>253.5341</ele>
        <time>2023-11-26T13:44:59.000Z</time>
      </trkpt>
      <trkpt lat="45.87005" lon="4.6471">
        <ele>253.06514</ele>
        <time>2023-11-26T13:45:00.000Z</time>
      </trkpt>
      <trkpt lat="45.8701" lon="4.64704">
        <ele>252.65378</ele>
        <time>2023-11-26T13:45:01.000Z</time>
      </trkpt>
      <trkpt lat="45.87015" lon="4.64698">
        <ele>252.28702</ele>
        <time>2023-11-26T13:45:02.000Z</time>
      </trkpt>
      <trkpt lat="45.87021" lon="4.64692">
        <ele>251.92789</ele>
        <time>2023-11-26T13:45:03.000Z</time>
      </trkpt>
      <trkpt lat="45.87027" lon="4.64687">
        <ele>251.56006</ele>
        <time>2023-11-26T13:45:04.000Z</time>
      </trkpt>
      <trkpt lat="45.87032" lon="4.64681">
        <ele>251.30742</ele>
        <time>2023-11-26T13:45:05.000Z</time>
      </trkpt>
      <trkpt lat="45.87039" lon="4.64675">
        <ele>250.85042</ele>
        <time>2023-11-26T13:45:06.000Z</time>
      </trkpt>
      <trkpt lat="45.87044" lon="4.64668">
        <ele>250.27878</ele>
        <time>2023-11-26T13:45:07.000Z</time>
      </trkpt>
      <trkpt lat="45.8705" lon="4.6466">
        <ele>249.61421</ele>
        <time>2023-11-26T13:45:08.000Z</time>
      </trkpt>
      <trkpt lat="45.87054" lon="4.64651">
        <ele>248.89653</ele>
        <time>2023-11-26T13:45:09.000Z</time>
      </trkpt>
      <trkpt lat="45.87058" lon="4.64642">
        <ele>248.71021</ele>
        <time>2023-11-26T13:45:10.000Z</time>
      </trkpt>
      <trkpt lat="45.87062" lon="4.64632">
        <ele>248.47249</ele>
        <time>2023-11-26T13:45:11.000Z</time>
      </trkpt>
      <trkpt lat="45.87063" lon="4.64622">
        <ele>248.23886</ele>
        <time>2023-11-26T13:45:12.000Z</time>
      </trkpt>
      <trkpt lat="45.87065" lon="4.64612">
        <ele>247.98022</ele>
        <time>2023-11-26T13:45:13.000Z</time>
      </trkpt>
      <trkpt lat="45.87068" lon="4.64601">
        <ele>247.72461</ele>
        <time>2023-11-26T13:45:14.000Z</time>
      </trkpt>
      <trkpt lat="45.87069" lon="4.64591">
        <ele>247.42075</ele>
        <time>2023-11-26T13:45:15.000Z</time>
      </trkpt>
      <trkpt lat="45.8707" lon="4.64581">
        <ele>247.15511</ele>
        <time>2023-11-26T13:45:16.000Z</time>
      </trkpt>
      <trkpt lat="45.87072" lon="4.64572">
        <ele>246.87729</ele>
        <time>2023-11-26T13:45:17.000Z</time>
      </trkpt>
      <trkpt lat="45.87075" lon="4.64563">
        <ele>246.59946</ele>
        <time>2023-11-26T13:45:18.000Z</time>
      </trkpt>
      <trkpt lat="45.8708" lon="4.64556">
        <ele>246.31424</ele>
        <time>2023-11-26T13:45:19.000Z</time>
      </trkpt>
      <trkpt lat="45.87085" lon="4.6455">
        <ele>246.02347</ele>
        <time>2023-11-26T13:45:20.000Z</time>
      </trkpt>
      <trkpt lat="45.87092" lon="4.64547">
        <ele>245.69124</ele>
        <time>2023-11-26T13:45:21.000Z</time>
      </trkpt>
      <trkpt lat="45.87099" lon="4.64544">
        <ele>245.40315</ele>
        <time>2023-11-26T13:45:22.000Z</time>
      </trkpt>
      <trkpt lat="45.87105" lon="4.64542">
        <ele>245.12764</ele>
        <time>2023-11-26T13:45:23.000Z</time>
      </trkpt>
      <trkpt lat="45.87112" lon="4.6454">
        <ele>244.84708</ele>
        <time>2023-11-26T13:45:24.000Z</time>
      </trkpt>
      <trkpt lat="45.87119" lon="4.64537">
        <ele>244.53732</ele>
        <time>2023-11-26T13:45:25.000Z</time>
      </trkpt>
      <trkpt lat="45.87127" lon="4.64534">
        <ele>244.69174</ele>
        <time>2023-11-26T13:45:26.000Z</time>
      </trkpt>
      <trkpt lat="45.87133" lon="4.64533">
        <ele>244.84579</ele>
        <time>2023-11-26T13:45:27.000Z</time>
      </trkpt>
      <trkpt lat="45.87139" lon="4.6453">
        <ele>245.11948</ele>
        <time>2023-11-26T13:45:28.000Z</time>
      </trkpt>
      <trkpt lat="45.87146" lon="4.64527">
        <ele>245.45071</ele>
        <time>2023-11-26T13:45:29.000Z</time>
      </trkpt>
      <trkpt lat="45.87152" lon="4.64525">
        <ele>245.10666</ele>
        <time>2023-11-26T13:45:30.000Z</time>
      </trkpt>
      <trkpt lat="45.87159" lon="4.64522">
        <ele>244.79568</ele>
        <time>2023-11-26T13:45:31.000Z</time>
      </trkpt>
      <trkpt lat="45.87166" lon="4.64518">
        <ele>244.47131</ele>
        <time>2023-11-26T13:45:32.000Z</time>
      </trkpt>
      <trkpt lat="45.87172" lon="4.64513">
        <ele>244.11015</ele>
        <time>2023-11-26T13:45:33.000Z</time>
      </trkpt>
      <trkpt lat="45.87179" lon="4.64507">
        <ele>243.78104</ele>
        <time>2023-11-26T13:45:34.000Z</time>
      </trkpt>
      <trkpt lat="45.87187" lon="4.64502">
        <ele>243.40742</ele>
        <time>2023-11-26T13:45:35.000Z</time>
      </trkpt>
      <trkpt lat="45.87196" lon="4.64496">
        <ele>243.00061</ele>
        <time>2023-11-26T13:45:36.000Z</time>
      </trkpt>
      <trkpt lat="45.87205" lon="4.64489">
        <ele>242.57251</ele>
        <time>2023-11-26T13:45:37.000Z</time>
      </trkpt>
      <trkpt lat="45.87213" lon="4.64481">
        <ele>242.05962</ele>
        <time>2023-11-26T13:45:38.000Z</time>
      </trkpt>
      <trkpt lat="45.87223" lon="4.64475">
        <ele>241.59134</ele>
        <time>2023-11-26T13:45:39.000Z</time>
      </trkpt>
      <trkpt lat="45.87232" lon="4.64468">
        <ele>241.08682</ele>
        <time>2023-11-26T13:45:40.000Z</time>
      </trkpt>
      <trkpt lat="45.8724" lon="4.6446">
        <ele>240.58188</ele>
        <time>2023-11-26T13:45:41.000Z</time>
      </trkpt>
      <trkpt lat="45.87249" lon="4.64454">
        <ele>240.06416</ele>
        <time>2023-11-26T13:45:42.000Z</time>
      </trkpt>
      <trkpt lat="45.87257" lon="4.64447">
        <ele>239.55135</ele>
        <time>2023-11-26T13:45:43.000Z</time>
      </trkpt>
      <trkpt lat="45.87265" lon="4.64441">
        <ele>239.03537</ele>
        <time>2023-11-26T13:45:44.000Z</time>
      </trkpt>
      <trkpt lat="45.87272" lon="4.64434">
        <ele>238.54297</ele>
        <time>2023-11-26T13:45:45.000Z</time>
      </trkpt>
      <trkpt lat="45.8728" lon="4.64428">
        <ele>237.66455</ele>
        <time>2023-11-26T13:45:46.000Z</time>
      </trkpt>
      <trkpt lat="45.87287" lon="4.64422">
        <ele>236.79134</ele>
        <time>2023-11-26T13:45:47.000Z</time>
      </trkpt>
      <trkpt lat="45.87295" lon="4.64417">
        <ele>235.74829</ele>
        <time>2023-11-26T13:45:48.000Z</time>
      </trkpt>
      <trkpt lat="45.87302" lon="4.64412">
        <ele>234.66638</ele>
        <time>2023-11-26T13:45:49.000Z</time>
      </trkpt>
      <trkpt lat="45.87308" lon="4.64406">
        <ele>234.31393</ele>
        <time>2023-11-26T13:45:50.000Z</time>
      </trkpt>
      <trkpt lat="45.87314" lon="4.64401">
        <ele>233.93018</ele>
        <time>2023-11-26T13:45:51.000Z</time>
      </trkpt>
      <trkpt lat="45.87319" lon="4.64397">
        <ele>233.49026</ele>
        <time>2023-11-26T13:45:52.000Z</time>
      </trkpt>
      <trkpt lat="45.87325" lon="4.64392">
        <ele>233.10605</ele>
        <time>2023-11-26T13:45:53.000Z</time>
      </trkpt>
      <trkpt lat="45.8733" lon="4.64388">
        <ele>232.73149</ele>
        <time>2023-11-26T13:45:54.000Z</time>
      </trkpt>
      <trkpt lat="45.87335" lon="4.64384">
        <ele>232.43823</ele>
        <time>2023-11-26T13:45:55.000Z</time>
      </trkpt>
      <trkpt lat="45.87339" lon="4.6438">
        <ele>232.19865</ele>
        <time>2023-11-26T13:45:56.000Z</time>
      </trkpt>
      <trkpt lat="45.87344" lon="4.64375">
        <ele>231.99643</ele>
        <time>2023-11-26T13:45:57.000Z</time>
      </trkpt>
      <trkpt lat="45.87348" lon="4.64372">
        <ele>231.95914</ele>
        <time>2023-11-26T13:45:58.000Z</time>
      </trkpt>
      <trkpt lat="45.87352" lon="4.64367">
        <ele>231.97021</ele>
        <time>2023-11-26T13:45:59.000Z</time>
      </trkpt>
      <trkpt lat="45.87356" lon="4.64363">
        <ele>232.07761</ele>
        <time>2023-11-26T13:46:00.000Z</time>
      </trkpt>
      <trkpt lat="45.8736" lon="4.64359">
        <ele>232.07516</ele>
        <time>2023-11-26T13:46:01.000Z</time>
      </trkpt>
      <trkpt lat="45.87363" lon="4.64354">
        <ele>232.1091</ele>
        <time>2023-11-26T13:46:02.000Z</time>
      </trkpt>
      <trkpt lat="45.87365" lon="4.64349">
        <ele>232.14218</ele>
        <time>2023-11-26T13:46:03.000Z</time>
      </trkpt>
      <trkpt lat="45.87368" lon="4.64344">
        <ele>232.1938</ele>
        <time>2023-11-26T13:46:04.000Z</time>
      </trkpt>
      <trkpt lat="45.87369" lon="4.64338">
        <ele>232.23784</ele>
        <time>2023-11-26T13:46:05.000Z</time>
      </trkpt>
      <trkpt lat="45.8737" lon="4.6433">
        <ele>232.27361</ele>
        <time>2023-11-26T13:46:06.000Z</time>
      </trkpt>
      <trkpt lat="45.87369" lon="4.64324">
        <ele>232.30087</ele>
        <time>2023-11-26T13:46:07.000Z</time>
      </trkpt>
      <trkpt lat="45.87368" lon="4.64318">
        <ele>232.37442</ele>
        <time>2023-11-26T13:46:08.000Z</time>
      </trkpt>
      <trkpt lat="45.87367" lon="4.64312">
        <ele>232.93027</ele>
        <time>2023-11-26T13:46:09.000Z</time>
      </trkpt>
      <trkpt lat="45.87366" lon="4.64305">
        <ele>233.57813</ele>
        <time>2023-11-26T13:46:10.000Z</time>
      </trkpt>
      <trkpt lat="45.87365" lon="4.64297">
        <ele>234.24727</ele>
        <time>2023-11-26T13:46:11.000Z</time>
      </trkpt>
      <trkpt lat="45.87363" lon="4.64289">
        <ele>234.23845</ele>
        <time>2023-11-26T13:46:12.000Z</time>
      </trkpt>
      <trkpt lat="45.87362" lon="4.64281">
        <ele>234.33237</ele>
        <time>2023-11-26T13:46:13.000Z</time>
      </trkpt>
      <trkpt lat="45.87361" lon="4.64274">
        <ele>234.37508</ele>
        <time>2023-11-26T13:46:14.000Z</time>
      </trkpt>
      <trkpt lat="45.87359" lon="4.64267">
        <ele>234.39432</ele>
        <time>2023-11-26T13:46:15.000Z</time>
      </trkpt>
      <trkpt lat="45.87358" lon="4.6426">
        <ele>234.42163</ele>
        <time>2023-11-26T13:46:16.000Z</time>
      </trkpt>
      <trkpt lat="45.87356" lon="4.64254">
        <ele>234.47009</ele>
        <time>2023-11-26T13:46:17.000Z</time>
      </trkpt>
      <trkpt lat="45.87355" lon="4.64248">
        <ele>234.89139</ele>
        <time>2023-11-26T13:46:18.000Z</time>
      </trkpt>
      <trkpt lat="45.87353" lon="4.6424">
        <ele>235.26778</ele>
        <time>2023-11-26T13:46:19.000Z</time>
      </trkpt>
      <trkpt lat="45.87352" lon="4.64233">
        <ele>235.73257</ele>
        <time>2023-11-26T13:46:20.000Z</time>
      </trkpt>
      <trkpt lat="45.8735" lon="4.64226">
        <ele>236.33643</ele>
        <time>2023-11-26T13:46:21.000Z</time>
      </trkpt>
      <trkpt lat="45.87349" lon="4.6422">
        <ele>236.1375</ele>
        <time>2023-11-26T13:46:22.000Z</time>
      </trkpt>
      <trkpt lat="45.87347" lon="4.64213">
        <ele>236.07593</ele>
        <time>2023-11-26T13:46:23.000Z</time>
      </trkpt>
      <trkpt lat="45.87346" lon="4.64205">
        <ele>236.01309</ele>
        <time>2023-11-26T13:46:24.000Z</time>
      </trkpt>
      <trkpt lat="45.87344" lon="4.64199">
        <ele>235.98532</ele>
        <time>2023-11-26T13:46:25.000Z</time>
      </trkpt>
      <trkpt lat="45.87344" lon="4.64189">
        <ele>235.94221</ele>
        <time>2023-11-26T13:46:26.000Z</time>
      </trkpt>
      <trkpt lat="45.87344" lon="4.64182">
        <ele>235.97078</ele>
        <time>2023-11-26T13:46:27.000Z</time>
      </trkpt>
      <trkpt lat="45.87344" lon="4.64175">
        <ele>235.98593</ele>
        <time>2023-11-26T13:46:28.000Z</time>
      </trkpt>
      <trkpt lat="45.87346" lon="4.64168">
        <ele>235.49509</ele>
        <time>2023-11-26T13:46:29.000Z</time>
      </trkpt>
      <trkpt lat="45.87349" lon="4.64161">
        <ele>234.89139</ele>
        <time>2023-11-26T13:46:30.000Z</time>
      </trkpt>
      <trkpt lat="45.87349" lon="4.64153">
        <ele>234.30289</ele>
        <time>2023-11-26T13:46:31.000Z</time>
      </trkpt>
      <trkpt lat="45.87348" lon="4.64147">
        <ele>234.43607</ele>
        <time>2023-11-26T13:46:32.000Z</time>
      </trkpt>
      <trkpt lat="45.87348" lon="4.64141">
        <ele>234.4866</ele>
        <time>2023-11-26T13:46:33.000Z</time>
      </trkpt>
      <trkpt lat="45.87347" lon="4.64135">
        <ele>234.62175</ele>
        <time>2023-11-26T13:46:34.000Z</time>
      </trkpt>
      <trkpt lat="45.87346" lon="4.64128">
        <ele>234.74529</ele>
        <time>2023-11-26T13:46:35.000Z</time>
      </trkpt>
      <trkpt lat="45.87346" lon="4.64121">
        <ele>234.82755</ele>
        <time>2023-11-26T13:46:36.000Z</time>
      </trkpt>
      <trkpt lat="45.87344" lon="4.64113">
        <ele>234.8868</ele>
        <time>2023-11-26T13:46:37.000Z</time>
      </trkpt>
      <trkpt lat="45.87343" lon="4.64106">
        <ele>234.50391</ele>
        <time>2023-11-26T13:46:38.000Z</time>
      </trkpt>
      <trkpt lat="45.87342" lon="4.64099">
        <ele>234.06966</ele>
        <time>2023-11-26T13:46:39.000Z</time>
      </trkpt>
      <trkpt lat="45.87341" lon="4.64092">
        <ele>233.98337</ele>
        <time>2023-11-26T13:46:40.000Z</time>
      </trkpt>
      <trkpt lat="45.8734" lon="4.64084">
        <ele>233.89482</ele>
        <time>2023-11-26T13:46:41.000Z</time>
      </trkpt>
      <trkpt lat="45.87339" lon="4.64078">
        <ele>234.72928</ele>
        <time>2023-11-26T13:46:42.000Z</time>
      </trkpt>
      <trkpt lat="45.87338" lon="4.64068">
        <ele>235.44275</ele>
        <time>2023-11-26T13:46:43.000Z</time>
      </trkpt>
      <trkpt lat="45.87337" lon="4.6406">
        <ele>236.21953</ele>
        <time>2023-11-26T13:46:44.000Z</time>
      </trkpt>
      <trkpt lat="45.87336" lon="4.64052">
        <ele>236.16586</ele>
        <time>2023-11-26T13:46:45.000Z</time>
      </trkpt>
      <trkpt lat="45.87336" lon="4.64043">
        <ele>236.24307</ele>
        <time>2023-11-26T13:46:46.000Z</time>
      </trkpt>
      <trkpt lat="45.87337" lon="4.64034">
        <ele>236.35965</ele>
        <time>2023-11-26T13:46:47.000Z</time>
      </trkpt>
      <trkpt lat="45.87338" lon="4.64026">
        <ele>236.5101</ele>
        <time>2023-11-26T13:46:48.000Z</time>
      </trkpt>
      <trkpt lat="45.8734" lon="4.64019">
        <ele>236.68274</ele>
        <time>2023-11-26T13:46:49.000Z</time>
      </trkpt>
      <trkpt lat="45.87342" lon="4.64012">
        <ele>236.89877</ele>
        <time>2023-11-26T13:46:50.000Z</time>
      </trkpt>
      <trkpt lat="45.87344" lon="4.64006">
        <ele>237.09799</ele>
        <time>2023-11-26T13:46:51.000Z</time>
      </trkpt>
      <trkpt lat="45.87348" lon="4.64001">
        <ele>237.2948</ele>
        <time>2023-11-26T13:46:52.000Z</time>
      </trkpt>
      <trkpt lat="45.87351" lon="4.63995">
        <ele>237.32773</ele>
        <time>2023-11-26T13:46:53.000Z</time>
      </trkpt>
      <trkpt lat="45.87354" lon="4.63988">
        <ele>237.40706</ele>
        <time>2023-11-26T13:46:54.000Z</time>
      </trkpt>
      <trkpt lat="45.87357" lon="4.63982">
        <ele>237.60173</ele>
        <time>2023-11-26T13:46:55.000Z</time>
      </trkpt>
      <trkpt lat="45.87361" lon="4.63975">
        <ele>237.89998</ele>
        <time>2023-11-26T13:46:56.000Z</time>
      </trkpt>
      <trkpt lat="45.87365" lon="4.63971">
        <ele>238.2419</ele>
        <time>2023-11-26T13:46:57.000Z</time>
      </trkpt>
      <trkpt lat="45.87369" lon="4.63965">
        <ele>238.35925</ele>
        <time>2023-11-26T13:46:58.000Z</time>
      </trkpt>
      <trkpt lat="45.87374" lon="4.63958">
        <ele>238.56136</ele>
        <time>2023-11-26T13:46:59.000Z</time>
      </trkpt>
      <trkpt lat="45.87378" lon="4.63951">
        <ele>238.23543</ele>
        <time>2023-11-26T13:47:00.000Z</time>
      </trkpt>
      <trkpt lat="45.87383" lon="4.63946">
        <ele>238.326</ele>
        <time>2023-11-26T13:47:01.000Z</time>
      </trkpt>
      <trkpt lat="45.87389" lon="4.63942">
        <ele>238.45874</ele>
        <time>2023-11-26T13:47:02.000Z</time>
      </trkpt>
      <trkpt lat="45.87392" lon="4.63938">
        <ele>238.87491</ele>
        <time>2023-11-26T13:47:03.000Z</time>
      </trkpt>
      <trkpt lat="45.87397" lon="4.63935">
        <ele>239.24397</ele>
        <time>2023-11-26T13:47:04.000Z</time>
      </trkpt>
      <trkpt lat="45.87401" lon="4.63931">
        <ele>239.61389</ele>
        <time>2023-11-26T13:47:05.000Z</time>
      </trkpt>
      <trkpt lat="45.87404" lon="4.63926">
        <ele>240.01018</ele>
        <time>2023-11-26T13:47:06.000Z</time>
      </trkpt>
      <trkpt lat="45.87409" lon="4.63922">
        <ele>240.28394</ele>
        <time>2023-11-26T13:47:07.000Z</time>
      </trkpt>
      <trkpt lat="45.87413" lon="4.63917">
        <ele>240.55989</ele>
        <time>2023-11-26T13:47:08.000Z</time>
      </trkpt>
      <trkpt lat="45.87416" lon="4.63914">
        <ele>240.85269</ele>
        <time>2023-11-26T13:47:09.000Z</time>
      </trkpt>
      <trkpt lat="45.8742" lon="4.63909">
        <ele>241.69064</ele>
        <time>2023-11-26T13:47:10.000Z</time>
      </trkpt>
      <trkpt lat="45.87424" lon="4.63904">
        <ele>242.51492</ele>
        <time>2023-11-26T13:47:11.000Z</time>
      </trkpt>
      <trkpt lat="45.87429" lon="4.639">
        <ele>243.38855</ele>
        <time>2023-11-26T13:47:12.000Z</time>
      </trkpt>
      <trkpt lat="45.87433" lon="4.63895">
        <ele>244.20853</ele>
        <time>2023-11-26T13:47:13.000Z</time>
      </trkpt>
      <trkpt lat="45.87437" lon="4.6389">
        <ele>244.80652</ele>
        <time>2023-11-26T13:47:14.000Z</time>
      </trkpt>
      <trkpt lat="45.87441" lon="4.63884">
        <ele>244.38911</ele>
        <time>2023-11-26T13:47:15.000Z</time>
      </trkpt>
      <trkpt lat="45.87444" lon="4.6388">
        <ele>244.01147</ele>
        <time>2023-11-26T13:47:16.000Z</time>
      </trkpt>
      <trkpt lat="45.87447" lon="4.63875">
        <ele>243.81747</ele>
        <time>2023-11-26T13:47:17.000Z</time>
      </trkpt>
      <trkpt lat="45.87449" lon="4.63871">
        <ele>243.92159</ele>
        <time>2023-11-26T13:47:18.000Z</time>
      </trkpt>
      <trkpt lat="45.87451" lon="4.63864">
        <ele>243.92744</ele>
        <time>2023-11-26T13:47:19.000Z</time>
      </trkpt>
      <trkpt lat="45.87455" lon="4.63856">
        <ele>244.05447</ele>
        <time>2023-11-26T13:47:20.000Z</time>
      </trkpt>
      <trkpt lat="45.87459" lon="4.63849">
        <ele>243.96182</ele>
        <time>2023-11-26T13:47:21.000Z</time>
      </trkpt>
      <trkpt lat="45.87463" lon="4.63844">
        <ele>243.54666</ele>
        <time>2023-11-26T13:47:22.000Z</time>
      </trkpt>
      <trkpt lat="45.87467" lon="4.63838">
        <ele>242.77031</ele>
        <time>2023-11-26T13:47:23.000Z</time>
      </trkpt>
      <trkpt lat="45.87471" lon="4.63831">
        <ele>242.01334</ele>
        <time>2023-11-26T13:47:24.000Z</time>
      </trkpt>
      <trkpt lat="45.87476" lon="4.63825">
        <ele>242.13203</ele>
        <time>2023-11-26T13:47:25.000Z</time>
      </trkpt>
      <trkpt lat="45.87479" lon="4.63818">
        <ele>241.99924</ele>
        <time>2023-11-26T13:47:26.000Z</time>
      </trkpt>
      <trkpt lat="45.87483" lon="4.63813">
        <ele>241.88931</ele>
        <time>2023-11-26T13:47:27.000Z</time>
      </trkpt>
      <trkpt lat="45.87487" lon="4.63807">
        <ele>241.80704</ele>
        <time>2023-11-26T13:47:28.000Z</time>
      </trkpt>
      <trkpt lat="45.87489" lon="4.63802">
        <ele>241.66707</ele>
        <time>2023-11-26T13:47:29.000Z</time>
      </trkpt>
      <trkpt lat="45.87493" lon="4.63795">
        <ele>240.82947</ele>
        <time>2023-11-26T13:47:30.000Z</time>
      </trkpt>
      <trkpt lat="45.87496" lon="4.6379">
        <ele>239.91211</ele>
        <time>2023-11-26T13:47:31.000Z</time>
      </trkpt>
      <trkpt lat="45.875" lon="4.63784">
        <ele>239.28064</ele>
        <time>2023-11-26T13:47:32.000Z</time>
      </trkpt>
      <trkpt lat="45.87504" lon="4.63777">
        <ele>239.30913</ele>
        <time>2023-11-26T13:47:33.000Z</time>
      </trkpt>
      <trkpt lat="45.87509" lon="4.63769">
        <ele>239.61922</ele>
        <time>2023-11-26T13:47:34.000Z</time>
      </trkpt>
      <trkpt lat="45.87514" lon="4.63764">
        <ele>240.14212</ele>
        <time>2023-11-26T13:47:35.000Z</time>
      </trkpt>
      <trkpt lat="45.87518" lon="4.63759">
        <ele>240.63301</ele>
        <time>2023-11-26T13:47:36.000Z</time>
      </trkpt>
      <trkpt lat="45.87523" lon="4.63757">
        <ele>240.88269</ele>
        <time>2023-11-26T13:47:37.000Z</time>
      </trkpt>
      <trkpt lat="45.87527" lon="4.63754">
        <ele>241.35571</ele>
        <time>2023-11-26T13:47:38.000Z</time>
      </trkpt>
      <trkpt lat="45.87532" lon="4.63751">
        <ele>241.79988</ele>
        <time>2023-11-26T13:47:39.000Z</time>
      </trkpt>
      <trkpt lat="45.87536" lon="4.63748">
        <ele>242.23706</ele>
        <time>2023-11-26T13:47:40.000Z</time>
      </trkpt>
      <trkpt lat="45.87542" lon="4.63743">
        <ele>242.73897</ele>
        <time>2023-11-26T13:47:41.000Z</time>
      </trkpt>
      <trkpt lat="45.87548" lon="4.63739">
        <ele>243.23055</ele>
        <time>2023-11-26T13:47:42.000Z</time>
      </trkpt>
      <trkpt lat="45.87551" lon="4.63736">
        <ele>243.8497</ele>
        <time>2023-11-26T13:47:43.000Z</time>
      </trkpt>
      <trkpt lat="45.87555" lon="4.63733">
        <ele>244.53288</ele>
        <time>2023-11-26T13:47:44.000Z</time>
      </trkpt>
      <trkpt lat="45.87559" lon="4.6373">
        <ele>244.40718</ele>
        <time>2023-11-26T13:47:45.000Z</time>
      </trkpt>
      <trkpt lat="45.87564" lon="4.63728">
        <ele>244.48962</ele>
        <time>2023-11-26T13:47:46.000Z</time>
      </trkpt>
      <trkpt lat="45.87569" lon="4.63725">
        <ele>244.69295</ele>
        <time>2023-11-26T13:47:47.000Z</time>
      </trkpt>
      <trkpt lat="45.87574" lon="4.63722">
        <ele>244.81873</ele>
        <time>2023-11-26T13:47:48.000Z</time>
      </trkpt>
      <trkpt lat="45.8758" lon="4.63718">
        <ele>245.03812</ele>
        <time>2023-11-26T13:47:49.000Z</time>
      </trkpt>
      <trkpt lat="45.87586" lon="4.63715">
        <ele>245.408</ele>
        <time>2023-11-26T13:47:50.000Z</time>
      </trkpt>
      <trkpt lat="45.8759" lon="4.63712">
        <ele>246.01009</ele>
        <time>2023-11-26T13:47:51.000Z</time>
      </trkpt>
      <trkpt lat="45.87595" lon="4.63709">
        <ele>246.65732</ele>
        <time>2023-11-26T13:47:52.000Z</time>
      </trkpt>
      <trkpt lat="45.87601" lon="4.63708">
        <ele>246.82983</ele>
        <time>2023-11-26T13:47:53.000Z</time>
      </trkpt>
      <trkpt lat="45.87606" lon="4.63705">
        <ele>246.8331</ele>
        <time>2023-11-26T13:47:54.000Z</time>
      </trkpt>
      <trkpt lat="45.87611" lon="4.63704">
        <ele>247.84415</ele>
        <time>2023-11-26T13:47:55.000Z</time>
      </trkpt>
      <trkpt lat="45.87617" lon="4.63702">
        <ele>248.86816</ele>
        <time>2023-11-26T13:47:56.000Z</time>
      </trkpt>
      <trkpt lat="45.87623" lon="4.63701">
        <ele>249.20969</ele>
        <time>2023-11-26T13:47:57.000Z</time>
      </trkpt>
      <trkpt lat="45.8763" lon="4.63699">
        <ele>249.29294</ele>
        <time>2023-11-26T13:47:58.000Z</time>
      </trkpt>
      <trkpt lat="45.87634" lon="4.63695">
        <ele>249.4198</ele>
        <time>2023-11-26T13:47:59.000Z</time>
      </trkpt>
      <trkpt lat="45.87639" lon="4.63691">
        <ele>249.24463</ele>
        <time>2023-11-26T13:48:00.000Z</time>
      </trkpt>
      <trkpt lat="45.87642" lon="4.63689">
        <ele>248.80893</ele>
        <time>2023-11-26T13:48:01.000Z</time>
      </trkpt>
      <trkpt lat="45.87646" lon="4.63686">
        <ele>248.3743</ele>
        <time>2023-11-26T13:48:02.000Z</time>
      </trkpt>
      <trkpt lat="45.87649" lon="4.63683">
        <ele>247.94124</ele>
        <time>2023-11-26T13:48:03.000Z</time>
      </trkpt>
      <trkpt lat="45.87653" lon="4.63679">
        <ele>247.42798</ele>
        <time>2023-11-26T13:48:04.000Z</time>
      </trkpt>
      <trkpt lat="45.87657" lon="4.63675">
        <ele>247.75325</ele>
        <time>2023-11-26T13:48:05.000Z</time>
      </trkpt>
      <trkpt lat="45.87661" lon="4.63672">
        <ele>247.89685</ele>
        <time>2023-11-26T13:48:06.000Z</time>
      </trkpt>
      <trkpt lat="45.87665" lon="4.6367">
        <ele>247.99409</ele>
        <time>2023-11-26T13:48:07.000Z</time>
      </trkpt>
      <trkpt lat="45.8767" lon="4.63666">
        <ele>248.1904</ele>
        <time>2023-11-26T13:48:08.000Z</time>
      </trkpt>
      <trkpt lat="45.87674" lon="4.63661">
        <ele>248.18364</ele>
        <time>2023-11-26T13:48:09.000Z</time>
      </trkpt>
      <trkpt lat="45.87678" lon="4.63658">
        <ele>248.16824</ele>
        <time>2023-11-26T13:48:10.000Z</time>
      </trkpt>
      <trkpt lat="45.87683" lon="4.63653">
        <ele>248.02951</ele>
        <time>2023-11-26T13:48:11.000Z</time>
      </trkpt>
      <trkpt lat="45.87688" lon="4.63648">
        <ele>247.85513</ele>
        <time>2023-11-26T13:48:12.000Z</time>
      </trkpt>
      <trkpt lat="45.87693" lon="4.63643">
        <ele>248.05484</ele>
        <time>2023-11-26T13:48:13.000Z</time>
      </trkpt>
      <trkpt lat="45.87698" lon="4.63639">
        <ele>247.64059</ele>
        <time>2023-11-26T13:48:14.000Z</time>
      </trkpt>
      <trkpt lat="45.87702" lon="4.63634">
        <ele>247.17664</ele>
        <time>2023-11-26T13:48:15.000Z</time>
      </trkpt>
      <trkpt lat="45.87707" lon="4.63626">
        <ele>246.62578</ele>
        <time>2023-11-26T13:48:16.000Z</time>
      </trkpt>
      <trkpt lat="45.87711" lon="4.63619">
        <ele>246.83774</ele>
        <time>2023-11-26T13:48:17.000Z</time>
      </trkpt>
      <trkpt lat="45.87714" lon="4.63615">
        <ele>246.91833</ele>
        <time>2023-11-26T13:48:18.000Z</time>
      </trkpt>
      <trkpt lat="45.87716" lon="4.63608">
        <ele>246.95297</ele>
        <time>2023-11-26T13:48:19.000Z</time>
      </trkpt>
      <trkpt lat="45.87717" lon="4.63603">
        <ele>247.24773</ele>
        <time>2023-11-26T13:48:20.000Z</time>
      </trkpt>
      <trkpt lat="45.87719" lon="4.63594">
        <ele>247.98856</ele>
        <time>2023-11-26T13:48:21.000Z</time>
      </trkpt>
      <trkpt lat="45.87721" lon="4.63587">
        <ele>248.91544</ele>
        <time>2023-11-26T13:48:22.000Z</time>
      </trkpt>
      <trkpt lat="45.87725" lon="4.63582">
        <ele>250.04639</ele>
        <time>2023-11-26T13:48:23.000Z</time>
      </trkpt>
      <trkpt lat="45.87726" lon="4.6358">
        <ele>250.44714</ele>
        <time>2023-11-26T13:48:24.000Z</time>
      </trkpt>
      <trkpt lat="45.87726" lon="4.63575">
        <ele>250.91814</ele>
        <time>2023-11-26T13:48:25.000Z</time>
      </trkpt>
      <trkpt lat="45.87728" lon="4.63568">
        <ele>251.53995</ele>
        <time>2023-11-26T13:48:26.000Z</time>
      </trkpt>
      <trkpt lat="45.87731" lon="4.63559">
        <ele>252.17569</ele>
        <time>2023-11-26T13:48:27.000Z</time>
      </trkpt>
      <trkpt lat="45.87734" lon="4.63551">
        <ele>252.81755</ele>
        <time>2023-11-26T13:48:28.000Z</time>
      </trkpt>
      <trkpt lat="45.87738" lon="4.63545">
        <ele>253.58914</ele>
        <time>2023-11-26T13:48:29.000Z</time>
      </trkpt>
      <trkpt lat="45.87742" lon="4.63539">
        <ele>254.22029</ele>
        <time>2023-11-26T13:48:30.000Z</time>
      </trkpt>
      <trkpt lat="45.87745" lon="4.63536">
        <ele>254.85715</ele>
        <time>2023-11-26T13:48:31.000Z</time>
      </trkpt>
      <trkpt lat="45.87746" lon="4.63533">
        <ele>255.28593</ele>
        <time>2023-11-26T13:48:32.000Z</time>
      </trkpt>
      <trkpt lat="45.8775" lon="4.6353">
        <ele>255.51323</ele>
        <time>2023-11-26T13:48:34.000Z</time>
      </trkpt>
      <trkpt lat="45.87753" lon="4.63529">
        <ele>256.38519</ele>
        <time>2023-11-26T13:48:36.000Z</time>
      </trkpt>
      <trkpt lat="45.87756" lon="4.6353">
        <ele>257.26395</ele>
        <time>2023-11-26T13:48:37.000Z</time>
      </trkpt>
      <trkpt lat="45.87759" lon="4.6353">
        <ele>258.27036</ele>
        <time>2023-11-26T13:48:38.000Z</time>
      </trkpt>
      <trkpt lat="45.87763" lon="4.6353">
        <ele>259.17041</ele>
        <time>2023-11-26T13:48:39.000Z</time>
      </trkpt>
      <trkpt lat="45.87767" lon="4.63531">
        <ele>259.32294</ele>
        <time>2023-11-26T13:48:40.000Z</time>
      </trkpt>
      <trkpt lat="45.87771" lon="4.63532">
        <ele>259.53928</ele>
        <time>2023-11-26T13:48:41.000Z</time>
      </trkpt>
      <trkpt lat="45.87774" lon="4.63533">
        <ele>259.62372</ele>
        <time>2023-11-26T13:48:42.000Z</time>
      </trkpt>
      <trkpt lat="45.87778" lon="4.63533">
        <ele>259.22546</ele>
        <time>2023-11-26T13:48:43.000Z</time>
      </trkpt>
      <trkpt lat="45.8778" lon="4.63534">
        <ele>258.97659</ele>
        <time>2023-11-26T13:48:44.000Z</time>
      </trkpt>
      <trkpt lat="45.87783" lon="4.63535">
        <ele>258.40024</ele>
        <time>2023-11-26T13:48:45.000Z</time>
      </trkpt>
      <trkpt lat="45.87786" lon="4.63537">
        <ele>258.43036</ele>
        <time>2023-11-26T13:48:46.000Z</time>
      </trkpt>
      <trkpt lat="45.8779" lon="4.63539">
        <ele>258.59708</ele>
        <time>2023-11-26T13:48:47.000Z</time>
      </trkpt>
      <trkpt lat="45.87794" lon="4.6354">
        <ele>258.61493</ele>
        <time>2023-11-26T13:48:48.000Z</time>
      </trkpt>
      <trkpt lat="45.87798" lon="4.63542">
        <ele>258.53479</ele>
        <time>2023-11-26T13:48:49.000Z</time>
      </trkpt>
      <trkpt lat="45.87802" lon="4.63544">
        <ele>258.2887</ele>
        <time>2023-11-26T13:48:50.000Z</time>
      </trkpt>
      <trkpt lat="45.87805" lon="4.63545">
        <ele>258.0853</ele>
        <time>2023-11-26T13:48:51.000Z</time>
      </trkpt>
      <trkpt lat="45.87808" lon="4.63547">
        <ele>258.17365</ele>
        <time>2023-11-26T13:48:52.000Z</time>
      </trkpt>
      <trkpt lat="45.87811" lon="4.63548">
        <ele>258.17584</ele>
        <time>2023-11-26T13:48:53.000Z</time>
      </trkpt>
      <trkpt lat="45.87815" lon="4.6355">
        <ele>258.05173</ele>
        <time>2023-11-26T13:48:54.000Z</time>
      </trkpt>
      <trkpt lat="45.87819" lon="4.63552">
        <ele>258.03952</ele>
        <time>2023-11-26T13:48:55.000Z</time>
      </trkpt>
      <trkpt lat="45.87824" lon="4.63553">
        <ele>257.94037</ele>
        <time>2023-11-26T13:48:56.000Z</time>
      </trkpt>
      <trkpt lat="45.87828" lon="4.63555">
        <ele>256.78848</ele>
        <time>2023-11-26T13:48:57.000Z</time>
      </trkpt>
      <trkpt lat="45.87832" lon="4.63556">
        <ele>255.61072</ele>
        <time>2023-11-26T13:48:58.000Z</time>
      </trkpt>
      <trkpt lat="45.87836" lon="4.63557">
        <ele>254.45364</ele>
        <time>2023-11-26T13:48:59.000Z</time>
      </trkpt>
      <trkpt lat="45.87841" lon="4.63558">
        <ele>253.94498</ele>
        <time>2023-11-26T13:49:00.000Z</time>
      </trkpt>
      <trkpt lat="45.87845" lon="4.63558">
        <ele>253.37407</ele>
        <time>2023-11-26T13:49:01.000Z</time>
      </trkpt>
      <trkpt lat="45.8785" lon="4.63558">
        <ele>253.34717</ele>
        <time>2023-11-26T13:49:02.000Z</time>
      </trkpt>
      <trkpt lat="45.87854" lon="4.63557">
        <ele>253.60806</ele>
        <time>2023-11-26T13:49:03.000Z</time>
      </trkpt>
      <trkpt lat="45.87859" lon="4.63557">
        <ele>252.92024</ele>
        <time>2023-11-26T13:49:04.000Z</time>
      </trkpt>
      <trkpt lat="45.87863" lon="4.63556">
        <ele>252.37569</ele>
        <time>2023-11-26T13:49:05.000Z</time>
      </trkpt>
      <trkpt lat="45.87866" lon="4.63556">
        <ele>251.89925</ele>
        <time>2023-11-26T13:49:06.000Z</time>
      </trkpt>
      <trkpt lat="45.87869" lon="4.63555">
        <ele>251.16092</ele>
        <time>2023-11-26T13:49:07.000Z</time>
      </trkpt>
      <trkpt lat="45.87873" lon="4.63555">
        <ele>250.56921</ele>
        <time>2023-11-26T13:49:08.000Z</time>
      </trkpt>
      <trkpt lat="45.87876" lon="4.63556">
        <ele>249.85945</ele>
        <time>2023-11-26T13:49:09.000Z</time>
      </trkpt>
      <trkpt lat="45.8788" lon="4.63556">
        <ele>249.37956</ele>
        <time>2023-11-26T13:49:10.000Z</time>
      </trkpt>
      <trkpt lat="45.87884" lon="4.63556">
        <ele>248.91287</ele>
        <time>2023-11-26T13:49:11.000Z</time>
      </trkpt>
      <trkpt lat="45.87887" lon="4.63556">
        <ele>248.69792</ele>
        <time>2023-11-26T13:49:12.000Z</time>
      </trkpt>
      <trkpt lat="45.8789" lon="4.63557">
        <ele>248.87045</ele>
        <time>2023-11-26T13:49:13.000Z</time>
      </trkpt>
      <trkpt lat="45.87894" lon="4.63558">
        <ele>249.08687</ele>
        <time>2023-11-26T13:49:14.000Z</time>
      </trkpt>
      <trkpt lat="45.87898" lon="4.63559">
        <ele>248.29514</ele>
        <time>2023-11-26T13:49:15.000Z</time>
      </trkpt>
      <trkpt lat="45.87902" lon="4.63559">
        <ele>247.76997</ele>
        <time>2023-11-26T13:49:16.000Z</time>
      </trkpt>
      <trkpt lat="45.87907" lon="4.6356">
        <ele>247.92783</ele>
        <time>2023-11-26T13:49:17.000Z</time>
      </trkpt>
      <trkpt lat="45.87911" lon="4.6356">
        <ele>247.69156</ele>
        <time>2023-11-26T13:49:18.000Z</time>
      </trkpt>
      <trkpt lat="45.87915" lon="4.63559">
        <ele>247.44112</ele>
        <time>2023-11-26T13:49:19.000Z</time>
      </trkpt>
      <trkpt lat="45.87918" lon="4.63558">
        <ele>247.4252</ele>
        <time>2023-11-26T13:49:20.000Z</time>
      </trkpt>
      <trkpt lat="45.87922" lon="4.63557">
        <ele>247.46182</ele>
        <time>2023-11-26T13:49:21.000Z</time>
      </trkpt>
      <trkpt lat="45.87926" lon="4.63556">
        <ele>247.41537</ele>
        <time>2023-11-26T13:49:22.000Z</time>
      </trkpt>
      <trkpt lat="45.87931" lon="4.63556">
        <ele>247.30374</ele>
        <time>2023-11-26T13:49:23.000Z</time>
      </trkpt>
      <trkpt lat="45.87935" lon="4.63556">
        <ele>247.16483</ele>
        <time>2023-11-26T13:49:24.000Z</time>
      </trkpt>
      <trkpt lat="45.87939" lon="4.63556">
        <ele>246.99202</ele>
        <time>2023-11-26T13:49:25.000Z</time>
      </trkpt>
      <trkpt lat="45.87943" lon="4.63556">
        <ele>246.957</ele>
        <time>2023-11-26T13:49:26.000Z</time>
      </trkpt>
      <trkpt lat="45.87947" lon="4.63554">
        <ele>246.79903</ele>
        <time>2023-11-26T13:49:27.000Z</time>
      </trkpt>
      <trkpt lat="45.87951" lon="4.63551">
        <ele>246.55168</ele>
        <time>2023-11-26T13:49:28.000Z</time>
      </trkpt>
      <trkpt lat="45.87955" lon="4.63549">
        <ele>246.43149</ele>
        <time>2023-11-26T13:49:29.000Z</time>
      </trkpt>
      <trkpt lat="45.87959" lon="4.63548">
        <ele>246.53091</ele>
        <time>2023-11-26T13:49:30.000Z</time>
      </trkpt>
      <trkpt lat="45.87964" lon="4.63547">
        <ele>246.58891</ele>
        <time>2023-11-26T13:49:31.000Z</time>
      </trkpt>
      <trkpt lat="45.87969" lon="4.63546">
        <ele>246.19958</ele>
        <time>2023-11-26T13:49:32.000Z</time>
      </trkpt>
      <trkpt lat="45.87973" lon="4.63545">
        <ele>245.45117</ele>
        <time>2023-11-26T13:49:33.000Z</time>
      </trkpt>
      <trkpt lat="45.87978" lon="4.63544">
        <ele>244.6398</ele>
        <time>2023-11-26T13:49:34.000Z</time>
      </trkpt>
      <trkpt lat="45.87981" lon="4.63543">
        <ele>243.01193</ele>
        <time>2023-11-26T13:49:35.000Z</time>
      </trkpt>
      <trkpt lat="45.87983" lon="4.63541">
        <ele>242.6132</ele>
        <time>2023-11-26T13:49:36.000Z</time>
      </trkpt>
      <trkpt lat="45.87986" lon="4.63538">
        <ele>240.82751</ele>
        <time>2023-11-26T13:49:37.000Z</time>
      </trkpt>
      <trkpt lat="45.87989" lon="4.63535">
        <ele>239.27103</ele>
        <time>2023-11-26T13:49:38.000Z</time>
      </trkpt>
      <trkpt lat="45.87993" lon="4.63532">
        <ele>237.75557</ele>
        <time>2023-11-26T13:49:39.000Z</time>
      </trkpt>
      <trkpt lat="45.87996" lon="4.6353">
        <ele>236.16911</ele>
        <time>2023-11-26T13:49:40.000Z</time>
      </trkpt>
      <trkpt lat="45.87999" lon="4.63527">
        <ele>234.67923</ele>
        <time>2023-11-26T13:49:41.000Z</time>
      </trkpt>
      <trkpt lat="45.88002" lon="4.63523">
        <ele>232.82185</ele>
        <time>2023-11-26T13:49:42.000Z</time>
      </trkpt>
      <trkpt lat="45.88005" lon="4.6352">
        <ele>230.77026</ele>
        <time>2023-11-26T13:49:43.000Z</time>
      </trkpt>
      <trkpt lat="45.88008" lon="4.63517">
        <ele>229.46057</ele>
        <time>2023-11-26T13:49:44.000Z</time>
      </trkpt>
      <trkpt lat="45.88011" lon="4.63514">
        <ele>228.11186</ele>
        <time>2023-11-26T13:49:45.000Z</time>
      </trkpt>
      <trkpt lat="45.88014" lon="4.63511">
        <ele>226.64182</ele>
        <time>2023-11-26T13:49:46.000Z</time>
      </trkpt>
      <trkpt lat="45.88018" lon="4.63507">
        <ele>225.23723</ele>
        <time>2023-11-26T13:49:47.000Z</time>
      </trkpt>
      <trkpt lat="45.88022" lon="4.63504">
        <ele>223.81351</ele>
        <time>2023-11-26T13:49:48.000Z</time>
      </trkpt>
      <trkpt lat="45.88026" lon="4.63501">
        <ele>222.44058</ele>
        <time>2023-11-26T13:49:49.000Z</time>
      </trkpt>
      <trkpt lat="45.8803" lon="4.63499">
        <ele>220.73262</ele>
        <time>2023-11-26T13:49:50.000Z</time>
      </trkpt>
      <trkpt lat="45.88034" lon="4.63497">
        <ele>219.0218</ele>
        <time>2023-11-26T13:49:51.000Z</time>
      </trkpt>
      <trkpt lat="45.88038" lon="4.63496">
        <ele>217.27522</ele>
        <time>2023-11-26T13:49:52.000Z</time>
      </trkpt>
      <trkpt lat="45.88043" lon="4.6349">
        <ele>215.57246</ele>
        <time>2023-11-26T13:49:53.000Z</time>
      </trkpt>
      <trkpt lat="45.88047" lon="4.63486">
        <ele>213.93025</ele>
        <time>2023-11-26T13:49:54.000Z</time>
      </trkpt>
      <trkpt lat="45.88051" lon="4.63482">
        <ele>213.84502</ele>
        <time>2023-11-26T13:49:55.000Z</time>
      </trkpt>
      <trkpt lat="45.88053" lon="4.6348">
        <ele>212.37961</ele>
        <time>2023-11-26T13:49:56.000Z</time>
      </trkpt>
      <trkpt lat="45.88056" lon="4.63478">
        <ele>212.38948</ele>
        <time>2023-11-26T13:49:57.000Z</time>
      </trkpt>
      <trkpt lat="45.8806" lon="4.63474">
        <ele>212.47131</ele>
        <time>2023-11-26T13:49:58.000Z</time>
      </trkpt>
      <trkpt lat="45.88062" lon="4.63471">
        <ele>212.55598</ele>
        <time>2023-11-26T13:49:59.000Z</time>
      </trkpt>
      <trkpt lat="45.88062" lon="4.63467">
        <ele>212.64954</ele>
        <time>2023-11-26T13:50:00.000Z</time>
      </trkpt>
      <trkpt lat="45.88064" lon="4.63465">
        <ele>212.69962</ele>
        <time>2023-11-26T13:50:01.000Z</time>
      </trkpt>
      <trkpt lat="45.88067" lon="4.63461">
        <ele>212.73262</ele>
        <time>2023-11-26T13:50:02.000Z</time>
      </trkpt>
      <trkpt lat="45.8807" lon="4.63455">
        <ele>212.76724</ele>
        <time>2023-11-26T13:50:03.000Z</time>
      </trkpt>
      <trkpt lat="45.88073" lon="4.63449">
        <ele>212.83511</ele>
        <time>2023-11-26T13:50:04.000Z</time>
      </trkpt>
      <trkpt lat="45.88076" lon="4.63443">
        <ele>212.91634</ele>
        <time>2023-11-26T13:50:05.000Z</time>
      </trkpt>
      <trkpt lat="45.88078" lon="4.63438">
        <ele>213.02609</ele>
        <time>2023-11-26T13:50:06.000Z</time>
      </trkpt>
      <trkpt lat="45.88082" lon="4.6343">
        <ele>213.13528</ele>
        <time>2023-11-26T13:50:07.000Z</time>
      </trkpt>
      <trkpt lat="45.88082" lon="4.63426">
        <ele>213.25308</ele>
        <time>2023-11-26T13:50:08.000Z</time>
      </trkpt>
      <trkpt lat="45.88084" lon="4.63422">
        <ele>213.33691</ele>
        <time>2023-11-26T13:50:09.000Z</time>
      </trkpt>
      <trkpt lat="45.88082" lon="4.63418">
        <ele>213.39536</ele>
        <time>2023-11-26T13:50:10.000Z</time>
      </trkpt>
      <trkpt lat="45.88083" lon="4.63414">
        <ele>213.51595</ele>
        <time>2023-11-26T13:50:12.000Z</time>
      </trkpt>
      <trkpt lat="45.88083" lon="4.63409">
        <ele>213.63701</ele>
        <time>2023-11-26T13:50:14.000Z</time>
      </trkpt>
      <trkpt lat="45.88083" lon="4.63406">
        <ele>213.72409</ele>
        <time>2023-11-26T13:50:15.000Z</time>
      </trkpt>
      <trkpt lat="45.88084" lon="4.63403">
        <ele>213.81258</ele>
        <time>2023-11-26T13:50:17.000Z</time>
      </trkpt>
      <trkpt lat="45.88085" lon="4.634">
        <ele>213.89738</ele>
        <time>2023-11-26T13:50:18.000Z</time>
      </trkpt>
      <trkpt lat="45.88086" lon="4.63396">
        <ele>213.95847</ele>
        <time>2023-11-26T13:50:19.000Z</time>
      </trkpt>
      <trkpt lat="45.88086" lon="4.63393">
        <ele>214.02966</ele>
        <time>2023-11-26T13:50:20.000Z</time>
      </trkpt>
      <trkpt lat="45.88086" lon="4.6339">
        <ele>214.06384</ele>
        <time>2023-11-26T13:50:21.000Z</time>
      </trkpt>
      <trkpt lat="45.88086" lon="4.63387">
        <ele>214.06369</ele>
        <time>2023-11-26T13:50:22.000Z</time>
      </trkpt>
      <trkpt lat="45.88087" lon="4.63382">
        <ele>214.05115</ele>
        <time>2023-11-26T13:50:23.000Z</time>
      </trkpt>
      <trkpt lat="45.88089" lon="4.63378">
        <ele>214.02844</ele>
        <time>2023-11-26T13:50:24.000Z</time>
      </trkpt>
      <trkpt lat="45.88091" lon="4.63373">
        <ele>214.04427</ele>
        <time>2023-11-26T13:50:25.000Z</time>
      </trkpt>
      <trkpt lat="45.88093" lon="4.63369">
        <ele>214.05159</ele>
        <time>2023-11-26T13:50:26.000Z</time>
      </trkpt>
      <trkpt lat="45.88095" lon="4.63364">
        <ele>214.09761</ele>
        <time>2023-11-26T13:50:27.000Z</time>
      </trkpt>
      <trkpt lat="45.88097" lon="4.63358">
        <ele>214.10078</ele>
        <time>2023-11-26T13:50:28.000Z</time>
      </trkpt>
      <trkpt lat="45.88098" lon="4.63352">
        <ele>214.12227</ele>
        <time>2023-11-26T13:50:29.000Z</time>
      </trkpt>
      <trkpt lat="45.881" lon="4.63346">
        <ele>214.14897</ele>
        <time>2023-11-26T13:50:30.000Z</time>
      </trkpt>
      <trkpt lat="45.88102" lon="4.6334">
        <ele>214.15402</ele>
        <time>2023-11-26T13:50:31.000Z</time>
      </trkpt>
      <trkpt lat="45.88102" lon="4.63334">
        <ele>214.15666</ele>
        <time>2023-11-26T13:50:32.000Z</time>
      </trkpt>
      <trkpt lat="45.88103" lon="4.63328">
        <ele>214.15506</ele>
        <time>2023-11-26T13:50:33.000Z</time>
      </trkpt>
      <trkpt lat="45.88104" lon="4.63323">
        <ele>214.1073</ele>
        <time>2023-11-26T13:50:34.000Z</time>
      </trkpt>
      <trkpt lat="45.88105" lon="4.63317">
        <ele>214.12263</ele>
        <time>2023-11-26T13:50:35.000Z</time>
      </trkpt>
      <trkpt lat="45.88106" lon="4.63312">
        <ele>214.15198</ele>
        <time>2023-11-26T13:50:36.000Z</time>
      </trkpt>
      <trkpt lat="45.88108" lon="4.63308">
        <ele>214.17496</ele>
        <time>2023-11-26T13:50:37.000Z</time>
      </trkpt>
      <trkpt lat="45.88109" lon="4.63304">
        <ele>214.21985</ele>
        <time>2023-11-26T13:50:38.000Z</time>
      </trkpt>
      <trkpt lat="45.8811" lon="4.63299">
        <ele>214.23706</ele>
        <time>2023-11-26T13:50:39.000Z</time>
      </trkpt>
      <trkpt lat="45.8811" lon="4.63296">
        <ele>214.27307</ele>
        <time>2023-11-26T13:50:40.000Z</time>
      </trkpt>
      <trkpt lat="45.88109" lon="4.63292">
        <ele>214.3156</ele>
        <time>2023-11-26T13:50:41.000Z</time>
      </trkpt>
      <trkpt lat="45.88108" lon="4.63288">
        <ele>214.38008</ele>
        <time>2023-11-26T13:50:42.000Z</time>
      </trkpt>
      <trkpt lat="45.88107" lon="4.63284">
        <ele>214.46419</ele>
        <time>2023-11-26T13:50:43.000Z</time>
      </trkpt>
      <trkpt lat="45.88107" lon="4.63281">
        <ele>214.5498</ele>
        <time>2023-11-26T13:50:44.000Z</time>
      </trkpt>
      <trkpt lat="45.88106" lon="4.63277">
        <ele>214.62366</ele>
        <time>2023-11-26T13:50:45.000Z</time>
      </trkpt>
      <trkpt lat="45.88105" lon="4.63274">
        <ele>214.68265</ele>
        <time>2023-11-26T13:50:46.000Z</time>
      </trkpt>
      <trkpt lat="45.88104" lon="4.63271">
        <ele>214.67545</ele>
        <time>2023-11-26T13:50:47.000Z</time>
      </trkpt>
      <trkpt lat="45.88103" lon="4.63268">
        <ele>214.70114</ele>
        <time>2023-11-26T13:50:48.000Z</time>
      </trkpt>
      <trkpt lat="45.88102" lon="4.63264">
        <ele>214.72612</ele>
        <time>2023-11-26T13:50:49.000Z</time>
      </trkpt>
      <trkpt lat="45.88102" lon="4.63259">
        <ele>214.74451</ele>
        <time>2023-11-26T13:50:50.000Z</time>
      </trkpt>
      <trkpt lat="45.88102" lon="4.63255">
        <ele>214.83347</ele>
        <time>2023-11-26T13:50:51.000Z</time>
      </trkpt>
      <trkpt lat="45.88102" lon="4.6325">
        <ele>214.91904</ele>
        <time>2023-11-26T13:50:52.000Z</time>
      </trkpt>
      <trkpt lat="45.88101" lon="4.63245">
        <ele>215.02327</ele>
        <time>2023-11-26T13:50:53.000Z</time>
      </trkpt>
      <trkpt lat="45.88101" lon="4.6324">
        <ele>215.1147</ele>
        <time>2023-11-26T13:50:54.000Z</time>
      </trkpt>
      <trkpt lat="45.881" lon="4.63235">
        <ele>215.16373</ele>
        <time>2023-11-26T13:50:55.000Z</time>
      </trkpt>
      <trkpt lat="45.881" lon="4.6323">
        <ele>215.21326</ele>
        <time>2023-11-26T13:50:56.000Z</time>
      </trkpt>
      <trkpt lat="45.881" lon="4.63224">
        <ele>215.26566</ele>
        <time>2023-11-26T13:50:57.000Z</time>
      </trkpt>
      <trkpt lat="45.881" lon="4.63219">
        <ele>215.24915</ele>
        <time>2023-11-26T13:50:58.000Z</time>
      </trkpt>
      <trkpt lat="45.881" lon="4.63214">
        <ele>215.27689</ele>
        <time>2023-11-26T13:50:59.000Z</time>
      </trkpt>
      <trkpt lat="45.88099" lon="4.63209">
        <ele>215.29407</ele>
        <time>2023-11-26T13:51:00.000Z</time>
      </trkpt>
      <trkpt lat="45.88099" lon="4.63205">
        <ele>215.29875</ele>
        <time>2023-11-26T13:51:01.000Z</time>
      </trkpt>
      <trkpt lat="45.88099" lon="4.63199">
        <ele>215.25247</ele>
        <time>2023-11-26T13:51:02.000Z</time>
      </trkpt>
      <trkpt lat="45.88099" lon="4.63194">
        <ele>215.15891</ele>
        <time>2023-11-26T13:51:03.000Z</time>
      </trkpt>
      <trkpt lat="45.88098" lon="4.63188">
        <ele>215.0699</ele>
        <time>2023-11-26T13:51:04.000Z</time>
      </trkpt>
      <trkpt lat="45.88098" lon="4.63183">
        <ele>214.99821</ele>
        <time>2023-11-26T13:51:05.000Z</time>
      </trkpt>
      <trkpt lat="45.88098" lon="4.63177">
        <ele>214.93806</ele>
        <time>2023-11-26T13:51:06.000Z</time>
      </trkpt>
      <trkpt lat="45.88098" lon="4.63171">
        <ele>214.89925</ele>
        <time>2023-11-26T13:51:07.000Z</time>
      </trkpt>
      <trkpt lat="45.88097" lon="4.63166">
        <ele>214.84927</ele>
        <time>2023-11-26T13:51:08.000Z</time>
      </trkpt>
      <trkpt lat="45.88096" lon="4.6316">
        <ele>214.80881</ele>
        <time>2023-11-26T13:51:09.000Z</time>
      </trkpt>
      <trkpt lat="45.88096" lon="4.63155">
        <ele>214.75601</ele>
        <time>2023-11-26T13:51:10.000Z</time>
      </trkpt>
      <trkpt lat="45.88095" lon="4.63149">
        <ele>214.6989</ele>
        <time>2023-11-26T13:51:11.000Z</time>
      </trkpt>
      <trkpt lat="45.88094" lon="4.63144">
        <ele>214.62952</ele>
        <time>2023-11-26T13:51:12.000Z</time>
      </trkpt>
      <trkpt lat="45.88093" lon="4.63139">
        <ele>214.54184</ele>
        <time>2023-11-26T13:51:13.000Z</time>
      </trkpt>
      <trkpt lat="45.88092" lon="4.63134">
        <ele>214.47493</ele>
        <time>2023-11-26T13:51:14.000Z</time>
      </trkpt>
      <trkpt lat="45.88091" lon="4.6313">
        <ele>214.42903</ele>
        <time>2023-11-26T13:51:15.000Z</time>
      </trkpt>
      <trkpt lat="45.8809" lon="4.63126">
        <ele>214.38107</ele>
        <time>2023-11-26T13:51:16.000Z</time>
      </trkpt>
      <trkpt lat="45.88089" lon="4.63121">
        <ele>214.32671</ele>
        <time>2023-11-26T13:51:17.000Z</time>
      </trkpt>
      <trkpt lat="45.88089" lon="4.63117">
        <ele>214.33257</ele>
        <time>2023-11-26T13:51:18.000Z</time>
      </trkpt>
      <trkpt lat="45.88087" lon="4.63112">
        <ele>214.32014</ele>
        <time>2023-11-26T13:51:19.000Z</time>
      </trkpt>
      <trkpt lat="45.88086" lon="4.63108">
        <ele>214.28511</ele>
        <time>2023-11-26T13:51:20.000Z</time>
      </trkpt>
      <trkpt lat="45.88084" lon="4.63103">
        <ele>214.24429</ele>
        <time>2023-11-26T13:51:21.000Z</time>
      </trkpt>
      <trkpt lat="45.88083" lon="4.63099">
        <ele>214.26155</ele>
        <time>2023-11-26T13:51:22.000Z</time>
      </trkpt>
      <trkpt lat="45.88081" lon="4.63095">
        <ele>214.32597</ele>
        <time>2023-11-26T13:51:23.000Z</time>
      </trkpt>
      <trkpt lat="45.88079" lon="4.6309">
        <ele>214.39682</ele>
        <time>2023-11-26T13:51:24.000Z</time>
      </trkpt>
      <trkpt lat="45.88077" lon="4.63086">
        <ele>214.45659</ele>
        <time>2023-11-26T13:51:25.000Z</time>
      </trkpt>
      <trkpt lat="45.88076" lon="4.63082">
        <ele>214.49487</ele>
        <time>2023-11-26T13:51:26.000Z</time>
      </trkpt>
      <trkpt lat="45.88074" lon="4.63077">
        <ele>214.54663</ele>
        <time>2023-11-26T13:51:27.000Z</time>
      </trkpt>
      <trkpt lat="45.88073" lon="4.63073">
        <ele>214.59871</ele>
        <time>2023-11-26T13:51:28.000Z</time>
      </trkpt>
      <trkpt lat="45.88071" lon="4.63068">
        <ele>214.65182</ele>
        <time>2023-11-26T13:51:29.000Z</time>
      </trkpt>
      <trkpt lat="45.8807" lon="4.63063">
        <ele>214.66826</ele>
        <time>2023-11-26T13:51:30.000Z</time>
      </trkpt>
      <trkpt lat="45.88068" lon="4.63059">
        <ele>214.68692</ele>
        <time>2023-11-26T13:51:31.000Z</time>
      </trkpt>
      <trkpt lat="45.88067" lon="4.63054">
        <ele>214.72945</ele>
        <time>2023-11-26T13:51:32.000Z</time>
      </trkpt>
      <trkpt lat="45.88066" lon="4.63049">
        <ele>214.80753</ele>
        <time>2023-11-26T13:51:33.000Z</time>
      </trkpt>
      <trkpt lat="45.88064" lon="4.63043">
        <ele>214.85452</ele>
        <time>2023-11-26T13:51:34.000Z</time>
      </trkpt>
      <trkpt lat="45.88063" lon="4.63038">
        <ele>214.92545</ele>
        <time>2023-11-26T13:51:35.000Z</time>
      </trkpt>
      <trkpt lat="45.88062" lon="4.63033">
        <ele>215.00076</ele>
        <time>2023-11-26T13:51:36.000Z</time>
      </trkpt>
      <trkpt lat="45.88061" lon="4.63027">
        <ele>215.08435</ele>
        <time>2023-11-26T13:51:37.000Z</time>
      </trkpt>
      <trkpt lat="45.8806" lon="4.63021">
        <ele>215.13611</ele>
        <time>2023-11-26T13:51:38.000Z</time>
      </trkpt>
      <trkpt lat="45.88059" lon="4.63016">
        <ele>215.16357</ele>
        <time>2023-11-26T13:51:39.000Z</time>
      </trkpt>
      <trkpt lat="45.88058" lon="4.6301">
        <ele>215.21616</ele>
        <time>2023-11-26T13:51:40.000Z</time>
      </trkpt>
      <trkpt lat="45.88057" lon="4.63004">
        <ele>215.33691</ele>
        <time>2023-11-26T13:51:41.000Z</time>
      </trkpt>
      <trkpt lat="45.88057" lon="4.62998">
        <ele>215.43819</ele>
        <time>2023-11-26T13:51:42.000Z</time>
      </trkpt>
      <trkpt lat="45.88057" lon="4.62992">
        <ele>215.56192</ele>
        <time>2023-11-26T13:51:43.000Z</time>
      </trkpt>
      <trkpt lat="45.88058" lon="4.62987">
        <ele>215.65837</ele>
        <time>2023-11-26T13:51:44.000Z</time>
      </trkpt>
      <trkpt lat="45.88059" lon="4.62982">
        <ele>215.78589</ele>
        <time>2023-11-26T13:51:45.000Z</time>
      </trkpt>
      <trkpt lat="45.88061" lon="4.62978">
        <ele>215.95786</ele>
        <time>2023-11-26T13:51:46.000Z</time>
      </trkpt>
      <trkpt lat="45.88064" lon="4.62975">
        <ele>216.14351</ele>
        <time>2023-11-26T13:51:47.000Z</time>
      </trkpt>
      <trkpt lat="45.88067" lon="4.62974">
        <ele>216.33354</ele>
        <time>2023-11-26T13:51:48.000Z</time>
      </trkpt>
      <trkpt lat="45.8807" lon="4.62974">
        <ele>216.51456</ele>
        <time>2023-11-26T13:51:49.000Z</time>
      </trkpt>
      <trkpt lat="45.88074" lon="4.62974">
        <ele>216.7321</ele>
        <time>2023-11-26T13:51:50.000Z</time>
      </trkpt>
      <trkpt lat="45.88077" lon="4.62974">
        <ele>216.93584</ele>
        <time>2023-11-26T13:51:51.000Z</time>
      </trkpt>
      <trkpt lat="45.88081" lon="4.62975">
        <ele>217.13416</ele>
        <time>2023-11-26T13:51:52.000Z</time>
      </trkpt>
      <trkpt lat="45.88085" lon="4.62975">
        <ele>217.30661</ele>
        <time>2023-11-26T13:51:53.000Z</time>
      </trkpt>
      <trkpt lat="45.88088" lon="4.62976">
        <ele>217.49536</ele>
        <time>2023-11-26T13:51:54.000Z</time>
      </trkpt>
      <trkpt lat="45.88091" lon="4.62977">
        <ele>217.6543</ele>
        <time>2023-11-26T13:51:55.000Z</time>
      </trkpt>
      <trkpt lat="45.88095" lon="4.62978">
        <ele>217.76511</ele>
        <time>2023-11-26T13:51:56.000Z</time>
      </trkpt>
      <trkpt lat="45.88098" lon="4.62979">
        <ele>217.86748</ele>
        <time>2023-11-26T13:51:57.000Z</time>
      </trkpt>
      <trkpt lat="45.881" lon="4.62979">
        <ele>218.00542</ele>
        <time>2023-11-26T13:51:58.000Z</time>
      </trkpt>
      <trkpt lat="45.88102" lon="4.6298">
        <ele>218.17822</ele>
        <time>2023-11-26T13:51:59.000Z</time>
      </trkpt>
      <trkpt lat="45.88105" lon="4.62981">
        <ele>218.34949</ele>
        <time>2023-11-26T13:52:00.000Z</time>
      </trkpt>
      <trkpt lat="45.88109" lon="4.62982">
        <ele>218.43159</ele>
        <time>2023-11-26T13:52:01.000Z</time>
      </trkpt>
      <trkpt lat="45.88115" lon="4.62983">
        <ele>218.52451</ele>
        <time>2023-11-26T13:52:02.000Z</time>
      </trkpt>
      <trkpt lat="45.8812" lon="4.62985">
        <ele>218.59952</ele>
        <time>2023-11-26T13:52:03.000Z</time>
      </trkpt>
      <trkpt lat="45.88127" lon="4.62987">
        <ele>218.63113</ele>
        <time>2023-11-26T13:52:04.000Z</time>
      </trkpt>
      <trkpt lat="45.88132" lon="4.6299">
        <ele>218.59055</ele>
        <time>2023-11-26T13:52:05.000Z</time>
      </trkpt>
      <trkpt lat="45.88137" lon="4.62991">
        <ele>218.52718</ele>
        <time>2023-11-26T13:52:06.000Z</time>
      </trkpt>
      <trkpt lat="45.88142" lon="4.62993">
        <ele>218.43311</ele>
        <time>2023-11-26T13:52:07.000Z</time>
      </trkpt>
      <trkpt lat="45.88148" lon="4.62996">
        <ele>218.28781</ele>
        <time>2023-11-26T13:52:08.000Z</time>
      </trkpt>
      <trkpt lat="45.88152" lon="4.62997">
        <ele>218.14285</ele>
        <time>2023-11-26T13:52:09.000Z</time>
      </trkpt>
      <trkpt lat="45.88156" lon="4.62999">
        <ele>217.99809</ele>
        <time>2023-11-26T13:52:10.000Z</time>
      </trkpt>
      <trkpt lat="45.8816" lon="4.62999">
        <ele>217.84045</ele>
        <time>2023-11-26T13:52:11.000Z</time>
      </trkpt>
      <trkpt lat="45.88164" lon="4.63">
        <ele>217.68051</ele>
        <time>2023-11-26T13:52:12.000Z</time>
      </trkpt>
      <trkpt lat="45.88168" lon="4.63001">
        <ele>217.55794</ele>
        <time>2023-11-26T13:52:13.000Z</time>
      </trkpt>
      <trkpt lat="45.88172" lon="4.63002">
        <ele>217.45813</ele>
        <time>2023-11-26T13:52:14.000Z</time>
      </trkpt>
      <trkpt lat="45.88176" lon="4.63003">
        <ele>217.3586</ele>
        <time>2023-11-26T13:52:15.000Z</time>
      </trkpt>
      <trkpt lat="45.8818" lon="4.63004">
        <ele>217.30295</ele>
        <time>2023-11-26T13:52:16.000Z</time>
      </trkpt>
      <trkpt lat="45.88183" lon="4.63005">
        <ele>217.24081</ele>
        <time>2023-11-26T13:52:17.000Z</time>
      </trkpt>
      <trkpt lat="45.88187" lon="4.63006">
        <ele>217.16516</ele>
        <time>2023-11-26T13:52:18.000Z</time>
      </trkpt>
      <trkpt lat="45.88189" lon="4.63004">
        <ele>217.0666</ele>
        <time>2023-11-26T13:52:19.000Z</time>
      </trkpt>
      <trkpt lat="45.88191" lon="4.62999">
        <ele>216.9967</ele>
        <time>2023-11-26T13:52:20.000Z</time>
      </trkpt>
      <trkpt lat="45.88193" lon="4.62995">
        <ele>216.94148</ele>
        <time>2023-11-26T13:52:21.000Z</time>
      </trkpt>
      <trkpt lat="45.88195" lon="4.6299">
        <ele>216.88985</ele>
        <time>2023-11-26T13:52:22.000Z</time>
      </trkpt>
      <trkpt lat="45.88199" lon="4.62985">
        <ele>216.80981</ele>
        <time>2023-11-26T13:52:23.000Z</time>
      </trkpt>
      <trkpt lat="45.88201" lon="4.6298">
        <ele>216.76997</ele>
        <time>2023-11-26T13:52:24.000Z</time>
      </trkpt>
      <trkpt lat="45.88204" lon="4.62974">
        <ele>216.7825</ele>
        <time>2023-11-26T13:52:25.000Z</time>
      </trkpt>
      <trkpt lat="45.88207" lon="4.62969">
        <ele>216.77522</ele>
        <time>2023-11-26T13:52:26.000Z</time>
      </trkpt>
      <trkpt lat="45.8821" lon="4.62961">
        <ele>216.76895</ele>
        <time>2023-11-26T13:52:27.000Z</time>
      </trkpt>
      <trkpt lat="45.88213" lon="4.62955">
        <ele>216.79155</ele>
        <time>2023-11-26T13:52:28.000Z</time>
      </trkpt>
      <trkpt lat="45.88216" lon="4.62947">
        <ele>216.77657</ele>
        <time>2023-11-26T13:52:29.000Z</time>
      </trkpt>
      <trkpt lat="45.88219" lon="4.62944">
        <ele>216.7542</ele>
        <time>2023-11-26T13:52:30.000Z</time>
      </trkpt>
      <trkpt lat="45.88223" lon="4.62938">
        <ele>216.69402</ele>
        <time>2023-11-26T13:52:31.000Z</time>
      </trkpt>
      <trkpt lat="45.88227" lon="4.62934">
        <ele>216.59415</ele>
        <time>2023-11-26T13:52:32.000Z</time>
      </trkpt>
      <trkpt lat="45.88231" lon="4.62928">
        <ele>216.45796</ele>
        <time>2023-11-26T13:52:33.000Z</time>
      </trkpt>
      <trkpt lat="45.88234" lon="4.62922">
        <ele>216.30904</ele>
        <time>2023-11-26T13:52:34.000Z</time>
      </trkpt>
      <trkpt lat="45.88238" lon="4.62917">
        <ele>216.15369</ele>
        <time>2023-11-26T13:52:35.000Z</time>
      </trkpt>
      <trkpt lat="45.88241" lon="4.62913">
        <ele>215.99821</ele>
        <time>2023-11-26T13:52:36.000Z</time>
      </trkpt>
      <trkpt lat="45.88244" lon="4.62908">
        <ele>215.81963</ele>
        <time>2023-11-26T13:52:37.000Z</time>
      </trkpt>
      <trkpt lat="45.88247" lon="4.62903">
        <ele>215.63647</ele>
        <time>2023-11-26T13:52:38.000Z</time>
      </trkpt>
      <trkpt lat="45.8825" lon="4.62897">
        <ele>215.42838</ele>
        <time>2023-11-26T13:52:39.000Z</time>
      </trkpt>
      <trkpt lat="45.88254" lon="4.62892">
        <ele>215.22725</ele>
        <time>2023-11-26T13:52:40.000Z</time>
      </trkpt>
      <trkpt lat="45.88257" lon="4.62886">
        <ele>215.0356</ele>
        <time>2023-11-26T13:52:41.000Z</time>
      </trkpt>
      <trkpt lat="45.8826" lon="4.62882">
        <ele>214.85567</ele>
        <time>2023-11-26T13:52:42.000Z</time>
      </trkpt>
      <trkpt lat="45.88263" lon="4.62877">
        <ele>214.71555</ele>
        <time>2023-11-26T13:52:43.000Z</time>
      </trkpt>
      <trkpt lat="45.88266" lon="4.62871">
        <ele>214.5997</ele>
        <time>2023-11-26T13:52:44.000Z</time>
      </trkpt>
      <trkpt lat="45.88268" lon="4.62864">
        <ele>214.42281</ele>
        <time>2023-11-26T13:52:45.000Z</time>
      </trkpt>
      <trkpt lat="45.88265" lon="4.62859">
        <ele>214.25699</ele>
        <time>2023-11-26T13:52:46.000Z</time>
      </trkpt>
      <trkpt lat="45.88262" lon="4.62853">
        <ele>214.1523</ele>
        <time>2023-11-26T13:52:47.000Z</time>
      </trkpt>
      <trkpt lat="45.88258" lon="4.62849">
        <ele>214.05252</ele>
        <time>2023-11-26T13:52:48.000Z</time>
      </trkpt>
      <trkpt lat="45.88253" lon="4.62844">
        <ele>213.93501</ele>
        <time>2023-11-26T13:52:49.000Z</time>
      </trkpt>
      <trkpt lat="45.8825" lon="4.62839">
        <ele>213.85556</ele>
        <time>2023-11-26T13:52:50.000Z</time>
      </trkpt>
      <trkpt lat="45.88247" lon="4.62834">
        <ele>213.85754</ele>
        <time>2023-11-26T13:52:51.000Z</time>
      </trkpt>
      <trkpt lat="45.88246" lon="4.62827">
        <ele>213.89583</ele>
        <time>2023-11-26T13:52:52.000Z</time>
      </trkpt>
      <trkpt lat="45.88245" lon="4.62821">
        <ele>213.89827</ele>
        <time>2023-11-26T13:52:53.000Z</time>
      </trkpt>
      <trkpt lat="45.88245" lon="4.62813">
        <ele>213.92264</ele>
        <time>2023-11-26T13:52:54.000Z</time>
      </trkpt>
      <trkpt lat="45.88245" lon="4.62806">
        <ele>213.95073</ele>
        <time>2023-11-26T13:52:55.000Z</time>
      </trkpt>
      <trkpt lat="45.88245" lon="4.62799">
        <ele>213.99902</ele>
        <time>2023-11-26T13:52:56.000Z</time>
      </trkpt>
      <trkpt lat="45.88246" lon="4.62793">
        <ele>214.07446</ele>
        <time>2023-11-26T13:52:57.000Z</time>
      </trkpt>
      <trkpt lat="45.88247" lon="4.62784">
        <ele>214.12378</ele>
        <time>2023-11-26T13:52:58.000Z</time>
      </trkpt>
      <trkpt lat="45.88248" lon="4.62777">
        <ele>214.18372</ele>
        <time>2023-11-26T13:52:59.000Z</time>
      </trkpt>
      <trkpt lat="45.88248" lon="4.62768">
        <ele>214.20261</ele>
        <time>2023-11-26T13:53:00.000Z</time>
      </trkpt>
      <trkpt lat="45.88249" lon="4.62761">
        <ele>214.23531</ele>
        <time>2023-11-26T13:53:01.000Z</time>
      </trkpt>
      <trkpt lat="45.8825" lon="4.62753">
        <ele>214.25517</ele>
        <time>2023-11-26T13:53:02.000Z</time>
      </trkpt>
      <trkpt lat="45.8825" lon="4.62746">
        <ele>214.27043</ele>
        <time>2023-11-26T13:53:03.000Z</time>
      </trkpt>
      <trkpt lat="45.8825" lon="4.6274">
        <ele>214.26364</ele>
        <time>2023-11-26T13:53:04.000Z</time>
      </trkpt>
      <trkpt lat="45.8825" lon="4.62734">
        <ele>214.30244</ele>
        <time>2023-11-26T13:53:05.000Z</time>
      </trkpt>
      <trkpt lat="45.88253" lon="4.62726">
        <ele>214.36368</ele>
        <time>2023-11-26T13:53:06.000Z</time>
      </trkpt>
      <trkpt lat="45.88254" lon="4.62718">
        <ele>214.36922</ele>
        <time>2023-11-26T13:53:07.000Z</time>
      </trkpt>
      <trkpt lat="45.88256" lon="4.6271">
        <ele>214.39871</ele>
        <time>2023-11-26T13:53:08.000Z</time>
      </trkpt>
      <trkpt lat="45.88257" lon="4.62702">
        <ele>214.4843</ele>
        <time>2023-11-26T13:53:09.000Z</time>
      </trkpt>
      <trkpt lat="45.88258" lon="4.62694">
        <ele>214.57471</ele>
        <time>2023-11-26T13:53:10.000Z</time>
      </trkpt>
      <trkpt lat="45.88259" lon="4.62686">
        <ele>214.64009</ele>
        <time>2023-11-26T13:53:11.000Z</time>
      </trkpt>
      <trkpt lat="45.8826" lon="4.62679">
        <ele>214.68167</ele>
        <time>2023-11-26T13:53:12.000Z</time>
      </trkpt>
      <trkpt lat="45.88261" lon="4.62672">
        <ele>214.75964</ele>
        <time>2023-11-26T13:53:13.000Z</time>
      </trkpt>
      <trkpt lat="45.88263" lon="4.62663">
        <ele>214.79141</ele>
        <time>2023-11-26T13:53:14.000Z</time>
      </trkpt>
      <trkpt lat="45.88264" lon="4.62653">
        <ele>214.82492</ele>
        <time>2023-11-26T13:53:15.000Z</time>
      </trkpt>
      <trkpt lat="45.88265" lon="4.62646">
        <ele>214.84375</ele>
        <time>2023-11-26T13:53:16.000Z</time>
      </trkpt>
      <trkpt lat="45.88265" lon="4.62639">
        <ele>214.80827</ele>
        <time>2023-11-26T13:53:17.000Z</time>
      </trkpt>
      <trkpt lat="45.88266" lon="4.62631">
        <ele>214.80965</ele>
        <time>2023-11-26T13:53:18.000Z</time>
      </trkpt>
      <trkpt lat="45.88268" lon="4.62623">
        <ele>214.80815</ele>
        <time>2023-11-26T13:53:19.000Z</time>
      </trkpt>
      <trkpt lat="45.88271" lon="4.62616">
        <ele>214.78117</ele>
        <time>2023-11-26T13:53:20.000Z</time>
      </trkpt>
      <trkpt lat="45.88273" lon="4.62609">
        <ele>214.76526</ele>
        <time>2023-11-26T13:53:21.000Z</time>
      </trkpt>
      <trkpt lat="45.88276" lon="4.62601">
        <ele>214.73755</ele>
        <time>2023-11-26T13:53:22.000Z</time>
      </trkpt>
      <trkpt lat="45.88278" lon="4.62594">
        <ele>214.68327</ele>
        <time>2023-11-26T13:53:23.000Z</time>
      </trkpt>
      <trkpt lat="45.8828" lon="4.62587">
        <ele>214.65254</ele>
        <time>2023-11-26T13:53:24.000Z</time>
      </trkpt>
      <trkpt lat="45.88281" lon="4.62579">
        <ele>214.59891</ele>
        <time>2023-11-26T13:53:25.000Z</time>
      </trkpt>
      <trkpt lat="45.88284" lon="4.62572">
        <ele>214.56111</ele>
        <time>2023-11-26T13:53:26.000Z</time>
      </trkpt>
      <trkpt lat="45.88286" lon="4.62564">
        <ele>214.52951</ele>
        <time>2023-11-26T13:53:27.000Z</time>
      </trkpt>
      <trkpt lat="45.88288" lon="4.62555">
        <ele>214.48726</ele>
        <time>2023-11-26T13:53:28.000Z</time>
      </trkpt>
      <trkpt lat="45.8829" lon="4.62548">
        <ele>214.43161</ele>
        <time>2023-11-26T13:53:29.000Z</time>
      </trkpt>
      <trkpt lat="45.88292" lon="4.6254">
        <ele>214.36377</ele>
        <time>2023-11-26T13:53:30.000Z</time>
      </trkpt>
      <trkpt lat="45.88294" lon="4.62531">
        <ele>214.29214</ele>
        <time>2023-11-26T13:53:31.000Z</time>
      </trkpt>
      <trkpt lat="45.88295" lon="4.62524">
        <ele>214.25273</ele>
        <time>2023-11-26T13:53:32.000Z</time>
      </trkpt>
      <trkpt lat="45.88297" lon="4.62516">
        <ele>214.21335</ele>
        <time>2023-11-26T13:53:33.000Z</time>
      </trkpt>
      <trkpt lat="45.88299" lon="4.62508">
        <ele>214.18208</ele>
        <time>2023-11-26T13:53:34.000Z</time>
      </trkpt>
      <trkpt lat="45.88302" lon="4.625">
        <ele>214.14795</ele>
        <time>2023-11-26T13:53:35.000Z</time>
      </trkpt>
      <trkpt lat="45.88303" lon="4.62492">
        <ele>214.11287</ele>
        <time>2023-11-26T13:53:36.000Z</time>
      </trkpt>
      <trkpt lat="45.88305" lon="4.62484">
        <ele>214.15665</ele>
        <time>2023-11-26T13:53:37.000Z</time>
      </trkpt>
      <trkpt lat="45.88307" lon="4.62476">
        <ele>214.16708</ele>
        <time>2023-11-26T13:53:38.000Z</time>
      </trkpt>
      <trkpt lat="45.8831" lon="4.62469">
        <ele>214.20801</ele>
        <time>2023-11-26T13:53:39.000Z</time>
      </trkpt>
      <trkpt lat="45.88312" lon="4.62462">
        <ele>214.28792</ele>
        <time>2023-11-26T13:53:40.000Z</time>
      </trkpt>
      <trkpt lat="45.88315" lon="4.62454">
        <ele>214.38618</ele>
        <time>2023-11-26T13:53:41.000Z</time>
      </trkpt>
      <trkpt lat="45.88317" lon="4.62447">
        <ele>214.4971</ele>
        <time>2023-11-26T13:53:42.000Z</time>
      </trkpt>
      <trkpt lat="45.88319" lon="4.62439">
        <ele>214.6467</ele>
        <time>2023-11-26T13:53:43.000Z</time>
      </trkpt>
      <trkpt lat="45.88321" lon="4.62431">
        <ele>214.77681</ele>
        <time>2023-11-26T13:53:44.000Z</time>
      </trkpt>
      <trkpt lat="45.88323" lon="4.62423">
        <ele>214.92899</ele>
        <time>2023-11-26T13:53:45.000Z</time>
      </trkpt>
      <trkpt lat="45.88326" lon="4.62415">
        <ele>215.06084</ele>
        <time>2023-11-26T13:53:46.000Z</time>
      </trkpt>
      <trkpt lat="45.88328" lon="4.62407">
        <ele>215.20425</ele>
        <time>2023-11-26T13:53:47.000Z</time>
      </trkpt>
      <trkpt lat="45.8833" lon="4.62398">
        <ele>215.35258</ele>
        <time>2023-11-26T13:53:48.000Z</time>
      </trkpt>
      <trkpt lat="45.88332" lon="4.6239">
        <ele>215.48828</ele>
        <time>2023-11-26T13:53:49.000Z</time>
      </trkpt>
      <trkpt lat="45.88335" lon="4.6238">
        <ele>215.68425</ele>
        <time>2023-11-26T13:53:50.000Z</time>
      </trkpt>
      <trkpt lat="45.88337" lon="4.62372">
        <ele>215.85953</ele>
        <time>2023-11-26T13:53:51.000Z</time>
      </trkpt>
      <trkpt lat="45.88339" lon="4.62364">
        <ele>216.03682</ele>
        <time>2023-11-26T13:53:52.000Z</time>
      </trkpt>
      <trkpt lat="45.88341" lon="4.62357">
        <ele>216.1938</ele>
        <time>2023-11-26T13:53:53.000Z</time>
      </trkpt>
      <trkpt lat="45.88343" lon="4.62348">
        <ele>216.35532</ele>
        <time>2023-11-26T13:53:54.000Z</time>
      </trkpt>
      <trkpt lat="45.88345" lon="4.62341">
        <ele>216.52238</ele>
        <time>2023-11-26T13:53:55.000Z</time>
      </trkpt>
      <trkpt lat="45.88347" lon="4.62333">
        <ele>216.66284</ele>
        <time>2023-11-26T13:53:56.000Z</time>
      </trkpt>
      <trkpt lat="45.88349" lon="4.62326">
        <ele>216.76382</ele>
        <time>2023-11-26T13:53:57.000Z</time>
      </trkpt>
      <trkpt lat="45.88351" lon="4.62317">
        <ele>216.86812</ele>
        <time>2023-11-26T13:53:58.000Z</time>
      </trkpt>
      <trkpt lat="45.88353" lon="4.6231">
        <ele>216.93625</ele>
        <time>2023-11-26T13:53:59.000Z</time>
      </trkpt>
      <trkpt lat="45.88355" lon="4.62302">
        <ele>217.01132</ele>
        <time>2023-11-26T13:54:00.000Z</time>
      </trkpt>
      <trkpt lat="45.88357" lon="4.62296">
        <ele>217.05521</ele>
        <time>2023-11-26T13:54:01.000Z</time>
      </trkpt>
      <trkpt lat="45.88358" lon="4.6229">
        <ele>217.08244</ele>
        <time>2023-11-26T13:54:02.000Z</time>
      </trkpt>
      <trkpt lat="45.8836" lon="4.62284">
        <ele>217.07559</ele>
        <time>2023-11-26T13:54:03.000Z</time>
      </trkpt>
      <trkpt lat="45.88361" lon="4.62277">
        <ele>217.08566</ele>
        <time>2023-11-26T13:54:04.000Z</time>
      </trkpt>
      <trkpt lat="45.88362" lon="4.6227">
        <ele>217.09518</ele>
        <time>2023-11-26T13:54:05.000Z</time>
      </trkpt>
      <trkpt lat="45.88363" lon="4.62264">
        <ele>217.08652</ele>
        <time>2023-11-26T13:54:06.000Z</time>
      </trkpt>
      <trkpt lat="45.88365" lon="4.62258">
        <ele>217.06277</ele>
        <time>2023-11-26T13:54:07.000Z</time>
      </trkpt>
      <trkpt lat="45.88366" lon="4.62252">
        <ele>217.0341</ele>
        <time>2023-11-26T13:54:08.000Z</time>
      </trkpt>
      <trkpt lat="45.88367" lon="4.62246">
        <ele>216.96992</ele>
        <time>2023-11-26T13:54:09.000Z</time>
      </trkpt>
      <trkpt lat="45.88368" lon="4.62238">
        <ele>216.83011</ele>
        <time>2023-11-26T13:54:10.000Z</time>
      </trkpt>
      <trkpt lat="45.88369" lon="4.62232">
        <ele>216.71733</ele>
        <time>2023-11-26T13:54:11.000Z</time>
      </trkpt>
      <trkpt lat="45.8837" lon="4.62228">
        <ele>216.59734</ele>
        <time>2023-11-26T13:54:12.000Z</time>
      </trkpt>
      <trkpt lat="45.88372" lon="4.62221">
        <ele>216.50403</ele>
        <time>2023-11-26T13:54:13.000Z</time>
      </trkpt>
      <trkpt lat="45.88375" lon="4.62214">
        <ele>216.41606</ele>
        <time>2023-11-26T13:54:14.000Z</time>
      </trkpt>
      <trkpt lat="45.88376" lon="4.62209">
        <ele>216.32462</ele>
        <time>2023-11-26T13:54:15.000Z</time>
      </trkpt>
      <trkpt lat="45.88378" lon="4.62203">
        <ele>216.25046</ele>
        <time>2023-11-26T13:54:16.000Z</time>
      </trkpt>
      <trkpt lat="45.8838" lon="4.62195">
        <ele>216.16907</ele>
        <time>2023-11-26T13:54:17.000Z</time>
      </trkpt>
      <trkpt lat="45.88383" lon="4.62189">
        <ele>216.08969</ele>
        <time>2023-11-26T13:54:18.000Z</time>
      </trkpt>
      <trkpt lat="45.88385" lon="4.62182">
        <ele>216.04077</ele>
        <time>2023-11-26T13:54:19.000Z</time>
      </trkpt>
      <trkpt lat="45.88387" lon="4.62176">
        <ele>215.92046</ele>
        <time>2023-11-26T13:54:20.000Z</time>
      </trkpt>
      <trkpt lat="45.88388" lon="4.62171">
        <ele>215.81001</ele>
        <time>2023-11-26T13:54:21.000Z</time>
      </trkpt>
      <trkpt lat="45.88389" lon="4.62165">
        <ele>215.70541</ele>
        <time>2023-11-26T13:54:22.000Z</time>
      </trkpt>
      <trkpt lat="45.8839" lon="4.62158">
        <ele>215.62137</ele>
        <time>2023-11-26T13:54:23.000Z</time>
      </trkpt>
      <trkpt lat="45.8839" lon="4.62152">
        <ele>215.55217</ele>
        <time>2023-11-26T13:54:24.000Z</time>
      </trkpt>
      <trkpt lat="45.88392" lon="4.62146">
        <ele>215.46927</ele>
        <time>2023-11-26T13:54:25.000Z</time>
      </trkpt>
      <trkpt lat="45.88393" lon="4.62139">
        <ele>215.40633</ele>
        <time>2023-11-26T13:54:26.000Z</time>
      </trkpt>
      <trkpt lat="45.88395" lon="4.62134">
        <ele>215.33154</ele>
        <time>2023-11-26T13:54:27.000Z</time>
      </trkpt>
      <trkpt lat="45.88397" lon="4.62128">
        <ele>215.26859</ele>
        <time>2023-11-26T13:54:28.000Z</time>
      </trkpt>
      <trkpt lat="45.884" lon="4.62123">
        <ele>215.24362</ele>
        <time>2023-11-26T13:54:29.000Z</time>
      </trkpt>
      <trkpt lat="45.88403" lon="4.62118">
        <ele>215.22595</ele>
        <time>2023-11-26T13:54:30.000Z</time>
      </trkpt>
      <trkpt lat="45.88405" lon="4.62113">
        <ele>215.20224</ele>
        <time>2023-11-26T13:54:31.000Z</time>
      </trkpt>
      <trkpt lat="45.88409" lon="4.62109">
        <ele>215.16573</ele>
        <time>2023-11-26T13:54:32.000Z</time>
      </trkpt>
      <trkpt lat="45.88412" lon="4.62104">
        <ele>215.13667</ele>
        <time>2023-11-26T13:54:33.000Z</time>
      </trkpt>
      <trkpt lat="45.88416" lon="4.621">
        <ele>215.06941</ele>
        <time>2023-11-26T13:54:34.000Z</time>
      </trkpt>
      <trkpt lat="45.8842" lon="4.62096">
        <ele>215.00989</ele>
        <time>2023-11-26T13:54:35.000Z</time>
      </trkpt>
      <trkpt lat="45.88425" lon="4.62092">
        <ele>214.96716</ele>
        <time>2023-11-26T13:54:36.000Z</time>
      </trkpt>
      <trkpt lat="45.8843" lon="4.62088">
        <ele>214.87448</ele>
        <time>2023-11-26T13:54:37.000Z</time>
      </trkpt>
      <trkpt lat="45.88434" lon="4.62084">
        <ele>214.8223</ele>
        <time>2023-11-26T13:54:38.000Z</time>
      </trkpt>
      <trkpt lat="45.88438" lon="4.62079">
        <ele>214.76237</ele>
        <time>2023-11-26T13:54:39.000Z</time>
      </trkpt>
      <trkpt lat="45.88442" lon="4.62075">
        <ele>214.72864</ele>
        <time>2023-11-26T13:54:40.000Z</time>
      </trkpt>
      <trkpt lat="45.88445" lon="4.62073">
        <ele>214.67839</ele>
        <time>2023-11-26T13:54:41.000Z</time>
      </trkpt>
      <trkpt lat="45.88449" lon="4.62069">
        <ele>214.71713</ele>
        <time>2023-11-26T13:54:42.000Z</time>
      </trkpt>
      <trkpt lat="45.88451" lon="4.62065">
        <ele>214.7413</ele>
        <time>2023-11-26T13:54:43.000Z</time>
      </trkpt>
      <trkpt lat="45.88454" lon="4.62062">
        <ele>214.75151</ele>
        <time>2023-11-26T13:54:44.000Z</time>
      </trkpt>
      <trkpt lat="45.88457" lon="4.62059">
        <ele>214.79919</ele>
        <time>2023-11-26T13:54:45.000Z</time>
      </trkpt>
      <trkpt lat="45.88459" lon="4.62057">
        <ele>214.82292</ele>
        <time>2023-11-26T13:54:46.000Z</time>
      </trkpt>
      <trkpt lat="45.88462" lon="4.62054">
        <ele>214.8654</ele>
        <time>2023-11-26T13:54:47.000Z</time>
      </trkpt>
      <trkpt lat="45.88464" lon="4.62053">
        <ele>214.87646</ele>
        <time>2023-11-26T13:54:48.000Z</time>
      </trkpt>
      <trkpt lat="45.88467" lon="4.62051">
        <ele>214.90707</ele>
        <time>2023-11-26T13:54:49.000Z</time>
      </trkpt>
      <trkpt lat="45.88469" lon="4.62049">
        <ele>214.91711</ele>
        <time>2023-11-26T13:54:50.000Z</time>
      </trkpt>
      <trkpt lat="45.88471" lon="4.62047">
        <ele>214.9028</ele>
        <time>2023-11-26T13:54:51.000Z</time>
      </trkpt>
      <trkpt lat="45.88473" lon="4.62045">
        <ele>214.86368</ele>
        <time>2023-11-26T13:54:52.000Z</time>
      </trkpt>
      <trkpt lat="45.88476" lon="4.62043">
        <ele>214.81296</ele>
        <time>2023-11-26T13:54:53.000Z</time>
      </trkpt>
      <trkpt lat="45.88478" lon="4.62041">
        <ele>214.76157</ele>
        <time>2023-11-26T13:54:54.000Z</time>
      </trkpt>
      <trkpt lat="45.88481" lon="4.62038">
        <ele>214.70512</ele>
        <time>2023-11-26T13:54:55.000Z</time>
      </trkpt>
      <trkpt lat="45.88482" lon="4.62036">
        <ele>214.61453</ele>
        <time>2023-11-26T13:54:56.000Z</time>
      </trkpt>
      <trkpt lat="45.88483" lon="4.62033">
        <ele>214.6261</ele>
        <time>2023-11-26T13:54:57.000Z</time>
      </trkpt>
      <trkpt lat="45.88484" lon="4.6203">
        <ele>214.62004</ele>
        <time>2023-11-26T13:54:58.000Z</time>
      </trkpt>
      <trkpt lat="45.88485" lon="4.62026">
        <ele>214.61765</ele>
        <time>2023-11-26T13:54:59.000Z</time>
      </trkpt>
      <trkpt lat="45.88486" lon="4.62022">
        <ele>214.66524</ele>
        <time>2023-11-26T13:55:00.000Z</time>
      </trkpt>
      <trkpt lat="45.88486" lon="4.62019">
        <ele>214.76157</ele>
        <time>2023-11-26T13:55:01.000Z</time>
      </trkpt>
      <trkpt lat="45.88486" lon="4.62015">
        <ele>214.75244</ele>
        <time>2023-11-26T13:55:02.000Z</time>
      </trkpt>
      <trkpt lat="45.88484" lon="4.62011">
        <ele>214.73697</ele>
        <time>2023-11-26T13:55:03.000Z</time>
      </trkpt>
      <trkpt lat="45.8848" lon="4.62009">
        <ele>214.73787</ele>
        <time>2023-11-26T13:55:04.000Z</time>
      </trkpt>
      <trkpt lat="45.88476" lon="4.62007">
        <ele>214.70891</ele>
        <time>2023-11-26T13:55:05.000Z</time>
      </trkpt>
      <trkpt lat="45.88473" lon="4.62005">
        <ele>214.69315</ele>
        <time>2023-11-26T13:55:06.000Z</time>
      </trkpt>
      <trkpt lat="45.88469" lon="4.62003">
        <ele>214.66299</ele>
        <time>2023-11-26T13:55:07.000Z</time>
      </trkpt>
      <trkpt lat="45.88466" lon="4.62">
        <ele>214.6519</ele>
        <time>2023-11-26T13:55:08.000Z</time>
      </trkpt>
      <trkpt lat="45.88462" lon="4.61997">
        <ele>214.60764</ele>
        <time>2023-11-26T13:55:09.000Z</time>
      </trkpt>
      <trkpt lat="45.88458" lon="4.61994">
        <ele>214.56111</ele>
        <time>2023-11-26T13:55:10.000Z</time>
      </trkpt>
      <trkpt lat="45.88454" lon="4.61991">
        <ele>214.53337</ele>
        <time>2023-11-26T13:55:11.000Z</time>
      </trkpt>
      <trkpt lat="45.88451" lon="4.61988">
        <ele>214.53242</ele>
        <time>2023-11-26T13:55:12.000Z</time>
      </trkpt>
      <trkpt lat="45.88448" lon="4.61985">
        <ele>214.57137</ele>
        <time>2023-11-26T13:55:13.000Z</time>
      </trkpt>
      <trkpt lat="45.88444" lon="4.61981">
        <ele>214.59891</ele>
        <time>2023-11-26T13:55:14.000Z</time>
      </trkpt>
      <trkpt lat="45.88441" lon="4.61978">
        <ele>214.61694</ele>
        <time>2023-11-26T13:55:15.000Z</time>
      </trkpt>
      <trkpt lat="45.88437" lon="4.61975">
        <ele>214.64897</ele>
        <time>2023-11-26T13:55:16.000Z</time>
      </trkpt>
      <trkpt lat="45.88433" lon="4.61971">
        <ele>214.62601</ele>
        <time>2023-11-26T13:55:17.000Z</time>
      </trkpt>
      <trkpt lat="45.88428" lon="4.61968">
        <ele>214.58382</ele>
        <time>2023-11-26T13:55:18.000Z</time>
      </trkpt>
      <trkpt lat="45.88425" lon="4.61964">
        <ele>214.52475</ele>
        <time>2023-11-26T13:55:19.000Z</time>
      </trkpt>
      <trkpt lat="45.88421" lon="4.61961">
        <ele>214.45222</ele>
        <time>2023-11-26T13:55:20.000Z</time>
      </trkpt>
      <trkpt lat="45.88418" lon="4.61958">
        <ele>214.36313</ele>
        <time>2023-11-26T13:55:21.000Z</time>
      </trkpt>
      <trkpt lat="45.88415" lon="4.61956">
        <ele>214.32271</ele>
        <time>2023-11-26T13:55:22.000Z</time>
      </trkpt>
      <trkpt lat="45.88411" lon="4.61954">
        <ele>214.2885</ele>
        <time>2023-11-26T13:55:23.000Z</time>
      </trkpt>
      <trkpt lat="45.88408" lon="4.61952">
        <ele>214.23328</ele>
        <time>2023-11-26T13:55:24.000Z</time>
      </trkpt>
      <trkpt lat="45.88405" lon="4.61948">
        <ele>214.2209</ele>
        <time>2023-11-26T13:55:25.000Z</time>
      </trkpt>
      <trkpt lat="45.88402" lon="4.61946">
        <ele>214.21172</ele>
        <time>2023-11-26T13:55:26.000Z</time>
      </trkpt>
      <trkpt lat="45.884" lon="4.61944">
        <ele>214.20938</ele>
        <time>2023-11-26T13:55:27.000Z</time>
      </trkpt>
      <trkpt lat="45.88397" lon="4.61943">
        <ele>214.1904</ele>
        <time>2023-11-26T13:55:28.000Z</time>
      </trkpt>
      <trkpt lat="45.88394" lon="4.61942">
        <ele>214.17207</ele>
        <time>2023-11-26T13:55:29.000Z</time>
      </trkpt>
      <trkpt lat="45.88391" lon="4.61942">
        <ele>214.14983</ele>
        <time>2023-11-26T13:55:30.000Z</time>
      </trkpt>
      <trkpt lat="45.88388" lon="4.61942">
        <ele>214.10823</ele>
        <time>2023-11-26T13:55:31.000Z</time>
      </trkpt>
      <trkpt lat="45.88384" lon="4.61942">
        <ele>214.1097</ele>
        <time>2023-11-26T13:55:32.000Z</time>
      </trkpt>
      <trkpt lat="45.88381" lon="4.61941">
        <ele>214.08174</ele>
        <time>2023-11-26T13:55:33.000Z</time>
      </trkpt>
      <trkpt lat="45.88377" lon="4.6194">
        <ele>214.08377</ele>
        <time>2023-11-26T13:55:34.000Z</time>
      </trkpt>
      <trkpt lat="45.88373" lon="4.6194">
        <ele>214.06282</ele>
        <time>2023-11-26T13:55:35.000Z</time>
      </trkpt>
      <trkpt lat="45.8837" lon="4.61939">
        <ele>214.06165</ele>
        <time>2023-11-26T13:55:36.000Z</time>
      </trkpt>
      <trkpt lat="45.88366" lon="4.61938">
        <ele>214.06247</ele>
        <time>2023-11-26T13:55:37.000Z</time>
      </trkpt>
      <trkpt lat="45.88363" lon="4.61938">
        <ele>214.06836</ele>
        <time>2023-11-26T13:55:38.000Z</time>
      </trkpt>
      <trkpt lat="45.88359" lon="4.61937">
        <ele>214.07771</ele>
        <time>2023-11-26T13:55:39.000Z</time>
      </trkpt>
      <trkpt lat="45.88355" lon="4.61936">
        <ele>214.04643</ele>
        <time>2023-11-26T13:55:40.000Z</time>
      </trkpt>
      <trkpt lat="45.88351" lon="4.61935">
        <ele>214.02237</ele>
        <time>2023-11-26T13:55:41.000Z</time>
      </trkpt>
      <trkpt lat="45.88348" lon="4.61933">
        <ele>214.03154</ele>
        <time>2023-11-26T13:55:42.000Z</time>
      </trkpt>
      <trkpt lat="45.88346" lon="4.61931">
        <ele>214.03647</ele>
        <time>2023-11-26T13:55:43.000Z</time>
      </trkpt>
      <trkpt lat="45.88343" lon="4.61928">
        <ele>214.05264</ele>
        <time>2023-11-26T13:55:44.000Z</time>
      </trkpt>
      <trkpt lat="45.8834" lon="4.61924">
        <ele>214.10002</ele>
        <time>2023-11-26T13:55:45.000Z</time>
      </trkpt>
      <trkpt lat="45.88339" lon="4.6192">
        <ele>214.14946</ele>
        <time>2023-11-26T13:55:46.000Z</time>
      </trkpt>
      <trkpt lat="45.88338" lon="4.61916">
        <ele>214.19821</ele>
        <time>2023-11-26T13:55:47.000Z</time>
      </trkpt>
      <trkpt lat="45.88338" lon="4.61909">
        <ele>214.25339</ele>
        <time>2023-11-26T13:55:48.000Z</time>
      </trkpt>
      <trkpt lat="45.88339" lon="4.61903">
        <ele>214.33105</ele>
        <time>2023-11-26T13:55:49.000Z</time>
      </trkpt>
      <trkpt lat="45.88343" lon="4.61893">
        <ele>214.42155</ele>
        <time>2023-11-26T13:55:50.000Z</time>
      </trkpt>
      <trkpt lat="45.88344" lon="4.61887">
        <ele>214.54265</ele>
        <time>2023-11-26T13:55:51.000Z</time>
      </trkpt>
      <trkpt lat="45.88345" lon="4.61881">
        <ele>214.62236</ele>
        <time>2023-11-26T13:55:52.000Z</time>
      </trkpt>
      <trkpt lat="45.88347" lon="4.61875">
        <ele>214.65231</ele>
        <time>2023-11-26T13:55:53.000Z</time>
      </trkpt>
      <trkpt lat="45.88348" lon="4.61869">
        <ele>214.71237</ele>
        <time>2023-11-26T13:55:54.000Z</time>
      </trkpt>
      <trkpt lat="45.88349" lon="4.61862">
        <ele>214.80061</ele>
        <time>2023-11-26T13:55:55.000Z</time>
      </trkpt>
      <trkpt lat="45.88352" lon="4.61855">
        <ele>214.85774</ele>
        <time>2023-11-26T13:55:56.000Z</time>
      </trkpt>
      <trkpt lat="45.88352" lon="4.61849">
        <ele>214.93765</ele>
        <time>2023-11-26T13:55:57.000Z</time>
      </trkpt>
      <trkpt lat="45.88354" lon="4.61843">
        <ele>214.9949</ele>
        <time>2023-11-26T13:55:58.000Z</time>
      </trkpt>
      <trkpt lat="45.88355" lon="4.61837">
        <ele>215.07417</ele>
        <time>2023-11-26T13:55:59.000Z</time>
      </trkpt>
      <trkpt lat="45.88357" lon="4.61833">
        <ele>215.19177</ele>
        <time>2023-11-26T13:56:00.000Z</time>
      </trkpt>
      <trkpt lat="45.88358" lon="4.61827">
        <ele>215.29094</ele>
        <time>2023-11-26T13:56:01.000Z</time>
      </trkpt>
      <trkpt lat="45.8836" lon="4.61822">
        <ele>215.34187</ele>
        <time>2023-11-26T13:56:02.000Z</time>
      </trkpt>
      <trkpt lat="45.88361" lon="4.61817">
        <ele>215.34158</ele>
        <time>2023-11-26T13:56:03.000Z</time>
      </trkpt>
      <trkpt lat="45.88363" lon="4.61811">
        <ele>215.30269</ele>
        <time>2023-11-26T13:56:04.000Z</time>
      </trkpt>
      <trkpt lat="45.88364" lon="4.61806">
        <ele>215.17009</ele>
        <time>2023-11-26T13:56:05.000Z</time>
      </trkpt>
      <trkpt lat="45.88366" lon="4.61801">
        <ele>215.04031</ele>
        <time>2023-11-26T13:56:06.000Z</time>
      </trkpt>
      <trkpt lat="45.88367" lon="4.61797">
        <ele>214.92766</ele>
        <time>2023-11-26T13:56:07.000Z</time>
      </trkpt>
      <trkpt lat="45.88368" lon="4.61792">
        <ele>214.85674</ele>
        <time>2023-11-26T13:56:08.000Z</time>
      </trkpt>
      <trkpt lat="45.8837" lon="4.61787">
        <ele>214.77853</ele>
        <time>2023-11-26T13:56:09.000Z</time>
      </trkpt>
      <trkpt lat="45.88372" lon="4.61782">
        <ele>214.71655</ele>
        <time>2023-11-26T13:56:10.000Z</time>
      </trkpt>
      <trkpt lat="45.88374" lon="4.61776">
        <ele>214.63074</ele>
        <time>2023-11-26T13:56:11.000Z</time>
      </trkpt>
      <trkpt lat="45.88376" lon="4.6177">
        <ele>214.55135</ele>
        <time>2023-11-26T13:56:12.000Z</time>
      </trkpt>
      <trkpt lat="45.88378" lon="4.61761">
        <ele>214.4899</ele>
        <time>2023-11-26T13:56:13.000Z</time>
      </trkpt>
      <trkpt lat="45.8838" lon="4.61754">
        <ele>214.41251</ele>
        <time>2023-11-26T13:56:14.000Z</time>
      </trkpt>
      <trkpt lat="45.88381" lon="4.61748">
        <ele>214.34367</ele>
        <time>2023-11-26T13:56:15.000Z</time>
      </trkpt>
      <trkpt lat="45.88383" lon="4.61742">
        <ele>214.28671</ele>
        <time>2023-11-26T13:56:16.000Z</time>
      </trkpt>
      <trkpt lat="45.88384" lon="4.61736">
        <ele>214.20244</ele>
        <time>2023-11-26T13:56:17.000Z</time>
      </trkpt>
      <trkpt lat="45.88386" lon="4.61728">
        <ele>214.13908</ele>
        <time>2023-11-26T13:56:18.000Z</time>
      </trkpt>
      <trkpt lat="45.88388" lon="4.61723">
        <ele>214.05917</ele>
        <time>2023-11-26T13:56:19.000Z</time>
      </trkpt>
      <trkpt lat="45.88389" lon="4.61717">
        <ele>213.97238</ele>
        <time>2023-11-26T13:56:20.000Z</time>
      </trkpt>
      <trkpt lat="45.8839" lon="4.61713">
        <ele>213.88921</ele>
        <time>2023-11-26T13:56:21.000Z</time>
      </trkpt>
      <trkpt lat="45.88392" lon="4.61709">
        <ele>213.82564</ele>
        <time>2023-11-26T13:56:22.000Z</time>
      </trkpt>
      <trkpt lat="45.88394" lon="4.61705">
        <ele>213.8403</ele>
        <time>2023-11-26T13:56:23.000Z</time>
      </trkpt>
      <trkpt lat="45.88395" lon="4.61701">
        <ele>213.89507</ele>
        <time>2023-11-26T13:56:25.000Z</time>
      </trkpt>
      <trkpt lat="45.88395" lon="4.61698">
        <ele>213.99077</ele>
        <time>2023-11-26T14:00:44.000Z</time>
      </trkpt>
      <trkpt lat="45.88395" lon="4.61695">
        <ele>214.08707</ele>
        <time>2023-11-26T14:00:46.000Z</time>
      </trkpt>
      <trkpt lat="45.88397" lon="4.61691">
        <ele>214.18086</ele>
        <time>2023-11-26T14:00:47.000Z</time>
      </trkpt>
      <trkpt lat="45.88399" lon="4.61687">
        <ele>214.22604</ele>
        <time>2023-11-26T14:00:48.000Z</time>
      </trkpt>
      <trkpt lat="45.88401" lon="4.61682">
        <ele>214.25662</ele>
        <time>2023-11-26T14:00:49.000Z</time>
      </trkpt>
      <trkpt lat="45.88403" lon="4.61677">
        <ele>214.27641</ele>
        <time>2023-11-26T14:00:50.000Z</time>
      </trkpt>
      <trkpt lat="45.88405" lon="4.61672">
        <ele>214.325</ele>
        <time>2023-11-26T14:00:51.000Z</time>
      </trkpt>
      <trkpt lat="45.88407" lon="4.61667">
        <ele>214.36748</ele>
        <time>2023-11-26T14:00:52.000Z</time>
      </trkpt>
      <trkpt lat="45.88409" lon="4.6166">
        <ele>214.4393</ele>
        <time>2023-11-26T14:00:53.000Z</time>
      </trkpt>
      <trkpt lat="45.88411" lon="4.61654">
        <ele>214.51016</ele>
        <time>2023-11-26T14:00:54.000Z</time>
      </trkpt>
      <trkpt lat="45.88414" lon="4.61649">
        <ele>214.59085</ele>
        <time>2023-11-26T14:00:55.000Z</time>
      </trkpt>
      <trkpt lat="45.88416" lon="4.61643">
        <ele>214.67374</ele>
        <time>2023-11-26T14:00:56.000Z</time>
      </trkpt>
      <trkpt lat="45.88419" lon="4.61638">
        <ele>214.77982</ele>
        <time>2023-11-26T14:00:57.000Z</time>
      </trkpt>
      <trkpt lat="45.8842" lon="4.61631">
        <ele>214.90091</ele>
        <time>2023-11-26T14:00:58.000Z</time>
      </trkpt>
      <trkpt lat="45.88423" lon="4.61625">
        <ele>214.97627</ele>
        <time>2023-11-26T14:00:59.000Z</time>
      </trkpt>
      <trkpt lat="45.88425" lon="4.6162">
        <ele>215.03918</ele>
        <time>2023-11-26T14:01:00.000Z</time>
      </trkpt>
      <trkpt lat="45.88429" lon="4.61614">
        <ele>215.09782</ele>
        <time>2023-11-26T14:01:01.000Z</time>
      </trkpt>
      <trkpt lat="45.88432" lon="4.61607">
        <ele>215.17012</ele>
        <time>2023-11-26T14:01:02.000Z</time>
      </trkpt>
      <trkpt lat="45.88435" lon="4.61602">
        <ele>215.20723</ele>
        <time>2023-11-26T14:01:03.000Z</time>
      </trkpt>
      <trkpt lat="45.88437" lon="4.61598">
        <ele>215.22018</ele>
        <time>2023-11-26T14:01:04.000Z</time>
      </trkpt>
      <trkpt lat="45.88439" lon="4.61591">
        <ele>215.23674</ele>
        <time>2023-11-26T14:01:05.000Z</time>
      </trkpt>
      <trkpt lat="45.88441" lon="4.61585">
        <ele>215.26559</ele>
        <time>2023-11-26T14:01:06.000Z</time>
      </trkpt>
      <trkpt lat="45.88444" lon="4.61581">
        <ele>215.31242</ele>
        <time>2023-11-26T14:01:07.000Z</time>
      </trkpt>
      <trkpt lat="45.88447" lon="4.61577">
        <ele>215.35083</ele>
        <time>2023-11-26T14:01:08.000Z</time>
      </trkpt>
      <trkpt lat="45.8845" lon="4.61571">
        <ele>215.39285</ele>
        <time>2023-11-26T14:01:09.000Z</time>
      </trkpt>
      <trkpt lat="45.88453" lon="4.61566">
        <ele>215.45242</ele>
        <time>2023-11-26T14:01:10.000Z</time>
      </trkpt>
      <trkpt lat="45.88457" lon="4.61559">
        <ele>215.50821</ele>
        <time>2023-11-26T14:01:11.000Z</time>
      </trkpt>
      <trkpt lat="45.88461" lon="4.61554">
        <ele>215.58907</ele>
        <time>2023-11-26T14:01:12.000Z</time>
      </trkpt>
      <trkpt lat="45.88465" lon="4.61549">
        <ele>215.65054</ele>
        <time>2023-11-26T14:01:13.000Z</time>
      </trkpt>
      <trkpt lat="45.88468" lon="4.61545">
        <ele>215.73523</ele>
        <time>2023-11-26T14:01:14.000Z</time>
      </trkpt>
      <trkpt lat="45.88472" lon="4.61539">
        <ele>215.81772</ele>
        <time>2023-11-26T14:01:15.000Z</time>
      </trkpt>
      <trkpt lat="45.88476" lon="4.61533">
        <ele>215.89124</ele>
        <time>2023-11-26T14:01:16.000Z</time>
      </trkpt>
      <trkpt lat="45.88479" lon="4.61529">
        <ele>215.98042</ele>
        <time>2023-11-26T14:01:17.000Z</time>
      </trkpt>
      <trkpt lat="45.88482" lon="4.61524">
        <ele>216.02161</ele>
        <time>2023-11-26T14:01:18.000Z</time>
      </trkpt>
      <trkpt lat="45.88486" lon="4.61519">
        <ele>216.13313</ele>
        <time>2023-11-26T14:01:19.000Z</time>
      </trkpt>
      <trkpt lat="45.88489" lon="4.61512">
        <ele>216.28447</ele>
        <time>2023-11-26T14:01:20.000Z</time>
      </trkpt>
      <trkpt lat="45.88493" lon="4.61507">
        <ele>216.43103</ele>
        <time>2023-11-26T14:01:21.000Z</time>
      </trkpt>
      <trkpt lat="45.88496" lon="4.61502">
        <ele>216.53642</ele>
        <time>2023-11-26T14:01:22.000Z</time>
      </trkpt>
      <trkpt lat="45.88499" lon="4.61495">
        <ele>216.66289</ele>
        <time>2023-11-26T14:01:23.000Z</time>
      </trkpt>
      <trkpt lat="45.88496" lon="4.61489">
        <ele>216.82979</ele>
        <time>2023-11-26T14:01:24.000Z</time>
      </trkpt>
      <trkpt lat="45.88495" lon="4.61481">
        <ele>217.01672</ele>
        <time>2023-11-26T14:01:25.000Z</time>
      </trkpt>
      <trkpt lat="45.88493" lon="4.61475">
        <ele>217.19418</ele>
        <time>2023-11-26T14:01:26.000Z</time>
      </trkpt>
      <trkpt lat="45.88492" lon="4.61468">
        <ele>217.35873</ele>
        <time>2023-11-26T14:01:27.000Z</time>
      </trkpt>
      <trkpt lat="45.88494" lon="4.61464">
        <ele>217.61084</ele>
        <time>2023-11-26T14:01:28.000Z</time>
      </trkpt>
      <trkpt lat="45.88494" lon="4.61458">
        <ele>217.87138</ele>
        <time>2023-11-26T14:01:29.000Z</time>
      </trkpt>
      <trkpt lat="45.88494" lon="4.61455">
        <ele>218.10225</ele>
        <time>2023-11-26T14:01:30.000Z</time>
      </trkpt>
      <trkpt lat="45.88495" lon="4.61451">
        <ele>218.33586</ele>
        <time>2023-11-26T14:01:31.000Z</time>
      </trkpt>
      <trkpt lat="45.88496" lon="4.61447">
        <ele>218.57588</ele>
        <time>2023-11-26T14:01:32.000Z</time>
      </trkpt>
      <trkpt lat="45.88496" lon="4.61441">
        <ele>218.80672</ele>
        <time>2023-11-26T14:01:33.000Z</time>
      </trkpt>
      <trkpt lat="45.88497" lon="4.61436">
        <ele>219.03284</ele>
        <time>2023-11-26T14:01:34.000Z</time>
      </trkpt>
      <trkpt lat="45.88497" lon="4.61431">
        <ele>219.25508</ele>
        <time>2023-11-26T14:01:35.000Z</time>
      </trkpt>
      <trkpt lat="45.88497" lon="4.61425">
        <ele>219.48206</ele>
        <time>2023-11-26T14:01:36.000Z</time>
      </trkpt>
      <trkpt lat="45.88497" lon="4.61421">
        <ele>219.70149</ele>
        <time>2023-11-26T14:01:37.000Z</time>
      </trkpt>
      <trkpt lat="45.88497" lon="4.61416">
        <ele>220.05252</ele>
        <time>2023-11-26T14:01:38.000Z</time>
      </trkpt>
      <trkpt lat="45.88498" lon="4.61411">
        <ele>220.36687</ele>
        <time>2023-11-26T14:01:39.000Z</time>
      </trkpt>
      <trkpt lat="45.88498" lon="4.61406">
        <ele>220.65703</ele>
        <time>2023-11-26T14:01:40.000Z</time>
      </trkpt>
      <trkpt lat="45.88497" lon="4.61402">
        <ele>220.94125</ele>
        <time>2023-11-26T14:01:41.000Z</time>
      </trkpt>
      <trkpt lat="45.88497" lon="4.61398">
        <ele>221.25359</ele>
        <time>2023-11-26T14:01:42.000Z</time>
      </trkpt>
      <trkpt lat="45.88497" lon="4.61394">
        <ele>221.57466</ele>
        <time>2023-11-26T14:01:43.000Z</time>
      </trkpt>
      <trkpt lat="45.88496" lon="4.61391">
        <ele>221.90906</ele>
        <time>2023-11-26T14:01:44.000Z</time>
      </trkpt>
      <trkpt lat="45.88496" lon="4.61387">
        <ele>222.21634</ele>
        <time>2023-11-26T14:01:45.000Z</time>
      </trkpt>
      <trkpt lat="45.88496" lon="4.61383">
        <ele>222.52206</ele>
        <time>2023-11-26T14:01:46.000Z</time>
      </trkpt>
      <trkpt lat="45.88495" lon="4.61378">
        <ele>222.82083</ele>
        <time>2023-11-26T14:01:47.000Z</time>
      </trkpt>
      <trkpt lat="45.88495" lon="4.61374">
        <ele>223.00595</ele>
        <time>2023-11-26T14:01:48.000Z</time>
      </trkpt>
      <trkpt lat="45.88494" lon="4.6137">
        <ele>223.21432</ele>
        <time>2023-11-26T14:01:49.000Z</time>
      </trkpt>
      <trkpt lat="45.88493" lon="4.61366">
        <ele>223.38733</ele>
        <time>2023-11-26T14:01:50.000Z</time>
      </trkpt>
      <trkpt lat="45.88493" lon="4.61361">
        <ele>223.67278</ele>
        <time>2023-11-26T14:01:51.000Z</time>
      </trkpt>
      <trkpt lat="45.88492" lon="4.61356">
        <ele>223.92195</ele>
        <time>2023-11-26T14:01:52.000Z</time>
      </trkpt>
      <trkpt lat="45.88491" lon="4.61351">
        <ele>224.18892</ele>
        <time>2023-11-26T14:01:53.000Z</time>
      </trkpt>
      <trkpt lat="45.8849" lon="4.61347">
        <ele>224.42805</ele>
        <time>2023-11-26T14:01:54.000Z</time>
      </trkpt>
      <trkpt lat="45.88489" lon="4.61341">
        <ele>224.65115</ele>
        <time>2023-11-26T14:01:55.000Z</time>
      </trkpt>
      <trkpt lat="45.88488" lon="4.61336">
        <ele>224.89651</ele>
        <time>2023-11-26T14:01:56.000Z</time>
      </trkpt>
      <trkpt lat="45.88487" lon="4.61331">
        <ele>225.14658</ele>
        <time>2023-11-26T14:01:57.000Z</time>
      </trkpt>
      <trkpt lat="45.88486" lon="4.61326">
        <ele>225.3273</ele>
        <time>2023-11-26T14:01:58.000Z</time>
      </trkpt>
      <trkpt lat="45.88486" lon="4.61321">
        <ele>225.4408</ele>
        <time>2023-11-26T14:01:59.000Z</time>
      </trkpt>
      <trkpt lat="45.88485" lon="4.61317">
        <ele>225.56723</ele>
        <time>2023-11-26T14:02:00.000Z</time>
      </trkpt>
      <trkpt lat="45.88484" lon="4.61312">
        <ele>225.66887</ele>
        <time>2023-11-26T14:02:01.000Z</time>
      </trkpt>
      <trkpt lat="45.88484" lon="4.61306">
        <ele>225.7054</ele>
        <time>2023-11-26T14:02:02.000Z</time>
      </trkpt>
      <trkpt lat="45.88483" lon="4.613">
        <ele>225.72299</ele>
        <time>2023-11-26T14:02:03.000Z</time>
      </trkpt>
      <trkpt lat="45.88482" lon="4.61295">
        <ele>225.88785</ele>
        <time>2023-11-26T14:02:04.000Z</time>
      </trkpt>
      <trkpt lat="45.88481" lon="4.6129">
        <ele>226.00655</ele>
        <time>2023-11-26T14:02:05.000Z</time>
      </trkpt>
      <trkpt lat="45.8848" lon="4.61285">
        <ele>226.12248</ele>
        <time>2023-11-26T14:02:06.000Z</time>
      </trkpt>
      <trkpt lat="45.88478" lon="4.6128">
        <ele>226.21931</ele>
        <time>2023-11-26T14:02:07.000Z</time>
      </trkpt>
      <trkpt lat="45.88476" lon="4.61275">
        <ele>226.34639</ele>
        <time>2023-11-26T14:02:08.000Z</time>
      </trkpt>
      <trkpt lat="45.88474" lon="4.61271">
        <ele>226.45496</ele>
        <time>2023-11-26T14:02:09.000Z</time>
      </trkpt>
      <trkpt lat="45.88473" lon="4.61268">
        <ele>226.63684</ele>
        <time>2023-11-26T14:02:10.000Z</time>
      </trkpt>
      <trkpt lat="45.88471" lon="4.61264">
        <ele>226.68291</ele>
        <time>2023-11-26T14:02:11.000Z</time>
      </trkpt>
      <trkpt lat="45.8847" lon="4.6126">
        <ele>226.74612</ele>
        <time>2023-11-26T14:02:12.000Z</time>
      </trkpt>
      <trkpt lat="45.88469" lon="4.61255">
        <ele>226.82625</ele>
        <time>2023-11-26T14:02:13.000Z</time>
      </trkpt>
      <trkpt lat="45.88468" lon="4.61251">
        <ele>226.97192</ele>
        <time>2023-11-26T14:02:14.000Z</time>
      </trkpt>
      <trkpt lat="45.88468" lon="4.61248">
        <ele>226.97563</ele>
        <time>2023-11-26T14:02:15.000Z</time>
      </trkpt>
      <trkpt lat="45.88467" lon="4.61244">
        <ele>226.87357</ele>
        <time>2023-11-26T14:02:16.000Z</time>
      </trkpt>
      <trkpt lat="45.88466" lon="4.61241">
        <ele>226.76712</ele>
        <time>2023-11-26T14:02:17.000Z</time>
      </trkpt>
      <trkpt lat="45.88465" lon="4.61237">
        <ele>226.65039</ele>
        <time>2023-11-26T14:02:18.000Z</time>
      </trkpt>
      <trkpt lat="45.88464" lon="4.61233">
        <ele>226.9427</ele>
        <time>2023-11-26T14:02:19.000Z</time>
      </trkpt>
      <trkpt lat="45.88463" lon="4.61229">
        <ele>227.24283</ele>
        <time>2023-11-26T14:02:20.000Z</time>
      </trkpt>
      <trkpt lat="45.88462" lon="4.61225">
        <ele>227.578</ele>
        <time>2023-11-26T14:02:21.000Z</time>
      </trkpt>
      <trkpt lat="45.8846" lon="4.61221">
        <ele>228.02287</ele>
        <time>2023-11-26T14:02:22.000Z</time>
      </trkpt>
      <trkpt lat="45.88459" lon="4.61217">
        <ele>228.73343</ele>
        <time>2023-11-26T14:02:23.000Z</time>
      </trkpt>
      <trkpt lat="45.88457" lon="4.61213">
        <ele>229.25749</ele>
        <time>2023-11-26T14:02:24.000Z</time>
      </trkpt>
      <trkpt lat="45.88456" lon="4.61209">
        <ele>229.92249</ele>
        <time>2023-11-26T14:02:25.000Z</time>
      </trkpt>
      <trkpt lat="45.88454" lon="4.61206">
        <ele>230.60739</ele>
        <time>2023-11-26T14:02:26.000Z</time>
      </trkpt>
      <trkpt lat="45.88453" lon="4.61203">
        <ele>231.34245</ele>
        <time>2023-11-26T14:02:27.000Z</time>
      </trkpt>
      <trkpt lat="45.88451" lon="4.61199">
        <ele>232.07938</ele>
        <time>2023-11-26T14:02:28.000Z</time>
      </trkpt>
      <trkpt lat="45.8845" lon="4.61196">
        <ele>232.84634</ele>
        <time>2023-11-26T14:02:29.000Z</time>
      </trkpt>
      <trkpt lat="45.88449" lon="4.61193">
        <ele>233.61096</ele>
        <time>2023-11-26T14:02:30.000Z</time>
      </trkpt>
      <trkpt lat="45.88448" lon="4.6119">
        <ele>234.39519</ele>
        <time>2023-11-26T14:02:31.000Z</time>
      </trkpt>
      <trkpt lat="45.88446" lon="4.61187">
        <ele>235.19902</ele>
        <time>2023-11-26T14:02:33.000Z</time>
      </trkpt>
      <trkpt lat="45.88446" lon="4.61184">
        <ele>236.02913</ele>
        <time>2023-11-26T14:02:34.000Z</time>
      </trkpt>
      <trkpt lat="45.88445" lon="4.6118">
        <ele>236.81599</ele>
        <time>2023-11-26T14:02:35.000Z</time>
      </trkpt>
      <trkpt lat="45.88444" lon="4.61177">
        <ele>237.73499</ele>
        <time>2023-11-26T14:02:36.000Z</time>
      </trkpt>
      <trkpt lat="45.88442" lon="4.61174">
        <ele>238.74899</ele>
        <time>2023-11-26T14:02:37.000Z</time>
      </trkpt>
      <trkpt lat="45.88441" lon="4.61171">
        <ele>239.74777</ele>
        <time>2023-11-26T14:02:38.000Z</time>
      </trkpt>
      <trkpt lat="45.8844" lon="4.61167">
        <ele>240.71933</ele>
        <time>2023-11-26T14:02:39.000Z</time>
      </trkpt>
      <trkpt lat="45.88438" lon="4.61164">
        <ele>241.36824</ele>
        <time>2023-11-26T14:02:40.000Z</time>
      </trkpt>
      <trkpt lat="45.88437" lon="4.61161">
        <ele>242.03409</ele>
        <time>2023-11-26T14:02:41.000Z</time>
      </trkpt>
      <trkpt lat="45.88435" lon="4.61157">
        <ele>242.7104</ele>
        <time>2023-11-26T14:02:42.000Z</time>
      </trkpt>
      <trkpt lat="45.88434" lon="4.61154">
        <ele>243.34116</ele>
        <time>2023-11-26T14:02:43.000Z</time>
      </trkpt>
      <trkpt lat="45.88433" lon="4.61151">
        <ele>243.74197</ele>
        <time>2023-11-26T14:02:44.000Z</time>
      </trkpt>
      <trkpt lat="45.88431" lon="4.61148">
        <ele>244.12808</ele>
        <time>2023-11-26T14:02:45.000Z</time>
      </trkpt>
      <trkpt lat="45.8843" lon="4.61146">
        <ele>244.42229</ele>
        <time>2023-11-26T14:02:46.000Z</time>
      </trkpt>
      <trkpt lat="45.88429" lon="4.61143">
        <ele>244.70003</ele>
        <time>2023-11-26T14:02:47.000Z</time>
      </trkpt>
      <trkpt lat="45.88428" lon="4.61139">
        <ele>244.93669</ele>
        <time>2023-11-26T14:02:49.000Z</time>
      </trkpt>
      <trkpt lat="45.88428" lon="4.61136">
        <ele>245.21512</ele>
        <time>2023-11-26T14:02:50.000Z</time>
      </trkpt>
      <trkpt lat="45.88427" lon="4.61133">
        <ele>245.42354</ele>
        <time>2023-11-26T14:02:51.000Z</time>
      </trkpt>
      <trkpt lat="45.88427" lon="4.6113">
        <ele>245.60062</ele>
        <time>2023-11-26T14:02:52.000Z</time>
      </trkpt>
      <trkpt lat="45.88426" lon="4.61126">
        <ele>245.76079</ele>
        <time>2023-11-26T14:02:53.000Z</time>
      </trkpt>
      <trkpt lat="45.88425" lon="4.61123">
        <ele>245.88989</ele>
        <time>2023-11-26T14:02:54.000Z</time>
      </trkpt>
      <trkpt lat="45.88424" lon="4.6112">
        <ele>246.01974</ele>
        <time>2023-11-26T14:02:55.000Z</time>
      </trkpt>
      <trkpt lat="45.88423" lon="4.61116">
        <ele>246.16801</ele>
        <time>2023-11-26T14:02:56.000Z</time>
      </trkpt>
      <trkpt lat="45.88423" lon="4.61112">
        <ele>246.2908</ele>
        <time>2023-11-26T14:02:57.000Z</time>
      </trkpt>
      <trkpt lat="45.88422" lon="4.61108">
        <ele>246.44917</ele>
        <time>2023-11-26T14:02:58.000Z</time>
      </trkpt>
      <trkpt lat="45.88421" lon="4.61105">
        <ele>246.58359</ele>
        <time>2023-11-26T14:02:59.000Z</time>
      </trkpt>
      <trkpt lat="45.8842" lon="4.61101">
        <ele>246.7933</ele>
        <time>2023-11-26T14:03:00.000Z</time>
      </trkpt>
      <trkpt lat="45.8842" lon="4.61097">
        <ele>247.04529</ele>
        <time>2023-11-26T14:03:01.000Z</time>
      </trkpt>
      <trkpt lat="45.88418" lon="4.61093">
        <ele>247.27164</ele>
        <time>2023-11-26T14:03:02.000Z</time>
      </trkpt>
      <trkpt lat="45.88417" lon="4.61089">
        <ele>247.49458</ele>
        <time>2023-11-26T14:03:03.000Z</time>
      </trkpt>
      <trkpt lat="45.88416" lon="4.61087">
        <ele>247.70979</ele>
        <time>2023-11-26T14:03:04.000Z</time>
      </trkpt>
      <trkpt lat="45.88414" lon="4.61084">
        <ele>247.90266</ele>
        <time>2023-11-26T14:03:05.000Z</time>
      </trkpt>
      <trkpt lat="45.88412" lon="4.61082">
        <ele>248.07291</ele>
        <time>2023-11-26T14:03:06.000Z</time>
      </trkpt>
      <trkpt lat="45.8841" lon="4.6108">
        <ele>248.22464</ele>
        <time>2023-11-26T14:03:07.000Z</time>
      </trkpt>
      <trkpt lat="45.88408" lon="4.61078">
        <ele>248.39584</ele>
        <time>2023-11-26T14:03:08.000Z</time>
      </trkpt>
      <trkpt lat="45.88406" lon="4.61076">
        <ele>248.54727</ele>
        <time>2023-11-26T14:03:09.000Z</time>
      </trkpt>
      <trkpt lat="45.88403" lon="4.61073">
        <ele>248.6586</ele>
        <time>2023-11-26T14:03:10.000Z</time>
      </trkpt>
      <trkpt lat="45.884" lon="4.61071">
        <ele>248.80908</ele>
        <time>2023-11-26T14:03:11.000Z</time>
      </trkpt>
      <trkpt lat="45.88397" lon="4.61069">
        <ele>248.92944</ele>
        <time>2023-11-26T14:03:12.000Z</time>
      </trkpt>
      <trkpt lat="45.88394" lon="4.61067">
        <ele>249.05962</ele>
        <time>2023-11-26T14:03:13.000Z</time>
      </trkpt>
      <trkpt lat="45.88392" lon="4.61066">
        <ele>249.18872</ele>
        <time>2023-11-26T14:03:14.000Z</time>
      </trkpt>
      <trkpt lat="45.88389" lon="4.61064">
        <ele>249.26181</ele>
        <time>2023-11-26T14:03:15.000Z</time>
      </trkpt>
      <trkpt lat="45.88386" lon="4.61061">
        <ele>249.31104</ele>
        <time>2023-11-26T14:03:16.000Z</time>
      </trkpt>
      <trkpt lat="45.88383" lon="4.61059">
        <ele>249.41373</ele>
        <time>2023-11-26T14:03:17.000Z</time>
      </trkpt>
      <trkpt lat="45.88381" lon="4.61057">
        <ele>249.46712</ele>
        <time>2023-11-26T14:03:18.000Z</time>
      </trkpt>
      <trkpt lat="45.88379" lon="4.61055">
        <ele>249.54416</ele>
        <time>2023-11-26T14:03:19.000Z</time>
      </trkpt>
      <trkpt lat="45.88377" lon="4.61051">
        <ele>249.52426</ele>
        <time>2023-11-26T14:03:20.000Z</time>
      </trkpt>
      <trkpt lat="45.88375" lon="4.61048">
        <ele>249.46819</ele>
        <time>2023-11-26T14:03:21.000Z</time>
      </trkpt>
      <trkpt lat="45.88374" lon="4.61043">
        <ele>249.3903</ele>
        <time>2023-11-26T14:03:22.000Z</time>
      </trkpt>
      <trkpt lat="45.88374" lon="4.61038">
        <ele>249.33255</ele>
        <time>2023-11-26T14:03:23.000Z</time>
      </trkpt>
      <trkpt lat="45.88374" lon="4.61033">
        <ele>249.30984</ele>
        <time>2023-11-26T14:03:24.000Z</time>
      </trkpt>
      <trkpt lat="45.88374" lon="4.61028">
        <ele>249.27669</ele>
        <time>2023-11-26T14:03:25.000Z</time>
      </trkpt>
      <trkpt lat="45.88375" lon="4.61022">
        <ele>249.25089</ele>
        <time>2023-11-26T14:03:26.000Z</time>
      </trkpt>
      <trkpt lat="45.88376" lon="4.61018">
        <ele>249.25821</ele>
        <time>2023-11-26T14:03:27.000Z</time>
      </trkpt>
      <trkpt lat="45.88377" lon="4.61013">
        <ele>249.24734</ele>
        <time>2023-11-26T14:03:28.000Z</time>
      </trkpt>
      <trkpt lat="45.88378" lon="4.61009">
        <ele>249.23882</ele>
        <time>2023-11-26T14:03:29.000Z</time>
      </trkpt>
      <trkpt lat="45.88379" lon="4.61004">
        <ele>249.28999</ele>
        <time>2023-11-26T14:03:30.000Z</time>
      </trkpt>
      <trkpt lat="45.88381" lon="4.61">
        <ele>249.30803</ele>
        <time>2023-11-26T14:03:31.000Z</time>
      </trkpt>
      <trkpt lat="45.88383" lon="4.60997">
        <ele>249.36649</ele>
        <time>2023-11-26T14:03:32.000Z</time>
      </trkpt>
      <trkpt lat="45.88386" lon="4.60993">
        <ele>249.51062</ele>
        <time>2023-11-26T14:03:33.000Z</time>
      </trkpt>
      <trkpt lat="45.88389" lon="4.6099">
        <ele>249.65279</ele>
        <time>2023-11-26T14:03:34.000Z</time>
      </trkpt>
      <trkpt lat="45.88391" lon="4.60986">
        <ele>249.82751</ele>
        <time>2023-11-26T14:03:35.000Z</time>
      </trkpt>
      <trkpt lat="45.88394" lon="4.60983">
        <ele>249.9791</ele>
        <time>2023-11-26T14:03:36.000Z</time>
      </trkpt>
      <trkpt lat="45.88397" lon="4.6098">
        <ele>250.2636</ele>
        <time>2023-11-26T14:03:37.000Z</time>
      </trkpt>
      <trkpt lat="45.88399" lon="4.60978">
        <ele>250.50957</ele>
        <time>2023-11-26T14:03:38.000Z</time>
      </trkpt>
      <trkpt lat="45.88401" lon="4.60976">
        <ele>250.61063</ele>
        <time>2023-11-26T14:03:39.000Z</time>
      </trkpt>
      <trkpt lat="45.88403" lon="4.60974">
        <ele>250.75725</ele>
        <time>2023-11-26T14:03:40.000Z</time>
      </trkpt>
      <trkpt lat="45.88406" lon="4.60972">
        <ele>250.91521</ele>
        <time>2023-11-26T14:03:41.000Z</time>
      </trkpt>
      <trkpt lat="45.88408" lon="4.60969">
        <ele>250.73624</ele>
        <time>2023-11-26T14:03:42.000Z</time>
      </trkpt>
      <trkpt lat="45.88411" lon="4.60968">
        <ele>250.30415</ele>
        <time>2023-11-26T14:03:43.000Z</time>
      </trkpt>
      <trkpt lat="45.88414" lon="4.60966">
        <ele>250.32431</ele>
        <time>2023-11-26T14:03:44.000Z</time>
      </trkpt>
      <trkpt lat="45.88417" lon="4.60964">
        <ele>250.32869</ele>
        <time>2023-11-26T14:03:45.000Z</time>
      </trkpt>
      <trkpt lat="45.88419" lon="4.60963">
        <ele>250.43777</ele>
        <time>2023-11-26T14:03:46.000Z</time>
      </trkpt>
      <trkpt lat="45.88423" lon="4.60961">
        <ele>250.47839</ele>
        <time>2023-11-26T14:03:47.000Z</time>
      </trkpt>
      <trkpt lat="45.88425" lon="4.6096">
        <ele>250.50513</ele>
        <time>2023-11-26T14:03:48.000Z</time>
      </trkpt>
      <trkpt lat="45.88428" lon="4.60958">
        <ele>250.56172</ele>
        <time>2023-11-26T14:03:49.000Z</time>
      </trkpt>
      <trkpt lat="45.88431" lon="4.60956">
        <ele>250.24011</ele>
        <time>2023-11-26T14:03:50.000Z</time>
      </trkpt>
      <trkpt lat="45.88434" lon="4.60954">
        <ele>249.93381</ele>
        <time>2023-11-26T14:03:51.000Z</time>
      </trkpt>
      <trkpt lat="45.88437" lon="4.60953">
        <ele>249.64694</ele>
        <time>2023-11-26T14:03:52.000Z</time>
      </trkpt>
      <trkpt lat="45.8844" lon="4.60951">
        <ele>249.24153</ele>
        <time>2023-11-26T14:03:53.000Z</time>
      </trkpt>
      <trkpt lat="45.88443" lon="4.6095">
        <ele>248.72774</ele>
        <time>2023-11-26T14:03:54.000Z</time>
      </trkpt>
      <trkpt lat="45.88446" lon="4.60948">
        <ele>248.13069</ele>
        <time>2023-11-26T14:03:55.000Z</time>
      </trkpt>
      <trkpt lat="45.88449" lon="4.60946">
        <ele>247.53098</ele>
        <time>2023-11-26T14:03:56.000Z</time>
      </trkpt>
      <trkpt lat="45.88452" lon="4.60945">
        <ele>246.80432</ele>
        <time>2023-11-26T14:03:57.000Z</time>
      </trkpt>
      <trkpt lat="45.88455" lon="4.60943">
        <ele>246.46053</ele>
        <time>2023-11-26T14:03:58.000Z</time>
      </trkpt>
      <trkpt lat="45.88458" lon="4.60941">
        <ele>246.19641</ele>
        <time>2023-11-26T14:03:59.000Z</time>
      </trkpt>
      <trkpt lat="45.88461" lon="4.60938">
        <ele>245.87517</ele>
        <time>2023-11-26T14:04:00.000Z</time>
      </trkpt>
      <trkpt lat="45.88463" lon="4.60936">
        <ele>245.56128</ele>
        <time>2023-11-26T14:04:01.000Z</time>
      </trkpt>
      <trkpt lat="45.88466" lon="4.60933">
        <ele>245.59314</ele>
        <time>2023-11-26T14:04:02.000Z</time>
      </trkpt>
      <trkpt lat="45.8847" lon="4.60931">
        <ele>245.82339</ele>
        <time>2023-11-26T14:04:03.000Z</time>
      </trkpt>
      <trkpt lat="45.88473" lon="4.60928">
        <ele>245.53117</ele>
        <time>2023-11-26T14:04:04.000Z</time>
      </trkpt>
      <trkpt lat="45.88476" lon="4.60925">
        <ele>245.27817</ele>
        <time>2023-11-26T14:04:05.000Z</time>
      </trkpt>
      <trkpt lat="45.88479" lon="4.60922">
        <ele>244.93771</ele>
        <time>2023-11-26T14:04:06.000Z</time>
      </trkpt>
      <trkpt lat="45.88482" lon="4.60919">
        <ele>244.63277</ele>
        <time>2023-11-26T14:04:07.000Z</time>
      </trkpt>
      <trkpt lat="45.88484" lon="4.60916">
        <ele>244.21475</ele>
        <time>2023-11-26T14:04:08.000Z</time>
      </trkpt>
      <trkpt lat="45.88488" lon="4.60913">
        <ele>243.76372</ele>
        <time>2023-11-26T14:04:09.000Z</time>
      </trkpt>
      <trkpt lat="45.88491" lon="4.6091">
        <ele>243.64334</ele>
        <time>2023-11-26T14:04:10.000Z</time>
      </trkpt>
      <trkpt lat="45.88494" lon="4.60907">
        <ele>243.57791</ele>
        <time>2023-11-26T14:04:11.000Z</time>
      </trkpt>
      <trkpt lat="45.88498" lon="4.60904">
        <ele>243.55745</ele>
        <time>2023-11-26T14:04:12.000Z</time>
      </trkpt>
      <trkpt lat="45.88501" lon="4.60901">
        <ele>243.63687</ele>
        <time>2023-11-26T14:04:13.000Z</time>
      </trkpt>
      <trkpt lat="45.88504" lon="4.60898">
        <ele>243.82222</ele>
        <time>2023-11-26T14:04:14.000Z</time>
      </trkpt>
      <trkpt lat="45.88507" lon="4.60895">
        <ele>244.04111</ele>
        <time>2023-11-26T14:04:15.000Z</time>
      </trkpt>
      <trkpt lat="45.8851" lon="4.60892">
        <ele>244.27548</ele>
        <time>2023-11-26T14:04:16.000Z</time>
      </trkpt>
      <trkpt lat="45.88513" lon="4.60889">
        <ele>244.47539</ele>
        <time>2023-11-26T14:04:17.000Z</time>
      </trkpt>
      <trkpt lat="45.88517" lon="4.60886">
        <ele>244.33086</ele>
        <time>2023-11-26T14:04:18.000Z</time>
      </trkpt>
      <trkpt lat="45.8852" lon="4.60882">
        <ele>244.22226</ele>
        <time>2023-11-26T14:04:19.000Z</time>
      </trkpt>
      <trkpt lat="45.88524" lon="4.60878">
        <ele>244.16446</ele>
        <time>2023-11-26T14:04:20.000Z</time>
      </trkpt>
      <trkpt lat="45.88528" lon="4.60875">
        <ele>244.0782</ele>
        <time>2023-11-26T14:04:21.000Z</time>
      </trkpt>
      <trkpt lat="45.88531" lon="4.60872">
        <ele>243.94553</ele>
        <time>2023-11-26T14:04:22.000Z</time>
      </trkpt>
      <trkpt lat="45.88535" lon="4.60869">
        <ele>243.62558</ele>
        <time>2023-11-26T14:04:23.000Z</time>
      </trkpt>
      <trkpt lat="45.88538" lon="4.60866">
        <ele>243.68245</ele>
        <time>2023-11-26T14:04:24.000Z</time>
      </trkpt>
      <trkpt lat="45.88542" lon="4.60863">
        <ele>243.63705</ele>
        <time>2023-11-26T14:04:25.000Z</time>
      </trkpt>
      <trkpt lat="45.88545" lon="4.6086">
        <ele>243.67534</ele>
        <time>2023-11-26T14:04:26.000Z</time>
      </trkpt>
      <trkpt lat="45.88548" lon="4.60857">
        <ele>243.75662</ele>
        <time>2023-11-26T14:04:27.000Z</time>
      </trkpt>
      <trkpt lat="45.88552" lon="4.60853">
        <ele>243.95297</ele>
        <time>2023-11-26T14:04:28.000Z</time>
      </trkpt>
      <trkpt lat="45.88555" lon="4.6085">
        <ele>244.19905</ele>
        <time>2023-11-26T14:04:29.000Z</time>
      </trkpt>
      <trkpt lat="45.88558" lon="4.60847">
        <ele>244.39336</ele>
        <time>2023-11-26T14:04:30.000Z</time>
      </trkpt>
      <trkpt lat="45.88561" lon="4.60843">
        <ele>244.51477</ele>
        <time>2023-11-26T14:04:31.000Z</time>
      </trkpt>
      <trkpt lat="45.88564" lon="4.60839">
        <ele>244.57365</ele>
        <time>2023-11-26T14:04:32.000Z</time>
      </trkpt>
      <trkpt lat="45.88567" lon="4.60835">
        <ele>244.54948</ele>
        <time>2023-11-26T14:04:33.000Z</time>
      </trkpt>
      <trkpt lat="45.8857" lon="4.60831">
        <ele>244.52563</ele>
        <time>2023-11-26T14:04:34.000Z</time>
      </trkpt>
      <trkpt lat="45.88573" lon="4.60827">
        <ele>244.53313</ele>
        <time>2023-11-26T14:04:35.000Z</time>
      </trkpt>
      <trkpt lat="45.88576" lon="4.60823">
        <ele>244.58774</ele>
        <time>2023-11-26T14:04:36.000Z</time>
      </trkpt>
      <trkpt lat="45.88577" lon="4.60817">
        <ele>244.65454</ele>
        <time>2023-11-26T14:04:37.000Z</time>
      </trkpt>
      <trkpt lat="45.8858" lon="4.60812">
        <ele>244.77649</ele>
        <time>2023-11-26T14:04:38.000Z</time>
      </trkpt>
      <trkpt lat="45.88582" lon="4.60806">
        <ele>244.94148</ele>
        <time>2023-11-26T14:04:39.000Z</time>
      </trkpt>
      <trkpt lat="45.88582" lon="4.608">
        <ele>245.13509</ele>
        <time>2023-11-26T14:04:40.000Z</time>
      </trkpt>
      <trkpt lat="45.88583" lon="4.60794">
        <ele>245.16756</ele>
        <time>2023-11-26T14:04:41.000Z</time>
      </trkpt>
      <trkpt lat="45.88583" lon="4.60786">
        <ele>245.23502</ele>
        <time>2023-11-26T14:04:42.000Z</time>
      </trkpt>
      <trkpt lat="45.88582" lon="4.60779">
        <ele>245.44235</ele>
        <time>2023-11-26T14:04:43.000Z</time>
      </trkpt>
      <trkpt lat="45.88582" lon="4.60773">
        <ele>245.20969</ele>
        <time>2023-11-26T14:04:44.000Z</time>
      </trkpt>
      <trkpt lat="45.8858" lon="4.60768">
        <ele>245.44241</ele>
        <time>2023-11-26T14:04:45.000Z</time>
      </trkpt>
      <trkpt lat="45.88578" lon="4.60762">
        <ele>245.59843</ele>
        <time>2023-11-26T14:04:46.000Z</time>
      </trkpt>
      <trkpt lat="45.88577" lon="4.60756">
        <ele>245.71579</ele>
        <time>2023-11-26T14:04:47.000Z</time>
      </trkpt>
      <trkpt lat="45.88575" lon="4.6075">
        <ele>245.85385</ele>
        <time>2023-11-26T14:04:48.000Z</time>
      </trkpt>
      <trkpt lat="45.88573" lon="4.60745">
        <ele>245.97495</ele>
        <time>2023-11-26T14:04:49.000Z</time>
      </trkpt>
      <trkpt lat="45.88571" lon="4.60739">
        <ele>246.1702</ele>
        <time>2023-11-26T14:04:50.000Z</time>
      </trkpt>
      <trkpt lat="45.88569" lon="4.60734">
        <ele>246.40329</ele>
        <time>2023-11-26T14:04:51.000Z</time>
      </trkpt>
      <trkpt lat="45.88567" lon="4.6073">
        <ele>246.65775</ele>
        <time>2023-11-26T14:04:52.000Z</time>
      </trkpt>
      <trkpt lat="45.88566" lon="4.60725">
        <ele>246.92969</ele>
        <time>2023-11-26T14:04:53.000Z</time>
      </trkpt>
      <trkpt lat="45.88564" lon="4.6072">
        <ele>247.2404</ele>
        <time>2023-11-26T14:04:54.000Z</time>
      </trkpt>
      <trkpt lat="45.88562" lon="4.60715">
        <ele>247.52518</ele>
        <time>2023-11-26T14:04:55.000Z</time>
      </trkpt>
      <trkpt lat="45.88561" lon="4.6071">
        <ele>247.68723</ele>
        <time>2023-11-26T14:04:56.000Z</time>
      </trkpt>
      <trkpt lat="45.88559" lon="4.60705">
        <ele>247.85001</ele>
        <time>2023-11-26T14:04:57.000Z</time>
      </trkpt>
      <trkpt lat="45.88557" lon="4.60699">
        <ele>247.99197</ele>
        <time>2023-11-26T14:04:58.000Z</time>
      </trkpt>
      <trkpt lat="45.88554" lon="4.60694">
        <ele>248.11406</ele>
        <time>2023-11-26T14:04:59.000Z</time>
      </trkpt>
      <trkpt lat="45.88552" lon="4.60689">
        <ele>248.19856</ele>
        <time>2023-11-26T14:05:00.000Z</time>
      </trkpt>
      <trkpt lat="45.8855" lon="4.60684">
        <ele>248.48697</ele>
        <time>2023-11-26T14:05:01.000Z</time>
      </trkpt>
      <trkpt lat="45.88547" lon="4.60679">
        <ele>248.78088</ele>
        <time>2023-11-26T14:05:02.000Z</time>
      </trkpt>
      <trkpt lat="45.88545" lon="4.60674">
        <ele>248.85429</ele>
        <time>2023-11-26T14:05:03.000Z</time>
      </trkpt>
      <trkpt lat="45.88543" lon="4.60668">
        <ele>249.50761</ele>
        <time>2023-11-26T14:05:04.000Z</time>
      </trkpt>
      <trkpt lat="45.8854" lon="4.60663">
        <ele>249.37061</ele>
        <time>2023-11-26T14:05:05.000Z</time>
      </trkpt>
      <trkpt lat="45.88538" lon="4.60658">
        <ele>249.35884</ele>
        <time>2023-11-26T14:05:06.000Z</time>
      </trkpt>
      <trkpt lat="45.88536" lon="4.60653">
        <ele>249.09407</ele>
        <time>2023-11-26T14:05:07.000Z</time>
      </trkpt>
      <trkpt lat="45.88533" lon="4.60649">
        <ele>250.3457</ele>
        <time>2023-11-26T14:05:08.000Z</time>
      </trkpt>
      <trkpt lat="45.88531" lon="4.60644">
        <ele>250.50586</ele>
        <time>2023-11-26T14:05:09.000Z</time>
      </trkpt>
      <trkpt lat="45.88529" lon="4.6064">
        <ele>250.64063</ele>
        <time>2023-11-26T14:05:10.000Z</time>
      </trkpt>
      <trkpt lat="45.88527" lon="4.60635">
        <ele>250.79663</ele>
        <time>2023-11-26T14:05:11.000Z</time>
      </trkpt>
      <trkpt lat="45.88524" lon="4.6063">
        <ele>250.88113</ele>
        <time>2023-11-26T14:05:12.000Z</time>
      </trkpt>
      <trkpt lat="45.88522" lon="4.60625">
        <ele>251.17691</ele>
        <time>2023-11-26T14:05:13.000Z</time>
      </trkpt>
      <trkpt lat="45.8852" lon="4.6062">
        <ele>251.44319</ele>
        <time>2023-11-26T14:05:14.000Z</time>
      </trkpt>
      <trkpt lat="45.88518" lon="4.60615">
        <ele>251.76855</ele>
        <time>2023-11-26T14:05:15.000Z</time>
      </trkpt>
      <trkpt lat="45.88516" lon="4.6061">
        <ele>252.16333</ele>
        <time>2023-11-26T14:05:16.000Z</time>
      </trkpt>
      <trkpt lat="45.88514" lon="4.60605">
        <ele>252.56274</ele>
        <time>2023-11-26T14:05:17.000Z</time>
      </trkpt>
      <trkpt lat="45.88511" lon="4.606">
        <ele>253.73592</ele>
        <time>2023-11-26T14:05:18.000Z</time>
      </trkpt>
      <trkpt lat="45.88509" lon="4.60595">
        <ele>254.90137</ele>
        <time>2023-11-26T14:05:19.000Z</time>
      </trkpt>
      <trkpt lat="45.88507" lon="4.6059">
        <ele>256.0976</ele>
        <time>2023-11-26T14:05:20.000Z</time>
      </trkpt>
      <trkpt lat="45.88504" lon="4.60585">
        <ele>257.25952</ele>
        <time>2023-11-26T14:05:21.000Z</time>
      </trkpt>
      <trkpt lat="45.88502" lon="4.6058">
        <ele>258.45636</ele>
        <time>2023-11-26T14:05:22.000Z</time>
      </trkpt>
      <trkpt lat="45.885" lon="4.60575">
        <ele>259.11761</ele>
        <time>2023-11-26T14:05:23.000Z</time>
      </trkpt>
      <trkpt lat="45.88499" lon="4.6057">
        <ele>259.27194</ele>
        <time>2023-11-26T14:05:24.000Z</time>
      </trkpt>
      <trkpt lat="45.88497" lon="4.60565">
        <ele>259.76776</ele>
        <time>2023-11-26T14:05:25.000Z</time>
      </trkpt>
      <trkpt lat="45.88495" lon="4.6056">
        <ele>260.17899</ele>
        <time>2023-11-26T14:05:26.000Z</time>
      </trkpt>
      <trkpt lat="45.88492" lon="4.60555">
        <ele>260.94467</ele>
        <time>2023-11-26T14:05:27.000Z</time>
      </trkpt>
      <trkpt lat="45.8849" lon="4.6055">
        <ele>260.19931</ele>
        <time>2023-11-26T14:05:28.000Z</time>
      </trkpt>
      <trkpt lat="45.88488" lon="4.60545">
        <ele>260.60004</ele>
        <time>2023-11-26T14:05:29.000Z</time>
      </trkpt>
      <trkpt lat="45.88485" lon="4.6054">
        <ele>260.88019</ele>
        <time>2023-11-26T14:05:30.000Z</time>
      </trkpt>
      <trkpt lat="45.88483" lon="4.60535">
        <ele>261.10483</ele>
        <time>2023-11-26T14:05:31.000Z</time>
      </trkpt>
      <trkpt lat="45.8848" lon="4.6053">
        <ele>261.38672</ele>
        <time>2023-11-26T14:05:32.000Z</time>
      </trkpt>
      <trkpt lat="45.88478" lon="4.60525">
        <ele>261.4101</ele>
        <time>2023-11-26T14:05:33.000Z</time>
      </trkpt>
      <trkpt lat="45.88476" lon="4.6052">
        <ele>261.48926</ele>
        <time>2023-11-26T14:05:34.000Z</time>
      </trkpt>
      <trkpt lat="45.88473" lon="4.60514">
        <ele>261.54459</ele>
        <time>2023-11-26T14:05:35.000Z</time>
      </trkpt>
      <trkpt lat="45.88471" lon="4.60509">
        <ele>261.5932</ele>
        <time>2023-11-26T14:05:36.000Z</time>
      </trkpt>
      <trkpt lat="45.88468" lon="4.60504">
        <ele>261.66144</ele>
        <time>2023-11-26T14:05:37.000Z</time>
      </trkpt>
      <trkpt lat="45.88466" lon="4.60498">
        <ele>260.9343</ele>
        <time>2023-11-26T14:05:38.000Z</time>
      </trkpt>
      <trkpt lat="45.88463" lon="4.60493">
        <ele>260.20953</ele>
        <time>2023-11-26T14:05:39.000Z</time>
      </trkpt>
      <trkpt lat="45.8846" lon="4.60488">
        <ele>259.4296</ele>
        <time>2023-11-26T14:05:40.000Z</time>
      </trkpt>
      <trkpt lat="45.88457" lon="4.60483">
        <ele>258.79733</ele>
        <time>2023-11-26T14:05:41.000Z</time>
      </trkpt>
      <trkpt lat="45.88455" lon="4.60478">
        <ele>258.13995</ele>
        <time>2023-11-26T14:05:42.000Z</time>
      </trkpt>
      <trkpt lat="45.88453" lon="4.60472">
        <ele>258.284</ele>
        <time>2023-11-26T14:05:43.000Z</time>
      </trkpt>
      <trkpt lat="45.8845" lon="4.60468">
        <ele>258.44681</ele>
        <time>2023-11-26T14:05:44.000Z</time>
      </trkpt>
      <trkpt lat="45.88447" lon="4.60462">
        <ele>258.6918</ele>
        <time>2023-11-26T14:05:45.000Z</time>
      </trkpt>
      <trkpt lat="45.88445" lon="4.60457">
        <ele>258.87784</ele>
        <time>2023-11-26T14:05:46.000Z</time>
      </trkpt>
      <trkpt lat="45.88444" lon="4.60452">
        <ele>258.91125</ele>
        <time>2023-11-26T14:05:47.000Z</time>
      </trkpt>
      <trkpt lat="45.88442" lon="4.60448">
        <ele>258.85065</ele>
        <time>2023-11-26T14:05:48.000Z</time>
      </trkpt>
      <trkpt lat="45.8844" lon="4.60444">
        <ele>259.90704</ele>
        <time>2023-11-26T14:05:49.000Z</time>
      </trkpt>
      <trkpt lat="45.88439" lon="4.6044">
        <ele>260.78769</ele>
        <time>2023-11-26T14:05:50.000Z</time>
      </trkpt>
      <trkpt lat="45.88437" lon="4.60437">
        <ele>261.71008</ele>
        <time>2023-11-26T14:05:51.000Z</time>
      </trkpt>
      <trkpt lat="45.88436" lon="4.60434">
        <ele>262.62802</ele>
        <time>2023-11-26T14:05:52.000Z</time>
      </trkpt>
      <trkpt lat="45.88435" lon="4.60431">
        <ele>263.58481</ele>
        <time>2023-11-26T14:05:53.000Z</time>
      </trkpt>
      <trkpt lat="45.88434" lon="4.60428">
        <ele>264.49564</ele>
        <time>2023-11-26T14:05:54.000Z</time>
      </trkpt>
      <trkpt lat="45.88434" lon="4.60425">
        <ele>265.44196</ele>
        <time>2023-11-26T14:05:55.000Z</time>
      </trkpt>
      <trkpt lat="45.88433" lon="4.60422">
        <ele>266.36279</ele>
        <time>2023-11-26T14:05:56.000Z</time>
      </trkpt>
      <trkpt lat="45.88431" lon="4.60419">
        <ele>267.28204</ele>
        <time>2023-11-26T14:05:57.000Z</time>
      </trkpt>
      <trkpt lat="45.88429" lon="4.60416">
        <ele>268.2189</ele>
        <time>2023-11-26T14:05:58.000Z</time>
      </trkpt>
      <trkpt lat="45.88426" lon="4.60413">
        <ele>269.17328</ele>
        <time>2023-11-26T14:05:59.000Z</time>
      </trkpt>
      <trkpt lat="45.88423" lon="4.6041">
        <ele>270.0799</ele>
        <time>2023-11-26T14:06:00.000Z</time>
      </trkpt>
      <trkpt lat="45.88421" lon="4.60407">
        <ele>270.72684</ele>
        <time>2023-11-26T14:06:01.000Z</time>
      </trkpt>
      <trkpt lat="45.8842" lon="4.60403">
        <ele>271.33295</ele>
        <time>2023-11-26T14:06:02.000Z</time>
      </trkpt>
      <trkpt lat="45.88418" lon="4.60399">
        <ele>271.92072</ele>
        <time>2023-11-26T14:06:03.000Z</time>
      </trkpt>
      <trkpt lat="45.88417" lon="4.60396">
        <ele>272.49945</ele>
        <time>2023-11-26T14:06:04.000Z</time>
      </trkpt>
      <trkpt lat="45.88415" lon="4.60394">
        <ele>273.06168</ele>
        <time>2023-11-26T14:06:05.000Z</time>
      </trkpt>
      <trkpt lat="45.88412" lon="4.60391">
        <ele>273.64557</ele>
        <time>2023-11-26T14:06:06.000Z</time>
      </trkpt>
      <trkpt lat="45.88409" lon="4.6039">
        <ele>274.29117</ele>
        <time>2023-11-26T14:06:07.000Z</time>
      </trkpt>
      <trkpt lat="45.88405" lon="4.60391">
        <ele>274.37933</ele>
        <time>2023-11-26T14:06:08.000Z</time>
      </trkpt>
      <trkpt lat="45.88402" lon="4.60393">
        <ele>273.28854</ele>
        <time>2023-11-26T14:06:09.000Z</time>
      </trkpt>
      <trkpt lat="45.88399" lon="4.60396">
        <ele>272.51376</ele>
        <time>2023-11-26T14:06:10.000Z</time>
      </trkpt>
      <trkpt lat="45.88397" lon="4.60399">
        <ele>271.73087</ele>
        <time>2023-11-26T14:06:11.000Z</time>
      </trkpt>
      <trkpt lat="45.88394" lon="4.60401">
        <ele>270.94128</ele>
        <time>2023-11-26T14:06:12.000Z</time>
      </trkpt>
      <trkpt lat="45.88392" lon="4.60403">
        <ele>270.15918</ele>
        <time>2023-11-26T14:06:13.000Z</time>
      </trkpt>
      <trkpt lat="45.88389" lon="4.60405">
        <ele>269.40527</ele>
        <time>2023-11-26T14:06:14.000Z</time>
      </trkpt>
      <trkpt lat="45.88386" lon="4.60406">
        <ele>268.61578</ele>
        <time>2023-11-26T14:06:15.000Z</time>
      </trkpt>
      <trkpt lat="45.88384" lon="4.60408">
        <ele>267.8541</ele>
        <time>2023-11-26T14:06:16.000Z</time>
      </trkpt>
      <trkpt lat="45.88381" lon="4.60409">
        <ele>267.09305</ele>
        <time>2023-11-26T14:06:17.000Z</time>
      </trkpt>
      <trkpt lat="45.88378" lon="4.60411">
        <ele>266.33005</ele>
        <time>2023-11-26T14:06:18.000Z</time>
      </trkpt>
      <trkpt lat="45.88375" lon="4.60411">
        <ele>265.56305</ele>
        <time>2023-11-26T14:06:19.000Z</time>
      </trkpt>
      <trkpt lat="45.88372" lon="4.60412">
        <ele>264.87396</ele>
        <time>2023-11-26T14:06:20.000Z</time>
      </trkpt>
      <trkpt lat="45.88368" lon="4.60412">
        <ele>264.26398</ele>
        <time>2023-11-26T14:06:21.000Z</time>
      </trkpt>
      <trkpt lat="45.88363" lon="4.6041">
        <ele>263.60953</ele>
        <time>2023-11-26T14:06:22.000Z</time>
      </trkpt>
      <trkpt lat="45.88358" lon="4.6041">
        <ele>263.00732</ele>
        <time>2023-11-26T14:06:23.000Z</time>
      </trkpt>
      <trkpt lat="45.88354" lon="4.60407">
        <ele>262.37653</ele>
        <time>2023-11-26T14:06:24.000Z</time>
      </trkpt>
      <trkpt lat="45.88349" lon="4.60404">
        <ele>261.8421</ele>
        <time>2023-11-26T14:06:25.000Z</time>
      </trkpt>
      <trkpt lat="45.88345" lon="4.60401">
        <ele>261.29572</ele>
        <time>2023-11-26T14:06:26.000Z</time>
      </trkpt>
      <trkpt lat="45.8834" lon="4.60397">
        <ele>260.74429</ele>
        <time>2023-11-26T14:06:27.000Z</time>
      </trkpt>
      <trkpt lat="45.88335" lon="4.60393">
        <ele>260.80289</ele>
        <time>2023-11-26T14:06:28.000Z</time>
      </trkpt>
      <trkpt lat="45.8833" lon="4.60389">
        <ele>260.85651</ele>
        <time>2023-11-26T14:06:29.000Z</time>
      </trkpt>
      <trkpt lat="45.88326" lon="4.60387">
        <ele>260.86905</ele>
        <time>2023-11-26T14:06:30.000Z</time>
      </trkpt>
      <trkpt lat="45.88321" lon="4.60385">
        <ele>260.87488</ele>
        <time>2023-11-26T14:06:31.000Z</time>
      </trkpt>
      <trkpt lat="45.88315" lon="4.60384">
        <ele>260.87299</ele>
        <time>2023-11-26T14:06:32.000Z</time>
      </trkpt>
      <trkpt lat="45.8831" lon="4.60384">
        <ele>260.65073</ele>
        <time>2023-11-26T14:06:33.000Z</time>
      </trkpt>
      <trkpt lat="45.88305" lon="4.60383">
        <ele>260.48004</ele>
        <time>2023-11-26T14:06:34.000Z</time>
      </trkpt>
      <trkpt lat="45.88299" lon="4.60383">
        <ele>260.29404</ele>
        <time>2023-11-26T14:06:35.000Z</time>
      </trkpt>
      <trkpt lat="45.88295" lon="4.60384">
        <ele>260.14227</ele>
        <time>2023-11-26T14:06:36.000Z</time>
      </trkpt>
      <trkpt lat="45.8829" lon="4.60385">
        <ele>259.97247</ele>
        <time>2023-11-26T14:06:37.000Z</time>
      </trkpt>
      <trkpt lat="45.88287" lon="4.60386">
        <ele>259.7843</ele>
        <time>2023-11-26T14:06:38.000Z</time>
      </trkpt>
      <trkpt lat="45.88284" lon="4.60386">
        <ele>259.62543</ele>
        <time>2023-11-26T14:06:39.000Z</time>
      </trkpt>
      <trkpt lat="45.88281" lon="4.60386">
        <ele>259.50006</ele>
        <time>2023-11-26T14:06:40.000Z</time>
      </trkpt>
      <trkpt lat="45.88278" lon="4.60387">
        <ele>259.39725</ele>
        <time>2023-11-26T14:06:41.000Z</time>
      </trkpt>
      <trkpt lat="45.88275" lon="4.60387">
        <ele>259.21109</ele>
        <time>2023-11-26T14:06:42.000Z</time>
      </trkpt>
      <trkpt lat="45.88271" lon="4.60388">
        <ele>259.01697</ele>
        <time>2023-11-26T14:06:43.000Z</time>
      </trkpt>
      <trkpt lat="45.88268" lon="4.60388">
        <ele>258.84222</ele>
        <time>2023-11-26T14:06:44.000Z</time>
      </trkpt>
      <trkpt lat="45.88265" lon="4.60389">
        <ele>258.57806</ele>
        <time>2023-11-26T14:06:45.000Z</time>
      </trkpt>
      <trkpt lat="45.88263" lon="4.60388">
        <ele>258.32965</ele>
        <time>2023-11-26T14:06:46.000Z</time>
      </trkpt>
      <trkpt lat="45.8826" lon="4.60388">
        <ele>258.10779</ele>
        <time>2023-11-26T14:06:47.000Z</time>
      </trkpt>
      <trkpt lat="45.88256" lon="4.60389">
        <ele>257.89227</ele>
        <time>2023-11-26T14:06:48.000Z</time>
      </trkpt>
      <trkpt lat="45.88253" lon="4.6039">
        <ele>257.69354</ele>
        <time>2023-11-26T14:06:49.000Z</time>
      </trkpt>
      <trkpt lat="45.88249" lon="4.6039">
        <ele>257.54013</ele>
        <time>2023-11-26T14:06:50.000Z</time>
      </trkpt>
      <trkpt lat="45.88245" lon="4.6039">
        <ele>257.41742</ele>
        <time>2023-11-26T14:06:51.000Z</time>
      </trkpt>
      <trkpt lat="45.88241" lon="4.6039">
        <ele>257.31046</ele>
        <time>2023-11-26T14:06:52.000Z</time>
      </trkpt>
      <trkpt lat="45.88237" lon="4.60389">
        <ele>257.43811</ele>
        <time>2023-11-26T14:06:53.000Z</time>
      </trkpt>
      <trkpt lat="45.88232" lon="4.60388">
        <ele>257.51068</ele>
        <time>2023-11-26T14:06:54.000Z</time>
      </trkpt>
      <trkpt lat="45.88228" lon="4.60387">
        <ele>257.60208</ele>
        <time>2023-11-26T14:06:55.000Z</time>
      </trkpt>
      <trkpt lat="45.88224" lon="4.60386">
        <ele>257.8096</ele>
        <time>2023-11-26T14:06:56.000Z</time>
      </trkpt>
      <trkpt lat="45.8822" lon="4.60385">
        <ele>258.0249</ele>
        <time>2023-11-26T14:06:57.000Z</time>
      </trkpt>
      <trkpt lat="45.88216" lon="4.60384">
        <ele>258.22696</ele>
        <time>2023-11-26T14:06:58.000Z</time>
      </trkpt>
      <trkpt lat="45.88213" lon="4.60383">
        <ele>258.41306</ele>
        <time>2023-11-26T14:06:59.000Z</time>
      </trkpt>
      <trkpt lat="45.8821" lon="4.60382">
        <ele>258.58099</ele>
        <time>2023-11-26T14:07:00.000Z</time>
      </trkpt>
      <trkpt lat="45.88206" lon="4.6038">
        <ele>258.73749</ele>
        <time>2023-11-26T14:07:01.000Z</time>
      </trkpt>
      <trkpt lat="45.88202" lon="4.60378">
        <ele>258.95499</ele>
        <time>2023-11-26T14:07:02.000Z</time>
      </trkpt>
      <trkpt lat="45.88198" lon="4.60376">
        <ele>259.17004</ele>
        <time>2023-11-26T14:07:03.000Z</time>
      </trkpt>
      <trkpt lat="45.88193" lon="4.60374">
        <ele>259.4173</ele>
        <time>2023-11-26T14:07:04.000Z</time>
      </trkpt>
      <trkpt lat="45.88189" lon="4.60372">
        <ele>259.62555</ele>
        <time>2023-11-26T14:07:05.000Z</time>
      </trkpt>
      <trkpt lat="45.88185" lon="4.6037">
        <ele>260.08536</ele>
        <time>2023-11-26T14:07:06.000Z</time>
      </trkpt>
      <trkpt lat="45.88182" lon="4.60367">
        <ele>260.5163</ele>
        <time>2023-11-26T14:07:07.000Z</time>
      </trkpt>
      <trkpt lat="45.88178" lon="4.60364">
        <ele>260.93695</ele>
        <time>2023-11-26T14:07:08.000Z</time>
      </trkpt>
      <trkpt lat="45.88175" lon="4.60361">
        <ele>261.35208</ele>
        <time>2023-11-26T14:07:09.000Z</time>
      </trkpt>
      <trkpt lat="45.88172" lon="4.60357">
        <ele>261.75607</ele>
        <time>2023-11-26T14:07:10.000Z</time>
      </trkpt>
      <trkpt lat="45.88169" lon="4.60353">
        <ele>262.13483</ele>
        <time>2023-11-26T14:07:11.000Z</time>
      </trkpt>
      <trkpt lat="45.88167" lon="4.60348">
        <ele>262.4743</ele>
        <time>2023-11-26T14:07:12.000Z</time>
      </trkpt>
      <trkpt lat="45.88164" lon="4.60343">
        <ele>262.73251</ele>
        <time>2023-11-26T14:07:13.000Z</time>
      </trkpt>
      <trkpt lat="45.88162" lon="4.60338">
        <ele>262.961</ele>
        <time>2023-11-26T14:07:14.000Z</time>
      </trkpt>
      <trkpt lat="45.88161" lon="4.60332">
        <ele>263.15305</ele>
        <time>2023-11-26T14:07:15.000Z</time>
      </trkpt>
      <trkpt lat="45.8816" lon="4.60326">
        <ele>263.22125</ele>
        <time>2023-11-26T14:07:16.000Z</time>
      </trkpt>
      <trkpt lat="45.88161" lon="4.6032">
        <ele>263.33917</ele>
        <time>2023-11-26T14:07:17.000Z</time>
      </trkpt>
      <trkpt lat="45.88163" lon="4.60314">
        <ele>263.39362</ele>
        <time>2023-11-26T14:07:18.000Z</time>
      </trkpt>
      <trkpt lat="45.88165" lon="4.6031">
        <ele>263.45392</ele>
        <time>2023-11-26T14:07:19.000Z</time>
      </trkpt>
      <trkpt lat="45.88168" lon="4.60306">
        <ele>263.47369</ele>
        <time>2023-11-26T14:07:20.000Z</time>
      </trkpt>
      <trkpt lat="45.88171" lon="4.60302">
        <ele>263.48407</ele>
        <time>2023-11-26T14:07:21.000Z</time>
      </trkpt>
      <trkpt lat="45.88173" lon="4.60298">
        <ele>263.55301</ele>
        <time>2023-11-26T14:07:22.000Z</time>
      </trkpt>
      <trkpt lat="45.88176" lon="4.60294">
        <ele>263.91364</ele>
        <time>2023-11-26T14:07:23.000Z</time>
      </trkpt>
      <trkpt lat="45.88178" lon="4.60291">
        <ele>264.23718</ele>
        <time>2023-11-26T14:07:24.000Z</time>
      </trkpt>
      <trkpt lat="45.88181" lon="4.60287">
        <ele>264.58563</ele>
        <time>2023-11-26T14:07:25.000Z</time>
      </trkpt>
      <trkpt lat="45.88183" lon="4.60284">
        <ele>264.68115</ele>
        <time>2023-11-26T14:07:26.000Z</time>
      </trkpt>
      <trkpt lat="45.88186" lon="4.60281">
        <ele>264.63239</ele>
        <time>2023-11-26T14:07:27.000Z</time>
      </trkpt>
      <trkpt lat="45.88188" lon="4.60277">
        <ele>264.60956</ele>
        <time>2023-11-26T14:07:28.000Z</time>
      </trkpt>
      <trkpt lat="45.88189" lon="4.60274">
        <ele>264.6138</ele>
        <time>2023-11-26T14:07:29.000Z</time>
      </trkpt>
      <trkpt lat="45.8819" lon="4.6027">
        <ele>264.64929</ele>
        <time>2023-11-26T14:07:30.000Z</time>
      </trkpt>
      <trkpt lat="45.88189" lon="4.60266">
        <ele>264.6358</ele>
        <time>2023-11-26T14:07:31.000Z</time>
      </trkpt>
      <trkpt lat="45.88187" lon="4.60263">
        <ele>264.63168</ele>
        <time>2023-11-26T14:07:32.000Z</time>
      </trkpt>
      <trkpt lat="45.88185" lon="4.60261">
        <ele>265.01456</ele>
        <time>2023-11-26T14:07:33.000Z</time>
      </trkpt>
      <trkpt lat="45.88181" lon="4.60261">
        <ele>265.37189</ele>
        <time>2023-11-26T14:07:34.000Z</time>
      </trkpt>
      <trkpt lat="45.88178" lon="4.60261">
        <ele>265.759</ele>
        <time>2023-11-26T14:07:35.000Z</time>
      </trkpt>
      <trkpt lat="45.88175" lon="4.60263">
        <ele>266.14847</ele>
        <time>2023-11-26T14:07:36.000Z</time>
      </trkpt>
      <trkpt lat="45.88171" lon="4.60264">
        <ele>266.47369</ele>
        <time>2023-11-26T14:07:37.000Z</time>
      </trkpt>
      <trkpt lat="45.88168" lon="4.60265">
        <ele>266.90036</ele>
        <time>2023-11-26T14:07:38.000Z</time>
      </trkpt>
      <trkpt lat="45.88165" lon="4.60266">
        <ele>267.33429</ele>
        <time>2023-11-26T14:07:39.000Z</time>
      </trkpt>
      <trkpt lat="45.88162" lon="4.60266">
        <ele>267.79221</ele>
        <time>2023-11-26T14:07:40.000Z</time>
      </trkpt>
      <trkpt lat="45.88158" lon="4.60265">
        <ele>268.25922</ele>
        <time>2023-11-26T14:07:41.000Z</time>
      </trkpt>
      <trkpt lat="45.88155" lon="4.60265">
        <ele>268.68964</ele>
        <time>2023-11-26T14:07:42.000Z</time>
      </trkpt>
      <trkpt lat="45.88152" lon="4.60266">
        <ele>268.85162</ele>
        <time>2023-11-26T14:07:43.000Z</time>
      </trkpt>
      <trkpt lat="45.88149" lon="4.60268">
        <ele>269.03043</ele>
        <time>2023-11-26T14:07:44.000Z</time>
      </trkpt>
      <trkpt lat="45.88147" lon="4.6027">
        <ele>268.88254</ele>
        <time>2023-11-26T14:07:45.000Z</time>
      </trkpt>
      <trkpt lat="45.88145" lon="4.60272">
        <ele>269.94525</ele>
        <time>2023-11-26T14:07:46.000Z</time>
      </trkpt>
      <trkpt lat="45.88142" lon="4.60272">
        <ele>271.07138</ele>
        <time>2023-11-26T14:07:48.000Z</time>
      </trkpt>
      <trkpt lat="45.88144" lon="4.60267">
        <ele>272.21347</ele>
        <time>2023-11-26T14:07:50.000Z</time>
      </trkpt>
      <trkpt lat="45.88147" lon="4.60266">
        <ele>273.32941</ele>
        <time>2023-11-26T14:07:51.000Z</time>
      </trkpt>
      <trkpt lat="45.8815" lon="4.60265">
        <ele>274.39545</ele>
        <time>2023-11-26T14:07:52.000Z</time>
      </trkpt>
      <trkpt lat="45.88153" lon="4.60265">
        <ele>274.75342</ele>
        <time>2023-11-26T14:07:53.000Z</time>
      </trkpt>
      <trkpt lat="45.88157" lon="4.60265">
        <ele>274.88052</ele>
        <time>2023-11-26T14:07:54.000Z</time>
      </trkpt>
      <trkpt lat="45.8816" lon="4.60265">
        <ele>275.63647</ele>
        <time>2023-11-26T14:07:55.000Z</time>
      </trkpt>
      <trkpt lat="45.88164" lon="4.60265">
        <ele>276.388</ele>
        <time>2023-11-26T14:07:56.000Z</time>
      </trkpt>
      <trkpt lat="45.88168" lon="4.60265">
        <ele>277.13519</ele>
        <time>2023-11-26T14:07:57.000Z</time>
      </trkpt>
      <trkpt lat="45.88172" lon="4.60264">
        <ele>277.12814</ele>
        <time>2023-11-26T14:07:58.000Z</time>
      </trkpt>
      <trkpt lat="45.88176" lon="4.60263">
        <ele>277.1127</ele>
        <time>2023-11-26T14:07:59.000Z</time>
      </trkpt>
      <trkpt lat="45.88181" lon="4.60262">
        <ele>277.09393</ele>
        <time>2023-11-26T14:08:00.000Z</time>
      </trkpt>
      <trkpt lat="45.88185" lon="4.60263">
        <ele>277.03265</ele>
        <time>2023-11-26T14:08:01.000Z</time>
      </trkpt>
      <trkpt lat="45.88189" lon="4.60262">
        <ele>276.95279</ele>
        <time>2023-11-26T14:08:02.000Z</time>
      </trkpt>
      <trkpt lat="45.88194" lon="4.60261">
        <ele>276.84064</ele>
        <time>2023-11-26T14:08:03.000Z</time>
      </trkpt>
      <trkpt lat="45.88198" lon="4.60259">
        <ele>276.797</ele>
        <time>2023-11-26T14:08:04.000Z</time>
      </trkpt>
      <trkpt lat="45.88201" lon="4.60257">
        <ele>276.73871</ele>
        <time>2023-11-26T14:08:05.000Z</time>
      </trkpt>
      <trkpt lat="45.88205" lon="4.60256">
        <ele>276.67456</ele>
        <time>2023-11-26T14:08:06.000Z</time>
      </trkpt>
      <trkpt lat="45.88209" lon="4.60255">
        <ele>276.8985</ele>
        <time>2023-11-26T14:08:07.000Z</time>
      </trkpt>
      <trkpt lat="45.88214" lon="4.60254">
        <ele>275.86847</ele>
        <time>2023-11-26T14:08:08.000Z</time>
      </trkpt>
      <trkpt lat="45.88218" lon="4.60252">
        <ele>274.92075</ele>
        <time>2023-11-26T14:08:09.000Z</time>
      </trkpt>
      <trkpt lat="45.88222" lon="4.6025">
        <ele>273.93225</ele>
        <time>2023-11-26T14:08:10.000Z</time>
      </trkpt>
      <trkpt lat="45.88225" lon="4.60247">
        <ele>272.9613</ele>
        <time>2023-11-26T14:08:11.000Z</time>
      </trkpt>
      <trkpt lat="45.88229" lon="4.60243">
        <ele>271.93863</ele>
        <time>2023-11-26T14:08:12.000Z</time>
      </trkpt>
      <trkpt lat="45.8823" lon="4.60238">
        <ele>271.53387</ele>
        <time>2023-11-26T14:08:13.000Z</time>
      </trkpt>
      <trkpt lat="45.8823" lon="4.60232">
        <ele>271.38773</ele>
        <time>2023-11-26T14:08:14.000Z</time>
      </trkpt>
      <trkpt lat="45.88229" lon="4.60227">
        <ele>270.24167</ele>
        <time>2023-11-26T14:08:15.000Z</time>
      </trkpt>
      <trkpt lat="45.88229" lon="4.60224">
        <ele>269.43021</ele>
        <time>2023-11-26T14:08:16.000Z</time>
      </trkpt>
      <trkpt lat="45.88228" lon="4.60226">
        <ele>268.58951</ele>
        <time>2023-11-26T14:08:28.000Z</time>
      </trkpt>
      <trkpt lat="45.88227" lon="4.60223">
        <ele>268.46158</ele>
        <time>2023-11-26T14:08:49.000Z</time>
      </trkpt>
      <trkpt lat="45.88226" lon="4.6022">
        <ele>268.34811</ele>
        <time>2023-11-26T14:08:50.000Z</time>
      </trkpt>
      <trkpt lat="45.88225" lon="4.60216">
        <ele>268.23578</ele>
        <time>2023-11-26T14:08:51.000Z</time>
      </trkpt>
      <trkpt lat="45.88225" lon="4.60211">
        <ele>268.09525</ele>
        <time>2023-11-26T14:08:52.000Z</time>
      </trkpt>
      <trkpt lat="45.88224" lon="4.60206">
        <ele>267.95377</ele>
        <time>2023-11-26T14:08:53.000Z</time>
      </trkpt>
      <trkpt lat="45.88224" lon="4.60201">
        <ele>267.8985</ele>
        <time>2023-11-26T14:08:54.000Z</time>
      </trkpt>
      <trkpt lat="45.88223" lon="4.60195">
        <ele>267.83228</ele>
        <time>2023-11-26T14:08:55.000Z</time>
      </trkpt>
      <trkpt lat="45.88222" lon="4.60189">
        <ele>267.71957</ele>
        <time>2023-11-26T14:08:56.000Z</time>
      </trkpt>
      <trkpt lat="45.88221" lon="4.60181">
        <ele>267.58856</ele>
        <time>2023-11-26T14:08:57.000Z</time>
      </trkpt>
      <trkpt lat="45.8822" lon="4.60174">
        <ele>267.46298</ele>
        <time>2023-11-26T14:08:58.000Z</time>
      </trkpt>
      <trkpt lat="45.88219" lon="4.60166">
        <ele>267.3385</ele>
        <time>2023-11-26T14:08:59.000Z</time>
      </trkpt>
      <trkpt lat="45.88216" lon="4.6016">
        <ele>267.1655</ele>
        <time>2023-11-26T14:09:00.000Z</time>
      </trkpt>
      <trkpt lat="45.88211" lon="4.60156">
        <ele>266.76584</ele>
        <time>2023-11-26T14:09:01.000Z</time>
      </trkpt>
      <trkpt lat="45.88203" lon="4.60152">
        <ele>266.57495</ele>
        <time>2023-11-26T14:09:02.000Z</time>
      </trkpt>
      <trkpt lat="45.88196" lon="4.60147">
        <ele>266.37775</ele>
        <time>2023-11-26T14:09:03.000Z</time>
      </trkpt>
      <trkpt lat="45.88189" lon="4.60143">
        <ele>266.18195</ele>
        <time>2023-11-26T14:09:04.000Z</time>
      </trkpt>
      <trkpt lat="45.88182" lon="4.60136">
        <ele>265.97058</ele>
        <time>2023-11-26T14:09:05.000Z</time>
      </trkpt>
      <trkpt lat="45.88173" lon="4.60131">
        <ele>265.66003</ele>
        <time>2023-11-26T14:09:06.000Z</time>
      </trkpt>
      <trkpt lat="45.88167" lon="4.60125">
        <ele>265.02444</ele>
        <time>2023-11-26T14:09:07.000Z</time>
      </trkpt>
      <trkpt lat="45.88159" lon="4.60119">
        <ele>264.63422</ele>
        <time>2023-11-26T14:09:08.000Z</time>
      </trkpt>
      <trkpt lat="45.88152" lon="4.60113">
        <ele>264.25174</ele>
        <time>2023-11-26T14:09:09.000Z</time>
      </trkpt>
      <trkpt lat="45.88145" lon="4.60109">
        <ele>263.8548</ele>
        <time>2023-11-26T14:09:10.000Z</time>
      </trkpt>
      <trkpt lat="45.88138" lon="4.60104">
        <ele>263.40717</ele>
        <time>2023-11-26T14:09:11.000Z</time>
      </trkpt>
      <trkpt lat="45.8813" lon="4.60099">
        <ele>262.93073</ele>
        <time>2023-11-26T14:09:12.000Z</time>
      </trkpt>
      <trkpt lat="45.88124" lon="4.60096">
        <ele>262.42194</ele>
        <time>2023-11-26T14:09:13.000Z</time>
      </trkpt>
      <trkpt lat="45.88117" lon="4.60091">
        <ele>261.83954</ele>
        <time>2023-11-26T14:09:14.000Z</time>
      </trkpt>
      <trkpt lat="45.8811" lon="4.60086">
        <ele>261.27744</ele>
        <time>2023-11-26T14:09:15.000Z</time>
      </trkpt>
      <trkpt lat="45.88104" lon="4.60079">
        <ele>260.70053</ele>
        <time>2023-11-26T14:09:16.000Z</time>
      </trkpt>
      <trkpt lat="45.88098" lon="4.60071">
        <ele>260.13434</ele>
        <time>2023-11-26T14:09:17.000Z</time>
      </trkpt>
      <trkpt lat="45.88092" lon="4.60063">
        <ele>259.6452</ele>
        <time>2023-11-26T14:09:18.000Z</time>
      </trkpt>
      <trkpt lat="45.88086" lon="4.60055">
        <ele>259.21689</ele>
        <time>2023-11-26T14:09:19.000Z</time>
      </trkpt>
      <trkpt lat="45.8808" lon="4.60047">
        <ele>258.78485</ele>
        <time>2023-11-26T14:09:20.000Z</time>
      </trkpt>
      <trkpt lat="45.88074" lon="4.6004">
        <ele>258.61005</ele>
        <time>2023-11-26T14:09:21.000Z</time>
      </trkpt>
      <trkpt lat="45.88069" lon="4.60035">
        <ele>258.16266</ele>
        <time>2023-11-26T14:09:22.000Z</time>
      </trkpt>
      <trkpt lat="45.88063" lon="4.60027">
        <ele>257.69638</ele>
        <time>2023-11-26T14:09:23.000Z</time>
      </trkpt>
      <trkpt lat="45.88059" lon="4.60022">
        <ele>257.37024</ele>
        <time>2023-11-26T14:09:24.000Z</time>
      </trkpt>
      <trkpt lat="45.88054" lon="4.60015">
        <ele>257.00702</ele>
        <time>2023-11-26T14:09:25.000Z</time>
      </trkpt>
      <trkpt lat="45.88049" lon="4.60007">
        <ele>256.62109</ele>
        <time>2023-11-26T14:09:26.000Z</time>
      </trkpt>
      <trkpt lat="45.88046" lon="4.60001">
        <ele>256.33267</ele>
        <time>2023-11-26T14:09:27.000Z</time>
      </trkpt>
      <trkpt lat="45.88043" lon="4.59995">
        <ele>255.77776</ele>
        <time>2023-11-26T14:09:28.000Z</time>
      </trkpt>
      <trkpt lat="45.88041" lon="4.59988">
        <ele>255.22672</ele>
        <time>2023-11-26T14:09:29.000Z</time>
      </trkpt>
      <trkpt lat="45.8804" lon="4.59981">
        <ele>254.63132</ele>
        <time>2023-11-26T14:09:30.000Z</time>
      </trkpt>
      <trkpt lat="45.88042" lon="4.59974">
        <ele>254.05334</ele>
        <time>2023-11-26T14:09:31.000Z</time>
      </trkpt>
      <trkpt lat="45.88043" lon="4.59967">
        <ele>253.67656</ele>
        <time>2023-11-26T14:09:32.000Z</time>
      </trkpt>
      <trkpt lat="45.88047" lon="4.59962">
        <ele>253.38152</ele>
        <time>2023-11-26T14:09:33.000Z</time>
      </trkpt>
      <trkpt lat="45.88049" lon="4.59958">
        <ele>253.10474</ele>
        <time>2023-11-26T14:09:34.000Z</time>
      </trkpt>
      <trkpt lat="45.88051" lon="4.59955">
        <ele>252.81189</ele>
        <time>2023-11-26T14:09:35.000Z</time>
      </trkpt>
      <trkpt lat="45.88055" lon="4.59953">
        <ele>252.55539</ele>
        <time>2023-11-26T14:09:36.000Z</time>
      </trkpt>
      <trkpt lat="45.88057" lon="4.59949">
        <ele>252.28824</ele>
        <time>2023-11-26T14:09:37.000Z</time>
      </trkpt>
      <trkpt lat="45.8806" lon="4.59947">
        <ele>252.10323</ele>
        <time>2023-11-26T14:09:38.000Z</time>
      </trkpt>
      <trkpt lat="45.88062" lon="4.59946">
        <ele>251.99548</ele>
        <time>2023-11-26T14:09:39.000Z</time>
      </trkpt>
      <trkpt lat="45.88065" lon="4.59945">
        <ele>251.93547</ele>
        <time>2023-11-26T14:09:40.000Z</time>
      </trkpt>
      <trkpt lat="45.88068" lon="4.59943">
        <ele>251.82016</ele>
        <time>2023-11-26T14:09:41.000Z</time>
      </trkpt>
      <trkpt lat="45.88072" lon="4.59943">
        <ele>251.79292</ele>
        <time>2023-11-26T14:09:42.000Z</time>
      </trkpt>
      <trkpt lat="45.88075" lon="4.59942">
        <ele>251.87857</ele>
        <time>2023-11-26T14:09:43.000Z</time>
      </trkpt>
      <trkpt lat="45.88078" lon="4.59942">
        <ele>251.99406</ele>
        <time>2023-11-26T14:09:44.000Z</time>
      </trkpt>
      <trkpt lat="45.8808" lon="4.59942">
        <ele>252.1694</ele>
        <time>2023-11-26T14:09:45.000Z</time>
      </trkpt>
      <trkpt lat="45.88083" lon="4.59942">
        <ele>252.53157</ele>
        <time>2023-11-26T14:09:46.000Z</time>
      </trkpt>
      <trkpt lat="45.88087" lon="4.59942">
        <ele>252.82974</ele>
        <time>2023-11-26T14:09:47.000Z</time>
      </trkpt>
      <trkpt lat="45.8809" lon="4.59942">
        <ele>253.21187</ele>
        <time>2023-11-26T14:09:48.000Z</time>
      </trkpt>
      <trkpt lat="45.88093" lon="4.59942">
        <ele>253.58984</ele>
        <time>2023-11-26T14:09:49.000Z</time>
      </trkpt>
      <trkpt lat="45.88096" lon="4.59943">
        <ele>254.02176</ele>
        <time>2023-11-26T14:09:50.000Z</time>
      </trkpt>
      <trkpt lat="45.88099" lon="4.59943">
        <ele>254.47842</ele>
        <time>2023-11-26T14:09:51.000Z</time>
      </trkpt>
      <trkpt lat="45.88102" lon="4.59944">
        <ele>254.80061</ele>
        <time>2023-11-26T14:09:52.000Z</time>
      </trkpt>
      <trkpt lat="45.88106" lon="4.59945">
        <ele>255.18526</ele>
        <time>2023-11-26T14:09:53.000Z</time>
      </trkpt>
      <trkpt lat="45.88109" lon="4.59946">
        <ele>255.51933</ele>
        <time>2023-11-26T14:09:54.000Z</time>
      </trkpt>
      <trkpt lat="45.88112" lon="4.59947">
        <ele>255.88033</ele>
        <time>2023-11-26T14:09:55.000Z</time>
      </trkpt>
      <trkpt lat="45.88116" lon="4.59948">
        <ele>256.28415</ele>
        <time>2023-11-26T14:09:56.000Z</time>
      </trkpt>
      <trkpt lat="45.88119" lon="4.59948">
        <ele>256.69217</ele>
        <time>2023-11-26T14:09:57.000Z</time>
      </trkpt>
      <trkpt lat="45.88123" lon="4.59948">
        <ele>257.01291</ele>
        <time>2023-11-26T14:09:58.000Z</time>
      </trkpt>
      <trkpt lat="45.88126" lon="4.59947">
        <ele>257.24734</ele>
        <time>2023-11-26T14:09:59.000Z</time>
      </trkpt>
      <trkpt lat="45.8813" lon="4.59946">
        <ele>257.52078</ele>
        <time>2023-11-26T14:10:00.000Z</time>
      </trkpt>
      <trkpt lat="45.88133" lon="4.59944">
        <ele>257.83649</ele>
        <time>2023-11-26T14:10:01.000Z</time>
      </trkpt>
      <trkpt lat="45.88136" lon="4.59943">
        <ele>258.06815</ele>
        <time>2023-11-26T14:10:02.000Z</time>
      </trkpt>
      <trkpt lat="45.8814" lon="4.5994">
        <ele>258.29132</ele>
        <time>2023-11-26T14:10:03.000Z</time>
      </trkpt>
      <trkpt lat="45.88143" lon="4.59938">
        <ele>258.46796</ele>
        <time>2023-11-26T14:10:04.000Z</time>
      </trkpt>
      <trkpt lat="45.88146" lon="4.59936">
        <ele>258.61014</ele>
        <time>2023-11-26T14:10:05.000Z</time>
      </trkpt>
      <trkpt lat="45.8815" lon="4.59935">
        <ele>258.79062</ele>
        <time>2023-11-26T14:10:06.000Z</time>
      </trkpt>
      <trkpt lat="45.88152" lon="4.59933">
        <ele>258.93643</ele>
        <time>2023-11-26T14:10:07.000Z</time>
      </trkpt>
      <trkpt lat="45.88155" lon="4.59931">
        <ele>259.01154</ele>
        <time>2023-11-26T14:10:08.000Z</time>
      </trkpt>
      <trkpt lat="45.88158" lon="4.59929">
        <ele>259.08331</ele>
        <time>2023-11-26T14:10:09.000Z</time>
      </trkpt>
      <trkpt lat="45.8816" lon="4.59928">
        <ele>259.13275</ele>
        <time>2023-11-26T14:10:10.000Z</time>
      </trkpt>
      <trkpt lat="45.88163" lon="4.59926">
        <ele>259.16684</ele>
        <time>2023-11-26T14:10:11.000Z</time>
      </trkpt>
      <trkpt lat="45.88165" lon="4.59925">
        <ele>259.14703</ele>
        <time>2023-11-26T14:10:12.000Z</time>
      </trkpt>
      <trkpt lat="45.88168" lon="4.59923">
        <ele>259.23627</ele>
        <time>2023-11-26T14:10:13.000Z</time>
      </trkpt>
      <trkpt lat="45.8817" lon="4.59922">
        <ele>259.414</ele>
        <time>2023-11-26T14:10:14.000Z</time>
      </trkpt>
      <trkpt lat="45.88172" lon="4.59921">
        <ele>259.60123</ele>
        <time>2023-11-26T14:10:15.000Z</time>
      </trkpt>
      <trkpt lat="45.88174" lon="4.5992">
        <ele>259.77658</ele>
        <time>2023-11-26T14:10:16.000Z</time>
      </trkpt>
      <trkpt lat="45.88177" lon="4.59919">
        <ele>259.95776</ele>
        <time>2023-11-26T14:10:17.000Z</time>
      </trkpt>
      <trkpt lat="45.88179" lon="4.59919">
        <ele>260.13062</ele>
        <time>2023-11-26T14:10:18.000Z</time>
      </trkpt>
      <trkpt lat="45.88182" lon="4.59918">
        <ele>260.31024</ele>
        <time>2023-11-26T14:10:19.000Z</time>
      </trkpt>
      <trkpt lat="45.88184" lon="4.59917">
        <ele>260.47534</ele>
        <time>2023-11-26T14:10:20.000Z</time>
      </trkpt>
      <trkpt lat="45.88186" lon="4.59917">
        <ele>260.63962</ele>
        <time>2023-11-26T14:10:21.000Z</time>
      </trkpt>
      <trkpt lat="45.88188" lon="4.59916">
        <ele>260.85596</ele>
        <time>2023-11-26T14:10:22.000Z</time>
      </trkpt>
      <trkpt lat="45.8819" lon="4.59915">
        <ele>261.06705</ele>
        <time>2023-11-26T14:10:23.000Z</time>
      </trkpt>
      <trkpt lat="45.88193" lon="4.59913">
        <ele>261.31061</ele>
        <time>2023-11-26T14:10:24.000Z</time>
      </trkpt>
      <trkpt lat="45.88195" lon="4.59913">
        <ele>261.58694</ele>
        <time>2023-11-26T14:10:25.000Z</time>
      </trkpt>
      <trkpt lat="45.88197" lon="4.59912">
        <ele>261.82248</ele>
        <time>2023-11-26T14:10:26.000Z</time>
      </trkpt>
      <trkpt lat="45.88199" lon="4.59912">
        <ele>262.04593</ele>
        <time>2023-11-26T14:10:27.000Z</time>
      </trkpt>
      <trkpt lat="45.88201" lon="4.59911">
        <ele>262.30594</ele>
        <time>2023-11-26T14:10:28.000Z</time>
      </trkpt>
      <trkpt lat="45.88204" lon="4.59909">
        <ele>262.57327</ele>
        <time>2023-11-26T14:10:30.000Z</time>
      </trkpt>
      <trkpt lat="45.88207" lon="4.59908">
        <ele>262.91098</ele>
        <time>2023-11-26T14:10:31.000Z</time>
      </trkpt>
      <trkpt lat="45.88209" lon="4.59907">
        <ele>263.23737</ele>
        <time>2023-11-26T14:10:32.000Z</time>
      </trkpt>
      <trkpt lat="45.88212" lon="4.59906">
        <ele>263.04144</ele>
        <time>2023-11-26T14:10:33.000Z</time>
      </trkpt>
      <trkpt lat="45.88214" lon="4.59906">
        <ele>262.68805</ele>
        <time>2023-11-26T14:10:34.000Z</time>
      </trkpt>
      <trkpt lat="45.88216" lon="4.59905">
        <ele>262.76788</ele>
        <time>2023-11-26T14:10:35.000Z</time>
      </trkpt>
      <trkpt lat="45.88218" lon="4.59904">
        <ele>262.84152</ele>
        <time>2023-11-26T14:10:36.000Z</time>
      </trkpt>
      <trkpt lat="45.88221" lon="4.59904">
        <ele>262.95807</ele>
        <time>2023-11-26T14:10:37.000Z</time>
      </trkpt>
      <trkpt lat="45.88223" lon="4.59903">
        <ele>263.08984</ele>
        <time>2023-11-26T14:10:38.000Z</time>
      </trkpt>
      <trkpt lat="45.88226" lon="4.59902">
        <ele>263.20197</ele>
        <time>2023-11-26T14:10:39.000Z</time>
      </trkpt>
      <trkpt lat="45.88229" lon="4.59901">
        <ele>263.29669</ele>
        <time>2023-11-26T14:10:40.000Z</time>
      </trkpt>
      <trkpt lat="45.88231" lon="4.599">
        <ele>263.3963</ele>
        <time>2023-11-26T14:10:41.000Z</time>
      </trkpt>
      <trkpt lat="45.88234" lon="4.59898">
        <ele>263.54657</ele>
        <time>2023-11-26T14:10:42.000Z</time>
      </trkpt>
      <trkpt lat="45.88236" lon="4.59896">
        <ele>263.74942</ele>
        <time>2023-11-26T14:10:43.000Z</time>
      </trkpt>
      <trkpt lat="45.88238" lon="4.59895">
        <ele>264.34692</ele>
        <time>2023-11-26T14:10:44.000Z</time>
      </trkpt>
      <trkpt lat="45.88241" lon="4.59893">
        <ele>264.9256</ele>
        <time>2023-11-26T14:10:45.000Z</time>
      </trkpt>
      <trkpt lat="45.88243" lon="4.59891">
        <ele>265.51996</ele>
        <time>2023-11-26T14:10:46.000Z</time>
      </trkpt>
      <trkpt lat="45.88245" lon="4.59889">
        <ele>266.11298</ele>
        <time>2023-11-26T14:10:47.000Z</time>
      </trkpt>
      <trkpt lat="45.88247" lon="4.59888">
        <ele>266.76639</ele>
        <time>2023-11-26T14:10:48.000Z</time>
      </trkpt>
      <trkpt lat="45.88249" lon="4.59886">
        <ele>267.41602</ele>
        <time>2023-11-26T14:10:49.000Z</time>
      </trkpt>
      <trkpt lat="45.88251" lon="4.59884">
        <ele>268.09097</ele>
        <time>2023-11-26T14:10:50.000Z</time>
      </trkpt>
      <trkpt lat="45.88254" lon="4.59882">
        <ele>268.7226</ele>
        <time>2023-11-26T14:10:51.000Z</time>
      </trkpt>
      <trkpt lat="45.88256" lon="4.5988">
        <ele>269.3736</ele>
        <time>2023-11-26T14:10:52.000Z</time>
      </trkpt>
      <trkpt lat="45.88258" lon="4.59879">
        <ele>270.6124</ele>
        <time>2023-11-26T14:10:53.000Z</time>
      </trkpt>
      <trkpt lat="45.8826" lon="4.59877">
        <ele>271.80255</ele>
        <time>2023-11-26T14:10:54.000Z</time>
      </trkpt>
      <trkpt lat="45.88262" lon="4.59876">
        <ele>272.46906</ele>
        <time>2023-11-26T14:10:55.000Z</time>
      </trkpt>
      <trkpt lat="45.88264" lon="4.59874">
        <ele>273.12329</ele>
        <time>2023-11-26T14:10:56.000Z</time>
      </trkpt>
      <trkpt lat="45.88266" lon="4.59872">
        <ele>273.72998</ele>
        <time>2023-11-26T14:10:57.000Z</time>
      </trkpt>
      <trkpt lat="45.88268" lon="4.5987">
        <ele>274.33591</ele>
        <time>2023-11-26T14:10:58.000Z</time>
      </trkpt>
      <trkpt lat="45.88269" lon="4.59868">
        <ele>274.96014</ele>
        <time>2023-11-26T14:10:59.000Z</time>
      </trkpt>
      <trkpt lat="45.88271" lon="4.59865">
        <ele>275.16864</ele>
        <time>2023-11-26T14:11:00.000Z</time>
      </trkpt>
      <trkpt lat="45.88273" lon="4.59863">
        <ele>275.35184</ele>
        <time>2023-11-26T14:11:01.000Z</time>
      </trkpt>
      <trkpt lat="45.88274" lon="4.5986">
        <ele>275.55276</ele>
        <time>2023-11-26T14:11:02.000Z</time>
      </trkpt>
      <trkpt lat="45.88276" lon="4.59858">
        <ele>275.69351</ele>
        <time>2023-11-26T14:11:03.000Z</time>
      </trkpt>
      <trkpt lat="45.88277" lon="4.59855">
        <ele>275.40814</ele>
        <time>2023-11-26T14:11:04.000Z</time>
      </trkpt>
      <trkpt lat="45.88278" lon="4.59853">
        <ele>275.1004</ele>
        <time>2023-11-26T14:11:05.000Z</time>
      </trkpt>
      <trkpt lat="45.88279" lon="4.5985">
        <ele>274.77219</ele>
        <time>2023-11-26T14:11:06.000Z</time>
      </trkpt>
      <trkpt lat="45.8828" lon="4.59847">
        <ele>274.44611</ele>
        <time>2023-11-26T14:11:07.000Z</time>
      </trkpt>
      <trkpt lat="45.88282" lon="4.59844">
        <ele>274.09695</ele>
        <time>2023-11-26T14:11:08.000Z</time>
      </trkpt>
      <trkpt lat="45.88283" lon="4.59841">
        <ele>273.75406</ele>
        <time>2023-11-26T14:11:09.000Z</time>
      </trkpt>
      <trkpt lat="45.88284" lon="4.59838">
        <ele>273.41351</ele>
        <time>2023-11-26T14:11:10.000Z</time>
      </trkpt>
      <trkpt lat="45.88285" lon="4.59835">
        <ele>272.87726</ele>
        <time>2023-11-26T14:11:11.000Z</time>
      </trkpt>
      <trkpt lat="45.88286" lon="4.59832">
        <ele>272.27249</ele>
        <time>2023-11-26T14:11:12.000Z</time>
      </trkpt>
      <trkpt lat="45.88286" lon="4.59829">
        <ele>271.99628</ele>
        <time>2023-11-26T14:11:13.000Z</time>
      </trkpt>
      <trkpt lat="45.88287" lon="4.59825">
        <ele>271.6907</ele>
        <time>2023-11-26T14:11:14.000Z</time>
      </trkpt>
      <trkpt lat="45.88287" lon="4.59823">
        <ele>271.43015</ele>
        <time>2023-11-26T14:11:15.000Z</time>
      </trkpt>
      <trkpt lat="45.88288" lon="4.59818">
        <ele>271.14905</ele>
        <time>2023-11-26T14:11:17.000Z</time>
      </trkpt>
      <trkpt lat="45.88289" lon="4.59815">
        <ele>270.8873</ele>
        <time>2023-11-26T14:11:18.000Z</time>
      </trkpt>
      <trkpt lat="45.8829" lon="4.59813">
        <ele>270.63553</ele>
        <time>2023-11-26T14:11:19.000Z</time>
      </trkpt>
      <trkpt lat="45.88291" lon="4.59811">
        <ele>270.35263</ele>
        <time>2023-11-26T14:11:20.000Z</time>
      </trkpt>
      <trkpt lat="45.88294" lon="4.59808">
        <ele>270.4794</ele>
        <time>2023-11-26T14:11:22.000Z</time>
      </trkpt>
      <trkpt lat="45.88296" lon="4.59806">
        <ele>270.61102</ele>
        <time>2023-11-26T14:11:23.000Z</time>
      </trkpt>
      <trkpt lat="45.88297" lon="4.59805">
        <ele>270.66776</ele>
        <time>2023-11-26T14:11:24.000Z</time>
      </trkpt>
      <trkpt lat="45.88299" lon="4.59803">
        <ele>270.71881</ele>
        <time>2023-11-26T14:11:25.000Z</time>
      </trkpt>
      <trkpt lat="45.883" lon="4.59801">
        <ele>270.80161</ele>
        <time>2023-11-26T14:11:26.000Z</time>
      </trkpt>
      <trkpt lat="45.88302" lon="4.59798">
        <ele>270.90811</ele>
        <time>2023-11-26T14:11:27.000Z</time>
      </trkpt>
      <trkpt lat="45.88303" lon="4.59796">
        <ele>271.02158</ele>
        <time>2023-11-26T14:11:28.000Z</time>
      </trkpt>
      <trkpt lat="45.88305" lon="4.59793">
        <ele>271.07581</ele>
        <time>2023-11-26T14:11:29.000Z</time>
      </trkpt>
      <trkpt lat="45.88306" lon="4.59791">
        <ele>271.10236</ele>
        <time>2023-11-26T14:11:30.000Z</time>
      </trkpt>
      <trkpt lat="45.88308" lon="4.59789">
        <ele>271.11829</ele>
        <time>2023-11-26T14:11:31.000Z</time>
      </trkpt>
      <trkpt lat="45.88309" lon="4.59786">
        <ele>271.11493</ele>
        <time>2023-11-26T14:11:32.000Z</time>
      </trkpt>
      <trkpt lat="45.88311" lon="4.59783">
        <ele>271.30869</ele>
        <time>2023-11-26T14:11:33.000Z</time>
      </trkpt>
      <trkpt lat="45.88313" lon="4.59781">
        <ele>271.56802</ele>
        <time>2023-11-26T14:11:34.000Z</time>
      </trkpt>
      <trkpt lat="45.88315" lon="4.59779">
        <ele>271.29327</ele>
        <time>2023-11-26T14:11:35.000Z</time>
      </trkpt>
      <trkpt lat="45.88317" lon="4.59776">
        <ele>270.88144</ele>
        <time>2023-11-26T14:11:36.000Z</time>
      </trkpt>
      <trkpt lat="45.8832" lon="4.59773">
        <ele>270.47342</ele>
        <time>2023-11-26T14:11:37.000Z</time>
      </trkpt>
      <trkpt lat="45.88323" lon="4.59771">
        <ele>270.00479</ele>
        <time>2023-11-26T14:11:38.000Z</time>
      </trkpt>
      <trkpt lat="45.88325" lon="4.59769">
        <ele>269.51425</ele>
        <time>2023-11-26T14:11:39.000Z</time>
      </trkpt>
      <trkpt lat="45.88328" lon="4.59767">
        <ele>269.00204</ele>
        <time>2023-11-26T14:11:40.000Z</time>
      </trkpt>
      <trkpt lat="45.88329" lon="4.59764">
        <ele>268.88885</ele>
        <time>2023-11-26T14:11:41.000Z</time>
      </trkpt>
      <trkpt lat="45.8833" lon="4.5976">
        <ele>268.74231</ele>
        <time>2023-11-26T14:11:42.000Z</time>
      </trkpt>
      <trkpt lat="45.8833" lon="4.59756">
        <ele>268.70663</ele>
        <time>2023-11-26T14:11:43.000Z</time>
      </trkpt>
      <trkpt lat="45.88329" lon="4.59753">
        <ele>268.70773</ele>
        <time>2023-11-26T14:11:44.000Z</time>
      </trkpt>
      <trkpt lat="45.88329" lon="4.59749">
        <ele>268.685</ele>
        <time>2023-11-26T14:11:45.000Z</time>
      </trkpt>
      <trkpt lat="45.88328" lon="4.59746">
        <ele>268.67862</ele>
        <time>2023-11-26T14:11:46.000Z</time>
      </trkpt>
      <trkpt lat="45.88327" lon="4.59742">
        <ele>268.66937</ele>
        <time>2023-11-26T14:11:47.000Z</time>
      </trkpt>
      <trkpt lat="45.88327" lon="4.59739">
        <ele>268.6452</ele>
        <time>2023-11-26T14:11:48.000Z</time>
      </trkpt>
      <trkpt lat="45.88327" lon="4.59736">
        <ele>268.64313</ele>
        <time>2023-11-26T14:11:49.000Z</time>
      </trkpt>
      <trkpt lat="45.88326" lon="4.59733">
        <ele>268.66486</ele>
        <time>2023-11-26T14:11:50.000Z</time>
      </trkpt>
      <trkpt lat="45.88326" lon="4.5973">
        <ele>268.69513</ele>
        <time>2023-11-26T14:11:51.000Z</time>
      </trkpt>
      <trkpt lat="45.88325" lon="4.59726">
        <ele>268.72974</ele>
        <time>2023-11-26T14:11:52.000Z</time>
      </trkpt>
      <trkpt lat="45.88325" lon="4.59723">
        <ele>268.75952</ele>
        <time>2023-11-26T14:11:53.000Z</time>
      </trkpt>
      <trkpt lat="45.88324" lon="4.5972">
        <ele>268.78909</ele>
        <time>2023-11-26T14:11:54.000Z</time>
      </trkpt>
      <trkpt lat="45.88323" lon="4.59716">
        <ele>269.02396</ele>
        <time>2023-11-26T14:11:55.000Z</time>
      </trkpt>
      <trkpt lat="45.88322" lon="4.59713">
        <ele>269.42288</ele>
        <time>2023-11-26T14:11:56.000Z</time>
      </trkpt>
      <trkpt lat="45.88322" lon="4.59709">
        <ele>269.86755</ele>
        <time>2023-11-26T14:11:57.000Z</time>
      </trkpt>
      <trkpt lat="45.88321" lon="4.59705">
        <ele>270.38394</ele>
        <time>2023-11-26T14:11:58.000Z</time>
      </trkpt>
      <trkpt lat="45.8832" lon="4.59701">
        <ele>270.89081</ele>
        <time>2023-11-26T14:11:59.000Z</time>
      </trkpt>
      <trkpt lat="45.88319" lon="4.59698">
        <ele>271.35135</ele>
        <time>2023-11-26T14:12:00.000Z</time>
      </trkpt>
      <trkpt lat="45.88319" lon="4.59693">
        <ele>271.42374</ele>
        <time>2023-11-26T14:12:01.000Z</time>
      </trkpt>
      <trkpt lat="45.88318" lon="4.5969">
        <ele>271.55829</ele>
        <time>2023-11-26T14:12:02.000Z</time>
      </trkpt>
      <trkpt lat="45.88317" lon="4.59686">
        <ele>271.58881</ele>
        <time>2023-11-26T14:12:03.000Z</time>
      </trkpt>
      <trkpt lat="45.88316" lon="4.59683">
        <ele>271.56732</ele>
        <time>2023-11-26T14:12:04.000Z</time>
      </trkpt>
      <trkpt lat="45.88315" lon="4.59679">
        <ele>271.57666</ele>
        <time>2023-11-26T14:12:05.000Z</time>
      </trkpt>
      <trkpt lat="45.88314" lon="4.59675">
        <ele>271.57004</ele>
        <time>2023-11-26T14:12:06.000Z</time>
      </trkpt>
      <trkpt lat="45.88313" lon="4.59671">
        <ele>271.57404</ele>
        <time>2023-11-26T14:12:07.000Z</time>
      </trkpt>
      <trkpt lat="45.88312" lon="4.59667">
        <ele>271.59113</ele>
        <time>2023-11-26T14:12:08.000Z</time>
      </trkpt>
      <trkpt lat="45.88311" lon="4.59663">
        <ele>271.63013</ele>
        <time>2023-11-26T14:12:09.000Z</time>
      </trkpt>
      <trkpt lat="45.8831" lon="4.59659">
        <ele>271.65228</ele>
        <time>2023-11-26T14:12:10.000Z</time>
      </trkpt>
      <trkpt lat="45.88309" lon="4.59655">
        <ele>271.68488</ele>
        <time>2023-11-26T14:12:11.000Z</time>
      </trkpt>
      <trkpt lat="45.88309" lon="4.59651">
        <ele>271.71155</ele>
        <time>2023-11-26T14:12:12.000Z</time>
      </trkpt>
      <trkpt lat="45.88308" lon="4.59647">
        <ele>271.72992</ele>
        <time>2023-11-26T14:12:13.000Z</time>
      </trkpt>
      <trkpt lat="45.88307" lon="4.59643">
        <ele>271.74469</ele>
        <time>2023-11-26T14:12:14.000Z</time>
      </trkpt>
      <trkpt lat="45.88306" lon="4.59639">
        <ele>271.73956</ele>
        <time>2023-11-26T14:12:15.000Z</time>
      </trkpt>
      <trkpt lat="45.88305" lon="4.59635">
        <ele>271.7475</ele>
        <time>2023-11-26T14:12:16.000Z</time>
      </trkpt>
      <trkpt lat="45.88305" lon="4.59631">
        <ele>271.70645</ele>
        <time>2023-11-26T14:12:17.000Z</time>
      </trkpt>
      <trkpt lat="45.88304" lon="4.59627">
        <ele>271.67133</ele>
        <time>2023-11-26T14:12:18.000Z</time>
      </trkpt>
      <trkpt lat="45.88303" lon="4.59623">
        <ele>271.66394</ele>
        <time>2023-11-26T14:12:19.000Z</time>
      </trkpt>
      <trkpt lat="45.88302" lon="4.5962">
        <ele>271.71085</ele>
        <time>2023-11-26T14:12:20.000Z</time>
      </trkpt>
      <trkpt lat="45.88302" lon="4.59616">
        <ele>271.7558</ele>
        <time>2023-11-26T14:12:21.000Z</time>
      </trkpt>
      <trkpt lat="45.88301" lon="4.59612">
        <ele>271.74799</ele>
        <time>2023-11-26T14:12:22.000Z</time>
      </trkpt>
      <trkpt lat="45.883" lon="4.59609">
        <ele>271.75668</ele>
        <time>2023-11-26T14:12:23.000Z</time>
      </trkpt>
      <trkpt lat="45.88299" lon="4.59606">
        <ele>271.78638</ele>
        <time>2023-11-26T14:12:24.000Z</time>
      </trkpt>
      <trkpt lat="45.88298" lon="4.59602">
        <ele>271.83105</ele>
        <time>2023-11-26T14:12:25.000Z</time>
      </trkpt>
      <trkpt lat="45.88297" lon="4.59599">
        <ele>271.86346</ele>
        <time>2023-11-26T14:12:26.000Z</time>
      </trkpt>
      <trkpt lat="45.88296" lon="4.59595">
        <ele>271.90689</ele>
        <time>2023-11-26T14:12:27.000Z</time>
      </trkpt>
      <trkpt lat="45.88295" lon="4.59592">
        <ele>271.94644</ele>
        <time>2023-11-26T14:12:28.000Z</time>
      </trkpt>
      <trkpt lat="45.88294" lon="4.59589">
        <ele>271.99078</ele>
        <time>2023-11-26T14:12:29.000Z</time>
      </trkpt>
      <trkpt lat="45.88293" lon="4.59585">
        <ele>272.05173</ele>
        <time>2023-11-26T14:12:30.000Z</time>
      </trkpt>
      <trkpt lat="45.88292" lon="4.59582">
        <ele>272.15057</ele>
        <time>2023-11-26T14:12:31.000Z</time>
      </trkpt>
      <trkpt lat="45.88292" lon="4.59579">
        <ele>272.27771</ele>
        <time>2023-11-26T14:12:32.000Z</time>
      </trkpt>
      <trkpt lat="45.88292" lon="4.59575">
        <ele>272.18289</ele>
        <time>2023-11-26T14:12:34.000Z</time>
      </trkpt>
      <trkpt lat="45.88292" lon="4.59571">
        <ele>272.36694</ele>
        <time>2023-11-26T14:12:36.000Z</time>
      </trkpt>
      <trkpt lat="45.88292" lon="4.59566">
        <ele>272.50055</ele>
        <time>2023-11-26T14:12:38.000Z</time>
      </trkpt>
      <trkpt lat="45.88293" lon="4.59564">
        <ele>272.64813</ele>
        <time>2023-11-26T14:12:39.000Z</time>
      </trkpt>
      <trkpt lat="45.88293" lon="4.5956">
        <ele>272.81729</ele>
        <time>2023-11-26T14:12:40.000Z</time>
      </trkpt>
      <trkpt lat="45.88293" lon="4.59557">
        <ele>273.01996</ele>
        <time>2023-11-26T14:12:41.000Z</time>
      </trkpt>
      <trkpt lat="45.88293" lon="4.59554">
        <ele>273.2063</ele>
        <time>2023-11-26T14:12:42.000Z</time>
      </trkpt>
      <trkpt lat="45.88294" lon="4.5955">
        <ele>273.36417</ele>
        <time>2023-11-26T14:12:43.000Z</time>
      </trkpt>
      <trkpt lat="45.88294" lon="4.59546">
        <ele>273.49432</ele>
        <time>2023-11-26T14:12:44.000Z</time>
      </trkpt>
      <trkpt lat="45.88295" lon="4.59542">
        <ele>273.68338</ele>
        <time>2023-11-26T14:12:45.000Z</time>
      </trkpt>
      <trkpt lat="45.88295" lon="4.59538">
        <ele>273.81079</ele>
        <time>2023-11-26T14:12:46.000Z</time>
      </trkpt>
      <trkpt lat="45.88295" lon="4.59534">
        <ele>273.92426</ele>
        <time>2023-11-26T14:12:47.000Z</time>
      </trkpt>
      <trkpt lat="45.88295" lon="4.5953">
        <ele>274.01105</ele>
        <time>2023-11-26T14:12:48.000Z</time>
      </trkpt>
      <trkpt lat="45.88295" lon="4.59526">
        <ele>274.12897</ele>
        <time>2023-11-26T14:12:49.000Z</time>
      </trkpt>
      <trkpt lat="45.88296" lon="4.59521">
        <ele>274.19064</ele>
        <time>2023-11-26T14:12:50.000Z</time>
      </trkpt>
      <trkpt lat="45.88296" lon="4.59516">
        <ele>274.25742</ele>
        <time>2023-11-26T14:12:51.000Z</time>
      </trkpt>
      <trkpt lat="45.88296" lon="4.59512">
        <ele>274.30426</ele>
        <time>2023-11-26T14:12:52.000Z</time>
      </trkpt>
      <trkpt lat="45.88295" lon="4.59507">
        <ele>274.34369</ele>
        <time>2023-11-26T14:12:53.000Z</time>
      </trkpt>
      <trkpt lat="45.88295" lon="4.59502">
        <ele>274.34198</ele>
        <time>2023-11-26T14:12:54.000Z</time>
      </trkpt>
      <trkpt lat="45.88295" lon="4.59498">
        <ele>274.29196</ele>
        <time>2023-11-26T14:12:55.000Z</time>
      </trkpt>
      <trkpt lat="45.88296" lon="4.59493">
        <ele>274.45737</ele>
        <time>2023-11-26T14:12:56.000Z</time>
      </trkpt>
      <trkpt lat="45.88296" lon="4.59489">
        <ele>274.18585</ele>
        <time>2023-11-26T14:12:57.000Z</time>
      </trkpt>
      <trkpt lat="45.88296" lon="4.59484">
        <ele>273.86902</ele>
        <time>2023-11-26T14:12:58.000Z</time>
      </trkpt>
      <trkpt lat="45.88297" lon="4.59479">
        <ele>273.52325</ele>
        <time>2023-11-26T14:12:59.000Z</time>
      </trkpt>
      <trkpt lat="45.88297" lon="4.59474">
        <ele>273.17325</ele>
        <time>2023-11-26T14:13:00.000Z</time>
      </trkpt>
      <trkpt lat="45.88297" lon="4.59469">
        <ele>272.7962</ele>
        <time>2023-11-26T14:13:01.000Z</time>
      </trkpt>
      <trkpt lat="45.88298" lon="4.59465">
        <ele>272.3833</ele>
        <time>2023-11-26T14:13:02.000Z</time>
      </trkpt>
      <trkpt lat="45.88298" lon="4.5946">
        <ele>271.99292</ele>
        <time>2023-11-26T14:13:03.000Z</time>
      </trkpt>
      <trkpt lat="45.88298" lon="4.59455">
        <ele>271.92413</ele>
        <time>2023-11-26T14:13:04.000Z</time>
      </trkpt>
      <trkpt lat="45.88298" lon="4.59449">
        <ele>271.78265</ele>
        <time>2023-11-26T14:13:05.000Z</time>
      </trkpt>
      <trkpt lat="45.88298" lon="4.59444">
        <ele>271.65613</ele>
        <time>2023-11-26T14:13:06.000Z</time>
      </trkpt>
      <trkpt lat="45.88298" lon="4.59439">
        <ele>271.47217</ele>
        <time>2023-11-26T14:13:07.000Z</time>
      </trkpt>
      <trkpt lat="45.88298" lon="4.59433">
        <ele>271.25241</ele>
        <time>2023-11-26T14:13:08.000Z</time>
      </trkpt>
      <trkpt lat="45.88299" lon="4.59427">
        <ele>271.0206</ele>
        <time>2023-11-26T14:13:09.000Z</time>
      </trkpt>
      <trkpt lat="45.88299" lon="4.59422">
        <ele>270.80481</ele>
        <time>2023-11-26T14:13:10.000Z</time>
      </trkpt>
      <trkpt lat="45.883" lon="4.59416">
        <ele>270.56821</ele>
        <time>2023-11-26T14:13:11.000Z</time>
      </trkpt>
      <trkpt lat="45.88301" lon="4.59411">
        <ele>270.36273</ele>
        <time>2023-11-26T14:13:12.000Z</time>
      </trkpt>
      <trkpt lat="45.88302" lon="4.59405">
        <ele>270.15826</ele>
        <time>2023-11-26T14:13:13.000Z</time>
      </trkpt>
      <trkpt lat="45.88303" lon="4.594">
        <ele>269.96646</ele>
        <time>2023-11-26T14:13:14.000Z</time>
      </trkpt>
      <trkpt lat="45.88304" lon="4.59396">
        <ele>269.80219</ele>
        <time>2023-11-26T14:13:15.000Z</time>
      </trkpt>
      <trkpt lat="45.88305" lon="4.59391">
        <ele>269.65891</ele>
        <time>2023-11-26T14:13:16.000Z</time>
      </trkpt>
      <trkpt lat="45.88306" lon="4.59385">
        <ele>269.66074</ele>
        <time>2023-11-26T14:13:17.000Z</time>
      </trkpt>
      <trkpt lat="45.88307" lon="4.59377">
        <ele>269.78122</ele>
        <time>2023-11-26T14:13:18.000Z</time>
      </trkpt>
      <trkpt lat="45.88309" lon="4.5937">
        <ele>269.86346</ele>
        <time>2023-11-26T14:13:19.000Z</time>
      </trkpt>
      <trkpt lat="45.8831" lon="4.59363">
        <ele>269.93402</ele>
        <time>2023-11-26T14:13:20.000Z</time>
      </trkpt>
      <trkpt lat="45.88311" lon="4.59357">
        <ele>269.98633</ele>
        <time>2023-11-26T14:13:21.000Z</time>
      </trkpt>
      <trkpt lat="45.88312" lon="4.5935">
        <ele>270.11752</ele>
        <time>2023-11-26T14:13:22.000Z</time>
      </trkpt>
      <trkpt lat="45.88313" lon="4.59345">
        <ele>270.26144</ele>
        <time>2023-11-26T14:13:23.000Z</time>
      </trkpt>
      <trkpt lat="45.88314" lon="4.59339">
        <ele>269.92389</ele>
        <time>2023-11-26T14:13:24.000Z</time>
      </trkpt>
      <trkpt lat="45.88315" lon="4.59332">
        <ele>269.62912</ele>
        <time>2023-11-26T14:13:25.000Z</time>
      </trkpt>
      <trkpt lat="45.88316" lon="4.59326">
        <ele>269.33371</ele>
        <time>2023-11-26T14:13:26.000Z</time>
      </trkpt>
      <trkpt lat="45.88317" lon="4.59321">
        <ele>269.12515</ele>
        <time>2023-11-26T14:13:27.000Z</time>
      </trkpt>
      <trkpt lat="45.88319" lon="4.59315">
        <ele>268.97595</ele>
        <time>2023-11-26T14:13:28.000Z</time>
      </trkpt>
      <trkpt lat="45.88321" lon="4.59308">
        <ele>268.70712</ele>
        <time>2023-11-26T14:13:29.000Z</time>
      </trkpt>
      <trkpt lat="45.88324" lon="4.59302">
        <ele>268.45325</ele>
        <time>2023-11-26T14:13:30.000Z</time>
      </trkpt>
      <trkpt lat="45.88328" lon="4.59294">
        <ele>268.50708</ele>
        <time>2023-11-26T14:13:31.000Z</time>
      </trkpt>
      <trkpt lat="45.88331" lon="4.59286">
        <ele>268.42935</ele>
        <time>2023-11-26T14:13:32.000Z</time>
      </trkpt>
      <trkpt lat="45.88334" lon="4.59277">
        <ele>268.34903</ele>
        <time>2023-11-26T14:13:33.000Z</time>
      </trkpt>
      <trkpt lat="45.88337" lon="4.59268">
        <ele>268.20743</ele>
        <time>2023-11-26T14:13:34.000Z</time>
      </trkpt>
      <trkpt lat="45.88342" lon="4.5926">
        <ele>268.0585</ele>
        <time>2023-11-26T14:13:35.000Z</time>
      </trkpt>
      <trkpt lat="45.88347" lon="4.59252">
        <ele>267.9162</ele>
        <time>2023-11-26T14:13:36.000Z</time>
      </trkpt>
      <trkpt lat="45.88351" lon="4.59243">
        <ele>267.75363</ele>
        <time>2023-11-26T14:13:37.000Z</time>
      </trkpt>
      <trkpt lat="45.88356" lon="4.59235">
        <ele>267.58221</ele>
        <time>2023-11-26T14:13:38.000Z</time>
      </trkpt>
      <trkpt lat="45.8836" lon="4.59226">
        <ele>267.48822</ele>
        <time>2023-11-26T14:13:39.000Z</time>
      </trkpt>
      <trkpt lat="45.88364" lon="4.59218">
        <ele>267.39984</ele>
        <time>2023-11-26T14:13:40.000Z</time>
      </trkpt>
      <trkpt lat="45.88369" lon="4.5921">
        <ele>267.32242</ele>
        <time>2023-11-26T14:13:41.000Z</time>
      </trkpt>
      <trkpt lat="45.88375" lon="4.59204">
        <ele>267.18921</ele>
        <time>2023-11-26T14:13:42.000Z</time>
      </trkpt>
      <trkpt lat="45.88381" lon="4.59199">
        <ele>267.04279</ele>
        <time>2023-11-26T14:13:43.000Z</time>
      </trkpt>
      <trkpt lat="45.88386" lon="4.59195">
        <ele>268.85312</ele>
        <time>2023-11-26T14:13:44.000Z</time>
      </trkpt>
      <trkpt lat="45.88392" lon="4.59191">
        <ele>268.97263</ele>
        <time>2023-11-26T14:13:45.000Z</time>
      </trkpt>
      <trkpt lat="45.88398" lon="4.59188">
        <ele>269.11905</ele>
        <time>2023-11-26T14:13:46.000Z</time>
      </trkpt>
      <trkpt lat="45.88403" lon="4.59186">
        <ele>269.2597</ele>
        <time>2023-11-26T14:13:47.000Z</time>
      </trkpt>
      <trkpt lat="45.88406" lon="4.59183">
        <ele>269.39319</ele>
        <time>2023-11-26T14:13:48.000Z</time>
      </trkpt>
      <trkpt lat="45.8841" lon="4.59181">
        <ele>269.63715</ele>
        <time>2023-11-26T14:13:49.000Z</time>
      </trkpt>
      <trkpt lat="45.88414" lon="4.59178">
        <ele>271.53583</ele>
        <time>2023-11-26T14:13:50.000Z</time>
      </trkpt>
      <trkpt lat="45.88418" lon="4.59175">
        <ele>271.59033</ele>
        <time>2023-11-26T14:13:51.000Z</time>
      </trkpt>
      <trkpt lat="45.8842" lon="4.59173">
        <ele>271.75558</ele>
        <time>2023-11-26T14:13:52.000Z</time>
      </trkpt>
      <trkpt lat="45.88423" lon="4.59171">
        <ele>271.93713</ele>
        <time>2023-11-26T14:13:53.000Z</time>
      </trkpt>
      <trkpt lat="45.88426" lon="4.59169">
        <ele>271.14685</ele>
        <time>2023-11-26T14:13:54.000Z</time>
      </trkpt>
      <trkpt lat="45.88428" lon="4.59166">
        <ele>270.91644</ele>
        <time>2023-11-26T14:13:55.000Z</time>
      </trkpt>
      <trkpt lat="45.8843" lon="4.59163">
        <ele>270.6954</ele>
        <time>2023-11-26T14:13:56.000Z</time>
      </trkpt>
      <trkpt lat="45.88431" lon="4.5916">
        <ele>270.47711</ele>
        <time>2023-11-26T14:13:57.000Z</time>
      </trkpt>
      <trkpt lat="45.88433" lon="4.59157">
        <ele>270.2468</ele>
        <time>2023-11-26T14:13:58.000Z</time>
      </trkpt>
      <trkpt lat="45.88435" lon="4.59154">
        <ele>269.9953</ele>
        <time>2023-11-26T14:13:59.000Z</time>
      </trkpt>
      <trkpt lat="45.88437" lon="4.59151">
        <ele>269.77039</ele>
        <time>2023-11-26T14:14:00.000Z</time>
      </trkpt>
      <trkpt lat="45.88439" lon="4.59148">
        <ele>269.5495</ele>
        <time>2023-11-26T14:14:01.000Z</time>
      </trkpt>
      <trkpt lat="45.8844" lon="4.59144">
        <ele>269.3754</ele>
        <time>2023-11-26T14:14:02.000Z</time>
      </trkpt>
      <trkpt lat="45.88441" lon="4.5914">
        <ele>269.1058</ele>
        <time>2023-11-26T14:14:03.000Z</time>
      </trkpt>
      <trkpt lat="45.88442" lon="4.59137">
        <ele>267.11456</ele>
        <time>2023-11-26T14:14:04.000Z</time>
      </trkpt>
      <trkpt lat="45.88442" lon="4.59134">
        <ele>266.85098</ele>
        <time>2023-11-26T14:14:05.000Z</time>
      </trkpt>
      <trkpt lat="45.88442" lon="4.59131">
        <ele>266.59253</ele>
        <time>2023-11-26T14:14:06.000Z</time>
      </trkpt>
      <trkpt lat="45.88442" lon="4.59127">
        <ele>266.23456</ele>
        <time>2023-11-26T14:14:07.000Z</time>
      </trkpt>
      <trkpt lat="45.88443" lon="4.59124">
        <ele>265.9888</ele>
        <time>2023-11-26T14:14:08.000Z</time>
      </trkpt>
      <trkpt lat="45.88444" lon="4.5912">
        <ele>265.51215</ele>
        <time>2023-11-26T14:14:09.000Z</time>
      </trkpt>
      <trkpt lat="45.88445" lon="4.59115">
        <ele>263.11246</ele>
        <time>2023-11-26T14:14:10.000Z</time>
      </trkpt>
      <trkpt lat="45.88445" lon="4.59111">
        <ele>262.89468</ele>
        <time>2023-11-26T14:14:11.000Z</time>
      </trkpt>
      <trkpt lat="45.88446" lon="4.59106">
        <ele>262.64703</ele>
        <time>2023-11-26T14:14:12.000Z</time>
      </trkpt>
      <trkpt lat="45.88447" lon="4.59102">
        <ele>262.3725</ele>
        <time>2023-11-26T14:14:13.000Z</time>
      </trkpt>
      <trkpt lat="45.88448" lon="4.59097">
        <ele>263.08362</ele>
        <time>2023-11-26T14:14:14.000Z</time>
      </trkpt>
      <trkpt lat="45.88449" lon="4.59092">
        <ele>263.23541</ele>
        <time>2023-11-26T14:14:15.000Z</time>
      </trkpt>
      <trkpt lat="45.8845" lon="4.59088">
        <ele>263.4252</ele>
        <time>2023-11-26T14:14:16.000Z</time>
      </trkpt>
      <trkpt lat="45.8845" lon="4.59084">
        <ele>263.6113</ele>
        <time>2023-11-26T14:14:17.000Z</time>
      </trkpt>
      <trkpt lat="45.88451" lon="4.59079">
        <ele>263.78357</ele>
        <time>2023-11-26T14:14:18.000Z</time>
      </trkpt>
      <trkpt lat="45.88451" lon="4.59074">
        <ele>263.94882</ele>
        <time>2023-11-26T14:14:19.000Z</time>
      </trkpt>
      <trkpt lat="45.88451" lon="4.59069">
        <ele>264.09979</ele>
        <time>2023-11-26T14:14:20.000Z</time>
      </trkpt>
      <trkpt lat="45.88451" lon="4.59064">
        <ele>264.24506</ele>
        <time>2023-11-26T14:14:21.000Z</time>
      </trkpt>
      <trkpt lat="45.88452" lon="4.59058">
        <ele>264.37625</ele>
        <time>2023-11-26T14:14:22.000Z</time>
      </trkpt>
      <trkpt lat="45.88452" lon="4.59053">
        <ele>264.23288</ele>
        <time>2023-11-26T14:14:23.000Z</time>
      </trkpt>
      <trkpt lat="45.88453" lon="4.59048">
        <ele>264.00436</ele>
        <time>2023-11-26T14:14:24.000Z</time>
      </trkpt>
      <trkpt lat="45.88454" lon="4.59043">
        <ele>263.73895</ele>
        <time>2023-11-26T14:14:25.000Z</time>
      </trkpt>
      <trkpt lat="45.88455" lon="4.59039">
        <ele>264.01813</ele>
        <time>2023-11-26T14:14:26.000Z</time>
      </trkpt>
      <trkpt lat="45.88456" lon="4.59035">
        <ele>264.30695</ele>
        <time>2023-11-26T14:14:27.000Z</time>
      </trkpt>
      <trkpt lat="45.88457" lon="4.59031">
        <ele>264.48282</ele>
        <time>2023-11-26T14:14:28.000Z</time>
      </trkpt>
      <trkpt lat="45.88458" lon="4.59027">
        <ele>264.87006</ele>
        <time>2023-11-26T14:14:29.000Z</time>
      </trkpt>
      <trkpt lat="45.88459" lon="4.59022">
        <ele>265.53256</ele>
        <time>2023-11-26T14:14:30.000Z</time>
      </trkpt>
      <trkpt lat="45.8846" lon="4.59018">
        <ele>265.58798</ele>
        <time>2023-11-26T14:14:31.000Z</time>
      </trkpt>
      <trkpt lat="45.88461" lon="4.59013">
        <ele>265.66519</ele>
        <time>2023-11-26T14:14:32.000Z</time>
      </trkpt>
      <trkpt lat="45.88462" lon="4.59008">
        <ele>265.72504</ele>
        <time>2023-11-26T14:14:33.000Z</time>
      </trkpt>
      <trkpt lat="45.88463" lon="4.59003">
        <ele>265.82416</ele>
        <time>2023-11-26T14:14:34.000Z</time>
      </trkpt>
      <trkpt lat="45.88465" lon="4.58998">
        <ele>265.9151</ele>
        <time>2023-11-26T14:14:35.000Z</time>
      </trkpt>
      <trkpt lat="45.88466" lon="4.58994">
        <ele>266.3074</ele>
        <time>2023-11-26T14:14:36.000Z</time>
      </trkpt>
      <trkpt lat="45.88468" lon="4.58989">
        <ele>266.73788</ele>
        <time>2023-11-26T14:14:37.000Z</time>
      </trkpt>
      <trkpt lat="45.88469" lon="4.58984">
        <ele>267.22119</ele>
        <time>2023-11-26T14:14:38.000Z</time>
      </trkpt>
      <trkpt lat="45.88471" lon="4.58979">
        <ele>267.6701</ele>
        <time>2023-11-26T14:14:39.000Z</time>
      </trkpt>
      <trkpt lat="45.88472" lon="4.58975">
        <ele>268.02832</ele>
        <time>2023-11-26T14:14:40.000Z</time>
      </trkpt>
      <trkpt lat="45.88473" lon="4.58972">
        <ele>268.35934</ele>
        <time>2023-11-26T14:14:41.000Z</time>
      </trkpt>
      <trkpt lat="45.88474" lon="4.58968">
        <ele>268.42566</ele>
        <time>2023-11-26T14:14:42.000Z</time>
      </trkpt>
      <trkpt lat="45.88476" lon="4.58964">
        <ele>268.73441</ele>
        <time>2023-11-26T14:14:43.000Z</time>
      </trkpt>
      <trkpt lat="45.88476" lon="4.58959">
        <ele>269.03412</ele>
        <time>2023-11-26T14:14:44.000Z</time>
      </trkpt>
      <trkpt lat="45.88476" lon="4.58955">
        <ele>269.69138</ele>
        <time>2023-11-26T14:14:45.000Z</time>
      </trkpt>
      <trkpt lat="45.88475" lon="4.58949">
        <ele>269.67642</ele>
        <time>2023-11-26T14:14:46.000Z</time>
      </trkpt>
      <trkpt lat="45.88475" lon="4.58943">
        <ele>269.76801</ele>
        <time>2023-11-26T14:14:47.000Z</time>
      </trkpt>
      <trkpt lat="45.88474" lon="4.58939">
        <ele>269.92044</ele>
        <time>2023-11-26T14:14:48.000Z</time>
      </trkpt>
      <trkpt lat="45.88474" lon="4.58934">
        <ele>269.81619</ele>
        <time>2023-11-26T14:14:49.000Z</time>
      </trkpt>
      <trkpt lat="45.88475" lon="4.58929">
        <ele>269.53238</ele>
        <time>2023-11-26T14:14:50.000Z</time>
      </trkpt>
      <trkpt lat="45.88476" lon="4.58923">
        <ele>269.57587</ele>
        <time>2023-11-26T14:14:51.000Z</time>
      </trkpt>
      <trkpt lat="45.88478" lon="4.58917">
        <ele>269.4682</ele>
        <time>2023-11-26T14:14:52.000Z</time>
      </trkpt>
      <trkpt lat="45.88478" lon="4.58912">
        <ele>269.42743</ele>
        <time>2023-11-26T14:14:53.000Z</time>
      </trkpt>
      <trkpt lat="45.8848" lon="4.58906">
        <ele>269.31085</ele>
        <time>2023-11-26T14:14:54.000Z</time>
      </trkpt>
      <trkpt lat="45.88481" lon="4.58901">
        <ele>269.16183</ele>
        <time>2023-11-26T14:14:55.000Z</time>
      </trkpt>
      <trkpt lat="45.88482" lon="4.58897">
        <ele>268.37439</ele>
        <time>2023-11-26T14:14:56.000Z</time>
      </trkpt>
      <trkpt lat="45.88483" lon="4.58894">
        <ele>267.62454</ele>
        <time>2023-11-26T14:14:57.000Z</time>
      </trkpt>
      <trkpt lat="45.88484" lon="4.5889">
        <ele>266.85513</ele>
        <time>2023-11-26T14:14:58.000Z</time>
      </trkpt>
      <trkpt lat="45.88484" lon="4.58886">
        <ele>266.10297</ele>
        <time>2023-11-26T14:14:59.000Z</time>
      </trkpt>
      <trkpt lat="45.88484" lon="4.58881">
        <ele>265.44193</ele>
        <time>2023-11-26T14:15:00.000Z</time>
      </trkpt>
      <trkpt lat="45.88484" lon="4.58877">
        <ele>264.85321</ele>
        <time>2023-11-26T14:15:01.000Z</time>
      </trkpt>
      <trkpt lat="45.88484" lon="4.58871">
        <ele>264.5849</ele>
        <time>2023-11-26T14:15:02.000Z</time>
      </trkpt>
      <trkpt lat="45.88484" lon="4.58866">
        <ele>264.36133</ele>
        <time>2023-11-26T14:15:03.000Z</time>
      </trkpt>
      <trkpt lat="45.88483" lon="4.58861">
        <ele>264.12677</ele>
        <time>2023-11-26T14:15:04.000Z</time>
      </trkpt>
      <trkpt lat="45.88483" lon="4.58854">
        <ele>263.5141</ele>
        <time>2023-11-26T14:15:05.000Z</time>
      </trkpt>
      <trkpt lat="45.88482" lon="4.58848">
        <ele>263.41901</ele>
        <time>2023-11-26T14:15:06.000Z</time>
      </trkpt>
      <trkpt lat="45.88482" lon="4.58842">
        <ele>263.1922</ele>
        <time>2023-11-26T14:15:07.000Z</time>
      </trkpt>
      <trkpt lat="45.88481" lon="4.58835">
        <ele>262.88638</ele>
        <time>2023-11-26T14:15:08.000Z</time>
      </trkpt>
      <trkpt lat="45.8848" lon="4.58828">
        <ele>262.86072</ele>
        <time>2023-11-26T14:15:09.000Z</time>
      </trkpt>
      <trkpt lat="45.88479" lon="4.58822">
        <ele>263.02594</ele>
        <time>2023-11-26T14:15:10.000Z</time>
      </trkpt>
      <trkpt lat="45.88477" lon="4.58816">
        <ele>262.90985</ele>
        <time>2023-11-26T14:15:11.000Z</time>
      </trkpt>
      <trkpt lat="45.88475" lon="4.5881">
        <ele>263.05023</ele>
        <time>2023-11-26T14:15:12.000Z</time>
      </trkpt>
      <trkpt lat="45.88474" lon="4.58804">
        <ele>263.09055</ele>
        <time>2023-11-26T14:15:13.000Z</time>
      </trkpt>
      <trkpt lat="45.88472" lon="4.58798">
        <ele>263.14716</ele>
        <time>2023-11-26T14:15:14.000Z</time>
      </trkpt>
      <trkpt lat="45.88471" lon="4.58792">
        <ele>263.24924</ele>
        <time>2023-11-26T14:15:15.000Z</time>
      </trkpt>
      <trkpt lat="45.8847" lon="4.58786">
        <ele>263.6088</ele>
        <time>2023-11-26T14:15:16.000Z</time>
      </trkpt>
      <trkpt lat="45.88469" lon="4.58779">
        <ele>264.00845</ele>
        <time>2023-11-26T14:15:17.000Z</time>
      </trkpt>
      <trkpt lat="45.88468" lon="4.58774">
        <ele>264.35599</ele>
        <time>2023-11-26T14:15:18.000Z</time>
      </trkpt>
      <trkpt lat="45.88468" lon="4.58769">
        <ele>264.63507</ele>
        <time>2023-11-26T14:15:19.000Z</time>
      </trkpt>
      <trkpt lat="45.88469" lon="4.58762">
        <ele>264.9111</ele>
        <time>2023-11-26T14:15:20.000Z</time>
      </trkpt>
      <trkpt lat="45.8847" lon="4.58755">
        <ele>264.88263</ele>
        <time>2023-11-26T14:15:21.000Z</time>
      </trkpt>
      <trkpt lat="45.88471" lon="4.58747">
        <ele>264.80548</ele>
        <time>2023-11-26T14:15:22.000Z</time>
      </trkpt>
      <trkpt lat="45.88472" lon="4.58741">
        <ele>264.73526</ele>
        <time>2023-11-26T14:15:23.000Z</time>
      </trkpt>
      <trkpt lat="45.88474" lon="4.58734">
        <ele>265.13727</ele>
        <time>2023-11-26T14:15:24.000Z</time>
      </trkpt>
      <trkpt lat="45.88478" lon="4.58721">
        <ele>265.51511</ele>
        <time>2023-11-26T14:15:25.000Z</time>
      </trkpt>
      <trkpt lat="45.88482" lon="4.5872">
        <ele>265.63434</ele>
        <time>2023-11-26T14:15:26.000Z</time>
      </trkpt>
      <trkpt lat="45.88486" lon="4.5872">
        <ele>265.81018</ele>
        <time>2023-11-26T14:15:27.000Z</time>
      </trkpt>
      <trkpt lat="45.8849" lon="4.58719">
        <ele>265.97931</ele>
        <time>2023-11-26T14:15:28.000Z</time>
      </trkpt>
      <trkpt lat="45.88494" lon="4.58719">
        <ele>266.11078</ele>
        <time>2023-11-26T14:15:29.000Z</time>
      </trkpt>
      <trkpt lat="45.88498" lon="4.58719">
        <ele>266.2193</ele>
        <time>2023-11-26T14:15:30.000Z</time>
      </trkpt>
      <trkpt lat="45.88501" lon="4.58717">
        <ele>266.23975</ele>
        <time>2023-11-26T14:15:31.000Z</time>
      </trkpt>
      <trkpt lat="45.88505" lon="4.58718">
        <ele>266.15045</ele>
        <time>2023-11-26T14:15:32.000Z</time>
      </trkpt>
      <trkpt lat="45.88508" lon="4.58716">
        <ele>266.10498</ele>
        <time>2023-11-26T14:15:33.000Z</time>
      </trkpt>
      <trkpt lat="45.88512" lon="4.58716">
        <ele>266.09293</ele>
        <time>2023-11-26T14:15:34.000Z</time>
      </trkpt>
      <trkpt lat="45.88516" lon="4.58716">
        <ele>266.06131</ele>
        <time>2023-11-26T14:15:35.000Z</time>
      </trkpt>
      <trkpt lat="45.88519" lon="4.58717">
        <ele>266.02225</ele>
        <time>2023-11-26T14:15:36.000Z</time>
      </trkpt>
      <trkpt lat="45.88522" lon="4.58716">
        <ele>265.86694</ele>
        <time>2023-11-26T14:15:37.000Z</time>
      </trkpt>
      <trkpt lat="45.88526" lon="4.58715">
        <ele>265.53461</ele>
        <time>2023-11-26T14:15:38.000Z</time>
      </trkpt>
      <trkpt lat="45.88529" lon="4.58714">
        <ele>265.19055</ele>
        <time>2023-11-26T14:15:39.000Z</time>
      </trkpt>
      <trkpt lat="45.88533" lon="4.58714">
        <ele>264.89401</ele>
        <time>2023-11-26T14:15:40.000Z</time>
      </trkpt>
      <trkpt lat="45.88537" lon="4.58713">
        <ele>265.30551</ele>
        <time>2023-11-26T14:15:41.000Z</time>
      </trkpt>
      <trkpt lat="45.88541" lon="4.58713">
        <ele>265.62268</ele>
        <time>2023-11-26T14:15:42.000Z</time>
      </trkpt>
      <trkpt lat="45.88545" lon="4.58712">
        <ele>266.04523</ele>
        <time>2023-11-26T14:15:43.000Z</time>
      </trkpt>
      <trkpt lat="45.88548" lon="4.58711">
        <ele>266.12662</ele>
        <time>2023-11-26T14:15:44.000Z</time>
      </trkpt>
      <trkpt lat="45.88552" lon="4.58711">
        <ele>266.1727</ele>
        <time>2023-11-26T14:15:45.000Z</time>
      </trkpt>
      <trkpt lat="45.88556" lon="4.5871">
        <ele>266.03156</ele>
        <time>2023-11-26T14:15:46.000Z</time>
      </trkpt>
      <trkpt lat="45.88559" lon="4.58709">
        <ele>265.98074</ele>
        <time>2023-11-26T14:15:47.000Z</time>
      </trkpt>
      <trkpt lat="45.88562" lon="4.58709">
        <ele>266.0155</ele>
        <time>2023-11-26T14:15:48.000Z</time>
      </trkpt>
      <trkpt lat="45.88566" lon="4.5871">
        <ele>266.0903</ele>
        <time>2023-11-26T14:15:49.000Z</time>
      </trkpt>
      <trkpt lat="45.88569" lon="4.58709">
        <ele>266.2196</ele>
        <time>2023-11-26T14:15:50.000Z</time>
      </trkpt>
      <trkpt lat="45.88573" lon="4.58709">
        <ele>266.34198</ele>
        <time>2023-11-26T14:15:51.000Z</time>
      </trkpt>
      <trkpt lat="45.88576" lon="4.58708">
        <ele>266.58502</ele>
        <time>2023-11-26T14:15:52.000Z</time>
      </trkpt>
      <trkpt lat="45.88579" lon="4.58707">
        <ele>266.86652</ele>
        <time>2023-11-26T14:15:53.000Z</time>
      </trkpt>
      <trkpt lat="45.88581" lon="4.58706">
        <ele>267.11786</ele>
        <time>2023-11-26T14:15:54.000Z</time>
      </trkpt>
      <trkpt lat="45.88584" lon="4.58705">
        <ele>267.3335</ele>
        <time>2023-11-26T14:15:55.000Z</time>
      </trkpt>
      <trkpt lat="45.88586" lon="4.58704">
        <ele>267.6059</ele>
        <time>2023-11-26T14:15:56.000Z</time>
      </trkpt>
      <trkpt lat="45.88588" lon="4.58702">
        <ele>268.02386</ele>
        <time>2023-11-26T14:15:58.000Z</time>
      </trkpt>
      <trkpt lat="45.88589" lon="4.58699">
        <ele>268.66699</ele>
        <time>2023-11-26T14:16:00.000Z</time>
      </trkpt>
      <trkpt lat="45.88591" lon="4.58699">
        <ele>269.40961</ele>
        <time>2023-11-26T14:16:02.000Z</time>
      </trkpt>
      <trkpt lat="45.88593" lon="4.58699">
        <ele>270.09097</ele>
        <time>2023-11-26T14:16:03.000Z</time>
      </trkpt>
      <trkpt lat="45.88595" lon="4.58698">
        <ele>270.3681</ele>
        <time>2023-11-26T14:16:04.000Z</time>
      </trkpt>
      <trkpt lat="45.88596" lon="4.58696">
        <ele>270.70944</ele>
        <time>2023-11-26T14:16:05.000Z</time>
      </trkpt>
      <trkpt lat="45.88598" lon="4.58694">
        <ele>270.99234</ele>
        <time>2023-11-26T14:16:06.000Z</time>
      </trkpt>
      <trkpt lat="45.886" lon="4.58691">
        <ele>271.19635</ele>
        <time>2023-11-26T14:16:07.000Z</time>
      </trkpt>
      <trkpt lat="45.88602" lon="4.58689">
        <ele>271.25302</ele>
        <time>2023-11-26T14:16:08.000Z</time>
      </trkpt>
      <trkpt lat="45.88604" lon="4.58687">
        <ele>271.35614</ele>
        <time>2023-11-26T14:16:09.000Z</time>
      </trkpt>
      <trkpt lat="45.88606" lon="4.58684">
        <ele>271.40036</ele>
        <time>2023-11-26T14:16:10.000Z</time>
      </trkpt>
      <trkpt lat="45.88608" lon="4.58681">
        <ele>271.34003</ele>
        <time>2023-11-26T14:16:11.000Z</time>
      </trkpt>
      <trkpt lat="45.8861" lon="4.58678">
        <ele>271.25934</ele>
        <time>2023-11-26T14:16:12.000Z</time>
      </trkpt>
      <trkpt lat="45.88612" lon="4.58675">
        <ele>271.45425</ele>
        <time>2023-11-26T14:16:13.000Z</time>
      </trkpt>
      <trkpt lat="45.88614" lon="4.58673">
        <ele>271.63544</ele>
        <time>2023-11-26T14:16:14.000Z</time>
      </trkpt>
      <trkpt lat="45.88616" lon="4.5867">
        <ele>271.70294</ele>
        <time>2023-11-26T14:16:15.000Z</time>
      </trkpt>
      <trkpt lat="45.88618" lon="4.58667">
        <ele>271.57172</ele>
        <time>2023-11-26T14:16:16.000Z</time>
      </trkpt>
      <trkpt lat="45.8862" lon="4.58665">
        <ele>271.50943</ele>
        <time>2023-11-26T14:16:17.000Z</time>
      </trkpt>
      <trkpt lat="45.88621" lon="4.58662">
        <ele>271.50098</ele>
        <time>2023-11-26T14:16:18.000Z</time>
      </trkpt>
      <trkpt lat="45.88623" lon="4.58659">
        <ele>271.43677</ele>
        <time>2023-11-26T14:16:19.000Z</time>
      </trkpt>
      <trkpt lat="45.88625" lon="4.58656">
        <ele>271.18106</ele>
        <time>2023-11-26T14:16:20.000Z</time>
      </trkpt>
      <trkpt lat="45.88628" lon="4.58654">
        <ele>270.87933</ele>
        <time>2023-11-26T14:16:21.000Z</time>
      </trkpt>
      <trkpt lat="45.88631" lon="4.58652">
        <ele>270.90149</ele>
        <time>2023-11-26T14:16:22.000Z</time>
      </trkpt>
      <trkpt lat="45.88634" lon="4.58651">
        <ele>270.86639</ele>
        <time>2023-11-26T14:16:23.000Z</time>
      </trkpt>
      <trkpt lat="45.88636" lon="4.58651">
        <ele>270.80923</ele>
        <time>2023-11-26T14:16:24.000Z</time>
      </trkpt>
      <trkpt lat="45.88639" lon="4.5865">
        <ele>270.74002</ele>
        <time>2023-11-26T14:16:25.000Z</time>
      </trkpt>
      <trkpt lat="45.88641" lon="4.58648">
        <ele>270.68192</ele>
        <time>2023-11-26T14:16:26.000Z</time>
      </trkpt>
      <trkpt lat="45.88644" lon="4.58646">
        <ele>270.62762</ele>
        <time>2023-11-26T14:16:27.000Z</time>
      </trkpt>
      <trkpt lat="45.88647" lon="4.58644">
        <ele>270.81732</ele>
        <time>2023-11-26T14:16:28.000Z</time>
      </trkpt>
      <trkpt lat="45.8865" lon="4.58641">
        <ele>271.00214</ele>
        <time>2023-11-26T14:16:29.000Z</time>
      </trkpt>
      <trkpt lat="45.88653" lon="4.58639">
        <ele>271.16919</ele>
        <time>2023-11-26T14:16:30.000Z</time>
      </trkpt>
      <trkpt lat="45.88656" lon="4.58637">
        <ele>271.36783</ele>
        <time>2023-11-26T14:16:31.000Z</time>
      </trkpt>
      <trkpt lat="45.88659" lon="4.58635">
        <ele>271.58215</ele>
        <time>2023-11-26T14:16:32.000Z</time>
      </trkpt>
      <trkpt lat="45.88662" lon="4.58633">
        <ele>271.47888</ele>
        <time>2023-11-26T14:16:33.000Z</time>
      </trkpt>
      <trkpt lat="45.88666" lon="4.58631">
        <ele>271.42865</ele>
        <time>2023-11-26T14:16:34.000Z</time>
      </trkpt>
      <trkpt lat="45.88669" lon="4.58629">
        <ele>271.36285</ele>
        <time>2023-11-26T14:16:35.000Z</time>
      </trkpt>
      <trkpt lat="45.88672" lon="4.58628">
        <ele>271.31641</ele>
        <time>2023-11-26T14:16:36.000Z</time>
      </trkpt>
      <trkpt lat="45.88676" lon="4.58627">
        <ele>271.17749</ele>
        <time>2023-11-26T14:16:37.000Z</time>
      </trkpt>
      <trkpt lat="45.88679" lon="4.58625">
        <ele>271.04782</ele>
        <time>2023-11-26T14:16:38.000Z</time>
      </trkpt>
      <trkpt lat="45.88682" lon="4.58624">
        <ele>270.8775</ele>
        <time>2023-11-26T14:16:39.000Z</time>
      </trkpt>
      <trkpt lat="45.88685" lon="4.58621">
        <ele>270.77234</ele>
        <time>2023-11-26T14:16:40.000Z</time>
      </trkpt>
      <trkpt lat="45.88688" lon="4.58619">
        <ele>271.00153</ele>
        <time>2023-11-26T14:16:41.000Z</time>
      </trkpt>
      <trkpt lat="45.88691" lon="4.58616">
        <ele>270.86932</ele>
        <time>2023-11-26T14:16:42.000Z</time>
      </trkpt>
      <trkpt lat="45.88694" lon="4.58613">
        <ele>270.82617</ele>
        <time>2023-11-26T14:16:43.000Z</time>
      </trkpt>
      <trkpt lat="45.88697" lon="4.58611">
        <ele>270.77161</ele>
        <time>2023-11-26T14:16:44.000Z</time>
      </trkpt>
      <trkpt lat="45.88699" lon="4.58608">
        <ele>270.71646</ele>
        <time>2023-11-26T14:16:45.000Z</time>
      </trkpt>
      <trkpt lat="45.88701" lon="4.58604">
        <ele>270.6763</ele>
        <time>2023-11-26T14:16:46.000Z</time>
      </trkpt>
      <trkpt lat="45.88702" lon="4.58599">
        <ele>270.63864</ele>
        <time>2023-11-26T14:16:47.000Z</time>
      </trkpt>
      <trkpt lat="45.88704" lon="4.58594">
        <ele>270.56561</ele>
        <time>2023-11-26T14:16:48.000Z</time>
      </trkpt>
      <trkpt lat="45.88705" lon="4.58588">
        <ele>270.38608</ele>
        <time>2023-11-26T14:16:49.000Z</time>
      </trkpt>
      <trkpt lat="45.88706" lon="4.58582">
        <ele>270.13068</ele>
        <time>2023-11-26T14:16:50.000Z</time>
      </trkpt>
      <trkpt lat="45.88708" lon="4.58577">
        <ele>269.83469</ele>
        <time>2023-11-26T14:16:51.000Z</time>
      </trkpt>
      <trkpt lat="45.88709" lon="4.58572">
        <ele>269.53287</ele>
        <time>2023-11-26T14:16:52.000Z</time>
      </trkpt>
      <trkpt lat="45.8871" lon="4.58566">
        <ele>269.52728</ele>
        <time>2023-11-26T14:16:53.000Z</time>
      </trkpt>
      <trkpt lat="45.88712" lon="4.58561">
        <ele>269.47699</ele>
        <time>2023-11-26T14:16:54.000Z</time>
      </trkpt>
      <trkpt lat="45.88713" lon="4.58555">
        <ele>269.46652</ele>
        <time>2023-11-26T14:16:55.000Z</time>
      </trkpt>
      <trkpt lat="45.88715" lon="4.5855">
        <ele>269.64523</ele>
        <time>2023-11-26T14:16:56.000Z</time>
      </trkpt>
      <trkpt lat="45.88716" lon="4.58546">
        <ele>269.85175</ele>
        <time>2023-11-26T14:16:57.000Z</time>
      </trkpt>
      <trkpt lat="45.88718" lon="4.58541">
        <ele>270.05551</ele>
        <time>2023-11-26T14:16:58.000Z</time>
      </trkpt>
      <trkpt lat="45.8872" lon="4.58537">
        <ele>270.31839</ele>
        <time>2023-11-26T14:16:59.000Z</time>
      </trkpt>
      <trkpt lat="45.88723" lon="4.58535">
        <ele>270.59756</ele>
        <time>2023-11-26T14:17:00.000Z</time>
      </trkpt>
      <trkpt lat="45.88726" lon="4.58533">
        <ele>270.58435</ele>
        <time>2023-11-26T14:17:01.000Z</time>
      </trkpt>
      <trkpt lat="45.8873" lon="4.58534">
        <ele>270.60205</ele>
        <time>2023-11-26T14:17:02.000Z</time>
      </trkpt>
      <trkpt lat="45.88733" lon="4.58536">
        <ele>270.43073</ele>
        <time>2023-11-26T14:17:03.000Z</time>
      </trkpt>
      <trkpt lat="45.88736" lon="4.58538">
        <ele>270.18863</ele>
        <time>2023-11-26T14:17:04.000Z</time>
      </trkpt>
      <trkpt lat="45.88739" lon="4.5854">
        <ele>269.85208</ele>
        <time>2023-11-26T14:17:05.000Z</time>
      </trkpt>
      <trkpt lat="45.88742" lon="4.5854">
        <ele>269.85846</ele>
        <time>2023-11-26T14:17:06.000Z</time>
      </trkpt>
      <trkpt lat="45.88745" lon="4.58541">
        <ele>269.84772</ele>
        <time>2023-11-26T14:17:07.000Z</time>
      </trkpt>
      <trkpt lat="45.88747" lon="4.58542">
        <ele>269.8504</ele>
        <time>2023-11-26T14:17:08.000Z</time>
      </trkpt>
      <trkpt lat="45.8875" lon="4.58542">
        <ele>270.00311</ele>
        <time>2023-11-26T14:17:09.000Z</time>
      </trkpt>
      <trkpt lat="45.88753" lon="4.58544">
        <ele>270.27081</ele>
        <time>2023-11-26T14:17:10.000Z</time>
      </trkpt>
      <trkpt lat="45.88755" lon="4.58546">
        <ele>270.59143</ele>
        <time>2023-11-26T14:17:11.000Z</time>
      </trkpt>
      <trkpt lat="45.88758" lon="4.58548">
        <ele>270.91336</ele>
        <time>2023-11-26T14:17:12.000Z</time>
      </trkpt>
      <trkpt lat="45.88761" lon="4.5855">
        <ele>270.91534</ele>
        <time>2023-11-26T14:17:13.000Z</time>
      </trkpt>
      <trkpt lat="45.88764" lon="4.58552">
        <ele>270.92606</ele>
        <time>2023-11-26T14:17:14.000Z</time>
      </trkpt>
      <trkpt lat="45.88768" lon="4.58552">
        <ele>270.90109</ele>
        <time>2023-11-26T14:17:15.000Z</time>
      </trkpt>
      <trkpt lat="45.88771" lon="4.58553">
        <ele>270.85229</ele>
        <time>2023-11-26T14:17:16.000Z</time>
      </trkpt>
      <trkpt lat="45.88775" lon="4.58555">
        <ele>270.81842</ele>
        <time>2023-11-26T14:17:17.000Z</time>
      </trkpt>
      <trkpt lat="45.88778" lon="4.58556">
        <ele>270.7717</ele>
        <time>2023-11-26T14:17:18.000Z</time>
      </trkpt>
      <trkpt lat="45.88782" lon="4.58557">
        <ele>270.74359</ele>
        <time>2023-11-26T14:17:19.000Z</time>
      </trkpt>
      <trkpt lat="45.88786" lon="4.58558">
        <ele>270.74051</ele>
        <time>2023-11-26T14:17:20.000Z</time>
      </trkpt>
      <trkpt lat="45.8879" lon="4.58559">
        <ele>270.71573</ele>
        <time>2023-11-26T14:17:21.000Z</time>
      </trkpt>
      <trkpt lat="45.88793" lon="4.5856">
        <ele>270.6922</ele>
        <time>2023-11-26T14:17:22.000Z</time>
      </trkpt>
      <trkpt lat="45.88797" lon="4.58561">
        <ele>270.69748</ele>
        <time>2023-11-26T14:17:23.000Z</time>
      </trkpt>
      <trkpt lat="45.88801" lon="4.58562">
        <ele>270.70541</ele>
        <time>2023-11-26T14:17:24.000Z</time>
      </trkpt>
      <trkpt lat="45.88804" lon="4.58564">
        <ele>270.8111</ele>
        <time>2023-11-26T14:17:25.000Z</time>
      </trkpt>
      <trkpt lat="45.88808" lon="4.58565">
        <ele>270.53598</ele>
        <time>2023-11-26T14:17:26.000Z</time>
      </trkpt>
      <trkpt lat="45.88812" lon="4.58567">
        <ele>270.2522</ele>
        <time>2023-11-26T14:17:27.000Z</time>
      </trkpt>
      <trkpt lat="45.88815" lon="4.58568">
        <ele>270.31635</ele>
        <time>2023-11-26T14:17:28.000Z</time>
      </trkpt>
      <trkpt lat="45.88819" lon="4.58569">
        <ele>270.30682</ele>
        <time>2023-11-26T14:17:29.000Z</time>
      </trkpt>
      <trkpt lat="45.88823" lon="4.5857">
        <ele>270.2962</ele>
        <time>2023-11-26T14:17:30.000Z</time>
      </trkpt>
      <trkpt lat="45.88827" lon="4.58571">
        <ele>270.27625</ele>
        <time>2023-11-26T14:17:31.000Z</time>
      </trkpt>
      <trkpt lat="45.88831" lon="4.58572">
        <ele>270.24445</ele>
        <time>2023-11-26T14:17:32.000Z</time>
      </trkpt>
      <trkpt lat="45.88835" lon="4.58572">
        <ele>270.22321</ele>
        <time>2023-11-26T14:17:33.000Z</time>
      </trkpt>
      <trkpt lat="45.88839" lon="4.58573">
        <ele>270.20627</ele>
        <time>2023-11-26T14:17:34.000Z</time>
      </trkpt>
      <trkpt lat="45.88843" lon="4.58574">
        <ele>270.21216</ele>
        <time>2023-11-26T14:17:35.000Z</time>
      </trkpt>
      <trkpt lat="45.88847" lon="4.58575">
        <ele>270.21262</ele>
        <time>2023-11-26T14:17:36.000Z</time>
      </trkpt>
      <trkpt lat="45.88852" lon="4.58576">
        <ele>270.22858</ele>
        <time>2023-11-26T14:17:37.000Z</time>
      </trkpt>
      <trkpt lat="45.88856" lon="4.58577">
        <ele>270.24042</ele>
        <time>2023-11-26T14:17:38.000Z</time>
      </trkpt>
      <trkpt lat="45.8886" lon="4.58578">
        <ele>270.2717</ele>
        <time>2023-11-26T14:17:39.000Z</time>
      </trkpt>
      <trkpt lat="45.88863" lon="4.58579">
        <ele>270.27698</ele>
        <time>2023-11-26T14:17:40.000Z</time>
      </trkpt>
      <trkpt lat="45.88867" lon="4.58581">
        <ele>270.29996</ele>
        <time>2023-11-26T14:17:41.000Z</time>
      </trkpt>
      <trkpt lat="45.88871" lon="4.58583">
        <ele>270.3172</ele>
        <time>2023-11-26T14:17:42.000Z</time>
      </trkpt>
      <trkpt lat="45.88875" lon="4.58585">
        <ele>270.31912</ele>
        <time>2023-11-26T14:17:43.000Z</time>
      </trkpt>
      <trkpt lat="45.88879" lon="4.58588">
        <ele>270.30621</ele>
        <time>2023-11-26T14:17:44.000Z</time>
      </trkpt>
      <trkpt lat="45.88883" lon="4.5859">
        <ele>270.22403</ele>
        <time>2023-11-26T14:17:45.000Z</time>
      </trkpt>
      <trkpt lat="45.88887" lon="4.58591">
        <ele>270.50967</ele>
        <time>2023-11-26T14:17:46.000Z</time>
      </trkpt>
      <trkpt lat="45.88891" lon="4.58593">
        <ele>270.79169</ele>
        <time>2023-11-26T14:17:47.000Z</time>
      </trkpt>
      <trkpt lat="45.88895" lon="4.58595">
        <ele>270.70258</ele>
        <time>2023-11-26T14:17:48.000Z</time>
      </trkpt>
      <trkpt lat="45.88899" lon="4.58597">
        <ele>270.65948</ele>
        <time>2023-11-26T14:17:49.000Z</time>
      </trkpt>
      <trkpt lat="45.88903" lon="4.58599">
        <ele>270.59598</ele>
        <time>2023-11-26T14:17:50.000Z</time>
      </trkpt>
      <trkpt lat="45.88907" lon="4.586">
        <ele>270.55026</ele>
        <time>2023-11-26T14:17:51.000Z</time>
      </trkpt>
      <trkpt lat="45.88911" lon="4.58603">
        <ele>270.49036</ele>
        <time>2023-11-26T14:17:52.000Z</time>
      </trkpt>
      <trkpt lat="45.88914" lon="4.58604">
        <ele>270.44797</ele>
        <time>2023-11-26T14:17:53.000Z</time>
      </trkpt>
      <trkpt lat="45.88918" lon="4.58606">
        <ele>270.41794</ele>
        <time>2023-11-26T14:17:54.000Z</time>
      </trkpt>
      <trkpt lat="45.88922" lon="4.58608">
        <ele>270.3653</ele>
        <time>2023-11-26T14:17:55.000Z</time>
      </trkpt>
      <trkpt lat="45.88926" lon="4.5861">
        <ele>270.2886</ele>
        <time>2023-11-26T14:17:56.000Z</time>
      </trkpt>
      <trkpt lat="45.8893" lon="4.58612">
        <ele>270.25412</ele>
        <time>2023-11-26T14:17:57.000Z</time>
      </trkpt>
      <trkpt lat="45.88934" lon="4.58614">
        <ele>270.21646</ele>
        <time>2023-11-26T14:17:58.000Z</time>
      </trkpt>
      <trkpt lat="45.88937" lon="4.58616">
        <ele>270.10867</ele>
        <time>2023-11-26T14:17:59.000Z</time>
      </trkpt>
      <trkpt lat="45.88941" lon="4.58619">
        <ele>269.99335</ele>
        <time>2023-11-26T14:18:00.000Z</time>
      </trkpt>
      <trkpt lat="45.88945" lon="4.58621">
        <ele>269.85556</ele>
        <time>2023-11-26T14:18:01.000Z</time>
      </trkpt>
      <trkpt lat="45.88949" lon="4.58622">
        <ele>269.53275</ele>
        <time>2023-11-26T14:18:02.000Z</time>
      </trkpt>
      <trkpt lat="45.88953" lon="4.58625">
        <ele>269.319</ele>
        <time>2023-11-26T14:18:03.000Z</time>
      </trkpt>
      <trkpt lat="45.88957" lon="4.58627">
        <ele>269.44183</ele>
        <time>2023-11-26T14:18:04.000Z</time>
      </trkpt>
      <trkpt lat="45.88961" lon="4.58629">
        <ele>269.5683</ele>
        <time>2023-11-26T14:18:05.000Z</time>
      </trkpt>
      <trkpt lat="45.88966" lon="4.5863">
        <ele>269.38861</ele>
        <time>2023-11-26T14:18:06.000Z</time>
      </trkpt>
      <trkpt lat="45.8897" lon="4.58632">
        <ele>269.24081</ele>
        <time>2023-11-26T14:18:07.000Z</time>
      </trkpt>
      <trkpt lat="45.88974" lon="4.58634">
        <ele>269.11926</ele>
        <time>2023-11-26T14:18:08.000Z</time>
      </trkpt>
      <trkpt lat="45.88978" lon="4.58636">
        <ele>269.00739</ele>
        <time>2023-11-26T14:18:09.000Z</time>
      </trkpt>
      <trkpt lat="45.88982" lon="4.58638">
        <ele>268.92447</ele>
        <time>2023-11-26T14:18:10.000Z</time>
      </trkpt>
      <trkpt lat="45.88985" lon="4.5864">
        <ele>268.85556</ele>
        <time>2023-11-26T14:18:11.000Z</time>
      </trkpt>
      <trkpt lat="45.88989" lon="4.58644">
        <ele>268.7901</ele>
        <time>2023-11-26T14:18:12.000Z</time>
      </trkpt>
      <trkpt lat="45.88993" lon="4.58647">
        <ele>268.69315</ele>
        <time>2023-11-26T14:18:13.000Z</time>
      </trkpt>
      <trkpt lat="45.88998" lon="4.58649">
        <ele>268.57947</ele>
        <time>2023-11-26T14:18:14.000Z</time>
      </trkpt>
      <trkpt lat="45.89002" lon="4.58652">
        <ele>268.48972</ele>
        <time>2023-11-26T14:18:15.000Z</time>
      </trkpt>
      <trkpt lat="45.89006" lon="4.58654">
        <ele>268.40457</ele>
        <time>2023-11-26T14:18:16.000Z</time>
      </trkpt>
      <trkpt lat="45.89009" lon="4.58657">
        <ele>268.30325</ele>
        <time>2023-11-26T14:18:17.000Z</time>
      </trkpt>
      <trkpt lat="45.89013" lon="4.58659">
        <ele>268.19687</ele>
        <time>2023-11-26T14:18:18.000Z</time>
      </trkpt>
      <trkpt lat="45.89017" lon="4.58662">
        <ele>268.0882</ele>
        <time>2023-11-26T14:18:19.000Z</time>
      </trkpt>
      <trkpt lat="45.89021" lon="4.58664">
        <ele>267.97336</ele>
        <time>2023-11-26T14:18:20.000Z</time>
      </trkpt>
      <trkpt lat="45.89025" lon="4.58666">
        <ele>267.90228</ele>
        <time>2023-11-26T14:18:21.000Z</time>
      </trkpt>
      <trkpt lat="45.89029" lon="4.58668">
        <ele>268.035</ele>
        <time>2023-11-26T14:18:22.000Z</time>
      </trkpt>
      <trkpt lat="45.89033" lon="4.58671">
        <ele>268.04196</ele>
        <time>2023-11-26T14:18:23.000Z</time>
      </trkpt>
      <trkpt lat="45.89037" lon="4.58674">
        <ele>267.78864</ele>
        <time>2023-11-26T14:18:24.000Z</time>
      </trkpt>
      <trkpt lat="45.89041" lon="4.58675">
        <ele>267.56631</ele>
        <time>2023-11-26T14:18:25.000Z</time>
      </trkpt>
      <trkpt lat="45.89045" lon="4.58677">
        <ele>267.30374</ele>
        <time>2023-11-26T14:18:26.000Z</time>
      </trkpt>
      <trkpt lat="45.89049" lon="4.5868">
        <ele>267.29541</ele>
        <time>2023-11-26T14:18:27.000Z</time>
      </trkpt>
      <trkpt lat="45.89054" lon="4.58683">
        <ele>267.20932</ele>
        <time>2023-11-26T14:18:28.000Z</time>
      </trkpt>
      <trkpt lat="45.89058" lon="4.58685">
        <ele>267.08545</ele>
        <time>2023-11-26T14:18:29.000Z</time>
      </trkpt>
      <trkpt lat="45.89063" lon="4.58687">
        <ele>266.97083</ele>
        <time>2023-11-26T14:18:30.000Z</time>
      </trkpt>
      <trkpt lat="45.89067" lon="4.58689">
        <ele>266.90109</ele>
        <time>2023-11-26T14:18:31.000Z</time>
      </trkpt>
      <trkpt lat="45.89071" lon="4.5869">
        <ele>266.85504</ele>
        <time>2023-11-26T14:18:32.000Z</time>
      </trkpt>
      <trkpt lat="45.89075" lon="4.58691">
        <ele>266.81122</ele>
        <time>2023-11-26T14:18:33.000Z</time>
      </trkpt>
      <trkpt lat="45.8908" lon="4.58692">
        <ele>266.77597</ele>
        <time>2023-11-26T14:18:34.000Z</time>
      </trkpt>
      <trkpt lat="45.89083" lon="4.58694">
        <ele>266.74207</ele>
        <time>2023-11-26T14:18:35.000Z</time>
      </trkpt>
      <trkpt lat="45.89086" lon="4.58695">
        <ele>266.74585</ele>
        <time>2023-11-26T14:18:36.000Z</time>
      </trkpt>
      <trkpt lat="45.89089" lon="4.58696">
        <ele>267.33945</ele>
        <time>2023-11-26T14:18:37.000Z</time>
      </trkpt>
      <trkpt lat="45.89093" lon="4.58698">
        <ele>267.96027</ele>
        <time>2023-11-26T14:18:38.000Z</time>
      </trkpt>
      <trkpt lat="45.89096" lon="4.58701">
        <ele>268.62805</ele>
        <time>2023-11-26T14:18:39.000Z</time>
      </trkpt>
      <trkpt lat="45.891" lon="4.58702">
        <ele>269.30109</ele>
        <time>2023-11-26T14:18:40.000Z</time>
      </trkpt>
      <trkpt lat="45.89104" lon="4.58704">
        <ele>269.36765</ele>
        <time>2023-11-26T14:18:41.000Z</time>
      </trkpt>
      <trkpt lat="45.89107" lon="4.58707">
        <ele>269.45923</ele>
        <time>2023-11-26T14:18:42.000Z</time>
      </trkpt>
      <trkpt lat="45.89111" lon="4.58709">
        <ele>269.71542</ele>
        <time>2023-11-26T14:18:43.000Z</time>
      </trkpt>
      <trkpt lat="45.89115" lon="4.58712">
        <ele>269.97589</ele>
        <time>2023-11-26T14:18:44.000Z</time>
      </trkpt>
      <trkpt lat="45.89118" lon="4.58715">
        <ele>270.26849</ele>
        <time>2023-11-26T14:18:45.000Z</time>
      </trkpt>
      <trkpt lat="45.89122" lon="4.58718">
        <ele>270.58453</ele>
        <time>2023-11-26T14:18:46.000Z</time>
      </trkpt>
      <trkpt lat="45.89126" lon="4.5872">
        <ele>270.64807</ele>
        <time>2023-11-26T14:18:47.000Z</time>
      </trkpt>
      <trkpt lat="45.89129" lon="4.58723">
        <ele>270.79388</ele>
        <time>2023-11-26T14:18:48.000Z</time>
      </trkpt>
      <trkpt lat="45.89133" lon="4.58725">
        <ele>270.79498</ele>
        <time>2023-11-26T14:18:49.000Z</time>
      </trkpt>
      <trkpt lat="45.89137" lon="4.58728">
        <ele>270.6395</ele>
        <time>2023-11-26T14:18:50.000Z</time>
      </trkpt>
      <trkpt lat="45.8914" lon="4.5873">
        <ele>269.90314</ele>
        <time>2023-11-26T14:18:51.000Z</time>
      </trkpt>
      <trkpt lat="45.89144" lon="4.58733">
        <ele>269.15347</ele>
        <time>2023-11-26T14:18:52.000Z</time>
      </trkpt>
      <trkpt lat="45.89148" lon="4.58736">
        <ele>268.4014</ele>
        <time>2023-11-26T14:18:53.000Z</time>
      </trkpt>
      <trkpt lat="45.89152" lon="4.5874">
        <ele>267.64349</ele>
        <time>2023-11-26T14:18:54.000Z</time>
      </trkpt>
      <trkpt lat="45.89157" lon="4.58743">
        <ele>266.80835</ele>
        <time>2023-11-26T14:18:55.000Z</time>
      </trkpt>
      <trkpt lat="45.89161" lon="4.58748">
        <ele>265.84726</ele>
        <time>2023-11-26T14:18:56.000Z</time>
      </trkpt>
      <trkpt lat="45.89166" lon="4.58752">
        <ele>264.73978</ele>
        <time>2023-11-26T14:18:57.000Z</time>
      </trkpt>
      <trkpt lat="45.89172" lon="4.58756">
        <ele>263.55713</ele>
        <time>2023-11-26T14:18:58.000Z</time>
      </trkpt>
      <trkpt lat="45.89178" lon="4.5876">
        <ele>262.30371</ele>
        <time>2023-11-26T14:18:59.000Z</time>
      </trkpt>
      <trkpt lat="45.89184" lon="4.58764">
        <ele>261.04477</ele>
        <time>2023-11-26T14:19:00.000Z</time>
      </trkpt>
      <trkpt lat="45.89191" lon="4.58767">
        <ele>260.31723</ele>
        <time>2023-11-26T14:19:01.000Z</time>
      </trkpt>
      <trkpt lat="45.89198" lon="4.58769">
        <ele>259.81122</ele>
        <time>2023-11-26T14:19:02.000Z</time>
      </trkpt>
      <trkpt lat="45.89205" lon="4.5877">
        <ele>259.30649</ele>
        <time>2023-11-26T14:19:03.000Z</time>
      </trkpt>
      <trkpt lat="45.89213" lon="4.58771">
        <ele>258.76434</ele>
        <time>2023-11-26T14:19:04.000Z</time>
      </trkpt>
      <trkpt lat="45.89221" lon="4.5877">
        <ele>258.19742</ele>
        <time>2023-11-26T14:19:05.000Z</time>
      </trkpt>
      <trkpt lat="45.89228" lon="4.58769">
        <ele>257.59845</ele>
        <time>2023-11-26T14:19:06.000Z</time>
      </trkpt>
      <trkpt lat="45.89235" lon="4.58766">
        <ele>256.96323</ele>
        <time>2023-11-26T14:19:07.000Z</time>
      </trkpt>
      <trkpt lat="45.89241" lon="4.58763">
        <ele>256.2814</ele>
        <time>2023-11-26T14:19:08.000Z</time>
      </trkpt>
      <trkpt lat="45.89246" lon="4.5876">
        <ele>255.72949</ele>
        <time>2023-11-26T14:19:09.000Z</time>
      </trkpt>
      <trkpt lat="45.89251" lon="4.58757">
        <ele>255.26303</ele>
        <time>2023-11-26T14:19:10.000Z</time>
      </trkpt>
      <trkpt lat="45.89256" lon="4.58753">
        <ele>255.27107</ele>
        <time>2023-11-26T14:19:11.000Z</time>
      </trkpt>
      <trkpt lat="45.8926" lon="4.5875">
        <ele>255.22006</ele>
        <time>2023-11-26T14:19:12.000Z</time>
      </trkpt>
      <trkpt lat="45.89263" lon="4.58749">
        <ele>255.14485</ele>
        <time>2023-11-26T14:19:13.000Z</time>
      </trkpt>
      <trkpt lat="45.89267" lon="4.5875">
        <ele>255.04037</ele>
        <time>2023-11-26T14:19:14.000Z</time>
      </trkpt>
      <trkpt lat="45.89272" lon="4.58751">
        <ele>254.95981</ele>
        <time>2023-11-26T14:19:15.000Z</time>
      </trkpt>
      <trkpt lat="45.89279" lon="4.58756">
        <ele>254.95297</ele>
        <time>2023-11-26T14:19:16.000Z</time>
      </trkpt>
      <trkpt lat="45.89285" lon="4.58765">
        <ele>254.45134</ele>
        <time>2023-11-26T14:19:17.000Z</time>
      </trkpt>
      <trkpt lat="45.89291" lon="4.58772">
        <ele>253.9821</ele>
        <time>2023-11-26T14:19:18.000Z</time>
      </trkpt>
      <trkpt lat="45.893" lon="4.5878">
        <ele>253.51181</ele>
        <time>2023-11-26T14:19:19.000Z</time>
      </trkpt>
      <trkpt lat="45.89308" lon="4.58788">
        <ele>253.00351</ele>
        <time>2023-11-26T14:19:20.000Z</time>
      </trkpt>
      <trkpt lat="45.89316" lon="4.58796">
        <ele>252.4993</ele>
        <time>2023-11-26T14:19:21.000Z</time>
      </trkpt>
      <trkpt lat="45.89324" lon="4.58805">
        <ele>251.68079</ele>
        <time>2023-11-26T14:19:22.000Z</time>
      </trkpt>
      <trkpt lat="45.8933" lon="4.58812">
        <ele>250.83578</ele>
        <time>2023-11-26T14:19:23.000Z</time>
      </trkpt>
      <trkpt lat="45.89337" lon="4.58819">
        <ele>249.99927</ele>
        <time>2023-11-26T14:19:24.000Z</time>
      </trkpt>
      <trkpt lat="45.89341" lon="4.58824">
        <ele>249.20035</ele>
        <time>2023-11-26T14:19:25.000Z</time>
      </trkpt>
      <trkpt lat="45.89345" lon="4.58832">
        <ele>248.39282</ele>
        <time>2023-11-26T14:19:26.000Z</time>
      </trkpt>
      <trkpt lat="45.89349" lon="4.58839">
        <ele>247.53415</ele>
        <time>2023-11-26T14:19:27.000Z</time>
      </trkpt>
      <trkpt lat="45.8935" lon="4.58846">
        <ele>246.7166</ele>
        <time>2023-11-26T14:19:28.000Z</time>
      </trkpt>
      <trkpt lat="45.89351" lon="4.58853">
        <ele>245.88977</ele>
        <time>2023-11-26T14:19:29.000Z</time>
      </trkpt>
      <trkpt lat="45.89355" lon="4.58859">
        <ele>245.10652</ele>
        <time>2023-11-26T14:19:30.000Z</time>
      </trkpt>
      <trkpt lat="45.89356" lon="4.58864">
        <ele>244.3199</ele>
        <time>2023-11-26T14:19:31.000Z</time>
      </trkpt>
      <trkpt lat="45.89359" lon="4.58868">
        <ele>243.60629</ele>
        <time>2023-11-26T14:19:32.000Z</time>
      </trkpt>
      <trkpt lat="45.89361" lon="4.58871">
        <ele>242.93657</ele>
        <time>2023-11-26T14:19:33.000Z</time>
      </trkpt>
      <trkpt lat="45.89365" lon="4.58872">
        <ele>242.33597</ele>
        <time>2023-11-26T14:19:34.000Z</time>
      </trkpt>
      <trkpt lat="45.89369" lon="4.58869">
        <ele>241.70764</ele>
        <time>2023-11-26T14:19:35.000Z</time>
      </trkpt>
      <trkpt lat="45.89374" lon="4.58865">
        <ele>241.09001</ele>
        <time>2023-11-26T14:19:36.000Z</time>
      </trkpt>
      <trkpt lat="45.89378" lon="4.58862">
        <ele>240.51823</ele>
        <time>2023-11-26T14:19:37.000Z</time>
      </trkpt>
      <trkpt lat="45.89384" lon="4.5886">
        <ele>240.01172</ele>
        <time>2023-11-26T14:19:38.000Z</time>
      </trkpt>
      <trkpt lat="45.8939" lon="4.5886">
        <ele>239.61594</ele>
        <time>2023-11-26T14:19:39.000Z</time>
      </trkpt>
      <trkpt lat="45.89396" lon="4.58859">
        <ele>239.34196</ele>
        <time>2023-11-26T14:19:40.000Z</time>
      </trkpt>
      <trkpt lat="45.89402" lon="4.58857">
        <ele>239.14438</ele>
        <time>2023-11-26T14:19:41.000Z</time>
      </trkpt>
      <trkpt lat="45.89408" lon="4.58855">
        <ele>238.993</ele>
        <time>2023-11-26T14:19:42.000Z</time>
      </trkpt>
      <trkpt lat="45.89412" lon="4.58852">
        <ele>238.76315</ele>
        <time>2023-11-26T14:19:43.000Z</time>
      </trkpt>
      <trkpt lat="45.89416" lon="4.58853">
        <ele>238.56902</ele>
        <time>2023-11-26T14:19:44.000Z</time>
      </trkpt>
      <trkpt lat="45.89419" lon="4.58851">
        <ele>238.41118</ele>
        <time>2023-11-26T14:19:45.000Z</time>
      </trkpt>
      <trkpt lat="45.89422" lon="4.58854">
        <ele>238.30411</ele>
        <time>2023-11-26T14:19:46.000Z</time>
      </trkpt>
      <trkpt lat="45.89425" lon="4.58856">
        <ele>238.2524</ele>
        <time>2023-11-26T14:19:47.000Z</time>
      </trkpt>
      <trkpt lat="45.89428" lon="4.58859">
        <ele>238.19858</ele>
        <time>2023-11-26T14:19:48.000Z</time>
      </trkpt>
      <trkpt lat="45.89429" lon="4.58863">
        <ele>238.11406</ele>
        <time>2023-11-26T14:19:49.000Z</time>
      </trkpt>
      <trkpt lat="45.89432" lon="4.58865">
        <ele>238.02051</ele>
        <time>2023-11-26T14:19:50.000Z</time>
      </trkpt>
      <trkpt lat="45.89434" lon="4.5887">
        <ele>237.91069</ele>
        <time>2023-11-26T14:19:51.000Z</time>
      </trkpt>
      <trkpt lat="45.89435" lon="4.58874">
        <ele>237.75876</ele>
        <time>2023-11-26T14:19:52.000Z</time>
      </trkpt>
      <trkpt lat="45.89436" lon="4.58878">
        <ele>237.64307</ele>
        <time>2023-11-26T14:19:53.000Z</time>
      </trkpt>
      <trkpt lat="45.89438" lon="4.58881">
        <ele>237.49857</ele>
        <time>2023-11-26T14:19:54.000Z</time>
      </trkpt>
      <trkpt lat="45.89439" lon="4.58885">
        <ele>237.41464</ele>
        <time>2023-11-26T14:19:55.000Z</time>
      </trkpt>
      <trkpt lat="45.8944" lon="4.58889">
        <ele>237.33833</ele>
        <time>2023-11-26T14:19:56.000Z</time>
      </trkpt>
      <trkpt lat="45.89441" lon="4.58892">
        <ele>237.25764</ele>
        <time>2023-11-26T14:19:57.000Z</time>
      </trkpt>
      <trkpt lat="45.89442" lon="4.58896">
        <ele>237.1479</ele>
        <time>2023-11-26T14:19:58.000Z</time>
      </trkpt>
      <trkpt lat="45.89442" lon="4.58898">
        <ele>236.98599</ele>
        <time>2023-11-26T14:19:59.000Z</time>
      </trkpt>
      <trkpt lat="45.89443" lon="4.58901">
        <ele>236.75105</ele>
        <time>2023-11-26T14:20:00.000Z</time>
      </trkpt>
      <trkpt lat="45.89444" lon="4.58904">
        <ele>236.48172</ele>
        <time>2023-11-26T14:20:01.000Z</time>
      </trkpt>
      <trkpt lat="45.89445" lon="4.58906">
        <ele>236.20222</ele>
        <time>2023-11-26T14:20:02.000Z</time>
      </trkpt>
      <trkpt lat="45.89447" lon="4.58908">
        <ele>236.02873</ele>
        <time>2023-11-26T14:20:03.000Z</time>
      </trkpt>
      <trkpt lat="45.89449" lon="4.58909">
        <ele>235.84099</ele>
        <time>2023-11-26T14:20:04.000Z</time>
      </trkpt>
      <trkpt lat="45.8945" lon="4.58913">
        <ele>235.56425</ele>
        <time>2023-11-26T14:20:06.000Z</time>
      </trkpt>
      <trkpt lat="45.89447" lon="4.58909">
        <ele>235.25064</ele>
        <time>2023-11-26T14:20:08.000Z</time>
      </trkpt>
      <trkpt lat="45.89446" lon="4.58905">
        <ele>235.00264</ele>
        <time>2023-11-26T14:20:09.000Z</time>
      </trkpt>
      <trkpt lat="45.89445" lon="4.58901">
        <ele>234.78543</ele>
        <time>2023-11-26T14:20:10.000Z</time>
      </trkpt>
      <trkpt lat="45.89444" lon="4.58897">
        <ele>234.65573</ele>
        <time>2023-11-26T14:20:11.000Z</time>
      </trkpt>
      <trkpt lat="45.89444" lon="4.58892">
        <ele>234.54367</ele>
        <time>2023-11-26T14:20:12.000Z</time>
      </trkpt>
      <trkpt lat="45.89442" lon="4.58887">
        <ele>234.38298</ele>
        <time>2023-11-26T14:20:13.000Z</time>
      </trkpt>
      <trkpt lat="45.89441" lon="4.58882">
        <ele>234.25766</ele>
        <time>2023-11-26T14:20:14.000Z</time>
      </trkpt>
      <trkpt lat="45.89438" lon="4.58877">
        <ele>234.08122</ele>
        <time>2023-11-26T14:20:15.000Z</time>
      </trkpt>
      <trkpt lat="45.89436" lon="4.58871">
        <ele>233.93071</ele>
        <time>2023-11-26T14:20:16.000Z</time>
      </trkpt>
      <trkpt lat="45.89435" lon="4.58866">
        <ele>233.74382</ele>
        <time>2023-11-26T14:20:17.000Z</time>
      </trkpt>
      <trkpt lat="45.89435" lon="4.58861">
        <ele>233.58691</ele>
        <time>2023-11-26T14:20:18.000Z</time>
      </trkpt>
      <trkpt lat="45.89435" lon="4.58855">
        <ele>233.392</ele>
        <time>2023-11-26T14:20:19.000Z</time>
      </trkpt>
      <trkpt lat="45.89437" lon="4.5885">
        <ele>233.24394</ele>
        <time>2023-11-26T14:20:20.000Z</time>
      </trkpt>
      <trkpt lat="45.89438" lon="4.58846">
        <ele>233.21439</ele>
        <time>2023-11-26T14:20:21.000Z</time>
      </trkpt>
      <trkpt lat="45.8944" lon="4.58842">
        <ele>233.22925</ele>
        <time>2023-11-26T14:20:22.000Z</time>
      </trkpt>
      <trkpt lat="45.89442" lon="4.58839">
        <ele>233.30655</ele>
        <time>2023-11-26T14:20:23.000Z</time>
      </trkpt>
      <trkpt lat="45.89445" lon="4.58836">
        <ele>233.30798</ele>
        <time>2023-11-26T14:20:24.000Z</time>
      </trkpt>
      <trkpt lat="45.89447" lon="4.58833">
        <ele>233.36296</ele>
        <time>2023-11-26T14:20:25.000Z</time>
      </trkpt>
      <trkpt lat="45.8945" lon="4.58829">
        <ele>233.40964</ele>
        <time>2023-11-26T14:20:26.000Z</time>
      </trkpt>
      <trkpt lat="45.89452" lon="4.58826">
        <ele>233.49084</ele>
        <time>2023-11-26T14:20:27.000Z</time>
      </trkpt>
      <trkpt lat="45.89455" lon="4.58822">
        <ele>233.60507</ele>
        <time>2023-11-26T14:20:28.000Z</time>
      </trkpt>
      <trkpt lat="45.89457" lon="4.58818">
        <ele>233.65955</ele>
        <time>2023-11-26T14:20:29.000Z</time>
      </trkpt>
      <trkpt lat="45.89459" lon="4.58815">
        <ele>233.6851</ele>
        <time>2023-11-26T14:20:30.000Z</time>
      </trkpt>
      <trkpt lat="45.89462" lon="4.58811">
        <ele>233.70903</ele>
        <time>2023-11-26T14:20:31.000Z</time>
      </trkpt>
      <trkpt lat="45.89464" lon="4.58807">
        <ele>233.75139</ele>
        <time>2023-11-26T14:20:32.000Z</time>
      </trkpt>
      <trkpt lat="45.89467" lon="4.58803">
        <ele>233.92827</ele>
        <time>2023-11-26T14:20:33.000Z</time>
      </trkpt>
      <trkpt lat="45.89469" lon="4.58799">
        <ele>234.11877</ele>
        <time>2023-11-26T14:20:34.000Z</time>
      </trkpt>
      <trkpt lat="45.89471" lon="4.58795">
        <ele>234.34106</ele>
        <time>2023-11-26T14:20:35.000Z</time>
      </trkpt>
      <trkpt lat="45.89473" lon="4.58791">
        <ele>234.53812</ele>
        <time>2023-11-26T14:20:36.000Z</time>
      </trkpt>
      <trkpt lat="45.89475" lon="4.58787">
        <ele>234.79324</ele>
        <time>2023-11-26T14:20:37.000Z</time>
      </trkpt>
      <trkpt lat="45.89476" lon="4.58782">
        <ele>235.06938</ele>
        <time>2023-11-26T14:20:38.000Z</time>
      </trkpt>
      <trkpt lat="45.89478" lon="4.58778">
        <ele>235.37166</ele>
        <time>2023-11-26T14:20:39.000Z</time>
      </trkpt>
      <trkpt lat="45.89479" lon="4.58774">
        <ele>235.67014</ele>
        <time>2023-11-26T14:20:40.000Z</time>
      </trkpt>
      <trkpt lat="45.8948" lon="4.58769">
        <ele>235.88737</ele>
        <time>2023-11-26T14:20:41.000Z</time>
      </trkpt>
      <trkpt lat="45.89481" lon="4.58765">
        <ele>236.09482</ele>
        <time>2023-11-26T14:20:42.000Z</time>
      </trkpt>
      <trkpt lat="45.89482" lon="4.5876">
        <ele>236.25081</ele>
        <time>2023-11-26T14:20:43.000Z</time>
      </trkpt>
      <trkpt lat="45.89482" lon="4.58755">
        <ele>236.51453</ele>
        <time>2023-11-26T14:20:44.000Z</time>
      </trkpt>
      <trkpt lat="45.89483" lon="4.5875">
        <ele>236.74548</ele>
        <time>2023-11-26T14:20:45.000Z</time>
      </trkpt>
      <trkpt lat="45.89482" lon="4.58745">
        <ele>236.99968</ele>
        <time>2023-11-26T14:20:46.000Z</time>
      </trkpt>
      <trkpt lat="45.89482" lon="4.5874">
        <ele>237.27591</ele>
        <time>2023-11-26T14:20:47.000Z</time>
      </trkpt>
      <trkpt lat="45.89482" lon="4.58736">
        <ele>237.53781</ele>
        <time>2023-11-26T14:20:48.000Z</time>
      </trkpt>
      <trkpt lat="45.89481" lon="4.58731">
        <ele>237.83151</ele>
        <time>2023-11-26T14:20:49.000Z</time>
      </trkpt>
      <trkpt lat="45.89481" lon="4.58728">
        <ele>238.12537</ele>
        <time>2023-11-26T14:20:50.000Z</time>
      </trkpt>
      <trkpt lat="45.89481" lon="4.58724">
        <ele>238.45735</ele>
        <time>2023-11-26T14:20:51.000Z</time>
      </trkpt>
      <trkpt lat="45.89483" lon="4.58721">
        <ele>238.74776</ele>
        <time>2023-11-26T14:20:52.000Z</time>
      </trkpt>
      <trkpt lat="45.89485" lon="4.58719">
        <ele>239.00725</ele>
        <time>2023-11-26T14:20:53.000Z</time>
      </trkpt>
      <trkpt lat="45.89489" lon="4.58717">
        <ele>239.24658</ele>
        <time>2023-11-26T14:20:54.000Z</time>
      </trkpt>
      <trkpt lat="45.89492" lon="4.58715">
        <ele>239.44046</ele>
        <time>2023-11-26T14:20:55.000Z</time>
      </trkpt>
      <trkpt lat="45.89498" lon="4.58711">
        <ele>239.63908</ele>
        <time>2023-11-26T14:20:56.000Z</time>
      </trkpt>
      <trkpt lat="45.89502" lon="4.58705">
        <ele>239.83395</ele>
        <time>2023-11-26T14:20:57.000Z</time>
      </trkpt>
      <trkpt lat="45.89506" lon="4.58698">
        <ele>239.96883</ele>
        <time>2023-11-26T14:20:58.000Z</time>
      </trkpt>
      <trkpt lat="45.89511" lon="4.5869">
        <ele>240.11026</ele>
        <time>2023-11-26T14:20:59.000Z</time>
      </trkpt>
      <trkpt lat="45.89514" lon="4.58681">
        <ele>240.1613</ele>
        <time>2023-11-26T14:21:00.000Z</time>
      </trkpt>
      <trkpt lat="45.89517" lon="4.58672">
        <ele>240.15613</ele>
        <time>2023-11-26T14:21:01.000Z</time>
      </trkpt>
      <trkpt lat="45.89521" lon="4.58665">
        <ele>240.08406</ele>
        <time>2023-11-26T14:21:02.000Z</time>
      </trkpt>
      <trkpt lat="45.89527" lon="4.58659">
        <ele>239.97603</ele>
        <time>2023-11-26T14:21:03.000Z</time>
      </trkpt>
      <trkpt lat="45.89534" lon="4.58655">
        <ele>239.82935</ele>
        <time>2023-11-26T14:21:04.000Z</time>
      </trkpt>
      <trkpt lat="45.89541" lon="4.58653">
        <ele>239.66362</ele>
        <time>2023-11-26T14:21:05.000Z</time>
      </trkpt>
      <trkpt lat="45.89546" lon="4.58655">
        <ele>239.47971</ele>
        <time>2023-11-26T14:21:06.000Z</time>
      </trkpt>
      <trkpt lat="45.89552" lon="4.58655">
        <ele>239.31516</ele>
        <time>2023-11-26T14:21:07.000Z</time>
      </trkpt>
      <trkpt lat="45.89559" lon="4.58656">
        <ele>239.16499</ele>
        <time>2023-11-26T14:21:08.000Z</time>
      </trkpt>
      <trkpt lat="45.89565" lon="4.58657">
        <ele>239.00418</ele>
        <time>2023-11-26T14:21:09.000Z</time>
      </trkpt>
      <trkpt lat="45.8957" lon="4.58659">
        <ele>238.85913</ele>
        <time>2023-11-26T14:21:10.000Z</time>
      </trkpt>
      <trkpt lat="45.89574" lon="4.5866">
        <ele>238.6228</ele>
        <time>2023-11-26T14:21:11.000Z</time>
      </trkpt>
      <trkpt lat="45.89577" lon="4.58658">
        <ele>238.40799</ele>
        <time>2023-11-26T14:21:12.000Z</time>
      </trkpt>
      <trkpt lat="45.89579" lon="4.58655">
        <ele>238.20813</ele>
        <time>2023-11-26T14:21:13.000Z</time>
      </trkpt>
      <trkpt lat="45.89582" lon="4.58654">
        <ele>238.02148</ele>
        <time>2023-11-26T14:21:14.000Z</time>
      </trkpt>
      <trkpt lat="45.89584" lon="4.58651">
        <ele>237.85696</ele>
        <time>2023-11-26T14:21:15.000Z</time>
      </trkpt>
      <trkpt lat="45.89587" lon="4.58649">
        <ele>237.71037</ele>
        <time>2023-11-26T14:21:16.000Z</time>
      </trkpt>
      <trkpt lat="45.8959" lon="4.58648">
        <ele>237.59921</ele>
        <time>2023-11-26T14:21:17.000Z</time>
      </trkpt>
      <trkpt lat="45.89592" lon="4.58646">
        <ele>237.56784</ele>
        <time>2023-11-26T14:21:18.000Z</time>
      </trkpt>
      <trkpt lat="45.89595" lon="4.58644">
        <ele>237.55058</ele>
        <time>2023-11-26T14:21:19.000Z</time>
      </trkpt>
      <trkpt lat="45.89597" lon="4.58642">
        <ele>237.55359</ele>
        <time>2023-11-26T14:21:20.000Z</time>
      </trkpt>
      <trkpt lat="45.89599" lon="4.58641">
        <ele>237.58139</ele>
        <time>2023-11-26T14:21:21.000Z</time>
      </trkpt>
      <trkpt lat="45.89602" lon="4.5864">
        <ele>237.65286</ele>
        <time>2023-11-26T14:21:22.000Z</time>
      </trkpt>
      <trkpt lat="45.89604" lon="4.58639">
        <ele>237.77092</ele>
        <time>2023-11-26T14:21:23.000Z</time>
      </trkpt>
      <trkpt lat="45.89606" lon="4.58638">
        <ele>237.87703</ele>
        <time>2023-11-26T14:21:24.000Z</time>
      </trkpt>
      <trkpt lat="45.89608" lon="4.58636">
        <ele>237.99899</ele>
        <time>2023-11-26T14:21:25.000Z</time>
      </trkpt>
      <trkpt lat="45.8961" lon="4.58634">
        <ele>238.16231</ele>
        <time>2023-11-26T14:21:26.000Z</time>
      </trkpt>
      <trkpt lat="45.89612" lon="4.58631">
        <ele>238.31262</ele>
        <time>2023-11-26T14:21:27.000Z</time>
      </trkpt>
      <trkpt lat="45.89613" lon="4.58629">
        <ele>238.45695</ele>
        <time>2023-11-26T14:21:28.000Z</time>
      </trkpt>
      <trkpt lat="45.89615" lon="4.58626">
        <ele>238.61685</ele>
        <time>2023-11-26T14:21:29.000Z</time>
      </trkpt>
      <trkpt lat="45.89617" lon="4.58623">
        <ele>238.78764</ele>
        <time>2023-11-26T14:21:30.000Z</time>
      </trkpt>
      <trkpt lat="45.89619" lon="4.58621">
        <ele>238.95566</ele>
        <time>2023-11-26T14:21:31.000Z</time>
      </trkpt>
      <trkpt lat="45.89621" lon="4.58618">
        <ele>239.16719</ele>
        <time>2023-11-26T14:21:32.000Z</time>
      </trkpt>
      <trkpt lat="45.89623" lon="4.58616">
        <ele>239.37674</ele>
        <time>2023-11-26T14:21:33.000Z</time>
      </trkpt>
      <trkpt lat="45.89625" lon="4.58614">
        <ele>239.59055</ele>
        <time>2023-11-26T14:21:34.000Z</time>
      </trkpt>
      <trkpt lat="45.89626" lon="4.58611">
        <ele>239.79948</ele>
        <time>2023-11-26T14:21:35.000Z</time>
      </trkpt>
      <trkpt lat="45.89628" lon="4.58608">
        <ele>239.97281</ele>
        <time>2023-11-26T14:21:36.000Z</time>
      </trkpt>
      <trkpt lat="45.8963" lon="4.58605">
        <ele>240.09653</ele>
        <time>2023-11-26T14:21:37.000Z</time>
      </trkpt>
      <trkpt lat="45.89632" lon="4.58602">
        <ele>240.20911</ele>
        <time>2023-11-26T14:21:38.000Z</time>
      </trkpt>
      <trkpt lat="45.89634" lon="4.586">
        <ele>240.34317</ele>
        <time>2023-11-26T14:21:39.000Z</time>
      </trkpt>
      <trkpt lat="45.89636" lon="4.58597">
        <ele>240.46146</ele>
        <time>2023-11-26T14:21:40.000Z</time>
      </trkpt>
      <trkpt lat="45.89638" lon="4.58594">
        <ele>240.58525</ele>
        <time>2023-11-26T14:21:41.000Z</time>
      </trkpt>
      <trkpt lat="45.8964" lon="4.58591">
        <ele>240.7421</ele>
        <time>2023-11-26T14:21:42.000Z</time>
      </trkpt>
      <trkpt lat="45.89642" lon="4.58588">
        <ele>240.89456</ele>
        <time>2023-11-26T14:21:43.000Z</time>
      </trkpt>
      <trkpt lat="45.89644" lon="4.58585">
        <ele>241.09338</ele>
        <time>2023-11-26T14:21:44.000Z</time>
      </trkpt>
      <trkpt lat="45.89645" lon="4.58582">
        <ele>241.27206</ele>
        <time>2023-11-26T14:21:45.000Z</time>
      </trkpt>
      <trkpt lat="45.89647" lon="4.58579">
        <ele>241.43062</ele>
        <time>2023-11-26T14:21:46.000Z</time>
      </trkpt>
      <trkpt lat="45.89648" lon="4.58576">
        <ele>241.56487</ele>
        <time>2023-11-26T14:21:47.000Z</time>
      </trkpt>
      <trkpt lat="45.8965" lon="4.58573">
        <ele>241.68726</ele>
        <time>2023-11-26T14:21:48.000Z</time>
      </trkpt>
      <trkpt lat="45.89651" lon="4.58571">
        <ele>241.79671</ele>
        <time>2023-11-26T14:21:49.000Z</time>
      </trkpt>
      <trkpt lat="45.89653" lon="4.58569">
        <ele>241.8875</ele>
        <time>2023-11-26T14:21:50.000Z</time>
      </trkpt>
      <trkpt lat="45.89655" lon="4.58567">
        <ele>242.02422</ele>
        <time>2023-11-26T14:21:51.000Z</time>
      </trkpt>
      <trkpt lat="45.89657" lon="4.58565">
        <ele>242.09148</ele>
        <time>2023-11-26T14:21:52.000Z</time>
      </trkpt>
      <trkpt lat="45.89659" lon="4.58562">
        <ele>242.13876</ele>
        <time>2023-11-26T14:21:53.000Z</time>
      </trkpt>
      <trkpt lat="45.8966" lon="4.5856">
        <ele>242.16997</ele>
        <time>2023-11-26T14:21:54.000Z</time>
      </trkpt>
      <trkpt lat="45.89662" lon="4.58557">
        <ele>242.2271</ele>
        <time>2023-11-26T14:21:55.000Z</time>
      </trkpt>
      <trkpt lat="45.89664" lon="4.58555">
        <ele>242.29004</ele>
        <time>2023-11-26T14:21:56.000Z</time>
      </trkpt>
      <trkpt lat="45.89666" lon="4.58552">
        <ele>242.36917</ele>
        <time>2023-11-26T14:21:57.000Z</time>
      </trkpt>
      <trkpt lat="45.89668" lon="4.5855">
        <ele>242.43669</ele>
        <time>2023-11-26T14:21:58.000Z</time>
      </trkpt>
      <trkpt lat="45.89669" lon="4.58547">
        <ele>242.50806</ele>
        <time>2023-11-26T14:21:59.000Z</time>
      </trkpt>
      <trkpt lat="45.8967" lon="4.58545">
        <ele>242.63632</ele>
        <time>2023-11-26T14:22:00.000Z</time>
      </trkpt>
      <trkpt lat="45.89672" lon="4.58542">
        <ele>242.79703</ele>
        <time>2023-11-26T14:22:01.000Z</time>
      </trkpt>
      <trkpt lat="45.89673" lon="4.58539">
        <ele>242.91508</ele>
        <time>2023-11-26T14:22:02.000Z</time>
      </trkpt>
      <trkpt lat="45.89674" lon="4.58537">
        <ele>243.06409</ele>
        <time>2023-11-26T14:22:03.000Z</time>
      </trkpt>
      <trkpt lat="45.89676" lon="4.58534">
        <ele>243.19693</ele>
        <time>2023-11-26T14:22:04.000Z</time>
      </trkpt>
      <trkpt lat="45.89677" lon="4.58531">
        <ele>243.37207</ele>
        <time>2023-11-26T14:22:05.000Z</time>
      </trkpt>
      <trkpt lat="45.89678" lon="4.58528">
        <ele>243.53181</ele>
        <time>2023-11-26T14:22:06.000Z</time>
      </trkpt>
      <trkpt lat="45.8968" lon="4.58525">
        <ele>243.69995</ele>
        <time>2023-11-26T14:22:07.000Z</time>
      </trkpt>
      <trkpt lat="45.89681" lon="4.58522">
        <ele>243.91743</ele>
        <time>2023-11-26T14:22:08.000Z</time>
      </trkpt>
      <trkpt lat="45.89682" lon="4.58519">
        <ele>244.13875</ele>
        <time>2023-11-26T14:22:09.000Z</time>
      </trkpt>
      <trkpt lat="45.89683" lon="4.58516">
        <ele>244.36801</ele>
        <time>2023-11-26T14:22:10.000Z</time>
      </trkpt>
      <trkpt lat="45.89684" lon="4.58513">
        <ele>244.597</ele>
        <time>2023-11-26T14:22:11.000Z</time>
      </trkpt>
      <trkpt lat="45.89686" lon="4.5851">
        <ele>244.83749</ele>
        <time>2023-11-26T14:22:12.000Z</time>
      </trkpt>
      <trkpt lat="45.89687" lon="4.58508">
        <ele>245.0946</ele>
        <time>2023-11-26T14:22:13.000Z</time>
      </trkpt>
      <trkpt lat="45.89688" lon="4.58504">
        <ele>245.33188</ele>
        <time>2023-11-26T14:22:14.000Z</time>
      </trkpt>
      <trkpt lat="45.89689" lon="4.58501">
        <ele>245.59537</ele>
        <time>2023-11-26T14:22:15.000Z</time>
      </trkpt>
      <trkpt lat="45.8969" lon="4.58498">
        <ele>245.88823</ele>
        <time>2023-11-26T14:22:16.000Z</time>
      </trkpt>
      <trkpt lat="45.89691" lon="4.58495">
        <ele>246.1689</ele>
        <time>2023-11-26T14:22:17.000Z</time>
      </trkpt>
      <trkpt lat="45.89691" lon="4.58491">
        <ele>246.4344</ele>
        <time>2023-11-26T14:22:18.000Z</time>
      </trkpt>
      <trkpt lat="45.89692" lon="4.58488">
        <ele>246.68338</ele>
        <time>2023-11-26T14:22:19.000Z</time>
      </trkpt>
      <trkpt lat="45.89692" lon="4.58485">
        <ele>246.90771</ele>
        <time>2023-11-26T14:22:20.000Z</time>
      </trkpt>
      <trkpt lat="45.89693" lon="4.58482">
        <ele>247.11551</ele>
        <time>2023-11-26T14:22:21.000Z</time>
      </trkpt>
      <trkpt lat="45.89693" lon="4.58479">
        <ele>247.32666</ele>
        <time>2023-11-26T14:22:22.000Z</time>
      </trkpt>
      <trkpt lat="45.89694" lon="4.58477">
        <ele>247.53032</ele>
        <time>2023-11-26T14:22:23.000Z</time>
      </trkpt>
      <trkpt lat="45.89694" lon="4.58474">
        <ele>247.73911</ele>
        <time>2023-11-26T14:22:24.000Z</time>
      </trkpt>
      <trkpt lat="45.89695" lon="4.58471">
        <ele>247.9277</ele>
        <time>2023-11-26T14:22:25.000Z</time>
      </trkpt>
      <trkpt lat="45.89696" lon="4.58468">
        <ele>248.09061</ele>
        <time>2023-11-26T14:22:26.000Z</time>
      </trkpt>
      <trkpt lat="45.89696" lon="4.58466">
        <ele>248.26375</ele>
        <time>2023-11-26T14:22:27.000Z</time>
      </trkpt>
      <trkpt lat="45.89697" lon="4.58463">
        <ele>248.48152</ele>
        <time>2023-11-26T14:22:28.000Z</time>
      </trkpt>
      <trkpt lat="45.89698" lon="4.5846">
        <ele>248.68167</ele>
        <time>2023-11-26T14:22:29.000Z</time>
      </trkpt>
      <trkpt lat="45.89698" lon="4.58457">
        <ele>248.92099</ele>
        <time>2023-11-26T14:22:30.000Z</time>
      </trkpt>
      <trkpt lat="45.89699" lon="4.58454">
        <ele>249.15471</ele>
        <time>2023-11-26T14:22:31.000Z</time>
      </trkpt>
      <trkpt lat="45.89699" lon="4.58451">
        <ele>249.39694</ele>
        <time>2023-11-26T14:22:32.000Z</time>
      </trkpt>
      <trkpt lat="45.89699" lon="4.58448">
        <ele>249.63326</ele>
        <time>2023-11-26T14:22:33.000Z</time>
      </trkpt>
      <trkpt lat="45.89699" lon="4.58445">
        <ele>249.91293</ele>
        <time>2023-11-26T14:22:34.000Z</time>
      </trkpt>
      <trkpt lat="45.89699" lon="4.58443">
        <ele>250.14241</ele>
        <time>2023-11-26T14:22:35.000Z</time>
      </trkpt>
      <trkpt lat="45.897" lon="4.58441">
        <ele>250.34712</ele>
        <time>2023-11-26T14:22:36.000Z</time>
      </trkpt>
      <trkpt lat="45.89702" lon="4.58437">
        <ele>250.60017</ele>
        <time>2023-11-26T14:22:38.000Z</time>
      </trkpt>
      <trkpt lat="45.89702" lon="4.58432">
        <ele>250.86848</ele>
        <time>2023-11-26T14:22:40.000Z</time>
      </trkpt>
      <trkpt lat="45.89703" lon="4.58429">
        <ele>251.11897</ele>
        <time>2023-11-26T14:22:41.000Z</time>
      </trkpt>
      <trkpt lat="45.89704" lon="4.58424">
        <ele>251.44101</ele>
        <time>2023-11-26T14:22:43.000Z</time>
      </trkpt>
      <trkpt lat="45.89704" lon="4.5842">
        <ele>251.75374</ele>
        <time>2023-11-26T14:22:44.000Z</time>
      </trkpt>
      <trkpt lat="45.89704" lon="4.58417">
        <ele>252.03702</ele>
        <time>2023-11-26T14:22:45.000Z</time>
      </trkpt>
      <trkpt lat="45.89705" lon="4.58414">
        <ele>252.30215</ele>
        <time>2023-11-26T14:22:46.000Z</time>
      </trkpt>
      <trkpt lat="45.89705" lon="4.5841">
        <ele>252.58353</ele>
        <time>2023-11-26T14:22:47.000Z</time>
      </trkpt>
      <trkpt lat="45.89705" lon="4.58407">
        <ele>252.85229</ele>
        <time>2023-11-26T14:22:48.000Z</time>
      </trkpt>
      <trkpt lat="45.89706" lon="4.58404">
        <ele>253.18681</ele>
        <time>2023-11-26T14:22:49.000Z</time>
      </trkpt>
      <trkpt lat="45.89707" lon="4.584">
        <ele>253.53703</ele>
        <time>2023-11-26T14:22:50.000Z</time>
      </trkpt>
      <trkpt lat="45.89708" lon="4.58397">
        <ele>253.82426</ele>
        <time>2023-11-26T14:22:51.000Z</time>
      </trkpt>
      <trkpt lat="45.89709" lon="4.58393">
        <ele>254.09326</ele>
        <time>2023-11-26T14:22:52.000Z</time>
      </trkpt>
      <trkpt lat="45.8971" lon="4.5839">
        <ele>254.28616</ele>
        <time>2023-11-26T14:22:53.000Z</time>
      </trkpt>
      <trkpt lat="45.89711" lon="4.58387">
        <ele>254.49194</ele>
        <time>2023-11-26T14:22:54.000Z</time>
      </trkpt>
      <trkpt lat="45.89712" lon="4.58384">
        <ele>254.71445</ele>
        <time>2023-11-26T14:22:55.000Z</time>
      </trkpt>
      <trkpt lat="45.89714" lon="4.58381">
        <ele>254.92114</ele>
        <time>2023-11-26T14:22:56.000Z</time>
      </trkpt>
      <trkpt lat="45.89715" lon="4.58378">
        <ele>255.11166</ele>
        <time>2023-11-26T14:22:57.000Z</time>
      </trkpt>
      <trkpt lat="45.89716" lon="4.58375">
        <ele>255.32712</ele>
        <time>2023-11-26T14:22:58.000Z</time>
      </trkpt>
      <trkpt lat="45.89718" lon="4.58373">
        <ele>255.54184</ele>
        <time>2023-11-26T14:22:59.000Z</time>
      </trkpt>
      <trkpt lat="45.89719" lon="4.5837">
        <ele>255.69577</ele>
        <time>2023-11-26T14:23:00.000Z</time>
      </trkpt>
      <trkpt lat="45.8972" lon="4.58368">
        <ele>255.73055</ele>
        <time>2023-11-26T14:23:01.000Z</time>
      </trkpt>
      <trkpt lat="45.89722" lon="4.58365">
        <ele>255.75456</ele>
        <time>2023-11-26T14:23:02.000Z</time>
      </trkpt>
      <trkpt lat="45.89723" lon="4.58362">
        <ele>255.69211</ele>
        <time>2023-11-26T14:23:03.000Z</time>
      </trkpt>
      <trkpt lat="45.89725" lon="4.5836">
        <ele>255.63382</ele>
        <time>2023-11-26T14:23:04.000Z</time>
      </trkpt>
      <trkpt lat="45.89727" lon="4.58357">
        <ele>255.82141</ele>
        <time>2023-11-26T14:23:05.000Z</time>
      </trkpt>
      <trkpt lat="45.89729" lon="4.58354">
        <ele>255.98274</ele>
        <time>2023-11-26T14:23:06.000Z</time>
      </trkpt>
      <trkpt lat="45.8973" lon="4.58351">
        <ele>256.13876</ele>
        <time>2023-11-26T14:23:07.000Z</time>
      </trkpt>
      <trkpt lat="45.89732" lon="4.58348">
        <ele>256.29825</ele>
        <time>2023-11-26T14:23:08.000Z</time>
      </trkpt>
      <trkpt lat="45.89733" lon="4.58346">
        <ele>256.42325</ele>
        <time>2023-11-26T14:23:09.000Z</time>
      </trkpt>
      <trkpt lat="45.89735" lon="4.58344">
        <ele>256.52667</ele>
        <time>2023-11-26T14:23:10.000Z</time>
      </trkpt>
      <trkpt lat="45.89736" lon="4.58342">
        <ele>256.64224</ele>
        <time>2023-11-26T14:23:11.000Z</time>
      </trkpt>
      <trkpt lat="45.89738" lon="4.5834">
        <ele>256.79611</ele>
        <time>2023-11-26T14:23:12.000Z</time>
      </trkpt>
      <trkpt lat="45.89739" lon="4.58337">
        <ele>256.96515</ele>
        <time>2023-11-26T14:23:13.000Z</time>
      </trkpt>
      <trkpt lat="45.89741" lon="4.58333">
        <ele>257.10089</ele>
        <time>2023-11-26T14:23:14.000Z</time>
      </trkpt>
      <trkpt lat="45.89742" lon="4.5833">
        <ele>257.26227</ele>
        <time>2023-11-26T14:23:15.000Z</time>
      </trkpt>
      <trkpt lat="45.89743" lon="4.58328">
        <ele>257.41702</ele>
        <time>2023-11-26T14:23:16.000Z</time>
      </trkpt>
      <trkpt lat="45.89745" lon="4.58325">
        <ele>257.60049</ele>
        <time>2023-11-26T14:23:17.000Z</time>
      </trkpt>
      <trkpt lat="45.89746" lon="4.58323">
        <ele>257.79791</ele>
        <time>2023-11-26T14:23:18.000Z</time>
      </trkpt>
      <trkpt lat="45.89746" lon="4.5832">
        <ele>257.93985</ele>
        <time>2023-11-26T14:23:19.000Z</time>
      </trkpt>
      <trkpt lat="45.89746" lon="4.58316">
        <ele>258.23865</ele>
        <time>2023-11-26T14:23:21.000Z</time>
      </trkpt>
      <trkpt lat="45.89748" lon="4.58317">
        <ele>258.55756</ele>
        <time>2023-11-26T14:23:50.000Z</time>
      </trkpt>
      <trkpt lat="45.8975" lon="4.58315">
        <ele>258.87143</ele>
        <time>2023-11-26T14:23:51.000Z</time>
      </trkpt>
      <trkpt lat="45.89752" lon="4.58314">
        <ele>259.19769</ele>
        <time>2023-11-26T14:23:52.000Z</time>
      </trkpt>
      <trkpt lat="45.89754" lon="4.58312">
        <ele>259.49588</ele>
        <time>2023-11-26T14:23:53.000Z</time>
      </trkpt>
      <trkpt lat="45.89756" lon="4.5831">
        <ele>259.53152</ele>
        <time>2023-11-26T14:23:54.000Z</time>
      </trkpt>
      <trkpt lat="45.89759" lon="4.58308">
        <ele>259.59079</ele>
        <time>2023-11-26T14:23:55.000Z</time>
      </trkpt>
      <trkpt lat="45.89761" lon="4.58305">
        <ele>259.69135</ele>
        <time>2023-11-26T14:23:56.000Z</time>
      </trkpt>
      <trkpt lat="45.89763" lon="4.58303">
        <ele>259.75345</ele>
        <time>2023-11-26T14:23:57.000Z</time>
      </trkpt>
      <trkpt lat="45.89766" lon="4.58302">
        <ele>259.82336</ele>
        <time>2023-11-26T14:23:58.000Z</time>
      </trkpt>
      <trkpt lat="45.89768" lon="4.583">
        <ele>259.88745</ele>
        <time>2023-11-26T14:23:59.000Z</time>
      </trkpt>
      <trkpt lat="45.89771" lon="4.58298">
        <ele>259.84662</ele>
        <time>2023-11-26T14:24:00.000Z</time>
      </trkpt>
      <trkpt lat="45.89774" lon="4.58296">
        <ele>259.77185</ele>
        <time>2023-11-26T14:24:01.000Z</time>
      </trkpt>
      <trkpt lat="45.89776" lon="4.58294">
        <ele>259.69208</ele>
        <time>2023-11-26T14:24:02.000Z</time>
      </trkpt>
      <trkpt lat="45.89779" lon="4.58292">
        <ele>259.60767</ele>
        <time>2023-11-26T14:24:03.000Z</time>
      </trkpt>
      <trkpt lat="45.89782" lon="4.5829">
        <ele>259.67001</ele>
        <time>2023-11-26T14:24:04.000Z</time>
      </trkpt>
      <trkpt lat="45.89784" lon="4.58288">
        <ele>259.70465</ele>
        <time>2023-11-26T14:24:05.000Z</time>
      </trkpt>
      <trkpt lat="45.89787" lon="4.58285">
        <ele>259.71307</ele>
        <time>2023-11-26T14:24:06.000Z</time>
      </trkpt>
      <trkpt lat="45.8979" lon="4.58283">
        <ele>259.67758</ele>
        <time>2023-11-26T14:24:07.000Z</time>
      </trkpt>
      <trkpt lat="45.89792" lon="4.58281">
        <ele>259.72592</ele>
        <time>2023-11-26T14:24:08.000Z</time>
      </trkpt>
      <trkpt lat="45.89794" lon="4.58279">
        <ele>259.64392</ele>
        <time>2023-11-26T14:24:09.000Z</time>
      </trkpt>
      <trkpt lat="45.89797" lon="4.58277">
        <ele>259.61685</ele>
        <time>2023-11-26T14:24:10.000Z</time>
      </trkpt>
      <trkpt lat="45.89799" lon="4.58275">
        <ele>259.60681</ele>
        <time>2023-11-26T14:24:11.000Z</time>
      </trkpt>
      <trkpt lat="45.898" lon="4.58273">
        <ele>259.58344</ele>
        <time>2023-11-26T14:24:12.000Z</time>
      </trkpt>
      <trkpt lat="45.89809" lon="4.58263">
        <ele>259.45233</ele>
        <time>2023-11-26T14:24:23.000Z</time>
      </trkpt>
      <trkpt lat="45.89813" lon="4.58261">
        <ele>259.35913</ele>
        <time>2023-11-26T14:24:30.000Z</time>
      </trkpt>
      <trkpt lat="45.89815" lon="4.5826">
        <ele>259.40359</ele>
        <time>2023-11-26T14:24:31.000Z</time>
      </trkpt>
      <trkpt lat="45.89818" lon="4.58259">
        <ele>259.36563</ele>
        <time>2023-11-26T14:24:32.000Z</time>
      </trkpt>
      <trkpt lat="45.89821" lon="4.58257">
        <ele>259.32709</ele>
        <time>2023-11-26T14:24:33.000Z</time>
      </trkpt>
      <trkpt lat="45.89824" lon="4.58254">
        <ele>259.28256</ele>
        <time>2023-11-26T14:24:34.000Z</time>
      </trkpt>
      <trkpt lat="45.89826" lon="4.58251">
        <ele>259.22925</ele>
        <time>2023-11-26T14:24:35.000Z</time>
      </trkpt>
      <trkpt lat="45.8983" lon="4.58248">
        <ele>259.24554</ele>
        <time>2023-11-26T14:24:36.000Z</time>
      </trkpt>
      <trkpt lat="45.89833" lon="4.58245">
        <ele>259.23843</ele>
        <time>2023-11-26T14:24:37.000Z</time>
      </trkpt>
      <trkpt lat="45.89836" lon="4.58241">
        <ele>259.25848</ele>
        <time>2023-11-26T14:24:38.000Z</time>
      </trkpt>
      <trkpt lat="45.8984" lon="4.58238">
        <ele>259.29935</ele>
        <time>2023-11-26T14:24:39.000Z</time>
      </trkpt>
      <trkpt lat="45.89843" lon="4.58235">
        <ele>259.18134</ele>
        <time>2023-11-26T14:24:40.000Z</time>
      </trkpt>
      <trkpt lat="45.89846" lon="4.58232">
        <ele>259.10455</ele>
        <time>2023-11-26T14:24:41.000Z</time>
      </trkpt>
      <trkpt lat="45.89849" lon="4.58229">
        <ele>259.04593</ele>
        <time>2023-11-26T14:24:42.000Z</time>
      </trkpt>
      <trkpt lat="45.89852" lon="4.58227">
        <ele>258.98306</ele>
        <time>2023-11-26T14:24:43.000Z</time>
      </trkpt>
      <trkpt lat="45.89855" lon="4.58225">
        <ele>258.88647</ele>
        <time>2023-11-26T14:24:44.000Z</time>
      </trkpt>
      <trkpt lat="45.89858" lon="4.58223">
        <ele>258.78876</ele>
        <time>2023-11-26T14:24:45.000Z</time>
      </trkpt>
      <trkpt lat="45.89862" lon="4.5822">
        <ele>258.69281</ele>
        <time>2023-11-26T14:24:46.000Z</time>
      </trkpt>
      <trkpt lat="45.89865" lon="4.58217">
        <ele>258.58981</ele>
        <time>2023-11-26T14:24:47.000Z</time>
      </trkpt>
      <trkpt lat="45.89868" lon="4.58215">
        <ele>258.53101</ele>
        <time>2023-11-26T14:24:48.000Z</time>
      </trkpt>
      <trkpt lat="45.89871" lon="4.58212">
        <ele>258.59064</ele>
        <time>2023-11-26T14:24:49.000Z</time>
      </trkpt>
      <trkpt lat="45.89875" lon="4.58209">
        <ele>258.65521</ele>
        <time>2023-11-26T14:24:50.000Z</time>
      </trkpt>
      <trkpt lat="45.89878" lon="4.58207">
        <ele>258.5723</ele>
        <time>2023-11-26T14:24:51.000Z</time>
      </trkpt>
      <trkpt lat="45.89881" lon="4.58204">
        <ele>258.51822</ele>
        <time>2023-11-26T14:24:52.000Z</time>
      </trkpt>
      <trkpt lat="45.89883" lon="4.58202">
        <ele>258.48938</ele>
        <time>2023-11-26T14:24:53.000Z</time>
      </trkpt>
      <trkpt lat="45.89886" lon="4.58199">
        <ele>258.4451</ele>
        <time>2023-11-26T14:24:54.000Z</time>
      </trkpt>
      <trkpt lat="45.89889" lon="4.58196">
        <ele>258.401</ele>
        <time>2023-11-26T14:24:55.000Z</time>
      </trkpt>
      <trkpt lat="45.89892" lon="4.58194">
        <ele>258.37848</ele>
        <time>2023-11-26T14:24:56.000Z</time>
      </trkpt>
      <trkpt lat="45.89895" lon="4.58191">
        <ele>258.33368</ele>
        <time>2023-11-26T14:24:57.000Z</time>
      </trkpt>
      <trkpt lat="45.89898" lon="4.58188">
        <ele>258.29141</ele>
        <time>2023-11-26T14:24:58.000Z</time>
      </trkpt>
      <trkpt lat="45.899" lon="4.58185">
        <ele>258.24609</ele>
        <time>2023-11-26T14:24:59.000Z</time>
      </trkpt>
      <trkpt lat="45.89903" lon="4.58182">
        <ele>258.17242</ele>
        <time>2023-11-26T14:25:00.000Z</time>
      </trkpt>
      <trkpt lat="45.89906" lon="4.58179">
        <ele>258.11688</ele>
        <time>2023-11-26T14:25:01.000Z</time>
      </trkpt>
      <trkpt lat="45.89909" lon="4.58176">
        <ele>258.03818</ele>
        <time>2023-11-26T14:25:02.000Z</time>
      </trkpt>
      <trkpt lat="45.89913" lon="4.58173">
        <ele>257.85489</ele>
        <time>2023-11-26T14:25:03.000Z</time>
      </trkpt>
      <trkpt lat="45.89916" lon="4.5817">
        <ele>257.67395</ele>
        <time>2023-11-26T14:25:04.000Z</time>
      </trkpt>
      <trkpt lat="45.89919" lon="4.58167">
        <ele>257.49371</ele>
        <time>2023-11-26T14:25:05.000Z</time>
      </trkpt>
      <trkpt lat="45.89923" lon="4.58165">
        <ele>257.30472</ele>
        <time>2023-11-26T14:25:06.000Z</time>
      </trkpt>
      <trkpt lat="45.89926" lon="4.5816">
        <ele>257.05447</ele>
        <time>2023-11-26T14:25:07.000Z</time>
      </trkpt>
      <trkpt lat="45.8993" lon="4.58157">
        <ele>256.76544</ele>
        <time>2023-11-26T14:25:08.000Z</time>
      </trkpt>
      <trkpt lat="45.89934" lon="4.58155">
        <ele>256.65399</ele>
        <time>2023-11-26T14:25:09.000Z</time>
      </trkpt>
      <trkpt lat="45.89937" lon="4.58153">
        <ele>256.56326</ele>
        <time>2023-11-26T14:25:10.000Z</time>
      </trkpt>
      <trkpt lat="45.89941" lon="4.5815">
        <ele>256.44894</ele>
        <time>2023-11-26T14:25:11.000Z</time>
      </trkpt>
      <trkpt lat="45.89944" lon="4.58149">
        <ele>256.37802</ele>
        <time>2023-11-26T14:25:12.000Z</time>
      </trkpt>
      <trkpt lat="45.89946" lon="4.58147">
        <ele>256.34131</ele>
        <time>2023-11-26T14:25:13.000Z</time>
      </trkpt>
      <trkpt lat="45.89949" lon="4.58146">
        <ele>256.35519</ele>
        <time>2023-11-26T14:25:14.000Z</time>
      </trkpt>
      <trkpt lat="45.89954" lon="4.58145">
        <ele>256.37949</ele>
        <time>2023-11-26T14:25:15.000Z</time>
      </trkpt>
      <trkpt lat="45.89956" lon="4.58142">
        <ele>256.39084</ele>
        <time>2023-11-26T14:25:16.000Z</time>
      </trkpt>
      <trkpt lat="45.89959" lon="4.58141">
        <ele>256.4906</ele>
        <time>2023-11-26T14:25:17.000Z</time>
      </trkpt>
      <trkpt lat="45.89963" lon="4.58138">
        <ele>256.59268</ele>
        <time>2023-11-26T14:25:18.000Z</time>
      </trkpt>
      <trkpt lat="45.89966" lon="4.58137">
        <ele>256.72418</ele>
        <time>2023-11-26T14:25:19.000Z</time>
      </trkpt>
      <trkpt lat="45.89969" lon="4.58135">
        <ele>256.89594</ele>
        <time>2023-11-26T14:25:20.000Z</time>
      </trkpt>
      <trkpt lat="45.89971" lon="4.58134">
        <ele>257.04312</ele>
        <time>2023-11-26T14:25:21.000Z</time>
      </trkpt>
      <trkpt lat="45.89974" lon="4.58132">
        <ele>257.0928</ele>
        <time>2023-11-26T14:25:22.000Z</time>
      </trkpt>
      <trkpt lat="45.89976" lon="4.5813">
        <ele>257.26794</ele>
        <time>2023-11-26T14:25:23.000Z</time>
      </trkpt>
      <trkpt lat="45.89979" lon="4.58128">
        <ele>257.41916</ele>
        <time>2023-11-26T14:25:24.000Z</time>
      </trkpt>
      <trkpt lat="45.89981" lon="4.58126">
        <ele>257.77499</ele>
        <time>2023-11-26T14:25:25.000Z</time>
      </trkpt>
      <trkpt lat="45.89984" lon="4.58124">
        <ele>258.12152</ele>
        <time>2023-11-26T14:25:26.000Z</time>
      </trkpt>
      <trkpt lat="45.89986" lon="4.58123">
        <ele>258.52353</ele>
        <time>2023-11-26T14:25:27.000Z</time>
      </trkpt>
      <trkpt lat="45.89988" lon="4.58121">
        <ele>258.94562</ele>
        <time>2023-11-26T14:25:28.000Z</time>
      </trkpt>
      <trkpt lat="45.89991" lon="4.58119">
        <ele>259.19559</ele>
        <time>2023-11-26T14:25:29.000Z</time>
      </trkpt>
      <trkpt lat="45.89993" lon="4.58117">
        <ele>259.44543</ele>
        <time>2023-11-26T14:25:30.000Z</time>
      </trkpt>
      <trkpt lat="45.89996" lon="4.58114">
        <ele>259.74408</ele>
        <time>2023-11-26T14:25:31.000Z</time>
      </trkpt>
      <trkpt lat="45.89999" lon="4.58112">
        <ele>260.03537</ele>
        <time>2023-11-26T14:25:32.000Z</time>
      </trkpt>
      <trkpt lat="45.90001" lon="4.5811">
        <ele>260.29358</ele>
        <time>2023-11-26T14:25:33.000Z</time>
      </trkpt>
      <trkpt lat="45.90004" lon="4.58108">
        <ele>260.51242</ele>
        <time>2023-11-26T14:25:34.000Z</time>
      </trkpt>
      <trkpt lat="45.90007" lon="4.58106">
        <ele>260.74686</ele>
        <time>2023-11-26T14:25:35.000Z</time>
      </trkpt>
      <trkpt lat="45.90009" lon="4.58105">
        <ele>260.97989</ele>
        <time>2023-11-26T14:25:36.000Z</time>
      </trkpt>
      <trkpt lat="45.90012" lon="4.58102">
        <ele>261.20081</ele>
        <time>2023-11-26T14:25:37.000Z</time>
      </trkpt>
      <trkpt lat="45.90014" lon="4.58099">
        <ele>261.37695</ele>
        <time>2023-11-26T14:25:38.000Z</time>
      </trkpt>
      <trkpt lat="45.90017" lon="4.58096">
        <ele>261.30655</ele>
        <time>2023-11-26T14:25:39.000Z</time>
      </trkpt>
      <trkpt lat="45.90019" lon="4.58093">
        <ele>261.14682</ele>
        <time>2023-11-26T14:25:40.000Z</time>
      </trkpt>
      <trkpt lat="45.90021" lon="4.5809">
        <ele>260.96878</ele>
        <time>2023-11-26T14:25:41.000Z</time>
      </trkpt>
      <trkpt lat="45.90023" lon="4.58087">
        <ele>260.86761</ele>
        <time>2023-11-26T14:25:42.000Z</time>
      </trkpt>
      <trkpt lat="45.90025" lon="4.58084">
        <ele>260.73993</ele>
        <time>2023-11-26T14:25:43.000Z</time>
      </trkpt>
      <trkpt lat="45.90027" lon="4.5808">
        <ele>260.97296</ele>
        <time>2023-11-26T14:25:44.000Z</time>
      </trkpt>
      <trkpt lat="45.9003" lon="4.58077">
        <ele>260.92169</ele>
        <time>2023-11-26T14:25:45.000Z</time>
      </trkpt>
      <trkpt lat="45.90032" lon="4.58075">
        <ele>260.91595</ele>
        <time>2023-11-26T14:25:46.000Z</time>
      </trkpt>
      <trkpt lat="45.90034" lon="4.58072">
        <ele>260.89532</ele>
        <time>2023-11-26T14:25:47.000Z</time>
      </trkpt>
      <trkpt lat="45.90036" lon="4.58069">
        <ele>260.87061</ele>
        <time>2023-11-26T14:25:48.000Z</time>
      </trkpt>
      <trkpt lat="45.90038" lon="4.58066">
        <ele>260.86029</ele>
        <time>2023-11-26T14:25:49.000Z</time>
      </trkpt>
      <trkpt lat="45.9004" lon="4.58062">
        <ele>260.84906</ele>
        <time>2023-11-26T14:25:50.000Z</time>
      </trkpt>
      <trkpt lat="45.90042" lon="4.58059">
        <ele>260.82819</ele>
        <time>2023-11-26T14:25:51.000Z</time>
      </trkpt>
      <trkpt lat="45.90044" lon="4.58055">
        <ele>260.76425</ele>
        <time>2023-11-26T14:25:52.000Z</time>
      </trkpt>
      <trkpt lat="45.90046" lon="4.58052">
        <ele>260.67392</ele>
        <time>2023-11-26T14:25:53.000Z</time>
      </trkpt>
      <trkpt lat="45.90049" lon="4.58048">
        <ele>260.60809</ele>
        <time>2023-11-26T14:25:54.000Z</time>
      </trkpt>
      <trkpt lat="45.90051" lon="4.58044">
        <ele>260.49518</ele>
        <time>2023-11-26T14:25:55.000Z</time>
      </trkpt>
      <trkpt lat="45.90053" lon="4.58041">
        <ele>260.38995</ele>
        <time>2023-11-26T14:25:56.000Z</time>
      </trkpt>
      <trkpt lat="45.90055" lon="4.58038">
        <ele>260.29794</ele>
        <time>2023-11-26T14:25:57.000Z</time>
      </trkpt>
      <trkpt lat="45.90057" lon="4.58034">
        <ele>260.21857</ele>
        <time>2023-11-26T14:25:58.000Z</time>
      </trkpt>
      <trkpt lat="45.90059" lon="4.5803">
        <ele>260.38934</ele>
        <time>2023-11-26T14:25:59.000Z</time>
      </trkpt>
      <trkpt lat="45.9006" lon="4.58026">
        <ele>260.6041</ele>
        <time>2023-11-26T14:26:00.000Z</time>
      </trkpt>
      <trkpt lat="45.90062" lon="4.58022">
        <ele>260.85898</ele>
        <time>2023-11-26T14:26:01.000Z</time>
      </trkpt>
      <trkpt lat="45.90064" lon="4.58018">
        <ele>261.15585</ele>
        <time>2023-11-26T14:26:02.000Z</time>
      </trkpt>
      <trkpt lat="45.90066" lon="4.58014">
        <ele>261.36221</ele>
        <time>2023-11-26T14:26:03.000Z</time>
      </trkpt>
      <trkpt lat="45.90069" lon="4.5801">
        <ele>261.14822</ele>
        <time>2023-11-26T14:26:04.000Z</time>
      </trkpt>
      <trkpt lat="45.90071" lon="4.58006">
        <ele>261.33051</ele>
        <time>2023-11-26T14:26:05.000Z</time>
      </trkpt>
      <trkpt lat="45.90074" lon="4.58003">
        <ele>261.4129</ele>
        <time>2023-11-26T14:26:06.000Z</time>
      </trkpt>
      <trkpt lat="45.90077" lon="4.57999">
        <ele>261.51971</ele>
        <time>2023-11-26T14:26:07.000Z</time>
      </trkpt>
      <trkpt lat="45.90079" lon="4.57995">
        <ele>261.6485</ele>
        <time>2023-11-26T14:26:08.000Z</time>
      </trkpt>
      <trkpt lat="45.90081" lon="4.57992">
        <ele>261.80789</ele>
        <time>2023-11-26T14:26:09.000Z</time>
      </trkpt>
      <trkpt lat="45.90083" lon="4.57987">
        <ele>261.95313</ele>
        <time>2023-11-26T14:26:10.000Z</time>
      </trkpt>
      <trkpt lat="45.90084" lon="4.57982">
        <ele>262.06891</ele>
        <time>2023-11-26T14:26:11.000Z</time>
      </trkpt>
      <trkpt lat="45.90083" lon="4.57977">
        <ele>262.18719</ele>
        <time>2023-11-26T14:26:12.000Z</time>
      </trkpt>
      <trkpt lat="45.90081" lon="4.57973">
        <ele>262.34174</ele>
        <time>2023-11-26T14:26:13.000Z</time>
      </trkpt>
      <trkpt lat="45.90078" lon="4.57969">
        <ele>262.4765</ele>
        <time>2023-11-26T14:26:14.000Z</time>
      </trkpt>
      <trkpt lat="45.90075" lon="4.57965">
        <ele>262.75708</ele>
        <time>2023-11-26T14:26:15.000Z</time>
      </trkpt>
      <trkpt lat="45.90071" lon="4.57961">
        <ele>263.02896</ele>
        <time>2023-11-26T14:26:16.000Z</time>
      </trkpt>
      <trkpt lat="45.90068" lon="4.57958">
        <ele>263.26743</ele>
        <time>2023-11-26T14:26:17.000Z</time>
      </trkpt>
      <trkpt lat="45.90065" lon="4.57954">
        <ele>263.53647</ele>
        <time>2023-11-26T14:26:18.000Z</time>
      </trkpt>
      <trkpt lat="45.90062" lon="4.57951">
        <ele>263.78824</ele>
        <time>2023-11-26T14:26:19.000Z</time>
      </trkpt>
      <trkpt lat="45.90059" lon="4.57947">
        <ele>264.03436</ele>
        <time>2023-11-26T14:26:20.000Z</time>
      </trkpt>
      <trkpt lat="45.90055" lon="4.57943">
        <ele>264.10178</ele>
        <time>2023-11-26T14:26:21.000Z</time>
      </trkpt>
      <trkpt lat="45.90052" lon="4.57939">
        <ele>264.13034</ele>
        <time>2023-11-26T14:26:22.000Z</time>
      </trkpt>
      <trkpt lat="45.90049" lon="4.57936">
        <ele>264.26685</ele>
        <time>2023-11-26T14:26:23.000Z</time>
      </trkpt>
      <trkpt lat="45.90046" lon="4.57932">
        <ele>264.50717</ele>
        <time>2023-11-26T14:26:24.000Z</time>
      </trkpt>
      <trkpt lat="45.90043" lon="4.57928">
        <ele>264.42172</ele>
        <time>2023-11-26T14:26:25.000Z</time>
      </trkpt>
      <trkpt lat="45.90041" lon="4.57924">
        <ele>264.66412</ele>
        <time>2023-11-26T14:26:26.000Z</time>
      </trkpt>
      <trkpt lat="45.90038" lon="4.5792">
        <ele>264.86404</ele>
        <time>2023-11-26T14:26:27.000Z</time>
      </trkpt>
      <trkpt lat="45.90035" lon="4.57916">
        <ele>265.0351</ele>
        <time>2023-11-26T14:26:28.000Z</time>
      </trkpt>
      <trkpt lat="45.90032" lon="4.57912">
        <ele>265.17136</ele>
        <time>2023-11-26T14:26:29.000Z</time>
      </trkpt>
      <trkpt lat="45.90029" lon="4.57909">
        <ele>265.31375</ele>
        <time>2023-11-26T14:26:30.000Z</time>
      </trkpt>
      <trkpt lat="45.90026" lon="4.57905">
        <ele>265.48453</ele>
        <time>2023-11-26T14:26:31.000Z</time>
      </trkpt>
      <trkpt lat="45.90023" lon="4.57902">
        <ele>265.66202</ele>
        <time>2023-11-26T14:26:32.000Z</time>
      </trkpt>
      <trkpt lat="45.9002" lon="4.57898">
        <ele>265.84998</ele>
        <time>2023-11-26T14:26:33.000Z</time>
      </trkpt>
      <trkpt lat="45.90017" lon="4.57895">
        <ele>266.02252</ele>
        <time>2023-11-26T14:26:34.000Z</time>
      </trkpt>
      <trkpt lat="45.90015" lon="4.57891">
        <ele>266.08899</ele>
        <time>2023-11-26T14:26:35.000Z</time>
      </trkpt>
      <trkpt lat="45.90012" lon="4.57887">
        <ele>266.16626</ele>
        <time>2023-11-26T14:26:36.000Z</time>
      </trkpt>
      <trkpt lat="45.90009" lon="4.57884">
        <ele>266.24228</ele>
        <time>2023-11-26T14:26:37.000Z</time>
      </trkpt>
      <trkpt lat="45.90006" lon="4.57881">
        <ele>266.30682</ele>
        <time>2023-11-26T14:26:38.000Z</time>
      </trkpt>
      <trkpt lat="45.90003" lon="4.57877">
        <ele>266.34766</ele>
        <time>2023-11-26T14:26:39.000Z</time>
      </trkpt>
      <trkpt lat="45.9" lon="4.57873">
        <ele>266.40561</ele>
        <time>2023-11-26T14:26:40.000Z</time>
      </trkpt>
      <trkpt lat="45.89999" lon="4.57868">
        <ele>266.66599</ele>
        <time>2023-11-26T14:26:41.000Z</time>
      </trkpt>
      <trkpt lat="45.89998" lon="4.57862">
        <ele>266.93274</ele>
        <time>2023-11-26T14:26:42.000Z</time>
      </trkpt>
      <trkpt lat="45.89999" lon="4.57856">
        <ele>267.08832</ele>
        <time>2023-11-26T14:26:43.000Z</time>
      </trkpt>
      <trkpt lat="45.9" lon="4.57851">
        <ele>267.14825</ele>
        <time>2023-11-26T14:26:44.000Z</time>
      </trkpt>
      <trkpt lat="45.90002" lon="4.57845">
        <ele>267.2009</ele>
        <time>2023-11-26T14:26:45.000Z</time>
      </trkpt>
      <trkpt lat="45.90004" lon="4.5784">
        <ele>267.28207</ele>
        <time>2023-11-26T14:26:46.000Z</time>
      </trkpt>
      <trkpt lat="45.90006" lon="4.57835">
        <ele>267.33701</ele>
        <time>2023-11-26T14:26:47.000Z</time>
      </trkpt>
      <trkpt lat="45.90008" lon="4.5783">
        <ele>267.40204</ele>
        <time>2023-11-26T14:26:48.000Z</time>
      </trkpt>
      <trkpt lat="45.90011" lon="4.57825">
        <ele>267.46005</ele>
        <time>2023-11-26T14:26:49.000Z</time>
      </trkpt>
      <trkpt lat="45.90013" lon="4.5782">
        <ele>267.49152</ele>
        <time>2023-11-26T14:26:50.000Z</time>
      </trkpt>
      <trkpt lat="45.90014" lon="4.57815">
        <ele>267.52563</ele>
        <time>2023-11-26T14:26:51.000Z</time>
      </trkpt>
      <trkpt lat="45.90016" lon="4.57809">
        <ele>267.56711</ele>
        <time>2023-11-26T14:26:52.000Z</time>
      </trkpt>
      <trkpt lat="45.90018" lon="4.57803">
        <ele>267.60626</ele>
        <time>2023-11-26T14:26:53.000Z</time>
      </trkpt>
      <trkpt lat="45.9002" lon="4.57798">
        <ele>267.65329</ele>
        <time>2023-11-26T14:26:54.000Z</time>
      </trkpt>
      <trkpt lat="45.90022" lon="4.57792">
        <ele>267.69611</ele>
        <time>2023-11-26T14:26:55.000Z</time>
      </trkpt>
      <trkpt lat="45.90024" lon="4.57786">
        <ele>267.73758</ele>
        <time>2023-11-26T14:26:56.000Z</time>
      </trkpt>
      <trkpt lat="45.90026" lon="4.5778">
        <ele>267.80936</ele>
        <time>2023-11-26T14:26:57.000Z</time>
      </trkpt>
      <trkpt lat="45.90028" lon="4.57775">
        <ele>267.87524</ele>
        <time>2023-11-26T14:26:58.000Z</time>
      </trkpt>
      <trkpt lat="45.9003" lon="4.57768">
        <ele>267.96979</ele>
        <time>2023-11-26T14:26:59.000Z</time>
      </trkpt>
      <trkpt lat="45.90032" lon="4.57763">
        <ele>268.05307</ele>
        <time>2023-11-26T14:27:00.000Z</time>
      </trkpt>
      <trkpt lat="45.90034" lon="4.57756">
        <ele>268.11871</ele>
        <time>2023-11-26T14:27:01.000Z</time>
      </trkpt>
      <trkpt lat="45.90036" lon="4.57751">
        <ele>268.1748</ele>
        <time>2023-11-26T14:27:02.000Z</time>
      </trkpt>
      <trkpt lat="45.90038" lon="4.57745">
        <ele>268.21722</ele>
        <time>2023-11-26T14:27:03.000Z</time>
      </trkpt>
      <trkpt lat="45.9004" lon="4.57738">
        <ele>268.2395</ele>
        <time>2023-11-26T14:27:04.000Z</time>
      </trkpt>
      <trkpt lat="45.90042" lon="4.57731">
        <ele>268.2644</ele>
        <time>2023-11-26T14:27:05.000Z</time>
      </trkpt>
      <trkpt lat="45.90045" lon="4.57724">
        <ele>268.32733</ele>
        <time>2023-11-26T14:27:06.000Z</time>
      </trkpt>
      <trkpt lat="45.90046" lon="4.57718">
        <ele>268.39111</ele>
        <time>2023-11-26T14:27:07.000Z</time>
      </trkpt>
      <trkpt lat="45.90049" lon="4.57712">
        <ele>268.48123</ele>
        <time>2023-11-26T14:27:08.000Z</time>
      </trkpt>
      <trkpt lat="45.90051" lon="4.57704">
        <ele>268.37808</ele>
        <time>2023-11-26T14:27:09.000Z</time>
      </trkpt>
      <trkpt lat="45.90053" lon="4.57697">
        <ele>268.25787</ele>
        <time>2023-11-26T14:27:10.000Z</time>
      </trkpt>
      <trkpt lat="45.90055" lon="4.57689">
        <ele>268.40338</ele>
        <time>2023-11-26T14:27:11.000Z</time>
      </trkpt>
      <trkpt lat="45.90058" lon="4.57682">
        <ele>268.43085</ele>
        <time>2023-11-26T14:27:12.000Z</time>
      </trkpt>
      <trkpt lat="45.9006" lon="4.57676">
        <ele>268.45123</ele>
        <time>2023-11-26T14:27:13.000Z</time>
      </trkpt>
      <trkpt lat="45.90061" lon="4.5767">
        <ele>268.46655</ele>
        <time>2023-11-26T14:27:14.000Z</time>
      </trkpt>
      <trkpt lat="45.90063" lon="4.57662">
        <ele>268.47092</ele>
        <time>2023-11-26T14:27:15.000Z</time>
      </trkpt>
      <trkpt lat="45.90065" lon="4.57655">
        <ele>268.47321</ele>
        <time>2023-11-26T14:27:16.000Z</time>
      </trkpt>
      <trkpt lat="45.90067" lon="4.57649">
        <ele>268.44296</ele>
        <time>2023-11-26T14:27:17.000Z</time>
      </trkpt>
      <trkpt lat="45.90069" lon="4.57642">
        <ele>268.42322</ele>
        <time>2023-11-26T14:27:18.000Z</time>
      </trkpt>
      <trkpt lat="45.90071" lon="4.57635">
        <ele>268.28156</ele>
        <time>2023-11-26T14:27:19.000Z</time>
      </trkpt>
      <trkpt lat="45.90074" lon="4.57628">
        <ele>268.15161</ele>
        <time>2023-11-26T14:27:20.000Z</time>
      </trkpt>
      <trkpt lat="45.90076" lon="4.57621">
        <ele>267.99249</ele>
        <time>2023-11-26T14:27:21.000Z</time>
      </trkpt>
      <trkpt lat="45.90077" lon="4.57614">
        <ele>267.69745</ele>
        <time>2023-11-26T14:27:22.000Z</time>
      </trkpt>
      <trkpt lat="45.9008" lon="4.57606">
        <ele>267.6687</ele>
        <time>2023-11-26T14:27:23.000Z</time>
      </trkpt>
      <trkpt lat="45.90082" lon="4.576">
        <ele>267.65964</ele>
        <time>2023-11-26T14:27:24.000Z</time>
      </trkpt>
      <trkpt lat="45.90085" lon="4.57594">
        <ele>267.92621</ele>
        <time>2023-11-26T14:27:25.000Z</time>
      </trkpt>
      <trkpt lat="45.90089" lon="4.57589">
        <ele>267.84552</ele>
        <time>2023-11-26T14:27:26.000Z</time>
      </trkpt>
      <trkpt lat="45.90094" lon="4.57584">
        <ele>267.84573</ele>
        <time>2023-11-26T14:27:27.000Z</time>
      </trkpt>
      <trkpt lat="45.90099" lon="4.57581">
        <ele>267.84125</ele>
        <time>2023-11-26T14:27:28.000Z</time>
      </trkpt>
      <trkpt lat="45.90104" lon="4.57577">
        <ele>268.04556</ele>
        <time>2023-11-26T14:27:29.000Z</time>
      </trkpt>
      <trkpt lat="45.90108" lon="4.57575">
        <ele>268.32831</ele>
        <time>2023-11-26T14:27:30.000Z</time>
      </trkpt>
      <trkpt lat="45.90113" lon="4.57572">
        <ele>268.33063</ele>
        <time>2023-11-26T14:27:31.000Z</time>
      </trkpt>
      <trkpt lat="45.90118" lon="4.5757">
        <ele>268.28897</ele>
        <time>2023-11-26T14:27:32.000Z</time>
      </trkpt>
      <trkpt lat="45.90123" lon="4.57566">
        <ele>268.23611</ele>
        <time>2023-11-26T14:27:33.000Z</time>
      </trkpt>
      <trkpt lat="45.90128" lon="4.57563">
        <ele>268.19995</ele>
        <time>2023-11-26T14:27:34.000Z</time>
      </trkpt>
      <trkpt lat="45.90133" lon="4.5756">
        <ele>268.17047</ele>
        <time>2023-11-26T14:27:35.000Z</time>
      </trkpt>
      <trkpt lat="45.90138" lon="4.57556">
        <ele>268.14032</ele>
        <time>2023-11-26T14:27:36.000Z</time>
      </trkpt>
      <trkpt lat="45.90143" lon="4.57553">
        <ele>268.06354</ele>
        <time>2023-11-26T14:27:37.000Z</time>
      </trkpt>
      <trkpt lat="45.90148" lon="4.5755">
        <ele>267.80109</ele>
        <time>2023-11-26T14:27:38.000Z</time>
      </trkpt>
      <trkpt lat="45.90153" lon="4.57547">
        <ele>267.52957</ele>
        <time>2023-11-26T14:27:39.000Z</time>
      </trkpt>
      <trkpt lat="45.90158" lon="4.57543">
        <ele>267.62512</ele>
        <time>2023-11-26T14:27:40.000Z</time>
      </trkpt>
      <trkpt lat="45.90163" lon="4.5754">
        <ele>267.70087</ele>
        <time>2023-11-26T14:27:41.000Z</time>
      </trkpt>
      <trkpt lat="45.90168" lon="4.57536">
        <ele>267.95526</ele>
        <time>2023-11-26T14:27:42.000Z</time>
      </trkpt>
      <trkpt lat="45.90173" lon="4.57533">
        <ele>268.07605</ele>
        <time>2023-11-26T14:27:43.000Z</time>
      </trkpt>
      <trkpt lat="45.90178" lon="4.57531">
        <ele>268.25714</ele>
        <time>2023-11-26T14:27:44.000Z</time>
      </trkpt>
      <trkpt lat="45.90183" lon="4.57529">
        <ele>268.17188</ele>
        <time>2023-11-26T14:27:45.000Z</time>
      </trkpt>
      <trkpt lat="45.90189" lon="4.57525">
        <ele>268.12189</ele>
        <time>2023-11-26T14:27:46.000Z</time>
      </trkpt>
      <trkpt lat="45.90194" lon="4.57522">
        <ele>268.06671</ele>
        <time>2023-11-26T14:27:47.000Z</time>
      </trkpt>
      <trkpt lat="45.90199" lon="4.57519">
        <ele>267.98843</ele>
        <time>2023-11-26T14:27:48.000Z</time>
      </trkpt>
      <trkpt lat="45.90205" lon="4.57515">
        <ele>268.00214</ele>
        <time>2023-11-26T14:27:49.000Z</time>
      </trkpt>
      <trkpt lat="45.9021" lon="4.57512">
        <ele>267.96381</ele>
        <time>2023-11-26T14:27:50.000Z</time>
      </trkpt>
      <trkpt lat="45.90216" lon="4.57508">
        <ele>267.91119</ele>
        <time>2023-11-26T14:27:51.000Z</time>
      </trkpt>
      <trkpt lat="45.90221" lon="4.57506">
        <ele>267.90244</ele>
        <time>2023-11-26T14:27:52.000Z</time>
      </trkpt>
      <trkpt lat="45.90226" lon="4.57503">
        <ele>267.90833</ele>
        <time>2023-11-26T14:27:53.000Z</time>
      </trkpt>
      <trkpt lat="45.90231" lon="4.575">
        <ele>267.72449</ele>
        <time>2023-11-26T14:27:54.000Z</time>
      </trkpt>
      <trkpt lat="45.90236" lon="4.57496">
        <ele>267.54593</ele>
        <time>2023-11-26T14:27:55.000Z</time>
      </trkpt>
      <trkpt lat="45.90241" lon="4.57493">
        <ele>267.34235</ele>
        <time>2023-11-26T14:27:56.000Z</time>
      </trkpt>
      <trkpt lat="45.90245" lon="4.57491">
        <ele>267.19977</ele>
        <time>2023-11-26T14:27:57.000Z</time>
      </trkpt>
      <trkpt lat="45.9025" lon="4.5749">
        <ele>267.24103</ele>
        <time>2023-11-26T14:27:58.000Z</time>
      </trkpt>
      <trkpt lat="45.90255" lon="4.57487">
        <ele>267.38843</ele>
        <time>2023-11-26T14:27:59.000Z</time>
      </trkpt>
      <trkpt lat="45.90259" lon="4.57486">
        <ele>267.07318</ele>
        <time>2023-11-26T14:28:00.000Z</time>
      </trkpt>
      <trkpt lat="45.90264" lon="4.57484">
        <ele>266.7551</ele>
        <time>2023-11-26T14:28:01.000Z</time>
      </trkpt>
      <trkpt lat="45.90268" lon="4.57482">
        <ele>266.40717</ele>
        <time>2023-11-26T14:28:02.000Z</time>
      </trkpt>
      <trkpt lat="45.90271" lon="4.57479">
        <ele>266.4057</ele>
        <time>2023-11-26T14:28:03.000Z</time>
      </trkpt>
      <trkpt lat="45.90275" lon="4.57477">
        <ele>266.34897</ele>
        <time>2023-11-26T14:28:04.000Z</time>
      </trkpt>
      <trkpt lat="45.90279" lon="4.57474">
        <ele>266.27505</ele>
        <time>2023-11-26T14:28:05.000Z</time>
      </trkpt>
      <trkpt lat="45.90283" lon="4.57473">
        <ele>266.20282</ele>
        <time>2023-11-26T14:28:06.000Z</time>
      </trkpt>
      <trkpt lat="45.90287" lon="4.57471">
        <ele>266.11865</ele>
        <time>2023-11-26T14:28:07.000Z</time>
      </trkpt>
      <trkpt lat="45.90291" lon="4.57468">
        <ele>266.07526</ele>
        <time>2023-11-26T14:28:08.000Z</time>
      </trkpt>
      <trkpt lat="45.90294" lon="4.57466">
        <ele>265.89774</ele>
        <time>2023-11-26T14:28:09.000Z</time>
      </trkpt>
      <trkpt lat="45.90297" lon="4.57464">
        <ele>265.76105</ele>
        <time>2023-11-26T14:28:10.000Z</time>
      </trkpt>
      <trkpt lat="45.903" lon="4.57462">
        <ele>265.61737</ele>
        <time>2023-11-26T14:28:11.000Z</time>
      </trkpt>
      <trkpt lat="45.90304" lon="4.57461">
        <ele>265.59055</ele>
        <time>2023-11-26T14:28:12.000Z</time>
      </trkpt>
      <trkpt lat="45.90307" lon="4.57459">
        <ele>265.54803</ele>
        <time>2023-11-26T14:28:13.000Z</time>
      </trkpt>
      <trkpt lat="45.9031" lon="4.57457">
        <ele>265.66327</ele>
        <time>2023-11-26T14:28:14.000Z</time>
      </trkpt>
      <trkpt lat="45.90314" lon="4.57456">
        <ele>265.82919</ele>
        <time>2023-11-26T14:28:15.000Z</time>
      </trkpt>
      <trkpt lat="45.90317" lon="4.57454">
        <ele>265.99594</ele>
        <time>2023-11-26T14:28:16.000Z</time>
      </trkpt>
      <trkpt lat="45.9032" lon="4.57452">
        <ele>266.14594</ele>
        <time>2023-11-26T14:28:17.000Z</time>
      </trkpt>
      <trkpt lat="45.90323" lon="4.5745">
        <ele>266.11041</ele>
        <time>2023-11-26T14:28:18.000Z</time>
      </trkpt>
      <trkpt lat="45.90325" lon="4.57449">
        <ele>266.09064</ele>
        <time>2023-11-26T14:28:19.000Z</time>
      </trkpt>
      <trkpt lat="45.90328" lon="4.57448">
        <ele>266.08606</ele>
        <time>2023-11-26T14:28:20.000Z</time>
      </trkpt>
      <trkpt lat="45.90331" lon="4.57446">
        <ele>266.09445</ele>
        <time>2023-11-26T14:28:21.000Z</time>
      </trkpt>
      <trkpt lat="45.90334" lon="4.57444">
        <ele>266.46368</ele>
        <time>2023-11-26T14:28:22.000Z</time>
      </trkpt>
      <trkpt lat="45.90337" lon="4.57441">
        <ele>266.40912</ele>
        <time>2023-11-26T14:28:23.000Z</time>
      </trkpt>
      <trkpt lat="45.9034" lon="4.57439">
        <ele>266.43842</ele>
        <time>2023-11-26T14:28:24.000Z</time>
      </trkpt>
      <trkpt lat="45.90343" lon="4.57436">
        <ele>266.44925</ele>
        <time>2023-11-26T14:28:25.000Z</time>
      </trkpt>
      <trkpt lat="45.90346" lon="4.57433">
        <ele>266.48938</ele>
        <time>2023-11-26T14:28:26.000Z</time>
      </trkpt>
      <trkpt lat="45.90349" lon="4.57429">
        <ele>266.51956</ele>
        <time>2023-11-26T14:28:27.000Z</time>
      </trkpt>
      <trkpt lat="45.90352" lon="4.57425">
        <ele>266.5191</ele>
        <time>2023-11-26T14:28:28.000Z</time>
      </trkpt>
      <trkpt lat="45.90356" lon="4.57421">
        <ele>266.4964</ele>
        <time>2023-11-26T14:28:29.000Z</time>
      </trkpt>
      <trkpt lat="45.9036" lon="4.57417">
        <ele>266.44705</ele>
        <time>2023-11-26T14:28:30.000Z</time>
      </trkpt>
      <trkpt lat="45.90364" lon="4.57413">
        <ele>266.39667</ele>
        <time>2023-11-26T14:28:31.000Z</time>
      </trkpt>
      <trkpt lat="45.90368" lon="4.57409">
        <ele>266.33316</ele>
        <time>2023-11-26T14:28:32.000Z</time>
      </trkpt>
      <trkpt lat="45.90372" lon="4.57403">
        <ele>266.23386</ele>
        <time>2023-11-26T14:28:33.000Z</time>
      </trkpt>
      <trkpt lat="45.90377" lon="4.57397">
        <ele>266.13297</ele>
        <time>2023-11-26T14:28:34.000Z</time>
      </trkpt>
      <trkpt lat="45.90382" lon="4.57392">
        <ele>265.98563</ele>
        <time>2023-11-26T14:28:35.000Z</time>
      </trkpt>
      <trkpt lat="45.90387" lon="4.57386">
        <ele>265.82895</ele>
        <time>2023-11-26T14:28:36.000Z</time>
      </trkpt>
      <trkpt lat="45.90392" lon="4.57381">
        <ele>265.67487</ele>
        <time>2023-11-26T14:28:37.000Z</time>
      </trkpt>
      <trkpt lat="45.90396" lon="4.57376">
        <ele>265.68649</ele>
        <time>2023-11-26T14:28:38.000Z</time>
      </trkpt>
      <trkpt lat="45.904" lon="4.5737">
        <ele>265.66342</ele>
        <time>2023-11-26T14:28:39.000Z</time>
      </trkpt>
      <trkpt lat="45.90404" lon="4.57365">
        <ele>265.70044</ele>
        <time>2023-11-26T14:28:40.000Z</time>
      </trkpt>
      <trkpt lat="45.90408" lon="4.5736">
        <ele>265.73492</ele>
        <time>2023-11-26T14:28:41.000Z</time>
      </trkpt>
      <trkpt lat="45.90413" lon="4.57357">
        <ele>265.34698</ele>
        <time>2023-11-26T14:28:42.000Z</time>
      </trkpt>
      <trkpt lat="45.90416" lon="4.57354">
        <ele>265.04181</ele>
        <time>2023-11-26T14:28:43.000Z</time>
      </trkpt>
      <trkpt lat="45.9042" lon="4.57349">
        <ele>264.69135</ele>
        <time>2023-11-26T14:28:44.000Z</time>
      </trkpt>
      <trkpt lat="45.90423" lon="4.57346">
        <ele>264.32483</ele>
        <time>2023-11-26T14:28:45.000Z</time>
      </trkpt>
      <trkpt lat="45.90425" lon="4.57342">
        <ele>263.94562</ele>
        <time>2023-11-26T14:28:46.000Z</time>
      </trkpt>
      <trkpt lat="45.90426" lon="4.57337">
        <ele>263.59619</ele>
        <time>2023-11-26T14:28:47.000Z</time>
      </trkpt>
      <trkpt lat="45.90426" lon="4.57334">
        <ele>263.19876</ele>
        <time>2023-11-26T14:28:48.000Z</time>
      </trkpt>
      <trkpt lat="45.90426" lon="4.57329">
        <ele>262.70441</ele>
        <time>2023-11-26T14:28:49.000Z</time>
      </trkpt>
      <trkpt lat="45.90428" lon="4.57325">
        <ele>262.20914</ele>
        <time>2023-11-26T14:28:50.000Z</time>
      </trkpt>
      <trkpt lat="45.90429" lon="4.57324">
        <ele>261.71289</ele>
        <time>2023-11-26T14:28:51.000Z</time>
      </trkpt>
      <trkpt lat="45.90432" lon="4.57322">
        <ele>261.1257</ele>
        <time>2023-11-26T14:28:52.000Z</time>
      </trkpt>
      <trkpt lat="45.90436" lon="4.57321">
        <ele>260.56039</ele>
        <time>2023-11-26T14:28:53.000Z</time>
      </trkpt>
      <trkpt lat="45.9044" lon="4.5732">
        <ele>259.98047</ele>
        <time>2023-11-26T14:28:54.000Z</time>
      </trkpt>
      <trkpt lat="45.90443" lon="4.57318">
        <ele>259.36249</ele>
        <time>2023-11-26T14:28:55.000Z</time>
      </trkpt>
      <trkpt lat="45.90446" lon="4.5731">
        <ele>258.77002</ele>
        <time>2023-11-26T14:28:56.000Z</time>
      </trkpt>
      <trkpt lat="45.90448" lon="4.57304">
        <ele>258.15097</ele>
        <time>2023-11-26T14:28:57.000Z</time>
      </trkpt>
      <trkpt lat="45.90449" lon="4.57293">
        <ele>257.45441</ele>
        <time>2023-11-26T14:28:58.000Z</time>
      </trkpt>
      <trkpt lat="45.90449" lon="4.57285">
        <ele>256.75583</ele>
        <time>2023-11-26T14:28:59.000Z</time>
      </trkpt>
      <trkpt lat="45.9045" lon="4.57278">
        <ele>256.07828</ele>
        <time>2023-11-26T14:29:00.000Z</time>
      </trkpt>
      <trkpt lat="45.90449" lon="4.57274">
        <ele>255.44221</ele>
        <time>2023-11-26T14:29:01.000Z</time>
      </trkpt>
      <trkpt lat="45.90448" lon="4.57271">
        <ele>254.83237</ele>
        <time>2023-11-26T14:29:02.000Z</time>
      </trkpt>
      <trkpt lat="45.90447" lon="4.57268">
        <ele>254.17656</ele>
        <time>2023-11-26T14:29:04.000Z</time>
      </trkpt>
      <trkpt lat="45.9045" lon="4.57268">
        <ele>253.7979</ele>
        <time>2023-11-26T14:29:10.000Z</time>
      </trkpt>
      <trkpt lat="45.90453" lon="4.5727">
        <ele>253.48459</ele>
        <time>2023-11-26T14:29:11.000Z</time>
      </trkpt>
      <trkpt lat="45.90456" lon="4.57273">
        <ele>253.07639</ele>
        <time>2023-11-26T14:29:12.000Z</time>
      </trkpt>
      <trkpt lat="45.90459" lon="4.57277">
        <ele>252.63196</ele>
        <time>2023-11-26T14:29:13.000Z</time>
      </trkpt>
      <trkpt lat="45.90463" lon="4.5728">
        <ele>252.21782</ele>
        <time>2023-11-26T14:29:14.000Z</time>
      </trkpt>
      <trkpt lat="45.90466" lon="4.57283">
        <ele>251.87936</ele>
        <time>2023-11-26T14:29:15.000Z</time>
      </trkpt>
      <trkpt lat="45.90468" lon="4.57288">
        <ele>251.44356</ele>
        <time>2023-11-26T14:29:16.000Z</time>
      </trkpt>
      <trkpt lat="45.90472" lon="4.57295">
        <ele>250.99219</ele>
        <time>2023-11-26T14:29:17.000Z</time>
      </trkpt>
      <trkpt lat="45.90475" lon="4.57301">
        <ele>250.57654</ele>
        <time>2023-11-26T14:29:18.000Z</time>
      </trkpt>
      <trkpt lat="45.90478" lon="4.57307">
        <ele>250.16296</ele>
        <time>2023-11-26T14:29:19.000Z</time>
      </trkpt>
      <trkpt lat="45.90481" lon="4.57312">
        <ele>249.74881</ele>
        <time>2023-11-26T14:29:20.000Z</time>
      </trkpt>
      <trkpt lat="45.90486" lon="4.57316">
        <ele>249.34305</ele>
        <time>2023-11-26T14:29:21.000Z</time>
      </trkpt>
      <trkpt lat="45.90491" lon="4.57323">
        <ele>248.89047</ele>
        <time>2023-11-26T14:29:22.000Z</time>
      </trkpt>
      <trkpt lat="45.90496" lon="4.57327">
        <ele>248.46184</ele>
        <time>2023-11-26T14:29:23.000Z</time>
      </trkpt>
      <trkpt lat="45.90501" lon="4.57331">
        <ele>248.10954</ele>
        <time>2023-11-26T14:29:24.000Z</time>
      </trkpt>
      <trkpt lat="45.90507" lon="4.57332">
        <ele>247.7673</ele>
        <time>2023-11-26T14:29:25.000Z</time>
      </trkpt>
      <trkpt lat="45.90513" lon="4.57333">
        <ele>247.40634</ele>
        <time>2023-11-26T14:29:26.000Z</time>
      </trkpt>
      <trkpt lat="45.90519" lon="4.57333">
        <ele>247.05423</ele>
        <time>2023-11-26T14:29:27.000Z</time>
      </trkpt>
      <trkpt lat="45.90525" lon="4.57334">
        <ele>246.74045</ele>
        <time>2023-11-26T14:29:28.000Z</time>
      </trkpt>
      <trkpt lat="45.90532" lon="4.57333">
        <ele>246.51636</ele>
        <time>2023-11-26T14:29:29.000Z</time>
      </trkpt>
      <trkpt lat="45.90537" lon="4.57334">
        <ele>246.02681</ele>
        <time>2023-11-26T14:29:30.000Z</time>
      </trkpt>
      <trkpt lat="45.90542" lon="4.57335">
        <ele>245.50867</ele>
        <time>2023-11-26T14:29:31.000Z</time>
      </trkpt>
      <trkpt lat="45.90547" lon="4.57336">
        <ele>245.03474</ele>
        <time>2023-11-26T14:29:32.000Z</time>
      </trkpt>
      <trkpt lat="45.9055" lon="4.57335">
        <ele>244.55708</ele>
        <time>2023-11-26T14:29:33.000Z</time>
      </trkpt>
      <trkpt lat="45.90554" lon="4.57337">
        <ele>243.99338</ele>
        <time>2023-11-26T14:29:34.000Z</time>
      </trkpt>
      <trkpt lat="45.90557" lon="4.57338">
        <ele>243.51944</ele>
        <time>2023-11-26T14:29:35.000Z</time>
      </trkpt>
      <trkpt lat="45.90561" lon="4.57338">
        <ele>243.13216</ele>
        <time>2023-11-26T14:29:36.000Z</time>
      </trkpt>
      <trkpt lat="45.90564" lon="4.57337">
        <ele>242.76973</ele>
        <time>2023-11-26T14:29:37.000Z</time>
      </trkpt>
      <trkpt lat="45.90567" lon="4.57336">
        <ele>242.48714</ele>
        <time>2023-11-26T14:29:38.000Z</time>
      </trkpt>
      <trkpt lat="45.9057" lon="4.57338">
        <ele>242.2244</ele>
        <time>2023-11-26T14:29:39.000Z</time>
      </trkpt>
      <trkpt lat="45.90572" lon="4.57339">
        <ele>242.02481</ele>
        <time>2023-11-26T14:29:41.000Z</time>
      </trkpt>
      <trkpt lat="45.90574" lon="4.57339">
        <ele>241.76022</ele>
        <time>2023-11-26T14:30:34.000Z</time>
      </trkpt>
      <trkpt lat="45.90577" lon="4.57338">
        <ele>241.54648</ele>
        <time>2023-11-26T14:30:36.000Z</time>
      </trkpt>
      <trkpt lat="45.90579" lon="4.57337">
        <ele>241.36646</ele>
        <time>2023-11-26T14:30:37.000Z</time>
      </trkpt>
      <trkpt lat="45.90582" lon="4.57338">
        <ele>241.20842</ele>
        <time>2023-11-26T14:30:38.000Z</time>
      </trkpt>
      <trkpt lat="45.90585" lon="4.57338">
        <ele>241.08359</ele>
        <time>2023-11-26T14:30:39.000Z</time>
      </trkpt>
      <trkpt lat="45.90588" lon="4.57338">
        <ele>240.97739</ele>
        <time>2023-11-26T14:30:40.000Z</time>
      </trkpt>
      <trkpt lat="45.90592" lon="4.57338">
        <ele>240.88928</ele>
        <time>2023-11-26T14:30:41.000Z</time>
      </trkpt>
      <trkpt lat="45.90595" lon="4.57338">
        <ele>240.7863</ele>
        <time>2023-11-26T14:30:42.000Z</time>
      </trkpt>
      <trkpt lat="45.90599" lon="4.57338">
        <ele>240.62956</ele>
        <time>2023-11-26T14:30:43.000Z</time>
      </trkpt>
      <trkpt lat="45.90602" lon="4.57339">
        <ele>240.4978</ele>
        <time>2023-11-26T14:30:44.000Z</time>
      </trkpt>
      <trkpt lat="45.90605" lon="4.57339">
        <ele>240.35454</ele>
        <time>2023-11-26T14:30:45.000Z</time>
      </trkpt>
      <trkpt lat="45.90609" lon="4.5734">
        <ele>240.25554</ele>
        <time>2023-11-26T14:30:46.000Z</time>
      </trkpt>
      <trkpt lat="45.90612" lon="4.57341">
        <ele>240.16785</ele>
        <time>2023-11-26T14:30:47.000Z</time>
      </trkpt>
      <trkpt lat="45.90616" lon="4.57341">
        <ele>240.20439</ele>
        <time>2023-11-26T14:30:48.000Z</time>
      </trkpt>
      <trkpt lat="45.90619" lon="4.57341">
        <ele>240.23755</ele>
        <time>2023-11-26T14:30:49.000Z</time>
      </trkpt>
      <trkpt lat="45.90622" lon="4.57341">
        <ele>240.28914</ele>
        <time>2023-11-26T14:30:50.000Z</time>
      </trkpt>
      <trkpt lat="45.90625" lon="4.57342">
        <ele>240.32385</ele>
        <time>2023-11-26T14:30:51.000Z</time>
      </trkpt>
      <trkpt lat="45.90628" lon="4.57343">
        <ele>240.36893</ele>
        <time>2023-11-26T14:30:52.000Z</time>
      </trkpt>
      <trkpt lat="45.90632" lon="4.57345">
        <ele>240.43242</ele>
        <time>2023-11-26T14:30:53.000Z</time>
      </trkpt>
      <trkpt lat="45.90635" lon="4.57347">
        <ele>240.4574</ele>
        <time>2023-11-26T14:30:54.000Z</time>
      </trkpt>
      <trkpt lat="45.90638" lon="4.57349">
        <ele>240.55127</ele>
        <time>2023-11-26T14:30:55.000Z</time>
      </trkpt>
      <trkpt lat="45.90642" lon="4.57352">
        <ele>240.6261</ele>
        <time>2023-11-26T14:30:56.000Z</time>
      </trkpt>
      <trkpt lat="45.90645" lon="4.57354">
        <ele>240.66716</ele>
        <time>2023-11-26T14:30:57.000Z</time>
      </trkpt>
      <trkpt lat="45.90648" lon="4.57357">
        <ele>240.71121</ele>
        <time>2023-11-26T14:30:58.000Z</time>
      </trkpt>
      <trkpt lat="45.90651" lon="4.57359">
        <ele>240.72025</ele>
        <time>2023-11-26T14:30:59.000Z</time>
      </trkpt>
      <trkpt lat="45.90654" lon="4.57362">
        <ele>240.75996</ele>
        <time>2023-11-26T14:31:00.000Z</time>
      </trkpt>
      <trkpt lat="45.90657" lon="4.57364">
        <ele>240.75725</ele>
        <time>2023-11-26T14:31:01.000Z</time>
      </trkpt>
      <trkpt lat="45.9066" lon="4.57367">
        <ele>240.79256</ele>
        <time>2023-11-26T14:31:02.000Z</time>
      </trkpt>
      <trkpt lat="45.90663" lon="4.5737">
        <ele>240.82852</ele>
        <time>2023-11-26T14:31:03.000Z</time>
      </trkpt>
      <trkpt lat="45.90666" lon="4.57372">
        <ele>240.87134</ele>
        <time>2023-11-26T14:31:04.000Z</time>
      </trkpt>
      <trkpt lat="45.9067" lon="4.57375">
        <ele>240.90266</ele>
        <time>2023-11-26T14:31:05.000Z</time>
      </trkpt>
      <trkpt lat="45.90674" lon="4.57378">
        <ele>240.9075</ele>
        <time>2023-11-26T14:31:06.000Z</time>
      </trkpt>
      <trkpt lat="45.90678" lon="4.57381">
        <ele>240.90776</ele>
        <time>2023-11-26T14:31:07.000Z</time>
      </trkpt>
      <trkpt lat="45.90682" lon="4.57383">
        <ele>240.87895</ele>
        <time>2023-11-26T14:31:08.000Z</time>
      </trkpt>
      <trkpt lat="45.90686" lon="4.57386">
        <ele>240.82007</ele>
        <time>2023-11-26T14:31:09.000Z</time>
      </trkpt>
      <trkpt lat="45.9069" lon="4.57389">
        <ele>240.72615</ele>
        <time>2023-11-26T14:31:10.000Z</time>
      </trkpt>
      <trkpt lat="45.90694" lon="4.57394">
        <ele>240.64497</ele>
        <time>2023-11-26T14:31:11.000Z</time>
      </trkpt>
      <trkpt lat="45.90697" lon="4.57399">
        <ele>240.53799</ele>
        <time>2023-11-26T14:31:12.000Z</time>
      </trkpt>
      <trkpt lat="45.907" lon="4.57405">
        <ele>240.40915</ele>
        <time>2023-11-26T14:31:13.000Z</time>
      </trkpt>
      <trkpt lat="45.90701" lon="4.57411">
        <ele>240.30051</ele>
        <time>2023-11-26T14:31:14.000Z</time>
      </trkpt>
      <trkpt lat="45.90702" lon="4.57416">
        <ele>240.18723</ele>
        <time>2023-11-26T14:31:15.000Z</time>
      </trkpt>
      <trkpt lat="45.90701" lon="4.57422">
        <ele>240.06467</ele>
        <time>2023-11-26T14:31:16.000Z</time>
      </trkpt>
      <trkpt lat="45.90701" lon="4.57428">
        <ele>239.97441</ele>
        <time>2023-11-26T14:31:17.000Z</time>
      </trkpt>
      <trkpt lat="45.907" lon="4.57433">
        <ele>239.86536</ele>
        <time>2023-11-26T14:31:18.000Z</time>
      </trkpt>
      <trkpt lat="45.90699" lon="4.57439">
        <ele>239.83603</ele>
        <time>2023-11-26T14:31:19.000Z</time>
      </trkpt>
      <trkpt lat="45.90699" lon="4.57445">
        <ele>239.78735</ele>
        <time>2023-11-26T14:31:20.000Z</time>
      </trkpt>
      <trkpt lat="45.90697" lon="4.57451">
        <ele>239.73148</ele>
        <time>2023-11-26T14:31:21.000Z</time>
      </trkpt>
      <trkpt lat="45.90696" lon="4.57456">
        <ele>239.68063</ele>
        <time>2023-11-26T14:31:22.000Z</time>
      </trkpt>
      <trkpt lat="45.90695" lon="4.57462">
        <ele>239.67473</ele>
        <time>2023-11-26T14:31:23.000Z</time>
      </trkpt>
      <trkpt lat="45.90694" lon="4.57468">
        <ele>239.66716</ele>
        <time>2023-11-26T14:31:24.000Z</time>
      </trkpt>
      <trkpt lat="45.90692" lon="4.57473">
        <ele>239.67239</ele>
        <time>2023-11-26T14:31:25.000Z</time>
      </trkpt>
      <trkpt lat="45.9069" lon="4.57479">
        <ele>239.70869</ele>
        <time>2023-11-26T14:31:26.000Z</time>
      </trkpt>
      <trkpt lat="45.90687" lon="4.57484">
        <ele>239.74654</ele>
        <time>2023-11-26T14:31:27.000Z</time>
      </trkpt>
      <trkpt lat="45.90684" lon="4.5749">
        <ele>239.76627</ele>
        <time>2023-11-26T14:31:28.000Z</time>
      </trkpt>
      <trkpt lat="45.90682" lon="4.57495">
        <ele>239.80437</ele>
        <time>2023-11-26T14:31:29.000Z</time>
      </trkpt>
      <trkpt lat="45.9068" lon="4.575">
        <ele>239.87521</ele>
        <time>2023-11-26T14:31:30.000Z</time>
      </trkpt>
      <trkpt lat="45.90678" lon="4.57506">
        <ele>239.93721</ele>
        <time>2023-11-26T14:31:31.000Z</time>
      </trkpt>
      <trkpt lat="45.90678" lon="4.57512">
        <ele>240.00322</ele>
        <time>2023-11-26T14:31:32.000Z</time>
      </trkpt>
      <trkpt lat="45.90677" lon="4.57518">
        <ele>240.04439</ele>
        <time>2023-11-26T14:31:33.000Z</time>
      </trkpt>
      <trkpt lat="45.90677" lon="4.57524">
        <ele>240.06514</ele>
        <time>2023-11-26T14:31:34.000Z</time>
      </trkpt>
      <trkpt lat="45.90675" lon="4.5753">
        <ele>240.11349</ele>
        <time>2023-11-26T14:31:35.000Z</time>
      </trkpt>
      <trkpt lat="45.90674" lon="4.57537">
        <ele>240.16528</ele>
        <time>2023-11-26T14:31:36.000Z</time>
      </trkpt>
      <trkpt lat="45.90674" lon="4.57544">
        <ele>240.20554</ele>
        <time>2023-11-26T14:31:37.000Z</time>
      </trkpt>
      <trkpt lat="45.90674" lon="4.5755">
        <ele>240.28032</ele>
        <time>2023-11-26T14:31:38.000Z</time>
      </trkpt>
      <trkpt lat="45.90673" lon="4.57557">
        <ele>240.28288</ele>
        <time>2023-11-26T14:31:39.000Z</time>
      </trkpt>
      <trkpt lat="45.90672" lon="4.57563">
        <ele>240.27055</ele>
        <time>2023-11-26T14:31:40.000Z</time>
      </trkpt>
      <trkpt lat="45.90672" lon="4.57568">
        <ele>240.2347</ele>
        <time>2023-11-26T14:31:41.000Z</time>
      </trkpt>
      <trkpt lat="45.9067" lon="4.57575">
        <ele>240.17546</ele>
        <time>2023-11-26T14:31:42.000Z</time>
      </trkpt>
      <trkpt lat="45.90668" lon="4.57581">
        <ele>240.07162</ele>
        <time>2023-11-26T14:31:43.000Z</time>
      </trkpt>
      <trkpt lat="45.90667" lon="4.57587">
        <ele>239.972</ele>
        <time>2023-11-26T14:31:44.000Z</time>
      </trkpt>
      <trkpt lat="45.90665" lon="4.57593">
        <ele>239.89413</ele>
        <time>2023-11-26T14:31:45.000Z</time>
      </trkpt>
      <trkpt lat="45.90662" lon="4.57599">
        <ele>239.79898</ele>
        <time>2023-11-26T14:31:46.000Z</time>
      </trkpt>
      <trkpt lat="45.9066" lon="4.57604">
        <ele>239.73665</ele>
        <time>2023-11-26T14:31:47.000Z</time>
      </trkpt>
      <trkpt lat="45.90659" lon="4.5761">
        <ele>239.67085</ele>
        <time>2023-11-26T14:31:48.000Z</time>
      </trkpt>
      <trkpt lat="45.90658" lon="4.57616">
        <ele>239.597</ele>
        <time>2023-11-26T14:31:49.000Z</time>
      </trkpt>
      <trkpt lat="45.90657" lon="4.57622">
        <ele>239.52507</ele>
        <time>2023-11-26T14:31:50.000Z</time>
      </trkpt>
      <trkpt lat="45.90656" lon="4.57629">
        <ele>239.44714</ele>
        <time>2023-11-26T14:31:51.000Z</time>
      </trkpt>
      <trkpt lat="45.90655" lon="4.57635">
        <ele>239.34663</ele>
        <time>2023-11-26T14:31:52.000Z</time>
      </trkpt>
      <trkpt lat="45.90653" lon="4.57642">
        <ele>239.28511</ele>
        <time>2023-11-26T14:31:53.000Z</time>
      </trkpt>
      <trkpt lat="45.90652" lon="4.57647">
        <ele>239.25171</ele>
        <time>2023-11-26T14:31:54.000Z</time>
      </trkpt>
      <trkpt lat="45.9065" lon="4.57654">
        <ele>239.17667</ele>
        <time>2023-11-26T14:31:55.000Z</time>
      </trkpt>
      <trkpt lat="45.90649" lon="4.5766">
        <ele>239.15601</ele>
        <time>2023-11-26T14:31:56.000Z</time>
      </trkpt>
      <trkpt lat="45.90647" lon="4.57667">
        <ele>239.19003</ele>
        <time>2023-11-26T14:31:57.000Z</time>
      </trkpt>
      <trkpt lat="45.90647" lon="4.57673">
        <ele>239.18498</ele>
        <time>2023-11-26T14:31:58.000Z</time>
      </trkpt>
      <trkpt lat="45.90646" lon="4.57679">
        <ele>239.2395</ele>
        <time>2023-11-26T14:31:59.000Z</time>
      </trkpt>
      <trkpt lat="45.90644" lon="4.57686">
        <ele>239.29434</ele>
        <time>2023-11-26T14:32:00.000Z</time>
      </trkpt>
      <trkpt lat="45.90643" lon="4.57693">
        <ele>239.36279</ele>
        <time>2023-11-26T14:32:01.000Z</time>
      </trkpt>
      <trkpt lat="45.90641" lon="4.577">
        <ele>239.40654</ele>
        <time>2023-11-26T14:32:02.000Z</time>
      </trkpt>
      <trkpt lat="45.90641" lon="4.57706">
        <ele>239.49362</ele>
        <time>2023-11-26T14:32:03.000Z</time>
      </trkpt>
      <trkpt lat="45.90639" lon="4.57712">
        <ele>239.578</ele>
        <time>2023-11-26T14:32:04.000Z</time>
      </trkpt>
      <trkpt lat="45.90637" lon="4.57719">
        <ele>239.62175</ele>
        <time>2023-11-26T14:32:05.000Z</time>
      </trkpt>
      <trkpt lat="45.90636" lon="4.57724">
        <ele>239.73206</ele>
        <time>2023-11-26T14:32:06.000Z</time>
      </trkpt>
      <trkpt lat="45.90634" lon="4.5773">
        <ele>239.83859</ele>
        <time>2023-11-26T14:32:07.000Z</time>
      </trkpt>
      <trkpt lat="45.90632" lon="4.57736">
        <ele>239.9698</ele>
        <time>2023-11-26T14:32:08.000Z</time>
      </trkpt>
      <trkpt lat="45.90631" lon="4.57744">
        <ele>240.07735</ele>
        <time>2023-11-26T14:32:09.000Z</time>
      </trkpt>
      <trkpt lat="45.90632" lon="4.57751">
        <ele>240.17087</ele>
        <time>2023-11-26T14:32:10.000Z</time>
      </trkpt>
      <trkpt lat="45.90633" lon="4.57758">
        <ele>240.27385</ele>
        <time>2023-11-26T14:32:11.000Z</time>
      </trkpt>
      <trkpt lat="45.90632" lon="4.57765">
        <ele>240.38216</ele>
        <time>2023-11-26T14:32:12.000Z</time>
      </trkpt>
      <trkpt lat="45.90631" lon="4.57771">
        <ele>240.5002</ele>
        <time>2023-11-26T14:32:13.000Z</time>
      </trkpt>
      <trkpt lat="45.9063" lon="4.57778">
        <ele>240.59319</ele>
        <time>2023-11-26T14:32:14.000Z</time>
      </trkpt>
      <trkpt lat="45.90629" lon="4.57785">
        <ele>240.73079</ele>
        <time>2023-11-26T14:32:15.000Z</time>
      </trkpt>
      <trkpt lat="45.90627" lon="4.57792">
        <ele>240.82642</ele>
        <time>2023-11-26T14:32:16.000Z</time>
      </trkpt>
      <trkpt lat="45.90626" lon="4.57798">
        <ele>240.84607</ele>
        <time>2023-11-26T14:32:17.000Z</time>
      </trkpt>
      <trkpt lat="45.90625" lon="4.57804">
        <ele>240.88799</ele>
        <time>2023-11-26T14:32:18.000Z</time>
      </trkpt>
      <trkpt lat="45.90624" lon="4.57809">
        <ele>240.90703</ele>
        <time>2023-11-26T14:32:19.000Z</time>
      </trkpt>
      <trkpt lat="45.90622" lon="4.57814">
        <ele>240.92697</ele>
        <time>2023-11-26T14:32:20.000Z</time>
      </trkpt>
      <trkpt lat="45.9062" lon="4.57819">
        <ele>240.95369</ele>
        <time>2023-11-26T14:32:21.000Z</time>
      </trkpt>
      <trkpt lat="45.90617" lon="4.57824">
        <ele>241.04007</ele>
        <time>2023-11-26T14:32:22.000Z</time>
      </trkpt>
      <trkpt lat="45.90614" lon="4.57829">
        <ele>241.05222</ele>
        <time>2023-11-26T14:32:23.000Z</time>
      </trkpt>
      <trkpt lat="45.90611" lon="4.57834">
        <ele>241.04514</ele>
        <time>2023-11-26T14:32:24.000Z</time>
      </trkpt>
      <trkpt lat="45.90608" lon="4.57838">
        <ele>241.06522</ele>
        <time>2023-11-26T14:32:25.000Z</time>
      </trkpt>
      <trkpt lat="45.90604" lon="4.57843">
        <ele>241.07292</ele>
        <time>2023-11-26T14:32:26.000Z</time>
      </trkpt>
      <trkpt lat="45.90602" lon="4.57848">
        <ele>241.05908</ele>
        <time>2023-11-26T14:32:27.000Z</time>
      </trkpt>
      <trkpt lat="45.90598" lon="4.57853">
        <ele>241.01973</ele>
        <time>2023-11-26T14:32:28.000Z</time>
      </trkpt>
      <trkpt lat="45.90595" lon="4.57858">
        <ele>240.98528</ele>
        <time>2023-11-26T14:32:29.000Z</time>
      </trkpt>
      <trkpt lat="45.90592" lon="4.57863">
        <ele>240.97798</ele>
        <time>2023-11-26T14:32:30.000Z</time>
      </trkpt>
      <trkpt lat="45.90589" lon="4.57868">
        <ele>240.96689</ele>
        <time>2023-11-26T14:32:31.000Z</time>
      </trkpt>
      <trkpt lat="45.90586" lon="4.57873">
        <ele>240.97083</ele>
        <time>2023-11-26T14:32:32.000Z</time>
      </trkpt>
      <trkpt lat="45.90583" lon="4.57876">
        <ele>240.96313</ele>
        <time>2023-11-26T14:32:33.000Z</time>
      </trkpt>
      <trkpt lat="45.90579" lon="4.57882">
        <ele>240.97652</ele>
        <time>2023-11-26T14:32:34.000Z</time>
      </trkpt>
      <trkpt lat="45.90575" lon="4.57885">
        <ele>240.96123</ele>
        <time>2023-11-26T14:32:35.000Z</time>
      </trkpt>
      <trkpt lat="45.90573" lon="4.57888">
        <ele>240.90842</ele>
        <time>2023-11-26T14:32:36.000Z</time>
      </trkpt>
      <trkpt lat="45.90569" lon="4.57892">
        <ele>240.83347</ele>
        <time>2023-11-26T14:32:37.000Z</time>
      </trkpt>
      <trkpt lat="45.90565" lon="4.57898">
        <ele>240.74326</ele>
        <time>2023-11-26T14:32:38.000Z</time>
      </trkpt>
      <trkpt lat="45.90561" lon="4.57904">
        <ele>240.604</ele>
        <time>2023-11-26T14:32:39.000Z</time>
      </trkpt>
      <trkpt lat="45.90556" lon="4.5791">
        <ele>240.50586</ele>
        <time>2023-11-26T14:32:40.000Z</time>
      </trkpt>
      <trkpt lat="45.90551" lon="4.57916">
        <ele>240.40823</ele>
        <time>2023-11-26T14:32:41.000Z</time>
      </trkpt>
      <trkpt lat="45.90546" lon="4.5792">
        <ele>240.27913</ele>
        <time>2023-11-26T14:32:42.000Z</time>
      </trkpt>
      <trkpt lat="45.90542" lon="4.57925">
        <ele>240.20064</ele>
        <time>2023-11-26T14:32:43.000Z</time>
      </trkpt>
      <trkpt lat="45.90538" lon="4.57931">
        <ele>240.18143</ele>
        <time>2023-11-26T14:32:44.000Z</time>
      </trkpt>
      <trkpt lat="45.90533" lon="4.57936">
        <ele>240.12747</ele>
        <time>2023-11-26T14:32:45.000Z</time>
      </trkpt>
      <trkpt lat="45.90528" lon="4.57941">
        <ele>240.04179</ele>
        <time>2023-11-26T14:32:46.000Z</time>
      </trkpt>
      <trkpt lat="45.90523" lon="4.57946">
        <ele>239.98093</ele>
        <time>2023-11-26T14:32:47.000Z</time>
      </trkpt>
      <trkpt lat="45.90518" lon="4.57951">
        <ele>239.96912</ele>
        <time>2023-11-26T14:32:48.000Z</time>
      </trkpt>
      <trkpt lat="45.90512" lon="4.57956">
        <ele>239.96448</ele>
        <time>2023-11-26T14:32:49.000Z</time>
      </trkpt>
      <trkpt lat="45.90508" lon="4.57962">
        <ele>239.93454</ele>
        <time>2023-11-26T14:32:50.000Z</time>
      </trkpt>
      <trkpt lat="45.90503" lon="4.57967">
        <ele>239.92929</ele>
        <time>2023-11-26T14:32:51.000Z</time>
      </trkpt>
      <trkpt lat="45.90498" lon="4.57973">
        <ele>239.87097</ele>
        <time>2023-11-26T14:32:52.000Z</time>
      </trkpt>
      <trkpt lat="45.90492" lon="4.57978">
        <ele>239.8344</ele>
        <time>2023-11-26T14:32:53.000Z</time>
      </trkpt>
      <trkpt lat="45.90487" lon="4.57982">
        <ele>239.80069</ele>
        <time>2023-11-26T14:32:54.000Z</time>
      </trkpt>
      <trkpt lat="45.90483" lon="4.57986">
        <ele>239.78218</ele>
        <time>2023-11-26T14:32:55.000Z</time>
      </trkpt>
      <trkpt lat="45.90478" lon="4.57991">
        <ele>239.83549</ele>
        <time>2023-11-26T14:32:56.000Z</time>
      </trkpt>
      <trkpt lat="45.90473" lon="4.57997">
        <ele>239.95108</ele>
        <time>2023-11-26T14:32:57.000Z</time>
      </trkpt>
      <trkpt lat="45.90468" lon="4.58003">
        <ele>240.0732</ele>
        <time>2023-11-26T14:32:58.000Z</time>
      </trkpt>
      <trkpt lat="45.90463" lon="4.58008">
        <ele>240.22575</ele>
        <time>2023-11-26T14:32:59.000Z</time>
      </trkpt>
      <trkpt lat="45.90457" lon="4.58013">
        <ele>240.34451</ele>
        <time>2023-11-26T14:33:00.000Z</time>
      </trkpt>
      <trkpt lat="45.90453" lon="4.58017">
        <ele>240.42404</ele>
        <time>2023-11-26T14:33:01.000Z</time>
      </trkpt>
      <trkpt lat="45.90449" lon="4.58023">
        <ele>240.49637</ele>
        <time>2023-11-26T14:33:02.000Z</time>
      </trkpt>
      <trkpt lat="45.90444" lon="4.58027">
        <ele>240.58926</ele>
        <time>2023-11-26T14:33:03.000Z</time>
      </trkpt>
      <trkpt lat="45.90439" lon="4.58033">
        <ele>240.61777</ele>
        <time>2023-11-26T14:33:04.000Z</time>
      </trkpt>
      <trkpt lat="45.90434" lon="4.58038">
        <ele>240.73434</ele>
        <time>2023-11-26T14:33:05.000Z</time>
      </trkpt>
      <trkpt lat="45.90428" lon="4.58045">
        <ele>240.82942</ele>
        <time>2023-11-26T14:33:06.000Z</time>
      </trkpt>
      <trkpt lat="45.90423" lon="4.58052">
        <ele>240.88277</ele>
        <time>2023-11-26T14:33:07.000Z</time>
      </trkpt>
      <trkpt lat="45.90417" lon="4.5806">
        <ele>240.88904</ele>
        <time>2023-11-26T14:33:08.000Z</time>
      </trkpt>
      <trkpt lat="45.90412" lon="4.58065">
        <ele>240.92917</ele>
        <time>2023-11-26T14:33:09.000Z</time>
      </trkpt>
      <trkpt lat="45.90408" lon="4.58071">
        <ele>240.98149</ele>
        <time>2023-11-26T14:33:10.000Z</time>
      </trkpt>
      <trkpt lat="45.90403" lon="4.58076">
        <ele>241.04414</ele>
        <time>2023-11-26T14:33:11.000Z</time>
      </trkpt>
      <trkpt lat="45.90398" lon="4.58082">
        <ele>241.16125</ele>
        <time>2023-11-26T14:33:12.000Z</time>
      </trkpt>
      <trkpt lat="45.90393" lon="4.58087">
        <ele>241.22412</ele>
        <time>2023-11-26T14:33:13.000Z</time>
      </trkpt>
      <trkpt lat="45.90388" lon="4.58093">
        <ele>241.27409</ele>
        <time>2023-11-26T14:33:14.000Z</time>
      </trkpt>
      <trkpt lat="45.90383" lon="4.58097">
        <ele>241.31485</ele>
        <time>2023-11-26T14:33:15.000Z</time>
      </trkpt>
      <trkpt lat="45.90378" lon="4.58102">
        <ele>241.34097</ele>
        <time>2023-11-26T14:33:16.000Z</time>
      </trkpt>
      <trkpt lat="45.90374" lon="4.58108">
        <ele>241.34636</ele>
        <time>2023-11-26T14:33:17.000Z</time>
      </trkpt>
      <trkpt lat="45.90369" lon="4.58113">
        <ele>241.3591</ele>
        <time>2023-11-26T14:33:18.000Z</time>
      </trkpt>
      <trkpt lat="45.90363" lon="4.58119">
        <ele>241.35153</ele>
        <time>2023-11-26T14:33:19.000Z</time>
      </trkpt>
      <trkpt lat="45.90359" lon="4.58123">
        <ele>241.3344</ele>
        <time>2023-11-26T14:33:20.000Z</time>
      </trkpt>
      <trkpt lat="45.90355" lon="4.58129">
        <ele>241.36853</ele>
        <time>2023-11-26T14:33:21.000Z</time>
      </trkpt>
      <trkpt lat="45.90351" lon="4.58134">
        <ele>241.42203</ele>
        <time>2023-11-26T14:33:22.000Z</time>
      </trkpt>
      <trkpt lat="45.90348" lon="4.58138">
        <ele>241.47971</ele>
        <time>2023-11-26T14:33:23.000Z</time>
      </trkpt>
      <trkpt lat="45.90345" lon="4.58142">
        <ele>241.54587</ele>
        <time>2023-11-26T14:33:24.000Z</time>
      </trkpt>
      <trkpt lat="45.90342" lon="4.58147">
        <ele>241.56284</ele>
        <time>2023-11-26T14:33:25.000Z</time>
      </trkpt>
      <trkpt lat="45.90339" lon="4.58151">
        <ele>241.59811</ele>
        <time>2023-11-26T14:33:26.000Z</time>
      </trkpt>
      <trkpt lat="45.90338" lon="4.58154">
        <ele>241.65022</ele>
        <time>2023-11-26T14:33:27.000Z</time>
      </trkpt>
      <trkpt lat="45.90337" lon="4.58157">
        <ele>241.71114</ele>
        <time>2023-11-26T14:33:28.000Z</time>
      </trkpt>
      <trkpt lat="45.90334" lon="4.5816">
        <ele>241.72766</ele>
        <time>2023-11-26T14:33:43.000Z</time>
      </trkpt>
      <trkpt lat="45.90332" lon="4.58163">
        <ele>241.73955</ele>
        <time>2023-11-26T14:33:44.000Z</time>
      </trkpt>
      <trkpt lat="45.9033" lon="4.58166">
        <ele>241.77861</ele>
        <time>2023-11-26T14:33:45.000Z</time>
      </trkpt>
      <trkpt lat="45.90328" lon="4.58171">
        <ele>241.82385</ele>
        <time>2023-11-26T14:33:46.000Z</time>
      </trkpt>
      <trkpt lat="45.90326" lon="4.58175">
        <ele>241.88974</ele>
        <time>2023-11-26T14:33:47.000Z</time>
      </trkpt>
      <trkpt lat="45.90323" lon="4.5818">
        <ele>241.92339</ele>
        <time>2023-11-26T14:33:48.000Z</time>
      </trkpt>
      <trkpt lat="45.9032" lon="4.58188">
        <ele>241.98064</ele>
        <time>2023-11-26T14:33:49.000Z</time>
      </trkpt>
      <trkpt lat="45.90317" lon="4.58193">
        <ele>242.04057</ele>
        <time>2023-11-26T14:33:50.000Z</time>
      </trkpt>
      <trkpt lat="45.90313" lon="4.58198">
        <ele>242.09647</ele>
        <time>2023-11-26T14:33:51.000Z</time>
      </trkpt>
      <trkpt lat="45.90309" lon="4.58204">
        <ele>242.1772</ele>
        <time>2023-11-26T14:33:52.000Z</time>
      </trkpt>
      <trkpt lat="45.90306" lon="4.58211">
        <ele>242.27341</ele>
        <time>2023-11-26T14:33:53.000Z</time>
      </trkpt>
      <trkpt lat="45.90302" lon="4.58217">
        <ele>242.38062</ele>
        <time>2023-11-26T14:33:54.000Z</time>
      </trkpt>
      <trkpt lat="45.90298" lon="4.58224">
        <ele>242.46614</ele>
        <time>2023-11-26T14:33:55.000Z</time>
      </trkpt>
      <trkpt lat="45.90294" lon="4.5823">
        <ele>242.52585</ele>
        <time>2023-11-26T14:33:56.000Z</time>
      </trkpt>
      <trkpt lat="45.9029" lon="4.58237">
        <ele>242.5209</ele>
        <time>2023-11-26T14:33:57.000Z</time>
      </trkpt>
      <trkpt lat="45.90286" lon="4.58243">
        <ele>242.54126</ele>
        <time>2023-11-26T14:33:58.000Z</time>
      </trkpt>
      <trkpt lat="45.90282" lon="4.5825">
        <ele>242.54073</ele>
        <time>2023-11-26T14:33:59.000Z</time>
      </trkpt>
      <trkpt lat="45.90278" lon="4.58257">
        <ele>242.5175</ele>
        <time>2023-11-26T14:34:00.000Z</time>
      </trkpt>
      <trkpt lat="45.90273" lon="4.58264">
        <ele>242.52109</ele>
        <time>2023-11-26T14:34:01.000Z</time>
      </trkpt>
      <trkpt lat="45.90269" lon="4.5827">
        <ele>242.60616</ele>
        <time>2023-11-26T14:34:02.000Z</time>
      </trkpt>
      <trkpt lat="45.90264" lon="4.58279">
        <ele>242.65166</ele>
        <time>2023-11-26T14:34:03.000Z</time>
      </trkpt>
      <trkpt lat="45.90259" lon="4.58285">
        <ele>242.68811</ele>
        <time>2023-11-26T14:34:04.000Z</time>
      </trkpt>
      <trkpt lat="45.90257" lon="4.58292">
        <ele>242.65942</ele>
        <time>2023-11-26T14:34:05.000Z</time>
      </trkpt>
      <trkpt lat="45.90253" lon="4.58299">
        <ele>242.64343</ele>
        <time>2023-11-26T14:34:06.000Z</time>
      </trkpt>
      <trkpt lat="45.90249" lon="4.58306">
        <ele>242.64584</ele>
        <time>2023-11-26T14:34:07.000Z</time>
      </trkpt>
      <trkpt lat="45.90245" lon="4.58312">
        <ele>242.6853</ele>
        <time>2023-11-26T14:34:08.000Z</time>
      </trkpt>
      <trkpt lat="45.90241" lon="4.58319">
        <ele>242.72827</ele>
        <time>2023-11-26T14:34:09.000Z</time>
      </trkpt>
      <trkpt lat="45.90237" lon="4.58325">
        <ele>242.74861</ele>
        <time>2023-11-26T14:34:10.000Z</time>
      </trkpt>
      <trkpt lat="45.90233" lon="4.58333">
        <ele>242.73245</ele>
        <time>2023-11-26T14:34:11.000Z</time>
      </trkpt>
      <trkpt lat="45.90228" lon="4.58341">
        <ele>242.6691</ele>
        <time>2023-11-26T14:34:12.000Z</time>
      </trkpt>
      <trkpt lat="45.90224" lon="4.58346">
        <ele>242.63467</ele>
        <time>2023-11-26T14:34:13.000Z</time>
      </trkpt>
      <trkpt lat="45.9022" lon="4.58353">
        <ele>242.58122</ele>
        <time>2023-11-26T14:34:14.000Z</time>
      </trkpt>
      <trkpt lat="45.90217" lon="4.58361">
        <ele>242.54605</ele>
        <time>2023-11-26T14:34:15.000Z</time>
      </trkpt>
      <trkpt lat="45.90213" lon="4.58368">
        <ele>242.51608</ele>
        <time>2023-11-26T14:34:16.000Z</time>
      </trkpt>
      <trkpt lat="45.90209" lon="4.58375">
        <ele>242.48125</ele>
        <time>2023-11-26T14:34:17.000Z</time>
      </trkpt>
      <trkpt lat="45.90205" lon="4.5838">
        <ele>242.43445</ele>
        <time>2023-11-26T14:34:18.000Z</time>
      </trkpt>
      <trkpt lat="45.90201" lon="4.58387">
        <ele>242.42989</ele>
        <time>2023-11-26T14:34:19.000Z</time>
      </trkpt>
      <trkpt lat="45.90196" lon="4.58394">
        <ele>242.45027</ele>
        <time>2023-11-26T14:34:20.000Z</time>
      </trkpt>
      <trkpt lat="45.90192" lon="4.58401">
        <ele>242.45854</ele>
        <time>2023-11-26T14:34:21.000Z</time>
      </trkpt>
      <trkpt lat="45.90187" lon="4.58407">
        <ele>242.40434</ele>
        <time>2023-11-26T14:34:22.000Z</time>
      </trkpt>
      <trkpt lat="45.90184" lon="4.58414">
        <ele>242.42001</ele>
        <time>2023-11-26T14:34:23.000Z</time>
      </trkpt>
      <trkpt lat="45.90179" lon="4.58421">
        <ele>242.41568</ele>
        <time>2023-11-26T14:34:24.000Z</time>
      </trkpt>
      <trkpt lat="45.90175" lon="4.58427">
        <ele>242.4418</ele>
        <time>2023-11-26T14:34:25.000Z</time>
      </trkpt>
      <trkpt lat="45.90171" lon="4.58434">
        <ele>242.44231</ele>
        <time>2023-11-26T14:34:26.000Z</time>
      </trkpt>
      <trkpt lat="45.90167" lon="4.58441">
        <ele>242.43192</ele>
        <time>2023-11-26T14:34:27.000Z</time>
      </trkpt>
      <trkpt lat="45.90163" lon="4.58448">
        <ele>242.42599</ele>
        <time>2023-11-26T14:34:28.000Z</time>
      </trkpt>
      <trkpt lat="45.90158" lon="4.58455">
        <ele>242.41194</ele>
        <time>2023-11-26T14:34:29.000Z</time>
      </trkpt>
      <trkpt lat="45.90154" lon="4.58463">
        <ele>242.37814</ele>
        <time>2023-11-26T14:34:30.000Z</time>
      </trkpt>
      <trkpt lat="45.9015" lon="4.58471">
        <ele>242.36667</ele>
        <time>2023-11-26T14:34:31.000Z</time>
      </trkpt>
      <trkpt lat="45.90146" lon="4.58478">
        <ele>242.40987</ele>
        <time>2023-11-26T14:34:32.000Z</time>
      </trkpt>
      <trkpt lat="45.90141" lon="4.58484">
        <ele>242.43359</ele>
        <time>2023-11-26T14:34:33.000Z</time>
      </trkpt>
      <trkpt lat="45.90137" lon="4.5849">
        <ele>242.46167</ele>
        <time>2023-11-26T14:34:34.000Z</time>
      </trkpt>
      <trkpt lat="45.90133" lon="4.58498">
        <ele>242.48347</ele>
        <time>2023-11-26T14:34:35.000Z</time>
      </trkpt>
      <trkpt lat="45.90128" lon="4.58505">
        <ele>242.51009</ele>
        <time>2023-11-26T14:34:36.000Z</time>
      </trkpt>
      <trkpt lat="45.90124" lon="4.58512">
        <ele>242.55656</ele>
        <time>2023-11-26T14:34:37.000Z</time>
      </trkpt>
      <trkpt lat="45.9012" lon="4.58519">
        <ele>242.60547</ele>
        <time>2023-11-26T14:34:38.000Z</time>
      </trkpt>
      <trkpt lat="45.90116" lon="4.58525">
        <ele>242.62891</ele>
        <time>2023-11-26T14:34:39.000Z</time>
      </trkpt>
      <trkpt lat="45.90112" lon="4.58532">
        <ele>242.60701</ele>
        <time>2023-11-26T14:34:40.000Z</time>
      </trkpt>
      <trkpt lat="45.90108" lon="4.58539">
        <ele>242.56955</ele>
        <time>2023-11-26T14:34:41.000Z</time>
      </trkpt>
      <trkpt lat="45.90104" lon="4.58546">
        <ele>242.50284</ele>
        <time>2023-11-26T14:34:42.000Z</time>
      </trkpt>
      <trkpt lat="45.901" lon="4.58553">
        <ele>242.43169</ele>
        <time>2023-11-26T14:34:43.000Z</time>
      </trkpt>
      <trkpt lat="45.90096" lon="4.58561">
        <ele>242.36929</ele>
        <time>2023-11-26T14:34:44.000Z</time>
      </trkpt>
      <trkpt lat="45.90091" lon="4.58567">
        <ele>242.29048</ele>
        <time>2023-11-26T14:34:45.000Z</time>
      </trkpt>
      <trkpt lat="45.90087" lon="4.58574">
        <ele>242.20442</ele>
        <time>2023-11-26T14:34:46.000Z</time>
      </trkpt>
      <trkpt lat="45.90083" lon="4.5858">
        <ele>242.12959</ele>
        <time>2023-11-26T14:34:47.000Z</time>
      </trkpt>
      <trkpt lat="45.90079" lon="4.58586">
        <ele>242.0535</ele>
        <time>2023-11-26T14:34:48.000Z</time>
      </trkpt>
      <trkpt lat="45.90075" lon="4.58594">
        <ele>241.9537</ele>
        <time>2023-11-26T14:34:49.000Z</time>
      </trkpt>
      <trkpt lat="45.9007" lon="4.586">
        <ele>241.87646</ele>
        <time>2023-11-26T14:34:50.000Z</time>
      </trkpt>
      <trkpt lat="45.90066" lon="4.58607">
        <ele>241.81091</ele>
        <time>2023-11-26T14:34:51.000Z</time>
      </trkpt>
      <trkpt lat="45.90063" lon="4.58614">
        <ele>241.71684</ele>
        <time>2023-11-26T14:34:52.000Z</time>
      </trkpt>
      <trkpt lat="45.90059" lon="4.58621">
        <ele>241.61612</ele>
        <time>2023-11-26T14:34:53.000Z</time>
      </trkpt>
      <trkpt lat="45.90056" lon="4.58627">
        <ele>241.5322</ele>
        <time>2023-11-26T14:34:54.000Z</time>
      </trkpt>
      <trkpt lat="45.90051" lon="4.58633">
        <ele>241.4371</ele>
        <time>2023-11-26T14:34:55.000Z</time>
      </trkpt>
      <trkpt lat="45.90047" lon="4.5864">
        <ele>241.32556</ele>
        <time>2023-11-26T14:34:56.000Z</time>
      </trkpt>
      <trkpt lat="45.90043" lon="4.58646">
        <ele>241.21741</ele>
        <time>2023-11-26T14:34:57.000Z</time>
      </trkpt>
      <trkpt lat="45.90039" lon="4.58653">
        <ele>241.13066</ele>
        <time>2023-11-26T14:34:58.000Z</time>
      </trkpt>
      <trkpt lat="45.90034" lon="4.5866">
        <ele>241.03166</ele>
        <time>2023-11-26T14:34:59.000Z</time>
      </trkpt>
      <trkpt lat="45.9003" lon="4.58667">
        <ele>240.95467</ele>
        <time>2023-11-26T14:35:00.000Z</time>
      </trkpt>
      <trkpt lat="45.90026" lon="4.58673">
        <ele>240.88469</ele>
        <time>2023-11-26T14:35:01.000Z</time>
      </trkpt>
      <trkpt lat="45.90022" lon="4.5868">
        <ele>240.8206</ele>
        <time>2023-11-26T14:35:02.000Z</time>
      </trkpt>
      <trkpt lat="45.90018" lon="4.58686">
        <ele>240.75191</ele>
        <time>2023-11-26T14:35:03.000Z</time>
      </trkpt>
      <trkpt lat="45.90014" lon="4.58691">
        <ele>240.69585</ele>
        <time>2023-11-26T14:35:04.000Z</time>
      </trkpt>
      <trkpt lat="45.9001" lon="4.58698">
        <ele>240.65459</ele>
        <time>2023-11-26T14:35:05.000Z</time>
      </trkpt>
      <trkpt lat="45.90006" lon="4.58704">
        <ele>240.61971</ele>
        <time>2023-11-26T14:35:06.000Z</time>
      </trkpt>
      <trkpt lat="45.90001" lon="4.58708">
        <ele>240.5706</ele>
        <time>2023-11-26T14:35:07.000Z</time>
      </trkpt>
      <trkpt lat="45.89997" lon="4.58715">
        <ele>240.50639</ele>
        <time>2023-11-26T14:35:08.000Z</time>
      </trkpt>
      <trkpt lat="45.89992" lon="4.58721">
        <ele>240.44754</ele>
        <time>2023-11-26T14:35:09.000Z</time>
      </trkpt>
      <trkpt lat="45.89989" lon="4.58727">
        <ele>240.42244</ele>
        <time>2023-11-26T14:35:10.000Z</time>
      </trkpt>
      <trkpt lat="45.89985" lon="4.58734">
        <ele>240.36938</ele>
        <time>2023-11-26T14:35:11.000Z</time>
      </trkpt>
      <trkpt lat="45.89981" lon="4.5874">
        <ele>240.32254</ele>
        <time>2023-11-26T14:35:12.000Z</time>
      </trkpt>
      <trkpt lat="45.89975" lon="4.58745">
        <ele>240.24158</ele>
        <time>2023-11-26T14:35:13.000Z</time>
      </trkpt>
      <trkpt lat="45.8997" lon="4.58751">
        <ele>240.14763</ele>
        <time>2023-11-26T14:35:14.000Z</time>
      </trkpt>
      <trkpt lat="45.89965" lon="4.58757">
        <ele>240.05376</ele>
        <time>2023-11-26T14:35:15.000Z</time>
      </trkpt>
      <trkpt lat="45.8996" lon="4.58762">
        <ele>239.96848</ele>
        <time>2023-11-26T14:35:16.000Z</time>
      </trkpt>
      <trkpt lat="45.89956" lon="4.58768">
        <ele>239.90329</ele>
        <time>2023-11-26T14:35:17.000Z</time>
      </trkpt>
      <trkpt lat="45.89951" lon="4.58773">
        <ele>239.83179</ele>
        <time>2023-11-26T14:35:18.000Z</time>
      </trkpt>
      <trkpt lat="45.89946" lon="4.58778">
        <ele>239.79216</ele>
        <time>2023-11-26T14:35:19.000Z</time>
      </trkpt>
      <trkpt lat="45.89941" lon="4.58784">
        <ele>239.75728</ele>
        <time>2023-11-26T14:35:20.000Z</time>
      </trkpt>
      <trkpt lat="45.89935" lon="4.58788">
        <ele>239.71358</ele>
        <time>2023-11-26T14:35:21.000Z</time>
      </trkpt>
      <trkpt lat="45.8993" lon="4.58792">
        <ele>239.67693</ele>
        <time>2023-11-26T14:35:22.000Z</time>
      </trkpt>
      <trkpt lat="45.89924" lon="4.58798">
        <ele>239.62312</ele>
        <time>2023-11-26T14:35:23.000Z</time>
      </trkpt>
      <trkpt lat="45.89919" lon="4.58803">
        <ele>239.57256</ele>
        <time>2023-11-26T14:35:24.000Z</time>
      </trkpt>
      <trkpt lat="45.89913" lon="4.58807">
        <ele>239.50232</ele>
        <time>2023-11-26T14:35:25.000Z</time>
      </trkpt>
      <trkpt lat="45.89908" lon="4.58813">
        <ele>239.42915</ele>
        <time>2023-11-26T14:35:26.000Z</time>
      </trkpt>
      <trkpt lat="45.89902" lon="4.58817">
        <ele>239.3855</ele>
        <time>2023-11-26T14:35:27.000Z</time>
      </trkpt>
      <trkpt lat="45.89897" lon="4.58821">
        <ele>239.35083</ele>
        <time>2023-11-26T14:35:28.000Z</time>
      </trkpt>
      <trkpt lat="45.89891" lon="4.58825">
        <ele>239.34077</ele>
        <time>2023-11-26T14:35:29.000Z</time>
      </trkpt>
      <trkpt lat="45.89885" lon="4.58831">
        <ele>239.29985</ele>
        <time>2023-11-26T14:35:30.000Z</time>
      </trkpt>
      <trkpt lat="45.89879" lon="4.58835">
        <ele>239.31546</ele>
        <time>2023-11-26T14:35:31.000Z</time>
      </trkpt>
      <trkpt lat="45.89873" lon="4.5884">
        <ele>239.28906</ele>
        <time>2023-11-26T14:35:32.000Z</time>
      </trkpt>
      <trkpt lat="45.89867" lon="4.58844">
        <ele>239.28491</ele>
        <time>2023-11-26T14:35:33.000Z</time>
      </trkpt>
      <trkpt lat="45.89862" lon="4.58848">
        <ele>239.25998</ele>
        <time>2023-11-26T14:35:34.000Z</time>
      </trkpt>
      <trkpt lat="45.89858" lon="4.58852">
        <ele>239.21579</ele>
        <time>2023-11-26T14:35:35.000Z</time>
      </trkpt>
      <trkpt lat="45.89852" lon="4.58857">
        <ele>239.17386</ele>
        <time>2023-11-26T14:35:36.000Z</time>
      </trkpt>
      <trkpt lat="45.89847" lon="4.58862">
        <ele>239.14279</ele>
        <time>2023-11-26T14:35:37.000Z</time>
      </trkpt>
      <trkpt lat="45.89841" lon="4.58866">
        <ele>239.06746</ele>
        <time>2023-11-26T14:35:38.000Z</time>
      </trkpt>
      <trkpt lat="45.89835" lon="4.5887">
        <ele>239.00676</ele>
        <time>2023-11-26T14:35:39.000Z</time>
      </trkpt>
      <trkpt lat="45.89829" lon="4.58875">
        <ele>238.92944</ele>
        <time>2023-11-26T14:35:40.000Z</time>
      </trkpt>
      <trkpt lat="45.89824" lon="4.5888">
        <ele>238.84195</ele>
        <time>2023-11-26T14:35:41.000Z</time>
      </trkpt>
      <trkpt lat="45.89818" lon="4.58886">
        <ele>238.73918</ele>
        <time>2023-11-26T14:35:42.000Z</time>
      </trkpt>
      <trkpt lat="45.89812" lon="4.58891">
        <ele>238.64108</ele>
        <time>2023-11-26T14:35:43.000Z</time>
      </trkpt>
      <trkpt lat="45.89806" lon="4.58895">
        <ele>238.53125</ele>
        <time>2023-11-26T14:35:44.000Z</time>
      </trkpt>
      <trkpt lat="45.89801" lon="4.58902">
        <ele>238.42798</ele>
        <time>2023-11-26T14:35:45.000Z</time>
      </trkpt>
      <trkpt lat="45.89796" lon="4.58908">
        <ele>238.30118</ele>
        <time>2023-11-26T14:35:46.000Z</time>
      </trkpt>
      <trkpt lat="45.89791" lon="4.58914">
        <ele>238.14111</ele>
        <time>2023-11-26T14:35:47.000Z</time>
      </trkpt>
      <trkpt lat="45.89787" lon="4.58919">
        <ele>237.97263</ele>
        <time>2023-11-26T14:35:48.000Z</time>
      </trkpt>
      <trkpt lat="45.89781" lon="4.58923">
        <ele>237.7198</ele>
        <time>2023-11-26T14:35:49.000Z</time>
      </trkpt>
      <trkpt lat="45.89776" lon="4.5893">
        <ele>237.47253</ele>
        <time>2023-11-26T14:35:50.000Z</time>
      </trkpt>
      <trkpt lat="45.89772" lon="4.58937">
        <ele>237.20325</ele>
        <time>2023-11-26T14:35:51.000Z</time>
      </trkpt>
      <trkpt lat="45.89768" lon="4.58944">
        <ele>236.95303</ele>
        <time>2023-11-26T14:35:52.000Z</time>
      </trkpt>
      <trkpt lat="45.89764" lon="4.58951">
        <ele>236.74873</ele>
        <time>2023-11-26T14:35:53.000Z</time>
      </trkpt>
      <trkpt lat="45.8976" lon="4.58959">
        <ele>236.53836</ele>
        <time>2023-11-26T14:35:54.000Z</time>
      </trkpt>
      <trkpt lat="45.89756" lon="4.58967">
        <ele>236.38205</ele>
        <time>2023-11-26T14:35:55.000Z</time>
      </trkpt>
      <trkpt lat="45.89752" lon="4.58975">
        <ele>236.21663</ele>
        <time>2023-11-26T14:35:56.000Z</time>
      </trkpt>
      <trkpt lat="45.89748" lon="4.58981">
        <ele>236.03474</ele>
        <time>2023-11-26T14:35:57.000Z</time>
      </trkpt>
      <trkpt lat="45.89744" lon="4.58988">
        <ele>235.89839</ele>
        <time>2023-11-26T14:35:58.000Z</time>
      </trkpt>
      <trkpt lat="45.89739" lon="4.58995">
        <ele>235.75044</ele>
        <time>2023-11-26T14:35:59.000Z</time>
      </trkpt>
      <trkpt lat="45.89736" lon="4.59003">
        <ele>235.57491</ele>
        <time>2023-11-26T14:36:00.000Z</time>
      </trkpt>
      <trkpt lat="45.89732" lon="4.5901">
        <ele>235.43571</ele>
        <time>2023-11-26T14:36:01.000Z</time>
      </trkpt>
      <trkpt lat="45.89728" lon="4.59018">
        <ele>235.31767</ele>
        <time>2023-11-26T14:36:02.000Z</time>
      </trkpt>
      <trkpt lat="45.89725" lon="4.59024">
        <ele>235.17729</ele>
        <time>2023-11-26T14:36:03.000Z</time>
      </trkpt>
      <trkpt lat="45.8972" lon="4.5903">
        <ele>235.00485</ele>
        <time>2023-11-26T14:36:04.000Z</time>
      </trkpt>
      <trkpt lat="45.89717" lon="4.59037">
        <ele>234.84891</ele>
        <time>2023-11-26T14:36:05.000Z</time>
      </trkpt>
      <trkpt lat="45.89712" lon="4.59044">
        <ele>234.76328</ele>
        <time>2023-11-26T14:36:06.000Z</time>
      </trkpt>
      <trkpt lat="45.89707" lon="4.59052">
        <ele>234.63834</ele>
        <time>2023-11-26T14:36:07.000Z</time>
      </trkpt>
      <trkpt lat="45.89704" lon="4.59059">
        <ele>234.53706</ele>
        <time>2023-11-26T14:36:08.000Z</time>
      </trkpt>
      <trkpt lat="45.897" lon="4.59066">
        <ele>234.50488</ele>
        <time>2023-11-26T14:36:09.000Z</time>
      </trkpt>
      <trkpt lat="45.89696" lon="4.59071">
        <ele>234.46899</ele>
        <time>2023-11-26T14:36:10.000Z</time>
      </trkpt>
      <trkpt lat="45.89692" lon="4.59078">
        <ele>234.45267</ele>
        <time>2023-11-26T14:36:11.000Z</time>
      </trkpt>
      <trkpt lat="45.89688" lon="4.59084">
        <ele>234.45914</ele>
        <time>2023-11-26T14:36:12.000Z</time>
      </trkpt>
      <trkpt lat="45.89684" lon="4.59091">
        <ele>234.43558</ele>
        <time>2023-11-26T14:36:13.000Z</time>
      </trkpt>
      <trkpt lat="45.8968" lon="4.59097">
        <ele>234.47224</ele>
        <time>2023-11-26T14:36:14.000Z</time>
      </trkpt>
      <trkpt lat="45.89676" lon="4.59103">
        <ele>234.4998</ele>
        <time>2023-11-26T14:36:15.000Z</time>
      </trkpt>
      <trkpt lat="45.89672" lon="4.59109">
        <ele>234.53181</ele>
        <time>2023-11-26T14:36:16.000Z</time>
      </trkpt>
      <trkpt lat="45.89669" lon="4.59116">
        <ele>234.56209</ele>
        <time>2023-11-26T14:36:17.000Z</time>
      </trkpt>
      <trkpt lat="45.89665" lon="4.59122">
        <ele>234.55722</ele>
        <time>2023-11-26T14:36:18.000Z</time>
      </trkpt>
      <trkpt lat="45.89661" lon="4.59129">
        <ele>234.55489</ele>
        <time>2023-11-26T14:36:19.000Z</time>
      </trkpt>
      <trkpt lat="45.89656" lon="4.59136">
        <ele>234.61153</ele>
        <time>2023-11-26T14:36:20.000Z</time>
      </trkpt>
      <trkpt lat="45.89653" lon="4.59144">
        <ele>234.65298</ele>
        <time>2023-11-26T14:36:21.000Z</time>
      </trkpt>
      <trkpt lat="45.8965" lon="4.59151">
        <ele>234.68149</ele>
        <time>2023-11-26T14:36:22.000Z</time>
      </trkpt>
      <trkpt lat="45.89647" lon="4.59158">
        <ele>234.77072</ele>
        <time>2023-11-26T14:36:23.000Z</time>
      </trkpt>
      <trkpt lat="45.89646" lon="4.59166">
        <ele>234.88203</ele>
        <time>2023-11-26T14:36:24.000Z</time>
      </trkpt>
      <trkpt lat="45.89644" lon="4.59175">
        <ele>234.99939</ele>
        <time>2023-11-26T14:36:25.000Z</time>
      </trkpt>
      <trkpt lat="45.89642" lon="4.59183">
        <ele>235.07915</ele>
        <time>2023-11-26T14:36:26.000Z</time>
      </trkpt>
      <trkpt lat="45.89639" lon="4.59192">
        <ele>235.13908</ele>
        <time>2023-11-26T14:36:27.000Z</time>
      </trkpt>
      <trkpt lat="45.89637" lon="4.592">
        <ele>235.21524</ele>
        <time>2023-11-26T14:36:28.000Z</time>
      </trkpt>
      <trkpt lat="45.89635" lon="4.59208">
        <ele>235.30765</ele>
        <time>2023-11-26T14:36:29.000Z</time>
      </trkpt>
      <trkpt lat="45.89633" lon="4.59217">
        <ele>235.3949</ele>
        <time>2023-11-26T14:36:30.000Z</time>
      </trkpt>
      <trkpt lat="45.89632" lon="4.59225">
        <ele>235.4585</ele>
        <time>2023-11-26T14:36:31.000Z</time>
      </trkpt>
      <trkpt lat="45.8963" lon="4.59233">
        <ele>235.54846</ele>
        <time>2023-11-26T14:36:32.000Z</time>
      </trkpt>
      <trkpt lat="45.89628" lon="4.59241">
        <ele>235.65976</ele>
        <time>2023-11-26T14:36:33.000Z</time>
      </trkpt>
      <trkpt lat="45.89626" lon="4.5925">
        <ele>235.72884</ele>
        <time>2023-11-26T14:36:34.000Z</time>
      </trkpt>
      <trkpt lat="45.89623" lon="4.59259">
        <ele>235.77925</ele>
        <time>2023-11-26T14:36:35.000Z</time>
      </trkpt>
      <trkpt lat="45.89621" lon="4.59267">
        <ele>235.82556</ele>
        <time>2023-11-26T14:36:36.000Z</time>
      </trkpt>
      <trkpt lat="45.89619" lon="4.59275">
        <ele>235.85056</ele>
        <time>2023-11-26T14:36:37.000Z</time>
      </trkpt>
      <trkpt lat="45.89617" lon="4.59283">
        <ele>235.87317</ele>
        <time>2023-11-26T14:36:38.000Z</time>
      </trkpt>
      <trkpt lat="45.89615" lon="4.59291">
        <ele>235.87715</ele>
        <time>2023-11-26T14:36:39.000Z</time>
      </trkpt>
      <trkpt lat="45.89613" lon="4.59299">
        <ele>235.89771</ele>
        <time>2023-11-26T14:36:40.000Z</time>
      </trkpt>
      <trkpt lat="45.8961" lon="4.59308">
        <ele>235.89804</ele>
        <time>2023-11-26T14:36:41.000Z</time>
      </trkpt>
      <trkpt lat="45.89608" lon="4.59316">
        <ele>235.91611</ele>
        <time>2023-11-26T14:36:42.000Z</time>
      </trkpt>
      <trkpt lat="45.89605" lon="4.59324">
        <ele>235.9259</ele>
        <time>2023-11-26T14:36:43.000Z</time>
      </trkpt>
      <trkpt lat="45.89602" lon="4.59332">
        <ele>235.98349</ele>
        <time>2023-11-26T14:36:44.000Z</time>
      </trkpt>
      <trkpt lat="45.896" lon="4.59339">
        <ele>236.04587</ele>
        <time>2023-11-26T14:36:45.000Z</time>
      </trkpt>
      <trkpt lat="45.89597" lon="4.59346">
        <ele>236.11935</ele>
        <time>2023-11-26T14:36:46.000Z</time>
      </trkpt>
      <trkpt lat="45.89595" lon="4.59354">
        <ele>236.27803</ele>
        <time>2023-11-26T14:36:47.000Z</time>
      </trkpt>
      <trkpt lat="45.89592" lon="4.59362">
        <ele>236.41916</ele>
        <time>2023-11-26T14:36:48.000Z</time>
      </trkpt>
      <trkpt lat="45.8959" lon="4.5937">
        <ele>236.55408</ele>
        <time>2023-11-26T14:36:49.000Z</time>
      </trkpt>
      <trkpt lat="45.89588" lon="4.59378">
        <ele>236.68668</ele>
        <time>2023-11-26T14:36:50.000Z</time>
      </trkpt>
      <trkpt lat="45.89586" lon="4.59385">
        <ele>236.79453</ele>
        <time>2023-11-26T14:36:51.000Z</time>
      </trkpt>
      <trkpt lat="45.89584" lon="4.59393">
        <ele>236.84509</ele>
        <time>2023-11-26T14:36:52.000Z</time>
      </trkpt>
      <trkpt lat="45.89581" lon="4.59401">
        <ele>236.88101</ele>
        <time>2023-11-26T14:36:53.000Z</time>
      </trkpt>
      <trkpt lat="45.89577" lon="4.59407">
        <ele>236.94055</ele>
        <time>2023-11-26T14:36:54.000Z</time>
      </trkpt>
      <trkpt lat="45.89573" lon="4.59414">
        <ele>237.01904</ele>
        <time>2023-11-26T14:36:55.000Z</time>
      </trkpt>
      <trkpt lat="45.89569" lon="4.59422">
        <ele>237.10161</ele>
        <time>2023-11-26T14:36:56.000Z</time>
      </trkpt>
      <trkpt lat="45.89566" lon="4.59427">
        <ele>237.22319</ele>
        <time>2023-11-26T14:36:57.000Z</time>
      </trkpt>
      <trkpt lat="45.89563" lon="4.59434">
        <ele>237.36153</ele>
        <time>2023-11-26T14:36:58.000Z</time>
      </trkpt>
      <trkpt lat="45.89559" lon="4.59441">
        <ele>237.47978</ele>
        <time>2023-11-26T14:36:59.000Z</time>
      </trkpt>
      <trkpt lat="45.89555" lon="4.59448">
        <ele>237.55103</ele>
        <time>2023-11-26T14:37:00.000Z</time>
      </trkpt>
      <trkpt lat="45.89551" lon="4.59455">
        <ele>237.63144</ele>
        <time>2023-11-26T14:37:01.000Z</time>
      </trkpt>
      <trkpt lat="45.89547" lon="4.59462">
        <ele>237.69597</ele>
        <time>2023-11-26T14:37:02.000Z</time>
      </trkpt>
      <trkpt lat="45.89543" lon="4.5947">
        <ele>237.741</ele>
        <time>2023-11-26T14:37:03.000Z</time>
      </trkpt>
      <trkpt lat="45.89539" lon="4.59478">
        <ele>237.74934</ele>
        <time>2023-11-26T14:37:04.000Z</time>
      </trkpt>
      <trkpt lat="45.89535" lon="4.59485">
        <ele>237.74541</ele>
        <time>2023-11-26T14:37:05.000Z</time>
      </trkpt>
      <trkpt lat="45.89532" lon="4.59491">
        <ele>237.72195</ele>
        <time>2023-11-26T14:37:06.000Z</time>
      </trkpt>
      <trkpt lat="45.89528" lon="4.59497">
        <ele>237.71756</ele>
        <time>2023-11-26T14:37:07.000Z</time>
      </trkpt>
      <trkpt lat="45.89523" lon="4.59503">
        <ele>237.6916</ele>
        <time>2023-11-26T14:37:08.000Z</time>
      </trkpt>
      <trkpt lat="45.89519" lon="4.59509">
        <ele>237.68558</ele>
        <time>2023-11-26T14:37:09.000Z</time>
      </trkpt>
      <trkpt lat="45.89514" lon="4.59514">
        <ele>237.68098</ele>
        <time>2023-11-26T14:37:10.000Z</time>
      </trkpt>
      <trkpt lat="45.89509" lon="4.5952">
        <ele>237.67058</ele>
        <time>2023-11-26T14:37:11.000Z</time>
      </trkpt>
      <trkpt lat="45.89503" lon="4.59525">
        <ele>237.64758</ele>
        <time>2023-11-26T14:37:12.000Z</time>
      </trkpt>
      <trkpt lat="45.89497" lon="4.59531">
        <ele>237.61026</ele>
        <time>2023-11-26T14:37:13.000Z</time>
      </trkpt>
      <trkpt lat="45.8949" lon="4.59536">
        <ele>237.54929</ele>
        <time>2023-11-26T14:37:14.000Z</time>
      </trkpt>
      <trkpt lat="45.89484" lon="4.5954">
        <ele>237.47012</ele>
        <time>2023-11-26T14:37:15.000Z</time>
      </trkpt>
      <trkpt lat="45.89478" lon="4.59546">
        <ele>237.38962</ele>
        <time>2023-11-26T14:37:16.000Z</time>
      </trkpt>
      <trkpt lat="45.89471" lon="4.59551">
        <ele>237.29861</ele>
        <time>2023-11-26T14:37:17.000Z</time>
      </trkpt>
      <trkpt lat="45.89466" lon="4.59558">
        <ele>237.21533</ele>
        <time>2023-11-26T14:37:18.000Z</time>
      </trkpt>
      <trkpt lat="45.89462" lon="4.59564">
        <ele>237.13591</ele>
        <time>2023-11-26T14:37:19.000Z</time>
      </trkpt>
      <trkpt lat="45.89457" lon="4.5957">
        <ele>237.05713</ele>
        <time>2023-11-26T14:37:20.000Z</time>
      </trkpt>
      <trkpt lat="45.89454" lon="4.59576">
        <ele>236.98947</ele>
        <time>2023-11-26T14:37:21.000Z</time>
      </trkpt>
      <trkpt lat="45.8945" lon="4.59582">
        <ele>236.96292</ele>
        <time>2023-11-26T14:37:22.000Z</time>
      </trkpt>
      <trkpt lat="45.89445" lon="4.59587">
        <ele>236.92172</ele>
        <time>2023-11-26T14:37:23.000Z</time>
      </trkpt>
      <trkpt lat="45.89441" lon="4.59594">
        <ele>236.87967</ele>
        <time>2023-11-26T14:37:24.000Z</time>
      </trkpt>
      <trkpt lat="45.89436" lon="4.59601">
        <ele>236.81979</ele>
        <time>2023-11-26T14:37:25.000Z</time>
      </trkpt>
      <trkpt lat="45.89431" lon="4.59608">
        <ele>236.74805</ele>
        <time>2023-11-26T14:37:26.000Z</time>
      </trkpt>
      <trkpt lat="45.89426" lon="4.59613">
        <ele>236.60666</ele>
        <time>2023-11-26T14:37:27.000Z</time>
      </trkpt>
      <trkpt lat="45.89422" lon="4.5962">
        <ele>236.47063</ele>
        <time>2023-11-26T14:37:28.000Z</time>
      </trkpt>
      <trkpt lat="45.89417" lon="4.59627">
        <ele>236.30437</ele>
        <time>2023-11-26T14:37:29.000Z</time>
      </trkpt>
      <trkpt lat="45.89413" lon="4.59634">
        <ele>236.12442</ele>
        <time>2023-11-26T14:37:30.000Z</time>
      </trkpt>
      <trkpt lat="45.89409" lon="4.59641">
        <ele>235.99194</ele>
        <time>2023-11-26T14:37:31.000Z</time>
      </trkpt>
      <trkpt lat="45.89404" lon="4.59647">
        <ele>235.8853</ele>
        <time>2023-11-26T14:37:32.000Z</time>
      </trkpt>
      <trkpt lat="45.894" lon="4.59654">
        <ele>235.77678</ele>
        <time>2023-11-26T14:37:33.000Z</time>
      </trkpt>
      <trkpt lat="45.89396" lon="4.59661">
        <ele>235.69705</ele>
        <time>2023-11-26T14:37:34.000Z</time>
      </trkpt>
      <trkpt lat="45.89392" lon="4.59668">
        <ele>235.62305</ele>
        <time>2023-11-26T14:37:35.000Z</time>
      </trkpt>
      <trkpt lat="45.89386" lon="4.59675">
        <ele>235.5488</ele>
        <time>2023-11-26T14:37:36.000Z</time>
      </trkpt>
      <trkpt lat="45.89383" lon="4.5968">
        <ele>235.44844</ele>
        <time>2023-11-26T14:37:37.000Z</time>
      </trkpt>
      <trkpt lat="45.89379" lon="4.59686">
        <ele>235.34602</ele>
        <time>2023-11-26T14:37:38.000Z</time>
      </trkpt>
      <trkpt lat="45.89374" lon="4.59693">
        <ele>235.22278</ele>
        <time>2023-11-26T14:37:39.000Z</time>
      </trkpt>
      <trkpt lat="45.89369" lon="4.59699">
        <ele>235.13367</ele>
        <time>2023-11-26T14:37:40.000Z</time>
      </trkpt>
      <trkpt lat="45.89364" lon="4.59706">
        <ele>235.01382</ele>
        <time>2023-11-26T14:37:41.000Z</time>
      </trkpt>
      <trkpt lat="45.8936" lon="4.59713">
        <ele>234.89639</ele>
        <time>2023-11-26T14:37:42.000Z</time>
      </trkpt>
      <trkpt lat="45.89355" lon="4.5972">
        <ele>234.79703</ele>
        <time>2023-11-26T14:37:43.000Z</time>
      </trkpt>
      <trkpt lat="45.89351" lon="4.59727">
        <ele>234.70662</ele>
        <time>2023-11-26T14:37:44.000Z</time>
      </trkpt>
      <trkpt lat="45.89346" lon="4.59733">
        <ele>234.65813</ele>
        <time>2023-11-26T14:37:45.000Z</time>
      </trkpt>
      <trkpt lat="45.89342" lon="4.59739">
        <ele>234.64873</ele>
        <time>2023-11-26T14:37:46.000Z</time>
      </trkpt>
      <trkpt lat="45.89338" lon="4.59745">
        <ele>234.64529</ele>
        <time>2023-11-26T14:37:47.000Z</time>
      </trkpt>
      <trkpt lat="45.89334" lon="4.59752">
        <ele>234.65071</ele>
        <time>2023-11-26T14:37:48.000Z</time>
      </trkpt>
      <trkpt lat="45.89329" lon="4.59758">
        <ele>234.66495</ele>
        <time>2023-11-26T14:37:49.000Z</time>
      </trkpt>
      <trkpt lat="45.89325" lon="4.59765">
        <ele>234.7417</ele>
        <time>2023-11-26T14:37:50.000Z</time>
      </trkpt>
      <trkpt lat="45.8932" lon="4.59772">
        <ele>234.78616</ele>
        <time>2023-11-26T14:37:51.000Z</time>
      </trkpt>
      <trkpt lat="45.89315" lon="4.59777">
        <ele>234.81087</ele>
        <time>2023-11-26T14:37:52.000Z</time>
      </trkpt>
      <trkpt lat="45.89311" lon="4.59784">
        <ele>234.82735</ele>
        <time>2023-11-26T14:37:53.000Z</time>
      </trkpt>
      <trkpt lat="45.89307" lon="4.59791">
        <ele>234.83015</ele>
        <time>2023-11-26T14:37:54.000Z</time>
      </trkpt>
      <trkpt lat="45.89303" lon="4.59797">
        <ele>234.82584</ele>
        <time>2023-11-26T14:37:55.000Z</time>
      </trkpt>
      <trkpt lat="45.89299" lon="4.59804">
        <ele>234.80562</ele>
        <time>2023-11-26T14:37:56.000Z</time>
      </trkpt>
      <trkpt lat="45.89295" lon="4.5981">
        <ele>234.79794</ele>
        <time>2023-11-26T14:37:57.000Z</time>
      </trkpt>
      <trkpt lat="45.89291" lon="4.59817">
        <ele>234.77327</ele>
        <time>2023-11-26T14:37:58.000Z</time>
      </trkpt>
      <trkpt lat="45.89287" lon="4.59824">
        <ele>234.78552</ele>
        <time>2023-11-26T14:37:59.000Z</time>
      </trkpt>
      <trkpt lat="45.89284" lon="4.59829">
        <ele>234.79597</ele>
        <time>2023-11-26T14:38:00.000Z</time>
      </trkpt>
      <trkpt lat="45.89279" lon="4.59835">
        <ele>234.79642</ele>
        <time>2023-11-26T14:38:01.000Z</time>
      </trkpt>
      <trkpt lat="45.89274" lon="4.59841">
        <ele>234.7626</ele>
        <time>2023-11-26T14:38:02.000Z</time>
      </trkpt>
      <trkpt lat="45.89269" lon="4.59846">
        <ele>234.69438</ele>
        <time>2023-11-26T14:38:03.000Z</time>
      </trkpt>
      <trkpt lat="45.89265" lon="4.59852">
        <ele>234.63029</ele>
        <time>2023-11-26T14:38:04.000Z</time>
      </trkpt>
      <trkpt lat="45.89262" lon="4.59858">
        <ele>234.54373</ele>
        <time>2023-11-26T14:38:05.000Z</time>
      </trkpt>
      <trkpt lat="45.89258" lon="4.59863">
        <ele>234.48837</ele>
        <time>2023-11-26T14:38:06.000Z</time>
      </trkpt>
      <trkpt lat="45.89255" lon="4.59868">
        <ele>234.50894</ele>
        <time>2023-11-26T14:38:07.000Z</time>
      </trkpt>
      <trkpt lat="45.89251" lon="4.59875">
        <ele>234.55429</ele>
        <time>2023-11-26T14:38:08.000Z</time>
      </trkpt>
      <trkpt lat="45.89247" lon="4.59881">
        <ele>234.57295</ele>
        <time>2023-11-26T14:38:09.000Z</time>
      </trkpt>
      <trkpt lat="45.89244" lon="4.59886">
        <ele>234.58969</ele>
        <time>2023-11-26T14:38:10.000Z</time>
      </trkpt>
      <trkpt lat="45.8924" lon="4.59892">
        <ele>234.62936</ele>
        <time>2023-11-26T14:38:11.000Z</time>
      </trkpt>
      <trkpt lat="45.89235" lon="4.59898">
        <ele>234.68701</ele>
        <time>2023-11-26T14:38:12.000Z</time>
      </trkpt>
      <trkpt lat="45.89229" lon="4.59905">
        <ele>234.73608</ele>
        <time>2023-11-26T14:38:13.000Z</time>
      </trkpt>
      <trkpt lat="45.89226" lon="4.59911">
        <ele>234.78203</ele>
        <time>2023-11-26T14:38:14.000Z</time>
      </trkpt>
      <trkpt lat="45.89221" lon="4.59916">
        <ele>234.8575</ele>
        <time>2023-11-26T14:38:15.000Z</time>
      </trkpt>
      <trkpt lat="45.89217" lon="4.59921">
        <ele>234.97525</ele>
        <time>2023-11-26T14:38:16.000Z</time>
      </trkpt>
      <trkpt lat="45.89213" lon="4.59927">
        <ele>235.09065</ele>
        <time>2023-11-26T14:38:17.000Z</time>
      </trkpt>
      <trkpt lat="45.89208" lon="4.59934">
        <ele>235.23715</ele>
        <time>2023-11-26T14:38:18.000Z</time>
      </trkpt>
      <trkpt lat="45.89204" lon="4.59938">
        <ele>235.36368</ele>
        <time>2023-11-26T14:38:19.000Z</time>
      </trkpt>
      <trkpt lat="45.892" lon="4.59943">
        <ele>235.48418</ele>
        <time>2023-11-26T14:38:20.000Z</time>
      </trkpt>
      <trkpt lat="45.89195" lon="4.59949">
        <ele>235.65775</ele>
        <time>2023-11-26T14:38:21.000Z</time>
      </trkpt>
      <trkpt lat="45.89191" lon="4.59952">
        <ele>235.80659</ele>
        <time>2023-11-26T14:38:22.000Z</time>
      </trkpt>
      <trkpt lat="45.89187" lon="4.59956">
        <ele>236.00192</ele>
        <time>2023-11-26T14:38:23.000Z</time>
      </trkpt>
      <trkpt lat="45.89183" lon="4.59962">
        <ele>236.17993</ele>
        <time>2023-11-26T14:38:24.000Z</time>
      </trkpt>
      <trkpt lat="45.89179" lon="4.59967">
        <ele>236.35941</ele>
        <time>2023-11-26T14:38:25.000Z</time>
      </trkpt>
      <trkpt lat="45.89175" lon="4.59973">
        <ele>236.50288</ele>
        <time>2023-11-26T14:38:26.000Z</time>
      </trkpt>
      <trkpt lat="45.8917" lon="4.59979">
        <ele>236.57979</ele>
        <time>2023-11-26T14:38:27.000Z</time>
      </trkpt>
      <trkpt lat="45.89165" lon="4.59985">
        <ele>236.63168</ele>
        <time>2023-11-26T14:38:28.000Z</time>
      </trkpt>
      <trkpt lat="45.89161" lon="4.59992">
        <ele>236.71748</ele>
        <time>2023-11-26T14:38:29.000Z</time>
      </trkpt>
      <trkpt lat="45.89155" lon="4.59998">
        <ele>236.7657</ele>
        <time>2023-11-26T14:38:30.000Z</time>
      </trkpt>
      <trkpt lat="45.8915" lon="4.60004">
        <ele>236.80273</ele>
        <time>2023-11-26T14:38:31.000Z</time>
      </trkpt>
      <trkpt lat="45.89147" lon="4.60009">
        <ele>236.84668</ele>
        <time>2023-11-26T14:38:32.000Z</time>
      </trkpt>
      <trkpt lat="45.89144" lon="4.60015">
        <ele>236.90323</ele>
        <time>2023-11-26T14:38:33.000Z</time>
      </trkpt>
      <trkpt lat="45.89142" lon="4.6002">
        <ele>237.01311</ele>
        <time>2023-11-26T14:38:34.000Z</time>
      </trkpt>
      <trkpt lat="45.89139" lon="4.60025">
        <ele>237.10904</ele>
        <time>2023-11-26T14:38:35.000Z</time>
      </trkpt>
      <trkpt lat="45.89135" lon="4.60032">
        <ele>237.18889</ele>
        <time>2023-11-26T14:38:36.000Z</time>
      </trkpt>
      <trkpt lat="45.89133" lon="4.60038">
        <ele>237.25269</ele>
        <time>2023-11-26T14:38:37.000Z</time>
      </trkpt>
      <trkpt lat="45.89131" lon="4.60044">
        <ele>237.34448</ele>
        <time>2023-11-26T14:38:38.000Z</time>
      </trkpt>
      <trkpt lat="45.89128" lon="4.60051">
        <ele>237.48897</ele>
        <time>2023-11-26T14:38:39.000Z</time>
      </trkpt>
      <trkpt lat="45.89126" lon="4.60058">
        <ele>237.63388</ele>
        <time>2023-11-26T14:38:40.000Z</time>
      </trkpt>
      <trkpt lat="45.89123" lon="4.60065">
        <ele>237.76724</ele>
        <time>2023-11-26T14:38:41.000Z</time>
      </trkpt>
      <trkpt lat="45.89121" lon="4.6007">
        <ele>237.95224</ele>
        <time>2023-11-26T14:38:42.000Z</time>
      </trkpt>
      <trkpt lat="45.89118" lon="4.60077">
        <ele>238.1252</ele>
        <time>2023-11-26T14:38:43.000Z</time>
      </trkpt>
      <trkpt lat="45.89116" lon="4.60085">
        <ele>238.27747</ele>
        <time>2023-11-26T14:38:44.000Z</time>
      </trkpt>
      <trkpt lat="45.89114" lon="4.60093">
        <ele>238.4368</ele>
        <time>2023-11-26T14:38:45.000Z</time>
      </trkpt>
      <trkpt lat="45.89112" lon="4.60101">
        <ele>238.57524</ele>
        <time>2023-11-26T14:38:46.000Z</time>
      </trkpt>
      <trkpt lat="45.8911" lon="4.60108">
        <ele>238.74344</ele>
        <time>2023-11-26T14:38:47.000Z</time>
      </trkpt>
      <trkpt lat="45.89109" lon="4.60115">
        <ele>238.90439</ele>
        <time>2023-11-26T14:38:48.000Z</time>
      </trkpt>
      <trkpt lat="45.89107" lon="4.60122">
        <ele>238.68982</ele>
        <time>2023-11-26T14:38:49.000Z</time>
      </trkpt>
      <trkpt lat="45.89106" lon="4.60129">
        <ele>238.45073</ele>
        <time>2023-11-26T14:38:50.000Z</time>
      </trkpt>
      <trkpt lat="45.89105" lon="4.60136">
        <ele>238.25554</ele>
        <time>2023-11-26T14:38:51.000Z</time>
      </trkpt>
      <trkpt lat="45.89103" lon="4.60143">
        <ele>238.02097</ele>
        <time>2023-11-26T14:38:52.000Z</time>
      </trkpt>
      <trkpt lat="45.89101" lon="4.6015">
        <ele>237.81633</ele>
        <time>2023-11-26T14:38:53.000Z</time>
      </trkpt>
      <trkpt lat="45.89101" lon="4.60158">
        <ele>237.55513</ele>
        <time>2023-11-26T14:38:54.000Z</time>
      </trkpt>
      <trkpt lat="45.89098" lon="4.60166">
        <ele>237.23409</ele>
        <time>2023-11-26T14:38:55.000Z</time>
      </trkpt>
      <trkpt lat="45.89098" lon="4.60173">
        <ele>237.13757</ele>
        <time>2023-11-26T14:38:56.000Z</time>
      </trkpt>
      <trkpt lat="45.89097" lon="4.6018">
        <ele>237.03882</ele>
        <time>2023-11-26T14:38:57.000Z</time>
      </trkpt>
      <trkpt lat="45.89095" lon="4.60187">
        <ele>236.87614</ele>
        <time>2023-11-26T14:38:58.000Z</time>
      </trkpt>
      <trkpt lat="45.89094" lon="4.60194">
        <ele>236.71536</ele>
        <time>2023-11-26T14:38:59.000Z</time>
      </trkpt>
      <trkpt lat="45.89093" lon="4.602">
        <ele>236.45024</ele>
        <time>2023-11-26T14:39:00.000Z</time>
      </trkpt>
      <trkpt lat="45.89092" lon="4.60207">
        <ele>236.11008</ele>
        <time>2023-11-26T14:39:01.000Z</time>
      </trkpt>
      <trkpt lat="45.89091" lon="4.60213">
        <ele>235.73938</ele>
        <time>2023-11-26T14:39:02.000Z</time>
      </trkpt>
      <trkpt lat="45.8909" lon="4.6022">
        <ele>235.58061</ele>
        <time>2023-11-26T14:39:03.000Z</time>
      </trkpt>
      <trkpt lat="45.89089" lon="4.60227">
        <ele>235.43291</ele>
        <time>2023-11-26T14:39:04.000Z</time>
      </trkpt>
      <trkpt lat="45.89088" lon="4.60233">
        <ele>235.2728</ele>
        <time>2023-11-26T14:39:05.000Z</time>
      </trkpt>
      <trkpt lat="45.89087" lon="4.60238">
        <ele>235.12125</ele>
        <time>2023-11-26T14:39:06.000Z</time>
      </trkpt>
      <trkpt lat="45.89087" lon="4.60245">
        <ele>234.9528</ele>
        <time>2023-11-26T14:39:07.000Z</time>
      </trkpt>
      <trkpt lat="45.89087" lon="4.60249">
        <ele>234.77023</ele>
        <time>2023-11-26T14:39:08.000Z</time>
      </trkpt>
      <trkpt lat="45.89086" lon="4.60255">
        <ele>234.96489</ele>
        <time>2023-11-26T14:39:09.000Z</time>
      </trkpt>
      <trkpt lat="45.89086" lon="4.60263">
        <ele>235.17282</ele>
        <time>2023-11-26T14:39:10.000Z</time>
      </trkpt>
      <trkpt lat="45.89085" lon="4.6027">
        <ele>235.38345</ele>
        <time>2023-11-26T14:39:11.000Z</time>
      </trkpt>
      <trkpt lat="45.89084" lon="4.60277">
        <ele>235.64145</ele>
        <time>2023-11-26T14:39:12.000Z</time>
      </trkpt>
      <trkpt lat="45.89083" lon="4.60285">
        <ele>235.88953</ele>
        <time>2023-11-26T14:39:13.000Z</time>
      </trkpt>
      <trkpt lat="45.89082" lon="4.60292">
        <ele>236.1158</ele>
        <time>2023-11-26T14:39:14.000Z</time>
      </trkpt>
      <trkpt lat="45.89081" lon="4.60298">
        <ele>236.39006</ele>
        <time>2023-11-26T14:39:15.000Z</time>
      </trkpt>
      <trkpt lat="45.8908" lon="4.60306">
        <ele>236.45554</ele>
        <time>2023-11-26T14:39:16.000Z</time>
      </trkpt>
      <trkpt lat="45.89079" lon="4.60313">
        <ele>236.57161</ele>
        <time>2023-11-26T14:39:17.000Z</time>
      </trkpt>
      <trkpt lat="45.89078" lon="4.6032">
        <ele>236.70378</ele>
        <time>2023-11-26T14:39:18.000Z</time>
      </trkpt>
      <trkpt lat="45.89076" lon="4.60326">
        <ele>236.63132</ele>
        <time>2023-11-26T14:39:19.000Z</time>
      </trkpt>
      <trkpt lat="45.89075" lon="4.60333">
        <ele>236.66243</ele>
        <time>2023-11-26T14:39:20.000Z</time>
      </trkpt>
      <trkpt lat="45.89073" lon="4.6034">
        <ele>236.74918</ele>
        <time>2023-11-26T14:39:21.000Z</time>
      </trkpt>
      <trkpt lat="45.89072" lon="4.60348">
        <ele>236.87427</ele>
        <time>2023-11-26T14:39:22.000Z</time>
      </trkpt>
      <trkpt lat="45.8907" lon="4.60355">
        <ele>236.73291</ele>
        <time>2023-11-26T14:39:23.000Z</time>
      </trkpt>
      <trkpt lat="45.89069" lon="4.60363">
        <ele>236.65459</ele>
        <time>2023-11-26T14:39:24.000Z</time>
      </trkpt>
      <trkpt lat="45.89069" lon="4.6037">
        <ele>236.56027</ele>
        <time>2023-11-26T14:39:25.000Z</time>
      </trkpt>
      <trkpt lat="45.89067" lon="4.60377">
        <ele>236.36478</ele>
        <time>2023-11-26T14:39:26.000Z</time>
      </trkpt>
      <trkpt lat="45.89067" lon="4.60385">
        <ele>236.35185</ele>
        <time>2023-11-26T14:39:27.000Z</time>
      </trkpt>
      <trkpt lat="45.89065" lon="4.60393">
        <ele>236.30344</ele>
        <time>2023-11-26T14:39:28.000Z</time>
      </trkpt>
      <trkpt lat="45.89063" lon="4.60401">
        <ele>236.13754</ele>
        <time>2023-11-26T14:39:29.000Z</time>
      </trkpt>
      <trkpt lat="45.8906" lon="4.60409">
        <ele>235.94727</ele>
        <time>2023-11-26T14:39:30.000Z</time>
      </trkpt>
      <trkpt lat="45.89058" lon="4.60418">
        <ele>235.74553</ele>
        <time>2023-11-26T14:39:31.000Z</time>
      </trkpt>
      <trkpt lat="45.89057" lon="4.60426">
        <ele>235.52812</ele>
        <time>2023-11-26T14:39:32.000Z</time>
      </trkpt>
      <trkpt lat="45.89055" lon="4.60434">
        <ele>235.29385</ele>
        <time>2023-11-26T14:39:33.000Z</time>
      </trkpt>
      <trkpt lat="45.89054" lon="4.60442">
        <ele>235.09111</ele>
        <time>2023-11-26T14:39:34.000Z</time>
      </trkpt>
      <trkpt lat="45.89052" lon="4.60449">
        <ele>234.86887</ele>
        <time>2023-11-26T14:39:35.000Z</time>
      </trkpt>
      <trkpt lat="45.89051" lon="4.60456">
        <ele>234.63028</ele>
        <time>2023-11-26T14:39:36.000Z</time>
      </trkpt>
      <trkpt lat="45.89049" lon="4.60464">
        <ele>234.32365</ele>
        <time>2023-11-26T14:39:37.000Z</time>
      </trkpt>
      <trkpt lat="45.89048" lon="4.60471">
        <ele>234.04306</ele>
        <time>2023-11-26T14:39:38.000Z</time>
      </trkpt>
      <trkpt lat="45.89046" lon="4.60479">
        <ele>233.92705</ele>
        <time>2023-11-26T14:39:39.000Z</time>
      </trkpt>
      <trkpt lat="45.89045" lon="4.60486">
        <ele>233.79456</ele>
        <time>2023-11-26T14:39:40.000Z</time>
      </trkpt>
      <trkpt lat="45.89043" lon="4.60493">
        <ele>233.68344</ele>
        <time>2023-11-26T14:39:41.000Z</time>
      </trkpt>
      <trkpt lat="45.89041" lon="4.605">
        <ele>233.54607</ele>
        <time>2023-11-26T14:39:42.000Z</time>
      </trkpt>
      <trkpt lat="45.89039" lon="4.60506">
        <ele>233.35616</ele>
        <time>2023-11-26T14:39:43.000Z</time>
      </trkpt>
      <trkpt lat="45.89038" lon="4.60514">
        <ele>233.05949</ele>
        <time>2023-11-26T14:39:44.000Z</time>
      </trkpt>
      <trkpt lat="45.89037" lon="4.60521">
        <ele>232.75183</ele>
        <time>2023-11-26T14:39:45.000Z</time>
      </trkpt>
      <trkpt lat="45.89034" lon="4.60529">
        <ele>232.6949</ele>
        <time>2023-11-26T14:39:46.000Z</time>
      </trkpt>
      <trkpt lat="45.89032" lon="4.60537">
        <ele>232.4189</ele>
        <time>2023-11-26T14:39:47.000Z</time>
      </trkpt>
      <trkpt lat="45.89029" lon="4.60546">
        <ele>232.1879</ele>
        <time>2023-11-26T14:39:48.000Z</time>
      </trkpt>
      <trkpt lat="45.89026" lon="4.60554">
        <ele>232.05197</ele>
        <time>2023-11-26T14:39:49.000Z</time>
      </trkpt>
      <trkpt lat="45.89024" lon="4.60563">
        <ele>231.9272</ele>
        <time>2023-11-26T14:39:50.000Z</time>
      </trkpt>
      <trkpt lat="45.89023" lon="4.60572">
        <ele>231.7458</ele>
        <time>2023-11-26T14:39:51.000Z</time>
      </trkpt>
      <trkpt lat="45.8902" lon="4.60579">
        <ele>231.55574</ele>
        <time>2023-11-26T14:39:52.000Z</time>
      </trkpt>
      <trkpt lat="45.89017" lon="4.60588">
        <ele>231.3947</ele>
        <time>2023-11-26T14:39:53.000Z</time>
      </trkpt>
      <trkpt lat="45.89014" lon="4.60597">
        <ele>231.17769</ele>
        <time>2023-11-26T14:39:54.000Z</time>
      </trkpt>
      <trkpt lat="45.89012" lon="4.60604">
        <ele>230.97485</ele>
        <time>2023-11-26T14:39:55.000Z</time>
      </trkpt>
      <trkpt lat="45.89009" lon="4.60612">
        <ele>230.81062</ele>
        <time>2023-11-26T14:39:56.000Z</time>
      </trkpt>
      <trkpt lat="45.89006" lon="4.60621">
        <ele>230.66653</ele>
        <time>2023-11-26T14:39:57.000Z</time>
      </trkpt>
      <trkpt lat="45.89002" lon="4.6063">
        <ele>230.48807</ele>
        <time>2023-11-26T14:39:58.000Z</time>
      </trkpt>
      <trkpt lat="45.88999" lon="4.60639">
        <ele>230.30075</ele>
        <time>2023-11-26T14:39:59.000Z</time>
      </trkpt>
      <trkpt lat="45.88997" lon="4.60648">
        <ele>230.11667</ele>
        <time>2023-11-26T14:40:00.000Z</time>
      </trkpt>
      <trkpt lat="45.88994" lon="4.60657">
        <ele>229.95264</ele>
        <time>2023-11-26T14:40:01.000Z</time>
      </trkpt>
      <trkpt lat="45.8899" lon="4.60665">
        <ele>229.79172</ele>
        <time>2023-11-26T14:40:02.000Z</time>
      </trkpt>
      <trkpt lat="45.88988" lon="4.60674">
        <ele>229.76721</ele>
        <time>2023-11-26T14:40:03.000Z</time>
      </trkpt>
      <trkpt lat="45.88985" lon="4.60682">
        <ele>229.78415</ele>
        <time>2023-11-26T14:40:04.000Z</time>
      </trkpt>
      <trkpt lat="45.88983" lon="4.60691">
        <ele>229.76584</ele>
        <time>2023-11-26T14:40:05.000Z</time>
      </trkpt>
      <trkpt lat="45.88979" lon="4.607">
        <ele>229.6011</ele>
        <time>2023-11-26T14:40:06.000Z</time>
      </trkpt>
      <trkpt lat="45.88977" lon="4.60708">
        <ele>229.47002</ele>
        <time>2023-11-26T14:40:07.000Z</time>
      </trkpt>
      <trkpt lat="45.88974" lon="4.60719">
        <ele>229.36368</ele>
        <time>2023-11-26T14:40:08.000Z</time>
      </trkpt>
      <trkpt lat="45.88971" lon="4.60727">
        <ele>229.2562</ele>
        <time>2023-11-26T14:40:09.000Z</time>
      </trkpt>
      <trkpt lat="45.88967" lon="4.60737">
        <ele>229.15402</ele>
        <time>2023-11-26T14:40:10.000Z</time>
      </trkpt>
      <trkpt lat="45.88963" lon="4.60746">
        <ele>229.07639</ele>
        <time>2023-11-26T14:40:11.000Z</time>
      </trkpt>
      <trkpt lat="45.8896" lon="4.60755">
        <ele>229.01851</ele>
        <time>2023-11-26T14:40:12.000Z</time>
      </trkpt>
      <trkpt lat="45.88957" lon="4.60763">
        <ele>228.90202</ele>
        <time>2023-11-26T14:40:13.000Z</time>
      </trkpt>
      <trkpt lat="45.88954" lon="4.60773">
        <ele>228.84737</ele>
        <time>2023-11-26T14:40:14.000Z</time>
      </trkpt>
      <trkpt lat="45.8895" lon="4.60782">
        <ele>228.80083</ele>
        <time>2023-11-26T14:40:15.000Z</time>
      </trkpt>
      <trkpt lat="45.88947" lon="4.60791">
        <ele>228.70007</ele>
        <time>2023-11-26T14:40:16.000Z</time>
      </trkpt>
      <trkpt lat="45.88943" lon="4.608">
        <ele>228.5939</ele>
        <time>2023-11-26T14:40:17.000Z</time>
      </trkpt>
      <trkpt lat="45.8894" lon="4.60809">
        <ele>228.49072</ele>
        <time>2023-11-26T14:40:18.000Z</time>
      </trkpt>
      <trkpt lat="45.88937" lon="4.60819">
        <ele>228.43147</ele>
        <time>2023-11-26T14:40:19.000Z</time>
      </trkpt>
      <trkpt lat="45.88932" lon="4.60828">
        <ele>228.3363</ele>
        <time>2023-11-26T14:40:20.000Z</time>
      </trkpt>
      <trkpt lat="45.88929" lon="4.60838">
        <ele>228.18112</ele>
        <time>2023-11-26T14:40:21.000Z</time>
      </trkpt>
      <trkpt lat="45.88925" lon="4.60848">
        <ele>227.9866</ele>
        <time>2023-11-26T14:40:22.000Z</time>
      </trkpt>
      <trkpt lat="45.88921" lon="4.60858">
        <ele>227.76358</ele>
        <time>2023-11-26T14:40:23.000Z</time>
      </trkpt>
      <trkpt lat="45.88918" lon="4.60868">
        <ele>227.54671</ele>
        <time>2023-11-26T14:40:24.000Z</time>
      </trkpt>
      <trkpt lat="45.88915" lon="4.60877">
        <ele>227.32581</ele>
        <time>2023-11-26T14:40:25.000Z</time>
      </trkpt>
      <trkpt lat="45.88911" lon="4.60887">
        <ele>227.09708</ele>
        <time>2023-11-26T14:40:26.000Z</time>
      </trkpt>
      <trkpt lat="45.88908" lon="4.60897">
        <ele>226.83496</ele>
        <time>2023-11-26T14:40:27.000Z</time>
      </trkpt>
      <trkpt lat="45.88906" lon="4.60907">
        <ele>226.61377</ele>
        <time>2023-11-26T14:40:28.000Z</time>
      </trkpt>
      <trkpt lat="45.88904" lon="4.60917">
        <ele>226.4062</ele>
        <time>2023-11-26T14:40:29.000Z</time>
      </trkpt>
      <trkpt lat="45.88901" lon="4.60927">
        <ele>226.2299</ele>
        <time>2023-11-26T14:40:30.000Z</time>
      </trkpt>
      <trkpt lat="45.88898" lon="4.60936">
        <ele>226.01749</ele>
        <time>2023-11-26T14:40:31.000Z</time>
      </trkpt>
      <trkpt lat="45.88896" lon="4.60946">
        <ele>225.83623</ele>
        <time>2023-11-26T14:40:32.000Z</time>
      </trkpt>
      <trkpt lat="45.88893" lon="4.60957">
        <ele>225.66647</ele>
        <time>2023-11-26T14:40:33.000Z</time>
      </trkpt>
      <trkpt lat="45.88891" lon="4.60966">
        <ele>225.4978</ele>
        <time>2023-11-26T14:40:34.000Z</time>
      </trkpt>
      <trkpt lat="45.88889" lon="4.60975">
        <ele>225.34204</ele>
        <time>2023-11-26T14:40:35.000Z</time>
      </trkpt>
      <trkpt lat="45.88888" lon="4.60986">
        <ele>225.19246</ele>
        <time>2023-11-26T14:40:36.000Z</time>
      </trkpt>
      <trkpt lat="45.88886" lon="4.60997">
        <ele>225.04114</ele>
        <time>2023-11-26T14:40:37.000Z</time>
      </trkpt>
      <trkpt lat="45.88884" lon="4.61006">
        <ele>224.89511</ele>
        <time>2023-11-26T14:40:38.000Z</time>
      </trkpt>
      <trkpt lat="45.88884" lon="4.61015">
        <ele>224.74097</ele>
        <time>2023-11-26T14:40:39.000Z</time>
      </trkpt>
      <trkpt lat="45.88883" lon="4.61025">
        <ele>224.61031</ele>
        <time>2023-11-26T14:40:40.000Z</time>
      </trkpt>
      <trkpt lat="45.88884" lon="4.61036">
        <ele>224.43657</ele>
        <time>2023-11-26T14:40:41.000Z</time>
      </trkpt>
      <trkpt lat="45.88884" lon="4.61045">
        <ele>224.28899</ele>
        <time>2023-11-26T14:40:42.000Z</time>
      </trkpt>
      <trkpt lat="45.88883" lon="4.61056">
        <ele>224.14233</ele>
        <time>2023-11-26T14:40:43.000Z</time>
      </trkpt>
      <trkpt lat="45.88883" lon="4.61066">
        <ele>224.03252</ele>
        <time>2023-11-26T14:40:44.000Z</time>
      </trkpt>
      <trkpt lat="45.88883" lon="4.61074">
        <ele>223.97684</ele>
        <time>2023-11-26T14:40:45.000Z</time>
      </trkpt>
      <trkpt lat="45.88883" lon="4.61083">
        <ele>223.94144</ele>
        <time>2023-11-26T14:40:46.000Z</time>
      </trkpt>
      <trkpt lat="45.88883" lon="4.61092">
        <ele>223.94629</ele>
        <time>2023-11-26T14:40:47.000Z</time>
      </trkpt>
      <trkpt lat="45.88882" lon="4.61101">
        <ele>223.85709</ele>
        <time>2023-11-26T14:40:48.000Z</time>
      </trkpt>
      <trkpt lat="45.88881" lon="4.61109">
        <ele>223.72722</ele>
        <time>2023-11-26T14:40:49.000Z</time>
      </trkpt>
      <trkpt lat="45.88881" lon="4.61118">
        <ele>223.61397</ele>
        <time>2023-11-26T14:40:50.000Z</time>
      </trkpt>
      <trkpt lat="45.88881" lon="4.61126">
        <ele>223.53101</ele>
        <time>2023-11-26T14:40:51.000Z</time>
      </trkpt>
      <trkpt lat="45.88881" lon="4.61135">
        <ele>223.39812</ele>
        <time>2023-11-26T14:40:52.000Z</time>
      </trkpt>
      <trkpt lat="45.8888" lon="4.61143">
        <ele>223.28654</ele>
        <time>2023-11-26T14:40:53.000Z</time>
      </trkpt>
      <trkpt lat="45.8888" lon="4.6115">
        <ele>223.13687</ele>
        <time>2023-11-26T14:40:54.000Z</time>
      </trkpt>
      <trkpt lat="45.8888" lon="4.61159">
        <ele>223.00797</ele>
        <time>2023-11-26T14:40:55.000Z</time>
      </trkpt>
      <trkpt lat="45.88879" lon="4.61166">
        <ele>222.89896</ele>
        <time>2023-11-26T14:40:56.000Z</time>
      </trkpt>
      <trkpt lat="45.88879" lon="4.61175">
        <ele>222.82925</ele>
        <time>2023-11-26T14:40:57.000Z</time>
      </trkpt>
      <trkpt lat="45.88879" lon="4.61184">
        <ele>222.74826</ele>
        <time>2023-11-26T14:40:58.000Z</time>
      </trkpt>
      <trkpt lat="45.88879" lon="4.61192">
        <ele>222.64217</ele>
        <time>2023-11-26T14:40:59.000Z</time>
      </trkpt>
      <trkpt lat="45.88879" lon="4.612">
        <ele>222.56467</ele>
        <time>2023-11-26T14:41:00.000Z</time>
      </trkpt>
      <trkpt lat="45.88879" lon="4.61208">
        <ele>222.61108</ele>
        <time>2023-11-26T14:41:01.000Z</time>
      </trkpt>
      <trkpt lat="45.88879" lon="4.61216">
        <ele>222.65373</ele>
        <time>2023-11-26T14:41:02.000Z</time>
      </trkpt>
      <trkpt lat="45.88879" lon="4.61224">
        <ele>222.70975</ele>
        <time>2023-11-26T14:41:03.000Z</time>
      </trkpt>
      <trkpt lat="45.88878" lon="4.61232">
        <ele>222.75406</ele>
        <time>2023-11-26T14:41:04.000Z</time>
      </trkpt>
      <trkpt lat="45.88877" lon="4.61239">
        <ele>222.82939</ele>
        <time>2023-11-26T14:41:05.000Z</time>
      </trkpt>
      <trkpt lat="45.88876" lon="4.61247">
        <ele>222.84904</ele>
        <time>2023-11-26T14:41:06.000Z</time>
      </trkpt>
      <trkpt lat="45.88875" lon="4.61255">
        <ele>222.86697</ele>
        <time>2023-11-26T14:41:07.000Z</time>
      </trkpt>
      <trkpt lat="45.88875" lon="4.61262">
        <ele>222.87996</ele>
        <time>2023-11-26T14:41:08.000Z</time>
      </trkpt>
      <trkpt lat="45.88874" lon="4.6127">
        <ele>222.94438</ele>
        <time>2023-11-26T14:41:09.000Z</time>
      </trkpt>
      <trkpt lat="45.88872" lon="4.61279">
        <ele>222.90372</ele>
        <time>2023-11-26T14:41:10.000Z</time>
      </trkpt>
      <trkpt lat="45.88872" lon="4.61285">
        <ele>222.9528</ele>
        <time>2023-11-26T14:41:11.000Z</time>
      </trkpt>
      <trkpt lat="45.88872" lon="4.61294">
        <ele>222.99783</ele>
        <time>2023-11-26T14:41:12.000Z</time>
      </trkpt>
      <trkpt lat="45.88872" lon="4.61302">
        <ele>223.05562</ele>
        <time>2023-11-26T14:41:13.000Z</time>
      </trkpt>
      <trkpt lat="45.8887" lon="4.6131">
        <ele>223.14839</ele>
        <time>2023-11-26T14:41:14.000Z</time>
      </trkpt>
      <trkpt lat="45.88869" lon="4.61317">
        <ele>223.20984</ele>
        <time>2023-11-26T14:41:15.000Z</time>
      </trkpt>
      <trkpt lat="45.88867" lon="4.61325">
        <ele>223.2561</ele>
        <time>2023-11-26T14:41:16.000Z</time>
      </trkpt>
      <trkpt lat="45.88866" lon="4.61332">
        <ele>223.285</ele>
        <time>2023-11-26T14:41:17.000Z</time>
      </trkpt>
      <trkpt lat="45.88865" lon="4.61341">
        <ele>223.33853</ele>
        <time>2023-11-26T14:41:18.000Z</time>
      </trkpt>
      <trkpt lat="45.88864" lon="4.61348">
        <ele>223.42566</ele>
        <time>2023-11-26T14:41:19.000Z</time>
      </trkpt>
      <trkpt lat="45.88863" lon="4.61355">
        <ele>223.53691</ele>
        <time>2023-11-26T14:41:20.000Z</time>
      </trkpt>
      <trkpt lat="45.88862" lon="4.61361">
        <ele>223.57329</ele>
        <time>2023-11-26T14:41:21.000Z</time>
      </trkpt>
      <trkpt lat="45.8886" lon="4.61369">
        <ele>223.6207</ele>
        <time>2023-11-26T14:41:22.000Z</time>
      </trkpt>
      <trkpt lat="45.8886" lon="4.61377">
        <ele>223.76009</ele>
        <time>2023-11-26T14:41:23.000Z</time>
      </trkpt>
      <trkpt lat="45.88857" lon="4.61384">
        <ele>223.83044</ele>
        <time>2023-11-26T14:41:24.000Z</time>
      </trkpt>
      <trkpt lat="45.88855" lon="4.61393">
        <ele>223.81723</ele>
        <time>2023-11-26T14:41:25.000Z</time>
      </trkpt>
      <trkpt lat="45.88854" lon="4.61402">
        <ele>223.80937</ele>
        <time>2023-11-26T14:41:26.000Z</time>
      </trkpt>
      <trkpt lat="45.88853" lon="4.61409">
        <ele>223.78027</ele>
        <time>2023-11-26T14:41:27.000Z</time>
      </trkpt>
      <trkpt lat="45.88851" lon="4.61415">
        <ele>223.81987</ele>
        <time>2023-11-26T14:41:28.000Z</time>
      </trkpt>
      <trkpt lat="45.88849" lon="4.61422">
        <ele>223.80876</ele>
        <time>2023-11-26T14:41:29.000Z</time>
      </trkpt>
      <trkpt lat="45.88846" lon="4.61431">
        <ele>223.83501</ele>
        <time>2023-11-26T14:41:30.000Z</time>
      </trkpt>
      <trkpt lat="45.88842" lon="4.61441">
        <ele>223.74081</ele>
        <time>2023-11-26T14:41:31.000Z</time>
      </trkpt>
      <trkpt lat="45.8884" lon="4.61448">
        <ele>223.66182</ele>
        <time>2023-11-26T14:41:32.000Z</time>
      </trkpt>
      <trkpt lat="45.88838" lon="4.61455">
        <ele>223.56088</ele>
        <time>2023-11-26T14:41:33.000Z</time>
      </trkpt>
      <trkpt lat="45.88836" lon="4.61462">
        <ele>223.43791</ele>
        <time>2023-11-26T14:41:34.000Z</time>
      </trkpt>
      <trkpt lat="45.88833" lon="4.61469">
        <ele>223.37943</ele>
        <time>2023-11-26T14:41:35.000Z</time>
      </trkpt>
      <trkpt lat="45.88831" lon="4.61476">
        <ele>223.36426</ele>
        <time>2023-11-26T14:41:36.000Z</time>
      </trkpt>
      <trkpt lat="45.88829" lon="4.61484">
        <ele>223.34636</ele>
        <time>2023-11-26T14:41:37.000Z</time>
      </trkpt>
      <trkpt lat="45.88826" lon="4.6149">
        <ele>223.32483</ele>
        <time>2023-11-26T14:41:38.000Z</time>
      </trkpt>
      <trkpt lat="45.88823" lon="4.61498">
        <ele>223.26608</ele>
        <time>2023-11-26T14:41:39.000Z</time>
      </trkpt>
      <trkpt lat="45.88821" lon="4.61505">
        <ele>223.21126</ele>
        <time>2023-11-26T14:41:40.000Z</time>
      </trkpt>
      <trkpt lat="45.8882" lon="4.61512">
        <ele>223.20706</ele>
        <time>2023-11-26T14:41:41.000Z</time>
      </trkpt>
      <trkpt lat="45.88817" lon="4.6152">
        <ele>223.22664</ele>
        <time>2023-11-26T14:41:42.000Z</time>
      </trkpt>
      <trkpt lat="45.88815" lon="4.61527">
        <ele>223.14925</ele>
        <time>2023-11-26T14:41:43.000Z</time>
      </trkpt>
      <trkpt lat="45.88812" lon="4.61534">
        <ele>223.14888</ele>
        <time>2023-11-26T14:41:44.000Z</time>
      </trkpt>
      <trkpt lat="45.8881" lon="4.61541">
        <ele>223.22168</ele>
        <time>2023-11-26T14:41:45.000Z</time>
      </trkpt>
      <trkpt lat="45.88807" lon="4.61547">
        <ele>223.34294</ele>
        <time>2023-11-26T14:41:46.000Z</time>
      </trkpt>
      <trkpt lat="45.88804" lon="4.61555">
        <ele>223.44156</ele>
        <time>2023-11-26T14:41:47.000Z</time>
      </trkpt>
      <trkpt lat="45.88802" lon="4.61561">
        <ele>223.47087</ele>
        <time>2023-11-26T14:41:48.000Z</time>
      </trkpt>
      <trkpt lat="45.888" lon="4.61568">
        <ele>223.5627</ele>
        <time>2023-11-26T14:41:49.000Z</time>
      </trkpt>
      <trkpt lat="45.88797" lon="4.61574">
        <ele>223.70432</ele>
        <time>2023-11-26T14:41:50.000Z</time>
      </trkpt>
      <trkpt lat="45.88795" lon="4.61582">
        <ele>223.88171</ele>
        <time>2023-11-26T14:41:51.000Z</time>
      </trkpt>
      <trkpt lat="45.88792" lon="4.61589">
        <ele>224.05315</ele>
        <time>2023-11-26T14:41:52.000Z</time>
      </trkpt>
      <trkpt lat="45.8879" lon="4.61597">
        <ele>224.20773</ele>
        <time>2023-11-26T14:41:53.000Z</time>
      </trkpt>
      <trkpt lat="45.88788" lon="4.61605">
        <ele>224.40247</ele>
        <time>2023-11-26T14:41:54.000Z</time>
      </trkpt>
      <trkpt lat="45.88785" lon="4.61612">
        <ele>224.50713</ele>
        <time>2023-11-26T14:41:55.000Z</time>
      </trkpt>
      <trkpt lat="45.88782" lon="4.61619">
        <ele>224.57768</ele>
        <time>2023-11-26T14:41:56.000Z</time>
      </trkpt>
      <trkpt lat="45.8878" lon="4.61626">
        <ele>224.65222</ele>
        <time>2023-11-26T14:41:57.000Z</time>
      </trkpt>
      <trkpt lat="45.88777" lon="4.61633">
        <ele>224.71753</ele>
        <time>2023-11-26T14:41:58.000Z</time>
      </trkpt>
      <trkpt lat="45.88774" lon="4.61641">
        <ele>224.76953</ele>
        <time>2023-11-26T14:41:59.000Z</time>
      </trkpt>
      <trkpt lat="45.88771" lon="4.61648">
        <ele>224.78191</ele>
        <time>2023-11-26T14:42:00.000Z</time>
      </trkpt>
      <trkpt lat="45.88769" lon="4.61656">
        <ele>224.75488</ele>
        <time>2023-11-26T14:42:01.000Z</time>
      </trkpt>
      <trkpt lat="45.88766" lon="4.61663">
        <ele>224.68558</ele>
        <time>2023-11-26T14:42:02.000Z</time>
      </trkpt>
      <trkpt lat="45.88763" lon="4.6167">
        <ele>224.59612</ele>
        <time>2023-11-26T14:42:03.000Z</time>
      </trkpt>
      <trkpt lat="45.8876" lon="4.61677">
        <ele>224.49728</ele>
        <time>2023-11-26T14:42:04.000Z</time>
      </trkpt>
      <trkpt lat="45.88758" lon="4.61684">
        <ele>224.43391</ele>
        <time>2023-11-26T14:42:05.000Z</time>
      </trkpt>
      <trkpt lat="45.88756" lon="4.61691">
        <ele>224.37651</ele>
        <time>2023-11-26T14:42:06.000Z</time>
      </trkpt>
      <trkpt lat="45.88753" lon="4.61698">
        <ele>224.35544</ele>
        <time>2023-11-26T14:42:07.000Z</time>
      </trkpt>
      <trkpt lat="45.8875" lon="4.61704">
        <ele>224.37273</ele>
        <time>2023-11-26T14:42:08.000Z</time>
      </trkpt>
      <trkpt lat="45.88748" lon="4.61711">
        <ele>224.31279</ele>
        <time>2023-11-26T14:42:09.000Z</time>
      </trkpt>
      <trkpt lat="45.88745" lon="4.61718">
        <ele>224.22037</ele>
        <time>2023-11-26T14:42:10.000Z</time>
      </trkpt>
      <trkpt lat="45.88742" lon="4.61725">
        <ele>224.06775</ele>
        <time>2023-11-26T14:42:11.000Z</time>
      </trkpt>
      <trkpt lat="45.8874" lon="4.61731">
        <ele>223.90173</ele>
        <time>2023-11-26T14:42:12.000Z</time>
      </trkpt>
      <trkpt lat="45.88738" lon="4.61739">
        <ele>223.85129</ele>
        <time>2023-11-26T14:42:13.000Z</time>
      </trkpt>
      <trkpt lat="45.88734" lon="4.61746">
        <ele>223.73576</ele>
        <time>2023-11-26T14:42:14.000Z</time>
      </trkpt>
      <trkpt lat="45.88732" lon="4.61754">
        <ele>223.61905</ele>
        <time>2023-11-26T14:42:15.000Z</time>
      </trkpt>
      <trkpt lat="45.8873" lon="4.61761">
        <ele>223.50887</ele>
        <time>2023-11-26T14:42:16.000Z</time>
      </trkpt>
      <trkpt lat="45.88727" lon="4.61768">
        <ele>223.43045</ele>
        <time>2023-11-26T14:42:17.000Z</time>
      </trkpt>
      <trkpt lat="45.88725" lon="4.61775">
        <ele>223.30928</ele>
        <time>2023-11-26T14:42:18.000Z</time>
      </trkpt>
      <trkpt lat="45.88723" lon="4.61784">
        <ele>223.20882</ele>
        <time>2023-11-26T14:42:19.000Z</time>
      </trkpt>
      <trkpt lat="45.8872" lon="4.61792">
        <ele>223.06845</ele>
        <time>2023-11-26T14:42:20.000Z</time>
      </trkpt>
      <trkpt lat="45.88717" lon="4.61799">
        <ele>222.92007</ele>
        <time>2023-11-26T14:42:21.000Z</time>
      </trkpt>
      <trkpt lat="45.88715" lon="4.61807">
        <ele>222.78763</ele>
        <time>2023-11-26T14:42:22.000Z</time>
      </trkpt>
      <trkpt lat="45.88712" lon="4.61814">
        <ele>222.71078</ele>
        <time>2023-11-26T14:42:23.000Z</time>
      </trkpt>
      <trkpt lat="45.8871" lon="4.61823">
        <ele>222.61551</ele>
        <time>2023-11-26T14:42:24.000Z</time>
      </trkpt>
      <trkpt lat="45.88709" lon="4.61829">
        <ele>222.50647</ele>
        <time>2023-11-26T14:42:25.000Z</time>
      </trkpt>
      <trkpt lat="45.88706" lon="4.61838">
        <ele>222.35425</ele>
        <time>2023-11-26T14:42:26.000Z</time>
      </trkpt>
      <trkpt lat="45.88704" lon="4.61846">
        <ele>222.20203</ele>
        <time>2023-11-26T14:42:27.000Z</time>
      </trkpt>
      <trkpt lat="45.88702" lon="4.61854">
        <ele>222.05301</ele>
        <time>2023-11-26T14:42:28.000Z</time>
      </trkpt>
      <trkpt lat="45.88699" lon="4.61861">
        <ele>221.95557</ele>
        <time>2023-11-26T14:42:29.000Z</time>
      </trkpt>
      <trkpt lat="45.88698" lon="4.6187">
        <ele>221.84082</ele>
        <time>2023-11-26T14:42:30.000Z</time>
      </trkpt>
      <trkpt lat="45.88696" lon="4.61877">
        <ele>221.75638</ele>
        <time>2023-11-26T14:42:31.000Z</time>
      </trkpt>
      <trkpt lat="45.88693" lon="4.61885">
        <ele>221.81033</ele>
        <time>2023-11-26T14:42:32.000Z</time>
      </trkpt>
      <trkpt lat="45.8869" lon="4.61892">
        <ele>221.75281</ele>
        <time>2023-11-26T14:42:33.000Z</time>
      </trkpt>
      <trkpt lat="45.88688" lon="4.619">
        <ele>221.72102</ele>
        <time>2023-11-26T14:42:34.000Z</time>
      </trkpt>
      <trkpt lat="45.88686" lon="4.61908">
        <ele>221.71541</ele>
        <time>2023-11-26T14:42:35.000Z</time>
      </trkpt>
      <trkpt lat="45.88683" lon="4.61917">
        <ele>221.69897</ele>
        <time>2023-11-26T14:42:36.000Z</time>
      </trkpt>
      <trkpt lat="45.88681" lon="4.61924">
        <ele>221.64861</ele>
        <time>2023-11-26T14:42:37.000Z</time>
      </trkpt>
      <trkpt lat="45.88678" lon="4.61933">
        <ele>221.64055</ele>
        <time>2023-11-26T14:42:38.000Z</time>
      </trkpt>
      <trkpt lat="45.88676" lon="4.61941">
        <ele>221.58768</ele>
        <time>2023-11-26T14:42:39.000Z</time>
      </trkpt>
      <trkpt lat="45.88674" lon="4.61948">
        <ele>221.54407</ele>
        <time>2023-11-26T14:42:40.000Z</time>
      </trkpt>
      <trkpt lat="45.88672" lon="4.61956">
        <ele>221.47969</ele>
        <time>2023-11-26T14:42:41.000Z</time>
      </trkpt>
      <trkpt lat="45.88669" lon="4.61963">
        <ele>221.39136</ele>
        <time>2023-11-26T14:42:42.000Z</time>
      </trkpt>
      <trkpt lat="45.88667" lon="4.61972">
        <ele>221.30737</ele>
        <time>2023-11-26T14:42:43.000Z</time>
      </trkpt>
      <trkpt lat="45.88665" lon="4.6198">
        <ele>221.26364</ele>
        <time>2023-11-26T14:42:44.000Z</time>
      </trkpt>
      <trkpt lat="45.88663" lon="4.61988">
        <ele>221.19839</ele>
        <time>2023-11-26T14:42:45.000Z</time>
      </trkpt>
      <trkpt lat="45.8866" lon="4.61996">
        <ele>221.1748</ele>
        <time>2023-11-26T14:42:46.000Z</time>
      </trkpt>
      <trkpt lat="45.88658" lon="4.62003">
        <ele>221.1709</ele>
        <time>2023-11-26T14:42:47.000Z</time>
      </trkpt>
      <trkpt lat="45.88655" lon="4.62011">
        <ele>221.18314</ele>
        <time>2023-11-26T14:42:48.000Z</time>
      </trkpt>
      <trkpt lat="45.88653" lon="4.6202">
        <ele>221.18942</ele>
        <time>2023-11-26T14:42:49.000Z</time>
      </trkpt>
      <trkpt lat="45.88649" lon="4.62028">
        <ele>221.19695</ele>
        <time>2023-11-26T14:42:50.000Z</time>
      </trkpt>
      <trkpt lat="45.88646" lon="4.62036">
        <ele>221.23013</ele>
        <time>2023-11-26T14:42:51.000Z</time>
      </trkpt>
      <trkpt lat="45.88643" lon="4.62043">
        <ele>221.14648</ele>
        <time>2023-11-26T14:42:52.000Z</time>
      </trkpt>
      <trkpt lat="45.88641" lon="4.62051">
        <ele>221.10811</ele>
        <time>2023-11-26T14:42:53.000Z</time>
      </trkpt>
      <trkpt lat="45.88638" lon="4.62058">
        <ele>221.09329</ele>
        <time>2023-11-26T14:42:54.000Z</time>
      </trkpt>
      <trkpt lat="45.88635" lon="4.62064">
        <ele>221.05412</ele>
        <time>2023-11-26T14:42:55.000Z</time>
      </trkpt>
      <trkpt lat="45.88631" lon="4.62071">
        <ele>221.04456</ele>
        <time>2023-11-26T14:42:56.000Z</time>
      </trkpt>
      <trkpt lat="45.88628" lon="4.62077">
        <ele>221.02698</ele>
        <time>2023-11-26T14:42:57.000Z</time>
      </trkpt>
      <trkpt lat="45.88625" lon="4.62085">
        <ele>221.04282</ele>
        <time>2023-11-26T14:42:58.000Z</time>
      </trkpt>
      <trkpt lat="45.88623" lon="4.62092">
        <ele>221.08736</ele>
        <time>2023-11-26T14:42:59.000Z</time>
      </trkpt>
      <trkpt lat="45.8862" lon="4.621">
        <ele>221.17435</ele>
        <time>2023-11-26T14:43:00.000Z</time>
      </trkpt>
      <trkpt lat="45.88617" lon="4.62107">
        <ele>221.27461</ele>
        <time>2023-11-26T14:43:01.000Z</time>
      </trkpt>
      <trkpt lat="45.88612" lon="4.62112">
        <ele>221.41731</ele>
        <time>2023-11-26T14:43:02.000Z</time>
      </trkpt>
      <trkpt lat="45.88607" lon="4.62113">
        <ele>221.56003</ele>
        <time>2023-11-26T14:43:03.000Z</time>
      </trkpt>
      <trkpt lat="45.88603" lon="4.62113">
        <ele>221.63481</ele>
        <time>2023-11-26T14:43:04.000Z</time>
      </trkpt>
      <trkpt lat="45.88599" lon="4.62111">
        <ele>221.69974</ele>
        <time>2023-11-26T14:43:05.000Z</time>
      </trkpt>
      <trkpt lat="45.88595" lon="4.62108">
        <ele>221.75017</ele>
        <time>2023-11-26T14:43:06.000Z</time>
      </trkpt>
      <trkpt lat="45.8859" lon="4.62105">
        <ele>221.76743</ele>
        <time>2023-11-26T14:43:07.000Z</time>
      </trkpt>
      <trkpt lat="45.88584" lon="4.62101">
        <ele>221.76006</ele>
        <time>2023-11-26T14:43:08.000Z</time>
      </trkpt>
      <trkpt lat="45.8858" lon="4.62098">
        <ele>221.74968</ele>
        <time>2023-11-26T14:43:09.000Z</time>
      </trkpt>
      <trkpt lat="45.88575" lon="4.62092">
        <ele>221.77168</ele>
        <time>2023-11-26T14:43:10.000Z</time>
      </trkpt>
      <trkpt lat="45.8857" lon="4.62088">
        <ele>221.80086</ele>
        <time>2023-11-26T14:43:11.000Z</time>
      </trkpt>
      <trkpt lat="45.88565" lon="4.62083">
        <ele>221.80933</ele>
        <time>2023-11-26T14:43:12.000Z</time>
      </trkpt>
      <trkpt lat="45.8856" lon="4.62078">
        <ele>221.79187</ele>
        <time>2023-11-26T14:43:13.000Z</time>
      </trkpt>
      <trkpt lat="45.88555" lon="4.62075">
        <ele>221.77023</ele>
        <time>2023-11-26T14:43:14.000Z</time>
      </trkpt>
      <trkpt lat="45.8855" lon="4.62071">
        <ele>221.78308</ele>
        <time>2023-11-26T14:43:15.000Z</time>
      </trkpt>
      <trkpt lat="45.88544" lon="4.62066">
        <ele>221.77292</ele>
        <time>2023-11-26T14:43:16.000Z</time>
      </trkpt>
      <trkpt lat="45.8854" lon="4.62062">
        <ele>221.77234</ele>
        <time>2023-11-26T14:43:17.000Z</time>
      </trkpt>
      <trkpt lat="45.88534" lon="4.62057">
        <ele>221.71468</ele>
        <time>2023-11-26T14:43:18.000Z</time>
      </trkpt>
      <trkpt lat="45.88529" lon="4.62054">
        <ele>221.66679</ele>
        <time>2023-11-26T14:43:19.000Z</time>
      </trkpt>
      <trkpt lat="45.88524" lon="4.6205">
        <ele>221.65498</ele>
        <time>2023-11-26T14:43:20.000Z</time>
      </trkpt>
      <trkpt lat="45.88519" lon="4.62046">
        <ele>221.64316</ele>
        <time>2023-11-26T14:43:21.000Z</time>
      </trkpt>
      <trkpt lat="45.88514" lon="4.62041">
        <ele>221.6104</ele>
        <time>2023-11-26T14:43:22.000Z</time>
      </trkpt>
      <trkpt lat="45.8851" lon="4.62036">
        <ele>221.52164</ele>
        <time>2023-11-26T14:43:23.000Z</time>
      </trkpt>
      <trkpt lat="45.88506" lon="4.62033">
        <ele>221.46457</ele>
        <time>2023-11-26T14:43:24.000Z</time>
      </trkpt>
      <trkpt lat="45.88503" lon="4.62029">
        <ele>221.38937</ele>
        <time>2023-11-26T14:43:25.000Z</time>
      </trkpt>
      <trkpt lat="45.885" lon="4.62025">
        <ele>221.28458</ele>
        <time>2023-11-26T14:43:26.000Z</time>
      </trkpt>
      <trkpt lat="45.88496" lon="4.62023">
        <ele>221.19649</ele>
        <time>2023-11-26T14:43:27.000Z</time>
      </trkpt>
      <trkpt lat="45.88492" lon="4.62022">
        <ele>221.09631</ele>
        <time>2023-11-26T14:43:28.000Z</time>
      </trkpt>
      <trkpt lat="45.88488" lon="4.62023">
        <ele>221.04582</ele>
        <time>2023-11-26T14:43:29.000Z</time>
      </trkpt>
      <trkpt lat="45.88486" lon="4.62027">
        <ele>221.00253</ele>
        <time>2023-11-26T14:43:30.000Z</time>
      </trkpt>
      <trkpt lat="45.88484" lon="4.6203">
        <ele>220.92888</ele>
        <time>2023-11-26T14:43:31.000Z</time>
      </trkpt>
      <trkpt lat="45.88481" lon="4.62033">
        <ele>220.8689</ele>
        <time>2023-11-26T14:43:32.000Z</time>
      </trkpt>
      <trkpt lat="45.88479" lon="4.62037">
        <ele>220.81931</ele>
        <time>2023-11-26T14:43:33.000Z</time>
      </trkpt>
      <trkpt lat="45.88476" lon="4.6204">
        <ele>220.77744</ele>
        <time>2023-11-26T14:43:34.000Z</time>
      </trkpt>
      <trkpt lat="45.88473" lon="4.62042">
        <ele>220.72409</ele>
        <time>2023-11-26T14:43:35.000Z</time>
      </trkpt>
      <trkpt lat="45.88471" lon="4.62045">
        <ele>220.65593</ele>
        <time>2023-11-26T14:43:36.000Z</time>
      </trkpt>
      <trkpt lat="45.88469" lon="4.62047">
        <ele>220.59988</ele>
        <time>2023-11-26T14:43:37.000Z</time>
      </trkpt>
      <trkpt lat="45.88466" lon="4.6205">
        <ele>220.56258</ele>
        <time>2023-11-26T14:43:38.000Z</time>
      </trkpt>
      <trkpt lat="45.88464" lon="4.62053">
        <ele>220.53772</ele>
        <time>2023-11-26T14:43:39.000Z</time>
      </trkpt>
      <trkpt lat="45.88461" lon="4.62056">
        <ele>220.45694</ele>
        <time>2023-11-26T14:43:40.000Z</time>
      </trkpt>
      <trkpt lat="45.88459" lon="4.62059">
        <ele>220.43948</ele>
        <time>2023-11-26T14:43:41.000Z</time>
      </trkpt>
      <trkpt lat="45.88456" lon="4.62062">
        <ele>220.4165</ele>
        <time>2023-11-26T14:43:42.000Z</time>
      </trkpt>
      <trkpt lat="45.88453" lon="4.62065">
        <ele>220.39363</ele>
        <time>2023-11-26T14:43:43.000Z</time>
      </trkpt>
      <trkpt lat="45.8845" lon="4.62068">
        <ele>220.36661</ele>
        <time>2023-11-26T14:43:44.000Z</time>
      </trkpt>
      <trkpt lat="45.88447" lon="4.62071">
        <ele>220.35808</ele>
        <time>2023-11-26T14:43:45.000Z</time>
      </trkpt>
      <trkpt lat="45.88444" lon="4.62074">
        <ele>220.3793</ele>
        <time>2023-11-26T14:43:46.000Z</time>
      </trkpt>
      <trkpt lat="45.88442" lon="4.62078">
        <ele>220.3967</ele>
        <time>2023-11-26T14:43:47.000Z</time>
      </trkpt>
      <trkpt lat="45.88439" lon="4.62081">
        <ele>220.44316</ele>
        <time>2023-11-26T14:43:48.000Z</time>
      </trkpt>
      <trkpt lat="45.88436" lon="4.62084">
        <ele>220.42419</ele>
        <time>2023-11-26T14:43:49.000Z</time>
      </trkpt>
      <trkpt lat="45.88434" lon="4.62087">
        <ele>220.38554</ele>
        <time>2023-11-26T14:43:50.000Z</time>
      </trkpt>
      <trkpt lat="45.88432" lon="4.6209">
        <ele>220.36287</ele>
        <time>2023-11-26T14:43:51.000Z</time>
      </trkpt>
      <trkpt lat="45.8843" lon="4.62092">
        <ele>220.33884</ele>
        <time>2023-11-26T14:43:52.000Z</time>
      </trkpt>
      <trkpt lat="45.88428" lon="4.62095">
        <ele>220.33682</ele>
        <time>2023-11-26T14:43:53.000Z</time>
      </trkpt>
      <trkpt lat="45.88426" lon="4.62097">
        <ele>220.32687</ele>
        <time>2023-11-26T14:43:54.000Z</time>
      </trkpt>
      <trkpt lat="45.88424" lon="4.62099">
        <ele>220.32613</ele>
        <time>2023-11-26T14:43:56.000Z</time>
      </trkpt>
      <trkpt lat="45.88425" lon="4.621">
        <ele>220.19209</ele>
        <time>2023-11-26T14:46:43.000Z</time>
      </trkpt>
      <trkpt lat="45.88422" lon="4.62099">
        <ele>220.03658</ele>
        <time>2023-11-26T14:47:11.000Z</time>
      </trkpt>
      <trkpt lat="45.88421" lon="4.62101">
        <ele>219.96489</ele>
        <time>2023-11-26T14:47:17.000Z</time>
      </trkpt>
      <trkpt lat="45.88419" lon="4.62102">
        <ele>219.92175</ele>
        <time>2023-11-26T14:47:28.000Z</time>
      </trkpt>
      <trkpt lat="45.88416" lon="4.62103">
        <ele>219.8654</ele>
        <time>2023-11-26T14:47:30.000Z</time>
      </trkpt>
      <trkpt lat="45.88414" lon="4.62105">
        <ele>219.76855</ele>
        <time>2023-11-26T14:47:31.000Z</time>
      </trkpt>
      <trkpt lat="45.88412" lon="4.62107">
        <ele>219.6886</ele>
        <time>2023-11-26T14:47:32.000Z</time>
      </trkpt>
      <trkpt lat="45.8841" lon="4.62109">
        <ele>219.61975</ele>
        <time>2023-11-26T14:47:33.000Z</time>
      </trkpt>
      <trkpt lat="45.88408" lon="4.62111">
        <ele>219.55696</ele>
        <time>2023-11-26T14:47:34.000Z</time>
      </trkpt>
      <trkpt lat="45.88406" lon="4.62113">
        <ele>219.48738</ele>
        <time>2023-11-26T14:47:35.000Z</time>
      </trkpt>
      <trkpt lat="45.88403" lon="4.62115">
        <ele>219.40605</ele>
        <time>2023-11-26T14:47:36.000Z</time>
      </trkpt>
      <trkpt lat="45.88401" lon="4.62118">
        <ele>219.35025</ele>
        <time>2023-11-26T14:47:37.000Z</time>
      </trkpt>
      <trkpt lat="45.884" lon="4.62121">
        <ele>219.29851</ele>
        <time>2023-11-26T14:47:38.000Z</time>
      </trkpt>
      <trkpt lat="45.88399" lon="4.62124">
        <ele>219.2457</ele>
        <time>2023-11-26T14:47:39.000Z</time>
      </trkpt>
      <trkpt lat="45.88398" lon="4.62127">
        <ele>219.21297</ele>
        <time>2023-11-26T14:47:40.000Z</time>
      </trkpt>
      <trkpt lat="45.88397" lon="4.62131">
        <ele>219.1761</ele>
        <time>2023-11-26T14:47:41.000Z</time>
      </trkpt>
      <trkpt lat="45.88396" lon="4.62135">
        <ele>219.12576</ele>
        <time>2023-11-26T14:47:42.000Z</time>
      </trkpt>
      <trkpt lat="45.88395" lon="4.62139">
        <ele>219.07217</ele>
        <time>2023-11-26T14:47:43.000Z</time>
      </trkpt>
      <trkpt lat="45.88393" lon="4.62143">
        <ele>218.9913</ele>
        <time>2023-11-26T14:47:44.000Z</time>
      </trkpt>
      <trkpt lat="45.88392" lon="4.62148">
        <ele>218.89865</ele>
        <time>2023-11-26T14:47:45.000Z</time>
      </trkpt>
      <trkpt lat="45.8839" lon="4.62153">
        <ele>219.01802</ele>
        <time>2023-11-26T14:47:46.000Z</time>
      </trkpt>
      <trkpt lat="45.88389" lon="4.62158">
        <ele>219.09631</ele>
        <time>2023-11-26T14:47:47.000Z</time>
      </trkpt>
      <trkpt lat="45.88387" lon="4.62164">
        <ele>219.11104</ele>
        <time>2023-11-26T14:47:48.000Z</time>
      </trkpt>
      <trkpt lat="45.88386" lon="4.62169">
        <ele>219.07451</ele>
        <time>2023-11-26T14:47:49.000Z</time>
      </trkpt>
      <trkpt lat="45.88385" lon="4.62175">
        <ele>219.06062</ele>
        <time>2023-11-26T14:47:50.000Z</time>
      </trkpt>
      <trkpt lat="45.88384" lon="4.62181">
        <ele>219.0477</ele>
        <time>2023-11-26T14:47:51.000Z</time>
      </trkpt>
      <trkpt lat="45.88383" lon="4.62187">
        <ele>219.03378</ele>
        <time>2023-11-26T14:47:52.000Z</time>
      </trkpt>
      <trkpt lat="45.88381" lon="4.62193">
        <ele>218.99838</ele>
        <time>2023-11-26T14:47:53.000Z</time>
      </trkpt>
      <trkpt lat="45.8838" lon="4.622">
        <ele>218.9604</ele>
        <time>2023-11-26T14:47:54.000Z</time>
      </trkpt>
      <trkpt lat="45.88378" lon="4.62206">
        <ele>218.8763</ele>
        <time>2023-11-26T14:47:55.000Z</time>
      </trkpt>
      <trkpt lat="45.88376" lon="4.62213">
        <ele>218.82974</ele>
        <time>2023-11-26T14:47:56.000Z</time>
      </trkpt>
      <trkpt lat="45.88375" lon="4.62221">
        <ele>218.73447</ele>
        <time>2023-11-26T14:47:57.000Z</time>
      </trkpt>
      <trkpt lat="45.88374" lon="4.62227">
        <ele>218.6066</ele>
        <time>2023-11-26T14:47:58.000Z</time>
      </trkpt>
      <trkpt lat="45.88373" lon="4.62233">
        <ele>218.52429</ele>
        <time>2023-11-26T14:47:59.000Z</time>
      </trkpt>
      <trkpt lat="45.88372" lon="4.62238">
        <ele>218.4294</ele>
        <time>2023-11-26T14:48:00.000Z</time>
      </trkpt>
      <trkpt lat="45.8837" lon="4.62244">
        <ele>218.35587</ele>
        <time>2023-11-26T14:48:01.000Z</time>
      </trkpt>
      <trkpt lat="45.88368" lon="4.62251">
        <ele>218.29196</ele>
        <time>2023-11-26T14:48:02.000Z</time>
      </trkpt>
      <trkpt lat="45.88368" lon="4.62257">
        <ele>218.22574</ele>
        <time>2023-11-26T14:48:03.000Z</time>
      </trkpt>
      <trkpt lat="45.88366" lon="4.62263">
        <ele>218.17278</ele>
        <time>2023-11-26T14:48:04.000Z</time>
      </trkpt>
      <trkpt lat="45.88365" lon="4.62269">
        <ele>218.14197</ele>
        <time>2023-11-26T14:48:05.000Z</time>
      </trkpt>
      <trkpt lat="45.88363" lon="4.62275">
        <ele>218.08647</ele>
        <time>2023-11-26T14:48:06.000Z</time>
      </trkpt>
      <trkpt lat="45.88361" lon="4.62281">
        <ele>218.0533</ele>
        <time>2023-11-26T14:48:07.000Z</time>
      </trkpt>
      <trkpt lat="45.88359" lon="4.62288">
        <ele>218.01863</ele>
        <time>2023-11-26T14:48:08.000Z</time>
      </trkpt>
      <trkpt lat="45.88357" lon="4.62294">
        <ele>218.06955</ele>
        <time>2023-11-26T14:48:09.000Z</time>
      </trkpt>
      <trkpt lat="45.88355" lon="4.623">
        <ele>218.14156</ele>
        <time>2023-11-26T14:48:10.000Z</time>
      </trkpt>
      <trkpt lat="45.88353" lon="4.62307">
        <ele>218.20866</ele>
        <time>2023-11-26T14:48:11.000Z</time>
      </trkpt>
      <trkpt lat="45.88351" lon="4.62313">
        <ele>218.25969</ele>
        <time>2023-11-26T14:48:12.000Z</time>
      </trkpt>
      <trkpt lat="45.88349" lon="4.62319">
        <ele>218.29631</ele>
        <time>2023-11-26T14:48:13.000Z</time>
      </trkpt>
      <trkpt lat="45.88349" lon="4.62326">
        <ele>218.36162</ele>
        <time>2023-11-26T14:48:14.000Z</time>
      </trkpt>
      <trkpt lat="45.88347" lon="4.62332">
        <ele>218.47185</ele>
        <time>2023-11-26T14:48:15.000Z</time>
      </trkpt>
      <trkpt lat="45.88345" lon="4.62339">
        <ele>218.54024</ele>
        <time>2023-11-26T14:48:16.000Z</time>
      </trkpt>
      <trkpt lat="45.88343" lon="4.62346">
        <ele>218.62326</ele>
        <time>2023-11-26T14:48:17.000Z</time>
      </trkpt>
      <trkpt lat="45.88341" lon="4.62352">
        <ele>218.71341</ele>
        <time>2023-11-26T14:48:18.000Z</time>
      </trkpt>
      <trkpt lat="45.8834" lon="4.62359">
        <ele>218.79736</ele>
        <time>2023-11-26T14:48:19.000Z</time>
      </trkpt>
      <trkpt lat="45.88338" lon="4.62364">
        <ele>218.8956</ele>
        <time>2023-11-26T14:48:20.000Z</time>
      </trkpt>
      <trkpt lat="45.88336" lon="4.62371">
        <ele>218.94724</ele>
        <time>2023-11-26T14:48:21.000Z</time>
      </trkpt>
      <trkpt lat="45.88335" lon="4.62378">
        <ele>218.98685</ele>
        <time>2023-11-26T14:48:22.000Z</time>
      </trkpt>
      <trkpt lat="45.88333" lon="4.62384">
        <ele>219.01729</ele>
        <time>2023-11-26T14:48:23.000Z</time>
      </trkpt>
      <trkpt lat="45.88332" lon="4.6239">
        <ele>219.08171</ele>
        <time>2023-11-26T14:48:24.000Z</time>
      </trkpt>
      <trkpt lat="45.8833" lon="4.62397">
        <ele>219.116</ele>
        <time>2023-11-26T14:48:25.000Z</time>
      </trkpt>
      <trkpt lat="45.88328" lon="4.62403">
        <ele>219.09221</ele>
        <time>2023-11-26T14:48:26.000Z</time>
      </trkpt>
      <trkpt lat="45.88327" lon="4.6241">
        <ele>219.08842</ele>
        <time>2023-11-26T14:48:27.000Z</time>
      </trkpt>
      <trkpt lat="45.88325" lon="4.62416">
        <ele>219.04732</ele>
        <time>2023-11-26T14:48:28.000Z</time>
      </trkpt>
      <trkpt lat="45.88323" lon="4.62423">
        <ele>218.94186</ele>
        <time>2023-11-26T14:48:29.000Z</time>
      </trkpt>
      <trkpt lat="45.88321" lon="4.62429">
        <ele>218.86292</ele>
        <time>2023-11-26T14:48:30.000Z</time>
      </trkpt>
      <trkpt lat="45.88319" lon="4.62437">
        <ele>218.80765</ele>
        <time>2023-11-26T14:48:31.000Z</time>
      </trkpt>
      <trkpt lat="45.88318" lon="4.62444">
        <ele>218.73434</ele>
        <time>2023-11-26T14:48:32.000Z</time>
      </trkpt>
      <trkpt lat="45.88318" lon="4.6245">
        <ele>218.70432</ele>
        <time>2023-11-26T14:48:33.000Z</time>
      </trkpt>
      <trkpt lat="45.88316" lon="4.62457">
        <ele>218.67526</ele>
        <time>2023-11-26T14:48:34.000Z</time>
      </trkpt>
      <trkpt lat="45.88314" lon="4.62464">
        <ele>218.62979</ele>
        <time>2023-11-26T14:48:35.000Z</time>
      </trkpt>
      <trkpt lat="45.88312" lon="4.6247">
        <ele>218.56465</ele>
        <time>2023-11-26T14:48:36.000Z</time>
      </trkpt>
      <trkpt lat="45.8831" lon="4.62478">
        <ele>218.49561</ele>
        <time>2023-11-26T14:48:37.000Z</time>
      </trkpt>
      <trkpt lat="45.88307" lon="4.62486">
        <ele>218.42111</ele>
        <time>2023-11-26T14:48:38.000Z</time>
      </trkpt>
      <trkpt lat="45.88306" lon="4.62493">
        <ele>218.37772</ele>
        <time>2023-11-26T14:48:39.000Z</time>
      </trkpt>
      <trkpt lat="45.88304" lon="4.625">
        <ele>218.31711</ele>
        <time>2023-11-26T14:48:40.000Z</time>
      </trkpt>
      <trkpt lat="45.88303" lon="4.62507">
        <ele>218.26778</ele>
        <time>2023-11-26T14:48:41.000Z</time>
      </trkpt>
      <trkpt lat="45.88301" lon="4.62513">
        <ele>218.2197</ele>
        <time>2023-11-26T14:48:42.000Z</time>
      </trkpt>
      <trkpt lat="45.88298" lon="4.62519">
        <ele>218.13535</ele>
        <time>2023-11-26T14:48:43.000Z</time>
      </trkpt>
      <trkpt lat="45.88296" lon="4.62526">
        <ele>218.01929</ele>
        <time>2023-11-26T14:48:44.000Z</time>
      </trkpt>
      <trkpt lat="45.88294" lon="4.62534">
        <ele>217.97627</ele>
        <time>2023-11-26T14:48:45.000Z</time>
      </trkpt>
      <trkpt lat="45.88292" lon="4.62541">
        <ele>217.93307</ele>
        <time>2023-11-26T14:48:46.000Z</time>
      </trkpt>
      <trkpt lat="45.8829" lon="4.62548">
        <ele>217.90268</ele>
        <time>2023-11-26T14:48:47.000Z</time>
      </trkpt>
      <trkpt lat="45.88289" lon="4.62556">
        <ele>217.9178</ele>
        <time>2023-11-26T14:48:48.000Z</time>
      </trkpt>
      <trkpt lat="45.88287" lon="4.62564">
        <ele>217.93198</ele>
        <time>2023-11-26T14:48:49.000Z</time>
      </trkpt>
      <trkpt lat="45.88286" lon="4.62571">
        <ele>217.9342</ele>
        <time>2023-11-26T14:48:50.000Z</time>
      </trkpt>
      <trkpt lat="45.88284" lon="4.62578">
        <ele>217.90413</ele>
        <time>2023-11-26T14:48:51.000Z</time>
      </trkpt>
      <trkpt lat="45.88282" lon="4.62585">
        <ele>217.9222</ele>
        <time>2023-11-26T14:48:52.000Z</time>
      </trkpt>
      <trkpt lat="45.88279" lon="4.62593">
        <ele>217.9194</ele>
        <time>2023-11-26T14:48:53.000Z</time>
      </trkpt>
      <trkpt lat="45.88277" lon="4.62601">
        <ele>217.87961</ele>
        <time>2023-11-26T14:48:54.000Z</time>
      </trkpt>
      <trkpt lat="45.88275" lon="4.62609">
        <ele>217.84763</ele>
        <time>2023-11-26T14:48:55.000Z</time>
      </trkpt>
      <trkpt lat="45.88273" lon="4.62617">
        <ele>217.85738</ele>
        <time>2023-11-26T14:48:56.000Z</time>
      </trkpt>
      <trkpt lat="45.88271" lon="4.62624">
        <ele>217.87593</ele>
        <time>2023-11-26T14:48:57.000Z</time>
      </trkpt>
      <trkpt lat="45.8827" lon="4.62632">
        <ele>217.8866</ele>
        <time>2023-11-26T14:48:58.000Z</time>
      </trkpt>
      <trkpt lat="45.88268" lon="4.6264">
        <ele>217.82869</ele>
        <time>2023-11-26T14:48:59.000Z</time>
      </trkpt>
      <trkpt lat="45.88267" lon="4.62647">
        <ele>217.82101</ele>
        <time>2023-11-26T14:49:00.000Z</time>
      </trkpt>
      <trkpt lat="45.88266" lon="4.62655">
        <ele>217.85506</ele>
        <time>2023-11-26T14:49:01.000Z</time>
      </trkpt>
      <trkpt lat="45.88264" lon="4.62663">
        <ele>217.91512</ele>
        <time>2023-11-26T14:49:02.000Z</time>
      </trkpt>
      <trkpt lat="45.88264" lon="4.62672">
        <ele>218.01797</ele>
        <time>2023-11-26T14:49:03.000Z</time>
      </trkpt>
      <trkpt lat="45.88263" lon="4.6268">
        <ele>218.14941</ele>
        <time>2023-11-26T14:49:04.000Z</time>
      </trkpt>
      <trkpt lat="45.88262" lon="4.62688">
        <ele>218.22566</ele>
        <time>2023-11-26T14:49:05.000Z</time>
      </trkpt>
      <trkpt lat="45.8826" lon="4.62697">
        <ele>218.32205</ele>
        <time>2023-11-26T14:49:06.000Z</time>
      </trkpt>
      <trkpt lat="45.88259" lon="4.62705">
        <ele>218.39368</ele>
        <time>2023-11-26T14:49:07.000Z</time>
      </trkpt>
      <trkpt lat="45.88257" lon="4.62713">
        <ele>218.44267</ele>
        <time>2023-11-26T14:49:08.000Z</time>
      </trkpt>
      <trkpt lat="45.88256" lon="4.62721">
        <ele>218.46338</ele>
        <time>2023-11-26T14:49:09.000Z</time>
      </trkpt>
      <trkpt lat="45.88255" lon="4.62729">
        <ele>218.41362</ele>
        <time>2023-11-26T14:49:10.000Z</time>
      </trkpt>
      <trkpt lat="45.88254" lon="4.62736">
        <ele>218.39658</ele>
        <time>2023-11-26T14:49:11.000Z</time>
      </trkpt>
      <trkpt lat="45.88252" lon="4.62745">
        <ele>218.33102</ele>
        <time>2023-11-26T14:49:12.000Z</time>
      </trkpt>
      <trkpt lat="45.88252" lon="4.62752">
        <ele>218.30063</ele>
        <time>2023-11-26T14:49:13.000Z</time>
      </trkpt>
      <trkpt lat="45.88251" lon="4.6276">
        <ele>218.25529</ele>
        <time>2023-11-26T14:49:14.000Z</time>
      </trkpt>
      <trkpt lat="45.8825" lon="4.62767">
        <ele>218.24065</ele>
        <time>2023-11-26T14:49:15.000Z</time>
      </trkpt>
      <trkpt lat="45.8825" lon="4.62774">
        <ele>218.21919</ele>
        <time>2023-11-26T14:49:16.000Z</time>
      </trkpt>
      <trkpt lat="45.88249" lon="4.62782">
        <ele>218.24406</ele>
        <time>2023-11-26T14:49:17.000Z</time>
      </trkpt>
      <trkpt lat="45.88248" lon="4.6279">
        <ele>218.27246</ele>
        <time>2023-11-26T14:49:18.000Z</time>
      </trkpt>
      <trkpt lat="45.88248" lon="4.62797">
        <ele>218.31042</ele>
        <time>2023-11-26T14:49:19.000Z</time>
      </trkpt>
      <trkpt lat="45.88246" lon="4.62804">
        <ele>218.3157</ele>
        <time>2023-11-26T14:49:20.000Z</time>
      </trkpt>
      <trkpt lat="45.88246" lon="4.62811">
        <ele>218.2957</ele>
        <time>2023-11-26T14:49:21.000Z</time>
      </trkpt>
      <trkpt lat="45.88246" lon="4.62817">
        <ele>218.27571</ele>
        <time>2023-11-26T14:49:22.000Z</time>
      </trkpt>
      <trkpt lat="45.88245" lon="4.62824">
        <ele>218.2345</ele>
        <time>2023-11-26T14:49:23.000Z</time>
      </trkpt>
      <trkpt lat="45.88245" lon="4.6283">
        <ele>218.17883</ele>
        <time>2023-11-26T14:49:24.000Z</time>
      </trkpt>
      <trkpt lat="45.88247" lon="4.62836">
        <ele>218.1237</ele>
        <time>2023-11-26T14:49:25.000Z</time>
      </trkpt>
      <trkpt lat="45.88251" lon="4.62841">
        <ele>218.07063</ele>
        <time>2023-11-26T14:49:26.000Z</time>
      </trkpt>
      <trkpt lat="45.88254" lon="4.62847">
        <ele>218.01274</ele>
        <time>2023-11-26T14:49:27.000Z</time>
      </trkpt>
      <trkpt lat="45.88258" lon="4.6285">
        <ele>217.93355</ele>
        <time>2023-11-26T14:49:28.000Z</time>
      </trkpt>
      <trkpt lat="45.88261" lon="4.62855">
        <ele>217.88736</ele>
        <time>2023-11-26T14:49:29.000Z</time>
      </trkpt>
      <trkpt lat="45.88265" lon="4.6286">
        <ele>217.90149</ele>
        <time>2023-11-26T14:49:30.000Z</time>
      </trkpt>
      <trkpt lat="45.88267" lon="4.62865">
        <ele>217.93552</ele>
        <time>2023-11-26T14:49:31.000Z</time>
      </trkpt>
      <trkpt lat="45.88266" lon="4.62871">
        <ele>217.99023</ele>
        <time>2023-11-26T14:49:32.000Z</time>
      </trkpt>
      <trkpt lat="45.88264" lon="4.62876">
        <ele>218.00986</ele>
        <time>2023-11-26T14:49:33.000Z</time>
      </trkpt>
      <trkpt lat="45.88262" lon="4.62881">
        <ele>218.00772</ele>
        <time>2023-11-26T14:49:34.000Z</time>
      </trkpt>
      <trkpt lat="45.88259" lon="4.62887">
        <ele>217.98227</ele>
        <time>2023-11-26T14:49:35.000Z</time>
      </trkpt>
      <trkpt lat="45.88255" lon="4.62893">
        <ele>217.93806</ele>
        <time>2023-11-26T14:49:36.000Z</time>
      </trkpt>
      <trkpt lat="45.88253" lon="4.62898">
        <ele>217.80562</ele>
        <time>2023-11-26T14:49:37.000Z</time>
      </trkpt>
      <trkpt lat="45.88249" lon="4.62903">
        <ele>217.68745</ele>
        <time>2023-11-26T14:49:38.000Z</time>
      </trkpt>
      <trkpt lat="45.88245" lon="4.62908">
        <ele>217.57097</ele>
        <time>2023-11-26T14:49:39.000Z</time>
      </trkpt>
      <trkpt lat="45.88243" lon="4.62913">
        <ele>217.48169</ele>
        <time>2023-11-26T14:49:40.000Z</time>
      </trkpt>
      <trkpt lat="45.8824" lon="4.62918">
        <ele>217.39389</ele>
        <time>2023-11-26T14:49:41.000Z</time>
      </trkpt>
      <trkpt lat="45.88237" lon="4.62923">
        <ele>217.31047</ele>
        <time>2023-11-26T14:49:42.000Z</time>
      </trkpt>
      <trkpt lat="45.88232" lon="4.62928">
        <ele>217.22583</ele>
        <time>2023-11-26T14:49:43.000Z</time>
      </trkpt>
      <trkpt lat="45.88229" lon="4.62933">
        <ele>217.15254</ele>
        <time>2023-11-26T14:49:44.000Z</time>
      </trkpt>
      <trkpt lat="45.88225" lon="4.62938">
        <ele>217.05127</ele>
        <time>2023-11-26T14:49:45.000Z</time>
      </trkpt>
      <trkpt lat="45.88219" lon="4.62942">
        <ele>216.94116</ele>
        <time>2023-11-26T14:49:46.000Z</time>
      </trkpt>
      <trkpt lat="45.88216" lon="4.62949">
        <ele>216.86203</ele>
        <time>2023-11-26T14:49:47.000Z</time>
      </trkpt>
      <trkpt lat="45.88212" lon="4.62955">
        <ele>216.82784</ele>
        <time>2023-11-26T14:49:48.000Z</time>
      </trkpt>
      <trkpt lat="45.8821" lon="4.62961">
        <ele>216.79219</ele>
        <time>2023-11-26T14:49:49.000Z</time>
      </trkpt>
      <trkpt lat="45.88208" lon="4.62967">
        <ele>216.76102</ele>
        <time>2023-11-26T14:49:50.000Z</time>
      </trkpt>
      <trkpt lat="45.88206" lon="4.62972">
        <ele>216.71762</ele>
        <time>2023-11-26T14:49:51.000Z</time>
      </trkpt>
      <trkpt lat="45.88203" lon="4.62977">
        <ele>216.65877</ele>
        <time>2023-11-26T14:49:52.000Z</time>
      </trkpt>
      <trkpt lat="45.88199" lon="4.62983">
        <ele>216.59868</ele>
        <time>2023-11-26T14:49:53.000Z</time>
      </trkpt>
      <trkpt lat="45.88198" lon="4.62985">
        <ele>216.60452</ele>
        <time>2023-11-26T14:49:54.000Z</time>
      </trkpt>
      <trkpt lat="45.88197" lon="4.62989">
        <ele>216.61519</ele>
        <time>2023-11-26T14:49:55.000Z</time>
      </trkpt>
      <trkpt lat="45.88195" lon="4.62993">
        <ele>216.63274</ele>
        <time>2023-11-26T14:49:56.000Z</time>
      </trkpt>
      <trkpt lat="45.88194" lon="4.62997">
        <ele>216.69646</ele>
        <time>2023-11-26T14:49:57.000Z</time>
      </trkpt>
      <trkpt lat="45.88194" lon="4.63001">
        <ele>216.86931</ele>
        <time>2023-11-26T14:49:59.000Z</time>
      </trkpt>
      <trkpt lat="45.88193" lon="4.63005">
        <ele>217.11035</ele>
        <time>2023-11-26T14:50:01.000Z</time>
      </trkpt>
      <trkpt lat="45.8819" lon="4.63007">
        <ele>217.28931</ele>
        <time>2023-11-26T14:50:03.000Z</time>
      </trkpt>
      <trkpt lat="45.88186" lon="4.63007">
        <ele>217.48862</ele>
        <time>2023-11-26T14:50:04.000Z</time>
      </trkpt>
      <trkpt lat="45.88183" lon="4.63005">
        <ele>217.64009</ele>
        <time>2023-11-26T14:50:05.000Z</time>
      </trkpt>
      <trkpt lat="45.88178" lon="4.63004">
        <ele>217.75691</ele>
        <time>2023-11-26T14:50:06.000Z</time>
      </trkpt>
      <trkpt lat="45.88173" lon="4.63003">
        <ele>217.87605</ele>
        <time>2023-11-26T14:50:07.000Z</time>
      </trkpt>
      <trkpt lat="45.88168" lon="4.63001">
        <ele>218.01338</ele>
        <time>2023-11-26T14:50:08.000Z</time>
      </trkpt>
      <trkpt lat="45.88162" lon="4.63001">
        <ele>218.14482</ele>
        <time>2023-11-26T14:50:09.000Z</time>
      </trkpt>
      <trkpt lat="45.88157" lon="4.63">
        <ele>218.2668</ele>
        <time>2023-11-26T14:50:10.000Z</time>
      </trkpt>
      <trkpt lat="45.88152" lon="4.62998">
        <ele>218.38493</ele>
        <time>2023-11-26T14:50:11.000Z</time>
      </trkpt>
      <trkpt lat="45.88147" lon="4.62996">
        <ele>218.47917</ele>
        <time>2023-11-26T14:50:12.000Z</time>
      </trkpt>
      <trkpt lat="45.88142" lon="4.62994">
        <ele>218.54594</ele>
        <time>2023-11-26T14:50:13.000Z</time>
      </trkpt>
      <trkpt lat="45.88137" lon="4.62992">
        <ele>218.60437</ele>
        <time>2023-11-26T14:50:14.000Z</time>
      </trkpt>
      <trkpt lat="45.88133" lon="4.62991">
        <ele>218.68152</ele>
        <time>2023-11-26T14:50:15.000Z</time>
      </trkpt>
      <trkpt lat="45.88128" lon="4.62989">
        <ele>218.74619</ele>
        <time>2023-11-26T14:50:16.000Z</time>
      </trkpt>
      <trkpt lat="45.88125" lon="4.62988">
        <ele>218.82805</ele>
        <time>2023-11-26T14:50:17.000Z</time>
      </trkpt>
      <trkpt lat="45.88121" lon="4.62987">
        <ele>218.94287</ele>
        <time>2023-11-26T14:50:18.000Z</time>
      </trkpt>
      <trkpt lat="45.88118" lon="4.62986">
        <ele>219.07385</ele>
        <time>2023-11-26T14:50:19.000Z</time>
      </trkpt>
      <trkpt lat="45.88113" lon="4.62985">
        <ele>219.17685</ele>
        <time>2023-11-26T14:50:20.000Z</time>
      </trkpt>
      <trkpt lat="45.8811" lon="4.62984">
        <ele>219.16682</ele>
        <time>2023-11-26T14:50:21.000Z</time>
      </trkpt>
      <trkpt lat="45.88107" lon="4.62983">
        <ele>219.13176</ele>
        <time>2023-11-26T14:50:22.000Z</time>
      </trkpt>
      <trkpt lat="45.88105" lon="4.6298">
        <ele>219.12805</ele>
        <time>2023-11-26T14:50:23.000Z</time>
      </trkpt>
      <trkpt lat="45.88102" lon="4.62978">
        <ele>219.12822</ele>
        <time>2023-11-26T14:50:24.000Z</time>
      </trkpt>
      <trkpt lat="45.88098" lon="4.62977">
        <ele>219.12119</ele>
        <time>2023-11-26T14:50:25.000Z</time>
      </trkpt>
      <trkpt lat="45.88094" lon="4.62973">
        <ele>219.16101</ele>
        <time>2023-11-26T14:50:26.000Z</time>
      </trkpt>
      <trkpt lat="45.88085" lon="4.62974">
        <ele>219.13545</ele>
        <time>2023-11-26T14:50:27.000Z</time>
      </trkpt>
      <trkpt lat="45.8808" lon="4.62973">
        <ele>219.10416</ele>
        <time>2023-11-26T14:50:28.000Z</time>
      </trkpt>
      <trkpt lat="45.88075" lon="4.62972">
        <ele>219.08041</ele>
        <time>2023-11-26T14:50:29.000Z</time>
      </trkpt>
      <trkpt lat="45.88071" lon="4.62972">
        <ele>219.01233</ele>
        <time>2023-11-26T14:50:30.000Z</time>
      </trkpt>
      <trkpt lat="45.88067" lon="4.62971">
        <ele>218.92598</ele>
        <time>2023-11-26T14:50:31.000Z</time>
      </trkpt>
      <trkpt lat="45.88062" lon="4.62972">
        <ele>218.84981</ele>
        <time>2023-11-26T14:50:32.000Z</time>
      </trkpt>
      <trkpt lat="45.8806" lon="4.62975">
        <ele>218.81839</ele>
        <time>2023-11-26T14:50:33.000Z</time>
      </trkpt>
      <trkpt lat="45.88058" lon="4.62982">
        <ele>218.76782</ele>
        <time>2023-11-26T14:50:34.000Z</time>
      </trkpt>
      <trkpt lat="45.88057" lon="4.62989">
        <ele>218.70499</ele>
        <time>2023-11-26T14:50:35.000Z</time>
      </trkpt>
      <trkpt lat="45.88057" lon="4.62995">
        <ele>218.63766</ele>
        <time>2023-11-26T14:50:36.000Z</time>
      </trkpt>
      <trkpt lat="45.88058" lon="4.63002">
        <ele>218.55801</ele>
        <time>2023-11-26T14:50:37.000Z</time>
      </trkpt>
      <trkpt lat="45.8806" lon="4.63008">
        <ele>218.46404</ele>
        <time>2023-11-26T14:50:38.000Z</time>
      </trkpt>
      <trkpt lat="45.88061" lon="4.63018">
        <ele>218.31841</ele>
        <time>2023-11-26T14:50:39.000Z</time>
      </trkpt>
      <trkpt lat="45.88063" lon="4.63026">
        <ele>218.18611</ele>
        <time>2023-11-26T14:50:40.000Z</time>
      </trkpt>
      <trkpt lat="45.88065" lon="4.63032">
        <ele>218.09009</ele>
        <time>2023-11-26T14:50:41.000Z</time>
      </trkpt>
      <trkpt lat="45.88068" lon="4.63038">
        <ele>217.95938</ele>
        <time>2023-11-26T14:50:42.000Z</time>
      </trkpt>
      <trkpt lat="45.88069" lon="4.63045">
        <ele>217.82878</ele>
        <time>2023-11-26T14:50:43.000Z</time>
      </trkpt>
      <trkpt lat="45.8807" lon="4.63051">
        <ele>217.68896</ele>
        <time>2023-11-26T14:50:44.000Z</time>
      </trkpt>
      <trkpt lat="45.88073" lon="4.63056">
        <ele>217.57935</ele>
        <time>2023-11-26T14:50:45.000Z</time>
      </trkpt>
      <trkpt lat="45.88076" lon="4.63061">
        <ele>217.5015</ele>
        <time>2023-11-26T14:50:46.000Z</time>
      </trkpt>
      <trkpt lat="45.88078" lon="4.63067">
        <ele>217.49414</ele>
        <time>2023-11-26T14:50:47.000Z</time>
      </trkpt>
      <trkpt lat="45.88083" lon="4.63071">
        <ele>217.55574</ele>
        <time>2023-11-26T14:50:48.000Z</time>
      </trkpt>
      <trkpt lat="45.88084" lon="4.63077">
        <ele>217.60359</ele>
        <time>2023-11-26T14:50:49.000Z</time>
      </trkpt>
      <trkpt lat="45.88086" lon="4.6308">
        <ele>217.69417</ele>
        <time>2023-11-26T14:50:50.000Z</time>
      </trkpt>
      <trkpt lat="45.88088" lon="4.63086">
        <ele>217.79272</ele>
        <time>2023-11-26T14:50:51.000Z</time>
      </trkpt>
      <trkpt lat="45.88089" lon="4.63091">
        <ele>217.8967</ele>
        <time>2023-11-26T14:50:52.000Z</time>
      </trkpt>
      <trkpt lat="45.88091" lon="4.63097">
        <ele>217.94901</ele>
        <time>2023-11-26T14:50:53.000Z</time>
      </trkpt>
      <trkpt lat="45.88093" lon="4.63102">
        <ele>218.01506</ele>
        <time>2023-11-26T14:50:54.000Z</time>
      </trkpt>
      <trkpt lat="45.88095" lon="4.63108">
        <ele>218.17168</ele>
        <time>2023-11-26T14:50:55.000Z</time>
      </trkpt>
      <trkpt lat="45.88099" lon="4.63116">
        <ele>218.34793</ele>
        <time>2023-11-26T14:50:56.000Z</time>
      </trkpt>
      <trkpt lat="45.88099" lon="4.63123">
        <ele>218.47177</ele>
        <time>2023-11-26T14:50:57.000Z</time>
      </trkpt>
      <trkpt lat="45.881" lon="4.63127">
        <ele>218.63235</ele>
        <time>2023-11-26T14:50:58.000Z</time>
      </trkpt>
      <trkpt lat="45.88101" lon="4.63135">
        <ele>218.81392</ele>
        <time>2023-11-26T14:50:59.000Z</time>
      </trkpt>
      <trkpt lat="45.88102" lon="4.63141">
        <ele>219.04837</ele>
        <time>2023-11-26T14:51:00.000Z</time>
      </trkpt>
      <trkpt lat="45.88102" lon="4.63148">
        <ele>219.22676</ele>
        <time>2023-11-26T14:51:01.000Z</time>
      </trkpt>
      <trkpt lat="45.88101" lon="4.63152">
        <ele>219.40742</ele>
        <time>2023-11-26T14:51:02.000Z</time>
      </trkpt>
      <trkpt lat="45.88101" lon="4.6316">
        <ele>219.58659</ele>
        <time>2023-11-26T14:51:03.000Z</time>
      </trkpt>
      <trkpt lat="45.88102" lon="4.63167">
        <ele>219.76973</ele>
        <time>2023-11-26T14:51:04.000Z</time>
      </trkpt>
      <trkpt lat="45.88102" lon="4.63176">
        <ele>219.96335</ele>
        <time>2023-11-26T14:51:05.000Z</time>
      </trkpt>
      <trkpt lat="45.88101" lon="4.63184">
        <ele>220.0629</ele>
        <time>2023-11-26T14:51:06.000Z</time>
      </trkpt>
      <trkpt lat="45.88102" lon="4.63192">
        <ele>220.11201</ele>
        <time>2023-11-26T14:51:07.000Z</time>
      </trkpt>
      <trkpt lat="45.88102" lon="4.63198">
        <ele>220.05795</ele>
        <time>2023-11-26T14:51:08.000Z</time>
      </trkpt>
      <trkpt lat="45.88102" lon="4.63205">
        <ele>220.02901</ele>
        <time>2023-11-26T14:51:09.000Z</time>
      </trkpt>
      <trkpt lat="45.88103" lon="4.63213">
        <ele>220.0502</ele>
        <time>2023-11-26T14:51:10.000Z</time>
      </trkpt>
      <trkpt lat="45.88104" lon="4.63221">
        <ele>220.05591</ele>
        <time>2023-11-26T14:51:11.000Z</time>
      </trkpt>
      <trkpt lat="45.88104" lon="4.63228">
        <ele>220.07114</ele>
        <time>2023-11-26T14:51:12.000Z</time>
      </trkpt>
      <trkpt lat="45.88104" lon="4.63232">
        <ele>220.07439</ele>
        <time>2023-11-26T14:51:13.000Z</time>
      </trkpt>
      <trkpt lat="45.88103" lon="4.63238">
        <ele>220.07617</ele>
        <time>2023-11-26T14:51:14.000Z</time>
      </trkpt>
      <trkpt lat="45.88101" lon="4.63241">
        <ele>219.95963</ele>
        <time>2023-11-26T14:51:15.000Z</time>
      </trkpt>
      <trkpt lat="45.88098" lon="4.63244">
        <ele>219.85808</ele>
        <time>2023-11-26T14:51:16.000Z</time>
      </trkpt>
      <trkpt lat="45.88095" lon="4.63247">
        <ele>219.76205</ele>
        <time>2023-11-26T14:51:17.000Z</time>
      </trkpt>
      <trkpt lat="45.88091" lon="4.63249">
        <ele>219.6243</ele>
        <time>2023-11-26T14:51:18.000Z</time>
      </trkpt>
      <trkpt lat="45.88087" lon="4.63253">
        <ele>219.49272</ele>
        <time>2023-11-26T14:51:19.000Z</time>
      </trkpt>
      <trkpt lat="45.88082" lon="4.63257">
        <ele>219.2626</ele>
        <time>2023-11-26T14:51:20.000Z</time>
      </trkpt>
      <trkpt lat="45.88078" lon="4.6326">
        <ele>219.04448</ele>
        <time>2023-11-26T14:51:21.000Z</time>
      </trkpt>
      <trkpt lat="45.88074" lon="4.63265">
        <ele>218.80612</ele>
        <time>2023-11-26T14:51:22.000Z</time>
      </trkpt>
      <trkpt lat="45.8807" lon="4.63269">
        <ele>218.54114</ele>
        <time>2023-11-26T14:51:23.000Z</time>
      </trkpt>
      <trkpt lat="45.88066" lon="4.63273">
        <ele>218.25327</ele>
        <time>2023-11-26T14:51:24.000Z</time>
      </trkpt>
      <trkpt lat="45.88063" lon="4.63278">
        <ele>217.96404</ele>
        <time>2023-11-26T14:51:25.000Z</time>
      </trkpt>
      <trkpt lat="45.88059" lon="4.63282">
        <ele>217.75407</ele>
        <time>2023-11-26T14:51:26.000Z</time>
      </trkpt>
      <trkpt lat="45.88056" lon="4.63287">
        <ele>217.57858</ele>
        <time>2023-11-26T14:51:27.000Z</time>
      </trkpt>
      <trkpt lat="45.88052" lon="4.63292">
        <ele>217.42126</ele>
        <time>2023-11-26T14:51:28.000Z</time>
      </trkpt>
      <trkpt lat="45.88049" lon="4.63296">
        <ele>217.26758</ele>
        <time>2023-11-26T14:51:29.000Z</time>
      </trkpt>
      <trkpt lat="45.88046" lon="4.633">
        <ele>217.10178</ele>
        <time>2023-11-26T14:51:30.000Z</time>
      </trkpt>
      <trkpt lat="45.88042" lon="4.63306">
        <ele>216.91345</ele>
        <time>2023-11-26T14:51:31.000Z</time>
      </trkpt>
      <trkpt lat="45.88039" lon="4.63311">
        <ele>216.71317</ele>
        <time>2023-11-26T14:51:32.000Z</time>
      </trkpt>
      <trkpt lat="45.88036" lon="4.63316">
        <ele>216.55305</ele>
        <time>2023-11-26T14:51:33.000Z</time>
      </trkpt>
      <trkpt lat="45.88033" lon="4.63323">
        <ele>216.41045</ele>
        <time>2023-11-26T14:51:34.000Z</time>
      </trkpt>
      <trkpt lat="45.8803" lon="4.6333">
        <ele>216.33858</ele>
        <time>2023-11-26T14:51:35.000Z</time>
      </trkpt>
      <trkpt lat="45.88027" lon="4.63336">
        <ele>216.26028</ele>
        <time>2023-11-26T14:51:36.000Z</time>
      </trkpt>
      <trkpt lat="45.88024" lon="4.6334">
        <ele>216.22937</ele>
        <time>2023-11-26T14:51:37.000Z</time>
      </trkpt>
      <trkpt lat="45.8802" lon="4.63344">
        <ele>216.15263</ele>
        <time>2023-11-26T14:51:38.000Z</time>
      </trkpt>
      <trkpt lat="45.88017" lon="4.63348">
        <ele>216.05933</ele>
        <time>2023-11-26T14:51:39.000Z</time>
      </trkpt>
      <trkpt lat="45.88013" lon="4.63351">
        <ele>216.00732</ele>
        <time>2023-11-26T14:51:40.000Z</time>
      </trkpt>
      <trkpt lat="45.88009" lon="4.63354">
        <ele>216.00204</ele>
        <time>2023-11-26T14:51:41.000Z</time>
      </trkpt>
      <trkpt lat="45.88004" lon="4.63356">
        <ele>215.99905</ele>
        <time>2023-11-26T14:51:42.000Z</time>
      </trkpt>
      <trkpt lat="45.87999" lon="4.63357">
        <ele>216.00229</ele>
        <time>2023-11-26T14:51:43.000Z</time>
      </trkpt>
      <trkpt lat="45.87994" lon="4.63358">
        <ele>216.01299</ele>
        <time>2023-11-26T14:51:44.000Z</time>
      </trkpt>
      <trkpt lat="45.87988" lon="4.63359">
        <ele>216.02412</ele>
        <time>2023-11-26T14:51:45.000Z</time>
      </trkpt>
      <trkpt lat="45.87983" lon="4.63361">
        <ele>216.02246</ele>
        <time>2023-11-26T14:51:46.000Z</time>
      </trkpt>
      <trkpt lat="45.87978" lon="4.63363">
        <ele>215.99483</ele>
        <time>2023-11-26T14:51:47.000Z</time>
      </trkpt>
      <trkpt lat="45.87973" lon="4.63365">
        <ele>215.99918</ele>
        <time>2023-11-26T14:51:48.000Z</time>
      </trkpt>
      <trkpt lat="45.87968" lon="4.63366">
        <ele>215.97983</ele>
        <time>2023-11-26T14:51:49.000Z</time>
      </trkpt>
      <trkpt lat="45.87963" lon="4.63368">
        <ele>215.92598</ele>
        <time>2023-11-26T14:51:50.000Z</time>
      </trkpt>
      <trkpt lat="45.87958" lon="4.63369">
        <ele>215.92929</ele>
        <time>2023-11-26T14:51:51.000Z</time>
      </trkpt>
      <trkpt lat="45.87953" lon="4.63371">
        <ele>215.92952</ele>
        <time>2023-11-26T14:51:52.000Z</time>
      </trkpt>
      <trkpt lat="45.87948" lon="4.63373">
        <ele>215.90657</ele>
        <time>2023-11-26T14:51:53.000Z</time>
      </trkpt>
      <trkpt lat="45.87942" lon="4.63374">
        <ele>215.86624</ele>
        <time>2023-11-26T14:51:54.000Z</time>
      </trkpt>
      <trkpt lat="45.87938" lon="4.63376">
        <ele>215.79138</ele>
        <time>2023-11-26T14:51:55.000Z</time>
      </trkpt>
      <trkpt lat="45.87934" lon="4.63376">
        <ele>215.72324</ele>
        <time>2023-11-26T14:51:56.000Z</time>
      </trkpt>
      <trkpt lat="45.87928" lon="4.63378">
        <ele>215.61604</ele>
        <time>2023-11-26T14:51:57.000Z</time>
      </trkpt>
      <trkpt lat="45.87923" lon="4.6338">
        <ele>215.57272</ele>
        <time>2023-11-26T14:51:58.000Z</time>
      </trkpt>
      <trkpt lat="45.87918" lon="4.63381">
        <ele>215.51151</ele>
        <time>2023-11-26T14:51:59.000Z</time>
      </trkpt>
      <trkpt lat="45.87913" lon="4.63383">
        <ele>215.44751</ele>
        <time>2023-11-26T14:52:00.000Z</time>
      </trkpt>
      <trkpt lat="45.87908" lon="4.63385">
        <ele>215.37039</ele>
        <time>2023-11-26T14:52:01.000Z</time>
      </trkpt>
      <trkpt lat="45.87903" lon="4.63387">
        <ele>215.30066</ele>
        <time>2023-11-26T14:52:02.000Z</time>
      </trkpt>
      <trkpt lat="45.87898" lon="4.63388">
        <ele>215.24545</ele>
        <time>2023-11-26T14:52:03.000Z</time>
      </trkpt>
      <trkpt lat="45.87893" lon="4.6339">
        <ele>215.18513</ele>
        <time>2023-11-26T14:52:04.000Z</time>
      </trkpt>
      <trkpt lat="45.87889" lon="4.63392">
        <ele>215.1368</ele>
        <time>2023-11-26T14:52:05.000Z</time>
      </trkpt>
      <trkpt lat="45.87883" lon="4.63395">
        <ele>215.07761</ele>
        <time>2023-11-26T14:52:06.000Z</time>
      </trkpt>
      <trkpt lat="45.87878" lon="4.63398">
        <ele>215.05354</ele>
        <time>2023-11-26T14:52:07.000Z</time>
      </trkpt>
      <trkpt lat="45.87874" lon="4.63402">
        <ele>215.0228</ele>
        <time>2023-11-26T14:52:08.000Z</time>
      </trkpt>
      <trkpt lat="45.87869" lon="4.63406">
        <ele>214.9707</ele>
        <time>2023-11-26T14:52:09.000Z</time>
      </trkpt>
      <trkpt lat="45.87864" lon="4.63409">
        <ele>214.92749</ele>
        <time>2023-11-26T14:52:10.000Z</time>
      </trkpt>
      <trkpt lat="45.87859" lon="4.63412">
        <ele>214.86555</ele>
        <time>2023-11-26T14:52:11.000Z</time>
      </trkpt>
      <trkpt lat="45.87854" lon="4.63415">
        <ele>214.84277</ele>
        <time>2023-11-26T14:52:12.000Z</time>
      </trkpt>
      <trkpt lat="45.8785" lon="4.63417">
        <ele>214.83325</ele>
        <time>2023-11-26T14:52:13.000Z</time>
      </trkpt>
      <trkpt lat="45.87845" lon="4.6342">
        <ele>214.83682</ele>
        <time>2023-11-26T14:52:14.000Z</time>
      </trkpt>
      <trkpt lat="45.87841" lon="4.63423">
        <ele>214.85344</ele>
        <time>2023-11-26T14:52:15.000Z</time>
      </trkpt>
      <trkpt lat="45.87836" lon="4.63426">
        <ele>214.86487</ele>
        <time>2023-11-26T14:52:16.000Z</time>
      </trkpt>
      <trkpt lat="45.87834" lon="4.63429">
        <ele>214.93149</ele>
        <time>2023-11-26T14:52:17.000Z</time>
      </trkpt>
      <trkpt lat="45.87831" lon="4.63431">
        <ele>214.97519</ele>
        <time>2023-11-26T14:52:18.000Z</time>
      </trkpt>
      <trkpt lat="45.87828" lon="4.63432">
        <ele>215.1138</ele>
        <time>2023-11-26T14:52:20.000Z</time>
      </trkpt>
      <trkpt lat="45.87826" lon="4.63433">
        <ele>215.27873</ele>
        <time>2023-11-26T14:52:21.000Z</time>
      </trkpt>
      <trkpt lat="45.87824" lon="4.63432">
        <ele>215.4238</ele>
        <time>2023-11-26T14:52:22.000Z</time>
      </trkpt>
      <trkpt lat="45.87821" lon="4.63433">
        <ele>215.59225</ele>
        <time>2023-11-26T14:52:23.000Z</time>
      </trkpt>
      <trkpt lat="45.87818" lon="4.63432">
        <ele>215.75229</ele>
        <time>2023-11-26T14:52:24.000Z</time>
      </trkpt>
      <trkpt lat="45.87813" lon="4.63434">
        <ele>215.89478</ele>
        <time>2023-11-26T14:52:25.000Z</time>
      </trkpt>
      <trkpt lat="45.87809" lon="4.63436">
        <ele>216.05606</ele>
        <time>2023-11-26T14:52:26.000Z</time>
      </trkpt>
      <trkpt lat="45.87806" lon="4.63438">
        <ele>216.21005</ele>
        <time>2023-11-26T14:52:27.000Z</time>
      </trkpt>
      <trkpt lat="45.87803" lon="4.6344">
        <ele>216.3951</ele>
        <time>2023-11-26T14:52:28.000Z</time>
      </trkpt>
      <trkpt lat="45.878" lon="4.63442">
        <ele>216.58194</ele>
        <time>2023-11-26T14:52:29.000Z</time>
      </trkpt>
      <trkpt lat="45.87798" lon="4.63446">
        <ele>216.83</ele>
        <time>2023-11-26T14:52:30.000Z</time>
      </trkpt>
      <trkpt lat="45.87795" lon="4.63448">
        <ele>217.05257</ele>
        <time>2023-11-26T14:52:31.000Z</time>
      </trkpt>
      <trkpt lat="45.87793" lon="4.63454">
        <ele>217.2961</ele>
        <time>2023-11-26T14:52:32.000Z</time>
      </trkpt>
      <trkpt lat="45.8779" lon="4.63459">
        <ele>217.49832</ele>
        <time>2023-11-26T14:52:33.000Z</time>
      </trkpt>
      <trkpt lat="45.87789" lon="4.63466">
        <ele>217.70586</ele>
        <time>2023-11-26T14:52:34.000Z</time>
      </trkpt>
      <trkpt lat="45.87786" lon="4.63473">
        <ele>217.87393</ele>
        <time>2023-11-26T14:52:35.000Z</time>
      </trkpt>
      <trkpt lat="45.87784" lon="4.63479">
        <ele>218.08784</ele>
        <time>2023-11-26T14:52:36.000Z</time>
      </trkpt>
      <trkpt lat="45.8778" lon="4.63485">
        <ele>218.27669</ele>
        <time>2023-11-26T14:52:37.000Z</time>
      </trkpt>
      <trkpt lat="45.87777" lon="4.63492">
        <ele>218.37228</ele>
        <time>2023-11-26T14:52:38.000Z</time>
      </trkpt>
      <trkpt lat="45.87774" lon="4.63497">
        <ele>218.47311</ele>
        <time>2023-11-26T14:52:39.000Z</time>
      </trkpt>
      <trkpt lat="45.8777" lon="4.63503">
        <ele>218.53268</ele>
        <time>2023-11-26T14:52:40.000Z</time>
      </trkpt>
      <trkpt lat="45.87766" lon="4.63509">
        <ele>218.57813</ele>
        <time>2023-11-26T14:52:41.000Z</time>
      </trkpt>
      <trkpt lat="45.87766" lon="4.63513">
        <ele>218.60782</ele>
        <time>2023-11-26T14:52:42.000Z</time>
      </trkpt>
      <trkpt lat="45.87763" lon="4.63517">
        <ele>218.67305</ele>
        <time>2023-11-26T14:52:43.000Z</time>
      </trkpt>
      <trkpt lat="45.8776" lon="4.63524">
        <ele>218.74675</ele>
        <time>2023-11-26T14:52:44.000Z</time>
      </trkpt>
      <trkpt lat="45.87757" lon="4.63529">
        <ele>218.82503</ele>
        <time>2023-11-26T14:52:45.000Z</time>
      </trkpt>
      <trkpt lat="45.87754" lon="4.63536">
        <ele>218.83701</ele>
        <time>2023-11-26T14:52:46.000Z</time>
      </trkpt>
      <trkpt lat="45.87752" lon="4.63541">
        <ele>218.87415</ele>
        <time>2023-11-26T14:52:47.000Z</time>
      </trkpt>
      <trkpt lat="45.87748" lon="4.63547">
        <ele>218.83975</ele>
        <time>2023-11-26T14:52:48.000Z</time>
      </trkpt>
      <trkpt lat="45.87746" lon="4.63551">
        <ele>218.8051</ele>
        <time>2023-11-26T14:52:49.000Z</time>
      </trkpt>
      <trkpt lat="45.87744" lon="4.63559">
        <ele>218.80989</ele>
        <time>2023-11-26T14:52:50.000Z</time>
      </trkpt>
      <trkpt lat="45.87742" lon="4.63564">
        <ele>218.81108</ele>
        <time>2023-11-26T14:52:51.000Z</time>
      </trkpt>
      <trkpt lat="45.87739" lon="4.63572">
        <ele>218.75398</ele>
        <time>2023-11-26T14:52:52.000Z</time>
      </trkpt>
      <trkpt lat="45.87736" lon="4.63576">
        <ele>218.72701</ele>
        <time>2023-11-26T14:52:53.000Z</time>
      </trkpt>
      <trkpt lat="45.87735" lon="4.6358">
        <ele>218.63669</ele>
        <time>2023-11-26T14:52:54.000Z</time>
      </trkpt>
      <trkpt lat="45.87732" lon="4.63587">
        <ele>218.54465</ele>
        <time>2023-11-26T14:52:55.000Z</time>
      </trkpt>
      <trkpt lat="45.8773" lon="4.63595">
        <ele>218.36308</ele>
        <time>2023-11-26T14:52:56.000Z</time>
      </trkpt>
      <trkpt lat="45.87727" lon="4.63601">
        <ele>218.19705</ele>
        <time>2023-11-26T14:52:57.000Z</time>
      </trkpt>
      <trkpt lat="45.87723" lon="4.63609">
        <ele>218.07004</ele>
        <time>2023-11-26T14:52:58.000Z</time>
      </trkpt>
      <trkpt lat="45.87719" lon="4.63616">
        <ele>217.98135</ele>
        <time>2023-11-26T14:52:59.000Z</time>
      </trkpt>
      <trkpt lat="45.87713" lon="4.63622">
        <ele>217.88766</ele>
        <time>2023-11-26T14:53:00.000Z</time>
      </trkpt>
      <trkpt lat="45.8771" lon="4.63626">
        <ele>217.87271</ele>
        <time>2023-11-26T14:53:01.000Z</time>
      </trkpt>
      <trkpt lat="45.87703" lon="4.63633">
        <ele>217.79765</ele>
        <time>2023-11-26T14:53:02.000Z</time>
      </trkpt>
      <trkpt lat="45.87699" lon="4.63637">
        <ele>217.65596</ele>
        <time>2023-11-26T14:53:03.000Z</time>
      </trkpt>
      <trkpt lat="45.87693" lon="4.63643">
        <ele>217.51839</ele>
        <time>2023-11-26T14:53:04.000Z</time>
      </trkpt>
      <trkpt lat="45.87687" lon="4.63649">
        <ele>217.38481</ele>
        <time>2023-11-26T14:53:05.000Z</time>
      </trkpt>
      <trkpt lat="45.87685" lon="4.63652">
        <ele>217.31995</ele>
        <time>2023-11-26T14:53:06.000Z</time>
      </trkpt>
      <trkpt lat="45.87679" lon="4.63657">
        <ele>217.2131</ele>
        <time>2023-11-26T14:53:07.000Z</time>
      </trkpt>
      <trkpt lat="45.87676" lon="4.63663">
        <ele>217.052</ele>
        <time>2023-11-26T14:53:08.000Z</time>
      </trkpt>
      <trkpt lat="45.87673" lon="4.63668">
        <ele>216.95061</ele>
        <time>2023-11-26T14:53:09.000Z</time>
      </trkpt>
      <trkpt lat="45.8767" lon="4.63671">
        <ele>216.72771</ele>
        <time>2023-11-26T14:53:10.000Z</time>
      </trkpt>
      <trkpt lat="45.87667" lon="4.63675">
        <ele>216.52763</ele>
        <time>2023-11-26T14:53:11.000Z</time>
      </trkpt>
      <trkpt lat="45.87663" lon="4.63678">
        <ele>216.3663</ele>
        <time>2023-11-26T14:53:12.000Z</time>
      </trkpt>
      <trkpt lat="45.87658" lon="4.63681">
        <ele>216.13998</ele>
        <time>2023-11-26T14:53:13.000Z</time>
      </trkpt>
      <trkpt lat="45.87654" lon="4.63683">
        <ele>215.93509</ele>
        <time>2023-11-26T14:53:14.000Z</time>
      </trkpt>
      <trkpt lat="45.8765" lon="4.63687">
        <ele>215.73465</ele>
        <time>2023-11-26T14:53:15.000Z</time>
      </trkpt>
      <trkpt lat="45.87646" lon="4.6369">
        <ele>215.5815</ele>
        <time>2023-11-26T14:53:16.000Z</time>
      </trkpt>
      <trkpt lat="45.87643" lon="4.63694">
        <ele>215.54024</ele>
        <time>2023-11-26T14:53:17.000Z</time>
      </trkpt>
      <trkpt lat="45.87638" lon="4.63695">
        <ele>215.5145</ele>
        <time>2023-11-26T14:53:18.000Z</time>
      </trkpt>
      <trkpt lat="45.87633" lon="4.63696">
        <ele>215.44034</ele>
        <time>2023-11-26T14:53:19.000Z</time>
      </trkpt>
      <trkpt lat="45.87626" lon="4.63699">
        <ele>216.73088</ele>
        <time>2023-11-26T14:53:20.000Z</time>
      </trkpt>
      <trkpt lat="45.87622" lon="4.63699">
        <ele>218.1136</ele>
        <time>2023-11-26T14:53:21.000Z</time>
      </trkpt>
      <trkpt lat="45.87614" lon="4.63703">
        <ele>219.59436</ele>
        <time>2023-11-26T14:53:22.000Z</time>
      </trkpt>
      <trkpt lat="45.87613" lon="4.637">
        <ele>219.75322</ele>
        <time>2023-11-26T14:53:23.000Z</time>
      </trkpt>
      <trkpt lat="45.87606" lon="4.63703">
        <ele>219.9216</ele>
        <time>2023-11-26T14:53:24.000Z</time>
      </trkpt>
      <trkpt lat="45.87602" lon="4.63706">
        <ele>220.12334</ele>
        <time>2023-11-26T14:53:25.000Z</time>
      </trkpt>
      <trkpt lat="45.87595" lon="4.63711">
        <ele>220.30493</ele>
        <time>2023-11-26T14:53:26.000Z</time>
      </trkpt>
      <trkpt lat="45.87592" lon="4.63714">
        <ele>220.51909</ele>
        <time>2023-11-26T14:53:27.000Z</time>
      </trkpt>
      <trkpt lat="45.87585" lon="4.63716">
        <ele>222.88538</ele>
        <time>2023-11-26T14:53:28.000Z</time>
      </trkpt>
      <trkpt lat="45.8758" lon="4.63719">
        <ele>223.23996</ele>
        <time>2023-11-26T14:53:29.000Z</time>
      </trkpt>
      <trkpt lat="45.87575" lon="4.63721">
        <ele>223.66374</ele>
        <time>2023-11-26T14:53:30.000Z</time>
      </trkpt>
      <trkpt lat="45.87569" lon="4.63725">
        <ele>224.11035</ele>
        <time>2023-11-26T14:53:31.000Z</time>
      </trkpt>
      <trkpt lat="45.87567" lon="4.63725">
        <ele>224.57002</ele>
        <time>2023-11-26T14:53:32.000Z</time>
      </trkpt>
      <trkpt lat="45.87561" lon="4.6373">
        <ele>225.09921</ele>
        <time>2023-11-26T14:53:33.000Z</time>
      </trkpt>
      <trkpt lat="45.87556" lon="4.63734">
        <ele>227.60864</ele>
        <time>2023-11-26T14:53:34.000Z</time>
      </trkpt>
      <trkpt lat="45.87552" lon="4.63738">
        <ele>228.33121</ele>
        <time>2023-11-26T14:53:35.000Z</time>
      </trkpt>
      <trkpt lat="45.87548" lon="4.63739">
        <ele>229.07695</ele>
        <time>2023-11-26T14:53:36.000Z</time>
      </trkpt>
      <trkpt lat="45.87543" lon="4.63745">
        <ele>229.75174</ele>
        <time>2023-11-26T14:53:37.000Z</time>
      </trkpt>
      <trkpt lat="45.87538" lon="4.63749">
        <ele>230.46233</ele>
        <time>2023-11-26T14:53:38.000Z</time>
      </trkpt>
      <trkpt lat="45.87533" lon="4.63752">
        <ele>231.20972</ele>
        <time>2023-11-26T14:53:39.000Z</time>
      </trkpt>
      <trkpt lat="45.87528" lon="4.63756">
        <ele>231.99826</ele>
        <time>2023-11-26T14:53:40.000Z</time>
      </trkpt>
      <trkpt lat="45.87524" lon="4.63762">
        <ele>232.79546</ele>
        <time>2023-11-26T14:53:41.000Z</time>
      </trkpt>
      <trkpt lat="45.8752" lon="4.63766">
        <ele>233.59824</ele>
        <time>2023-11-26T14:53:42.000Z</time>
      </trkpt>
      <trkpt lat="45.87513" lon="4.63773">
        <ele>235.71326</ele>
        <time>2023-11-26T14:53:43.000Z</time>
      </trkpt>
      <trkpt lat="45.8751" lon="4.63779">
        <ele>237.84871</ele>
        <time>2023-11-26T14:53:44.000Z</time>
      </trkpt>
      <trkpt lat="45.87505" lon="4.63788">
        <ele>239.8101</ele>
        <time>2023-11-26T14:53:45.000Z</time>
      </trkpt>
      <trkpt lat="45.87498" lon="4.63797">
        <ele>242.14432</ele>
        <time>2023-11-26T14:53:46.000Z</time>
      </trkpt>
      <trkpt lat="45.87493" lon="4.63805">
        <ele>244.45041</ele>
        <time>2023-11-26T14:53:47.000Z</time>
      </trkpt>
      <trkpt lat="45.8749" lon="4.6381">
        <ele>243.7959</ele>
        <time>2023-11-26T14:53:48.000Z</time>
      </trkpt>
      <trkpt lat="45.87486" lon="4.63816">
        <ele>245.25327</ele>
        <time>2023-11-26T14:53:49.000Z</time>
      </trkpt>
      <trkpt lat="45.87485" lon="4.63819">
        <ele>246.72812</ele>
        <time>2023-11-26T14:53:50.000Z</time>
      </trkpt>
      <trkpt lat="45.8748" lon="4.63825">
        <ele>247.9666</ele>
        <time>2023-11-26T14:53:51.000Z</time>
      </trkpt>
      <trkpt lat="45.87477" lon="4.63829">
        <ele>249.05942</ele>
        <time>2023-11-26T14:53:52.000Z</time>
      </trkpt>
      <trkpt lat="45.87473" lon="4.63834">
        <ele>250.08224</ele>
        <time>2023-11-26T14:53:53.000Z</time>
      </trkpt>
      <trkpt lat="45.8747" lon="4.63842">
        <ele>248.97937</ele>
        <time>2023-11-26T14:53:54.000Z</time>
      </trkpt>
      <trkpt lat="45.87464" lon="4.63848">
        <ele>249.64722</ele>
        <time>2023-11-26T14:53:55.000Z</time>
      </trkpt>
      <trkpt lat="45.8746" lon="4.63853">
        <ele>250.21733</ele>
        <time>2023-11-26T14:53:56.000Z</time>
      </trkpt>
      <trkpt lat="45.87456" lon="4.63861">
        <ele>250.63705</ele>
        <time>2023-11-26T14:53:57.000Z</time>
      </trkpt>
      <trkpt lat="45.87452" lon="4.63867">
        <ele>250.9382</ele>
        <time>2023-11-26T14:53:58.000Z</time>
      </trkpt>
      <trkpt lat="45.87448" lon="4.63874">
        <ele>251.26797</ele>
        <time>2023-11-26T14:53:59.000Z</time>
      </trkpt>
      <trkpt lat="45.87446" lon="4.63879">
        <ele>250.24532</ele>
        <time>2023-11-26T14:54:00.000Z</time>
      </trkpt>
      <trkpt lat="45.87444" lon="4.63884">
        <ele>249.06058</ele>
        <time>2023-11-26T14:54:01.000Z</time>
      </trkpt>
      <trkpt lat="45.8744" lon="4.6389">
        <ele>247.98763</ele>
        <time>2023-11-26T14:54:02.000Z</time>
      </trkpt>
      <trkpt lat="45.87436" lon="4.63895">
        <ele>247.1442</ele>
        <time>2023-11-26T14:54:03.000Z</time>
      </trkpt>
      <trkpt lat="45.87433" lon="4.63899">
        <ele>246.2487</ele>
        <time>2023-11-26T14:54:04.000Z</time>
      </trkpt>
      <trkpt lat="45.8743" lon="4.63904">
        <ele>245.73662</ele>
        <time>2023-11-26T14:54:05.000Z</time>
      </trkpt>
      <trkpt lat="45.87425" lon="4.63909">
        <ele>244.71423</ele>
        <time>2023-11-26T14:54:06.000Z</time>
      </trkpt>
      <trkpt lat="45.87422" lon="4.63912">
        <ele>242.99551</ele>
        <time>2023-11-26T14:54:07.000Z</time>
      </trkpt>
      <trkpt lat="45.87417" lon="4.63917">
        <ele>242.23311</ele>
        <time>2023-11-26T14:54:08.000Z</time>
      </trkpt>
      <trkpt lat="45.87414" lon="4.63922">
        <ele>241.31119</ele>
        <time>2023-11-26T14:54:09.000Z</time>
      </trkpt>
      <trkpt lat="45.8741" lon="4.63926">
        <ele>240.36938</ele>
        <time>2023-11-26T14:54:10.000Z</time>
      </trkpt>
      <trkpt lat="45.87407" lon="4.6393">
        <ele>239.64304</ele>
        <time>2023-11-26T14:54:11.000Z</time>
      </trkpt>
      <trkpt lat="45.87402" lon="4.63934">
        <ele>239.03088</ele>
        <time>2023-11-26T14:54:12.000Z</time>
      </trkpt>
      <trkpt lat="45.87397" lon="4.63938">
        <ele>238.4639</ele>
        <time>2023-11-26T14:54:13.000Z</time>
      </trkpt>
      <trkpt lat="45.87393" lon="4.63944">
        <ele>238.06111</ele>
        <time>2023-11-26T14:54:14.000Z</time>
      </trkpt>
      <trkpt lat="45.87388" lon="4.63948">
        <ele>237.70886</ele>
        <time>2023-11-26T14:54:15.000Z</time>
      </trkpt>
      <trkpt lat="45.87385" lon="4.63952">
        <ele>237.39014</ele>
        <time>2023-11-26T14:54:16.000Z</time>
      </trkpt>
      <trkpt lat="45.87381" lon="4.63957">
        <ele>237.15703</ele>
        <time>2023-11-26T14:54:17.000Z</time>
      </trkpt>
      <trkpt lat="45.87378" lon="4.63961">
        <ele>237.01782</ele>
        <time>2023-11-26T14:54:18.000Z</time>
      </trkpt>
      <trkpt lat="45.87374" lon="4.63965">
        <ele>237.17256</ele>
        <time>2023-11-26T14:54:19.000Z</time>
      </trkpt>
      <trkpt lat="45.87371" lon="4.63969">
        <ele>237.26103</ele>
        <time>2023-11-26T14:54:20.000Z</time>
      </trkpt>
      <trkpt lat="45.87366" lon="4.63975">
        <ele>237.57527</ele>
        <time>2023-11-26T14:54:21.000Z</time>
      </trkpt>
      <trkpt lat="45.87363" lon="4.6398">
        <ele>237.0874</ele>
        <time>2023-11-26T14:54:22.000Z</time>
      </trkpt>
      <trkpt lat="45.87359" lon="4.63987">
        <ele>236.4899</ele>
        <time>2023-11-26T14:54:23.000Z</time>
      </trkpt>
      <trkpt lat="45.87354" lon="4.63994">
        <ele>235.92111</ele>
        <time>2023-11-26T14:54:24.000Z</time>
      </trkpt>
      <trkpt lat="45.87351" lon="4.64001">
        <ele>235.11617</ele>
        <time>2023-11-26T14:54:25.000Z</time>
      </trkpt>
      <trkpt lat="45.87348" lon="4.64008">
        <ele>234.94441</ele>
        <time>2023-11-26T14:54:26.000Z</time>
      </trkpt>
      <trkpt lat="45.87345" lon="4.64015">
        <ele>235.5706</ele>
        <time>2023-11-26T14:54:27.000Z</time>
      </trkpt>
      <trkpt lat="45.87342" lon="4.64022">
        <ele>235.45036</ele>
        <time>2023-11-26T14:54:28.000Z</time>
      </trkpt>
      <trkpt lat="45.8734" lon="4.64029">
        <ele>235.44821</ele>
        <time>2023-11-26T14:54:29.000Z</time>
      </trkpt>
      <trkpt lat="45.87339" lon="4.64038">
        <ele>235.46011</ele>
        <time>2023-11-26T14:54:30.000Z</time>
      </trkpt>
      <trkpt lat="45.87337" lon="4.64047">
        <ele>235.47563</ele>
        <time>2023-11-26T14:54:31.000Z</time>
      </trkpt>
      <trkpt lat="45.87338" lon="4.64056">
        <ele>235.4919</ele>
        <time>2023-11-26T14:54:32.000Z</time>
      </trkpt>
      <trkpt lat="45.87339" lon="4.64064">
        <ele>235.55087</ele>
        <time>2023-11-26T14:54:33.000Z</time>
      </trkpt>
      <trkpt lat="45.8734" lon="4.64072">
        <ele>236.06291</ele>
        <time>2023-11-26T14:54:34.000Z</time>
      </trkpt>
      <trkpt lat="45.87341" lon="4.6408">
        <ele>236.56929</ele>
        <time>2023-11-26T14:54:35.000Z</time>
      </trkpt>
      <trkpt lat="45.87341" lon="4.64088">
        <ele>237.29626</ele>
        <time>2023-11-26T14:54:36.000Z</time>
      </trkpt>
      <trkpt lat="45.87343" lon="4.64096">
        <ele>237.31877</ele>
        <time>2023-11-26T14:54:37.000Z</time>
      </trkpt>
      <trkpt lat="45.87343" lon="4.64103">
        <ele>237.42496</ele>
        <time>2023-11-26T14:54:38.000Z</time>
      </trkpt>
      <trkpt lat="45.87344" lon="4.6411">
        <ele>237.1198</ele>
        <time>2023-11-26T14:54:39.000Z</time>
      </trkpt>
      <trkpt lat="45.87346" lon="4.64118">
        <ele>236.87521</ele>
        <time>2023-11-26T14:54:40.000Z</time>
      </trkpt>
      <trkpt lat="45.87346" lon="4.64126">
        <ele>236.39151</ele>
        <time>2023-11-26T14:54:41.000Z</time>
      </trkpt>
      <trkpt lat="45.87347" lon="4.64135">
        <ele>236.57976</ele>
        <time>2023-11-26T14:54:42.000Z</time>
      </trkpt>
      <trkpt lat="45.87347" lon="4.64143">
        <ele>236.63408</ele>
        <time>2023-11-26T14:54:43.000Z</time>
      </trkpt>
      <trkpt lat="45.87346" lon="4.64151">
        <ele>236.72794</ele>
        <time>2023-11-26T14:54:44.000Z</time>
      </trkpt>
      <trkpt lat="45.87345" lon="4.64159">
        <ele>237.14372</ele>
        <time>2023-11-26T14:54:45.000Z</time>
      </trkpt>
      <trkpt lat="45.87343" lon="4.64166">
        <ele>237.04744</ele>
        <time>2023-11-26T14:54:46.000Z</time>
      </trkpt>
      <trkpt lat="45.87343" lon="4.64173">
        <ele>237.09348</ele>
        <time>2023-11-26T14:54:47.000Z</time>
      </trkpt>
      <trkpt lat="45.87341" lon="4.64181">
        <ele>237.10269</ele>
        <time>2023-11-26T14:54:48.000Z</time>
      </trkpt>
      <trkpt lat="45.87342" lon="4.6419">
        <ele>237.11099</ele>
        <time>2023-11-26T14:54:49.000Z</time>
      </trkpt>
      <trkpt lat="45.87343" lon="4.64197">
        <ele>237.12593</ele>
        <time>2023-11-26T14:54:50.000Z</time>
      </trkpt>
      <trkpt lat="45.87344" lon="4.64205">
        <ele>237.10808</ele>
        <time>2023-11-26T14:54:51.000Z</time>
      </trkpt>
      <trkpt lat="45.87345" lon="4.64213">
        <ele>237.11426</ele>
        <time>2023-11-26T14:54:52.000Z</time>
      </trkpt>
      <trkpt lat="45.87347" lon="4.6422">
        <ele>237.09512</ele>
        <time>2023-11-26T14:54:53.000Z</time>
      </trkpt>
      <trkpt lat="45.87349" lon="4.64228">
        <ele>237.07932</ele>
        <time>2023-11-26T14:54:54.000Z</time>
      </trkpt>
      <trkpt lat="45.87352" lon="4.64237">
        <ele>237.11629</ele>
        <time>2023-11-26T14:54:55.000Z</time>
      </trkpt>
      <trkpt lat="45.87353" lon="4.64244">
        <ele>236.27957</ele>
        <time>2023-11-26T14:54:56.000Z</time>
      </trkpt>
      <trkpt lat="45.87355" lon="4.64252">
        <ele>236.33707</ele>
        <time>2023-11-26T14:54:57.000Z</time>
      </trkpt>
      <trkpt lat="45.87357" lon="4.64259">
        <ele>236.25337</ele>
        <time>2023-11-26T14:54:58.000Z</time>
      </trkpt>
      <trkpt lat="45.87358" lon="4.64267">
        <ele>236.23381</ele>
        <time>2023-11-26T14:54:59.000Z</time>
      </trkpt>
      <trkpt lat="45.8736" lon="4.64275">
        <ele>236.17078</ele>
        <time>2023-11-26T14:55:00.000Z</time>
      </trkpt>
      <trkpt lat="45.87361" lon="4.64282">
        <ele>236.1149</ele>
        <time>2023-11-26T14:55:01.000Z</time>
      </trkpt>
      <trkpt lat="45.87362" lon="4.64289">
        <ele>236.04532</ele>
        <time>2023-11-26T14:55:02.000Z</time>
      </trkpt>
      <trkpt lat="45.87363" lon="4.64297">
        <ele>236.01314</ele>
        <time>2023-11-26T14:55:03.000Z</time>
      </trkpt>
      <trkpt lat="45.87365" lon="4.64304">
        <ele>236.27213</ele>
        <time>2023-11-26T14:55:04.000Z</time>
      </trkpt>
      <trkpt lat="45.87367" lon="4.64311">
        <ele>236.22905</ele>
        <time>2023-11-26T14:55:05.000Z</time>
      </trkpt>
      <trkpt lat="45.87368" lon="4.64317">
        <ele>236.19278</ele>
        <time>2023-11-26T14:55:06.000Z</time>
      </trkpt>
      <trkpt lat="45.8737" lon="4.64323">
        <ele>236.17093</ele>
        <time>2023-11-26T14:55:07.000Z</time>
      </trkpt>
      <trkpt lat="45.87371" lon="4.64329">
        <ele>236.17542</ele>
        <time>2023-11-26T14:55:08.000Z</time>
      </trkpt>
      <trkpt lat="45.87371" lon="4.64335">
        <ele>236.17302</ele>
        <time>2023-11-26T14:55:09.000Z</time>
      </trkpt>
      <trkpt lat="45.87369" lon="4.64338">
        <ele>236.16818</ele>
        <time>2023-11-26T14:55:10.000Z</time>
      </trkpt>
      <trkpt lat="45.87367" lon="4.6434">
        <ele>236.14603</ele>
        <time>2023-11-26T14:55:11.000Z</time>
      </trkpt>
      <trkpt lat="45.87365" lon="4.64343">
        <ele>236.12578</ele>
        <time>2023-11-26T14:55:12.000Z</time>
      </trkpt>
      <trkpt lat="45.87362" lon="4.64347">
        <ele>236.10391</ele>
        <time>2023-11-26T14:55:13.000Z</time>
      </trkpt>
      <trkpt lat="45.87361" lon="4.64351">
        <ele>235.6145</ele>
        <time>2023-11-26T14:55:14.000Z</time>
      </trkpt>
      <trkpt lat="45.8736" lon="4.64355">
        <ele>235.05127</ele>
        <time>2023-11-26T14:55:15.000Z</time>
      </trkpt>
      <trkpt lat="45.87357" lon="4.64359">
        <ele>235.18954</ele>
        <time>2023-11-26T14:55:16.000Z</time>
      </trkpt>
      <trkpt lat="45.87355" lon="4.64362">
        <ele>235.15303</ele>
        <time>2023-11-26T14:55:17.000Z</time>
      </trkpt>
      <trkpt lat="45.87352" lon="4.64366">
        <ele>235.17776</ele>
        <time>2023-11-26T14:55:18.000Z</time>
      </trkpt>
      <trkpt lat="45.87349" lon="4.64369">
        <ele>235.17456</ele>
        <time>2023-11-26T14:55:19.000Z</time>
      </trkpt>
      <trkpt lat="45.87346" lon="4.64372">
        <ele>235.15356</ele>
        <time>2023-11-26T14:55:20.000Z</time>
      </trkpt>
      <trkpt lat="45.87342" lon="4.64376">
        <ele>235.1311</ele>
        <time>2023-11-26T14:55:21.000Z</time>
      </trkpt>
      <trkpt lat="45.87338" lon="4.64379">
        <ele>235.11279</ele>
        <time>2023-11-26T14:55:22.000Z</time>
      </trkpt>
      <trkpt lat="45.87335" lon="4.64383">
        <ele>235.1324</ele>
        <time>2023-11-26T14:55:23.000Z</time>
      </trkpt>
      <trkpt lat="45.8733" lon="4.64387">
        <ele>234.82317</ele>
        <time>2023-11-26T14:55:24.000Z</time>
      </trkpt>
      <trkpt lat="45.87327" lon="4.64392">
        <ele>234.52715</ele>
        <time>2023-11-26T14:55:25.000Z</time>
      </trkpt>
      <trkpt lat="45.87323" lon="4.64394">
        <ele>234.56331</ele>
        <time>2023-11-26T14:55:26.000Z</time>
      </trkpt>
      <trkpt lat="45.87319" lon="4.64396">
        <ele>234.36545</ele>
        <time>2023-11-26T14:55:27.000Z</time>
      </trkpt>
      <trkpt lat="45.87315" lon="4.644">
        <ele>234.80949</ele>
        <time>2023-11-26T14:55:28.000Z</time>
      </trkpt>
      <trkpt lat="45.87311" lon="4.64403">
        <ele>235.36279</ele>
        <time>2023-11-26T14:55:29.000Z</time>
      </trkpt>
      <trkpt lat="45.87306" lon="4.64407">
        <ele>235.16296</ele>
        <time>2023-11-26T14:55:30.000Z</time>
      </trkpt>
      <trkpt lat="45.87302" lon="4.64411">
        <ele>235.15283</ele>
        <time>2023-11-26T14:55:31.000Z</time>
      </trkpt>
      <trkpt lat="45.87297" lon="4.64414">
        <ele>235.11247</ele>
        <time>2023-11-26T14:55:32.000Z</time>
      </trkpt>
      <trkpt lat="45.87293" lon="4.64418">
        <ele>235.05087</ele>
        <time>2023-11-26T14:55:33.000Z</time>
      </trkpt>
      <trkpt lat="45.87288" lon="4.64421">
        <ele>235.00215</ele>
        <time>2023-11-26T14:55:34.000Z</time>
      </trkpt>
      <trkpt lat="45.87284" lon="4.64424">
        <ele>234.99272</ele>
        <time>2023-11-26T14:55:35.000Z</time>
      </trkpt>
      <trkpt lat="45.87279" lon="4.64427">
        <ele>234.96323</ele>
        <time>2023-11-26T14:55:36.000Z</time>
      </trkpt>
      <trkpt lat="45.87275" lon="4.64432">
        <ele>234.92317</ele>
        <time>2023-11-26T14:55:37.000Z</time>
      </trkpt>
      <trkpt lat="45.87272" lon="4.64436">
        <ele>234.86795</ele>
        <time>2023-11-26T14:55:38.000Z</time>
      </trkpt>
      <trkpt lat="45.87268" lon="4.64439">
        <ele>234.84978</ele>
        <time>2023-11-26T14:55:39.000Z</time>
      </trkpt>
      <trkpt lat="45.87264" lon="4.64441">
        <ele>235.17429</ele>
        <time>2023-11-26T14:55:40.000Z</time>
      </trkpt>
      <trkpt lat="45.87259" lon="4.64445">
        <ele>235.76897</ele>
        <time>2023-11-26T14:55:41.000Z</time>
      </trkpt>
      <trkpt lat="45.87255" lon="4.64448">
        <ele>235.65323</ele>
        <time>2023-11-26T14:55:42.000Z</time>
      </trkpt>
      <trkpt lat="45.87251" lon="4.64451">
        <ele>235.62662</ele>
        <time>2023-11-26T14:55:43.000Z</time>
      </trkpt>
      <trkpt lat="45.87247" lon="4.64455">
        <ele>235.59175</ele>
        <time>2023-11-26T14:55:44.000Z</time>
      </trkpt>
      <trkpt lat="45.87244" lon="4.64458">
        <ele>235.54558</ele>
        <time>2023-11-26T14:55:45.000Z</time>
      </trkpt>
      <trkpt lat="45.87239" lon="4.64461">
        <ele>235.51083</ele>
        <time>2023-11-26T14:55:46.000Z</time>
      </trkpt>
      <trkpt lat="45.87234" lon="4.64465">
        <ele>235.69946</ele>
        <time>2023-11-26T14:55:47.000Z</time>
      </trkpt>
      <trkpt lat="45.8723" lon="4.64468">
        <ele>235.23682</ele>
        <time>2023-11-26T14:55:48.000Z</time>
      </trkpt>
      <trkpt lat="45.87227" lon="4.64472">
        <ele>234.69846</ele>
        <time>2023-11-26T14:55:49.000Z</time>
      </trkpt>
      <trkpt lat="45.87222" lon="4.64476">
        <ele>234.88721</ele>
        <time>2023-11-26T14:55:50.000Z</time>
      </trkpt>
      <trkpt lat="45.87218" lon="4.64479">
        <ele>234.91895</ele>
        <time>2023-11-26T14:55:51.000Z</time>
      </trkpt>
      <trkpt lat="45.87215" lon="4.64482">
        <ele>234.94824</ele>
        <time>2023-11-26T14:55:52.000Z</time>
      </trkpt>
      <trkpt lat="45.8721" lon="4.64486">
        <ele>234.98633</ele>
        <time>2023-11-26T14:55:53.000Z</time>
      </trkpt>
      <trkpt lat="45.87207" lon="4.64488">
        <ele>235.06436</ele>
        <time>2023-11-26T14:55:54.000Z</time>
      </trkpt>
      <trkpt lat="45.87204" lon="4.64492">
        <ele>235.1156</ele>
        <time>2023-11-26T14:55:55.000Z</time>
      </trkpt>
      <trkpt lat="45.872" lon="4.64494">
        <ele>235.50632</ele>
        <time>2023-11-26T14:55:56.000Z</time>
      </trkpt>
      <trkpt lat="45.87196" lon="4.64498">
        <ele>236.16336</ele>
        <time>2023-11-26T14:55:57.000Z</time>
      </trkpt>
      <trkpt lat="45.87192" lon="4.64499">
        <ele>236.8688</ele>
        <time>2023-11-26T14:55:58.000Z</time>
      </trkpt>
      <trkpt lat="45.87188" lon="4.64502">
        <ele>236.86272</ele>
        <time>2023-11-26T14:55:59.000Z</time>
      </trkpt>
      <trkpt lat="45.87185" lon="4.64504">
        <ele>236.70178</ele>
        <time>2023-11-26T14:56:00.000Z</time>
      </trkpt>
      <trkpt lat="45.87181" lon="4.64507">
        <ele>236.10115</ele>
        <time>2023-11-26T14:56:01.000Z</time>
      </trkpt>
      <trkpt lat="45.87178" lon="4.64509">
        <ele>236.24297</ele>
        <time>2023-11-26T14:56:02.000Z</time>
      </trkpt>
      <trkpt lat="45.87176" lon="4.64511">
        <ele>236.29626</ele>
        <time>2023-11-26T14:56:03.000Z</time>
      </trkpt>
      <trkpt lat="45.87173" lon="4.64513">
        <ele>236.36572</ele>
        <time>2023-11-26T14:56:04.000Z</time>
      </trkpt>
      <trkpt lat="45.8717" lon="4.64515">
        <ele>236.45029</ele>
        <time>2023-11-26T14:56:05.000Z</time>
      </trkpt>
      <trkpt lat="45.87168" lon="4.64517">
        <ele>236.22823</ele>
        <time>2023-11-26T14:56:06.000Z</time>
      </trkpt>
      <trkpt lat="45.87165" lon="4.64519">
        <ele>235.78596</ele>
        <time>2023-11-26T14:56:07.000Z</time>
      </trkpt>
      <trkpt lat="45.87162" lon="4.64521">
        <ele>236.04636</ele>
        <time>2023-11-26T14:56:08.000Z</time>
      </trkpt>
      <trkpt lat="45.87159" lon="4.64522">
        <ele>236.16663</ele>
        <time>2023-11-26T14:56:09.000Z</time>
      </trkpt>
      <trkpt lat="45.87156" lon="4.64524">
        <ele>236.30078</ele>
        <time>2023-11-26T14:56:10.000Z</time>
      </trkpt>
      <trkpt lat="45.87153" lon="4.64525">
        <ele>236.4545</ele>
        <time>2023-11-26T14:56:11.000Z</time>
      </trkpt>
      <trkpt lat="45.8715" lon="4.64526">
        <ele>236.65707</ele>
        <time>2023-11-26T14:56:12.000Z</time>
      </trkpt>
      <trkpt lat="45.87147" lon="4.64527">
        <ele>236.84402</ele>
        <time>2023-11-26T14:56:13.000Z</time>
      </trkpt>
      <trkpt lat="45.87144" lon="4.64528">
        <ele>237.00449</ele>
        <time>2023-11-26T14:56:14.000Z</time>
      </trkpt>
      <trkpt lat="45.87141" lon="4.64529">
        <ele>237.15767</ele>
        <time>2023-11-26T14:56:15.000Z</time>
      </trkpt>
      <trkpt lat="45.87138" lon="4.64531">
        <ele>237.15605</ele>
        <time>2023-11-26T14:56:16.000Z</time>
      </trkpt>
      <trkpt lat="45.87135" lon="4.64531">
        <ele>236.87285</ele>
        <time>2023-11-26T14:56:17.000Z</time>
      </trkpt>
      <trkpt lat="45.87132" lon="4.64532">
        <ele>236.5647</ele>
        <time>2023-11-26T14:56:18.000Z</time>
      </trkpt>
      <trkpt lat="45.87129" lon="4.64533">
        <ele>236.94168</ele>
        <time>2023-11-26T14:56:19.000Z</time>
      </trkpt>
      <trkpt lat="45.87126" lon="4.64534">
        <ele>237.15508</ele>
        <time>2023-11-26T14:56:20.000Z</time>
      </trkpt>
      <trkpt lat="45.87122" lon="4.64536">
        <ele>237.58333</ele>
        <time>2023-11-26T14:56:21.000Z</time>
      </trkpt>
      <trkpt lat="45.87119" lon="4.64537">
        <ele>237.99336</ele>
        <time>2023-11-26T14:56:22.000Z</time>
      </trkpt>
      <trkpt lat="45.87115" lon="4.64538">
        <ele>238.3522</ele>
        <time>2023-11-26T14:56:23.000Z</time>
      </trkpt>
      <trkpt lat="45.87112" lon="4.64539">
        <ele>238.7122</ele>
        <time>2023-11-26T14:56:24.000Z</time>
      </trkpt>
      <trkpt lat="45.87109" lon="4.6454">
        <ele>239.04929</ele>
        <time>2023-11-26T14:56:25.000Z</time>
      </trkpt>
      <trkpt lat="45.87105" lon="4.6454">
        <ele>239.33871</ele>
        <time>2023-11-26T14:56:26.000Z</time>
      </trkpt>
      <trkpt lat="45.87102" lon="4.64541">
        <ele>239.64888</ele>
        <time>2023-11-26T14:56:27.000Z</time>
      </trkpt>
      <trkpt lat="45.87099" lon="4.64542">
        <ele>239.97087</ele>
        <time>2023-11-26T14:56:28.000Z</time>
      </trkpt>
      <trkpt lat="45.87095" lon="4.64543">
        <ele>240.31062</ele>
        <time>2023-11-26T14:56:29.000Z</time>
      </trkpt>
      <trkpt lat="45.87092" lon="4.64544">
        <ele>240.60674</ele>
        <time>2023-11-26T14:56:30.000Z</time>
      </trkpt>
      <trkpt lat="45.87088" lon="4.64546">
        <ele>240.86499</ele>
        <time>2023-11-26T14:56:31.000Z</time>
      </trkpt>
      <trkpt lat="45.87085" lon="4.64547">
        <ele>241.13431</ele>
        <time>2023-11-26T14:56:32.000Z</time>
      </trkpt>
      <trkpt lat="45.87082" lon="4.64548">
        <ele>241.3837</ele>
        <time>2023-11-26T14:56:33.000Z</time>
      </trkpt>
      <trkpt lat="45.87079" lon="4.6455">
        <ele>241.63757</ele>
        <time>2023-11-26T14:56:34.000Z</time>
      </trkpt>
      <trkpt lat="45.87076" lon="4.64553">
        <ele>241.90787</ele>
        <time>2023-11-26T14:56:35.000Z</time>
      </trkpt>
      <trkpt lat="45.87073" lon="4.64556">
        <ele>242.00496</ele>
        <time>2023-11-26T14:56:36.000Z</time>
      </trkpt>
      <trkpt lat="45.87072" lon="4.6456">
        <ele>242.15437</ele>
        <time>2023-11-26T14:56:37.000Z</time>
      </trkpt>
      <trkpt lat="45.8707" lon="4.64564">
        <ele>242.28264</ele>
        <time>2023-11-26T14:56:38.000Z</time>
      </trkpt>
      <trkpt lat="45.87069" lon="4.64569">
        <ele>242.44221</ele>
        <time>2023-11-26T14:56:39.000Z</time>
      </trkpt>
      <trkpt lat="45.87069" lon="4.64574">
        <ele>242.59099</ele>
        <time>2023-11-26T14:56:40.000Z</time>
      </trkpt>
      <trkpt lat="45.87069" lon="4.64579">
        <ele>242.68777</ele>
        <time>2023-11-26T14:56:41.000Z</time>
      </trkpt>
      <trkpt lat="45.87068" lon="4.64584">
        <ele>242.79399</ele>
        <time>2023-11-26T14:56:42.000Z</time>
      </trkpt>
      <trkpt lat="45.87068" lon="4.64588">
        <ele>242.94907</ele>
        <time>2023-11-26T14:56:43.000Z</time>
      </trkpt>
      <trkpt lat="45.87068" lon="4.64593">
        <ele>243.08981</ele>
        <time>2023-11-26T14:56:44.000Z</time>
      </trkpt>
      <trkpt lat="45.87067" lon="4.64598">
        <ele>243.2515</ele>
        <time>2023-11-26T14:56:45.000Z</time>
      </trkpt>
      <trkpt lat="45.87067" lon="4.64603">
        <ele>243.81909</ele>
        <time>2023-11-26T14:56:46.000Z</time>
      </trkpt>
      <trkpt lat="45.87066" lon="4.64608">
        <ele>244.43706</ele>
        <time>2023-11-26T14:56:47.000Z</time>
      </trkpt>
      <trkpt lat="45.87065" lon="4.64612">
        <ele>245.04012</ele>
        <time>2023-11-26T14:56:48.000Z</time>
      </trkpt>
      <trkpt lat="45.87064" lon="4.64617">
        <ele>245.07072</ele>
        <time>2023-11-26T14:56:49.000Z</time>
      </trkpt>
      <trkpt lat="45.87064" lon="4.64622">
        <ele>245.24727</ele>
        <time>2023-11-26T14:56:50.000Z</time>
      </trkpt>
      <trkpt lat="45.87063" lon="4.64627">
        <ele>245.46465</ele>
        <time>2023-11-26T14:56:51.000Z</time>
      </trkpt>
      <trkpt lat="45.87063" lon="4.64631">
        <ele>245.6459</ele>
        <time>2023-11-26T14:56:52.000Z</time>
      </trkpt>
      <trkpt lat="45.87062" lon="4.64636">
        <ele>245.85037</ele>
        <time>2023-11-26T14:56:53.000Z</time>
      </trkpt>
      <trkpt lat="45.87061" lon="4.64641">
        <ele>246.30017</ele>
        <time>2023-11-26T14:56:54.000Z</time>
      </trkpt>
      <trkpt lat="45.8706" lon="4.64645">
        <ele>246.94873</ele>
        <time>2023-11-26T14:56:55.000Z</time>
      </trkpt>
      <trkpt lat="45.87058" lon="4.6465">
        <ele>247.05969</ele>
        <time>2023-11-26T14:56:56.000Z</time>
      </trkpt>
      <trkpt lat="45.87056" lon="4.64654">
        <ele>247.26982</ele>
        <time>2023-11-26T14:56:57.000Z</time>
      </trkpt>
      <trkpt lat="45.87055" lon="4.64658">
        <ele>247.51474</ele>
        <time>2023-11-26T14:56:58.000Z</time>
      </trkpt>
      <trkpt lat="45.87053" lon="4.64661">
        <ele>247.74271</ele>
        <time>2023-11-26T14:56:59.000Z</time>
      </trkpt>
      <trkpt lat="45.8705" lon="4.64665">
        <ele>247.98349</ele>
        <time>2023-11-26T14:57:00.000Z</time>
      </trkpt>
      <trkpt lat="45.87048" lon="4.64668">
        <ele>248.21994</ele>
        <time>2023-11-26T14:57:01.000Z</time>
      </trkpt>
      <trkpt lat="45.87045" lon="4.6467">
        <ele>248.44507</ele>
        <time>2023-11-26T14:57:02.000Z</time>
      </trkpt>
      <trkpt lat="45.87042" lon="4.64673">
        <ele>248.65921</ele>
        <time>2023-11-26T14:57:03.000Z</time>
      </trkpt>
      <trkpt lat="45.87039" lon="4.64676">
        <ele>248.86478</ele>
        <time>2023-11-26T14:57:04.000Z</time>
      </trkpt>
      <trkpt lat="45.87036" lon="4.64679">
        <ele>249.05106</ele>
        <time>2023-11-26T14:57:05.000Z</time>
      </trkpt>
      <trkpt lat="45.87033" lon="4.64682">
        <ele>249.09891</ele>
        <time>2023-11-26T14:57:06.000Z</time>
      </trkpt>
      <trkpt lat="45.8703" lon="4.64685">
        <ele>249.26567</ele>
        <time>2023-11-26T14:57:07.000Z</time>
      </trkpt>
      <trkpt lat="45.87027" lon="4.64688">
        <ele>248.92941</ele>
        <time>2023-11-26T14:57:08.000Z</time>
      </trkpt>
      <trkpt lat="45.87024" lon="4.64691">
        <ele>249.24443</ele>
        <time>2023-11-26T14:57:09.000Z</time>
      </trkpt>
      <trkpt lat="45.87021" lon="4.64694">
        <ele>249.43979</ele>
        <time>2023-11-26T14:57:10.000Z</time>
      </trkpt>
      <trkpt lat="45.87018" lon="4.64697">
        <ele>249.63522</ele>
        <time>2023-11-26T14:57:11.000Z</time>
      </trkpt>
      <trkpt lat="45.87015" lon="4.647">
        <ele>249.84244</ele>
        <time>2023-11-26T14:57:12.000Z</time>
      </trkpt>
      <trkpt lat="45.87012" lon="4.64703">
        <ele>250.05905</ele>
        <time>2023-11-26T14:57:13.000Z</time>
      </trkpt>
      <trkpt lat="45.8701" lon="4.64705">
        <ele>250.27115</ele>
        <time>2023-11-26T14:57:14.000Z</time>
      </trkpt>
      <trkpt lat="45.87007" lon="4.64708">
        <ele>250.46719</ele>
        <time>2023-11-26T14:57:15.000Z</time>
      </trkpt>
      <trkpt lat="45.87005" lon="4.64711">
        <ele>250.70239</ele>
        <time>2023-11-26T14:57:16.000Z</time>
      </trkpt>
      <trkpt lat="45.87003" lon="4.64715">
        <ele>250.93318</ele>
        <time>2023-11-26T14:57:17.000Z</time>
      </trkpt>
      <trkpt lat="45.87" lon="4.64718">
        <ele>251.16911</ele>
        <time>2023-11-26T14:57:18.000Z</time>
      </trkpt>
      <trkpt lat="45.86998" lon="4.64721">
        <ele>251.41406</ele>
        <time>2023-11-26T14:57:19.000Z</time>
      </trkpt>
      <trkpt lat="45.86996" lon="4.64724">
        <ele>251.67668</ele>
        <time>2023-11-26T14:57:20.000Z</time>
      </trkpt>
      <trkpt lat="45.86994" lon="4.64728">
        <ele>251.95279</ele>
        <time>2023-11-26T14:57:21.000Z</time>
      </trkpt>
      <trkpt lat="45.86991" lon="4.64732">
        <ele>252.21951</ele>
        <time>2023-11-26T14:57:22.000Z</time>
      </trkpt>
      <trkpt lat="45.86989" lon="4.64736">
        <ele>252.48515</ele>
        <time>2023-11-26T14:57:23.000Z</time>
      </trkpt>
      <trkpt lat="45.86986" lon="4.64739">
        <ele>252.76331</ele>
        <time>2023-11-26T14:57:24.000Z</time>
      </trkpt>
      <trkpt lat="45.86983" lon="4.64743">
        <ele>253.02713</ele>
        <time>2023-11-26T14:57:25.000Z</time>
      </trkpt>
      <trkpt lat="45.86981" lon="4.64747">
        <ele>253.03035</ele>
        <time>2023-11-26T14:57:26.000Z</time>
      </trkpt>
      <trkpt lat="45.86978" lon="4.6475">
        <ele>253.0479</ele>
        <time>2023-11-26T14:57:27.000Z</time>
      </trkpt>
      <trkpt lat="45.86975" lon="4.64753">
        <ele>253.59489</ele>
        <time>2023-11-26T14:57:28.000Z</time>
      </trkpt>
      <trkpt lat="45.86972" lon="4.64756">
        <ele>254.19878</ele>
        <time>2023-11-26T14:57:29.000Z</time>
      </trkpt>
      <trkpt lat="45.8697" lon="4.64759">
        <ele>254.82256</ele>
        <time>2023-11-26T14:57:30.000Z</time>
      </trkpt>
      <trkpt lat="45.86967" lon="4.64761">
        <ele>254.99236</ele>
        <time>2023-11-26T14:57:31.000Z</time>
      </trkpt>
      <trkpt lat="45.86964" lon="4.64763">
        <ele>255.26265</ele>
        <time>2023-11-26T14:57:32.000Z</time>
      </trkpt>
      <trkpt lat="45.8696" lon="4.64766">
        <ele>255.53838</ele>
        <time>2023-11-26T14:57:33.000Z</time>
      </trkpt>
      <trkpt lat="45.86957" lon="4.64768">
        <ele>255.60381</ele>
        <time>2023-11-26T14:57:34.000Z</time>
      </trkpt>
      <trkpt lat="45.86955" lon="4.6477">
        <ele>255.4938</ele>
        <time>2023-11-26T14:57:35.000Z</time>
      </trkpt>
      <trkpt lat="45.86952" lon="4.64773">
        <ele>255.87686</ele>
        <time>2023-11-26T14:57:36.000Z</time>
      </trkpt>
      <trkpt lat="45.86949" lon="4.64775">
        <ele>256.1684</ele>
        <time>2023-11-26T14:57:37.000Z</time>
      </trkpt>
      <trkpt lat="45.86946" lon="4.64777">
        <ele>256.41904</ele>
        <time>2023-11-26T14:57:38.000Z</time>
      </trkpt>
      <trkpt lat="45.86943" lon="4.64778">
        <ele>256.67395</ele>
        <time>2023-11-26T14:57:39.000Z</time>
      </trkpt>
      <trkpt lat="45.8694" lon="4.6478">
        <ele>256.90833</ele>
        <time>2023-11-26T14:57:40.000Z</time>
      </trkpt>
      <trkpt lat="45.86937" lon="4.64782">
        <ele>257.18576</ele>
        <time>2023-11-26T14:57:41.000Z</time>
      </trkpt>
      <trkpt lat="45.86934" lon="4.64785">
        <ele>257.64435</ele>
        <time>2023-11-26T14:57:42.000Z</time>
      </trkpt>
      <trkpt lat="45.86931" lon="4.64788">
        <ele>258.09433</ele>
        <time>2023-11-26T14:57:43.000Z</time>
      </trkpt>
      <trkpt lat="45.86929" lon="4.64791">
        <ele>258.52817</ele>
        <time>2023-11-26T14:57:44.000Z</time>
      </trkpt>
      <trkpt lat="45.86926" lon="4.64794">
        <ele>258.97003</ele>
        <time>2023-11-26T14:57:45.000Z</time>
      </trkpt>
      <trkpt lat="45.86924" lon="4.64798">
        <ele>259.41391</ele>
        <time>2023-11-26T14:57:46.000Z</time>
      </trkpt>
      <trkpt lat="45.86921" lon="4.64801">
        <ele>259.74725</ele>
        <time>2023-11-26T14:57:47.000Z</time>
      </trkpt>
      <trkpt lat="45.86918" lon="4.64804">
        <ele>260.05991</ele>
        <time>2023-11-26T14:57:48.000Z</time>
      </trkpt>
      <trkpt lat="45.86916" lon="4.64807">
        <ele>259.78781</ele>
        <time>2023-11-26T14:57:49.000Z</time>
      </trkpt>
      <trkpt lat="45.86913" lon="4.6481">
        <ele>259.56607</ele>
        <time>2023-11-26T14:57:50.000Z</time>
      </trkpt>
      <trkpt lat="45.86911" lon="4.64813">
        <ele>259.79996</ele>
        <time>2023-11-26T14:57:51.000Z</time>
      </trkpt>
      <trkpt lat="45.86909" lon="4.64816">
        <ele>259.91431</ele>
        <time>2023-11-26T14:57:52.000Z</time>
      </trkpt>
      <trkpt lat="45.86907" lon="4.64819">
        <ele>260.01135</ele>
        <time>2023-11-26T14:57:53.000Z</time>
      </trkpt>
      <trkpt lat="45.86906" lon="4.64822">
        <ele>260.0455</ele>
        <time>2023-11-26T14:57:54.000Z</time>
      </trkpt>
      <trkpt lat="45.86904" lon="4.64825">
        <ele>260.05386</ele>
        <time>2023-11-26T14:57:55.000Z</time>
      </trkpt>
      <trkpt lat="45.86903" lon="4.64829">
        <ele>260.04272</ele>
        <time>2023-11-26T14:57:56.000Z</time>
      </trkpt>
      <trkpt lat="45.86901" lon="4.64832">
        <ele>260.02438</ele>
        <time>2023-11-26T14:57:57.000Z</time>
      </trkpt>
      <trkpt lat="45.86899" lon="4.64836">
        <ele>259.97772</ele>
        <time>2023-11-26T14:57:58.000Z</time>
      </trkpt>
      <trkpt lat="45.86897" lon="4.6484">
        <ele>259.89719</ele>
        <time>2023-11-26T14:57:59.000Z</time>
      </trkpt>
      <trkpt lat="45.86895" lon="4.64843">
        <ele>259.80182</ele>
        <time>2023-11-26T14:58:00.000Z</time>
      </trkpt>
      <trkpt lat="45.86893" lon="4.64848">
        <ele>259.62973</ele>
        <time>2023-11-26T14:58:01.000Z</time>
      </trkpt>
      <trkpt lat="45.8689" lon="4.64852">
        <ele>259.26382</ele>
        <time>2023-11-26T14:58:02.000Z</time>
      </trkpt>
      <trkpt lat="45.86888" lon="4.64856">
        <ele>258.909</ele>
        <time>2023-11-26T14:58:03.000Z</time>
      </trkpt>
      <trkpt lat="45.86886" lon="4.6486">
        <ele>258.58716</ele>
        <time>2023-11-26T14:58:04.000Z</time>
      </trkpt>
      <trkpt lat="45.86884" lon="4.64865">
        <ele>258.26685</ele>
        <time>2023-11-26T14:58:05.000Z</time>
      </trkpt>
      <trkpt lat="45.86882" lon="4.64869">
        <ele>257.94177</ele>
        <time>2023-11-26T14:58:06.000Z</time>
      </trkpt>
      <trkpt lat="45.86879" lon="4.64874">
        <ele>257.51807</ele>
        <time>2023-11-26T14:58:07.000Z</time>
      </trkpt>
      <trkpt lat="45.86877" lon="4.64879">
        <ele>257.09283</ele>
        <time>2023-11-26T14:58:08.000Z</time>
      </trkpt>
      <trkpt lat="45.86875" lon="4.64884">
        <ele>257.08905</ele>
        <time>2023-11-26T14:58:09.000Z</time>
      </trkpt>
      <trkpt lat="45.86873" lon="4.64889">
        <ele>257.02948</ele>
        <time>2023-11-26T14:58:10.000Z</time>
      </trkpt>
      <trkpt lat="45.86871" lon="4.64895">
        <ele>256.9538</ele>
        <time>2023-11-26T14:58:11.000Z</time>
      </trkpt>
      <trkpt lat="45.8687" lon="4.64901">
        <ele>256.90219</ele>
        <time>2023-11-26T14:58:12.000Z</time>
      </trkpt>
      <trkpt lat="45.86868" lon="4.64906">
        <ele>256.86118</ele>
        <time>2023-11-26T14:58:13.000Z</time>
      </trkpt>
      <trkpt lat="45.86865" lon="4.64912">
        <ele>256.83105</ele>
        <time>2023-11-26T14:58:14.000Z</time>
      </trkpt>
      <trkpt lat="45.86862" lon="4.64918">
        <ele>256.79474</ele>
        <time>2023-11-26T14:58:15.000Z</time>
      </trkpt>
      <trkpt lat="45.8686" lon="4.64924">
        <ele>256.74973</ele>
        <time>2023-11-26T14:58:16.000Z</time>
      </trkpt>
      <trkpt lat="45.86859" lon="4.64931">
        <ele>256.75369</ele>
        <time>2023-11-26T14:58:17.000Z</time>
      </trkpt>
      <trkpt lat="45.86858" lon="4.64936">
        <ele>256.83371</ele>
        <time>2023-11-26T14:58:18.000Z</time>
      </trkpt>
      <trkpt lat="45.86855" lon="4.64942">
        <ele>256.8898</ele>
        <time>2023-11-26T14:58:19.000Z</time>
      </trkpt>
      <trkpt lat="45.86852" lon="4.6495">
        <ele>256.87723</ele>
        <time>2023-11-26T14:58:20.000Z</time>
      </trkpt>
      <trkpt lat="45.8685" lon="4.64956">
        <ele>256.88693</ele>
        <time>2023-11-26T14:58:21.000Z</time>
      </trkpt>
      <trkpt lat="45.86848" lon="4.64961">
        <ele>257.16083</ele>
        <time>2023-11-26T14:58:22.000Z</time>
      </trkpt>
      <trkpt lat="45.86845" lon="4.64966">
        <ele>257.71393</ele>
        <time>2023-11-26T14:58:23.000Z</time>
      </trkpt>
      <trkpt lat="45.86842" lon="4.64972">
        <ele>257.71906</ele>
        <time>2023-11-26T14:58:24.000Z</time>
      </trkpt>
      <trkpt lat="45.86839" lon="4.64978">
        <ele>257.86673</ele>
        <time>2023-11-26T14:58:25.000Z</time>
      </trkpt>
      <trkpt lat="45.86839" lon="4.64984">
        <ele>258.06293</ele>
        <time>2023-11-26T14:58:26.000Z</time>
      </trkpt>
      <trkpt lat="45.86837" lon="4.6499">
        <ele>258.44977</ele>
        <time>2023-11-26T14:58:27.000Z</time>
      </trkpt>
      <trkpt lat="45.86833" lon="4.64997">
        <ele>258.82697</ele>
        <time>2023-11-26T14:58:28.000Z</time>
      </trkpt>
      <trkpt lat="45.86831" lon="4.65003">
        <ele>259.33478</ele>
        <time>2023-11-26T14:58:29.000Z</time>
      </trkpt>
      <trkpt lat="45.8683" lon="4.65009">
        <ele>259.75983</ele>
        <time>2023-11-26T14:58:30.000Z</time>
      </trkpt>
      <trkpt lat="45.86828" lon="4.65016">
        <ele>259.65161</ele>
        <time>2023-11-26T14:58:31.000Z</time>
      </trkpt>
      <trkpt lat="45.86827" lon="4.65021">
        <ele>259.63208</ele>
        <time>2023-11-26T14:58:32.000Z</time>
      </trkpt>
      <trkpt lat="45.86824" lon="4.65027">
        <ele>259.60168</ele>
        <time>2023-11-26T14:58:33.000Z</time>
      </trkpt>
      <trkpt lat="45.86821" lon="4.65033">
        <ele>259.80719</ele>
        <time>2023-11-26T14:58:34.000Z</time>
      </trkpt>
      <trkpt lat="45.86818" lon="4.6504">
        <ele>260.15616</ele>
        <time>2023-11-26T14:58:35.000Z</time>
      </trkpt>
      <trkpt lat="45.86816" lon="4.65047">
        <ele>260.50769</ele>
        <time>2023-11-26T14:58:36.000Z</time>
      </trkpt>
      <trkpt lat="45.86813" lon="4.65054">
        <ele>260.37167</ele>
        <time>2023-11-26T14:58:37.000Z</time>
      </trkpt>
      <trkpt lat="45.8681" lon="4.65061">
        <ele>260.24036</ele>
        <time>2023-11-26T14:58:38.000Z</time>
      </trkpt>
      <trkpt lat="45.86808" lon="4.65067">
        <ele>260.15201</ele>
        <time>2023-11-26T14:58:39.000Z</time>
      </trkpt>
      <trkpt lat="45.86805" lon="4.65075">
        <ele>260.11371</ele>
        <time>2023-11-26T14:58:40.000Z</time>
      </trkpt>
      <trkpt lat="45.86802" lon="4.65082">
        <ele>260.05399</ele>
        <time>2023-11-26T14:58:41.000Z</time>
      </trkpt>
      <trkpt lat="45.86799" lon="4.6509">
        <ele>259.71625</ele>
        <time>2023-11-26T14:58:42.000Z</time>
      </trkpt>
      <trkpt lat="45.86796" lon="4.65097">
        <ele>259.07642</ele>
        <time>2023-11-26T14:58:43.000Z</time>
      </trkpt>
      <trkpt lat="45.86793" lon="4.65104">
        <ele>258.95987</ele>
        <time>2023-11-26T14:58:44.000Z</time>
      </trkpt>
      <trkpt lat="45.8679" lon="4.6511">
        <ele>258.72745</ele>
        <time>2023-11-26T14:58:45.000Z</time>
      </trkpt>
      <trkpt lat="45.86787" lon="4.65116">
        <ele>258.48276</ele>
        <time>2023-11-26T14:58:46.000Z</time>
      </trkpt>
      <trkpt lat="45.86782" lon="4.65122">
        <ele>257.99591</ele>
        <time>2023-11-26T14:58:47.000Z</time>
      </trkpt>
      <trkpt lat="45.86779" lon="4.65128">
        <ele>257.52866</ele>
        <time>2023-11-26T14:58:48.000Z</time>
      </trkpt>
      <trkpt lat="45.86775" lon="4.65133">
        <ele>256.94489</ele>
        <time>2023-11-26T14:58:49.000Z</time>
      </trkpt>
      <trkpt lat="45.8677" lon="4.65136">
        <ele>256.43353</ele>
        <time>2023-11-26T14:58:50.000Z</time>
      </trkpt>
      <trkpt lat="45.86767" lon="4.65139">
        <ele>256.44495</ele>
        <time>2023-11-26T14:58:51.000Z</time>
      </trkpt>
      <trkpt lat="45.86763" lon="4.65139">
        <ele>256.31177</ele>
        <time>2023-11-26T14:58:52.000Z</time>
      </trkpt>
      <trkpt lat="45.86761" lon="4.65143">
        <ele>256.27597</ele>
        <time>2023-11-26T14:58:53.000Z</time>
      </trkpt>
      <trkpt lat="45.86756" lon="4.65146">
        <ele>256.03638</ele>
        <time>2023-11-26T14:58:54.000Z</time>
      </trkpt>
      <trkpt lat="45.86752" lon="4.65147">
        <ele>255.66655</ele>
        <time>2023-11-26T14:58:55.000Z</time>
      </trkpt>
      <trkpt lat="45.86747" lon="4.65151">
        <ele>255.3143</ele>
        <time>2023-11-26T14:58:56.000Z</time>
      </trkpt>
      <trkpt lat="45.86744" lon="4.65154">
        <ele>255.4288</ele>
        <time>2023-11-26T14:58:57.000Z</time>
      </trkpt>
      <trkpt lat="45.86739" lon="4.65156">
        <ele>255.70956</ele>
        <time>2023-11-26T14:58:58.000Z</time>
      </trkpt>
      <trkpt lat="45.86735" lon="4.6516">
        <ele>256.11002</ele>
        <time>2023-11-26T14:58:59.000Z</time>
      </trkpt>
      <trkpt lat="45.8673" lon="4.65161">
        <ele>256.20166</ele>
        <time>2023-11-26T14:59:00.000Z</time>
      </trkpt>
      <trkpt lat="45.86727" lon="4.65163">
        <ele>256.45355</ele>
        <time>2023-11-26T14:59:01.000Z</time>
      </trkpt>
      <trkpt lat="45.86723" lon="4.65165">
        <ele>256.74487</ele>
        <time>2023-11-26T14:59:02.000Z</time>
      </trkpt>
      <trkpt lat="45.86719" lon="4.65166">
        <ele>257.01007</ele>
        <time>2023-11-26T14:59:03.000Z</time>
      </trkpt>
      <trkpt lat="45.86715" lon="4.65168">
        <ele>257.2998</ele>
        <time>2023-11-26T14:59:04.000Z</time>
      </trkpt>
      <trkpt lat="45.86711" lon="4.65171">
        <ele>257.65164</ele>
        <time>2023-11-26T14:59:05.000Z</time>
      </trkpt>
      <trkpt lat="45.86706" lon="4.65173">
        <ele>257.9501</ele>
        <time>2023-11-26T14:59:06.000Z</time>
      </trkpt>
      <trkpt lat="45.86703" lon="4.65175">
        <ele>258.27679</ele>
        <time>2023-11-26T14:59:07.000Z</time>
      </trkpt>
      <trkpt lat="45.86699" lon="4.65177">
        <ele>258.61816</ele>
        <time>2023-11-26T14:59:08.000Z</time>
      </trkpt>
      <trkpt lat="45.86695" lon="4.65179">
        <ele>258.9726</ele>
        <time>2023-11-26T14:59:09.000Z</time>
      </trkpt>
      <trkpt lat="45.86691" lon="4.65181">
        <ele>259.46942</ele>
        <time>2023-11-26T14:59:10.000Z</time>
      </trkpt>
      <trkpt lat="45.86687" lon="4.65182">
        <ele>260.11737</ele>
        <time>2023-11-26T14:59:11.000Z</time>
      </trkpt>
      <trkpt lat="45.86684" lon="4.65183">
        <ele>260.43668</ele>
        <time>2023-11-26T14:59:12.000Z</time>
      </trkpt>
      <trkpt lat="45.86681" lon="4.65184">
        <ele>260.81488</ele>
        <time>2023-11-26T14:59:13.000Z</time>
      </trkpt>
      <trkpt lat="45.86677" lon="4.65184">
        <ele>261.16122</ele>
        <time>2023-11-26T14:59:14.000Z</time>
      </trkpt>
      <trkpt lat="45.86672" lon="4.65185">
        <ele>261.54303</ele>
        <time>2023-11-26T14:59:15.000Z</time>
      </trkpt>
      <trkpt lat="45.86667" lon="4.65184">
        <ele>261.92068</ele>
        <time>2023-11-26T14:59:16.000Z</time>
      </trkpt>
      <trkpt lat="45.86662" lon="4.65184">
        <ele>262.25708</ele>
        <time>2023-11-26T14:59:17.000Z</time>
      </trkpt>
      <trkpt lat="45.86658" lon="4.65183">
        <ele>262.42401</ele>
        <time>2023-11-26T14:59:18.000Z</time>
      </trkpt>
      <trkpt lat="45.86652" lon="4.65183">
        <ele>262.47409</ele>
        <time>2023-11-26T14:59:19.000Z</time>
      </trkpt>
      <trkpt lat="45.86649" lon="4.65183">
        <ele>262.84827</ele>
        <time>2023-11-26T14:59:20.000Z</time>
      </trkpt>
      <trkpt lat="45.86646" lon="4.65183">
        <ele>263.29172</ele>
        <time>2023-11-26T14:59:21.000Z</time>
      </trkpt>
      <trkpt lat="45.86643" lon="4.65181">
        <ele>263.74942</ele>
        <time>2023-11-26T14:59:22.000Z</time>
      </trkpt>
      <trkpt lat="45.86641" lon="4.6518">
        <ele>264.36093</ele>
        <time>2023-11-26T14:59:23.000Z</time>
      </trkpt>
      <trkpt lat="45.86638" lon="4.65181">
        <ele>264.70813</ele>
        <time>2023-11-26T14:59:24.000Z</time>
      </trkpt>
      <trkpt lat="45.86636" lon="4.65182">
        <ele>265.05267</ele>
        <time>2023-11-26T14:59:25.000Z</time>
      </trkpt>
      <trkpt lat="45.86633" lon="4.65185">
        <ele>265.3924</ele>
        <time>2023-11-26T14:59:26.000Z</time>
      </trkpt>
      <trkpt lat="45.8663" lon="4.6519">
        <ele>264.59833</ele>
        <time>2023-11-26T14:59:28.000Z</time>
      </trkpt>
      <trkpt lat="45.86627" lon="4.65193">
        <ele>263.74194</ele>
        <time>2023-11-26T14:59:29.000Z</time>
      </trkpt>
      <trkpt lat="45.86625" lon="4.65196">
        <ele>262.84161</ele>
        <time>2023-11-26T14:59:30.000Z</time>
      </trkpt>
      <trkpt lat="45.86623" lon="4.65199">
        <ele>261.79565</ele>
        <time>2023-11-26T14:59:31.000Z</time>
      </trkpt>
      <trkpt lat="45.86621" lon="4.65202">
        <ele>260.56232</ele>
        <time>2023-11-26T14:59:32.000Z</time>
      </trkpt>
      <trkpt lat="45.86619" lon="4.65205">
        <ele>259.7348</ele>
        <time>2023-11-26T14:59:33.000Z</time>
      </trkpt>
      <trkpt lat="45.86617" lon="4.65208">
        <ele>258.80917</ele>
        <time>2023-11-26T14:59:34.000Z</time>
      </trkpt>
      <trkpt lat="45.86616" lon="4.6521">
        <ele>257.91617</ele>
        <time>2023-11-26T14:59:35.000Z</time>
      </trkpt>
      <trkpt lat="45.86615" lon="4.65213">
        <ele>257.01352</ele>
        <time>2023-11-26T14:59:36.000Z</time>
      </trkpt>
      <trkpt lat="45.86613" lon="4.65216">
        <ele>256.11148</ele>
        <time>2023-11-26T14:59:37.000Z</time>
      </trkpt>
      <trkpt lat="45.86611" lon="4.65219">
        <ele>255.22282</ele>
        <time>2023-11-26T14:59:38.000Z</time>
      </trkpt>
      <trkpt lat="45.86609" lon="4.65223">
        <ele>254.31985</ele>
        <time>2023-11-26T14:59:39.000Z</time>
      </trkpt>
      <trkpt lat="45.86607" lon="4.65226">
        <ele>253.42033</ele>
        <time>2023-11-26T14:59:40.000Z</time>
      </trkpt>
      <trkpt lat="45.86605" lon="4.65229">
        <ele>252.54036</ele>
        <time>2023-11-26T14:59:41.000Z</time>
      </trkpt>
      <trkpt lat="45.86603" lon="4.65232">
        <ele>251.45911</ele>
        <time>2023-11-26T14:59:42.000Z</time>
      </trkpt>
      <trkpt lat="45.86601" lon="4.65236">
        <ele>250.33231</ele>
        <time>2023-11-26T14:59:43.000Z</time>
      </trkpt>
      <trkpt lat="45.86599" lon="4.6524">
        <ele>249.07661</ele>
        <time>2023-11-26T14:59:44.000Z</time>
      </trkpt>
      <trkpt lat="45.86597" lon="4.65243">
        <ele>248.06332</ele>
        <time>2023-11-26T14:59:45.000Z</time>
      </trkpt>
      <trkpt lat="45.86595" lon="4.65247">
        <ele>246.95215</ele>
        <time>2023-11-26T14:59:46.000Z</time>
      </trkpt>
      <trkpt lat="45.86593" lon="4.65252">
        <ele>245.86189</ele>
        <time>2023-11-26T14:59:47.000Z</time>
      </trkpt>
      <trkpt lat="45.8659" lon="4.65256">
        <ele>245.90295</ele>
        <time>2023-11-26T14:59:48.000Z</time>
      </trkpt>
      <trkpt lat="45.86588" lon="4.65261">
        <ele>245.97202</ele>
        <time>2023-11-26T14:59:49.000Z</time>
      </trkpt>
      <trkpt lat="45.86586" lon="4.65266">
        <ele>246.03264</ele>
        <time>2023-11-26T14:59:50.000Z</time>
      </trkpt>
      <trkpt lat="45.86583" lon="4.65271">
        <ele>245.88188</ele>
        <time>2023-11-26T14:59:51.000Z</time>
      </trkpt>
      <trkpt lat="45.8658" lon="4.65276">
        <ele>245.78191</ele>
        <time>2023-11-26T14:59:52.000Z</time>
      </trkpt>
      <trkpt lat="45.86577" lon="4.65282">
        <ele>245.63647</ele>
        <time>2023-11-26T14:59:53.000Z</time>
      </trkpt>
      <trkpt lat="45.86574" lon="4.65288">
        <ele>245.43469</ele>
        <time>2023-11-26T14:59:54.000Z</time>
      </trkpt>
      <trkpt lat="45.86571" lon="4.65293">
        <ele>245.21848</ele>
        <time>2023-11-26T14:59:55.000Z</time>
      </trkpt>
      <trkpt lat="45.86569" lon="4.65298">
        <ele>244.99557</ele>
        <time>2023-11-26T14:59:56.000Z</time>
      </trkpt>
      <trkpt lat="45.86566" lon="4.65302">
        <ele>244.77133</ele>
        <time>2023-11-26T14:59:57.000Z</time>
      </trkpt>
      <trkpt lat="45.86562" lon="4.65307">
        <ele>244.54214</ele>
        <time>2023-11-26T14:59:58.000Z</time>
      </trkpt>
      <trkpt lat="45.86558" lon="4.65312">
        <ele>244.25113</ele>
        <time>2023-11-26T14:59:59.000Z</time>
      </trkpt>
      <trkpt lat="45.86555" lon="4.65318">
        <ele>243.94576</ele>
        <time>2023-11-26T15:00:00.000Z</time>
      </trkpt>
      <trkpt lat="45.86553" lon="4.65323">
        <ele>243.60794</ele>
        <time>2023-11-26T15:00:01.000Z</time>
      </trkpt>
      <trkpt lat="45.86549" lon="4.6533">
        <ele>243.2637</ele>
        <time>2023-11-26T15:00:02.000Z</time>
      </trkpt>
      <trkpt lat="45.86546" lon="4.65333">
        <ele>242.93086</ele>
        <time>2023-11-26T15:00:03.000Z</time>
      </trkpt>
      <trkpt lat="45.86542" lon="4.65337">
        <ele>242.4998</ele>
        <time>2023-11-26T15:00:04.000Z</time>
      </trkpt>
      <trkpt lat="45.86538" lon="4.65341">
        <ele>242.04182</ele>
        <time>2023-11-26T15:00:05.000Z</time>
      </trkpt>
      <trkpt lat="45.86535" lon="4.65346">
        <ele>241.47421</ele>
        <time>2023-11-26T15:00:06.000Z</time>
      </trkpt>
      <trkpt lat="45.86533" lon="4.65351">
        <ele>241.38306</ele>
        <time>2023-11-26T15:00:07.000Z</time>
      </trkpt>
      <trkpt lat="45.8653" lon="4.65356">
        <ele>241.25188</ele>
        <time>2023-11-26T15:00:08.000Z</time>
      </trkpt>
      <trkpt lat="45.86527" lon="4.65361">
        <ele>241.11426</ele>
        <time>2023-11-26T15:00:09.000Z</time>
      </trkpt>
      <trkpt lat="45.86525" lon="4.65366">
        <ele>241</ele>
        <time>2023-11-26T15:00:10.000Z</time>
      </trkpt>
      <trkpt lat="45.86522" lon="4.6537">
        <ele>241.10165</ele>
        <time>2023-11-26T15:00:11.000Z</time>
      </trkpt>
      <trkpt lat="45.8652" lon="4.65374">
        <ele>241.02026</ele>
        <time>2023-11-26T15:00:12.000Z</time>
      </trkpt>
      <trkpt lat="45.86518" lon="4.65379">
        <ele>240.92343</ele>
        <time>2023-11-26T15:00:13.000Z</time>
      </trkpt>
      <trkpt lat="45.86516" lon="4.65383">
        <ele>240.84744</ele>
        <time>2023-11-26T15:00:14.000Z</time>
      </trkpt>
      <trkpt lat="45.86513" lon="4.65387">
        <ele>240.77596</ele>
        <time>2023-11-26T15:00:15.000Z</time>
      </trkpt>
      <trkpt lat="45.86511" lon="4.65391">
        <ele>240.71317</ele>
        <time>2023-11-26T15:00:16.000Z</time>
      </trkpt>
      <trkpt lat="45.86509" lon="4.65395">
        <ele>240.6608</ele>
        <time>2023-11-26T15:00:17.000Z</time>
      </trkpt>
      <trkpt lat="45.86507" lon="4.654">
        <ele>242.06088</ele>
        <time>2023-11-26T15:00:18.000Z</time>
      </trkpt>
      <trkpt lat="45.86505" lon="4.65404">
        <ele>243.49309</ele>
        <time>2023-11-26T15:00:19.000Z</time>
      </trkpt>
      <trkpt lat="45.86503" lon="4.65409">
        <ele>245.0145</ele>
        <time>2023-11-26T15:00:20.000Z</time>
      </trkpt>
      <trkpt lat="45.86501" lon="4.65414">
        <ele>246.27194</ele>
        <time>2023-11-26T15:00:21.000Z</time>
      </trkpt>
      <trkpt lat="45.86499" lon="4.65419">
        <ele>247.62143</ele>
        <time>2023-11-26T15:00:22.000Z</time>
      </trkpt>
      <trkpt lat="45.86498" lon="4.65423">
        <ele>248.96396</ele>
        <time>2023-11-26T15:00:23.000Z</time>
      </trkpt>
      <trkpt lat="45.86497" lon="4.65428">
        <ele>249.31125</ele>
        <time>2023-11-26T15:00:24.000Z</time>
      </trkpt>
      <trkpt lat="45.86496" lon="4.65433">
        <ele>249.64616</ele>
        <time>2023-11-26T15:00:25.000Z</time>
      </trkpt>
      <trkpt lat="45.86497" lon="4.65438">
        <ele>250.09172</ele>
        <time>2023-11-26T15:00:26.000Z</time>
      </trkpt>
      <trkpt lat="45.86499" lon="4.65443">
        <ele>250.05786</ele>
        <time>2023-11-26T15:00:27.000Z</time>
      </trkpt>
      <trkpt lat="45.86502" lon="4.65447">
        <ele>250.06511</ele>
        <time>2023-11-26T15:00:28.000Z</time>
      </trkpt>
      <trkpt lat="45.86505" lon="4.65451">
        <ele>250.06514</ele>
        <time>2023-11-26T15:00:29.000Z</time>
      </trkpt>
      <trkpt lat="45.86508" lon="4.65455">
        <ele>250.07642</ele>
        <time>2023-11-26T15:00:30.000Z</time>
      </trkpt>
      <trkpt lat="45.8651" lon="4.6546">
        <ele>250.047</ele>
        <time>2023-11-26T15:00:31.000Z</time>
      </trkpt>
      <trkpt lat="45.8651" lon="4.65466">
        <ele>250.15567</ele>
        <time>2023-11-26T15:00:32.000Z</time>
      </trkpt>
      <trkpt lat="45.86509" lon="4.65471">
        <ele>250.29805</ele>
        <time>2023-11-26T15:00:33.000Z</time>
      </trkpt>
      <trkpt lat="45.86507" lon="4.65475">
        <ele>250.40442</ele>
        <time>2023-11-26T15:00:34.000Z</time>
      </trkpt>
      <trkpt lat="45.86505" lon="4.65481">
        <ele>251.58188</ele>
        <time>2023-11-26T15:00:35.000Z</time>
      </trkpt>
      <trkpt lat="45.86503" lon="4.65486">
        <ele>252.75317</ele>
        <time>2023-11-26T15:00:36.000Z</time>
      </trkpt>
      <trkpt lat="45.86502" lon="4.65492">
        <ele>253.92883</ele>
        <time>2023-11-26T15:00:37.000Z</time>
      </trkpt>
      <trkpt lat="45.86501" lon="4.65497">
        <ele>253.68127</ele>
        <time>2023-11-26T15:00:38.000Z</time>
      </trkpt>
      <trkpt lat="45.865" lon="4.65502">
        <ele>253.44548</ele>
        <time>2023-11-26T15:00:39.000Z</time>
      </trkpt>
      <trkpt lat="45.865" lon="4.65507">
        <ele>253.14372</ele>
        <time>2023-11-26T15:00:40.000Z</time>
      </trkpt>
      <trkpt lat="45.86501" lon="4.65512">
        <ele>252.65092</ele>
        <time>2023-11-26T15:00:41.000Z</time>
      </trkpt>
      <trkpt lat="45.865" lon="4.65517">
        <ele>252.11829</ele>
        <time>2023-11-26T15:00:42.000Z</time>
      </trkpt>
      <trkpt lat="45.86498" lon="4.65523">
        <ele>252.33777</ele>
        <time>2023-11-26T15:00:43.000Z</time>
      </trkpt>
      <trkpt lat="45.86495" lon="4.6553">
        <ele>253.62956</ele>
        <time>2023-11-26T15:00:44.000Z</time>
      </trkpt>
      <trkpt lat="45.86493" lon="4.65535">
        <ele>254.97372</ele>
        <time>2023-11-26T15:00:45.000Z</time>
      </trkpt>
      <trkpt lat="45.86493" lon="4.65541">
        <ele>256.03079</ele>
        <time>2023-11-26T15:00:46.000Z</time>
      </trkpt>
      <trkpt lat="45.86491" lon="4.65546">
        <ele>257.15009</ele>
        <time>2023-11-26T15:00:47.000Z</time>
      </trkpt>
      <trkpt lat="45.86489" lon="4.65551">
        <ele>258.2933</ele>
        <time>2023-11-26T15:00:48.000Z</time>
      </trkpt>
      <trkpt lat="45.86488" lon="4.65556">
        <ele>259.47025</ele>
        <time>2023-11-26T15:00:49.000Z</time>
      </trkpt>
      <trkpt lat="45.86488" lon="4.65561">
        <ele>260.6571</ele>
        <time>2023-11-26T15:00:50.000Z</time>
      </trkpt>
      <trkpt lat="45.86486" lon="4.65565">
        <ele>261.85034</ele>
        <time>2023-11-26T15:00:51.000Z</time>
      </trkpt>
      <trkpt lat="45.86484" lon="4.65569">
        <ele>263.12903</ele>
        <time>2023-11-26T15:00:52.000Z</time>
      </trkpt>
      <trkpt lat="45.86483" lon="4.65574">
        <ele>264.52649</ele>
        <time>2023-11-26T15:00:53.000Z</time>
      </trkpt>
      <trkpt lat="45.86482" lon="4.65578">
        <ele>266.04376</ele>
        <time>2023-11-26T15:00:54.000Z</time>
      </trkpt>
      <trkpt lat="45.86481" lon="4.65583">
        <ele>266.52545</ele>
        <time>2023-11-26T15:00:55.000Z</time>
      </trkpt>
      <trkpt lat="45.8648" lon="4.65587">
        <ele>267.02341</ele>
        <time>2023-11-26T15:00:56.000Z</time>
      </trkpt>
      <trkpt lat="45.86479" lon="4.65591">
        <ele>267.20929</ele>
        <time>2023-11-26T15:00:57.000Z</time>
      </trkpt>
      <trkpt lat="45.86478" lon="4.65596">
        <ele>267.41156</ele>
        <time>2023-11-26T15:00:58.000Z</time>
      </trkpt>
      <trkpt lat="45.86477" lon="4.656">
        <ele>267.59482</ele>
        <time>2023-11-26T15:00:59.000Z</time>
      </trkpt>
      <trkpt lat="45.86476" lon="4.65605">
        <ele>267.76407</ele>
        <time>2023-11-26T15:01:00.000Z</time>
      </trkpt>
      <trkpt lat="45.86475" lon="4.6561">
        <ele>268.42215</ele>
        <time>2023-11-26T15:01:01.000Z</time>
      </trkpt>
      <trkpt lat="45.86474" lon="4.65615">
        <ele>269.01819</ele>
        <time>2023-11-26T15:01:02.000Z</time>
      </trkpt>
      <trkpt lat="45.86473" lon="4.65621">
        <ele>268.90414</ele>
        <time>2023-11-26T15:01:03.000Z</time>
      </trkpt>
      <trkpt lat="45.86471" lon="4.65626">
        <ele>268.96725</ele>
        <time>2023-11-26T15:01:04.000Z</time>
      </trkpt>
      <trkpt lat="45.8647" lon="4.6563">
        <ele>269.02017</ele>
        <time>2023-11-26T15:01:05.000Z</time>
      </trkpt>
      <trkpt lat="45.86467" lon="4.65634">
        <ele>269.37701</ele>
        <time>2023-11-26T15:01:06.000Z</time>
      </trkpt>
      <trkpt lat="45.86464" lon="4.65636">
        <ele>269.72955</ele>
        <time>2023-11-26T15:01:07.000Z</time>
      </trkpt>
      <trkpt lat="45.8646" lon="4.65637">
        <ele>270.10794</ele>
        <time>2023-11-26T15:01:08.000Z</time>
      </trkpt>
      <trkpt lat="45.86456" lon="4.65637">
        <ele>270.1474</ele>
        <time>2023-11-26T15:01:09.000Z</time>
      </trkpt>
      <trkpt lat="45.86452" lon="4.65636">
        <ele>270.19281</ele>
        <time>2023-11-26T15:01:10.000Z</time>
      </trkpt>
      <trkpt lat="45.86448" lon="4.65633">
        <ele>270.26862</ele>
        <time>2023-11-26T15:01:11.000Z</time>
      </trkpt>
      <trkpt lat="45.86445" lon="4.65631">
        <ele>270.30023</ele>
        <time>2023-11-26T15:01:12.000Z</time>
      </trkpt>
      <trkpt lat="45.86441" lon="4.6563">
        <ele>269.8139</ele>
        <time>2023-11-26T15:01:13.000Z</time>
      </trkpt>
      <trkpt lat="45.86437" lon="4.65628">
        <ele>269.28021</ele>
        <time>2023-11-26T15:01:14.000Z</time>
      </trkpt>
      <trkpt lat="45.86434" lon="4.65626">
        <ele>268.68646</ele>
        <time>2023-11-26T15:01:15.000Z</time>
      </trkpt>
      <trkpt lat="45.8643" lon="4.65625">
        <ele>268.0159</ele>
        <time>2023-11-26T15:01:16.000Z</time>
      </trkpt>
      <trkpt lat="45.86426" lon="4.65626">
        <ele>267.67975</ele>
        <time>2023-11-26T15:01:17.000Z</time>
      </trkpt>
      <trkpt lat="45.86422" lon="4.65627">
        <ele>267.28665</ele>
        <time>2023-11-26T15:01:18.000Z</time>
      </trkpt>
      <trkpt lat="45.86419" lon="4.6563">
        <ele>266.94452</ele>
        <time>2023-11-26T15:01:19.000Z</time>
      </trkpt>
      <trkpt lat="45.86417" lon="4.65633">
        <ele>265.8204</ele>
        <time>2023-11-26T15:01:20.000Z</time>
      </trkpt>
      <trkpt lat="45.86414" lon="4.65637">
        <ele>264.70105</ele>
        <time>2023-11-26T15:01:21.000Z</time>
      </trkpt>
      <trkpt lat="45.86411" lon="4.65641">
        <ele>263.61584</ele>
        <time>2023-11-26T15:01:22.000Z</time>
      </trkpt>
      <trkpt lat="45.86409" lon="4.65645">
        <ele>262.4649</ele>
        <time>2023-11-26T15:01:23.000Z</time>
      </trkpt>
      <trkpt lat="45.86406" lon="4.65648">
        <ele>261.20111</ele>
        <time>2023-11-26T15:01:24.000Z</time>
      </trkpt>
      <trkpt lat="45.86402" lon="4.65653">
        <ele>259.90472</ele>
        <time>2023-11-26T15:01:25.000Z</time>
      </trkpt>
      <trkpt lat="45.86398" lon="4.65655">
        <ele>258.60092</ele>
        <time>2023-11-26T15:01:26.000Z</time>
      </trkpt>
      <trkpt lat="45.86394" lon="4.65657">
        <ele>257.05096</ele>
        <time>2023-11-26T15:01:27.000Z</time>
      </trkpt>
      <trkpt lat="45.86391" lon="4.65659">
        <ele>255.33171</ele>
        <time>2023-11-26T15:01:28.000Z</time>
      </trkpt>
      <trkpt lat="45.86386" lon="4.65661">
        <ele>253.93942</ele>
        <time>2023-11-26T15:01:29.000Z</time>
      </trkpt>
      <trkpt lat="45.86383" lon="4.65662">
        <ele>252.48499</ele>
        <time>2023-11-26T15:01:30.000Z</time>
      </trkpt>
      <trkpt lat="45.86379" lon="4.65663">
        <ele>251.03781</ele>
        <time>2023-11-26T15:01:31.000Z</time>
      </trkpt>
      <trkpt lat="45.86375" lon="4.65664">
        <ele>250.03256</ele>
        <time>2023-11-26T15:01:32.000Z</time>
      </trkpt>
      <trkpt lat="45.86372" lon="4.65667">
        <ele>249.35629</ele>
        <time>2023-11-26T15:01:33.000Z</time>
      </trkpt>
      <trkpt lat="45.86369" lon="4.65671">
        <ele>248.60709</ele>
        <time>2023-11-26T15:01:34.000Z</time>
      </trkpt>
      <trkpt lat="45.86367" lon="4.65676">
        <ele>247.84793</ele>
        <time>2023-11-26T15:01:35.000Z</time>
      </trkpt>
      <trkpt lat="45.86364" lon="4.6568">
        <ele>247.14944</ele>
        <time>2023-11-26T15:01:36.000Z</time>
      </trkpt>
      <trkpt lat="45.86361" lon="4.65685">
        <ele>246.40019</ele>
        <time>2023-11-26T15:01:37.000Z</time>
      </trkpt>
      <trkpt lat="45.86359" lon="4.6569">
        <ele>245.65706</ele>
        <time>2023-11-26T15:01:38.000Z</time>
      </trkpt>
      <trkpt lat="45.86357" lon="4.65695">
        <ele>244.87595</ele>
        <time>2023-11-26T15:01:39.000Z</time>
      </trkpt>
      <trkpt lat="45.86354" lon="4.657">
        <ele>244.85327</ele>
        <time>2023-11-26T15:01:40.000Z</time>
      </trkpt>
      <trkpt lat="45.86351" lon="4.65703">
        <ele>244.81042</ele>
        <time>2023-11-26T15:01:41.000Z</time>
      </trkpt>
      <trkpt lat="45.86348" lon="4.65708">
        <ele>244.73601</ele>
        <time>2023-11-26T15:01:42.000Z</time>
      </trkpt>
      <trkpt lat="45.86346" lon="4.65713">
        <ele>244.70822</ele>
        <time>2023-11-26T15:01:43.000Z</time>
      </trkpt>
      <trkpt lat="45.86343" lon="4.65718">
        <ele>244.58899</ele>
        <time>2023-11-26T15:01:44.000Z</time>
      </trkpt>
      <trkpt lat="45.86341" lon="4.65722">
        <ele>244.50198</ele>
        <time>2023-11-26T15:01:45.000Z</time>
      </trkpt>
      <trkpt lat="45.86337" lon="4.65727">
        <ele>244.41277</ele>
        <time>2023-11-26T15:01:46.000Z</time>
      </trkpt>
      <trkpt lat="45.86333" lon="4.65732">
        <ele>244.28122</ele>
        <time>2023-11-26T15:01:47.000Z</time>
      </trkpt>
      <trkpt lat="45.8633" lon="4.65739">
        <ele>244.1973</ele>
        <time>2023-11-26T15:01:48.000Z</time>
      </trkpt>
      <trkpt lat="45.86327" lon="4.65744">
        <ele>244.01106</ele>
        <time>2023-11-26T15:01:49.000Z</time>
      </trkpt>
      <trkpt lat="45.86324" lon="4.65751">
        <ele>244.31644</ele>
        <time>2023-11-26T15:01:50.000Z</time>
      </trkpt>
      <trkpt lat="45.8632" lon="4.65758">
        <ele>244.53357</ele>
        <time>2023-11-26T15:01:51.000Z</time>
      </trkpt>
      <trkpt lat="45.86316" lon="4.65765">
        <ele>244.27274</ele>
        <time>2023-11-26T15:01:52.000Z</time>
      </trkpt>
      <trkpt lat="45.86313" lon="4.65771">
        <ele>244.00627</ele>
        <time>2023-11-26T15:01:53.000Z</time>
      </trkpt>
      <trkpt lat="45.86309" lon="4.65778">
        <ele>243.7636</ele>
        <time>2023-11-26T15:01:54.000Z</time>
      </trkpt>
      <trkpt lat="45.86305" lon="4.65785">
        <ele>243.54102</ele>
        <time>2023-11-26T15:01:55.000Z</time>
      </trkpt>
      <trkpt lat="45.86301" lon="4.65791">
        <ele>243.27493</ele>
        <time>2023-11-26T15:01:56.000Z</time>
      </trkpt>
      <trkpt lat="45.86297" lon="4.65798">
        <ele>242.83138</ele>
        <time>2023-11-26T15:01:57.000Z</time>
      </trkpt>
      <trkpt lat="45.86293" lon="4.65805">
        <ele>242.30685</ele>
        <time>2023-11-26T15:01:58.000Z</time>
      </trkpt>
      <trkpt lat="45.86289" lon="4.65812">
        <ele>241.70663</ele>
        <time>2023-11-26T15:01:59.000Z</time>
      </trkpt>
      <trkpt lat="45.86285" lon="4.65819">
        <ele>241.10432</ele>
        <time>2023-11-26T15:02:00.000Z</time>
      </trkpt>
      <trkpt lat="45.86281" lon="4.65825">
        <ele>240.88187</ele>
        <time>2023-11-26T15:02:01.000Z</time>
      </trkpt>
      <trkpt lat="45.86277" lon="4.65831">
        <ele>240.58505</ele>
        <time>2023-11-26T15:02:02.000Z</time>
      </trkpt>
      <trkpt lat="45.86273" lon="4.65838">
        <ele>240.27689</ele>
        <time>2023-11-26T15:02:03.000Z</time>
      </trkpt>
      <trkpt lat="45.8627" lon="4.65845">
        <ele>240.01521</ele>
        <time>2023-11-26T15:02:04.000Z</time>
      </trkpt>
      <trkpt lat="45.86267" lon="4.65851">
        <ele>239.76865</ele>
        <time>2023-11-26T15:02:05.000Z</time>
      </trkpt>
      <trkpt lat="45.86263" lon="4.65857">
        <ele>239.52481</ele>
        <time>2023-11-26T15:02:06.000Z</time>
      </trkpt>
      <trkpt lat="45.8626" lon="4.65862">
        <ele>239.53409</ele>
        <time>2023-11-26T15:02:07.000Z</time>
      </trkpt>
      <trkpt lat="45.86256" lon="4.65867">
        <ele>239.61201</ele>
        <time>2023-11-26T15:02:08.000Z</time>
      </trkpt>
      <trkpt lat="45.86254" lon="4.65873">
        <ele>239.7627</ele>
        <time>2023-11-26T15:02:09.000Z</time>
      </trkpt>
      <trkpt lat="45.86251" lon="4.65877">
        <ele>239.48454</ele>
        <time>2023-11-26T15:02:10.000Z</time>
      </trkpt>
      <trkpt lat="45.86248" lon="4.65882">
        <ele>239.25957</ele>
        <time>2023-11-26T15:02:11.000Z</time>
      </trkpt>
      <trkpt lat="45.86245" lon="4.65886">
        <ele>239.09473</ele>
        <time>2023-11-26T15:02:12.000Z</time>
      </trkpt>
      <trkpt lat="45.86241" lon="4.65889">
        <ele>238.97583</ele>
        <time>2023-11-26T15:02:13.000Z</time>
      </trkpt>
      <trkpt lat="45.86239" lon="4.65892">
        <ele>238.8532</ele>
        <time>2023-11-26T15:02:14.000Z</time>
      </trkpt>
      <trkpt lat="45.86237" lon="4.65894">
        <ele>238.7196</ele>
        <time>2023-11-26T15:02:15.000Z</time>
      </trkpt>
      <trkpt lat="45.86234" lon="4.65897">
        <ele>238.56303</ele>
        <time>2023-11-26T15:02:16.000Z</time>
      </trkpt>
      <trkpt lat="45.8623" lon="4.65899">
        <ele>238.43411</ele>
        <time>2023-11-26T15:02:17.000Z</time>
      </trkpt>
      <trkpt lat="45.86228" lon="4.65903">
        <ele>238.22444</ele>
        <time>2023-11-26T15:02:18.000Z</time>
      </trkpt>
      <trkpt lat="45.86225" lon="4.65903">
        <ele>238.12277</ele>
        <time>2023-11-26T15:02:19.000Z</time>
      </trkpt>
      <trkpt lat="45.86222" lon="4.65904">
        <ele>238.04643</ele>
        <time>2023-11-26T15:02:20.000Z</time>
      </trkpt>
      <trkpt lat="45.86219" lon="4.65905">
        <ele>237.66809</ele>
        <time>2023-11-26T15:02:21.000Z</time>
      </trkpt>
      <trkpt lat="45.86217" lon="4.65905">
        <ele>237.80107</ele>
        <time>2023-11-26T15:02:22.000Z</time>
      </trkpt>
      <trkpt lat="45.86214" lon="4.65907">
        <ele>237.90756</ele>
        <time>2023-11-26T15:02:23.000Z</time>
      </trkpt>
      <trkpt lat="45.86211" lon="4.65909">
        <ele>238.02151</ele>
        <time>2023-11-26T15:02:24.000Z</time>
      </trkpt>
      <trkpt lat="45.86208" lon="4.65911">
        <ele>238.12837</ele>
        <time>2023-11-26T15:02:25.000Z</time>
      </trkpt>
      <trkpt lat="45.86205" lon="4.65913">
        <ele>238.24698</ele>
        <time>2023-11-26T15:02:26.000Z</time>
      </trkpt>
      <trkpt lat="45.86202" lon="4.65915">
        <ele>238.35803</ele>
        <time>2023-11-26T15:02:27.000Z</time>
      </trkpt>
      <trkpt lat="45.86199" lon="4.65916">
        <ele>238.46834</ele>
        <time>2023-11-26T15:02:28.000Z</time>
      </trkpt>
      <trkpt lat="45.86196" lon="4.65918">
        <ele>238.60803</ele>
        <time>2023-11-26T15:02:29.000Z</time>
      </trkpt>
      <trkpt lat="45.86193" lon="4.6592">
        <ele>238.7968</ele>
        <time>2023-11-26T15:02:30.000Z</time>
      </trkpt>
      <trkpt lat="45.8619" lon="4.65922">
        <ele>239.03683</ele>
        <time>2023-11-26T15:02:31.000Z</time>
      </trkpt>
      <trkpt lat="45.86187" lon="4.65924">
        <ele>239.25644</ele>
        <time>2023-11-26T15:02:32.000Z</time>
      </trkpt>
      <trkpt lat="45.86184" lon="4.65927">
        <ele>239.46199</ele>
        <time>2023-11-26T15:02:33.000Z</time>
      </trkpt>
      <trkpt lat="45.86181" lon="4.65929">
        <ele>239.61353</ele>
        <time>2023-11-26T15:02:34.000Z</time>
      </trkpt>
      <trkpt lat="45.86178" lon="4.65932">
        <ele>239.81262</ele>
        <time>2023-11-26T15:02:35.000Z</time>
      </trkpt>
      <trkpt lat="45.86175" lon="4.65934">
        <ele>240.05762</ele>
        <time>2023-11-26T15:02:36.000Z</time>
      </trkpt>
      <trkpt lat="45.86172" lon="4.65937">
        <ele>240.49646</ele>
        <time>2023-11-26T15:02:37.000Z</time>
      </trkpt>
      <trkpt lat="45.86168" lon="4.65939">
        <ele>240.86247</ele>
        <time>2023-11-26T15:02:38.000Z</time>
      </trkpt>
      <trkpt lat="45.86165" lon="4.65941">
        <ele>241.18767</ele>
        <time>2023-11-26T15:02:39.000Z</time>
      </trkpt>
      <trkpt lat="45.86161" lon="4.65943">
        <ele>241.505</ele>
        <time>2023-11-26T15:02:40.000Z</time>
      </trkpt>
      <trkpt lat="45.86158" lon="4.65945">
        <ele>241.61006</ele>
        <time>2023-11-26T15:02:41.000Z</time>
      </trkpt>
      <trkpt lat="45.86156" lon="4.65948">
        <ele>241.28726</ele>
        <time>2023-11-26T15:02:42.000Z</time>
      </trkpt>
      <trkpt lat="45.86153" lon="4.65951">
        <ele>241.38333</ele>
        <time>2023-11-26T15:02:43.000Z</time>
      </trkpt>
      <trkpt lat="45.8615" lon="4.65954">
        <ele>241.40527</ele>
        <time>2023-11-26T15:02:44.000Z</time>
      </trkpt>
      <trkpt lat="45.86147" lon="4.65957">
        <ele>241.40096</ele>
        <time>2023-11-26T15:02:45.000Z</time>
      </trkpt>
      <trkpt lat="45.86144" lon="4.6596">
        <ele>241.40132</ele>
        <time>2023-11-26T15:02:46.000Z</time>
      </trkpt>
      <trkpt lat="45.86141" lon="4.65963">
        <ele>241.37402</ele>
        <time>2023-11-26T15:02:47.000Z</time>
      </trkpt>
      <trkpt lat="45.86138" lon="4.65966">
        <ele>241.40198</ele>
        <time>2023-11-26T15:02:48.000Z</time>
      </trkpt>
      <trkpt lat="45.86135" lon="4.65968">
        <ele>241.41574</ele>
        <time>2023-11-26T15:02:49.000Z</time>
      </trkpt>
      <trkpt lat="45.86132" lon="4.65971">
        <ele>241.37399</ele>
        <time>2023-11-26T15:02:50.000Z</time>
      </trkpt>
      <trkpt lat="45.86129" lon="4.65973">
        <ele>241.30115</ele>
        <time>2023-11-26T15:02:51.000Z</time>
      </trkpt>
      <trkpt lat="45.86127" lon="4.65974">
        <ele>241.25557</ele>
        <time>2023-11-26T15:02:52.000Z</time>
      </trkpt>
      <trkpt lat="45.86124" lon="4.65974">
        <ele>241.24893</ele>
        <time>2023-11-26T15:02:53.000Z</time>
      </trkpt>
      <trkpt lat="45.86121" lon="4.65973">
        <ele>241.09111</ele>
        <time>2023-11-26T15:02:54.000Z</time>
      </trkpt>
      <trkpt lat="45.86117" lon="4.65972">
        <ele>240.81308</ele>
        <time>2023-11-26T15:02:55.000Z</time>
      </trkpt>
      <trkpt lat="45.86115" lon="4.6597">
        <ele>240.49734</ele>
        <time>2023-11-26T15:02:56.000Z</time>
      </trkpt>
      <trkpt lat="45.86111" lon="4.65969">
        <ele>240.57584</ele>
        <time>2023-11-26T15:02:57.000Z</time>
      </trkpt>
      <trkpt lat="45.86108" lon="4.6597">
        <ele>240.87198</ele>
        <time>2023-11-26T15:02:58.000Z</time>
      </trkpt>
      <trkpt lat="45.86105" lon="4.65972">
        <ele>241.15891</ele>
        <time>2023-11-26T15:02:59.000Z</time>
      </trkpt>
      <trkpt lat="45.86102" lon="4.65975">
        <ele>241.45586</ele>
        <time>2023-11-26T15:03:00.000Z</time>
      </trkpt>
      <trkpt lat="45.861" lon="4.65978">
        <ele>241.9377</ele>
        <time>2023-11-26T15:03:01.000Z</time>
      </trkpt>
      <trkpt lat="45.86098" lon="4.65982">
        <ele>242.42093</ele>
        <time>2023-11-26T15:03:02.000Z</time>
      </trkpt>
      <trkpt lat="45.86097" lon="4.65986">
        <ele>242.51523</ele>
        <time>2023-11-26T15:03:03.000Z</time>
      </trkpt>
      <trkpt lat="45.86095" lon="4.65991">
        <ele>242.69315</ele>
        <time>2023-11-26T15:03:04.000Z</time>
      </trkpt>
      <trkpt lat="45.86093" lon="4.65996">
        <ele>242.89136</ele>
        <time>2023-11-26T15:03:05.000Z</time>
      </trkpt>
      <trkpt lat="45.86091" lon="4.66">
        <ele>242.87289</ele>
        <time>2023-11-26T15:03:06.000Z</time>
      </trkpt>
      <trkpt lat="45.8609" lon="4.66005">
        <ele>242.73465</ele>
        <time>2023-11-26T15:03:07.000Z</time>
      </trkpt>
      <trkpt lat="45.86088" lon="4.6601">
        <ele>242.59143</ele>
        <time>2023-11-26T15:03:08.000Z</time>
      </trkpt>
      <trkpt lat="45.86086" lon="4.66014">
        <ele>242.44527</ele>
        <time>2023-11-26T15:03:09.000Z</time>
      </trkpt>
      <trkpt lat="45.86084" lon="4.66018">
        <ele>242.24663</ele>
        <time>2023-11-26T15:03:10.000Z</time>
      </trkpt>
      <trkpt lat="45.86083" lon="4.66022">
        <ele>242.48013</ele>
        <time>2023-11-26T15:03:11.000Z</time>
      </trkpt>
      <trkpt lat="45.86081" lon="4.66026">
        <ele>242.63449</ele>
        <time>2023-11-26T15:03:12.000Z</time>
      </trkpt>
      <trkpt lat="45.86079" lon="4.6603">
        <ele>242.79099</ele>
        <time>2023-11-26T15:03:13.000Z</time>
      </trkpt>
      <trkpt lat="45.86078" lon="4.66034">
        <ele>243.15311</ele>
        <time>2023-11-26T15:03:14.000Z</time>
      </trkpt>
      <trkpt lat="45.86077" lon="4.66038">
        <ele>243.56836</ele>
        <time>2023-11-26T15:03:15.000Z</time>
      </trkpt>
      <trkpt lat="45.86076" lon="4.66042">
        <ele>244.03618</ele>
        <time>2023-11-26T15:03:16.000Z</time>
      </trkpt>
      <trkpt lat="45.86076" lon="4.66046">
        <ele>244.0605</ele>
        <time>2023-11-26T15:03:17.000Z</time>
      </trkpt>
      <trkpt lat="45.86076" lon="4.66051">
        <ele>244.08804</ele>
        <time>2023-11-26T15:03:18.000Z</time>
      </trkpt>
      <trkpt lat="45.86076" lon="4.66056">
        <ele>244.11284</ele>
        <time>2023-11-26T15:03:19.000Z</time>
      </trkpt>
      <trkpt lat="45.86076" lon="4.66063">
        <ele>243.92508</ele>
        <time>2023-11-26T15:03:20.000Z</time>
      </trkpt>
      <trkpt lat="45.86076" lon="4.66069">
        <ele>243.56314</ele>
        <time>2023-11-26T15:03:21.000Z</time>
      </trkpt>
      <trkpt lat="45.86077" lon="4.66076">
        <ele>243.64957</ele>
        <time>2023-11-26T15:03:22.000Z</time>
      </trkpt>
      <trkpt lat="45.86077" lon="4.66083">
        <ele>243.67542</ele>
        <time>2023-11-26T15:03:23.000Z</time>
      </trkpt>
      <trkpt lat="45.86077" lon="4.66091">
        <ele>243.67542</ele>
        <time>2023-11-26T15:03:24.000Z</time>
      </trkpt>
      <trkpt lat="45.86078" lon="4.66098">
        <ele>243.66531</ele>
        <time>2023-11-26T15:03:25.000Z</time>
      </trkpt>
      <trkpt lat="45.86078" lon="4.66105">
        <ele>243.81705</ele>
        <time>2023-11-26T15:03:26.000Z</time>
      </trkpt>
      <trkpt lat="45.86079" lon="4.66112">
        <ele>243.89812</ele>
        <time>2023-11-26T15:03:27.000Z</time>
      </trkpt>
      <trkpt lat="45.86081" lon="4.66118">
        <ele>243.92253</ele>
        <time>2023-11-26T15:03:28.000Z</time>
      </trkpt>
      <trkpt lat="45.86082" lon="4.66126">
        <ele>243.81909</ele>
        <time>2023-11-26T15:03:29.000Z</time>
      </trkpt>
      <trkpt lat="45.86085" lon="4.66132">
        <ele>243.74593</ele>
        <time>2023-11-26T15:03:30.000Z</time>
      </trkpt>
      <trkpt lat="45.86088" lon="4.66139">
        <ele>243.65494</ele>
        <time>2023-11-26T15:03:31.000Z</time>
      </trkpt>
      <trkpt lat="45.8609" lon="4.66145">
        <ele>243.55209</ele>
        <time>2023-11-26T15:03:32.000Z</time>
      </trkpt>
      <trkpt lat="45.86092" lon="4.66152">
        <ele>243.43802</ele>
        <time>2023-11-26T15:03:33.000Z</time>
      </trkpt>
      <trkpt lat="45.86093" lon="4.66159">
        <ele>243.30539</ele>
        <time>2023-11-26T15:03:34.000Z</time>
      </trkpt>
      <trkpt lat="45.86094" lon="4.66165">
        <ele>243.20349</ele>
        <time>2023-11-26T15:03:35.000Z</time>
      </trkpt>
      <trkpt lat="45.86095" lon="4.66172">
        <ele>243.05745</ele>
        <time>2023-11-26T15:03:36.000Z</time>
      </trkpt>
      <trkpt lat="45.86097" lon="4.66179">
        <ele>242.95517</ele>
        <time>2023-11-26T15:03:37.000Z</time>
      </trkpt>
      <trkpt lat="45.86098" lon="4.66186">
        <ele>242.83223</ele>
        <time>2023-11-26T15:03:38.000Z</time>
      </trkpt>
      <trkpt lat="45.86099" lon="4.66194">
        <ele>242.72668</ele>
        <time>2023-11-26T15:03:39.000Z</time>
      </trkpt>
      <trkpt lat="45.861" lon="4.66201">
        <ele>242.81795</ele>
        <time>2023-11-26T15:03:40.000Z</time>
      </trkpt>
      <trkpt lat="45.86099" lon="4.66208">
        <ele>243.01057</ele>
        <time>2023-11-26T15:03:41.000Z</time>
      </trkpt>
      <trkpt lat="45.86098" lon="4.66215">
        <ele>242.75754</ele>
        <time>2023-11-26T15:03:42.000Z</time>
      </trkpt>
      <trkpt lat="45.86096" lon="4.66221">
        <ele>242.55403</ele>
        <time>2023-11-26T15:03:43.000Z</time>
      </trkpt>
      <trkpt lat="45.86094" lon="4.66226">
        <ele>242.35262</ele>
        <time>2023-11-26T15:03:44.000Z</time>
      </trkpt>
      <trkpt lat="45.86092" lon="4.66231">
        <ele>242.09692</ele>
        <time>2023-11-26T15:03:45.000Z</time>
      </trkpt>
      <trkpt lat="45.8609" lon="4.66236">
        <ele>241.72476</ele>
        <time>2023-11-26T15:03:46.000Z</time>
      </trkpt>
      <trkpt lat="45.86085" lon="4.6624">
        <ele>241.44788</ele>
        <time>2023-11-26T15:03:47.000Z</time>
      </trkpt>
      <trkpt lat="45.86081" lon="4.66243">
        <ele>241.2074</ele>
        <time>2023-11-26T15:03:48.000Z</time>
      </trkpt>
      <trkpt lat="45.86078" lon="4.66245">
        <ele>241.4971</ele>
        <time>2023-11-26T15:03:49.000Z</time>
      </trkpt>
      <trkpt lat="45.86075" lon="4.66247">
        <ele>241.7587</ele>
        <time>2023-11-26T15:03:50.000Z</time>
      </trkpt>
      <trkpt lat="45.86071" lon="4.66247">
        <ele>241.6123</ele>
        <time>2023-11-26T15:03:51.000Z</time>
      </trkpt>
      <trkpt lat="45.86068" lon="4.66249">
        <ele>241.54703</ele>
        <time>2023-11-26T15:03:52.000Z</time>
      </trkpt>
      <trkpt lat="45.86065" lon="4.66252">
        <ele>241.47282</ele>
        <time>2023-11-26T15:03:53.000Z</time>
      </trkpt>
      <trkpt lat="45.86061" lon="4.66256">
        <ele>241.22412</ele>
        <time>2023-11-26T15:03:54.000Z</time>
      </trkpt>
      <trkpt lat="45.8606" lon="4.66258">
        <ele>240.89278</ele>
        <time>2023-11-26T15:03:55.000Z</time>
      </trkpt>
      <trkpt lat="45.86058" lon="4.66263">
        <ele>240.44824</ele>
        <time>2023-11-26T15:03:56.000Z</time>
      </trkpt>
      <trkpt lat="45.86056" lon="4.66267">
        <ele>240.38838</ele>
        <time>2023-11-26T15:03:57.000Z</time>
      </trkpt>
      <trkpt lat="45.86054" lon="4.66271">
        <ele>240.38667</ele>
        <time>2023-11-26T15:03:58.000Z</time>
      </trkpt>
      <trkpt lat="45.86052" lon="4.66275">
        <ele>240.3728</ele>
        <time>2023-11-26T15:03:59.000Z</time>
      </trkpt>
      <trkpt lat="45.8605" lon="4.66278">
        <ele>240.37808</ele>
        <time>2023-11-26T15:04:00.000Z</time>
      </trkpt>
      <trkpt lat="45.86048" lon="4.66282">
        <ele>240.40833</ele>
        <time>2023-11-26T15:04:01.000Z</time>
      </trkpt>
      <trkpt lat="45.86046" lon="4.66286">
        <ele>240.28259</ele>
        <time>2023-11-26T15:04:02.000Z</time>
      </trkpt>
      <trkpt lat="45.86044" lon="4.6629">
        <ele>240.03474</ele>
        <time>2023-11-26T15:04:03.000Z</time>
      </trkpt>
      <trkpt lat="45.86042" lon="4.66294">
        <ele>240.19417</ele>
        <time>2023-11-26T15:04:04.000Z</time>
      </trkpt>
      <trkpt lat="45.8604" lon="4.66297">
        <ele>240.29556</ele>
        <time>2023-11-26T15:04:05.000Z</time>
      </trkpt>
      <trkpt lat="45.86038" lon="4.66301">
        <ele>240.55875</ele>
        <time>2023-11-26T15:04:06.000Z</time>
      </trkpt>
      <trkpt lat="45.86035" lon="4.66305">
        <ele>240.92477</ele>
        <time>2023-11-26T15:04:07.000Z</time>
      </trkpt>
      <trkpt lat="45.86033" lon="4.66309">
        <ele>241.2749</ele>
        <time>2023-11-26T15:04:08.000Z</time>
      </trkpt>
      <trkpt lat="45.86031" lon="4.66312">
        <ele>241.21078</ele>
        <time>2023-11-26T15:04:09.000Z</time>
      </trkpt>
      <trkpt lat="45.86028" lon="4.66316">
        <ele>241.13416</ele>
        <time>2023-11-26T15:04:10.000Z</time>
      </trkpt>
      <trkpt lat="45.86025" lon="4.66319">
        <ele>241.02792</ele>
        <time>2023-11-26T15:04:11.000Z</time>
      </trkpt>
      <trkpt lat="45.86021" lon="4.66325">
        <ele>240.89192</ele>
        <time>2023-11-26T15:04:12.000Z</time>
      </trkpt>
      <trkpt lat="45.86018" lon="4.6633">
        <ele>240.73869</ele>
        <time>2023-11-26T15:04:13.000Z</time>
      </trkpt>
      <trkpt lat="45.86015" lon="4.66334">
        <ele>240.80547</ele>
        <time>2023-11-26T15:04:14.000Z</time>
      </trkpt>
      <trkpt lat="45.86013" lon="4.66339">
        <ele>240.93942</ele>
        <time>2023-11-26T15:04:15.000Z</time>
      </trkpt>
      <trkpt lat="45.8601" lon="4.66344">
        <ele>241.21072</ele>
        <time>2023-11-26T15:04:16.000Z</time>
      </trkpt>
      <trkpt lat="45.86007" lon="4.66348">
        <ele>241.09192</ele>
        <time>2023-11-26T15:04:17.000Z</time>
      </trkpt>
      <trkpt lat="45.86005" lon="4.66352">
        <ele>240.94661</ele>
        <time>2023-11-26T15:04:18.000Z</time>
      </trkpt>
      <trkpt lat="45.86002" lon="4.66357">
        <ele>240.81746</ele>
        <time>2023-11-26T15:04:19.000Z</time>
      </trkpt>
      <trkpt lat="45.86" lon="4.6636">
        <ele>240.6584</ele>
        <time>2023-11-26T15:04:20.000Z</time>
      </trkpt>
      <trkpt lat="45.85998" lon="4.66365">
        <ele>240.49777</ele>
        <time>2023-11-26T15:04:21.000Z</time>
      </trkpt>
      <trkpt lat="45.85996" lon="4.6637">
        <ele>240.53401</ele>
        <time>2023-11-26T15:04:22.000Z</time>
      </trkpt>
      <trkpt lat="45.85993" lon="4.66374">
        <ele>240.70627</ele>
        <time>2023-11-26T15:04:23.000Z</time>
      </trkpt>
      <trkpt lat="45.85991" lon="4.66378">
        <ele>240.4827</ele>
        <time>2023-11-26T15:04:24.000Z</time>
      </trkpt>
      <trkpt lat="45.85989" lon="4.66383">
        <ele>240.37485</ele>
        <time>2023-11-26T15:04:25.000Z</time>
      </trkpt>
      <trkpt lat="45.85986" lon="4.66388">
        <ele>240.07458</ele>
        <time>2023-11-26T15:04:26.000Z</time>
      </trkpt>
      <trkpt lat="45.85984" lon="4.66392">
        <ele>239.80725</ele>
        <time>2023-11-26T15:04:27.000Z</time>
      </trkpt>
      <trkpt lat="45.85981" lon="4.66397">
        <ele>239.42932</ele>
        <time>2023-11-26T15:04:28.000Z</time>
      </trkpt>
      <trkpt lat="45.85979" lon="4.66402">
        <ele>239.44836</ele>
        <time>2023-11-26T15:04:29.000Z</time>
      </trkpt>
      <trkpt lat="45.85976" lon="4.66408">
        <ele>239.41565</ele>
        <time>2023-11-26T15:04:30.000Z</time>
      </trkpt>
      <trkpt lat="45.85974" lon="4.66413">
        <ele>239.3968</ele>
        <time>2023-11-26T15:04:31.000Z</time>
      </trkpt>
      <trkpt lat="45.85971" lon="4.66418">
        <ele>239.37732</ele>
        <time>2023-11-26T15:04:32.000Z</time>
      </trkpt>
      <trkpt lat="45.85969" lon="4.66424">
        <ele>239.35965</ele>
        <time>2023-11-26T15:04:33.000Z</time>
      </trkpt>
      <trkpt lat="45.85966" lon="4.66428">
        <ele>239.39246</ele>
        <time>2023-11-26T15:04:34.000Z</time>
      </trkpt>
      <trkpt lat="45.85964" lon="4.66432">
        <ele>239.46733</ele>
        <time>2023-11-26T15:04:35.000Z</time>
      </trkpt>
      <trkpt lat="45.85961" lon="4.66436">
        <ele>239.52469</ele>
        <time>2023-11-26T15:04:36.000Z</time>
      </trkpt>
      <trkpt lat="45.85958" lon="4.6644">
        <ele>239.57332</ele>
        <time>2023-11-26T15:04:37.000Z</time>
      </trkpt>
      <trkpt lat="45.85955" lon="4.66444">
        <ele>239.61565</ele>
        <time>2023-11-26T15:04:38.000Z</time>
      </trkpt>
      <trkpt lat="45.85953" lon="4.66448">
        <ele>239.64558</ele>
        <time>2023-11-26T15:04:39.000Z</time>
      </trkpt>
      <trkpt lat="45.8595" lon="4.66452">
        <ele>239.6884</ele>
        <time>2023-11-26T15:04:40.000Z</time>
      </trkpt>
      <trkpt lat="45.85948" lon="4.66457">
        <ele>239.54764</ele>
        <time>2023-11-26T15:04:41.000Z</time>
      </trkpt>
      <trkpt lat="45.85945" lon="4.66461">
        <ele>239.40462</ele>
        <time>2023-11-26T15:04:42.000Z</time>
      </trkpt>
      <trkpt lat="45.85942" lon="4.66465">
        <ele>239.26823</ele>
        <time>2023-11-26T15:04:43.000Z</time>
      </trkpt>
      <trkpt lat="45.85939" lon="4.66469">
        <ele>239.12961</ele>
        <time>2023-11-26T15:04:44.000Z</time>
      </trkpt>
      <trkpt lat="45.85936" lon="4.66472">
        <ele>238.98462</ele>
        <time>2023-11-26T15:04:45.000Z</time>
      </trkpt>
      <trkpt lat="45.85932" lon="4.66476">
        <ele>239.01587</ele>
        <time>2023-11-26T15:04:46.000Z</time>
      </trkpt>
      <trkpt lat="45.85929" lon="4.66479">
        <ele>239.04268</ele>
        <time>2023-11-26T15:04:47.000Z</time>
      </trkpt>
      <trkpt lat="45.85925" lon="4.66482">
        <ele>239.19878</ele>
        <time>2023-11-26T15:04:48.000Z</time>
      </trkpt>
      <trkpt lat="45.85921" lon="4.66485">
        <ele>238.9023</ele>
        <time>2023-11-26T15:04:49.000Z</time>
      </trkpt>
      <trkpt lat="45.85917" lon="4.66488">
        <ele>238.63806</ele>
        <time>2023-11-26T15:04:50.000Z</time>
      </trkpt>
      <trkpt lat="45.85914" lon="4.66491">
        <ele>238.7524</ele>
        <time>2023-11-26T15:04:51.000Z</time>
      </trkpt>
      <trkpt lat="45.85911" lon="4.66494">
        <ele>238.81841</ele>
        <time>2023-11-26T15:04:52.000Z</time>
      </trkpt>
      <trkpt lat="45.85908" lon="4.66497">
        <ele>238.89555</ele>
        <time>2023-11-26T15:04:53.000Z</time>
      </trkpt>
      <trkpt lat="45.85904" lon="4.665">
        <ele>238.89432</ele>
        <time>2023-11-26T15:04:54.000Z</time>
      </trkpt>
      <trkpt lat="45.85901" lon="4.66503">
        <ele>238.88623</ele>
        <time>2023-11-26T15:04:55.000Z</time>
      </trkpt>
      <trkpt lat="45.85898" lon="4.66506">
        <ele>238.87422</ele>
        <time>2023-11-26T15:04:56.000Z</time>
      </trkpt>
      <trkpt lat="45.85894" lon="4.66509">
        <ele>238.86621</ele>
        <time>2023-11-26T15:04:57.000Z</time>
      </trkpt>
      <trkpt lat="45.85891" lon="4.66512">
        <ele>238.69743</ele>
        <time>2023-11-26T15:04:58.000Z</time>
      </trkpt>
      <trkpt lat="45.85888" lon="4.66513">
        <ele>238.52803</ele>
        <time>2023-11-26T15:04:59.000Z</time>
      </trkpt>
      <trkpt lat="45.85885" lon="4.66513">
        <ele>238.35921</ele>
        <time>2023-11-26T15:05:00.000Z</time>
      </trkpt>
      <trkpt lat="45.85883" lon="4.66512">
        <ele>238.28918</ele>
        <time>2023-11-26T15:05:01.000Z</time>
      </trkpt>
      <trkpt lat="45.8588" lon="4.66509">
        <ele>238.16989</ele>
        <time>2023-11-26T15:05:02.000Z</time>
      </trkpt>
      <trkpt lat="45.85878" lon="4.66506">
        <ele>237.94431</ele>
        <time>2023-11-26T15:05:03.000Z</time>
      </trkpt>
      <trkpt lat="45.85877" lon="4.66502">
        <ele>238.12875</ele>
        <time>2023-11-26T15:05:04.000Z</time>
      </trkpt>
      <trkpt lat="45.85875" lon="4.66498">
        <ele>238.26395</ele>
        <time>2023-11-26T15:05:05.000Z</time>
      </trkpt>
      <trkpt lat="45.85874" lon="4.66495">
        <ele>238.44856</ele>
        <time>2023-11-26T15:05:06.000Z</time>
      </trkpt>
      <trkpt lat="45.85872" lon="4.66492">
        <ele>238.6097</ele>
        <time>2023-11-26T15:05:07.000Z</time>
      </trkpt>
      <trkpt lat="45.8587" lon="4.6649">
        <ele>238.78659</ele>
        <time>2023-11-26T15:05:08.000Z</time>
      </trkpt>
      <trkpt lat="45.85868" lon="4.66487">
        <ele>239.02779</ele>
        <time>2023-11-26T15:05:09.000Z</time>
      </trkpt>
      <trkpt lat="45.85866" lon="4.66485">
        <ele>239.32024</ele>
        <time>2023-11-26T15:05:10.000Z</time>
      </trkpt>
      <trkpt lat="45.85864" lon="4.66482">
        <ele>239.05913</ele>
        <time>2023-11-26T15:05:11.000Z</time>
      </trkpt>
      <trkpt lat="45.85863" lon="4.66479">
        <ele>238.8665</ele>
        <time>2023-11-26T15:05:12.000Z</time>
      </trkpt>
      <trkpt lat="45.85862" lon="4.66477">
        <ele>238.62979</ele>
        <time>2023-11-26T15:05:13.000Z</time>
      </trkpt>
      <trkpt lat="45.85859" lon="4.66476">
        <ele>238.38737</ele>
        <time>2023-11-26T15:05:14.000Z</time>
      </trkpt>
      <trkpt lat="45.85857" lon="4.66477">
        <ele>238.02287</ele>
        <time>2023-11-26T15:05:15.000Z</time>
      </trkpt>
      <trkpt lat="45.85855" lon="4.66481">
        <ele>238.08859</ele>
        <time>2023-11-26T15:05:16.000Z</time>
      </trkpt>
      <trkpt lat="45.85854" lon="4.66486">
        <ele>238.09744</ele>
        <time>2023-11-26T15:05:17.000Z</time>
      </trkpt>
      <trkpt lat="45.85853" lon="4.66492">
        <ele>238.28206</ele>
        <time>2023-11-26T15:05:18.000Z</time>
      </trkpt>
      <trkpt lat="45.85852" lon="4.66498">
        <ele>238.20242</ele>
        <time>2023-11-26T15:05:19.000Z</time>
      </trkpt>
      <trkpt lat="45.85853" lon="4.66506">
        <ele>238.05667</ele>
        <time>2023-11-26T15:05:20.000Z</time>
      </trkpt>
      <trkpt lat="45.85851" lon="4.66513">
        <ele>238.35698</ele>
        <time>2023-11-26T15:05:21.000Z</time>
      </trkpt>
      <trkpt lat="45.85849" lon="4.66519">
        <ele>238.59494</ele>
        <time>2023-11-26T15:05:22.000Z</time>
      </trkpt>
      <trkpt lat="45.85848" lon="4.66526">
        <ele>238.90359</ele>
        <time>2023-11-26T15:05:23.000Z</time>
      </trkpt>
      <trkpt lat="45.85846" lon="4.66532">
        <ele>238.7657</ele>
        <time>2023-11-26T15:05:24.000Z</time>
      </trkpt>
      <trkpt lat="45.85844" lon="4.66538">
        <ele>238.6998</ele>
        <time>2023-11-26T15:05:25.000Z</time>
      </trkpt>
      <trkpt lat="45.85842" lon="4.66543">
        <ele>238.58415</ele>
        <time>2023-11-26T15:05:26.000Z</time>
      </trkpt>
      <trkpt lat="45.8584" lon="4.66547">
        <ele>238.31161</ele>
        <time>2023-11-26T15:05:27.000Z</time>
      </trkpt>
      <trkpt lat="45.85838" lon="4.66552">
        <ele>237.98572</ele>
        <time>2023-11-26T15:05:28.000Z</time>
      </trkpt>
      <trkpt lat="45.85837" lon="4.66557">
        <ele>237.53447</ele>
        <time>2023-11-26T15:05:29.000Z</time>
      </trkpt>
      <trkpt lat="45.85836" lon="4.6656">
        <ele>237.47514</ele>
        <time>2023-11-26T15:05:30.000Z</time>
      </trkpt>
      <trkpt lat="45.85835" lon="4.66564">
        <ele>237.54312</ele>
        <time>2023-11-26T15:05:31.000Z</time>
      </trkpt>
      <trkpt lat="45.85833" lon="4.66567">
        <ele>237.58963</ele>
        <time>2023-11-26T15:05:32.000Z</time>
      </trkpt>
      <trkpt lat="45.85831" lon="4.66571">
        <ele>237.70244</ele>
        <time>2023-11-26T15:05:33.000Z</time>
      </trkpt>
      <trkpt lat="45.8583" lon="4.66574">
        <ele>237.79465</ele>
        <time>2023-11-26T15:05:34.000Z</time>
      </trkpt>
      <trkpt lat="45.85829" lon="4.66578">
        <ele>237.95639</ele>
        <time>2023-11-26T15:05:35.000Z</time>
      </trkpt>
      <trkpt lat="45.85827" lon="4.66582">
        <ele>237.67744</ele>
        <time>2023-11-26T15:05:36.000Z</time>
      </trkpt>
      <trkpt lat="45.85825" lon="4.66585">
        <ele>237.43039</ele>
        <time>2023-11-26T15:05:37.000Z</time>
      </trkpt>
      <trkpt lat="45.85823" lon="4.66587">
        <ele>237.13432</ele>
        <time>2023-11-26T15:05:38.000Z</time>
      </trkpt>
      <trkpt lat="45.85821" lon="4.66591">
        <ele>237.07072</ele>
        <time>2023-11-26T15:05:39.000Z</time>
      </trkpt>
      <trkpt lat="45.85819" lon="4.66595">
        <ele>237.06741</ele>
        <time>2023-11-26T15:05:40.000Z</time>
      </trkpt>
      <trkpt lat="45.85822" lon="4.66602">
        <ele>236.68234</ele>
        <time>2023-11-26T15:05:41.000Z</time>
      </trkpt>
      <trkpt lat="45.85824" lon="4.66608">
        <ele>236.3483</ele>
        <time>2023-11-26T15:05:42.000Z</time>
      </trkpt>
      <trkpt lat="45.85828" lon="4.66615">
        <ele>236.01419</ele>
        <time>2023-11-26T15:05:43.000Z</time>
      </trkpt>
      <trkpt lat="45.85832" lon="4.66622">
        <ele>235.6803</ele>
        <time>2023-11-26T15:05:44.000Z</time>
      </trkpt>
      <trkpt lat="45.85837" lon="4.6663">
        <ele>235.17732</ele>
        <time>2023-11-26T15:05:45.000Z</time>
      </trkpt>
      <trkpt lat="45.85843" lon="4.66638">
        <ele>234.67082</ele>
        <time>2023-11-26T15:05:46.000Z</time>
      </trkpt>
      <trkpt lat="45.85848" lon="4.66646">
        <ele>234.23633</ele>
        <time>2023-11-26T15:05:47.000Z</time>
      </trkpt>
      <trkpt lat="45.85854" lon="4.66652">
        <ele>233.80901</ele>
        <time>2023-11-26T15:05:48.000Z</time>
      </trkpt>
      <trkpt lat="45.8586" lon="4.66657">
        <ele>233.5032</ele>
        <time>2023-11-26T15:05:49.000Z</time>
      </trkpt>
      <trkpt lat="45.85865" lon="4.6666">
        <ele>232.78152</ele>
        <time>2023-11-26T15:05:50.000Z</time>
      </trkpt>
      <trkpt lat="45.85869" lon="4.66665">
        <ele>232.31938</ele>
        <time>2023-11-26T15:05:51.000Z</time>
      </trkpt>
      <trkpt lat="45.85873" lon="4.66669">
        <ele>231.81516</ele>
        <time>2023-11-26T15:05:52.000Z</time>
      </trkpt>
      <trkpt lat="45.85874" lon="4.66676">
        <ele>231.29752</ele>
        <time>2023-11-26T15:05:53.000Z</time>
      </trkpt>
      <trkpt lat="45.85872" lon="4.66683">
        <ele>230.80746</ele>
        <time>2023-11-26T15:05:54.000Z</time>
      </trkpt>
      <trkpt lat="45.85869" lon="4.66689">
        <ele>230.32832</ele>
        <time>2023-11-26T15:05:55.000Z</time>
      </trkpt>
      <trkpt lat="45.85862" lon="4.66693">
        <ele>229.84827</ele>
        <time>2023-11-26T15:05:56.000Z</time>
      </trkpt>
      <trkpt lat="45.85856" lon="4.66696">
        <ele>229.38232</ele>
        <time>2023-11-26T15:05:57.000Z</time>
      </trkpt>
      <trkpt lat="45.85845" lon="4.66699">
        <ele>228.90683</ele>
        <time>2023-11-26T15:05:58.000Z</time>
      </trkpt>
      <trkpt lat="45.85838" lon="4.66702">
        <ele>228.38937</ele>
        <time>2023-11-26T15:05:59.000Z</time>
      </trkpt>
      <trkpt lat="45.8583" lon="4.66704">
        <ele>227.80611</ele>
        <time>2023-11-26T15:06:00.000Z</time>
      </trkpt>
      <trkpt lat="45.85822" lon="4.66707">
        <ele>227.23914</ele>
        <time>2023-11-26T15:06:01.000Z</time>
      </trkpt>
      <trkpt lat="45.85814" lon="4.66714">
        <ele>226.66045</ele>
        <time>2023-11-26T15:06:02.000Z</time>
      </trkpt>
      <trkpt lat="45.85808" lon="4.66722">
        <ele>226.0977</ele>
        <time>2023-11-26T15:06:03.000Z</time>
      </trkpt>
      <trkpt lat="45.85803" lon="4.66731">
        <ele>225.54114</ele>
        <time>2023-11-26T15:06:04.000Z</time>
      </trkpt>
      <trkpt lat="45.85799" lon="4.66741">
        <ele>225.11234</ele>
        <time>2023-11-26T15:06:05.000Z</time>
      </trkpt>
      <trkpt lat="45.85795" lon="4.66751">
        <ele>224.77864</ele>
        <time>2023-11-26T15:06:06.000Z</time>
      </trkpt>
      <trkpt lat="45.85792" lon="4.66762">
        <ele>224.44905</ele>
        <time>2023-11-26T15:06:07.000Z</time>
      </trkpt>
      <trkpt lat="45.85789" lon="4.66773">
        <ele>224.11362</ele>
        <time>2023-11-26T15:06:08.000Z</time>
      </trkpt>
      <trkpt lat="45.85785" lon="4.66782">
        <ele>223.7679</ele>
        <time>2023-11-26T15:06:09.000Z</time>
      </trkpt>
      <trkpt lat="45.85783" lon="4.66791">
        <ele>223.42891</ele>
        <time>2023-11-26T15:06:10.000Z</time>
      </trkpt>
      <trkpt lat="45.85779" lon="4.66799">
        <ele>222.86588</ele>
        <time>2023-11-26T15:06:11.000Z</time>
      </trkpt>
      <trkpt lat="45.85775" lon="4.66808">
        <ele>222.36592</ele>
        <time>2023-11-26T15:06:12.000Z</time>
      </trkpt>
      <trkpt lat="45.85771" lon="4.66816">
        <ele>221.81621</ele>
        <time>2023-11-26T15:06:13.000Z</time>
      </trkpt>
      <trkpt lat="45.85766" lon="4.66823">
        <ele>221.21721</ele>
        <time>2023-11-26T15:06:14.000Z</time>
      </trkpt>
      <trkpt lat="45.85762" lon="4.66832">
        <ele>220.6311</ele>
        <time>2023-11-26T15:06:15.000Z</time>
      </trkpt>
      <trkpt lat="45.85758" lon="4.6684">
        <ele>220.16167</ele>
        <time>2023-11-26T15:06:16.000Z</time>
      </trkpt>
      <trkpt lat="45.85755" lon="4.66851">
        <ele>219.6514</ele>
        <time>2023-11-26T15:06:17.000Z</time>
      </trkpt>
      <trkpt lat="45.85752" lon="4.66861">
        <ele>219.16829</ele>
        <time>2023-11-26T15:06:18.000Z</time>
      </trkpt>
      <trkpt lat="45.85748" lon="4.66869">
        <ele>218.7363</ele>
        <time>2023-11-26T15:06:19.000Z</time>
      </trkpt>
      <trkpt lat="45.85744" lon="4.66877">
        <ele>218.35904</ele>
        <time>2023-11-26T15:06:20.000Z</time>
      </trkpt>
      <trkpt lat="45.85741" lon="4.66883">
        <ele>217.96602</ele>
        <time>2023-11-26T15:06:21.000Z</time>
      </trkpt>
      <trkpt lat="45.85739" lon="4.66889">
        <ele>217.59737</ele>
        <time>2023-11-26T15:06:22.000Z</time>
      </trkpt>
      <trkpt lat="45.85739" lon="4.66892">
        <ele>217.81949</ele>
        <time>2023-11-26T15:06:23.000Z</time>
      </trkpt>
      <trkpt lat="45.85739" lon="4.66896">
        <ele>217.87561</ele>
        <time>2023-11-26T15:06:25.000Z</time>
      </trkpt>
      <trkpt lat="45.85742" lon="4.66896">
        <ele>218.0585</ele>
        <time>2023-11-26T15:06:27.000Z</time>
      </trkpt>
      <trkpt lat="45.85742" lon="4.66893">
        <ele>218.18547</ele>
        <time>2023-11-26T15:06:28.000Z</time>
      </trkpt>
      <trkpt lat="45.85741" lon="4.6689">
        <ele>218.401</ele>
        <time>2023-11-26T15:06:29.000Z</time>
      </trkpt>
      <trkpt lat="45.85741" lon="4.66886">
        <ele>218.64841</ele>
        <time>2023-11-26T15:06:30.000Z</time>
      </trkpt>
      <trkpt lat="45.85742" lon="4.66882">
        <ele>218.96127</ele>
        <time>2023-11-26T15:06:31.000Z</time>
      </trkpt>
      <trkpt lat="45.85745" lon="4.66879">
        <ele>219.34966</ele>
        <time>2023-11-26T15:06:32.000Z</time>
      </trkpt>
      <trkpt lat="45.85746" lon="4.66876">
        <ele>219.56441</ele>
        <time>2023-11-26T15:06:33.000Z</time>
      </trkpt>
      <trkpt lat="45.85748" lon="4.66872">
        <ele>219.82217</ele>
        <time>2023-11-26T15:06:34.000Z</time>
      </trkpt>
      <trkpt lat="45.8575" lon="4.66868">
        <ele>220.10632</ele>
        <time>2023-11-26T15:06:35.000Z</time>
      </trkpt>
      <trkpt lat="45.85752" lon="4.66865">
        <ele>220.45671</ele>
        <time>2023-11-26T15:06:36.000Z</time>
      </trkpt>
      <trkpt lat="45.85753" lon="4.66861">
        <ele>220.78706</ele>
        <time>2023-11-26T15:06:37.000Z</time>
      </trkpt>
      <trkpt lat="45.85755" lon="4.66858">
        <ele>221.03767</ele>
        <time>2023-11-26T15:06:38.000Z</time>
      </trkpt>
      <trkpt lat="45.85756" lon="4.66853">
        <ele>220.91853</ele>
        <time>2023-11-26T15:06:39.000Z</time>
      </trkpt>
      <trkpt lat="45.85757" lon="4.66849">
        <ele>220.82651</ele>
        <time>2023-11-26T15:06:40.000Z</time>
      </trkpt>
      <trkpt lat="45.85757" lon="4.66845">
        <ele>220.77547</ele>
        <time>2023-11-26T15:06:41.000Z</time>
      </trkpt>
      <trkpt lat="45.85757" lon="4.66841">
        <ele>220.75314</ele>
        <time>2023-11-26T15:06:42.000Z</time>
      </trkpt>
      <trkpt lat="45.85756" lon="4.66837">
        <ele>220.79501</ele>
        <time>2023-11-26T15:06:43.000Z</time>
      </trkpt>
      <trkpt lat="45.85754" lon="4.66834">
        <ele>220.82639</ele>
        <time>2023-11-26T15:06:44.000Z</time>
      </trkpt>
      <trkpt lat="45.85752" lon="4.6683">
        <ele>220.28342</ele>
        <time>2023-11-26T15:06:45.000Z</time>
      </trkpt>
      <trkpt lat="45.85749" lon="4.66828">
        <ele>219.91519</ele>
        <time>2023-11-26T15:06:46.000Z</time>
      </trkpt>
      <trkpt lat="45.85742" lon="4.6683">
        <ele>219.42215</ele>
        <time>2023-11-26T15:06:47.000Z</time>
      </trkpt>
      <trkpt lat="45.85737" lon="4.6683">
        <ele>218.8969</ele>
        <time>2023-11-26T15:06:48.000Z</time>
      </trkpt>
      <trkpt lat="45.85732" lon="4.66831">
        <ele>218.36467</ele>
        <time>2023-11-26T15:06:49.000Z</time>
      </trkpt>
      <trkpt lat="45.85726" lon="4.6683">
        <ele>217.79611</ele>
        <time>2023-11-26T15:06:50.000Z</time>
      </trkpt>
      <trkpt lat="45.85719" lon="4.6683">
        <ele>217.16162</ele>
        <time>2023-11-26T15:06:51.000Z</time>
      </trkpt>
      <trkpt lat="45.85714" lon="4.66829">
        <ele>216.48471</ele>
        <time>2023-11-26T15:06:52.000Z</time>
      </trkpt>
      <trkpt lat="45.85708" lon="4.6683">
        <ele>215.98804</ele>
        <time>2023-11-26T15:06:53.000Z</time>
      </trkpt>
      <trkpt lat="45.85701" lon="4.66833">
        <ele>215.41422</ele>
        <time>2023-11-26T15:06:54.000Z</time>
      </trkpt>
      <trkpt lat="45.85695" lon="4.66836">
        <ele>214.82828</ele>
        <time>2023-11-26T15:06:55.000Z</time>
      </trkpt>
      <trkpt lat="45.8569" lon="4.66839">
        <ele>214.24124</ele>
        <time>2023-11-26T15:06:56.000Z</time>
      </trkpt>
      <trkpt lat="45.85687" lon="4.66845">
        <ele>213.64449</ele>
        <time>2023-11-26T15:06:57.000Z</time>
      </trkpt>
      <trkpt lat="45.85686" lon="4.66849">
        <ele>213.04178</ele>
        <time>2023-11-26T15:06:58.000Z</time>
      </trkpt>
      <trkpt lat="45.85685" lon="4.66854">
        <ele>213.25327</ele>
        <time>2023-11-26T15:06:59.000Z</time>
      </trkpt>
      <trkpt lat="45.85687" lon="4.66861">
        <ele>213.41963</ele>
        <time>2023-11-26T15:07:00.000Z</time>
      </trkpt>
      <trkpt lat="45.85688" lon="4.66867">
        <ele>213.58533</ele>
        <time>2023-11-26T15:07:01.000Z</time>
      </trkpt>
      <trkpt lat="45.8569" lon="4.66873">
        <ele>213.71062</ele>
        <time>2023-11-26T15:07:02.000Z</time>
      </trkpt>
      <trkpt lat="45.85691" lon="4.66879">
        <ele>213.76883</ele>
        <time>2023-11-26T15:07:03.000Z</time>
      </trkpt>
      <trkpt lat="45.85692" lon="4.66887">
        <ele>213.82695</ele>
        <time>2023-11-26T15:07:04.000Z</time>
      </trkpt>
      <trkpt lat="45.85691" lon="4.66894">
        <ele>213.89555</ele>
        <time>2023-11-26T15:07:05.000Z</time>
      </trkpt>
      <trkpt lat="45.85689" lon="4.669">
        <ele>214.18021</ele>
        <time>2023-11-26T15:07:06.000Z</time>
      </trkpt>
      <trkpt lat="45.85685" lon="4.66904">
        <ele>214.52861</ele>
        <time>2023-11-26T15:07:07.000Z</time>
      </trkpt>
      <trkpt lat="45.85681" lon="4.66906">
        <ele>214.61612</ele>
        <time>2023-11-26T15:07:08.000Z</time>
      </trkpt>
      <trkpt lat="45.85675" lon="4.66907">
        <ele>214.76413</ele>
        <time>2023-11-26T15:07:09.000Z</time>
      </trkpt>
      <trkpt lat="45.85671" lon="4.66908">
        <ele>214.94453</ele>
        <time>2023-11-26T15:07:10.000Z</time>
      </trkpt>
      <trkpt lat="45.85667" lon="4.66908">
        <ele>215.18716</ele>
        <time>2023-11-26T15:07:11.000Z</time>
      </trkpt>
      <trkpt lat="45.85663" lon="4.66909">
        <ele>215.03838</ele>
        <time>2023-11-26T15:07:12.000Z</time>
      </trkpt>
      <trkpt lat="45.85658" lon="4.66911">
        <ele>214.8885</ele>
        <time>2023-11-26T15:07:13.000Z</time>
      </trkpt>
      <trkpt lat="45.85653" lon="4.66912">
        <ele>214.73792</ele>
        <time>2023-11-26T15:07:14.000Z</time>
      </trkpt>
      <trkpt lat="45.85648" lon="4.66913">
        <ele>214.61748</ele>
        <time>2023-11-26T15:07:15.000Z</time>
      </trkpt>
      <trkpt lat="45.85643" lon="4.66914">
        <ele>214.50375</ele>
        <time>2023-11-26T15:07:16.000Z</time>
      </trkpt>
      <trkpt lat="45.85639" lon="4.66915">
        <ele>214.43076</ele>
        <time>2023-11-26T15:07:17.000Z</time>
      </trkpt>
      <trkpt lat="45.85633" lon="4.66916">
        <ele>214.34277</ele>
        <time>2023-11-26T15:07:18.000Z</time>
      </trkpt>
      <trkpt lat="45.85627" lon="4.66918">
        <ele>213.84872</ele>
        <time>2023-11-26T15:07:19.000Z</time>
      </trkpt>
      <trkpt lat="45.85623" lon="4.6692">
        <ele>213.37675</ele>
        <time>2023-11-26T15:07:20.000Z</time>
      </trkpt>
      <trkpt lat="45.85617" lon="4.66922">
        <ele>212.87845</ele>
        <time>2023-11-26T15:07:21.000Z</time>
      </trkpt>
      <trkpt lat="45.85612" lon="4.66923">
        <ele>212.41849</ele>
        <time>2023-11-26T15:07:22.000Z</time>
      </trkpt>
      <trkpt lat="45.85607" lon="4.66926">
        <ele>211.99515</ele>
        <time>2023-11-26T15:07:23.000Z</time>
      </trkpt>
      <trkpt lat="45.85602" lon="4.66926">
        <ele>211.616</ele>
        <time>2023-11-26T15:07:24.000Z</time>
      </trkpt>
      <trkpt lat="45.85599" lon="4.66929">
        <ele>211.23186</ele>
        <time>2023-11-26T15:07:25.000Z</time>
      </trkpt>
      <trkpt lat="45.85595" lon="4.66932">
        <ele>210.65059</ele>
        <time>2023-11-26T15:07:26.000Z</time>
      </trkpt>
      <trkpt lat="45.8559" lon="4.66934">
        <ele>209.98494</ele>
        <time>2023-11-26T15:07:27.000Z</time>
      </trkpt>
      <trkpt lat="45.85586" lon="4.66936">
        <ele>209.59871</ele>
        <time>2023-11-26T15:07:28.000Z</time>
      </trkpt>
      <trkpt lat="45.85583" lon="4.66938">
        <ele>209.16049</ele>
        <time>2023-11-26T15:07:29.000Z</time>
      </trkpt>
      <trkpt lat="45.8558" lon="4.66939">
        <ele>208.76328</ele>
        <time>2023-11-26T15:07:30.000Z</time>
      </trkpt>
      <trkpt lat="45.85577" lon="4.66942">
        <ele>208.28983</ele>
        <time>2023-11-26T15:07:31.000Z</time>
      </trkpt>
      <trkpt lat="45.85571" lon="4.66944">
        <ele>208.19974</ele>
        <time>2023-11-26T15:07:32.000Z</time>
      </trkpt>
      <trkpt lat="45.85566" lon="4.66944">
        <ele>208.09921</ele>
        <time>2023-11-26T15:07:33.000Z</time>
      </trkpt>
      <trkpt lat="45.85562" lon="4.66944">
        <ele>208.02446</ele>
        <time>2023-11-26T15:07:34.000Z</time>
      </trkpt>
      <trkpt lat="45.85557" lon="4.66945">
        <ele>207.98674</ele>
        <time>2023-11-26T15:07:35.000Z</time>
      </trkpt>
      <trkpt lat="45.85554" lon="4.66946">
        <ele>207.9355</ele>
        <time>2023-11-26T15:07:36.000Z</time>
      </trkpt>
      <trkpt lat="45.8555" lon="4.66947">
        <ele>207.90791</ele>
        <time>2023-11-26T15:07:37.000Z</time>
      </trkpt>
      <trkpt lat="45.85547" lon="4.66948">
        <ele>207.93965</ele>
        <time>2023-11-26T15:07:38.000Z</time>
      </trkpt>
      <trkpt lat="45.85544" lon="4.66949">
        <ele>207.98645</ele>
        <time>2023-11-26T15:07:39.000Z</time>
      </trkpt>
      <trkpt lat="45.85541" lon="4.6695">
        <ele>208.05179</ele>
        <time>2023-11-26T15:07:40.000Z</time>
      </trkpt>
      <trkpt lat="45.85538" lon="4.6695">
        <ele>208.13213</ele>
        <time>2023-11-26T15:07:41.000Z</time>
      </trkpt>
      <trkpt lat="45.85536" lon="4.66951">
        <ele>208.23001</ele>
        <time>2023-11-26T15:07:42.000Z</time>
      </trkpt>
      <trkpt lat="45.85534" lon="4.66952">
        <ele>208.32475</ele>
        <time>2023-11-26T15:07:43.000Z</time>
      </trkpt>
      <trkpt lat="45.85533" lon="4.66955">
        <ele>208.39539</ele>
        <time>2023-11-26T15:07:44.000Z</time>
      </trkpt>
      <trkpt lat="45.85534" lon="4.66958">
        <ele>208.45996</ele>
        <time>2023-11-26T15:07:45.000Z</time>
      </trkpt>
      <trkpt lat="45.85534" lon="4.66961">
        <ele>208.55057</ele>
        <time>2023-11-26T15:07:46.000Z</time>
      </trkpt>
      <trkpt lat="45.85536" lon="4.66964">
        <ele>208.66301</ele>
        <time>2023-11-26T15:07:47.000Z</time>
      </trkpt>
      <trkpt lat="45.85537" lon="4.66967">
        <ele>208.80159</ele>
        <time>2023-11-26T15:07:48.000Z</time>
      </trkpt>
      <trkpt lat="45.85538" lon="4.6697">
        <ele>208.95847</ele>
        <time>2023-11-26T15:07:49.000Z</time>
      </trkpt>
      <trkpt lat="45.8554" lon="4.66972">
        <ele>209.01579</ele>
        <time>2023-11-26T15:07:50.000Z</time>
      </trkpt>
      <trkpt lat="45.85541" lon="4.66976">
        <ele>209.10617</ele>
        <time>2023-11-26T15:07:51.000Z</time>
      </trkpt>
      <trkpt lat="45.85542" lon="4.66979">
        <ele>209.19588</ele>
        <time>2023-11-26T15:07:52.000Z</time>
      </trkpt>
      <trkpt lat="45.85544" lon="4.66983">
        <ele>209.32471</ele>
        <time>2023-11-26T15:07:53.000Z</time>
      </trkpt>
      <trkpt lat="45.85545" lon="4.66987">
        <ele>209.43091</ele>
        <time>2023-11-26T15:07:54.000Z</time>
      </trkpt>
      <trkpt lat="45.85547" lon="4.66991">
        <ele>209.48074</ele>
        <time>2023-11-26T15:07:55.000Z</time>
      </trkpt>
      <trkpt lat="45.85548" lon="4.66996">
        <ele>209.5405</ele>
        <time>2023-11-26T15:07:56.000Z</time>
      </trkpt>
      <trkpt lat="45.85549" lon="4.67">
        <ele>209.52869</ele>
        <time>2023-11-26T15:07:57.000Z</time>
      </trkpt>
      <trkpt lat="45.85549" lon="4.67005">
        <ele>209.47334</ele>
        <time>2023-11-26T15:07:58.000Z</time>
      </trkpt>
      <trkpt lat="45.85551" lon="4.67009">
        <ele>209.42758</ele>
        <time>2023-11-26T15:07:59.000Z</time>
      </trkpt>
      <trkpt lat="45.85552" lon="4.67014">
        <ele>209.38708</ele>
        <time>2023-11-26T15:08:00.000Z</time>
      </trkpt>
      <trkpt lat="45.85553" lon="4.67019">
        <ele>209.3472</ele>
        <time>2023-11-26T15:08:01.000Z</time>
      </trkpt>
      <trkpt lat="45.85554" lon="4.67024">
        <ele>209.28023</ele>
        <time>2023-11-26T15:08:02.000Z</time>
      </trkpt>
      <trkpt lat="45.85555" lon="4.67028">
        <ele>209.20847</ele>
        <time>2023-11-26T15:08:03.000Z</time>
      </trkpt>
      <trkpt lat="45.85557" lon="4.67033">
        <ele>209.13379</ele>
        <time>2023-11-26T15:08:04.000Z</time>
      </trkpt>
      <trkpt lat="45.85558" lon="4.67038">
        <ele>209.02666</ele>
        <time>2023-11-26T15:08:05.000Z</time>
      </trkpt>
      <trkpt lat="45.8556" lon="4.67043">
        <ele>208.90247</ele>
        <time>2023-11-26T15:08:06.000Z</time>
      </trkpt>
      <trkpt lat="45.85561" lon="4.67048">
        <ele>208.81367</ele>
        <time>2023-11-26T15:08:07.000Z</time>
      </trkpt>
      <trkpt lat="45.85563" lon="4.67052">
        <ele>208.70415</ele>
        <time>2023-11-26T15:08:08.000Z</time>
      </trkpt>
      <trkpt lat="45.85564" lon="4.67056">
        <ele>208.60281</ele>
        <time>2023-11-26T15:08:09.000Z</time>
      </trkpt>
      <trkpt lat="45.85566" lon="4.67061">
        <ele>208.55057</ele>
        <time>2023-11-26T15:08:10.000Z</time>
      </trkpt>
      <trkpt lat="45.85568" lon="4.67065">
        <ele>208.48083</ele>
        <time>2023-11-26T15:08:11.000Z</time>
      </trkpt>
      <trkpt lat="45.85569" lon="4.67071">
        <ele>208.43791</ele>
        <time>2023-11-26T15:08:12.000Z</time>
      </trkpt>
      <trkpt lat="45.85571" lon="4.67077">
        <ele>208.38945</ele>
        <time>2023-11-26T15:08:13.000Z</time>
      </trkpt>
      <trkpt lat="45.85575" lon="4.67084">
        <ele>208.35159</ele>
        <time>2023-11-26T15:08:14.000Z</time>
      </trkpt>
      <trkpt lat="45.85578" lon="4.6709">
        <ele>208.3322</ele>
        <time>2023-11-26T15:08:15.000Z</time>
      </trkpt>
      <trkpt lat="45.85579" lon="4.67096">
        <ele>208.30356</ele>
        <time>2023-11-26T15:08:16.000Z</time>
      </trkpt>
      <trkpt lat="45.8558" lon="4.67101">
        <ele>208.32524</ele>
        <time>2023-11-26T15:08:17.000Z</time>
      </trkpt>
      <trkpt lat="45.85583" lon="4.67107">
        <ele>208.3428</ele>
        <time>2023-11-26T15:08:18.000Z</time>
      </trkpt>
      <trkpt lat="45.85585" lon="4.67113">
        <ele>208.28865</ele>
        <time>2023-11-26T15:08:19.000Z</time>
      </trkpt>
      <trkpt lat="45.85587" lon="4.67118">
        <ele>208.22525</ele>
        <time>2023-11-26T15:08:20.000Z</time>
      </trkpt>
      <trkpt lat="45.85589" lon="4.67124">
        <ele>208.13315</ele>
        <time>2023-11-26T15:08:21.000Z</time>
      </trkpt>
      <trkpt lat="45.85592" lon="4.6713">
        <ele>208.87366</ele>
        <time>2023-11-26T15:08:22.000Z</time>
      </trkpt>
      <trkpt lat="45.85594" lon="4.67136">
        <ele>209.26688</ele>
        <time>2023-11-26T15:08:23.000Z</time>
      </trkpt>
      <trkpt lat="45.85597" lon="4.67142">
        <ele>209.60669</ele>
        <time>2023-11-26T15:08:24.000Z</time>
      </trkpt>
      <trkpt lat="45.85599" lon="4.67146">
        <ele>209.97713</ele>
        <time>2023-11-26T15:08:25.000Z</time>
      </trkpt>
      <trkpt lat="45.85601" lon="4.67151">
        <ele>210.46518</ele>
        <time>2023-11-26T15:08:26.000Z</time>
      </trkpt>
      <trkpt lat="45.85604" lon="4.67155">
        <ele>211.08691</ele>
        <time>2023-11-26T15:08:27.000Z</time>
      </trkpt>
      <trkpt lat="45.85606" lon="4.67159">
        <ele>211.71101</ele>
        <time>2023-11-26T15:08:28.000Z</time>
      </trkpt>
      <trkpt lat="45.85608" lon="4.67164">
        <ele>212.53159</ele>
        <time>2023-11-26T15:08:29.000Z</time>
      </trkpt>
      <trkpt lat="45.8561" lon="4.67167">
        <ele>213.05408</ele>
        <time>2023-11-26T15:08:30.000Z</time>
      </trkpt>
      <trkpt lat="45.85611" lon="4.6717">
        <ele>213.54343</ele>
        <time>2023-11-26T15:08:31.000Z</time>
      </trkpt>
      <trkpt lat="45.85612" lon="4.67173">
        <ele>213.94522</ele>
        <time>2023-11-26T15:08:32.000Z</time>
      </trkpt>
      <trkpt lat="45.85614" lon="4.67177">
        <ele>214.32217</ele>
        <time>2023-11-26T15:08:33.000Z</time>
      </trkpt>
      <trkpt lat="45.85616" lon="4.67181">
        <ele>214.75919</ele>
        <time>2023-11-26T15:08:34.000Z</time>
      </trkpt>
      <trkpt lat="45.85618" lon="4.67185">
        <ele>215.17697</ele>
        <time>2023-11-26T15:08:35.000Z</time>
      </trkpt>
      <trkpt lat="45.85621" lon="4.6719">
        <ele>215.59946</ele>
        <time>2023-11-26T15:08:36.000Z</time>
      </trkpt>
      <trkpt lat="45.85623" lon="4.67194">
        <ele>216.01924</ele>
        <time>2023-11-26T15:08:37.000Z</time>
      </trkpt>
      <trkpt lat="45.85625" lon="4.67197">
        <ele>216.43929</ele>
        <time>2023-11-26T15:08:38.000Z</time>
      </trkpt>
      <trkpt lat="45.85628" lon="4.67201">
        <ele>216.90988</ele>
        <time>2023-11-26T15:08:39.000Z</time>
      </trkpt>
      <trkpt lat="45.8563" lon="4.67205">
        <ele>217.36728</ele>
        <time>2023-11-26T15:08:40.000Z</time>
      </trkpt>
      <trkpt lat="45.85632" lon="4.67209">
        <ele>217.80791</ele>
        <time>2023-11-26T15:08:41.000Z</time>
      </trkpt>
      <trkpt lat="45.85635" lon="4.67213">
        <ele>217.6385</ele>
        <time>2023-11-26T15:08:42.000Z</time>
      </trkpt>
      <trkpt lat="45.85638" lon="4.67216">
        <ele>217.83652</ele>
        <time>2023-11-26T15:08:43.000Z</time>
      </trkpt>
      <trkpt lat="45.85641" lon="4.67218">
        <ele>218.10579</ele>
        <time>2023-11-26T15:08:44.000Z</time>
      </trkpt>
      <trkpt lat="45.85644" lon="4.67221">
        <ele>218.36508</ele>
        <time>2023-11-26T15:08:45.000Z</time>
      </trkpt>
      <trkpt lat="45.85646" lon="4.67224">
        <ele>218.51755</ele>
        <time>2023-11-26T15:08:46.000Z</time>
      </trkpt>
      <trkpt lat="45.85649" lon="4.67226">
        <ele>218.53891</ele>
        <time>2023-11-26T15:08:47.000Z</time>
      </trkpt>
      <trkpt lat="45.85652" lon="4.67228">
        <ele>218.54501</ele>
        <time>2023-11-26T15:08:48.000Z</time>
      </trkpt>
      <trkpt lat="45.85656" lon="4.6723">
        <ele>218.31421</ele>
        <time>2023-11-26T15:08:49.000Z</time>
      </trkpt>
      <trkpt lat="45.85659" lon="4.67233">
        <ele>218.38831</ele>
        <time>2023-11-26T15:08:50.000Z</time>
      </trkpt>
      <trkpt lat="45.85661" lon="4.67235">
        <ele>218.36653</ele>
        <time>2023-11-26T15:08:51.000Z</time>
      </trkpt>
      <trkpt lat="45.85665" lon="4.67238">
        <ele>218.46753</ele>
        <time>2023-11-26T15:08:52.000Z</time>
      </trkpt>
      <trkpt lat="45.85669" lon="4.67241">
        <ele>218.59506</ele>
        <time>2023-11-26T15:08:53.000Z</time>
      </trkpt>
      <trkpt lat="45.85672" lon="4.67243">
        <ele>218.66904</ele>
        <time>2023-11-26T15:08:54.000Z</time>
      </trkpt>
      <trkpt lat="45.85676" lon="4.67246">
        <ele>218.75729</ele>
        <time>2023-11-26T15:08:55.000Z</time>
      </trkpt>
      <trkpt lat="45.85681" lon="4.67247">
        <ele>218.86951</ele>
        <time>2023-11-26T15:08:56.000Z</time>
      </trkpt>
      <trkpt lat="45.85685" lon="4.67249">
        <ele>219.01807</ele>
        <time>2023-11-26T15:08:57.000Z</time>
      </trkpt>
      <trkpt lat="45.85689" lon="4.6725">
        <ele>219.20895</ele>
        <time>2023-11-26T15:08:58.000Z</time>
      </trkpt>
      <trkpt lat="45.85693" lon="4.67252">
        <ele>219.41455</ele>
        <time>2023-11-26T15:08:59.000Z</time>
      </trkpt>
      <trkpt lat="45.85696" lon="4.67254">
        <ele>219.64592</ele>
        <time>2023-11-26T15:09:00.000Z</time>
      </trkpt>
      <trkpt lat="45.857" lon="4.67255">
        <ele>219.95699</ele>
        <time>2023-11-26T15:09:01.000Z</time>
      </trkpt>
      <trkpt lat="45.85704" lon="4.67257">
        <ele>220.17429</ele>
        <time>2023-11-26T15:09:02.000Z</time>
      </trkpt>
      <trkpt lat="45.85708" lon="4.6726">
        <ele>220.29424</ele>
        <time>2023-11-26T15:09:03.000Z</time>
      </trkpt>
      <trkpt lat="45.85712" lon="4.67262">
        <ele>220.42513</ele>
        <time>2023-11-26T15:09:04.000Z</time>
      </trkpt>
      <trkpt lat="45.85716" lon="4.67265">
        <ele>220.52957</ele>
        <time>2023-11-26T15:09:05.000Z</time>
      </trkpt>
      <trkpt lat="45.85719" lon="4.67268">
        <ele>220.32918</ele>
        <time>2023-11-26T15:09:06.000Z</time>
      </trkpt>
      <trkpt lat="45.85723" lon="4.6727">
        <ele>220.16345</ele>
        <time>2023-11-26T15:09:07.000Z</time>
      </trkpt>
      <trkpt lat="45.85726" lon="4.67273">
        <ele>219.98123</ele>
        <time>2023-11-26T15:09:08.000Z</time>
      </trkpt>
      <trkpt lat="45.85729" lon="4.67275">
        <ele>219.7814</ele>
        <time>2023-11-26T15:09:09.000Z</time>
      </trkpt>
      <trkpt lat="45.85733" lon="4.67277">
        <ele>219.60788</ele>
        <time>2023-11-26T15:09:10.000Z</time>
      </trkpt>
      <trkpt lat="45.85735" lon="4.67279">
        <ele>219.59293</ele>
        <time>2023-11-26T15:09:11.000Z</time>
      </trkpt>
      <trkpt lat="45.85738" lon="4.6728">
        <ele>219.4902</ele>
        <time>2023-11-26T15:09:12.000Z</time>
      </trkpt>
      <trkpt lat="45.85741" lon="4.67282">
        <ele>219.52837</ele>
        <time>2023-11-26T15:09:13.000Z</time>
      </trkpt>
      <trkpt lat="45.85744" lon="4.67285">
        <ele>219.73958</ele>
        <time>2023-11-26T15:09:14.000Z</time>
      </trkpt>
      <trkpt lat="45.85746" lon="4.67288">
        <ele>219.63876</ele>
        <time>2023-11-26T15:09:15.000Z</time>
      </trkpt>
      <trkpt lat="45.85748" lon="4.67291">
        <ele>219.58537</ele>
        <time>2023-11-26T15:09:16.000Z</time>
      </trkpt>
      <trkpt lat="45.8575" lon="4.67294">
        <ele>219.48535</ele>
        <time>2023-11-26T15:09:17.000Z</time>
      </trkpt>
      <trkpt lat="45.85752" lon="4.67297">
        <ele>219.29805</ele>
        <time>2023-11-26T15:09:18.000Z</time>
      </trkpt>
      <trkpt lat="45.85754" lon="4.673">
        <ele>219.11682</ele>
        <time>2023-11-26T15:09:19.000Z</time>
      </trkpt>
      <trkpt lat="45.85755" lon="4.67303">
        <ele>218.94138</ele>
        <time>2023-11-26T15:09:20.000Z</time>
      </trkpt>
      <trkpt lat="45.85757" lon="4.67306">
        <ele>218.6499</ele>
        <time>2023-11-26T15:09:21.000Z</time>
      </trkpt>
      <trkpt lat="45.8576" lon="4.67308">
        <ele>218.19656</ele>
        <time>2023-11-26T15:09:22.000Z</time>
      </trkpt>
      <trkpt lat="45.85762" lon="4.6731">
        <ele>217.97098</ele>
        <time>2023-11-26T15:09:23.000Z</time>
      </trkpt>
      <trkpt lat="45.85765" lon="4.67311">
        <ele>217.87778</ele>
        <time>2023-11-26T15:09:24.000Z</time>
      </trkpt>
      <trkpt lat="45.85766" lon="4.67314">
        <ele>217.8459</ele>
        <time>2023-11-26T15:09:25.000Z</time>
      </trkpt>
      <trkpt lat="45.85768" lon="4.67316">
        <ele>218.04504</ele>
        <time>2023-11-26T15:09:26.000Z</time>
      </trkpt>
      <trkpt lat="45.8577" lon="4.67318">
        <ele>218.13264</ele>
        <time>2023-11-26T15:09:27.000Z</time>
      </trkpt>
      <trkpt lat="45.85772" lon="4.67321">
        <ele>218.23857</ele>
        <time>2023-11-26T15:09:28.000Z</time>
      </trkpt>
      <trkpt lat="45.85774" lon="4.67324">
        <ele>218.45071</ele>
        <time>2023-11-26T15:09:29.000Z</time>
      </trkpt>
      <trkpt lat="45.85775" lon="4.67326">
        <ele>218.67107</ele>
        <time>2023-11-26T15:09:30.000Z</time>
      </trkpt>
      <trkpt lat="45.85777" lon="4.67328">
        <ele>218.55197</ele>
        <time>2023-11-26T15:09:31.000Z</time>
      </trkpt>
      <trkpt lat="45.85777" lon="4.67331">
        <ele>218.47241</ele>
        <time>2023-11-26T15:09:32.000Z</time>
      </trkpt>
      <trkpt lat="45.85777" lon="4.67334">
        <ele>218.21671</ele>
        <time>2023-11-26T15:09:33.000Z</time>
      </trkpt>
      <trkpt lat="45.85777" lon="4.67338">
        <ele>217.7634</ele>
        <time>2023-11-26T15:09:34.000Z</time>
      </trkpt>
      <trkpt lat="45.85776" lon="4.67342">
        <ele>217.65942</ele>
        <time>2023-11-26T15:09:35.000Z</time>
      </trkpt>
      <trkpt lat="45.85776" lon="4.67346">
        <ele>217.4794</ele>
        <time>2023-11-26T15:09:36.000Z</time>
      </trkpt>
      <trkpt lat="45.85777" lon="4.67351">
        <ele>217.31741</ele>
        <time>2023-11-26T15:09:37.000Z</time>
      </trkpt>
      <trkpt lat="45.85777" lon="4.67355">
        <ele>217.21001</ele>
        <time>2023-11-26T15:09:38.000Z</time>
      </trkpt>
      <trkpt lat="45.85776" lon="4.67359">
        <ele>217.06128</ele>
        <time>2023-11-26T15:09:39.000Z</time>
      </trkpt>
      <trkpt lat="45.85774" lon="4.67362">
        <ele>216.9205</ele>
        <time>2023-11-26T15:09:40.000Z</time>
      </trkpt>
      <trkpt lat="45.85772" lon="4.67365">
        <ele>216.82849</ele>
        <time>2023-11-26T15:09:41.000Z</time>
      </trkpt>
      <trkpt lat="45.85771" lon="4.67369">
        <ele>216.74919</ele>
        <time>2023-11-26T15:09:42.000Z</time>
      </trkpt>
      <trkpt lat="45.85769" lon="4.67372">
        <ele>216.53787</ele>
        <time>2023-11-26T15:09:43.000Z</time>
      </trkpt>
      <trkpt lat="45.85768" lon="4.67375">
        <ele>216.18411</ele>
        <time>2023-11-26T15:09:44.000Z</time>
      </trkpt>
      <trkpt lat="45.85767" lon="4.67378">
        <ele>215.83708</ele>
        <time>2023-11-26T15:09:45.000Z</time>
      </trkpt>
      <trkpt lat="45.85766" lon="4.67381">
        <ele>215.54239</ele>
        <time>2023-11-26T15:09:46.000Z</time>
      </trkpt>
      <trkpt lat="45.85765" lon="4.67385">
        <ele>215.36996</ele>
        <time>2023-11-26T15:09:47.000Z</time>
      </trkpt>
      <trkpt lat="45.85764" lon="4.67388">
        <ele>215.24753</ele>
        <time>2023-11-26T15:09:48.000Z</time>
      </trkpt>
      <trkpt lat="45.85762" lon="4.67391">
        <ele>215.05388</ele>
        <time>2023-11-26T15:09:49.000Z</time>
      </trkpt>
      <trkpt lat="45.85761" lon="4.67395">
        <ele>214.8674</ele>
        <time>2023-11-26T15:09:50.000Z</time>
      </trkpt>
      <trkpt lat="45.8576" lon="4.67398">
        <ele>215.03848</ele>
        <time>2023-11-26T15:09:51.000Z</time>
      </trkpt>
      <trkpt lat="45.85758" lon="4.67401">
        <ele>215.21457</ele>
        <time>2023-11-26T15:09:52.000Z</time>
      </trkpt>
      <trkpt lat="45.85757" lon="4.67405">
        <ele>215.40427</ele>
        <time>2023-11-26T15:09:53.000Z</time>
      </trkpt>
      <trkpt lat="45.85756" lon="4.67409">
        <ele>215.62891</ele>
        <time>2023-11-26T15:09:54.000Z</time>
      </trkpt>
      <trkpt lat="45.85754" lon="4.67412">
        <ele>215.81177</ele>
        <time>2023-11-26T15:09:55.000Z</time>
      </trkpt>
      <trkpt lat="45.85753" lon="4.67415">
        <ele>216.00273</ele>
        <time>2023-11-26T15:09:56.000Z</time>
      </trkpt>
      <trkpt lat="45.85751" lon="4.67418">
        <ele>216.18867</ele>
        <time>2023-11-26T15:09:57.000Z</time>
      </trkpt>
      <trkpt lat="45.8575" lon="4.6742">
        <ele>216.41032</ele>
        <time>2023-11-26T15:09:58.000Z</time>
      </trkpt>
      <trkpt lat="45.85749" lon="4.67423">
        <ele>216.64343</ele>
        <time>2023-11-26T15:09:59.000Z</time>
      </trkpt>
      <trkpt lat="45.85748" lon="4.67426">
        <ele>216.86194</ele>
        <time>2023-11-26T15:10:00.000Z</time>
      </trkpt>
      <trkpt lat="45.85746" lon="4.67429">
        <ele>217.12573</ele>
        <time>2023-11-26T15:10:01.000Z</time>
      </trkpt>
      <trkpt lat="45.85745" lon="4.67432">
        <ele>217.40825</ele>
        <time>2023-11-26T15:10:02.000Z</time>
      </trkpt>
      <trkpt lat="45.85743" lon="4.67434">
        <ele>217.64767</ele>
        <time>2023-11-26T15:10:03.000Z</time>
      </trkpt>
      <trkpt lat="45.85741" lon="4.67437">
        <ele>217.85649</ele>
        <time>2023-11-26T15:10:04.000Z</time>
      </trkpt>
      <trkpt lat="45.8574" lon="4.6744">
        <ele>218.0531</ele>
        <time>2023-11-26T15:10:05.000Z</time>
      </trkpt>
      <trkpt lat="45.85738" lon="4.67443">
        <ele>218.23972</ele>
        <time>2023-11-26T15:10:06.000Z</time>
      </trkpt>
      <trkpt lat="45.85736" lon="4.67446">
        <ele>218.33972</ele>
        <time>2023-11-26T15:10:07.000Z</time>
      </trkpt>
      <trkpt lat="45.85734" lon="4.67448">
        <ele>218.39612</ele>
        <time>2023-11-26T15:10:08.000Z</time>
      </trkpt>
      <trkpt lat="45.85732" lon="4.67451">
        <ele>218.42546</ele>
        <time>2023-11-26T15:10:09.000Z</time>
      </trkpt>
      <trkpt lat="45.8573" lon="4.67454">
        <ele>218.40227</ele>
        <time>2023-11-26T15:10:10.000Z</time>
      </trkpt>
      <trkpt lat="45.85728" lon="4.67457">
        <ele>218.34773</ele>
        <time>2023-11-26T15:10:11.000Z</time>
      </trkpt>
      <trkpt lat="45.85726" lon="4.6746">
        <ele>218.27322</ele>
        <time>2023-11-26T15:10:12.000Z</time>
      </trkpt>
      <trkpt lat="45.85724" lon="4.67462">
        <ele>218.22246</ele>
        <time>2023-11-26T15:10:13.000Z</time>
      </trkpt>
      <trkpt lat="45.85722" lon="4.67464">
        <ele>218.14365</ele>
        <time>2023-11-26T15:10:14.000Z</time>
      </trkpt>
      <trkpt lat="45.8572" lon="4.67467">
        <ele>218.07451</ele>
        <time>2023-11-26T15:10:15.000Z</time>
      </trkpt>
      <trkpt lat="45.85718" lon="4.67469">
        <ele>217.98576</ele>
        <time>2023-11-26T15:10:16.000Z</time>
      </trkpt>
      <trkpt lat="45.85716" lon="4.67473">
        <ele>217.88742</ele>
        <time>2023-11-26T15:10:17.000Z</time>
      </trkpt>
      <trkpt lat="45.85714" lon="4.67476">
        <ele>217.7616</ele>
        <time>2023-11-26T15:10:18.000Z</time>
      </trkpt>
      <trkpt lat="45.85711" lon="4.6748">
        <ele>217.64729</ele>
        <time>2023-11-26T15:10:19.000Z</time>
      </trkpt>
      <trkpt lat="45.85709" lon="4.67483">
        <ele>217.53091</ele>
        <time>2023-11-26T15:10:20.000Z</time>
      </trkpt>
      <trkpt lat="45.85707" lon="4.67487">
        <ele>217.4928</ele>
        <time>2023-11-26T15:10:21.000Z</time>
      </trkpt>
      <trkpt lat="45.85705" lon="4.67491">
        <ele>217.44514</ele>
        <time>2023-11-26T15:10:22.000Z</time>
      </trkpt>
      <trkpt lat="45.85702" lon="4.67495">
        <ele>217.42961</ele>
        <time>2023-11-26T15:10:23.000Z</time>
      </trkpt>
      <trkpt lat="45.857" lon="4.67499">
        <ele>217.43295</ele>
        <time>2023-11-26T15:10:24.000Z</time>
      </trkpt>
      <trkpt lat="45.85698" lon="4.67503">
        <ele>217.41141</ele>
        <time>2023-11-26T15:10:25.000Z</time>
      </trkpt>
      <trkpt lat="45.85695" lon="4.67507">
        <ele>217.40825</ele>
        <time>2023-11-26T15:10:26.000Z</time>
      </trkpt>
      <trkpt lat="45.85692" lon="4.67511">
        <ele>217.50191</ele>
        <time>2023-11-26T15:10:27.000Z</time>
      </trkpt>
      <trkpt lat="45.85689" lon="4.67515">
        <ele>217.62981</ele>
        <time>2023-11-26T15:10:28.000Z</time>
      </trkpt>
      <trkpt lat="45.85687" lon="4.67518">
        <ele>217.507</ele>
        <time>2023-11-26T15:10:29.000Z</time>
      </trkpt>
      <trkpt lat="45.85684" lon="4.67521">
        <ele>217.4458</ele>
        <time>2023-11-26T15:10:30.000Z</time>
      </trkpt>
      <trkpt lat="45.85681" lon="4.67525">
        <ele>217.38806</ele>
        <time>2023-11-26T15:10:31.000Z</time>
      </trkpt>
      <trkpt lat="45.85678" lon="4.67528">
        <ele>217.33269</ele>
        <time>2023-11-26T15:10:32.000Z</time>
      </trkpt>
      <trkpt lat="45.85675" lon="4.67532">
        <ele>217.2706</ele>
        <time>2023-11-26T15:10:33.000Z</time>
      </trkpt>
      <trkpt lat="45.85672" lon="4.67535">
        <ele>217.22566</ele>
        <time>2023-11-26T15:10:34.000Z</time>
      </trkpt>
      <trkpt lat="45.85669" lon="4.67538">
        <ele>217.18546</ele>
        <time>2023-11-26T15:10:35.000Z</time>
      </trkpt>
      <trkpt lat="45.85666" lon="4.67541">
        <ele>217.15591</ele>
        <time>2023-11-26T15:10:36.000Z</time>
      </trkpt>
      <trkpt lat="45.85663" lon="4.67544">
        <ele>217.13211</ele>
        <time>2023-11-26T15:10:37.000Z</time>
      </trkpt>
      <trkpt lat="45.8566" lon="4.67546">
        <ele>217.09729</ele>
        <time>2023-11-26T15:10:38.000Z</time>
      </trkpt>
      <trkpt lat="45.85657" lon="4.67549">
        <ele>217.17838</ele>
        <time>2023-11-26T15:10:39.000Z</time>
      </trkpt>
      <trkpt lat="45.85654" lon="4.67552">
        <ele>217.25424</ele>
        <time>2023-11-26T15:10:40.000Z</time>
      </trkpt>
      <trkpt lat="45.85651" lon="4.67555">
        <ele>217.33223</ele>
        <time>2023-11-26T15:10:41.000Z</time>
      </trkpt>
      <trkpt lat="45.85648" lon="4.67558">
        <ele>217.4384</ele>
        <time>2023-11-26T15:10:42.000Z</time>
      </trkpt>
      <trkpt lat="45.85644" lon="4.67562">
        <ele>217.24512</ele>
        <time>2023-11-26T15:10:43.000Z</time>
      </trkpt>
      <trkpt lat="45.85641" lon="4.67565">
        <ele>217.09099</ele>
        <time>2023-11-26T15:10:44.000Z</time>
      </trkpt>
      <trkpt lat="45.85638" lon="4.67568">
        <ele>216.91702</ele>
        <time>2023-11-26T15:10:45.000Z</time>
      </trkpt>
      <trkpt lat="45.85635" lon="4.67572">
        <ele>216.7354</ele>
        <time>2023-11-26T15:10:46.000Z</time>
      </trkpt>
      <trkpt lat="45.85631" lon="4.67575">
        <ele>216.4675</ele>
        <time>2023-11-26T15:10:47.000Z</time>
      </trkpt>
      <trkpt lat="45.85628" lon="4.67578">
        <ele>216.14323</ele>
        <time>2023-11-26T15:10:48.000Z</time>
      </trkpt>
      <trkpt lat="45.85624" lon="4.67581">
        <ele>216.08455</ele>
        <time>2023-11-26T15:10:49.000Z</time>
      </trkpt>
      <trkpt lat="45.8562" lon="4.67584">
        <ele>215.97737</ele>
        <time>2023-11-26T15:10:50.000Z</time>
      </trkpt>
      <trkpt lat="45.85616" lon="4.67587">
        <ele>215.85596</ele>
        <time>2023-11-26T15:10:51.000Z</time>
      </trkpt>
      <trkpt lat="45.85613" lon="4.6759">
        <ele>215.74463</ele>
        <time>2023-11-26T15:10:52.000Z</time>
      </trkpt>
      <trkpt lat="45.8561" lon="4.67594">
        <ele>215.6105</ele>
        <time>2023-11-26T15:10:53.000Z</time>
      </trkpt>
      <trkpt lat="45.85607" lon="4.67597">
        <ele>215.47441</ele>
        <time>2023-11-26T15:10:54.000Z</time>
      </trkpt>
      <trkpt lat="45.85603" lon="4.67602">
        <ele>215.33688</ele>
        <time>2023-11-26T15:10:55.000Z</time>
      </trkpt>
      <trkpt lat="45.85599" lon="4.67605">
        <ele>215.19792</ele>
        <time>2023-11-26T15:10:56.000Z</time>
      </trkpt>
      <trkpt lat="45.85596" lon="4.67608">
        <ele>215.21762</ele>
        <time>2023-11-26T15:10:57.000Z</time>
      </trkpt>
      <trkpt lat="45.85592" lon="4.67611">
        <ele>215.25652</ele>
        <time>2023-11-26T15:10:58.000Z</time>
      </trkpt>
      <trkpt lat="45.85588" lon="4.67616">
        <ele>215.27165</ele>
        <time>2023-11-26T15:10:59.000Z</time>
      </trkpt>
      <trkpt lat="45.85584" lon="4.6762">
        <ele>215.2919</ele>
        <time>2023-11-26T15:11:00.000Z</time>
      </trkpt>
      <trkpt lat="45.85581" lon="4.67624">
        <ele>214.90347</ele>
        <time>2023-11-26T15:11:01.000Z</time>
      </trkpt>
      <trkpt lat="45.85578" lon="4.67628">
        <ele>214.55452</ele>
        <time>2023-11-26T15:11:02.000Z</time>
      </trkpt>
      <trkpt lat="45.85575" lon="4.67632">
        <ele>214.50101</ele>
        <time>2023-11-26T15:11:03.000Z</time>
      </trkpt>
      <trkpt lat="45.85573" lon="4.67636">
        <ele>214.42952</ele>
        <time>2023-11-26T15:11:04.000Z</time>
      </trkpt>
      <trkpt lat="45.8557" lon="4.6764">
        <ele>214.39917</ele>
        <time>2023-11-26T15:11:05.000Z</time>
      </trkpt>
      <trkpt lat="45.85566" lon="4.67644">
        <ele>214.36609</ele>
        <time>2023-11-26T15:11:06.000Z</time>
      </trkpt>
      <trkpt lat="45.85563" lon="4.67647">
        <ele>214.45959</ele>
        <time>2023-11-26T15:11:07.000Z</time>
      </trkpt>
      <trkpt lat="45.85559" lon="4.67651">
        <ele>214.55859</ele>
        <time>2023-11-26T15:11:08.000Z</time>
      </trkpt>
      <trkpt lat="45.85555" lon="4.67655">
        <ele>214.75595</ele>
        <time>2023-11-26T15:11:09.000Z</time>
      </trkpt>
      <trkpt lat="45.85551" lon="4.6766">
        <ele>214.92966</ele>
        <time>2023-11-26T15:11:10.000Z</time>
      </trkpt>
      <trkpt lat="45.85548" lon="4.67664">
        <ele>214.78767</ele>
        <time>2023-11-26T15:11:11.000Z</time>
      </trkpt>
      <trkpt lat="45.85544" lon="4.67667">
        <ele>214.67715</ele>
        <time>2023-11-26T15:11:12.000Z</time>
      </trkpt>
      <trkpt lat="45.85541" lon="4.67672">
        <ele>214.60587</ele>
        <time>2023-11-26T15:11:13.000Z</time>
      </trkpt>
      <trkpt lat="45.85538" lon="4.67677">
        <ele>214.53781</ele>
        <time>2023-11-26T15:11:14.000Z</time>
      </trkpt>
      <trkpt lat="45.85535" lon="4.67682">
        <ele>214.46623</ele>
        <time>2023-11-26T15:11:15.000Z</time>
      </trkpt>
      <trkpt lat="45.85531" lon="4.67687">
        <ele>214.38521</ele>
        <time>2023-11-26T15:11:16.000Z</time>
      </trkpt>
      <trkpt lat="45.85529" lon="4.67691">
        <ele>214.15291</ele>
        <time>2023-11-26T15:11:17.000Z</time>
      </trkpt>
      <trkpt lat="45.85525" lon="4.67697">
        <ele>213.90231</ele>
        <time>2023-11-26T15:11:18.000Z</time>
      </trkpt>
      <trkpt lat="45.85522" lon="4.67702">
        <ele>213.577</ele>
        <time>2023-11-26T15:11:19.000Z</time>
      </trkpt>
      <trkpt lat="45.85519" lon="4.67707">
        <ele>213.26205</ele>
        <time>2023-11-26T15:11:20.000Z</time>
      </trkpt>
      <trkpt lat="45.85516" lon="4.67712">
        <ele>213.2708</ele>
        <time>2023-11-26T15:11:21.000Z</time>
      </trkpt>
      <trkpt lat="45.85513" lon="4.67717">
        <ele>213.37541</ele>
        <time>2023-11-26T15:11:22.000Z</time>
      </trkpt>
      <trkpt lat="45.85511" lon="4.67722">
        <ele>213.59224</ele>
        <time>2023-11-26T15:11:23.000Z</time>
      </trkpt>
      <trkpt lat="45.85509" lon="4.67727">
        <ele>213.50081</ele>
        <time>2023-11-26T15:11:24.000Z</time>
      </trkpt>
      <trkpt lat="45.85507" lon="4.67732">
        <ele>213.43579</ele>
        <time>2023-11-26T15:11:25.000Z</time>
      </trkpt>
      <trkpt lat="45.85504" lon="4.67738">
        <ele>213.38492</ele>
        <time>2023-11-26T15:11:26.000Z</time>
      </trkpt>
      <trkpt lat="45.85503" lon="4.67745">
        <ele>213.18864</ele>
        <time>2023-11-26T15:11:27.000Z</time>
      </trkpt>
      <trkpt lat="45.855" lon="4.6775">
        <ele>213.07919</ele>
        <time>2023-11-26T15:11:28.000Z</time>
      </trkpt>
      <trkpt lat="45.85498" lon="4.67756">
        <ele>212.83286</ele>
        <time>2023-11-26T15:11:29.000Z</time>
      </trkpt>
      <trkpt lat="45.85496" lon="4.67762">
        <ele>212.63419</ele>
        <time>2023-11-26T15:11:30.000Z</time>
      </trkpt>
      <trkpt lat="45.85495" lon="4.67767">
        <ele>212.79788</ele>
        <time>2023-11-26T15:11:31.000Z</time>
      </trkpt>
      <trkpt lat="45.85493" lon="4.67775">
        <ele>212.87668</ele>
        <time>2023-11-26T15:11:32.000Z</time>
      </trkpt>
      <trkpt lat="45.85491" lon="4.6778">
        <ele>212.9583</ele>
        <time>2023-11-26T15:11:33.000Z</time>
      </trkpt>
      <trkpt lat="45.85492" lon="4.67786">
        <ele>213.08679</ele>
        <time>2023-11-26T15:11:34.000Z</time>
      </trkpt>
      <trkpt lat="45.85493" lon="4.67793">
        <ele>213.23117</ele>
        <time>2023-11-26T15:11:35.000Z</time>
      </trkpt>
      <trkpt lat="45.85493" lon="4.678">
        <ele>213.35197</ele>
        <time>2023-11-26T15:11:36.000Z</time>
      </trkpt>
      <trkpt lat="45.85495" lon="4.67807">
        <ele>213.47807</ele>
        <time>2023-11-26T15:11:37.000Z</time>
      </trkpt>
      <trkpt lat="45.85497" lon="4.67812">
        <ele>213.66109</ele>
        <time>2023-11-26T15:11:38.000Z</time>
      </trkpt>
      <trkpt lat="45.85499" lon="4.67819">
        <ele>213.82516</ele>
        <time>2023-11-26T15:11:39.000Z</time>
      </trkpt>
      <trkpt lat="45.85501" lon="4.67825">
        <ele>214.00386</ele>
        <time>2023-11-26T15:11:40.000Z</time>
      </trkpt>
      <trkpt lat="45.85503" lon="4.67831">
        <ele>214.18181</ele>
        <time>2023-11-26T15:11:41.000Z</time>
      </trkpt>
      <trkpt lat="45.85505" lon="4.67838">
        <ele>214.20341</ele>
        <time>2023-11-26T15:11:42.000Z</time>
      </trkpt>
      <trkpt lat="45.85507" lon="4.67844">
        <ele>214.10217</ele>
        <time>2023-11-26T15:11:43.000Z</time>
      </trkpt>
      <trkpt lat="45.85509" lon="4.6785">
        <ele>214.32471</ele>
        <time>2023-11-26T15:11:44.000Z</time>
      </trkpt>
      <trkpt lat="45.8551" lon="4.67857">
        <ele>214.49661</ele>
        <time>2023-11-26T15:11:45.000Z</time>
      </trkpt>
      <trkpt lat="45.85512" lon="4.67864">
        <ele>214.79831</ele>
        <time>2023-11-26T15:11:46.000Z</time>
      </trkpt>
      <trkpt lat="45.85513" lon="4.6787">
        <ele>215.23593</ele>
        <time>2023-11-26T15:11:47.000Z</time>
      </trkpt>
      <trkpt lat="45.85515" lon="4.67875">
        <ele>215.5914</ele>
        <time>2023-11-26T15:11:48.000Z</time>
      </trkpt>
      <trkpt lat="45.85516" lon="4.67881">
        <ele>215.74533</ele>
        <time>2023-11-26T15:11:49.000Z</time>
      </trkpt>
      <trkpt lat="45.85517" lon="4.67887">
        <ele>215.90312</ele>
        <time>2023-11-26T15:11:50.000Z</time>
      </trkpt>
      <trkpt lat="45.85517" lon="4.67892">
        <ele>215.9949</ele>
        <time>2023-11-26T15:11:51.000Z</time>
      </trkpt>
      <trkpt lat="45.85518" lon="4.67897">
        <ele>216.10918</ele>
        <time>2023-11-26T15:11:52.000Z</time>
      </trkpt>
      <trkpt lat="45.85519" lon="4.67901">
        <ele>216.19356</ele>
        <time>2023-11-26T15:11:53.000Z</time>
      </trkpt>
      <trkpt lat="45.85519" lon="4.67906">
        <ele>216.20935</ele>
        <time>2023-11-26T15:11:54.000Z</time>
      </trkpt>
      <trkpt lat="45.8552" lon="4.6791">
        <ele>216.19644</ele>
        <time>2023-11-26T15:11:55.000Z</time>
      </trkpt>
      <trkpt lat="45.85522" lon="4.67914">
        <ele>216.17827</ele>
        <time>2023-11-26T15:11:56.000Z</time>
      </trkpt>
      <trkpt lat="45.85523" lon="4.67917">
        <ele>216.12947</ele>
        <time>2023-11-26T15:11:57.000Z</time>
      </trkpt>
      <trkpt lat="45.85525" lon="4.67921">
        <ele>216.0667</ele>
        <time>2023-11-26T15:11:58.000Z</time>
      </trkpt>
      <trkpt lat="45.85526" lon="4.67924">
        <ele>215.99753</ele>
        <time>2023-11-26T15:11:59.000Z</time>
      </trkpt>
      <trkpt lat="45.85527" lon="4.67928">
        <ele>215.90959</ele>
        <time>2023-11-26T15:12:00.000Z</time>
      </trkpt>
      <trkpt lat="45.85528" lon="4.67931">
        <ele>215.82849</ele>
        <time>2023-11-26T15:12:01.000Z</time>
      </trkpt>
      <trkpt lat="45.8553" lon="4.67935">
        <ele>215.76993</ele>
        <time>2023-11-26T15:12:02.000Z</time>
      </trkpt>
      <trkpt lat="45.85531" lon="4.67938">
        <ele>215.72041</ele>
        <time>2023-11-26T15:12:03.000Z</time>
      </trkpt>
      <trkpt lat="45.85533" lon="4.67942">
        <ele>215.65112</ele>
        <time>2023-11-26T15:12:04.000Z</time>
      </trkpt>
      <trkpt lat="45.85534" lon="4.67945">
        <ele>215.58012</ele>
        <time>2023-11-26T15:12:05.000Z</time>
      </trkpt>
      <trkpt lat="45.85535" lon="4.67948">
        <ele>215.38432</ele>
        <time>2023-11-26T15:12:06.000Z</time>
      </trkpt>
      <trkpt lat="45.85536" lon="4.6795">
        <ele>215.2122</ele>
        <time>2023-11-26T15:12:07.000Z</time>
      </trkpt>
      <trkpt lat="45.85537" lon="4.67954">
        <ele>215.02812</ele>
        <time>2023-11-26T15:12:09.000Z</time>
      </trkpt>
      <trkpt lat="45.85539" lon="4.67958">
        <ele>215.20825</ele>
        <time>2023-11-26T15:12:11.000Z</time>
      </trkpt>
      <trkpt lat="45.8554" lon="4.67963">
        <ele>215.05672</ele>
        <time>2023-11-26T15:12:13.000Z</time>
      </trkpt>
      <trkpt lat="45.85541" lon="4.67966">
        <ele>214.99109</ele>
        <time>2023-11-26T15:12:14.000Z</time>
      </trkpt>
      <trkpt lat="45.85542" lon="4.6797">
        <ele>214.89156</ele>
        <time>2023-11-26T15:12:15.000Z</time>
      </trkpt>
      <trkpt lat="45.85543" lon="4.67976">
        <ele>214.80278</ele>
        <time>2023-11-26T15:12:16.000Z</time>
      </trkpt>
      <trkpt lat="45.85544" lon="4.67982">
        <ele>214.72351</ele>
        <time>2023-11-26T15:12:17.000Z</time>
      </trkpt>
      <trkpt lat="45.85544" lon="4.67988">
        <ele>214.65862</ele>
        <time>2023-11-26T15:12:18.000Z</time>
      </trkpt>
      <trkpt lat="45.85546" lon="4.67995">
        <ele>214.62601</ele>
        <time>2023-11-26T15:12:19.000Z</time>
      </trkpt>
      <trkpt lat="45.85546" lon="4.68001">
        <ele>214.65335</ele>
        <time>2023-11-26T15:12:20.000Z</time>
      </trkpt>
      <trkpt lat="45.85546" lon="4.68008">
        <ele>214.60188</ele>
        <time>2023-11-26T15:12:21.000Z</time>
      </trkpt>
      <trkpt lat="45.85546" lon="4.68017">
        <ele>214.60159</ele>
        <time>2023-11-26T15:12:22.000Z</time>
      </trkpt>
      <trkpt lat="45.85549" lon="4.68023">
        <ele>214.47453</ele>
        <time>2023-11-26T15:12:23.000Z</time>
      </trkpt>
      <trkpt lat="45.85551" lon="4.68031">
        <ele>214.30318</ele>
        <time>2023-11-26T15:12:24.000Z</time>
      </trkpt>
      <trkpt lat="45.85553" lon="4.68038">
        <ele>214.12813</ele>
        <time>2023-11-26T15:12:25.000Z</time>
      </trkpt>
      <trkpt lat="45.85556" lon="4.68045">
        <ele>214.08504</ele>
        <time>2023-11-26T15:12:26.000Z</time>
      </trkpt>
      <trkpt lat="45.85558" lon="4.6805">
        <ele>214.12082</ele>
        <time>2023-11-26T15:12:27.000Z</time>
      </trkpt>
      <trkpt lat="45.85561" lon="4.68057">
        <ele>214.15154</ele>
        <time>2023-11-26T15:12:28.000Z</time>
      </trkpt>
      <trkpt lat="45.85564" lon="4.68063">
        <ele>213.82332</ele>
        <time>2023-11-26T15:12:29.000Z</time>
      </trkpt>
      <trkpt lat="45.85566" lon="4.68069">
        <ele>213.44246</ele>
        <time>2023-11-26T15:12:30.000Z</time>
      </trkpt>
      <trkpt lat="45.85568" lon="4.68074">
        <ele>213.0809</ele>
        <time>2023-11-26T15:12:31.000Z</time>
      </trkpt>
      <trkpt lat="45.85571" lon="4.68081">
        <ele>212.75974</ele>
        <time>2023-11-26T15:12:32.000Z</time>
      </trkpt>
      <trkpt lat="45.85573" lon="4.68086">
        <ele>212.88669</ele>
        <time>2023-11-26T15:12:33.000Z</time>
      </trkpt>
      <trkpt lat="45.85574" lon="4.68092">
        <ele>212.63306</ele>
        <time>2023-11-26T15:12:34.000Z</time>
      </trkpt>
      <trkpt lat="45.85575" lon="4.68098">
        <ele>212.48499</ele>
        <time>2023-11-26T15:12:35.000Z</time>
      </trkpt>
      <trkpt lat="45.85578" lon="4.68103">
        <ele>212.36588</ele>
        <time>2023-11-26T15:12:36.000Z</time>
      </trkpt>
      <trkpt lat="45.8558" lon="4.68109">
        <ele>212.25362</ele>
        <time>2023-11-26T15:12:37.000Z</time>
      </trkpt>
      <trkpt lat="45.85581" lon="4.68115">
        <ele>212.13493</ele>
        <time>2023-11-26T15:12:38.000Z</time>
      </trkpt>
      <trkpt lat="45.85584" lon="4.6812">
        <ele>212.04102</ele>
        <time>2023-11-26T15:12:39.000Z</time>
      </trkpt>
      <trkpt lat="45.85586" lon="4.68126">
        <ele>211.91336</ele>
        <time>2023-11-26T15:12:40.000Z</time>
      </trkpt>
      <trkpt lat="45.85588" lon="4.68131">
        <ele>211.77652</ele>
        <time>2023-11-26T15:12:41.000Z</time>
      </trkpt>
      <trkpt lat="45.85591" lon="4.68135">
        <ele>211.59811</ele>
        <time>2023-11-26T15:12:42.000Z</time>
      </trkpt>
      <trkpt lat="45.85595" lon="4.6814">
        <ele>211.56686</ele>
        <time>2023-11-26T15:12:43.000Z</time>
      </trkpt>
      <trkpt lat="45.85599" lon="4.68144">
        <ele>211.54141</ele>
        <time>2023-11-26T15:12:44.000Z</time>
      </trkpt>
      <trkpt lat="45.85602" lon="4.68148">
        <ele>211.52112</ele>
        <time>2023-11-26T15:12:45.000Z</time>
      </trkpt>
      <trkpt lat="45.85604" lon="4.68154">
        <ele>211.31137</ele>
        <time>2023-11-26T15:12:46.000Z</time>
      </trkpt>
      <trkpt lat="45.85607" lon="4.68159">
        <ele>211.17276</ele>
        <time>2023-11-26T15:12:47.000Z</time>
      </trkpt>
      <trkpt lat="45.8561" lon="4.68164">
        <ele>211.05827</ele>
        <time>2023-11-26T15:12:48.000Z</time>
      </trkpt>
      <trkpt lat="45.85614" lon="4.6817">
        <ele>211.30399</ele>
        <time>2023-11-26T15:12:49.000Z</time>
      </trkpt>
      <trkpt lat="45.85615" lon="4.68175">
        <ele>211.48703</ele>
        <time>2023-11-26T15:12:50.000Z</time>
      </trkpt>
      <trkpt lat="45.85618" lon="4.68181">
        <ele>211.79642</ele>
        <time>2023-11-26T15:12:51.000Z</time>
      </trkpt>
      <trkpt lat="45.85622" lon="4.68185">
        <ele>211.93814</ele>
        <time>2023-11-26T15:12:52.000Z</time>
      </trkpt>
      <trkpt lat="45.85624" lon="4.68192">
        <ele>211.59273</ele>
        <time>2023-11-26T15:12:53.000Z</time>
      </trkpt>
      <trkpt lat="45.85628" lon="4.68197">
        <ele>211.6335</ele>
        <time>2023-11-26T15:12:54.000Z</time>
      </trkpt>
      <trkpt lat="45.85631" lon="4.68202">
        <ele>211.62407</ele>
        <time>2023-11-26T15:12:55.000Z</time>
      </trkpt>
      <trkpt lat="45.85634" lon="4.68206">
        <ele>211.60905</ele>
        <time>2023-11-26T15:12:56.000Z</time>
      </trkpt>
      <trkpt lat="45.85637" lon="4.68211">
        <ele>211.61362</ele>
        <time>2023-11-26T15:12:57.000Z</time>
      </trkpt>
      <trkpt lat="45.85641" lon="4.68216">
        <ele>211.62869</ele>
        <time>2023-11-26T15:12:58.000Z</time>
      </trkpt>
      <trkpt lat="45.85644" lon="4.6822">
        <ele>211.62061</ele>
        <time>2023-11-26T15:12:59.000Z</time>
      </trkpt>
      <trkpt lat="45.85648" lon="4.68224">
        <ele>211.62326</ele>
        <time>2023-11-26T15:13:00.000Z</time>
      </trkpt>
      <trkpt lat="45.85651" lon="4.68229">
        <ele>211.651</ele>
        <time>2023-11-26T15:13:01.000Z</time>
      </trkpt>
      <trkpt lat="45.85655" lon="4.68234">
        <ele>211.85379</ele>
        <time>2023-11-26T15:13:02.000Z</time>
      </trkpt>
      <trkpt lat="45.85658" lon="4.68239">
        <ele>212.14229</ele>
        <time>2023-11-26T15:13:03.000Z</time>
      </trkpt>
      <trkpt lat="45.85661" lon="4.68243">
        <ele>212.09856</ele>
        <time>2023-11-26T15:13:04.000Z</time>
      </trkpt>
      <trkpt lat="45.85665" lon="4.68247">
        <ele>212.10258</ele>
        <time>2023-11-26T15:13:05.000Z</time>
      </trkpt>
      <trkpt lat="45.85669" lon="4.6825">
        <ele>212.17049</ele>
        <time>2023-11-26T15:13:06.000Z</time>
      </trkpt>
      <trkpt lat="45.85673" lon="4.68254">
        <ele>212.08611</ele>
        <time>2023-11-26T15:13:07.000Z</time>
      </trkpt>
      <trkpt lat="45.85677" lon="4.68257">
        <ele>211.99324</ele>
        <time>2023-11-26T15:13:08.000Z</time>
      </trkpt>
      <trkpt lat="45.85681" lon="4.6826">
        <ele>211.88293</ele>
        <time>2023-11-26T15:13:09.000Z</time>
      </trkpt>
      <trkpt lat="45.85685" lon="4.68264">
        <ele>211.73637</ele>
        <time>2023-11-26T15:13:10.000Z</time>
      </trkpt>
      <trkpt lat="45.85688" lon="4.68268">
        <ele>211.47762</ele>
        <time>2023-11-26T15:13:11.000Z</time>
      </trkpt>
      <trkpt lat="45.85691" lon="4.68273">
        <ele>211.24939</ele>
        <time>2023-11-26T15:13:12.000Z</time>
      </trkpt>
      <trkpt lat="45.85695" lon="4.68277">
        <ele>211.35617</ele>
        <time>2023-11-26T15:13:13.000Z</time>
      </trkpt>
      <trkpt lat="45.85698" lon="4.68283">
        <ele>211.41226</ele>
        <time>2023-11-26T15:13:14.000Z</time>
      </trkpt>
      <trkpt lat="45.85702" lon="4.68288">
        <ele>211.50298</ele>
        <time>2023-11-26T15:13:15.000Z</time>
      </trkpt>
      <trkpt lat="45.85706" lon="4.68292">
        <ele>211.5634</ele>
        <time>2023-11-26T15:13:16.000Z</time>
      </trkpt>
      <trkpt lat="45.85709" lon="4.68296">
        <ele>211.62776</ele>
        <time>2023-11-26T15:13:17.000Z</time>
      </trkpt>
      <trkpt lat="45.85712" lon="4.683">
        <ele>211.67</ele>
        <time>2023-11-26T15:13:18.000Z</time>
      </trkpt>
      <trkpt lat="45.85715" lon="4.68305">
        <ele>211.70293</ele>
        <time>2023-11-26T15:13:19.000Z</time>
      </trkpt>
      <trkpt lat="45.85718" lon="4.68309">
        <ele>211.71428</ele>
        <time>2023-11-26T15:13:20.000Z</time>
      </trkpt>
      <trkpt lat="45.85721" lon="4.68314">
        <ele>211.71945</ele>
        <time>2023-11-26T15:13:21.000Z</time>
      </trkpt>
      <trkpt lat="45.85724" lon="4.68318">
        <ele>211.52316</ele>
        <time>2023-11-26T15:13:22.000Z</time>
      </trkpt>
      <trkpt lat="45.85727" lon="4.68323">
        <ele>211.37952</ele>
        <time>2023-11-26T15:13:23.000Z</time>
      </trkpt>
      <trkpt lat="45.85729" lon="4.68328">
        <ele>211.60757</ele>
        <time>2023-11-26T15:13:24.000Z</time>
      </trkpt>
      <trkpt lat="45.85732" lon="4.68334">
        <ele>211.8896</ele>
        <time>2023-11-26T15:13:25.000Z</time>
      </trkpt>
      <trkpt lat="45.85734" lon="4.68339">
        <ele>211.76375</ele>
        <time>2023-11-26T15:13:26.000Z</time>
      </trkpt>
      <trkpt lat="45.85736" lon="4.68344">
        <ele>211.70708</ele>
        <time>2023-11-26T15:13:27.000Z</time>
      </trkpt>
      <trkpt lat="45.85738" lon="4.6835">
        <ele>211.6644</ele>
        <time>2023-11-26T15:13:28.000Z</time>
      </trkpt>
      <trkpt lat="45.8574" lon="4.68356">
        <ele>211.61848</ele>
        <time>2023-11-26T15:13:29.000Z</time>
      </trkpt>
      <trkpt lat="45.85742" lon="4.68362">
        <ele>211.58723</ele>
        <time>2023-11-26T15:13:30.000Z</time>
      </trkpt>
      <trkpt lat="45.85744" lon="4.68368">
        <ele>211.53979</ele>
        <time>2023-11-26T15:13:31.000Z</time>
      </trkpt>
      <trkpt lat="45.85746" lon="4.68374">
        <ele>211.47502</ele>
        <time>2023-11-26T15:13:32.000Z</time>
      </trkpt>
      <trkpt lat="45.85748" lon="4.68381">
        <ele>211.40474</ele>
        <time>2023-11-26T15:13:33.000Z</time>
      </trkpt>
      <trkpt lat="45.8575" lon="4.68386">
        <ele>211.32809</ele>
        <time>2023-11-26T15:13:34.000Z</time>
      </trkpt>
      <trkpt lat="45.85753" lon="4.68392">
        <ele>211.22652</ele>
        <time>2023-11-26T15:13:35.000Z</time>
      </trkpt>
      <trkpt lat="45.85755" lon="4.68397">
        <ele>211.1628</ele>
        <time>2023-11-26T15:13:36.000Z</time>
      </trkpt>
      <trkpt lat="45.85758" lon="4.68403">
        <ele>211.08151</ele>
        <time>2023-11-26T15:13:37.000Z</time>
      </trkpt>
      <trkpt lat="45.8576" lon="4.68409">
        <ele>211.01067</ele>
        <time>2023-11-26T15:13:38.000Z</time>
      </trkpt>
      <trkpt lat="45.85763" lon="4.68415">
        <ele>210.94052</ele>
        <time>2023-11-26T15:13:39.000Z</time>
      </trkpt>
      <trkpt lat="45.85765" lon="4.68421">
        <ele>210.86739</ele>
        <time>2023-11-26T15:13:40.000Z</time>
      </trkpt>
      <trkpt lat="45.85768" lon="4.68429">
        <ele>210.83395</ele>
        <time>2023-11-26T15:13:41.000Z</time>
      </trkpt>
      <trkpt lat="45.8577" lon="4.68435">
        <ele>210.83684</ele>
        <time>2023-11-26T15:13:42.000Z</time>
      </trkpt>
      <trkpt lat="45.85772" lon="4.68442">
        <ele>210.82523</ele>
        <time>2023-11-26T15:13:43.000Z</time>
      </trkpt>
      <trkpt lat="45.85773" lon="4.68449">
        <ele>210.78836</ele>
        <time>2023-11-26T15:13:44.000Z</time>
      </trkpt>
      <trkpt lat="45.85775" lon="4.68457">
        <ele>210.75342</ele>
        <time>2023-11-26T15:13:45.000Z</time>
      </trkpt>
      <trkpt lat="45.85777" lon="4.68464">
        <ele>210.776</ele>
        <time>2023-11-26T15:13:46.000Z</time>
      </trkpt>
      <trkpt lat="45.85778" lon="4.68471">
        <ele>210.76859</ele>
        <time>2023-11-26T15:13:47.000Z</time>
      </trkpt>
      <trkpt lat="45.8578" lon="4.68479">
        <ele>210.75728</ele>
        <time>2023-11-26T15:13:48.000Z</time>
      </trkpt>
      <trkpt lat="45.85781" lon="4.68486">
        <ele>210.76132</ele>
        <time>2023-11-26T15:13:49.000Z</time>
      </trkpt>
      <trkpt lat="45.85783" lon="4.68492">
        <ele>210.76053</ele>
        <time>2023-11-26T15:13:50.000Z</time>
      </trkpt>
      <trkpt lat="45.85784" lon="4.68498">
        <ele>210.79056</ele>
        <time>2023-11-26T15:13:51.000Z</time>
      </trkpt>
      <trkpt lat="45.85786" lon="4.68505">
        <ele>210.82759</ele>
        <time>2023-11-26T15:13:52.000Z</time>
      </trkpt>
      <trkpt lat="45.85787" lon="4.68512">
        <ele>210.89189</ele>
        <time>2023-11-26T15:13:53.000Z</time>
      </trkpt>
      <trkpt lat="45.85788" lon="4.68518">
        <ele>210.92049</ele>
        <time>2023-11-26T15:13:54.000Z</time>
      </trkpt>
      <trkpt lat="45.8579" lon="4.68525">
        <ele>210.96475</ele>
        <time>2023-11-26T15:13:55.000Z</time>
      </trkpt>
      <trkpt lat="45.85792" lon="4.68531">
        <ele>210.96829</ele>
        <time>2023-11-26T15:13:56.000Z</time>
      </trkpt>
      <trkpt lat="45.85794" lon="4.68538">
        <ele>210.9677</ele>
        <time>2023-11-26T15:13:57.000Z</time>
      </trkpt>
      <trkpt lat="45.85796" lon="4.68544">
        <ele>211.1333</ele>
        <time>2023-11-26T15:13:58.000Z</time>
      </trkpt>
      <trkpt lat="45.85798" lon="4.68551">
        <ele>211.41574</ele>
        <time>2023-11-26T15:13:59.000Z</time>
      </trkpt>
      <trkpt lat="45.85801" lon="4.68558">
        <ele>211.7103</ele>
        <time>2023-11-26T15:14:00.000Z</time>
      </trkpt>
      <trkpt lat="45.85804" lon="4.68565">
        <ele>211.66589</ele>
        <time>2023-11-26T15:14:01.000Z</time>
      </trkpt>
      <trkpt lat="45.85807" lon="4.68571">
        <ele>211.66743</ele>
        <time>2023-11-26T15:14:02.000Z</time>
      </trkpt>
      <trkpt lat="45.85809" lon="4.68579">
        <ele>211.51633</ele>
        <time>2023-11-26T15:14:03.000Z</time>
      </trkpt>
      <trkpt lat="45.85811" lon="4.68586">
        <ele>211.36179</ele>
        <time>2023-11-26T15:14:04.000Z</time>
      </trkpt>
      <trkpt lat="45.85813" lon="4.68593">
        <ele>211.10979</ele>
        <time>2023-11-26T15:14:05.000Z</time>
      </trkpt>
      <trkpt lat="45.85814" lon="4.686">
        <ele>211.16769</ele>
        <time>2023-11-26T15:14:06.000Z</time>
      </trkpt>
      <trkpt lat="45.85816" lon="4.68606">
        <ele>211.16057</ele>
        <time>2023-11-26T15:14:07.000Z</time>
      </trkpt>
      <trkpt lat="45.85816" lon="4.68614">
        <ele>211.13664</ele>
        <time>2023-11-26T15:14:08.000Z</time>
      </trkpt>
      <trkpt lat="45.85816" lon="4.6862">
        <ele>211.12646</ele>
        <time>2023-11-26T15:14:09.000Z</time>
      </trkpt>
      <trkpt lat="45.85814" lon="4.68626">
        <ele>211.12466</ele>
        <time>2023-11-26T15:14:10.000Z</time>
      </trkpt>
      <trkpt lat="45.85809" lon="4.68631">
        <ele>211.09708</ele>
        <time>2023-11-26T15:14:11.000Z</time>
      </trkpt>
      <trkpt lat="45.85806" lon="4.68635">
        <ele>211.05978</ele>
        <time>2023-11-26T15:14:12.000Z</time>
      </trkpt>
      <trkpt lat="45.85803" lon="4.6864">
        <ele>211.02487</ele>
        <time>2023-11-26T15:14:13.000Z</time>
      </trkpt>
      <trkpt lat="45.85801" lon="4.68642">
        <ele>211.07153</ele>
        <time>2023-11-26T15:14:14.000Z</time>
      </trkpt>
      <trkpt lat="45.85797" lon="4.68646">
        <ele>211.10205</ele>
        <time>2023-11-26T15:14:15.000Z</time>
      </trkpt>
      <trkpt lat="45.85794" lon="4.68649">
        <ele>211.18924</ele>
        <time>2023-11-26T15:14:16.000Z</time>
      </trkpt>
      <trkpt lat="45.8579" lon="4.68652">
        <ele>211.41858</ele>
        <time>2023-11-26T15:14:17.000Z</time>
      </trkpt>
      <trkpt lat="45.85788" lon="4.68654">
        <ele>211.50497</ele>
        <time>2023-11-26T15:14:18.000Z</time>
      </trkpt>
      <trkpt lat="45.85783" lon="4.6866">
        <ele>211.58061</ele>
        <time>2023-11-26T15:14:19.000Z</time>
      </trkpt>
      <trkpt lat="45.85777" lon="4.68664">
        <ele>211.66154</ele>
        <time>2023-11-26T15:14:20.000Z</time>
      </trkpt>
      <trkpt lat="45.85772" lon="4.68668">
        <ele>211.73959</ele>
        <time>2023-11-26T15:14:21.000Z</time>
      </trkpt>
      <trkpt lat="45.85766" lon="4.68673">
        <ele>211.84189</ele>
        <time>2023-11-26T15:14:22.000Z</time>
      </trkpt>
      <trkpt lat="45.8576" lon="4.68676">
        <ele>211.93306</ele>
        <time>2023-11-26T15:14:23.000Z</time>
      </trkpt>
      <trkpt lat="45.85755" lon="4.68679">
        <ele>212.05952</ele>
        <time>2023-11-26T15:14:24.000Z</time>
      </trkpt>
      <trkpt lat="45.85749" lon="4.68682">
        <ele>212.12798</ele>
        <time>2023-11-26T15:14:25.000Z</time>
      </trkpt>
      <trkpt lat="45.85745" lon="4.68685">
        <ele>212.23653</ele>
        <time>2023-11-26T15:14:26.000Z</time>
      </trkpt>
      <trkpt lat="45.8574" lon="4.68688">
        <ele>212.35367</ele>
        <time>2023-11-26T15:14:27.000Z</time>
      </trkpt>
      <trkpt lat="45.85734" lon="4.6869">
        <ele>212.44662</ele>
        <time>2023-11-26T15:14:28.000Z</time>
      </trkpt>
      <trkpt lat="45.85729" lon="4.68691">
        <ele>212.52742</ele>
        <time>2023-11-26T15:14:29.000Z</time>
      </trkpt>
      <trkpt lat="45.85723" lon="4.68691">
        <ele>212.57263</ele>
        <time>2023-11-26T15:14:30.000Z</time>
      </trkpt>
      <trkpt lat="45.85717" lon="4.68692">
        <ele>212.59421</ele>
        <time>2023-11-26T15:14:31.000Z</time>
      </trkpt>
      <trkpt lat="45.85712" lon="4.68694">
        <ele>212.61641</ele>
        <time>2023-11-26T15:14:32.000Z</time>
      </trkpt>
      <trkpt lat="45.85705" lon="4.68695">
        <ele>212.58667</ele>
        <time>2023-11-26T15:14:33.000Z</time>
      </trkpt>
      <trkpt lat="45.85699" lon="4.68698">
        <ele>212.49133</ele>
        <time>2023-11-26T15:14:34.000Z</time>
      </trkpt>
      <trkpt lat="45.85693" lon="4.687">
        <ele>212.39075</ele>
        <time>2023-11-26T15:14:35.000Z</time>
      </trkpt>
      <trkpt lat="45.85688" lon="4.68702">
        <ele>212.27315</ele>
        <time>2023-11-26T15:14:36.000Z</time>
      </trkpt>
      <trkpt lat="45.85683" lon="4.68703">
        <ele>212.03015</ele>
        <time>2023-11-26T15:14:37.000Z</time>
      </trkpt>
      <trkpt lat="45.85678" lon="4.68704">
        <ele>211.77304</ele>
        <time>2023-11-26T15:14:38.000Z</time>
      </trkpt>
      <trkpt lat="45.85673" lon="4.68705">
        <ele>211.4473</ele>
        <time>2023-11-26T15:14:39.000Z</time>
      </trkpt>
      <trkpt lat="45.85668" lon="4.68707">
        <ele>211.12556</ele>
        <time>2023-11-26T15:14:40.000Z</time>
      </trkpt>
      <trkpt lat="45.85663" lon="4.68708">
        <ele>211.12163</ele>
        <time>2023-11-26T15:14:41.000Z</time>
      </trkpt>
      <trkpt lat="45.85657" lon="4.68709">
        <ele>211.04243</ele>
        <time>2023-11-26T15:14:42.000Z</time>
      </trkpt>
      <trkpt lat="45.85652" lon="4.6871">
        <ele>210.9888</ele>
        <time>2023-11-26T15:14:43.000Z</time>
      </trkpt>
      <trkpt lat="45.85647" lon="4.68711">
        <ele>210.87495</ele>
        <time>2023-11-26T15:14:44.000Z</time>
      </trkpt>
      <trkpt lat="45.85642" lon="4.68712">
        <ele>210.79422</ele>
        <time>2023-11-26T15:14:45.000Z</time>
      </trkpt>
      <trkpt lat="45.85637" lon="4.68714">
        <ele>210.68538</ele>
        <time>2023-11-26T15:14:46.000Z</time>
      </trkpt>
      <trkpt lat="45.85632" lon="4.68716">
        <ele>210.73462</ele>
        <time>2023-11-26T15:14:47.000Z</time>
      </trkpt>
      <trkpt lat="45.85626" lon="4.68719">
        <ele>210.79951</ele>
        <time>2023-11-26T15:14:48.000Z</time>
      </trkpt>
      <trkpt lat="45.85622" lon="4.6872">
        <ele>210.8284</ele>
        <time>2023-11-26T15:14:49.000Z</time>
      </trkpt>
      <trkpt lat="45.85617" lon="4.68722">
        <ele>210.90532</ele>
        <time>2023-11-26T15:14:50.000Z</time>
      </trkpt>
      <trkpt lat="45.85612" lon="4.68723">
        <ele>211.1062</ele>
        <time>2023-11-26T15:14:51.000Z</time>
      </trkpt>
      <trkpt lat="45.85607" lon="4.68726">
        <ele>211.32585</ele>
        <time>2023-11-26T15:14:52.000Z</time>
      </trkpt>
      <trkpt lat="45.85602" lon="4.68728">
        <ele>211.224</ele>
        <time>2023-11-26T15:14:53.000Z</time>
      </trkpt>
      <trkpt lat="45.85598" lon="4.68731">
        <ele>211.21758</ele>
        <time>2023-11-26T15:14:54.000Z</time>
      </trkpt>
      <trkpt lat="45.85593" lon="4.68734">
        <ele>211.20825</ele>
        <time>2023-11-26T15:14:55.000Z</time>
      </trkpt>
      <trkpt lat="45.85589" lon="4.68737">
        <ele>211.1752</ele>
        <time>2023-11-26T15:14:56.000Z</time>
      </trkpt>
      <trkpt lat="45.85585" lon="4.68739">
        <ele>211.15181</ele>
        <time>2023-11-26T15:14:57.000Z</time>
      </trkpt>
      <trkpt lat="45.85582" lon="4.68739">
        <ele>211.15805</ele>
        <time>2023-11-26T15:14:58.000Z</time>
      </trkpt>
      <trkpt lat="45.85579" lon="4.68741">
        <ele>211.15762</ele>
        <time>2023-11-26T15:14:59.000Z</time>
      </trkpt>
      <trkpt lat="45.85576" lon="4.6874">
        <ele>211.15881</ele>
        <time>2023-11-26T15:15:00.000Z</time>
      </trkpt>
      <trkpt lat="45.85573" lon="4.68741">
        <ele>211.19646</ele>
        <time>2023-11-26T15:15:01.000Z</time>
      </trkpt>
      <trkpt lat="45.8557" lon="4.68742">
        <ele>211.23735</ele>
        <time>2023-11-26T15:15:02.000Z</time>
      </trkpt>
      <trkpt lat="45.85568" lon="4.68742">
        <ele>211.27254</ele>
        <time>2023-11-26T15:15:03.000Z</time>
      </trkpt>
      <trkpt lat="45.85565" lon="4.68742">
        <ele>211.35835</ele>
        <time>2023-11-26T15:15:04.000Z</time>
      </trkpt>
      <trkpt lat="45.85563" lon="4.68743">
        <ele>211.40149</ele>
        <time>2023-11-26T15:15:05.000Z</time>
      </trkpt>
      <trkpt lat="45.8556" lon="4.68744">
        <ele>211.21805</ele>
        <time>2023-11-26T15:15:06.000Z</time>
      </trkpt>
      <trkpt lat="45.85558" lon="4.68744">
        <ele>210.88525</ele>
        <time>2023-11-26T15:15:07.000Z</time>
      </trkpt>
      <trkpt lat="45.85556" lon="4.68745">
        <ele>210.60657</ele>
        <time>2023-11-26T15:15:08.000Z</time>
      </trkpt>
      <trkpt lat="45.85553" lon="4.68747">
        <ele>210.28694</ele>
        <time>2023-11-26T15:15:09.000Z</time>
      </trkpt>
      <trkpt lat="45.85549" lon="4.68748">
        <ele>209.93948</ele>
        <time>2023-11-26T15:15:10.000Z</time>
      </trkpt>
      <trkpt lat="45.85545" lon="4.6875">
        <ele>210.00981</ele>
        <time>2023-11-26T15:15:11.000Z</time>
      </trkpt>
      <trkpt lat="45.85541" lon="4.68751">
        <ele>209.7719</ele>
        <time>2023-11-26T15:15:12.000Z</time>
      </trkpt>
      <trkpt lat="45.85536" lon="4.68752">
        <ele>209.90959</ele>
        <time>2023-11-26T15:15:13.000Z</time>
      </trkpt>
      <trkpt lat="45.85533" lon="4.68753">
        <ele>209.98528</ele>
        <time>2023-11-26T15:15:14.000Z</time>
      </trkpt>
      <trkpt lat="45.85529" lon="4.68754">
        <ele>210.04353</ele>
        <time>2023-11-26T15:15:15.000Z</time>
      </trkpt>
      <trkpt lat="45.85525" lon="4.68755">
        <ele>210.10225</ele>
        <time>2023-11-26T15:15:16.000Z</time>
      </trkpt>
      <trkpt lat="45.8552" lon="4.68758">
        <ele>210.17729</ele>
        <time>2023-11-26T15:15:17.000Z</time>
      </trkpt>
      <trkpt lat="45.85515" lon="4.68758">
        <ele>210.38042</ele>
        <time>2023-11-26T15:15:18.000Z</time>
      </trkpt>
      <trkpt lat="45.85511" lon="4.68759">
        <ele>210.67488</ele>
        <time>2023-11-26T15:15:19.000Z</time>
      </trkpt>
      <trkpt lat="45.85508" lon="4.68762">
        <ele>210.95163</ele>
        <time>2023-11-26T15:15:20.000Z</time>
      </trkpt>
      <trkpt lat="45.85505" lon="4.68767">
        <ele>210.89511</ele>
        <time>2023-11-26T15:15:21.000Z</time>
      </trkpt>
      <trkpt lat="45.85503" lon="4.68771">
        <ele>210.94907</ele>
        <time>2023-11-26T15:15:22.000Z</time>
      </trkpt>
      <trkpt lat="45.85502" lon="4.68776">
        <ele>211.00606</ele>
        <time>2023-11-26T15:15:23.000Z</time>
      </trkpt>
      <trkpt lat="45.85503" lon="4.68781">
        <ele>211.11069</ele>
        <time>2023-11-26T15:15:24.000Z</time>
      </trkpt>
      <trkpt lat="45.85503" lon="4.68787">
        <ele>211.36978</ele>
        <time>2023-11-26T15:15:25.000Z</time>
      </trkpt>
      <trkpt lat="45.85502" lon="4.68793">
        <ele>211.94357</ele>
        <time>2023-11-26T15:15:26.000Z</time>
      </trkpt>
      <trkpt lat="45.85504" lon="4.68797">
        <ele>212.67142</ele>
        <time>2023-11-26T15:15:27.000Z</time>
      </trkpt>
      <trkpt lat="45.85505" lon="4.68805">
        <ele>213.37675</ele>
        <time>2023-11-26T15:15:28.000Z</time>
      </trkpt>
      <trkpt lat="45.85506" lon="4.6881">
        <ele>214.13766</ele>
        <time>2023-11-26T15:15:29.000Z</time>
      </trkpt>
      <trkpt lat="45.85508" lon="4.68816">
        <ele>214.85799</ele>
        <time>2023-11-26T15:15:30.000Z</time>
      </trkpt>
      <trkpt lat="45.85508" lon="4.68822">
        <ele>214.98276</ele>
        <time>2023-11-26T15:15:31.000Z</time>
      </trkpt>
      <trkpt lat="45.85507" lon="4.68827">
        <ele>215.41141</ele>
        <time>2023-11-26T15:15:32.000Z</time>
      </trkpt>
      <trkpt lat="45.85504" lon="4.68832">
        <ele>215.84033</ele>
        <time>2023-11-26T15:15:33.000Z</time>
      </trkpt>
      <trkpt lat="45.85497" lon="4.68834">
        <ele>216.17941</ele>
        <time>2023-11-26T15:15:34.000Z</time>
      </trkpt>
      <trkpt lat="45.85493" lon="4.68836">
        <ele>216.48125</ele>
        <time>2023-11-26T15:15:35.000Z</time>
      </trkpt>
      <trkpt lat="45.85487" lon="4.68837">
        <ele>216.74179</ele>
        <time>2023-11-26T15:15:36.000Z</time>
      </trkpt>
      <trkpt lat="45.85483" lon="4.68839">
        <ele>216.94585</ele>
        <time>2023-11-26T15:15:37.000Z</time>
      </trkpt>
      <trkpt lat="45.85481" lon="4.68841">
        <ele>216.90768</ele>
        <time>2023-11-26T15:15:38.000Z</time>
      </trkpt>
      <trkpt lat="45.85478" lon="4.6884">
        <ele>216.77335</ele>
        <time>2023-11-26T15:15:39.000Z</time>
      </trkpt>
      <trkpt lat="45.85475" lon="4.68841">
        <ele>216.66231</ele>
        <time>2023-11-26T15:15:40.000Z</time>
      </trkpt>
      <trkpt lat="45.85472" lon="4.68842">
        <ele>216.92786</ele>
        <time>2023-11-26T15:15:41.000Z</time>
      </trkpt>
      <trkpt lat="45.85469" lon="4.68842">
        <ele>217.02957</ele>
        <time>2023-11-26T15:15:42.000Z</time>
      </trkpt>
      <trkpt lat="45.85466" lon="4.6884">
        <ele>217.32356</ele>
        <time>2023-11-26T15:15:43.000Z</time>
      </trkpt>
      <trkpt lat="45.85452" lon="4.68844">
        <ele>217.53256</ele>
        <time>2023-11-26T15:15:44.000Z</time>
      </trkpt>
      <trkpt lat="45.85445" lon="4.68846">
        <ele>217.48506</ele>
        <time>2023-11-26T15:15:45.000Z</time>
      </trkpt>
      <trkpt lat="45.8544" lon="4.68847">
        <ele>217.28995</ele>
        <time>2023-11-26T15:15:46.000Z</time>
      </trkpt>
      <trkpt lat="45.85436" lon="4.68847">
        <ele>216.90323</ele>
        <time>2023-11-26T15:15:47.000Z</time>
      </trkpt>
      <trkpt lat="45.85432" lon="4.68845">
        <ele>216.49341</ele>
        <time>2023-11-26T15:15:48.000Z</time>
      </trkpt>
      <trkpt lat="45.85428" lon="4.68844">
        <ele>216.08542</ele>
        <time>2023-11-26T15:15:49.000Z</time>
      </trkpt>
      <trkpt lat="45.85424" lon="4.68843">
        <ele>215.72041</ele>
        <time>2023-11-26T15:15:50.000Z</time>
      </trkpt>
      <trkpt lat="45.85419" lon="4.68842">
        <ele>215.58777</ele>
        <time>2023-11-26T15:15:51.000Z</time>
      </trkpt>
      <trkpt lat="45.85416" lon="4.68841">
        <ele>215.05859</ele>
        <time>2023-11-26T15:15:52.000Z</time>
      </trkpt>
      <trkpt lat="45.85416" lon="4.68838">
        <ele>214.5726</ele>
        <time>2023-11-26T15:15:53.000Z</time>
      </trkpt>
      <trkpt lat="45.85413" lon="4.68839">
        <ele>214.18286</ele>
        <time>2023-11-26T15:15:54.000Z</time>
      </trkpt>
      <trkpt lat="45.85409" lon="4.68839">
        <ele>213.87187</ele>
        <time>2023-11-26T15:15:55.000Z</time>
      </trkpt>
      <trkpt lat="45.85407" lon="4.68843">
        <ele>213.75468</ele>
        <time>2023-11-26T15:15:56.000Z</time>
      </trkpt>
      <trkpt lat="45.85404" lon="4.68849">
        <ele>213.72791</ele>
        <time>2023-11-26T15:15:57.000Z</time>
      </trkpt>
      <trkpt lat="45.85403" lon="4.68854">
        <ele>213.4473</ele>
        <time>2023-11-26T15:15:58.000Z</time>
      </trkpt>
      <trkpt lat="45.85401" lon="4.6886">
        <ele>213.19247</ele>
        <time>2023-11-26T15:15:59.000Z</time>
      </trkpt>
      <trkpt lat="45.85399" lon="4.68866">
        <ele>212.92789</ele>
        <time>2023-11-26T15:16:00.000Z</time>
      </trkpt>
      <trkpt lat="45.85397" lon="4.68872">
        <ele>212.60242</ele>
        <time>2023-11-26T15:16:01.000Z</time>
      </trkpt>
      <trkpt lat="45.85395" lon="4.68878">
        <ele>212.32198</ele>
        <time>2023-11-26T15:16:02.000Z</time>
      </trkpt>
      <trkpt lat="45.85393" lon="4.68883">
        <ele>211.82759</ele>
        <time>2023-11-26T15:16:03.000Z</time>
      </trkpt>
      <trkpt lat="45.85391" lon="4.68889">
        <ele>211.35733</ele>
        <time>2023-11-26T15:16:04.000Z</time>
      </trkpt>
      <trkpt lat="45.85388" lon="4.68894">
        <ele>211.03708</ele>
        <time>2023-11-26T15:16:05.000Z</time>
      </trkpt>
      <trkpt lat="45.85387" lon="4.689">
        <ele>210.79968</ele>
        <time>2023-11-26T15:16:06.000Z</time>
      </trkpt>
      <trkpt lat="45.85386" lon="4.68907">
        <ele>210.61572</ele>
        <time>2023-11-26T15:16:07.000Z</time>
      </trkpt>
      <trkpt lat="45.85384" lon="4.68912">
        <ele>210.43982</ele>
        <time>2023-11-26T15:16:08.000Z</time>
      </trkpt>
      <trkpt lat="45.85383" lon="4.68918">
        <ele>210.2999</ele>
        <time>2023-11-26T15:16:09.000Z</time>
      </trkpt>
      <trkpt lat="45.85381" lon="4.68925">
        <ele>210.17839</ele>
        <time>2023-11-26T15:16:10.000Z</time>
      </trkpt>
      <trkpt lat="45.85379" lon="4.68932">
        <ele>209.8886</ele>
        <time>2023-11-26T15:16:11.000Z</time>
      </trkpt>
      <trkpt lat="45.85376" lon="4.68937">
        <ele>209.9711</ele>
        <time>2023-11-26T15:16:12.000Z</time>
      </trkpt>
      <trkpt lat="45.85374" lon="4.68942">
        <ele>210.00974</ele>
        <time>2023-11-26T15:16:13.000Z</time>
      </trkpt>
      <trkpt lat="45.85371" lon="4.68948">
        <ele>210.04839</ele>
        <time>2023-11-26T15:16:14.000Z</time>
      </trkpt>
      <trkpt lat="45.85369" lon="4.68953">
        <ele>210.07207</ele>
        <time>2023-11-26T15:16:15.000Z</time>
      </trkpt>
      <trkpt lat="45.85366" lon="4.68959">
        <ele>209.92134</ele>
        <time>2023-11-26T15:16:16.000Z</time>
      </trkpt>
      <trkpt lat="45.85364" lon="4.68964">
        <ele>209.69922</ele>
        <time>2023-11-26T15:16:17.000Z</time>
      </trkpt>
      <trkpt lat="45.85361" lon="4.68971">
        <ele>209.84317</ele>
        <time>2023-11-26T15:16:18.000Z</time>
      </trkpt>
      <trkpt lat="45.85359" lon="4.68976">
        <ele>209.93771</ele>
        <time>2023-11-26T15:16:19.000Z</time>
      </trkpt>
      <trkpt lat="45.85356" lon="4.68982">
        <ele>210.01639</ele>
        <time>2023-11-26T15:16:20.000Z</time>
      </trkpt>
      <trkpt lat="45.85353" lon="4.68987">
        <ele>210.20596</ele>
        <time>2023-11-26T15:16:21.000Z</time>
      </trkpt>
      <trkpt lat="45.85351" lon="4.68993">
        <ele>210.43869</ele>
        <time>2023-11-26T15:16:22.000Z</time>
      </trkpt>
      <trkpt lat="45.85348" lon="4.68997">
        <ele>210.79431</ele>
        <time>2023-11-26T15:16:23.000Z</time>
      </trkpt>
      <trkpt lat="45.85344" lon="4.69003">
        <ele>211.14816</ele>
        <time>2023-11-26T15:16:24.000Z</time>
      </trkpt>
      <trkpt lat="45.85341" lon="4.69009">
        <ele>211.15793</ele>
        <time>2023-11-26T15:16:25.000Z</time>
      </trkpt>
      <trkpt lat="45.85339" lon="4.69014">
        <ele>211.25696</ele>
        <time>2023-11-26T15:16:26.000Z</time>
      </trkpt>
      <trkpt lat="45.85336" lon="4.6902">
        <ele>211.33145</ele>
        <time>2023-11-26T15:16:27.000Z</time>
      </trkpt>
      <trkpt lat="45.85333" lon="4.69025">
        <ele>211.38095</ele>
        <time>2023-11-26T15:16:28.000Z</time>
      </trkpt>
      <trkpt lat="45.8533" lon="4.6903">
        <ele>211.39493</ele>
        <time>2023-11-26T15:16:29.000Z</time>
      </trkpt>
      <trkpt lat="45.85327" lon="4.69036">
        <ele>211.44214</ele>
        <time>2023-11-26T15:16:30.000Z</time>
      </trkpt>
      <trkpt lat="45.85324" lon="4.69041">
        <ele>211.50076</ele>
        <time>2023-11-26T15:16:31.000Z</time>
      </trkpt>
      <trkpt lat="45.85322" lon="4.69046">
        <ele>211.57898</ele>
        <time>2023-11-26T15:16:32.000Z</time>
      </trkpt>
      <trkpt lat="45.8532" lon="4.69052">
        <ele>211.91739</ele>
        <time>2023-11-26T15:16:33.000Z</time>
      </trkpt>
      <trkpt lat="45.85317" lon="4.69057">
        <ele>211.703</ele>
        <time>2023-11-26T15:16:34.000Z</time>
      </trkpt>
      <trkpt lat="45.85314" lon="4.69062">
        <ele>211.54703</ele>
        <time>2023-11-26T15:16:35.000Z</time>
      </trkpt>
      <trkpt lat="45.85312" lon="4.69066">
        <ele>211.34148</ele>
        <time>2023-11-26T15:16:36.000Z</time>
      </trkpt>
      <trkpt lat="45.85309" lon="4.69072">
        <ele>211.16629</ele>
        <time>2023-11-26T15:16:37.000Z</time>
      </trkpt>
      <trkpt lat="45.85305" lon="4.69077">
        <ele>210.94194</ele>
        <time>2023-11-26T15:16:38.000Z</time>
      </trkpt>
      <trkpt lat="45.85302" lon="4.69082">
        <ele>210.74954</ele>
        <time>2023-11-26T15:16:39.000Z</time>
      </trkpt>
      <trkpt lat="45.85299" lon="4.69087">
        <ele>210.55399</ele>
        <time>2023-11-26T15:16:40.000Z</time>
      </trkpt>
      <trkpt lat="45.85296" lon="4.69093">
        <ele>210.25639</ele>
        <time>2023-11-26T15:16:41.000Z</time>
      </trkpt>
      <trkpt lat="45.85293" lon="4.69097">
        <ele>209.9519</ele>
        <time>2023-11-26T15:16:42.000Z</time>
      </trkpt>
      <trkpt lat="45.85289" lon="4.69103">
        <ele>209.49826</ele>
        <time>2023-11-26T15:16:43.000Z</time>
      </trkpt>
      <trkpt lat="45.85286" lon="4.69108">
        <ele>209.04736</ele>
        <time>2023-11-26T15:16:44.000Z</time>
      </trkpt>
      <trkpt lat="45.85284" lon="4.69113">
        <ele>208.98479</ele>
        <time>2023-11-26T15:16:45.000Z</time>
      </trkpt>
      <trkpt lat="45.85281" lon="4.69119">
        <ele>208.72798</ele>
        <time>2023-11-26T15:16:46.000Z</time>
      </trkpt>
      <trkpt lat="45.85278" lon="4.69124">
        <ele>208.49626</ele>
        <time>2023-11-26T15:16:47.000Z</time>
      </trkpt>
      <trkpt lat="45.85274" lon="4.69129">
        <ele>208.26656</ele>
        <time>2023-11-26T15:16:48.000Z</time>
      </trkpt>
      <trkpt lat="45.8527" lon="4.69135">
        <ele>208.01547</ele>
        <time>2023-11-26T15:16:49.000Z</time>
      </trkpt>
      <trkpt lat="45.85267" lon="4.69139">
        <ele>207.74796</ele>
        <time>2023-11-26T15:16:50.000Z</time>
      </trkpt>
      <trkpt lat="45.85264" lon="4.69144">
        <ele>207.49821</ele>
        <time>2023-11-26T15:16:51.000Z</time>
      </trkpt>
      <trkpt lat="45.8526" lon="4.6915">
        <ele>207.22806</ele>
        <time>2023-11-26T15:16:52.000Z</time>
      </trkpt>
      <trkpt lat="45.85257" lon="4.69155">
        <ele>206.72763</ele>
        <time>2023-11-26T15:16:53.000Z</time>
      </trkpt>
      <trkpt lat="45.85253" lon="4.69161">
        <ele>206.75912</ele>
        <time>2023-11-26T15:16:54.000Z</time>
      </trkpt>
      <trkpt lat="45.8525" lon="4.69165">
        <ele>206.74118</ele>
        <time>2023-11-26T15:16:55.000Z</time>
      </trkpt>
      <trkpt lat="45.85246" lon="4.69169">
        <ele>206.77725</ele>
        <time>2023-11-26T15:16:56.000Z</time>
      </trkpt>
      <trkpt lat="45.85242" lon="4.69172">
        <ele>206.78609</ele>
        <time>2023-11-26T15:16:57.000Z</time>
      </trkpt>
      <trkpt lat="45.85237" lon="4.69175">
        <ele>206.79456</ele>
        <time>2023-11-26T15:16:58.000Z</time>
      </trkpt>
      <trkpt lat="45.85232" lon="4.69177">
        <ele>206.76645</ele>
        <time>2023-11-26T15:16:59.000Z</time>
      </trkpt>
      <trkpt lat="45.85228" lon="4.69179">
        <ele>206.7686</ele>
        <time>2023-11-26T15:17:00.000Z</time>
      </trkpt>
      <trkpt lat="45.85224" lon="4.6918">
        <ele>206.81741</ele>
        <time>2023-11-26T15:17:01.000Z</time>
      </trkpt>
      <trkpt lat="45.85219" lon="4.69181">
        <ele>206.86386</ele>
        <time>2023-11-26T15:17:02.000Z</time>
      </trkpt>
      <trkpt lat="45.85214" lon="4.69183">
        <ele>206.86121</ele>
        <time>2023-11-26T15:17:03.000Z</time>
      </trkpt>
      <trkpt lat="45.8521" lon="4.69185">
        <ele>206.86099</ele>
        <time>2023-11-26T15:17:04.000Z</time>
      </trkpt>
      <trkpt lat="45.85205" lon="4.69186">
        <ele>206.82053</ele>
        <time>2023-11-26T15:17:05.000Z</time>
      </trkpt>
      <trkpt lat="45.85201" lon="4.69187">
        <ele>206.85481</ele>
        <time>2023-11-26T15:17:06.000Z</time>
      </trkpt>
      <trkpt lat="45.85196" lon="4.69188">
        <ele>206.90182</ele>
        <time>2023-11-26T15:17:07.000Z</time>
      </trkpt>
      <trkpt lat="45.85192" lon="4.6919">
        <ele>206.99207</ele>
        <time>2023-11-26T15:17:08.000Z</time>
      </trkpt>
      <trkpt lat="45.85187" lon="4.69192">
        <ele>207.11653</ele>
        <time>2023-11-26T15:17:09.000Z</time>
      </trkpt>
      <trkpt lat="45.85182" lon="4.69193">
        <ele>207.23628</ele>
        <time>2023-11-26T15:17:10.000Z</time>
      </trkpt>
      <trkpt lat="45.85178" lon="4.69197">
        <ele>207.35657</ele>
        <time>2023-11-26T15:17:11.000Z</time>
      </trkpt>
      <trkpt lat="45.85176" lon="4.69202">
        <ele>207.48857</ele>
        <time>2023-11-26T15:17:12.000Z</time>
      </trkpt>
      <trkpt lat="45.85176" lon="4.69208">
        <ele>207.57584</ele>
        <time>2023-11-26T15:17:13.000Z</time>
      </trkpt>
      <trkpt lat="45.85176" lon="4.69215">
        <ele>207.6739</ele>
        <time>2023-11-26T15:17:14.000Z</time>
      </trkpt>
      <trkpt lat="45.85177" lon="4.69221">
        <ele>207.77078</ele>
        <time>2023-11-26T15:17:15.000Z</time>
      </trkpt>
      <trkpt lat="45.85177" lon="4.69227">
        <ele>207.84824</ele>
        <time>2023-11-26T15:17:16.000Z</time>
      </trkpt>
      <trkpt lat="45.85177" lon="4.69233">
        <ele>207.90732</ele>
        <time>2023-11-26T15:17:17.000Z</time>
      </trkpt>
      <trkpt lat="45.85176" lon="4.6924">
        <ele>207.96883</ele>
        <time>2023-11-26T15:17:18.000Z</time>
      </trkpt>
      <trkpt lat="45.85176" lon="4.69247">
        <ele>208.047</ele>
        <time>2023-11-26T15:17:19.000Z</time>
      </trkpt>
      <trkpt lat="45.85177" lon="4.69255">
        <ele>208.09769</ele>
        <time>2023-11-26T15:17:20.000Z</time>
      </trkpt>
      <trkpt lat="45.85178" lon="4.69261">
        <ele>208.11377</ele>
        <time>2023-11-26T15:17:21.000Z</time>
      </trkpt>
      <trkpt lat="45.85179" lon="4.69269">
        <ele>208.08679</ele>
        <time>2023-11-26T15:17:22.000Z</time>
      </trkpt>
      <trkpt lat="45.85179" lon="4.69276">
        <ele>208.13692</ele>
        <time>2023-11-26T15:17:23.000Z</time>
      </trkpt>
      <trkpt lat="45.85179" lon="4.69282">
        <ele>208.16275</ele>
        <time>2023-11-26T15:17:24.000Z</time>
      </trkpt>
      <trkpt lat="45.85179" lon="4.69289">
        <ele>208.1512</ele>
        <time>2023-11-26T15:17:25.000Z</time>
      </trkpt>
      <trkpt lat="45.8518" lon="4.69297">
        <ele>208.17416</ele>
        <time>2023-11-26T15:17:26.000Z</time>
      </trkpt>
      <trkpt lat="45.85178" lon="4.69303">
        <ele>208.18257</ele>
        <time>2023-11-26T15:17:27.000Z</time>
      </trkpt>
      <trkpt lat="45.85176" lon="4.69309">
        <ele>208.24458</ele>
        <time>2023-11-26T15:17:28.000Z</time>
      </trkpt>
      <trkpt lat="45.85177" lon="4.69318">
        <ele>208.34827</ele>
        <time>2023-11-26T15:17:29.000Z</time>
      </trkpt>
      <trkpt lat="45.85175" lon="4.69326">
        <ele>208.48416</ele>
        <time>2023-11-26T15:17:30.000Z</time>
      </trkpt>
      <trkpt lat="45.85173" lon="4.69333">
        <ele>208.47766</ele>
        <time>2023-11-26T15:17:31.000Z</time>
      </trkpt>
      <trkpt lat="45.85171" lon="4.6934">
        <ele>208.48294</ele>
        <time>2023-11-26T15:17:32.000Z</time>
      </trkpt>
      <trkpt lat="45.85169" lon="4.69346">
        <ele>208.49609</ele>
        <time>2023-11-26T15:17:33.000Z</time>
      </trkpt>
      <trkpt lat="45.85167" lon="4.69352">
        <ele>208.57059</ele>
        <time>2023-11-26T15:17:34.000Z</time>
      </trkpt>
      <trkpt lat="45.85166" lon="4.69358">
        <ele>208.65031</ele>
        <time>2023-11-26T15:17:35.000Z</time>
      </trkpt>
      <trkpt lat="45.85164" lon="4.69365">
        <ele>208.75252</ele>
        <time>2023-11-26T15:17:36.000Z</time>
      </trkpt>
      <trkpt lat="45.85162" lon="4.69373">
        <ele>208.87834</ele>
        <time>2023-11-26T15:17:37.000Z</time>
      </trkpt>
      <trkpt lat="45.85161" lon="4.69379">
        <ele>208.97183</ele>
        <time>2023-11-26T15:17:38.000Z</time>
      </trkpt>
      <trkpt lat="45.8516" lon="4.69386">
        <ele>209.06734</ele>
        <time>2023-11-26T15:17:39.000Z</time>
      </trkpt>
      <trkpt lat="45.85158" lon="4.69392">
        <ele>209.16006</ele>
        <time>2023-11-26T15:17:40.000Z</time>
      </trkpt>
      <trkpt lat="45.85157" lon="4.694">
        <ele>209.22478</ele>
        <time>2023-11-26T15:17:41.000Z</time>
      </trkpt>
      <trkpt lat="45.85157" lon="4.69406">
        <ele>209.35941</ele>
        <time>2023-11-26T15:17:42.000Z</time>
      </trkpt>
      <trkpt lat="45.85155" lon="4.69414">
        <ele>209.49759</ele>
        <time>2023-11-26T15:17:43.000Z</time>
      </trkpt>
      <trkpt lat="45.85153" lon="4.69421">
        <ele>209.63174</ele>
        <time>2023-11-26T15:17:44.000Z</time>
      </trkpt>
      <trkpt lat="45.85151" lon="4.69428">
        <ele>209.80472</ele>
        <time>2023-11-26T15:17:45.000Z</time>
      </trkpt>
      <trkpt lat="45.8515" lon="4.69434">
        <ele>209.91867</ele>
        <time>2023-11-26T15:17:46.000Z</time>
      </trkpt>
      <trkpt lat="45.85148" lon="4.69442">
        <ele>210.01648</ele>
        <time>2023-11-26T15:17:47.000Z</time>
      </trkpt>
      <trkpt lat="45.85146" lon="4.69449">
        <ele>210.06857</ele>
        <time>2023-11-26T15:17:48.000Z</time>
      </trkpt>
      <trkpt lat="45.85145" lon="4.69455">
        <ele>210.09453</ele>
        <time>2023-11-26T15:17:49.000Z</time>
      </trkpt>
      <trkpt lat="45.85144" lon="4.69461">
        <ele>210.15039</ele>
        <time>2023-11-26T15:17:50.000Z</time>
      </trkpt>
      <trkpt lat="45.85143" lon="4.69469">
        <ele>210.29688</ele>
        <time>2023-11-26T15:17:51.000Z</time>
      </trkpt>
      <trkpt lat="45.85142" lon="4.69474">
        <ele>210.40617</ele>
        <time>2023-11-26T15:17:52.000Z</time>
      </trkpt>
      <trkpt lat="45.85141" lon="4.69481">
        <ele>210.44283</ele>
        <time>2023-11-26T15:17:53.000Z</time>
      </trkpt>
      <trkpt lat="45.8514" lon="4.69488">
        <ele>210.42757</ele>
        <time>2023-11-26T15:17:54.000Z</time>
      </trkpt>
      <trkpt lat="45.85139" lon="4.69495">
        <ele>210.43289</ele>
        <time>2023-11-26T15:17:55.000Z</time>
      </trkpt>
      <trkpt lat="45.85138" lon="4.69501">
        <ele>210.49031</ele>
        <time>2023-11-26T15:17:56.000Z</time>
      </trkpt>
      <trkpt lat="45.85137" lon="4.69509">
        <ele>210.54788</ele>
        <time>2023-11-26T15:17:57.000Z</time>
      </trkpt>
      <trkpt lat="45.85137" lon="4.69516">
        <ele>210.68527</ele>
        <time>2023-11-26T15:17:58.000Z</time>
      </trkpt>
      <trkpt lat="45.85135" lon="4.69523">
        <ele>210.84126</ele>
        <time>2023-11-26T15:17:59.000Z</time>
      </trkpt>
      <trkpt lat="45.85135" lon="4.6953">
        <ele>211.03345</ele>
        <time>2023-11-26T15:18:00.000Z</time>
      </trkpt>
      <trkpt lat="45.85134" lon="4.69537">
        <ele>211.22041</ele>
        <time>2023-11-26T15:18:01.000Z</time>
      </trkpt>
      <trkpt lat="45.85132" lon="4.69543">
        <ele>211.36003</ele>
        <time>2023-11-26T15:18:02.000Z</time>
      </trkpt>
      <trkpt lat="45.85131" lon="4.6955">
        <ele>211.48051</ele>
        <time>2023-11-26T15:18:03.000Z</time>
      </trkpt>
      <trkpt lat="45.85129" lon="4.69557">
        <ele>211.61783</ele>
        <time>2023-11-26T15:18:04.000Z</time>
      </trkpt>
      <trkpt lat="45.85129" lon="4.69564">
        <ele>211.75851</ele>
        <time>2023-11-26T15:18:05.000Z</time>
      </trkpt>
      <trkpt lat="45.85128" lon="4.69571">
        <ele>211.9899</ele>
        <time>2023-11-26T15:18:06.000Z</time>
      </trkpt>
      <trkpt lat="45.85127" lon="4.69577">
        <ele>212.24548</ele>
        <time>2023-11-26T15:18:07.000Z</time>
      </trkpt>
      <trkpt lat="45.85126" lon="4.69584">
        <ele>212.48003</ele>
        <time>2023-11-26T15:18:08.000Z</time>
      </trkpt>
      <trkpt lat="45.85125" lon="4.69591">
        <ele>212.69028</ele>
        <time>2023-11-26T15:18:09.000Z</time>
      </trkpt>
      <trkpt lat="45.85125" lon="4.69598">
        <ele>212.83305</ele>
        <time>2023-11-26T15:18:10.000Z</time>
      </trkpt>
      <trkpt lat="45.85124" lon="4.69605">
        <ele>212.96513</ele>
        <time>2023-11-26T15:18:11.000Z</time>
      </trkpt>
      <trkpt lat="45.85123" lon="4.69611">
        <ele>213.1396</ele>
        <time>2023-11-26T15:18:12.000Z</time>
      </trkpt>
      <trkpt lat="45.85123" lon="4.69618">
        <ele>213.37566</ele>
        <time>2023-11-26T15:18:13.000Z</time>
      </trkpt>
      <trkpt lat="45.85122" lon="4.69625">
        <ele>213.57797</ele>
        <time>2023-11-26T15:18:14.000Z</time>
      </trkpt>
      <trkpt lat="45.85123" lon="4.69632">
        <ele>213.71326</ele>
        <time>2023-11-26T15:18:15.000Z</time>
      </trkpt>
      <trkpt lat="45.85122" lon="4.69639">
        <ele>215.02534</ele>
        <time>2023-11-26T15:18:16.000Z</time>
      </trkpt>
      <trkpt lat="45.85124" lon="4.69644">
        <ele>215.18466</ele>
        <time>2023-11-26T15:18:17.000Z</time>
      </trkpt>
      <trkpt lat="45.85124" lon="4.69649">
        <ele>215.32596</ele>
        <time>2023-11-26T15:18:18.000Z</time>
      </trkpt>
      <trkpt lat="45.85125" lon="4.69655">
        <ele>215.45146</ele>
        <time>2023-11-26T15:18:19.000Z</time>
      </trkpt>
      <trkpt lat="45.85125" lon="4.69659">
        <ele>215.54953</ele>
        <time>2023-11-26T15:18:20.000Z</time>
      </trkpt>
      <trkpt lat="45.85126" lon="4.69662">
        <ele>215.65811</ele>
        <time>2023-11-26T15:18:21.000Z</time>
      </trkpt>
      <trkpt lat="45.85127" lon="4.69665">
        <ele>215.75256</ele>
        <time>2023-11-26T15:18:22.000Z</time>
      </trkpt>
      <trkpt lat="45.85128" lon="4.69667">
        <ele>215.84294</ele>
        <time>2023-11-26T15:18:23.000Z</time>
      </trkpt>
      <trkpt lat="45.8513" lon="4.69672">
        <ele>215.93155</ele>
        <time>2023-11-26T15:18:24.000Z</time>
      </trkpt>
      <trkpt lat="45.85131" lon="4.69677">
        <ele>215.99402</ele>
        <time>2023-11-26T15:18:25.000Z</time>
      </trkpt>
      <trkpt lat="45.85133" lon="4.69683">
        <ele>216.01363</ele>
        <time>2023-11-26T15:18:26.000Z</time>
      </trkpt>
      <trkpt lat="45.85133" lon="4.69691">
        <ele>215.97897</ele>
        <time>2023-11-26T15:18:27.000Z</time>
      </trkpt>
      <trkpt lat="45.85134" lon="4.69698">
        <ele>215.93559</ele>
        <time>2023-11-26T15:18:28.000Z</time>
      </trkpt>
      <trkpt lat="45.85134" lon="4.69706">
        <ele>215.91202</ele>
        <time>2023-11-26T15:18:29.000Z</time>
      </trkpt>
      <trkpt lat="45.85134" lon="4.69713">
        <ele>215.899</ele>
        <time>2023-11-26T15:18:30.000Z</time>
      </trkpt>
      <trkpt lat="45.85134" lon="4.69719">
        <ele>215.93486</ele>
        <time>2023-11-26T15:18:31.000Z</time>
      </trkpt>
      <trkpt lat="45.85135" lon="4.69724">
        <ele>215.96884</ele>
        <time>2023-11-26T15:18:32.000Z</time>
      </trkpt>
      <trkpt lat="45.85134" lon="4.69731">
        <ele>215.97159</ele>
        <time>2023-11-26T15:18:33.000Z</time>
      </trkpt>
      <trkpt lat="45.85135" lon="4.69737">
        <ele>215.97278</ele>
        <time>2023-11-26T15:18:34.000Z</time>
      </trkpt>
      <trkpt lat="45.85135" lon="4.69743">
        <ele>216.01382</ele>
        <time>2023-11-26T15:18:35.000Z</time>
      </trkpt>
      <trkpt lat="45.85136" lon="4.69749">
        <ele>214.80856</ele>
        <time>2023-11-26T15:18:36.000Z</time>
      </trkpt>
      <trkpt lat="45.85136" lon="4.69753">
        <ele>214.7446</ele>
        <time>2023-11-26T15:18:37.000Z</time>
      </trkpt>
      <trkpt lat="45.85138" lon="4.69759">
        <ele>214.67599</ele>
        <time>2023-11-26T15:18:38.000Z</time>
      </trkpt>
      <trkpt lat="45.85137" lon="4.69764">
        <ele>214.58842</ele>
        <time>2023-11-26T15:18:39.000Z</time>
      </trkpt>
      <trkpt lat="45.85139" lon="4.69769">
        <ele>214.48257</ele>
        <time>2023-11-26T15:18:40.000Z</time>
      </trkpt>
      <trkpt lat="45.8514" lon="4.69773">
        <ele>214.42386</ele>
        <time>2023-11-26T15:18:41.000Z</time>
      </trkpt>
      <trkpt lat="45.85141" lon="4.69778">
        <ele>214.36995</ele>
        <time>2023-11-26T15:18:42.000Z</time>
      </trkpt>
      <trkpt lat="45.85142" lon="4.69783">
        <ele>214.35359</ele>
        <time>2023-11-26T15:18:43.000Z</time>
      </trkpt>
      <trkpt lat="45.85144" lon="4.69788">
        <ele>214.35294</ele>
        <time>2023-11-26T15:18:44.000Z</time>
      </trkpt>
      <trkpt lat="45.85145" lon="4.69792">
        <ele>214.39738</ele>
        <time>2023-11-26T15:18:45.000Z</time>
      </trkpt>
      <trkpt lat="45.85147" lon="4.69797">
        <ele>214.45406</ele>
        <time>2023-11-26T15:18:46.000Z</time>
      </trkpt>
      <trkpt lat="45.85148" lon="4.69802">
        <ele>214.55742</ele>
        <time>2023-11-26T15:18:47.000Z</time>
      </trkpt>
      <trkpt lat="45.85148" lon="4.69806">
        <ele>214.63139</ele>
        <time>2023-11-26T15:18:48.000Z</time>
      </trkpt>
      <trkpt lat="45.85149" lon="4.69811">
        <ele>214.72061</ele>
        <time>2023-11-26T15:18:49.000Z</time>
      </trkpt>
      <trkpt lat="45.85149" lon="4.69815">
        <ele>214.80847</ele>
        <time>2023-11-26T15:18:50.000Z</time>
      </trkpt>
      <trkpt lat="45.85149" lon="4.69818">
        <ele>214.92368</ele>
        <time>2023-11-26T15:18:51.000Z</time>
      </trkpt>
      <trkpt lat="45.85149" lon="4.69822">
        <ele>215.04907</ele>
        <time>2023-11-26T15:18:52.000Z</time>
      </trkpt>
      <trkpt lat="45.85149" lon="4.69825">
        <ele>215.20406</ele>
        <time>2023-11-26T15:18:53.000Z</time>
      </trkpt>
      <trkpt lat="45.85148" lon="4.69828">
        <ele>215.42155</ele>
        <time>2023-11-26T15:18:54.000Z</time>
      </trkpt>
      <trkpt lat="45.85146" lon="4.69831">
        <ele>215.63689</ele>
        <time>2023-11-26T15:18:55.000Z</time>
      </trkpt>
      <trkpt lat="45.85145" lon="4.69833">
        <ele>215.92032</ele>
        <time>2023-11-26T15:18:56.000Z</time>
      </trkpt>
      <trkpt lat="45.85143" lon="4.69837">
        <ele>216.20093</ele>
        <time>2023-11-26T15:18:58.000Z</time>
      </trkpt>
      <trkpt lat="45.85141" lon="4.69839">
        <ele>216.51912</ele>
        <time>2023-11-26T15:18:59.000Z</time>
      </trkpt>
      <trkpt lat="45.85139" lon="4.6984">
        <ele>216.86092</ele>
        <time>2023-11-26T15:19:00.000Z</time>
      </trkpt>
      <trkpt lat="45.85137" lon="4.6984">
        <ele>217.20065</ele>
        <time>2023-11-26T15:19:01.000Z</time>
      </trkpt>
      <trkpt lat="45.85135" lon="4.6984">
        <ele>217.47592</ele>
        <time>2023-11-26T15:19:02.000Z</time>
      </trkpt>
      <trkpt lat="45.85133" lon="4.69841">
        <ele>217.75635</ele>
        <time>2023-11-26T15:19:03.000Z</time>
      </trkpt>
      <trkpt lat="45.85131" lon="4.69841">
        <ele>218.00839</ele>
        <time>2023-11-26T15:19:04.000Z</time>
      </trkpt>
      <trkpt lat="45.85128" lon="4.69842">
        <ele>218.26379</ele>
        <time>2023-11-26T15:19:05.000Z</time>
      </trkpt>
      <trkpt lat="45.85126" lon="4.69844">
        <ele>218.48552</ele>
        <time>2023-11-26T15:19:06.000Z</time>
      </trkpt>
      <trkpt lat="45.85124" lon="4.69845">
        <ele>218.67329</ele>
        <time>2023-11-26T15:19:07.000Z</time>
      </trkpt>
      <trkpt lat="45.85122" lon="4.69847">
        <ele>218.8208</ele>
        <time>2023-11-26T15:19:08.000Z</time>
      </trkpt>
      <trkpt lat="45.8512" lon="4.69849">
        <ele>219.01126</ele>
        <time>2023-11-26T15:19:09.000Z</time>
      </trkpt>
      <trkpt lat="45.85118" lon="4.69851">
        <ele>219.2056</ele>
        <time>2023-11-26T15:19:10.000Z</time>
      </trkpt>
      <trkpt lat="45.85115" lon="4.69853">
        <ele>219.42754</ele>
        <time>2023-11-26T15:19:11.000Z</time>
      </trkpt>
      <trkpt lat="45.85113" lon="4.69856">
        <ele>219.62207</ele>
        <time>2023-11-26T15:19:12.000Z</time>
      </trkpt>
      <trkpt lat="45.85111" lon="4.69858">
        <ele>219.83406</ele>
        <time>2023-11-26T15:19:13.000Z</time>
      </trkpt>
      <trkpt lat="45.8511" lon="4.6986">
        <ele>220.10466</ele>
        <time>2023-11-26T15:19:14.000Z</time>
      </trkpt>
      <trkpt lat="45.85107" lon="4.69863">
        <ele>220.37276</ele>
        <time>2023-11-26T15:19:16.000Z</time>
      </trkpt>
      <trkpt lat="45.85106" lon="4.69865">
        <ele>220.64323</ele>
        <time>2023-11-26T15:19:17.000Z</time>
      </trkpt>
      <trkpt lat="45.85104" lon="4.69866">
        <ele>220.85947</ele>
        <time>2023-11-26T15:19:18.000Z</time>
      </trkpt>
      <trkpt lat="45.85102" lon="4.69868">
        <ele>221.05905</ele>
        <time>2023-11-26T15:19:19.000Z</time>
      </trkpt>
      <trkpt lat="45.851" lon="4.6987">
        <ele>221.27054</ele>
        <time>2023-11-26T15:19:20.000Z</time>
      </trkpt>
      <trkpt lat="45.85098" lon="4.69872">
        <ele>221.46138</ele>
        <time>2023-11-26T15:19:21.000Z</time>
      </trkpt>
      <trkpt lat="45.85096" lon="4.69874">
        <ele>221.6552</ele>
        <time>2023-11-26T15:19:22.000Z</time>
      </trkpt>
      <trkpt lat="45.85093" lon="4.69875">
        <ele>221.90251</ele>
        <time>2023-11-26T15:19:23.000Z</time>
      </trkpt>
      <trkpt lat="45.85091" lon="4.69877">
        <ele>222.07236</ele>
        <time>2023-11-26T15:19:24.000Z</time>
      </trkpt>
      <trkpt lat="45.85089" lon="4.69879">
        <ele>222.28365</ele>
        <time>2023-11-26T15:19:25.000Z</time>
      </trkpt>
      <trkpt lat="45.85087" lon="4.69881">
        <ele>222.46916</ele>
        <time>2023-11-26T15:19:26.000Z</time>
      </trkpt>
      <trkpt lat="45.85085" lon="4.69883">
        <ele>222.64375</ele>
        <time>2023-11-26T15:19:27.000Z</time>
      </trkpt>
      <trkpt lat="45.85083" lon="4.69885">
        <ele>222.83206</ele>
        <time>2023-11-26T15:19:28.000Z</time>
      </trkpt>
      <trkpt lat="45.85081" lon="4.69886">
        <ele>223.0562</ele>
        <time>2023-11-26T15:19:29.000Z</time>
      </trkpt>
      <trkpt lat="45.85079" lon="4.69888">
        <ele>223.25533</ele>
        <time>2023-11-26T15:19:30.000Z</time>
      </trkpt>
      <trkpt lat="45.85078" lon="4.69889">
        <ele>223.44824</ele>
        <time>2023-11-26T15:19:31.000Z</time>
      </trkpt>
      <trkpt lat="45.85075" lon="4.69891">
        <ele>223.59929</ele>
        <time>2023-11-26T15:19:32.000Z</time>
      </trkpt>
      <trkpt lat="45.85073" lon="4.69892">
        <ele>223.82971</ele>
        <time>2023-11-26T15:19:33.000Z</time>
      </trkpt>
      <trkpt lat="45.8507" lon="4.69893">
        <ele>224.01709</ele>
        <time>2023-11-26T15:19:34.000Z</time>
      </trkpt>
      <trkpt lat="45.85068" lon="4.69893">
        <ele>224.17766</ele>
        <time>2023-11-26T15:19:35.000Z</time>
      </trkpt>
      <trkpt lat="45.85065" lon="4.69894">
        <ele>224.3271</ele>
        <time>2023-11-26T15:19:36.000Z</time>
      </trkpt>
      <trkpt lat="45.85062" lon="4.69895">
        <ele>224.46892</ele>
        <time>2023-11-26T15:19:37.000Z</time>
      </trkpt>
      <trkpt lat="45.85059" lon="4.69895">
        <ele>224.63667</ele>
        <time>2023-11-26T15:19:38.000Z</time>
      </trkpt>
      <trkpt lat="45.85056" lon="4.69896">
        <ele>224.84802</ele>
        <time>2023-11-26T15:19:39.000Z</time>
      </trkpt>
      <trkpt lat="45.85054" lon="4.69896">
        <ele>225.00813</ele>
        <time>2023-11-26T15:19:40.000Z</time>
      </trkpt>
      <trkpt lat="45.85051" lon="4.69895">
        <ele>225.20789</ele>
        <time>2023-11-26T15:19:41.000Z</time>
      </trkpt>
      <trkpt lat="45.85049" lon="4.69895">
        <ele>226.58969</ele>
        <time>2023-11-26T15:19:42.000Z</time>
      </trkpt>
      <trkpt lat="45.85047" lon="4.69896">
        <ele>227.89157</ele>
        <time>2023-11-26T15:19:43.000Z</time>
      </trkpt>
      <trkpt lat="45.85044" lon="4.69897">
        <ele>229.25203</ele>
        <time>2023-11-26T15:19:44.000Z</time>
      </trkpt>
      <trkpt lat="45.85042" lon="4.69897">
        <ele>230.58037</ele>
        <time>2023-11-26T15:19:45.000Z</time>
      </trkpt>
      <trkpt lat="45.85039" lon="4.69898">
        <ele>231.96379</ele>
        <time>2023-11-26T15:19:47.000Z</time>
      </trkpt>
      <trkpt lat="45.85037" lon="4.69899">
        <ele>233.35091</ele>
        <time>2023-11-26T15:19:48.000Z</time>
      </trkpt>
      <trkpt lat="45.85034" lon="4.699">
        <ele>234.73882</ele>
        <time>2023-11-26T15:19:49.000Z</time>
      </trkpt>
      <trkpt lat="45.85032" lon="4.69901">
        <ele>236.12952</ele>
        <time>2023-11-26T15:19:50.000Z</time>
      </trkpt>
      <trkpt lat="45.85029" lon="4.69902">
        <ele>237.52383</ele>
        <time>2023-11-26T15:19:51.000Z</time>
      </trkpt>
      <trkpt lat="45.85028" lon="4.69903">
        <ele>238.89731</ele>
        <time>2023-11-26T15:19:52.000Z</time>
      </trkpt>
      <trkpt lat="45.85026" lon="4.69905">
        <ele>240.58667</ele>
        <time>2023-11-26T15:19:53.000Z</time>
      </trkpt>
      <trkpt lat="45.85024" lon="4.69906">
        <ele>242.205</ele>
        <time>2023-11-26T15:19:54.000Z</time>
      </trkpt>
      <trkpt lat="45.85021" lon="4.69908">
        <ele>243.83125</ele>
        <time>2023-11-26T15:19:56.000Z</time>
      </trkpt>
      <trkpt lat="45.85019" lon="4.6991">
        <ele>245.75261</ele>
        <time>2023-11-26T15:19:58.000Z</time>
      </trkpt>
      <trkpt lat="45.85017" lon="4.69911">
        <ele>247.69783</ele>
        <time>2023-11-26T15:19:59.000Z</time>
      </trkpt>
      <trkpt lat="45.85015" lon="4.69912">
        <ele>249.63606</ele>
        <time>2023-11-26T15:20:00.000Z</time>
      </trkpt>
      <trkpt lat="45.85013" lon="4.69913">
        <ele>251.47774</ele>
        <time>2023-11-26T15:20:01.000Z</time>
      </trkpt>
      <trkpt lat="45.85009" lon="4.69915">
        <ele>253.25278</ele>
        <time>2023-11-26T15:20:03.000Z</time>
      </trkpt>
      <trkpt lat="45.85007" lon="4.69916">
        <ele>254.84908</ele>
        <time>2023-11-26T15:20:04.000Z</time>
      </trkpt>
      <trkpt lat="45.85005" lon="4.69917">
        <ele>256.48639</ele>
        <time>2023-11-26T15:20:05.000Z</time>
      </trkpt>
      <trkpt lat="45.85003" lon="4.69918">
        <ele>257.10312</ele>
        <time>2023-11-26T15:20:06.000Z</time>
      </trkpt>
      <trkpt lat="45.85001" lon="4.69919">
        <ele>257.72977</ele>
        <time>2023-11-26T15:20:07.000Z</time>
      </trkpt>
      <trkpt lat="45.85" lon="4.69921">
        <ele>257.91663</ele>
        <time>2023-11-26T15:20:08.000Z</time>
      </trkpt>
      <trkpt lat="45.84998" lon="4.69923">
        <ele>258.31937</ele>
        <time>2023-11-26T15:20:09.000Z</time>
      </trkpt>
      <trkpt lat="45.84996" lon="4.69925">
        <ele>258.68213</ele>
        <time>2023-11-26T15:20:10.000Z</time>
      </trkpt>
      <trkpt lat="45.84995" lon="4.69926">
        <ele>259.07465</ele>
        <time>2023-11-26T15:20:11.000Z</time>
      </trkpt>
      <trkpt lat="45.84993" lon="4.69928">
        <ele>259.48257</ele>
        <time>2023-11-26T15:20:13.000Z</time>
      </trkpt>
      <trkpt lat="45.84989" lon="4.69931">
        <ele>259.99438</ele>
        <time>2023-11-26T15:20:15.000Z</time>
      </trkpt>
      <trkpt lat="45.84987" lon="4.69932">
        <ele>260.50906</ele>
        <time>2023-11-26T15:20:16.000Z</time>
      </trkpt>
      <trkpt lat="45.84985" lon="4.69934">
        <ele>261.08777</ele>
        <time>2023-11-26T15:20:17.000Z</time>
      </trkpt>
      <trkpt lat="45.84983" lon="4.69935">
        <ele>261.24826</ele>
        <time>2023-11-26T15:20:18.000Z</time>
      </trkpt>
      <trkpt lat="45.84981" lon="4.69936">
        <ele>261.44418</ele>
        <time>2023-11-26T15:20:19.000Z</time>
      </trkpt>
      <trkpt lat="45.84978" lon="4.69937">
        <ele>261.72772</ele>
        <time>2023-11-26T15:20:20.000Z</time>
      </trkpt>
      <trkpt lat="45.84976" lon="4.69938">
        <ele>261.65118</ele>
        <time>2023-11-26T15:20:21.000Z</time>
      </trkpt>
      <trkpt lat="45.84974" lon="4.69939">
        <ele>261.50055</ele>
        <time>2023-11-26T15:20:22.000Z</time>
      </trkpt>
      <trkpt lat="45.84971" lon="4.69941">
        <ele>261.65857</ele>
        <time>2023-11-26T15:20:23.000Z</time>
      </trkpt>
      <trkpt lat="45.84968" lon="4.69943">
        <ele>261.87943</ele>
        <time>2023-11-26T15:20:24.000Z</time>
      </trkpt>
      <trkpt lat="45.84966" lon="4.69944">
        <ele>262.16873</ele>
        <time>2023-11-26T15:20:25.000Z</time>
      </trkpt>
      <trkpt lat="45.84962" lon="4.69945">
        <ele>262.6904</ele>
        <time>2023-11-26T15:20:27.000Z</time>
      </trkpt>
      <trkpt lat="45.8496" lon="4.69946">
        <ele>263.21051</ele>
        <time>2023-11-26T15:20:28.000Z</time>
      </trkpt>
      <trkpt lat="45.84958" lon="4.69947">
        <ele>263.66376</ele>
        <time>2023-11-26T15:20:29.000Z</time>
      </trkpt>
      <trkpt lat="45.84956" lon="4.69948">
        <ele>264.20929</ele>
        <time>2023-11-26T15:20:30.000Z</time>
      </trkpt>
      <trkpt lat="45.84953" lon="4.69948">
        <ele>265.12338</ele>
        <time>2023-11-26T15:20:31.000Z</time>
      </trkpt>
      <trkpt lat="45.8495" lon="4.69949">
        <ele>266.01474</ele>
        <time>2023-11-26T15:20:32.000Z</time>
      </trkpt>
      <trkpt lat="45.84948" lon="4.69949">
        <ele>266.23654</ele>
        <time>2023-11-26T15:20:33.000Z</time>
      </trkpt>
      <trkpt lat="45.84945" lon="4.69949">
        <ele>266.48416</ele>
        <time>2023-11-26T15:20:34.000Z</time>
      </trkpt>
      <trkpt lat="45.84942" lon="4.69949">
        <ele>266.73764</ele>
        <time>2023-11-26T15:20:36.000Z</time>
      </trkpt>
      <trkpt lat="45.8494" lon="4.69949">
        <ele>266.89087</ele>
        <time>2023-11-26T15:20:37.000Z</time>
      </trkpt>
      <trkpt lat="45.84938" lon="4.69949">
        <ele>267.13712</ele>
        <time>2023-11-26T15:20:38.000Z</time>
      </trkpt>
      <trkpt lat="45.84936" lon="4.69949">
        <ele>267.39001</ele>
        <time>2023-11-26T15:20:39.000Z</time>
      </trkpt>
      <trkpt lat="45.84933" lon="4.6995">
        <ele>267.65918</ele>
        <time>2023-11-26T15:20:40.000Z</time>
      </trkpt>
      <trkpt lat="45.8493" lon="4.6995">
        <ele>267.91873</ele>
        <time>2023-11-26T15:20:41.000Z</time>
      </trkpt>
      <trkpt lat="45.84927" lon="4.69951">
        <ele>268.11926</ele>
        <time>2023-11-26T15:20:42.000Z</time>
      </trkpt>
      <trkpt lat="45.84925" lon="4.69951">
        <ele>268.35373</ele>
        <time>2023-11-26T15:20:43.000Z</time>
      </trkpt>
      <trkpt lat="45.84921" lon="4.69951">
        <ele>268.5575</ele>
        <time>2023-11-26T15:20:44.000Z</time>
      </trkpt>
      <trkpt lat="45.84919" lon="4.69951">
        <ele>268.4556</ele>
        <time>2023-11-26T15:20:45.000Z</time>
      </trkpt>
      <trkpt lat="45.84917" lon="4.69951">
        <ele>268.38342</ele>
        <time>2023-11-26T15:20:46.000Z</time>
      </trkpt>
      <trkpt lat="45.84914" lon="4.69951">
        <ele>268.32297</ele>
        <time>2023-11-26T15:20:47.000Z</time>
      </trkpt>
      <trkpt lat="45.84911" lon="4.69951">
        <ele>268.27219</ele>
        <time>2023-11-26T15:20:48.000Z</time>
      </trkpt>
      <trkpt lat="45.84908" lon="4.69952">
        <ele>268.13531</ele>
        <time>2023-11-26T15:20:49.000Z</time>
      </trkpt>
      <trkpt lat="45.84905" lon="4.69953">
        <ele>267.85837</ele>
        <time>2023-11-26T15:20:50.000Z</time>
      </trkpt>
      <trkpt lat="45.84903" lon="4.69954">
        <ele>267.49911</ele>
        <time>2023-11-26T15:20:51.000Z</time>
      </trkpt>
      <trkpt lat="45.84901" lon="4.69956">
        <ele>267.21494</ele>
        <time>2023-11-26T15:20:52.000Z</time>
      </trkpt>
      <trkpt lat="45.84898" lon="4.69957">
        <ele>266.78064</ele>
        <time>2023-11-26T15:20:53.000Z</time>
      </trkpt>
      <trkpt lat="45.84895" lon="4.69958">
        <ele>267.24484</ele>
        <time>2023-11-26T15:20:54.000Z</time>
      </trkpt>
      <trkpt lat="45.84892" lon="4.6996">
        <ele>267.82407</ele>
        <time>2023-11-26T15:20:55.000Z</time>
      </trkpt>
      <trkpt lat="45.8489" lon="4.69961">
        <ele>267.81201</ele>
        <time>2023-11-26T15:20:56.000Z</time>
      </trkpt>
      <trkpt lat="45.84887" lon="4.69963">
        <ele>267.8562</ele>
        <time>2023-11-26T15:20:57.000Z</time>
      </trkpt>
      <trkpt lat="45.84884" lon="4.69964">
        <ele>267.70996</ele>
        <time>2023-11-26T15:20:58.000Z</time>
      </trkpt>
      <trkpt lat="45.84881" lon="4.69965">
        <ele>267.55142</ele>
        <time>2023-11-26T15:20:59.000Z</time>
      </trkpt>
      <trkpt lat="45.84879" lon="4.69966">
        <ele>267.32785</ele>
        <time>2023-11-26T15:21:00.000Z</time>
      </trkpt>
      <trkpt lat="45.84877" lon="4.69967">
        <ele>266.9342</ele>
        <time>2023-11-26T15:21:01.000Z</time>
      </trkpt>
      <trkpt lat="45.84874" lon="4.69968">
        <ele>266.48645</ele>
        <time>2023-11-26T15:21:02.000Z</time>
      </trkpt>
      <trkpt lat="45.84872" lon="4.69969">
        <ele>266.03729</ele>
        <time>2023-11-26T15:21:03.000Z</time>
      </trkpt>
      <trkpt lat="45.84869" lon="4.6997">
        <ele>265.66751</ele>
        <time>2023-11-26T15:21:04.000Z</time>
      </trkpt>
      <trkpt lat="45.84867" lon="4.69971">
        <ele>265.25983</ele>
        <time>2023-11-26T15:21:05.000Z</time>
      </trkpt>
      <trkpt lat="45.84864" lon="4.69973">
        <ele>265.27133</ele>
        <time>2023-11-26T15:21:06.000Z</time>
      </trkpt>
      <trkpt lat="45.84861" lon="4.69975">
        <ele>265.24866</ele>
        <time>2023-11-26T15:21:07.000Z</time>
      </trkpt>
      <trkpt lat="45.84858" lon="4.69978">
        <ele>265.18451</ele>
        <time>2023-11-26T15:21:08.000Z</time>
      </trkpt>
      <trkpt lat="45.84856" lon="4.6998">
        <ele>265.15945</ele>
        <time>2023-11-26T15:21:09.000Z</time>
      </trkpt>
      <trkpt lat="45.84854" lon="4.69983">
        <ele>265.21713</ele>
        <time>2023-11-26T15:21:10.000Z</time>
      </trkpt>
      <trkpt lat="45.84852" lon="4.69985">
        <ele>265.32214</ele>
        <time>2023-11-26T15:21:11.000Z</time>
      </trkpt>
      <trkpt lat="45.8485" lon="4.69988">
        <ele>265.43286</ele>
        <time>2023-11-26T15:21:12.000Z</time>
      </trkpt>
      <trkpt lat="45.84848" lon="4.69991">
        <ele>265.51715</ele>
        <time>2023-11-26T15:21:13.000Z</time>
      </trkpt>
      <trkpt lat="45.84845" lon="4.69994">
        <ele>265.409</ele>
        <time>2023-11-26T15:21:14.000Z</time>
      </trkpt>
      <trkpt lat="45.84843" lon="4.69996">
        <ele>265.16483</ele>
        <time>2023-11-26T15:21:15.000Z</time>
      </trkpt>
      <trkpt lat="45.84841" lon="4.69999">
        <ele>265.50085</ele>
        <time>2023-11-26T15:21:16.000Z</time>
      </trkpt>
      <trkpt lat="45.84839" lon="4.70001">
        <ele>265.74786</ele>
        <time>2023-11-26T15:21:17.000Z</time>
      </trkpt>
      <trkpt lat="45.84837" lon="4.70003">
        <ele>266.11118</ele>
        <time>2023-11-26T15:21:18.000Z</time>
      </trkpt>
      <trkpt lat="45.84834" lon="4.70004">
        <ele>266.05344</ele>
        <time>2023-11-26T15:21:19.000Z</time>
      </trkpt>
      <trkpt lat="45.84832" lon="4.70006">
        <ele>266.36533</ele>
        <time>2023-11-26T15:21:21.000Z</time>
      </trkpt>
      <trkpt lat="45.8483" lon="4.70007">
        <ele>266.7988</ele>
        <time>2023-11-26T15:21:22.000Z</time>
      </trkpt>
      <trkpt lat="45.84827" lon="4.70008">
        <ele>267.28235</ele>
        <time>2023-11-26T15:21:24.000Z</time>
      </trkpt>
      <trkpt lat="45.84824" lon="4.70008">
        <ele>267.80731</ele>
        <time>2023-11-26T15:21:25.000Z</time>
      </trkpt>
      <trkpt lat="45.84822" lon="4.70009">
        <ele>268.30087</ele>
        <time>2023-11-26T15:21:26.000Z</time>
      </trkpt>
      <trkpt lat="45.84819" lon="4.70011">
        <ele>268.81885</ele>
        <time>2023-11-26T15:21:27.000Z</time>
      </trkpt>
      <trkpt lat="45.84817" lon="4.70012">
        <ele>269.16626</ele>
        <time>2023-11-26T15:21:28.000Z</time>
      </trkpt>
      <trkpt lat="45.84814" lon="4.70013">
        <ele>269.5444</ele>
        <time>2023-11-26T15:21:29.000Z</time>
      </trkpt>
      <trkpt lat="45.84812" lon="4.70014">
        <ele>269.98111</ele>
        <time>2023-11-26T15:21:30.000Z</time>
      </trkpt>
      <trkpt lat="45.84809" lon="4.70015">
        <ele>270.41412</ele>
        <time>2023-11-26T15:21:31.000Z</time>
      </trkpt>
      <trkpt lat="45.84806" lon="4.70016">
        <ele>270.85641</ele>
        <time>2023-11-26T15:21:32.000Z</time>
      </trkpt>
      <trkpt lat="45.84804" lon="4.70016">
        <ele>271.31613</ele>
        <time>2023-11-26T15:21:33.000Z</time>
      </trkpt>
      <trkpt lat="45.84801" lon="4.70016">
        <ele>271.80045</ele>
        <time>2023-11-26T15:21:34.000Z</time>
      </trkpt>
      <trkpt lat="45.84797" lon="4.70016">
        <ele>272.17136</ele>
        <time>2023-11-26T15:21:35.000Z</time>
      </trkpt>
      <trkpt lat="45.84794" lon="4.70016">
        <ele>272.15237</ele>
        <time>2023-11-26T15:21:36.000Z</time>
      </trkpt>
      <trkpt lat="45.84792" lon="4.70016">
        <ele>272.24896</ele>
        <time>2023-11-26T15:21:37.000Z</time>
      </trkpt>
      <trkpt lat="45.84789" lon="4.70016">
        <ele>272.42004</ele>
        <time>2023-11-26T15:21:38.000Z</time>
      </trkpt>
      <trkpt lat="45.84786" lon="4.70017">
        <ele>272.62589</ele>
        <time>2023-11-26T15:21:39.000Z</time>
      </trkpt>
      <trkpt lat="45.84784" lon="4.70017">
        <ele>272.84705</ele>
        <time>2023-11-26T15:21:40.000Z</time>
      </trkpt>
      <trkpt lat="45.84782" lon="4.70018">
        <ele>273.45468</ele>
        <time>2023-11-26T15:21:41.000Z</time>
      </trkpt>
      <trkpt lat="45.8478" lon="4.70018">
        <ele>273.89749</ele>
        <time>2023-11-26T15:21:42.000Z</time>
      </trkpt>
      <trkpt lat="45.84778" lon="4.70019">
        <ele>274.25385</ele>
        <time>2023-11-26T15:21:43.000Z</time>
      </trkpt>
      <trkpt lat="45.84775" lon="4.70019">
        <ele>274.8226</ele>
        <time>2023-11-26T15:21:44.000Z</time>
      </trkpt>
      <trkpt lat="45.84772" lon="4.7002">
        <ele>275.30029</ele>
        <time>2023-11-26T15:21:45.000Z</time>
      </trkpt>
      <trkpt lat="45.84769" lon="4.70021">
        <ele>275.79095</ele>
        <time>2023-11-26T15:21:46.000Z</time>
      </trkpt>
      <trkpt lat="45.84767" lon="4.70022">
        <ele>276.46863</ele>
        <time>2023-11-26T15:21:47.000Z</time>
      </trkpt>
      <trkpt lat="45.84764" lon="4.70024">
        <ele>276.90338</ele>
        <time>2023-11-26T15:21:48.000Z</time>
      </trkpt>
      <trkpt lat="45.8476" lon="4.70025">
        <ele>277.31073</ele>
        <time>2023-11-26T15:21:49.000Z</time>
      </trkpt>
      <trkpt lat="45.84757" lon="4.70027">
        <ele>277.63385</ele>
        <time>2023-11-26T15:21:50.000Z</time>
      </trkpt>
      <trkpt lat="45.84754" lon="4.70028">
        <ele>277.45773</ele>
        <time>2023-11-26T15:21:51.000Z</time>
      </trkpt>
      <trkpt lat="45.84751" lon="4.7003">
        <ele>277.26144</ele>
        <time>2023-11-26T15:21:52.000Z</time>
      </trkpt>
      <trkpt lat="45.84748" lon="4.70032">
        <ele>276.96606</ele>
        <time>2023-11-26T15:21:53.000Z</time>
      </trkpt>
      <trkpt lat="45.84746" lon="4.70034">
        <ele>276.58862</ele>
        <time>2023-11-26T15:21:54.000Z</time>
      </trkpt>
      <trkpt lat="45.84743" lon="4.70036">
        <ele>276.33051</ele>
        <time>2023-11-26T15:21:55.000Z</time>
      </trkpt>
      <trkpt lat="45.8474" lon="4.70037">
        <ele>276.42245</ele>
        <time>2023-11-26T15:21:56.000Z</time>
      </trkpt>
      <trkpt lat="45.84738" lon="4.70038">
        <ele>276.41956</ele>
        <time>2023-11-26T15:21:57.000Z</time>
      </trkpt>
      <trkpt lat="45.84736" lon="4.70039">
        <ele>276.39606</ele>
        <time>2023-11-26T15:21:58.000Z</time>
      </trkpt>
      <trkpt lat="45.84733" lon="4.70041">
        <ele>276.37085</ele>
        <time>2023-11-26T15:21:59.000Z</time>
      </trkpt>
      <trkpt lat="45.8473" lon="4.70043">
        <ele>276.26025</ele>
        <time>2023-11-26T15:22:00.000Z</time>
      </trkpt>
      <trkpt lat="45.84727" lon="4.70046">
        <ele>276.1377</ele>
        <time>2023-11-26T15:22:01.000Z</time>
      </trkpt>
      <trkpt lat="45.84724" lon="4.70048">
        <ele>276.01337</ele>
        <time>2023-11-26T15:22:02.000Z</time>
      </trkpt>
      <trkpt lat="45.84722" lon="4.70051">
        <ele>275.92822</ele>
        <time>2023-11-26T15:22:03.000Z</time>
      </trkpt>
      <trkpt lat="45.84719" lon="4.70054">
        <ele>275.60651</ele>
        <time>2023-11-26T15:22:04.000Z</time>
      </trkpt>
      <trkpt lat="45.84716" lon="4.70056">
        <ele>275.31885</ele>
        <time>2023-11-26T15:22:05.000Z</time>
      </trkpt>
      <trkpt lat="45.84713" lon="4.70059">
        <ele>275.03186</ele>
        <time>2023-11-26T15:22:06.000Z</time>
      </trkpt>
      <trkpt lat="45.84711" lon="4.70061">
        <ele>274.57086</ele>
        <time>2023-11-26T15:22:07.000Z</time>
      </trkpt>
      <trkpt lat="45.84708" lon="4.70063">
        <ele>274.10416</ele>
        <time>2023-11-26T15:22:08.000Z</time>
      </trkpt>
      <trkpt lat="45.84706" lon="4.70064">
        <ele>273.64838</ele>
        <time>2023-11-26T15:22:09.000Z</time>
      </trkpt>
      <trkpt lat="45.84703" lon="4.70066">
        <ele>273.20786</ele>
        <time>2023-11-26T15:22:10.000Z</time>
      </trkpt>
      <trkpt lat="45.84701" lon="4.70068">
        <ele>273.28824</ele>
        <time>2023-11-26T15:22:11.000Z</time>
      </trkpt>
      <trkpt lat="45.84699" lon="4.7007">
        <ele>273.52261</ele>
        <time>2023-11-26T15:22:12.000Z</time>
      </trkpt>
      <trkpt lat="45.84697" lon="4.70072">
        <ele>273.93555</ele>
        <time>2023-11-26T15:22:13.000Z</time>
      </trkpt>
      <trkpt lat="45.84696" lon="4.70073">
        <ele>274.09125</ele>
        <time>2023-11-26T15:22:14.000Z</time>
      </trkpt>
      <trkpt lat="45.84694" lon="4.70074">
        <ele>274.36639</ele>
        <time>2023-11-26T15:22:16.000Z</time>
      </trkpt>
      <trkpt lat="45.84691" lon="4.70077">
        <ele>274.70078</ele>
        <time>2023-11-26T15:22:18.000Z</time>
      </trkpt>
      <trkpt lat="45.84689" lon="4.70078">
        <ele>275.0871</ele>
        <time>2023-11-26T15:22:19.000Z</time>
      </trkpt>
      <trkpt lat="45.84687" lon="4.7008">
        <ele>275.44595</ele>
        <time>2023-11-26T15:22:20.000Z</time>
      </trkpt>
      <trkpt lat="45.84685" lon="4.70081">
        <ele>275.75412</ele>
        <time>2023-11-26T15:22:21.000Z</time>
      </trkpt>
      <trkpt lat="45.84682" lon="4.70083">
        <ele>276.14917</ele>
        <time>2023-11-26T15:22:22.000Z</time>
      </trkpt>
      <trkpt lat="45.8468" lon="4.70086">
        <ele>276.53134</ele>
        <time>2023-11-26T15:22:23.000Z</time>
      </trkpt>
      <trkpt lat="45.84677" lon="4.70088">
        <ele>276.87851</ele>
        <time>2023-11-26T15:22:24.000Z</time>
      </trkpt>
      <trkpt lat="45.84676" lon="4.70091">
        <ele>277.27795</ele>
        <time>2023-11-26T15:22:25.000Z</time>
      </trkpt>
      <trkpt lat="45.84674" lon="4.70093">
        <ele>277.71405</ele>
        <time>2023-11-26T15:22:26.000Z</time>
      </trkpt>
      <trkpt lat="45.84672" lon="4.70095">
        <ele>278.24469</ele>
        <time>2023-11-26T15:22:27.000Z</time>
      </trkpt>
      <trkpt lat="45.8467" lon="4.70098">
        <ele>278.80228</ele>
        <time>2023-11-26T15:22:28.000Z</time>
      </trkpt>
      <trkpt lat="45.84668" lon="4.701">
        <ele>279.29181</ele>
        <time>2023-11-26T15:22:29.000Z</time>
      </trkpt>
      <trkpt lat="45.84665" lon="4.70104">
        <ele>279.75201</ele>
        <time>2023-11-26T15:22:30.000Z</time>
      </trkpt>
      <trkpt lat="45.84663" lon="4.70106">
        <ele>280.16473</ele>
        <time>2023-11-26T15:22:31.000Z</time>
      </trkpt>
      <trkpt lat="45.84661" lon="4.70108">
        <ele>280.6004</ele>
        <time>2023-11-26T15:22:32.000Z</time>
      </trkpt>
      <trkpt lat="45.84659" lon="4.70111">
        <ele>281.0054</ele>
        <time>2023-11-26T15:22:33.000Z</time>
      </trkpt>
      <trkpt lat="45.84657" lon="4.70114">
        <ele>281.23334</ele>
        <time>2023-11-26T15:22:34.000Z</time>
      </trkpt>
      <trkpt lat="45.84654" lon="4.70117">
        <ele>281.33865</ele>
        <time>2023-11-26T15:22:35.000Z</time>
      </trkpt>
      <trkpt lat="45.84652" lon="4.7012">
        <ele>281.73096</ele>
        <time>2023-11-26T15:22:36.000Z</time>
      </trkpt>
      <trkpt lat="45.8465" lon="4.70123">
        <ele>282.08542</ele>
        <time>2023-11-26T15:22:37.000Z</time>
      </trkpt>
      <trkpt lat="45.8465" lon="4.70127">
        <ele>282.41776</ele>
        <time>2023-11-26T15:22:38.000Z</time>
      </trkpt>
      <trkpt lat="45.84649" lon="4.7013">
        <ele>282.64233</ele>
        <time>2023-11-26T15:22:39.000Z</time>
      </trkpt>
      <trkpt lat="45.84648" lon="4.70133">
        <ele>282.79337</ele>
        <time>2023-11-26T15:22:40.000Z</time>
      </trkpt>
      <trkpt lat="45.84646" lon="4.70136">
        <ele>283.16895</ele>
        <time>2023-11-26T15:22:41.000Z</time>
      </trkpt>
      <trkpt lat="45.84643" lon="4.70138">
        <ele>283.60638</ele>
        <time>2023-11-26T15:22:42.000Z</time>
      </trkpt>
      <trkpt lat="45.8464" lon="4.70142">
        <ele>284.04681</ele>
        <time>2023-11-26T15:22:43.000Z</time>
      </trkpt>
      <trkpt lat="45.84638" lon="4.70145">
        <ele>284.12854</ele>
        <time>2023-11-26T15:22:44.000Z</time>
      </trkpt>
      <trkpt lat="45.84636" lon="4.70147">
        <ele>284.27103</ele>
        <time>2023-11-26T15:22:45.000Z</time>
      </trkpt>
      <trkpt lat="45.84632" lon="4.70148">
        <ele>284.36008</ele>
        <time>2023-11-26T15:22:46.000Z</time>
      </trkpt>
      <trkpt lat="45.84628" lon="4.70147">
        <ele>284.39355</ele>
        <time>2023-11-26T15:22:47.000Z</time>
      </trkpt>
      <trkpt lat="45.84624" lon="4.70145">
        <ele>284.39761</ele>
        <time>2023-11-26T15:22:48.000Z</time>
      </trkpt>
      <trkpt lat="45.84621" lon="4.70143">
        <ele>284.49554</ele>
        <time>2023-11-26T15:22:49.000Z</time>
      </trkpt>
      <trkpt lat="45.84617" lon="4.70141">
        <ele>285.05579</ele>
        <time>2023-11-26T15:22:50.000Z</time>
      </trkpt>
      <trkpt lat="45.84613" lon="4.70139">
        <ele>285.58231</ele>
        <time>2023-11-26T15:22:51.000Z</time>
      </trkpt>
      <trkpt lat="45.8461" lon="4.70136">
        <ele>286.02997</ele>
        <time>2023-11-26T15:22:52.000Z</time>
      </trkpt>
      <trkpt lat="45.84607" lon="4.70133">
        <ele>286.39041</ele>
        <time>2023-11-26T15:22:53.000Z</time>
      </trkpt>
      <trkpt lat="45.84604" lon="4.70129">
        <ele>286.85751</ele>
        <time>2023-11-26T15:22:54.000Z</time>
      </trkpt>
      <trkpt lat="45.846" lon="4.70126">
        <ele>287.39746</ele>
        <time>2023-11-26T15:22:55.000Z</time>
      </trkpt>
      <trkpt lat="45.84597" lon="4.70123">
        <ele>287.87399</ele>
        <time>2023-11-26T15:22:56.000Z</time>
      </trkpt>
      <trkpt lat="45.84594" lon="4.70121">
        <ele>288.28625</ele>
        <time>2023-11-26T15:22:57.000Z</time>
      </trkpt>
      <trkpt lat="45.84591" lon="4.70119">
        <ele>288.56134</ele>
        <time>2023-11-26T15:22:58.000Z</time>
      </trkpt>
      <trkpt lat="45.84588" lon="4.70117">
        <ele>288.76361</ele>
        <time>2023-11-26T15:22:59.000Z</time>
      </trkpt>
      <trkpt lat="45.84585" lon="4.70115">
        <ele>289.02289</ele>
        <time>2023-11-26T15:23:00.000Z</time>
      </trkpt>
      <trkpt lat="45.84582" lon="4.70112">
        <ele>288.8266</ele>
        <time>2023-11-26T15:23:01.000Z</time>
      </trkpt>
      <trkpt lat="45.84579" lon="4.7011">
        <ele>288.53531</ele>
        <time>2023-11-26T15:23:02.000Z</time>
      </trkpt>
      <trkpt lat="45.84577" lon="4.70107">
        <ele>288.23581</ele>
        <time>2023-11-26T15:23:03.000Z</time>
      </trkpt>
      <trkpt lat="45.84574" lon="4.70105">
        <ele>288.27643</ele>
        <time>2023-11-26T15:23:04.000Z</time>
      </trkpt>
      <trkpt lat="45.84571" lon="4.70102">
        <ele>288.3494</ele>
        <time>2023-11-26T15:23:05.000Z</time>
      </trkpt>
      <trkpt lat="45.84568" lon="4.70099">
        <ele>288.08557</ele>
        <time>2023-11-26T15:23:06.000Z</time>
      </trkpt>
      <trkpt lat="45.84565" lon="4.70096">
        <ele>287.86865</ele>
        <time>2023-11-26T15:23:07.000Z</time>
      </trkpt>
      <trkpt lat="45.84562" lon="4.70093">
        <ele>287.67719</ele>
        <time>2023-11-26T15:23:08.000Z</time>
      </trkpt>
      <trkpt lat="45.8456" lon="4.70091">
        <ele>287.44348</ele>
        <time>2023-11-26T15:23:09.000Z</time>
      </trkpt>
      <trkpt lat="45.84558" lon="4.70088">
        <ele>286.74408</ele>
        <time>2023-11-26T15:23:10.000Z</time>
      </trkpt>
      <trkpt lat="45.84556" lon="4.70087">
        <ele>286.11942</ele>
        <time>2023-11-26T15:23:11.000Z</time>
      </trkpt>
      <trkpt lat="45.84553" lon="4.70085">
        <ele>285.56448</ele>
        <time>2023-11-26T15:23:12.000Z</time>
      </trkpt>
      <trkpt lat="45.8455" lon="4.70083">
        <ele>285.0903</ele>
        <time>2023-11-26T15:23:13.000Z</time>
      </trkpt>
      <trkpt lat="45.84548" lon="4.70081">
        <ele>284.48441</ele>
        <time>2023-11-26T15:23:14.000Z</time>
      </trkpt>
      <trkpt lat="45.84546" lon="4.70079">
        <ele>283.76825</ele>
        <time>2023-11-26T15:23:15.000Z</time>
      </trkpt>
      <trkpt lat="45.84545" lon="4.70076">
        <ele>283.1496</ele>
        <time>2023-11-26T15:23:16.000Z</time>
      </trkpt>
      <trkpt lat="45.84544" lon="4.70074">
        <ele>282.49057</ele>
        <time>2023-11-26T15:23:17.000Z</time>
      </trkpt>
      <trkpt lat="45.84543" lon="4.70071">
        <ele>281.8114</ele>
        <time>2023-11-26T15:23:18.000Z</time>
      </trkpt>
      <trkpt lat="45.84543" lon="4.70068">
        <ele>281.21332</ele>
        <time>2023-11-26T15:23:19.000Z</time>
      </trkpt>
      <trkpt lat="45.84543" lon="4.70065">
        <ele>280.59372</ele>
        <time>2023-11-26T15:23:20.000Z</time>
      </trkpt>
      <trkpt lat="45.84542" lon="4.70062">
        <ele>280.25812</ele>
        <time>2023-11-26T15:23:23.000Z</time>
      </trkpt>
      <trkpt lat="45.84541" lon="4.70058">
        <ele>279.99783</ele>
        <time>2023-11-26T15:23:25.000Z</time>
      </trkpt>
      <trkpt lat="45.84539" lon="4.70055">
        <ele>279.81256</ele>
        <time>2023-11-26T15:23:27.000Z</time>
      </trkpt>
      <trkpt lat="45.84537" lon="4.70054">
        <ele>279.76581</ele>
        <time>2023-11-26T15:23:28.000Z</time>
      </trkpt>
      <trkpt lat="45.84535" lon="4.70053">
        <ele>279.60211</ele>
        <time>2023-11-26T15:23:29.000Z</time>
      </trkpt>
      <trkpt lat="45.84533" lon="4.7005">
        <ele>279.76642</ele>
        <time>2023-11-26T15:23:30.000Z</time>
      </trkpt>
      <trkpt lat="45.8453" lon="4.70047">
        <ele>279.84866</ele>
        <time>2023-11-26T15:23:31.000Z</time>
      </trkpt>
      <trkpt lat="45.84526" lon="4.70044">
        <ele>279.89752</ele>
        <time>2023-11-26T15:23:32.000Z</time>
      </trkpt>
      <trkpt lat="45.84524" lon="4.70041">
        <ele>279.9982</ele>
        <time>2023-11-26T15:23:33.000Z</time>
      </trkpt>
      <trkpt lat="45.84522" lon="4.70038">
        <ele>280.27838</ele>
        <time>2023-11-26T15:23:34.000Z</time>
      </trkpt>
      <trkpt lat="45.84519" lon="4.70034">
        <ele>280.58823</ele>
        <time>2023-11-26T15:23:35.000Z</time>
      </trkpt>
      <trkpt lat="45.84516" lon="4.70031">
        <ele>280.89832</ele>
        <time>2023-11-26T15:23:36.000Z</time>
      </trkpt>
      <trkpt lat="45.84509" lon="4.7003">
        <ele>281.15192</ele>
        <time>2023-11-26T15:23:37.000Z</time>
      </trkpt>
      <trkpt lat="45.84505" lon="4.70027">
        <ele>281.45267</ele>
        <time>2023-11-26T15:23:38.000Z</time>
      </trkpt>
      <trkpt lat="45.84502" lon="4.70023">
        <ele>281.43304</ele>
        <time>2023-11-26T15:23:39.000Z</time>
      </trkpt>
      <trkpt lat="45.84499" lon="4.70023">
        <ele>281.48483</ele>
        <time>2023-11-26T15:23:40.000Z</time>
      </trkpt>
      <trkpt lat="45.84496" lon="4.70019">
        <ele>281.53247</ele>
        <time>2023-11-26T15:23:41.000Z</time>
      </trkpt>
      <trkpt lat="45.84491" lon="4.70017">
        <ele>282.13849</ele>
        <time>2023-11-26T15:23:42.000Z</time>
      </trkpt>
      <trkpt lat="45.84489" lon="4.70016">
        <ele>282.72629</ele>
        <time>2023-11-26T15:23:43.000Z</time>
      </trkpt>
      <trkpt lat="45.84485" lon="4.70017">
        <ele>283.35223</ele>
        <time>2023-11-26T15:23:44.000Z</time>
      </trkpt>
      <trkpt lat="45.84483" lon="4.7002">
        <ele>283.94977</ele>
        <time>2023-11-26T15:23:45.000Z</time>
      </trkpt>
      <trkpt lat="45.84482" lon="4.70024">
        <ele>284.44363</ele>
        <time>2023-11-26T15:23:46.000Z</time>
      </trkpt>
      <trkpt lat="45.8448" lon="4.70028">
        <ele>284.80319</ele>
        <time>2023-11-26T15:23:47.000Z</time>
      </trkpt>
      <trkpt lat="45.84477" lon="4.70033">
        <ele>284.69122</ele>
        <time>2023-11-26T15:23:48.000Z</time>
      </trkpt>
      <trkpt lat="45.84475" lon="4.70038">
        <ele>284.6149</ele>
        <time>2023-11-26T15:23:49.000Z</time>
      </trkpt>
      <trkpt lat="45.84473" lon="4.70042">
        <ele>284.52591</ele>
        <time>2023-11-26T15:23:50.000Z</time>
      </trkpt>
      <trkpt lat="45.84471" lon="4.70046">
        <ele>284.51031</ele>
        <time>2023-11-26T15:23:51.000Z</time>
      </trkpt>
      <trkpt lat="45.84469" lon="4.70049">
        <ele>284.51001</ele>
        <time>2023-11-26T15:23:52.000Z</time>
      </trkpt>
      <trkpt lat="45.84467" lon="4.70053">
        <ele>284.43585</ele>
        <time>2023-11-26T15:23:53.000Z</time>
      </trkpt>
      <trkpt lat="45.84464" lon="4.70057">
        <ele>284.33588</ele>
        <time>2023-11-26T15:23:54.000Z</time>
      </trkpt>
      <trkpt lat="45.84462" lon="4.7006">
        <ele>284.19989</ele>
        <time>2023-11-26T15:23:55.000Z</time>
      </trkpt>
      <trkpt lat="45.8446" lon="4.70062">
        <ele>284.00696</ele>
        <time>2023-11-26T15:23:56.000Z</time>
      </trkpt>
      <trkpt lat="45.84458" lon="4.70065">
        <ele>283.94342</ele>
        <time>2023-11-26T15:23:57.000Z</time>
      </trkpt>
      <trkpt lat="45.84457" lon="4.70067">
        <ele>283.92426</ele>
        <time>2023-11-26T15:23:58.000Z</time>
      </trkpt>
      <trkpt lat="45.84457" lon="4.70071">
        <ele>284.0444</ele>
        <time>2023-11-26T15:24:00.000Z</time>
      </trkpt>
      <trkpt lat="45.84458" lon="4.70074">
        <ele>284.14252</ele>
        <time>2023-11-26T15:24:01.000Z</time>
      </trkpt>
      <trkpt lat="45.84458" lon="4.70076">
        <ele>284.25983</ele>
        <time>2023-11-26T15:24:02.000Z</time>
      </trkpt>
      <trkpt lat="45.84457" lon="4.70079">
        <ele>284.02087</ele>
        <time>2023-11-26T15:24:03.000Z</time>
      </trkpt>
      <trkpt lat="45.84456" lon="4.70082">
        <ele>283.78754</ele>
        <time>2023-11-26T15:24:04.000Z</time>
      </trkpt>
      <trkpt lat="45.84454" lon="4.70084">
        <ele>283.54935</ele>
        <time>2023-11-26T15:24:06.000Z</time>
      </trkpt>
      <trkpt lat="45.84452" lon="4.70085">
        <ele>283.55936</ele>
        <time>2023-11-26T15:24:07.000Z</time>
      </trkpt>
      <trkpt lat="45.8445" lon="4.70088">
        <ele>283.58539</ele>
        <time>2023-11-26T15:24:09.000Z</time>
      </trkpt>
      <trkpt lat="45.84448" lon="4.70089">
        <ele>283.66815</ele>
        <time>2023-11-26T15:24:11.000Z</time>
      </trkpt>
      <trkpt lat="45.84446" lon="4.70089">
        <ele>283.95532</ele>
        <time>2023-11-26T15:24:14.000Z</time>
      </trkpt>
      <trkpt lat="45.84444" lon="4.70089">
        <ele>284.21881</ele>
        <time>2023-11-26T15:24:19.000Z</time>
      </trkpt>
      <trkpt lat="45.84441" lon="4.70092">
        <ele>284.69406</ele>
        <time>2023-11-26T15:24:29.000Z</time>
      </trkpt>
      <trkpt lat="45.84438" lon="4.70096">
        <ele>284.91406</ele>
        <time>2023-11-26T15:24:31.000Z</time>
      </trkpt>
      <trkpt lat="45.84436" lon="4.70098">
        <ele>285.15878</ele>
        <time>2023-11-26T15:24:32.000Z</time>
      </trkpt>
      <trkpt lat="45.84434" lon="4.70101">
        <ele>285.43805</ele>
        <time>2023-11-26T15:24:33.000Z</time>
      </trkpt>
      <trkpt lat="45.84433" lon="4.70104">
        <ele>285.61481</ele>
        <time>2023-11-26T15:24:34.000Z</time>
      </trkpt>
      <trkpt lat="45.84431" lon="4.70106">
        <ele>285.79724</ele>
        <time>2023-11-26T15:24:35.000Z</time>
      </trkpt>
      <trkpt lat="45.84429" lon="4.70109">
        <ele>285.95889</ele>
        <time>2023-11-26T15:24:36.000Z</time>
      </trkpt>
      <trkpt lat="45.84427" lon="4.7011">
        <ele>286.03937</ele>
        <time>2023-11-26T15:24:37.000Z</time>
      </trkpt>
      <trkpt lat="45.84424" lon="4.70112">
        <ele>286.03058</ele>
        <time>2023-11-26T15:24:38.000Z</time>
      </trkpt>
      <trkpt lat="45.8442" lon="4.70113">
        <ele>286.19473</ele>
        <time>2023-11-26T15:24:39.000Z</time>
      </trkpt>
      <trkpt lat="45.84416" lon="4.70114">
        <ele>286.29877</ele>
        <time>2023-11-26T15:24:40.000Z</time>
      </trkpt>
      <trkpt lat="45.84412" lon="4.70114">
        <ele>286.38586</ele>
        <time>2023-11-26T15:24:41.000Z</time>
      </trkpt>
      <trkpt lat="45.84409" lon="4.70113">
        <ele>286.38904</ele>
        <time>2023-11-26T15:24:42.000Z</time>
      </trkpt>
      <trkpt lat="45.84405" lon="4.70112">
        <ele>286.40332</ele>
        <time>2023-11-26T15:24:43.000Z</time>
      </trkpt>
      <trkpt lat="45.84401" lon="4.70112">
        <ele>286.37604</ele>
        <time>2023-11-26T15:24:44.000Z</time>
      </trkpt>
      <trkpt lat="45.84397" lon="4.70112">
        <ele>286.06799</ele>
        <time>2023-11-26T15:24:45.000Z</time>
      </trkpt>
      <trkpt lat="45.84393" lon="4.70112">
        <ele>285.75732</ele>
        <time>2023-11-26T15:24:46.000Z</time>
      </trkpt>
      <trkpt lat="45.84389" lon="4.70111">
        <ele>285.59659</ele>
        <time>2023-11-26T15:24:47.000Z</time>
      </trkpt>
      <trkpt lat="45.84386" lon="4.70111">
        <ele>285.52325</ele>
        <time>2023-11-26T15:24:48.000Z</time>
      </trkpt>
      <trkpt lat="45.84379" lon="4.70109">
        <ele>285.42667</ele>
        <time>2023-11-26T15:24:49.000Z</time>
      </trkpt>
      <trkpt lat="45.84373" lon="4.70108">
        <ele>285.14456</ele>
        <time>2023-11-26T15:24:50.000Z</time>
      </trkpt>
      <trkpt lat="45.84369" lon="4.70107">
        <ele>285.22208</ele>
        <time>2023-11-26T15:24:51.000Z</time>
      </trkpt>
      <trkpt lat="45.84365" lon="4.70106">
        <ele>284.83319</ele>
        <time>2023-11-26T15:24:52.000Z</time>
      </trkpt>
      <trkpt lat="45.8436" lon="4.70105">
        <ele>284.50897</ele>
        <time>2023-11-26T15:24:53.000Z</time>
      </trkpt>
      <trkpt lat="45.84356" lon="4.70105">
        <ele>284.1376</ele>
        <time>2023-11-26T15:24:54.000Z</time>
      </trkpt>
      <trkpt lat="45.84352" lon="4.70104">
        <ele>283.74042</ele>
        <time>2023-11-26T15:24:55.000Z</time>
      </trkpt>
      <trkpt lat="45.84348" lon="4.70102">
        <ele>283.39044</ele>
        <time>2023-11-26T15:24:56.000Z</time>
      </trkpt>
      <trkpt lat="45.84345" lon="4.701">
        <ele>283.19144</ele>
        <time>2023-11-26T15:24:57.000Z</time>
      </trkpt>
      <trkpt lat="45.84341" lon="4.70097">
        <ele>283.07581</ele>
        <time>2023-11-26T15:24:58.000Z</time>
      </trkpt>
      <trkpt lat="45.84336" lon="4.70094">
        <ele>282.95624</ele>
        <time>2023-11-26T15:24:59.000Z</time>
      </trkpt>
      <trkpt lat="45.84332" lon="4.70092">
        <ele>282.77786</ele>
        <time>2023-11-26T15:25:00.000Z</time>
      </trkpt>
      <trkpt lat="45.84328" lon="4.70089">
        <ele>282.59485</ele>
        <time>2023-11-26T15:25:01.000Z</time>
      </trkpt>
      <trkpt lat="45.84324" lon="4.70087">
        <ele>282.47543</ele>
        <time>2023-11-26T15:25:02.000Z</time>
      </trkpt>
      <trkpt lat="45.8432" lon="4.70084">
        <ele>282.35138</ele>
        <time>2023-11-26T15:25:03.000Z</time>
      </trkpt>
      <trkpt lat="45.84316" lon="4.70081">
        <ele>282.25763</ele>
        <time>2023-11-26T15:25:04.000Z</time>
      </trkpt>
      <trkpt lat="45.84312" lon="4.70079">
        <ele>282.18356</ele>
        <time>2023-11-26T15:25:05.000Z</time>
      </trkpt>
      <trkpt lat="45.84308" lon="4.70076">
        <ele>282.30762</ele>
        <time>2023-11-26T15:25:06.000Z</time>
      </trkpt>
      <trkpt lat="45.84304" lon="4.70074">
        <ele>282.20786</ele>
        <time>2023-11-26T15:25:07.000Z</time>
      </trkpt>
      <trkpt lat="45.843" lon="4.70071">
        <ele>282.19171</ele>
        <time>2023-11-26T15:25:08.000Z</time>
      </trkpt>
      <trkpt lat="45.84296" lon="4.70068">
        <ele>282.21307</ele>
        <time>2023-11-26T15:25:09.000Z</time>
      </trkpt>
      <trkpt lat="45.84292" lon="4.70064">
        <ele>282.24783</ele>
        <time>2023-11-26T15:25:10.000Z</time>
      </trkpt>
      <trkpt lat="45.84289" lon="4.70061">
        <ele>282.18961</ele>
        <time>2023-11-26T15:25:11.000Z</time>
      </trkpt>
      <trkpt lat="45.84285" lon="4.70057">
        <ele>282.45364</ele>
        <time>2023-11-26T15:25:12.000Z</time>
      </trkpt>
      <trkpt lat="45.84282" lon="4.70053">
        <ele>282.65509</ele>
        <time>2023-11-26T15:25:13.000Z</time>
      </trkpt>
      <trkpt lat="45.84278" lon="4.7005">
        <ele>282.81198</ele>
        <time>2023-11-26T15:25:14.000Z</time>
      </trkpt>
      <trkpt lat="45.84275" lon="4.70048">
        <ele>282.96051</ele>
        <time>2023-11-26T15:25:15.000Z</time>
      </trkpt>
      <trkpt lat="45.84272" lon="4.70046">
        <ele>283.12787</ele>
        <time>2023-11-26T15:25:16.000Z</time>
      </trkpt>
      <trkpt lat="45.84268" lon="4.70045">
        <ele>283.22125</ele>
        <time>2023-11-26T15:25:17.000Z</time>
      </trkpt>
      <trkpt lat="45.84264" lon="4.70044">
        <ele>283.42493</ele>
        <time>2023-11-26T15:25:18.000Z</time>
      </trkpt>
      <trkpt lat="45.8426" lon="4.70044">
        <ele>283.21152</ele>
        <time>2023-11-26T15:25:19.000Z</time>
      </trkpt>
      <trkpt lat="45.84256" lon="4.70044">
        <ele>283.18002</ele>
        <time>2023-11-26T15:25:20.000Z</time>
      </trkpt>
      <trkpt lat="45.84252" lon="4.70044">
        <ele>283.16638</ele>
        <time>2023-11-26T15:25:21.000Z</time>
      </trkpt>
      <trkpt lat="45.84248" lon="4.70044">
        <ele>283.07242</ele>
        <time>2023-11-26T15:25:22.000Z</time>
      </trkpt>
      <trkpt lat="45.84244" lon="4.70044">
        <ele>283.11258</ele>
        <time>2023-11-26T15:25:23.000Z</time>
      </trkpt>
      <trkpt lat="45.8424" lon="4.70045">
        <ele>283.16635</ele>
        <time>2023-11-26T15:25:24.000Z</time>
      </trkpt>
      <trkpt lat="45.84237" lon="4.70045">
        <ele>283.32751</ele>
        <time>2023-11-26T15:25:25.000Z</time>
      </trkpt>
      <trkpt lat="45.84234" lon="4.70047">
        <ele>283.19128</ele>
        <time>2023-11-26T15:25:26.000Z</time>
      </trkpt>
      <trkpt lat="45.8423" lon="4.70049">
        <ele>283.29889</ele>
        <time>2023-11-26T15:25:27.000Z</time>
      </trkpt>
      <trkpt lat="45.84227" lon="4.70052">
        <ele>283.33368</ele>
        <time>2023-11-26T15:25:28.000Z</time>
      </trkpt>
      <trkpt lat="45.84223" lon="4.70054">
        <ele>283.43488</ele>
        <time>2023-11-26T15:25:29.000Z</time>
      </trkpt>
      <trkpt lat="45.84219" lon="4.70055">
        <ele>283.45941</ele>
        <time>2023-11-26T15:25:30.000Z</time>
      </trkpt>
      <trkpt lat="45.84215" lon="4.70057">
        <ele>283.55463</ele>
        <time>2023-11-26T15:25:31.000Z</time>
      </trkpt>
      <trkpt lat="45.84211" lon="4.70059">
        <ele>283.39548</ele>
        <time>2023-11-26T15:25:32.000Z</time>
      </trkpt>
      <trkpt lat="45.84208" lon="4.70061">
        <ele>283.37073</ele>
        <time>2023-11-26T15:25:33.000Z</time>
      </trkpt>
      <trkpt lat="45.84205" lon="4.70063">
        <ele>283.38824</ele>
        <time>2023-11-26T15:25:34.000Z</time>
      </trkpt>
      <trkpt lat="45.84202" lon="4.70065">
        <ele>283.43277</ele>
        <time>2023-11-26T15:25:35.000Z</time>
      </trkpt>
      <trkpt lat="45.84199" lon="4.70068">
        <ele>283.36011</ele>
        <time>2023-11-26T15:25:36.000Z</time>
      </trkpt>
      <trkpt lat="45.84195" lon="4.70071">
        <ele>283.16974</ele>
        <time>2023-11-26T15:25:37.000Z</time>
      </trkpt>
      <trkpt lat="45.84191" lon="4.70073">
        <ele>282.86295</ele>
        <time>2023-11-26T15:25:38.000Z</time>
      </trkpt>
      <trkpt lat="45.84188" lon="4.70075">
        <ele>283.02747</ele>
        <time>2023-11-26T15:25:39.000Z</time>
      </trkpt>
      <trkpt lat="45.84184" lon="4.70078">
        <ele>283.07886</ele>
        <time>2023-11-26T15:25:40.000Z</time>
      </trkpt>
      <trkpt lat="45.84181" lon="4.7008">
        <ele>283.14374</ele>
        <time>2023-11-26T15:25:41.000Z</time>
      </trkpt>
      <trkpt lat="45.84177" lon="4.70081">
        <ele>283.26303</ele>
        <time>2023-11-26T15:25:42.000Z</time>
      </trkpt>
      <trkpt lat="45.84174" lon="4.70082">
        <ele>283.25519</ele>
        <time>2023-11-26T15:25:43.000Z</time>
      </trkpt>
      <trkpt lat="45.8417" lon="4.70084">
        <ele>283.25256</ele>
        <time>2023-11-26T15:25:44.000Z</time>
      </trkpt>
      <trkpt lat="45.84167" lon="4.70085">
        <ele>283.37244</ele>
        <time>2023-11-26T15:25:45.000Z</time>
      </trkpt>
      <trkpt lat="45.84164" lon="4.70086">
        <ele>283.64532</ele>
        <time>2023-11-26T15:25:46.000Z</time>
      </trkpt>
      <trkpt lat="45.8416" lon="4.70089">
        <ele>283.43518</ele>
        <time>2023-11-26T15:25:47.000Z</time>
      </trkpt>
      <trkpt lat="45.84157" lon="4.70091">
        <ele>283.3255</ele>
        <time>2023-11-26T15:25:48.000Z</time>
      </trkpt>
      <trkpt lat="45.84153" lon="4.70094">
        <ele>283.18436</ele>
        <time>2023-11-26T15:25:49.000Z</time>
      </trkpt>
      <trkpt lat="45.8415" lon="4.70098">
        <ele>283.10107</ele>
        <time>2023-11-26T15:25:50.000Z</time>
      </trkpt>
      <trkpt lat="45.84147" lon="4.70101">
        <ele>282.88898</ele>
        <time>2023-11-26T15:25:51.000Z</time>
      </trkpt>
      <trkpt lat="45.84144" lon="4.70104">
        <ele>283.04843</ele>
        <time>2023-11-26T15:25:52.000Z</time>
      </trkpt>
      <trkpt lat="45.84142" lon="4.70106">
        <ele>283.08182</ele>
        <time>2023-11-26T15:25:53.000Z</time>
      </trkpt>
      <trkpt lat="45.84139" lon="4.70109">
        <ele>283.40677</ele>
        <time>2023-11-26T15:25:54.000Z</time>
      </trkpt>
      <trkpt lat="45.84136" lon="4.70113">
        <ele>283.57001</ele>
        <time>2023-11-26T15:25:55.000Z</time>
      </trkpt>
      <trkpt lat="45.84134" lon="4.70116">
        <ele>283.8588</ele>
        <time>2023-11-26T15:25:56.000Z</time>
      </trkpt>
      <trkpt lat="45.84131" lon="4.70119">
        <ele>284.37869</ele>
        <time>2023-11-26T15:25:57.000Z</time>
      </trkpt>
      <trkpt lat="45.84128" lon="4.70121">
        <ele>284.95032</ele>
        <time>2023-11-26T15:25:58.000Z</time>
      </trkpt>
      <trkpt lat="45.84125" lon="4.70124">
        <ele>285.55014</ele>
        <time>2023-11-26T15:25:59.000Z</time>
      </trkpt>
      <trkpt lat="45.84122" lon="4.70126">
        <ele>286.15903</ele>
        <time>2023-11-26T15:26:00.000Z</time>
      </trkpt>
      <trkpt lat="45.8412" lon="4.70128">
        <ele>286.45227</ele>
        <time>2023-11-26T15:26:01.000Z</time>
      </trkpt>
      <trkpt lat="45.84117" lon="4.7013">
        <ele>286.72491</ele>
        <time>2023-11-26T15:26:02.000Z</time>
      </trkpt>
      <trkpt lat="45.84114" lon="4.70132">
        <ele>287.03046</ele>
        <time>2023-11-26T15:26:03.000Z</time>
      </trkpt>
      <trkpt lat="45.84112" lon="4.70134">
        <ele>287.32843</ele>
        <time>2023-11-26T15:26:04.000Z</time>
      </trkpt>
      <trkpt lat="45.84109" lon="4.70136">
        <ele>287.40582</ele>
        <time>2023-11-26T15:26:05.000Z</time>
      </trkpt>
      <trkpt lat="45.84107" lon="4.70139">
        <ele>287.46091</ele>
        <time>2023-11-26T15:26:06.000Z</time>
      </trkpt>
      <trkpt lat="45.84104" lon="4.70143">
        <ele>288.20825</ele>
        <time>2023-11-26T15:26:07.000Z</time>
      </trkpt>
      <trkpt lat="45.84103" lon="4.70147">
        <ele>288.66925</ele>
        <time>2023-11-26T15:26:08.000Z</time>
      </trkpt>
      <trkpt lat="45.84103" lon="4.70151">
        <ele>289.08029</ele>
        <time>2023-11-26T15:26:09.000Z</time>
      </trkpt>
      <trkpt lat="45.84104" lon="4.70155">
        <ele>289.51715</ele>
        <time>2023-11-26T15:26:10.000Z</time>
      </trkpt>
      <trkpt lat="45.84104" lon="4.70159">
        <ele>289.93488</ele>
        <time>2023-11-26T15:26:11.000Z</time>
      </trkpt>
      <trkpt lat="45.84105" lon="4.70163">
        <ele>290.33258</ele>
        <time>2023-11-26T15:26:12.000Z</time>
      </trkpt>
      <trkpt lat="45.84106" lon="4.70168">
        <ele>290.88995</ele>
        <time>2023-11-26T15:26:13.000Z</time>
      </trkpt>
      <trkpt lat="45.84106" lon="4.70173">
        <ele>291.19928</ele>
        <time>2023-11-26T15:26:14.000Z</time>
      </trkpt>
      <trkpt lat="45.84107" lon="4.70177">
        <ele>291.6741</ele>
        <time>2023-11-26T15:26:15.000Z</time>
      </trkpt>
      <trkpt lat="45.84107" lon="4.70182">
        <ele>292.13425</ele>
        <time>2023-11-26T15:26:16.000Z</time>
      </trkpt>
      <trkpt lat="45.84107" lon="4.70186">
        <ele>292.41275</ele>
        <time>2023-11-26T15:26:17.000Z</time>
      </trkpt>
      <trkpt lat="45.84108" lon="4.70191">
        <ele>292.59665</ele>
        <time>2023-11-26T15:26:18.000Z</time>
      </trkpt>
      <trkpt lat="45.84108" lon="4.70196">
        <ele>292.7608</ele>
        <time>2023-11-26T15:26:19.000Z</time>
      </trkpt>
      <trkpt lat="45.84109" lon="4.702">
        <ele>292.91</ele>
        <time>2023-11-26T15:26:20.000Z</time>
      </trkpt>
      <trkpt lat="45.84109" lon="4.70205">
        <ele>293.35052</ele>
        <time>2023-11-26T15:26:21.000Z</time>
      </trkpt>
      <trkpt lat="45.8411" lon="4.7021">
        <ele>293.76419</ele>
        <time>2023-11-26T15:26:22.000Z</time>
      </trkpt>
      <trkpt lat="45.8411" lon="4.70215">
        <ele>294.14301</ele>
        <time>2023-11-26T15:26:23.000Z</time>
      </trkpt>
      <trkpt lat="45.8411" lon="4.7022">
        <ele>294.49286</ele>
        <time>2023-11-26T15:26:24.000Z</time>
      </trkpt>
      <trkpt lat="45.8411" lon="4.70226">
        <ele>294.86179</ele>
        <time>2023-11-26T15:26:25.000Z</time>
      </trkpt>
      <trkpt lat="45.8411" lon="4.70231">
        <ele>295.21588</ele>
        <time>2023-11-26T15:26:26.000Z</time>
      </trkpt>
      <trkpt lat="45.84111" lon="4.70237">
        <ele>295.18579</ele>
        <time>2023-11-26T15:26:27.000Z</time>
      </trkpt>
      <trkpt lat="45.84111" lon="4.70243">
        <ele>295.49115</ele>
        <time>2023-11-26T15:26:28.000Z</time>
      </trkpt>
      <trkpt lat="45.84111" lon="4.70249">
        <ele>295.44727</ele>
        <time>2023-11-26T15:26:29.000Z</time>
      </trkpt>
      <trkpt lat="45.84112" lon="4.70255">
        <ele>295.444</ele>
        <time>2023-11-26T15:26:30.000Z</time>
      </trkpt>
      <trkpt lat="45.84112" lon="4.7026">
        <ele>295.44064</ele>
        <time>2023-11-26T15:26:31.000Z</time>
      </trkpt>
      <trkpt lat="45.84112" lon="4.70265">
        <ele>295.46042</ele>
        <time>2023-11-26T15:26:32.000Z</time>
      </trkpt>
      <trkpt lat="45.84113" lon="4.70271">
        <ele>295.30652</ele>
        <time>2023-11-26T15:26:33.000Z</time>
      </trkpt>
      <trkpt lat="45.84113" lon="4.70277">
        <ele>295.1264</ele>
        <time>2023-11-26T15:26:34.000Z</time>
      </trkpt>
      <trkpt lat="45.84114" lon="4.70282">
        <ele>294.95267</ele>
        <time>2023-11-26T15:26:35.000Z</time>
      </trkpt>
      <trkpt lat="45.84114" lon="4.70288">
        <ele>294.77551</ele>
        <time>2023-11-26T15:26:36.000Z</time>
      </trkpt>
      <trkpt lat="45.84115" lon="4.70294">
        <ele>294.59918</ele>
        <time>2023-11-26T15:26:37.000Z</time>
      </trkpt>
      <trkpt lat="45.84115" lon="4.70299">
        <ele>294.39383</ele>
        <time>2023-11-26T15:26:38.000Z</time>
      </trkpt>
      <trkpt lat="45.84116" lon="4.70305">
        <ele>293.9668</ele>
        <time>2023-11-26T15:26:39.000Z</time>
      </trkpt>
      <trkpt lat="45.84116" lon="4.70309">
        <ele>293.82098</ele>
        <time>2023-11-26T15:26:40.000Z</time>
      </trkpt>
      <trkpt lat="45.84116" lon="4.70314">
        <ele>293.68192</ele>
        <time>2023-11-26T15:26:41.000Z</time>
      </trkpt>
      <trkpt lat="45.84116" lon="4.70319">
        <ele>293.565</ele>
        <time>2023-11-26T15:26:42.000Z</time>
      </trkpt>
      <trkpt lat="45.84116" lon="4.70323">
        <ele>293.44635</ele>
        <time>2023-11-26T15:26:43.000Z</time>
      </trkpt>
      <trkpt lat="45.84117" lon="4.70328">
        <ele>293.36856</ele>
        <time>2023-11-26T15:26:44.000Z</time>
      </trkpt>
      <trkpt lat="45.84117" lon="4.70332">
        <ele>293.25552</ele>
        <time>2023-11-26T15:26:45.000Z</time>
      </trkpt>
      <trkpt lat="45.84117" lon="4.70336">
        <ele>293.13055</ele>
        <time>2023-11-26T15:26:46.000Z</time>
      </trkpt>
      <trkpt lat="45.84117" lon="4.70339">
        <ele>293.01456</ele>
        <time>2023-11-26T15:26:47.000Z</time>
      </trkpt>
      <trkpt lat="45.84117" lon="4.70344">
        <ele>292.8028</ele>
        <time>2023-11-26T15:26:48.000Z</time>
      </trkpt>
      <trkpt lat="45.84117" lon="4.70348">
        <ele>292.92426</ele>
        <time>2023-11-26T15:26:49.000Z</time>
      </trkpt>
      <trkpt lat="45.84116" lon="4.70352">
        <ele>293.00031</ele>
        <time>2023-11-26T15:26:50.000Z</time>
      </trkpt>
      <trkpt lat="45.84115" lon="4.70356">
        <ele>293.08795</ele>
        <time>2023-11-26T15:26:51.000Z</time>
      </trkpt>
      <trkpt lat="45.84112" lon="4.70359">
        <ele>293.14963</ele>
        <time>2023-11-26T15:26:52.000Z</time>
      </trkpt>
      <trkpt lat="45.84108" lon="4.70361">
        <ele>293.22528</ele>
        <time>2023-11-26T15:26:53.000Z</time>
      </trkpt>
      <trkpt lat="45.84105" lon="4.70363">
        <ele>293.30685</ele>
        <time>2023-11-26T15:26:54.000Z</time>
      </trkpt>
      <trkpt lat="45.84101" lon="4.70365">
        <ele>293.41364</ele>
        <time>2023-11-26T15:26:55.000Z</time>
      </trkpt>
      <trkpt lat="45.84097" lon="4.70367">
        <ele>293.50644</ele>
        <time>2023-11-26T15:26:56.000Z</time>
      </trkpt>
      <trkpt lat="45.84093" lon="4.7037">
        <ele>293.59756</ele>
        <time>2023-11-26T15:26:57.000Z</time>
      </trkpt>
      <trkpt lat="45.84089" lon="4.70372">
        <ele>293.72385</ele>
        <time>2023-11-26T15:26:58.000Z</time>
      </trkpt>
      <trkpt lat="45.84086" lon="4.70374">
        <ele>294.06854</ele>
        <time>2023-11-26T15:26:59.000Z</time>
      </trkpt>
      <trkpt lat="45.84082" lon="4.70377">
        <ele>294.15396</ele>
        <time>2023-11-26T15:27:00.000Z</time>
      </trkpt>
      <trkpt lat="45.84078" lon="4.70379">
        <ele>294.24396</ele>
        <time>2023-11-26T15:27:01.000Z</time>
      </trkpt>
      <trkpt lat="45.84073" lon="4.70382">
        <ele>294.33932</ele>
        <time>2023-11-26T15:27:02.000Z</time>
      </trkpt>
      <trkpt lat="45.84069" lon="4.70385">
        <ele>294.4498</ele>
        <time>2023-11-26T15:27:03.000Z</time>
      </trkpt>
      <trkpt lat="45.84066" lon="4.70388">
        <ele>294.52548</ele>
        <time>2023-11-26T15:27:04.000Z</time>
      </trkpt>
      <trkpt lat="45.84062" lon="4.70389">
        <ele>294.63879</ele>
        <time>2023-11-26T15:27:05.000Z</time>
      </trkpt>
      <trkpt lat="45.84058" lon="4.70392">
        <ele>294.77655</ele>
        <time>2023-11-26T15:27:06.000Z</time>
      </trkpt>
      <trkpt lat="45.84054" lon="4.70394">
        <ele>294.92813</ele>
        <time>2023-11-26T15:27:07.000Z</time>
      </trkpt>
      <trkpt lat="45.84049" lon="4.70397">
        <ele>295.19357</ele>
        <time>2023-11-26T15:27:08.000Z</time>
      </trkpt>
      <trkpt lat="45.84045" lon="4.70398">
        <ele>295.56293</ele>
        <time>2023-11-26T15:27:09.000Z</time>
      </trkpt>
      <trkpt lat="45.8404" lon="4.704">
        <ele>295.94482</ele>
        <time>2023-11-26T15:27:10.000Z</time>
      </trkpt>
      <trkpt lat="45.84036" lon="4.70402">
        <ele>296.3118</ele>
        <time>2023-11-26T15:27:11.000Z</time>
      </trkpt>
      <trkpt lat="45.84032" lon="4.70404">
        <ele>296.3894</ele>
        <time>2023-11-26T15:27:12.000Z</time>
      </trkpt>
      <trkpt lat="45.84028" lon="4.70406">
        <ele>296.53241</ele>
        <time>2023-11-26T15:27:13.000Z</time>
      </trkpt>
      <trkpt lat="45.84024" lon="4.70408">
        <ele>296.6767</ele>
        <time>2023-11-26T15:27:14.000Z</time>
      </trkpt>
      <trkpt lat="45.8402" lon="4.7041">
        <ele>296.78549</ele>
        <time>2023-11-26T15:27:15.000Z</time>
      </trkpt>
      <trkpt lat="45.84015" lon="4.70412">
        <ele>296.8786</ele>
        <time>2023-11-26T15:27:16.000Z</time>
      </trkpt>
      <trkpt lat="45.84012" lon="4.70413">
        <ele>296.84308</ele>
        <time>2023-11-26T15:27:17.000Z</time>
      </trkpt>
      <trkpt lat="45.84008" lon="4.70415">
        <ele>296.6976</ele>
        <time>2023-11-26T15:27:18.000Z</time>
      </trkpt>
      <trkpt lat="45.84003" lon="4.70417">
        <ele>296.522</ele>
        <time>2023-11-26T15:27:19.000Z</time>
      </trkpt>
      <trkpt lat="45.83998" lon="4.70419">
        <ele>296.30548</ele>
        <time>2023-11-26T15:27:20.000Z</time>
      </trkpt>
      <trkpt lat="45.83994" lon="4.7042">
        <ele>296.07709</ele>
        <time>2023-11-26T15:27:21.000Z</time>
      </trkpt>
      <trkpt lat="45.8399" lon="4.70422">
        <ele>295.8548</ele>
        <time>2023-11-26T15:27:22.000Z</time>
      </trkpt>
      <trkpt lat="45.83986" lon="4.70423">
        <ele>295.64642</ele>
        <time>2023-11-26T15:27:23.000Z</time>
      </trkpt>
      <trkpt lat="45.83981" lon="4.70425">
        <ele>295.45419</ele>
        <time>2023-11-26T15:27:24.000Z</time>
      </trkpt>
      <trkpt lat="45.83977" lon="4.70428">
        <ele>294.9986</ele>
        <time>2023-11-26T15:27:25.000Z</time>
      </trkpt>
      <trkpt lat="45.83973" lon="4.70431">
        <ele>294.52109</ele>
        <time>2023-11-26T15:27:26.000Z</time>
      </trkpt>
      <trkpt lat="45.83969" lon="4.70434">
        <ele>294.66357</ele>
        <time>2023-11-26T15:27:27.000Z</time>
      </trkpt>
      <trkpt lat="45.83964" lon="4.70438">
        <ele>294.24753</ele>
        <time>2023-11-26T15:27:28.000Z</time>
      </trkpt>
      <trkpt lat="45.8396" lon="4.7044">
        <ele>293.76889</ele>
        <time>2023-11-26T15:27:29.000Z</time>
      </trkpt>
      <trkpt lat="45.83957" lon="4.70443">
        <ele>293.30756</ele>
        <time>2023-11-26T15:27:30.000Z</time>
      </trkpt>
      <trkpt lat="45.83954" lon="4.70446">
        <ele>293.22223</ele>
        <time>2023-11-26T15:27:31.000Z</time>
      </trkpt>
      <trkpt lat="45.83951" lon="4.70449">
        <ele>293.43521</ele>
        <time>2023-11-26T15:27:32.000Z</time>
      </trkpt>
      <trkpt lat="45.83947" lon="4.70451">
        <ele>293.64288</ele>
        <time>2023-11-26T15:27:33.000Z</time>
      </trkpt>
      <trkpt lat="45.83944" lon="4.70453">
        <ele>293.87848</ele>
        <time>2023-11-26T15:27:34.000Z</time>
      </trkpt>
      <trkpt lat="45.83942" lon="4.70455">
        <ele>294.1358</ele>
        <time>2023-11-26T15:27:35.000Z</time>
      </trkpt>
      <trkpt lat="45.83939" lon="4.70458">
        <ele>294.09537</ele>
        <time>2023-11-26T15:27:36.000Z</time>
      </trkpt>
      <trkpt lat="45.83937" lon="4.7046">
        <ele>294.23029</ele>
        <time>2023-11-26T15:27:37.000Z</time>
      </trkpt>
      <trkpt lat="45.83935" lon="4.70461">
        <ele>294.46088</ele>
        <time>2023-11-26T15:27:38.000Z</time>
      </trkpt>
      <trkpt lat="45.83933" lon="4.70464">
        <ele>294.72189</ele>
        <time>2023-11-26T15:27:39.000Z</time>
      </trkpt>
      <trkpt lat="45.83931" lon="4.70466">
        <ele>295.01605</ele>
        <time>2023-11-26T15:27:40.000Z</time>
      </trkpt>
      <trkpt lat="45.83929" lon="4.70469">
        <ele>295.31299</ele>
        <time>2023-11-26T15:27:41.000Z</time>
      </trkpt>
      <trkpt lat="45.83926" lon="4.70471">
        <ele>295.57996</ele>
        <time>2023-11-26T15:27:42.000Z</time>
      </trkpt>
      <trkpt lat="45.83924" lon="4.70474">
        <ele>295.83264</ele>
        <time>2023-11-26T15:27:43.000Z</time>
      </trkpt>
      <trkpt lat="45.83921" lon="4.70476">
        <ele>296.06204</ele>
        <time>2023-11-26T15:27:44.000Z</time>
      </trkpt>
      <trkpt lat="45.83918" lon="4.70478">
        <ele>296.53815</ele>
        <time>2023-11-26T15:27:45.000Z</time>
      </trkpt>
      <trkpt lat="45.83915" lon="4.7048">
        <ele>297.02679</ele>
        <time>2023-11-26T15:27:46.000Z</time>
      </trkpt>
      <trkpt lat="45.83912" lon="4.70482">
        <ele>297.02444</ele>
        <time>2023-11-26T15:27:47.000Z</time>
      </trkpt>
      <trkpt lat="45.83909" lon="4.70484">
        <ele>297.5697</ele>
        <time>2023-11-26T15:27:48.000Z</time>
      </trkpt>
      <trkpt lat="45.83905" lon="4.70486">
        <ele>297.78619</ele>
        <time>2023-11-26T15:27:49.000Z</time>
      </trkpt>
      <trkpt lat="45.83902" lon="4.70487">
        <ele>298.05893</ele>
        <time>2023-11-26T15:27:50.000Z</time>
      </trkpt>
      <trkpt lat="45.83899" lon="4.70488">
        <ele>297.96109</ele>
        <time>2023-11-26T15:27:51.000Z</time>
      </trkpt>
      <trkpt lat="45.83895" lon="4.7049">
        <ele>297.84503</ele>
        <time>2023-11-26T15:27:52.000Z</time>
      </trkpt>
      <trkpt lat="45.83892" lon="4.70492">
        <ele>297.65085</ele>
        <time>2023-11-26T15:27:53.000Z</time>
      </trkpt>
      <trkpt lat="45.83888" lon="4.70494">
        <ele>297.39734</ele>
        <time>2023-11-26T15:27:54.000Z</time>
      </trkpt>
      <trkpt lat="45.83884" lon="4.70496">
        <ele>297.14151</ele>
        <time>2023-11-26T15:27:55.000Z</time>
      </trkpt>
      <trkpt lat="45.8388" lon="4.70498">
        <ele>297.20883</ele>
        <time>2023-11-26T15:27:56.000Z</time>
      </trkpt>
      <trkpt lat="45.83876" lon="4.705">
        <ele>297.24625</ele>
        <time>2023-11-26T15:27:57.000Z</time>
      </trkpt>
      <trkpt lat="45.83872" lon="4.70502">
        <ele>297.26959</ele>
        <time>2023-11-26T15:27:58.000Z</time>
      </trkpt>
      <trkpt lat="45.83869" lon="4.70504">
        <ele>297.29669</ele>
        <time>2023-11-26T15:27:59.000Z</time>
      </trkpt>
      <trkpt lat="45.83865" lon="4.70506">
        <ele>297.31149</ele>
        <time>2023-11-26T15:28:00.000Z</time>
      </trkpt>
      <trkpt lat="45.83861" lon="4.70508">
        <ele>297.3515</ele>
        <time>2023-11-26T15:28:01.000Z</time>
      </trkpt>
      <trkpt lat="45.83857" lon="4.70511">
        <ele>297.3963</ele>
        <time>2023-11-26T15:28:02.000Z</time>
      </trkpt>
      <trkpt lat="45.83853" lon="4.70513">
        <ele>297.42355</ele>
        <time>2023-11-26T15:28:03.000Z</time>
      </trkpt>
      <trkpt lat="45.8385" lon="4.70516">
        <ele>297.47964</ele>
        <time>2023-11-26T15:28:04.000Z</time>
      </trkpt>
      <trkpt lat="45.83846" lon="4.70519">
        <ele>297.51324</ele>
        <time>2023-11-26T15:28:05.000Z</time>
      </trkpt>
      <trkpt lat="45.83842" lon="4.70521">
        <ele>297.53601</ele>
        <time>2023-11-26T15:28:06.000Z</time>
      </trkpt>
      <trkpt lat="45.83839" lon="4.70524">
        <ele>297.40775</ele>
        <time>2023-11-26T15:28:07.000Z</time>
      </trkpt>
      <trkpt lat="45.83835" lon="4.70527">
        <ele>297.16504</ele>
        <time>2023-11-26T15:28:08.000Z</time>
      </trkpt>
      <trkpt lat="45.83831" lon="4.70531">
        <ele>297.25189</ele>
        <time>2023-11-26T15:28:09.000Z</time>
      </trkpt>
      <trkpt lat="45.83828" lon="4.70533">
        <ele>297.27792</ele>
        <time>2023-11-26T15:28:10.000Z</time>
      </trkpt>
      <trkpt lat="45.83825" lon="4.70536">
        <ele>297.33929</ele>
        <time>2023-11-26T15:28:11.000Z</time>
      </trkpt>
      <trkpt lat="45.83821" lon="4.70538">
        <ele>297.43655</ele>
        <time>2023-11-26T15:28:12.000Z</time>
      </trkpt>
      <trkpt lat="45.83817" lon="4.70541">
        <ele>297.56329</ele>
        <time>2023-11-26T15:28:13.000Z</time>
      </trkpt>
      <trkpt lat="45.83814" lon="4.70543">
        <ele>297.83609</ele>
        <time>2023-11-26T15:28:14.000Z</time>
      </trkpt>
      <trkpt lat="45.83809" lon="4.70546">
        <ele>298.08661</ele>
        <time>2023-11-26T15:28:15.000Z</time>
      </trkpt>
      <trkpt lat="45.83805" lon="4.70549">
        <ele>298.32425</ele>
        <time>2023-11-26T15:28:16.000Z</time>
      </trkpt>
      <trkpt lat="45.83802" lon="4.70551">
        <ele>298.54596</ele>
        <time>2023-11-26T15:28:17.000Z</time>
      </trkpt>
      <trkpt lat="45.83797" lon="4.70553">
        <ele>298.77869</ele>
        <time>2023-11-26T15:28:18.000Z</time>
      </trkpt>
      <trkpt lat="45.83793" lon="4.70556">
        <ele>299.02451</ele>
        <time>2023-11-26T15:28:19.000Z</time>
      </trkpt>
      <trkpt lat="45.8379" lon="4.70559">
        <ele>299.26556</ele>
        <time>2023-11-26T15:28:20.000Z</time>
      </trkpt>
      <trkpt lat="45.83786" lon="4.70562">
        <ele>299.57455</ele>
        <time>2023-11-26T15:28:21.000Z</time>
      </trkpt>
      <trkpt lat="45.83782" lon="4.70564">
        <ele>299.61896</ele>
        <time>2023-11-26T15:28:22.000Z</time>
      </trkpt>
      <trkpt lat="45.83778" lon="4.70566">
        <ele>299.72165</ele>
        <time>2023-11-26T15:28:23.000Z</time>
      </trkpt>
      <trkpt lat="45.83774" lon="4.70568">
        <ele>299.80853</ele>
        <time>2023-11-26T15:28:24.000Z</time>
      </trkpt>
      <trkpt lat="45.8377" lon="4.70571">
        <ele>299.9483</ele>
        <time>2023-11-26T15:28:25.000Z</time>
      </trkpt>
      <trkpt lat="45.83766" lon="4.70573">
        <ele>300.21768</ele>
        <time>2023-11-26T15:28:26.000Z</time>
      </trkpt>
      <trkpt lat="45.83762" lon="4.70575">
        <ele>300.59042</ele>
        <time>2023-11-26T15:28:27.000Z</time>
      </trkpt>
      <trkpt lat="45.83758" lon="4.70577">
        <ele>300.96036</ele>
        <time>2023-11-26T15:28:28.000Z</time>
      </trkpt>
      <trkpt lat="45.83754" lon="4.70579">
        <ele>301.02435</ele>
        <time>2023-11-26T15:28:29.000Z</time>
      </trkpt>
      <trkpt lat="45.8375" lon="4.70581">
        <ele>301.07681</ele>
        <time>2023-11-26T15:28:30.000Z</time>
      </trkpt>
      <trkpt lat="45.83746" lon="4.70582">
        <ele>301.12878</ele>
        <time>2023-11-26T15:28:31.000Z</time>
      </trkpt>
      <trkpt lat="45.83742" lon="4.70584">
        <ele>301.16473</ele>
        <time>2023-11-26T15:28:32.000Z</time>
      </trkpt>
      <trkpt lat="45.83738" lon="4.70585">
        <ele>301.18057</ele>
        <time>2023-11-26T15:28:33.000Z</time>
      </trkpt>
      <trkpt lat="45.83734" lon="4.70586">
        <ele>301.08844</ele>
        <time>2023-11-26T15:28:34.000Z</time>
      </trkpt>
      <trkpt lat="45.83729" lon="4.70587">
        <ele>301.01669</ele>
        <time>2023-11-26T15:28:35.000Z</time>
      </trkpt>
      <trkpt lat="45.83725" lon="4.70588">
        <ele>300.95505</ele>
        <time>2023-11-26T15:28:36.000Z</time>
      </trkpt>
      <trkpt lat="45.83721" lon="4.70589">
        <ele>300.9133</ele>
        <time>2023-11-26T15:28:37.000Z</time>
      </trkpt>
      <trkpt lat="45.83716" lon="4.70589">
        <ele>300.8909</ele>
        <time>2023-11-26T15:28:38.000Z</time>
      </trkpt>
      <trkpt lat="45.83713" lon="4.7059">
        <ele>300.84808</ele>
        <time>2023-11-26T15:28:39.000Z</time>
      </trkpt>
      <trkpt lat="45.83709" lon="4.70591">
        <ele>300.81714</ele>
        <time>2023-11-26T15:28:40.000Z</time>
      </trkpt>
      <trkpt lat="45.83704" lon="4.70592">
        <ele>300.69196</ele>
        <time>2023-11-26T15:28:41.000Z</time>
      </trkpt>
      <trkpt lat="45.83701" lon="4.70593">
        <ele>300.86578</ele>
        <time>2023-11-26T15:28:42.000Z</time>
      </trkpt>
      <trkpt lat="45.83697" lon="4.70593">
        <ele>301.09531</ele>
        <time>2023-11-26T15:28:43.000Z</time>
      </trkpt>
      <trkpt lat="45.83694" lon="4.70593">
        <ele>301.32297</ele>
        <time>2023-11-26T15:28:44.000Z</time>
      </trkpt>
      <trkpt lat="45.83689" lon="4.70595">
        <ele>301.59839</ele>
        <time>2023-11-26T15:28:45.000Z</time>
      </trkpt>
      <trkpt lat="45.83686" lon="4.70595">
        <ele>301.50946</ele>
        <time>2023-11-26T15:28:46.000Z</time>
      </trkpt>
      <trkpt lat="45.83681" lon="4.70596">
        <ele>301.33298</ele>
        <time>2023-11-26T15:28:47.000Z</time>
      </trkpt>
      <trkpt lat="45.83677" lon="4.70597">
        <ele>301.14795</ele>
        <time>2023-11-26T15:28:48.000Z</time>
      </trkpt>
      <trkpt lat="45.83673" lon="4.70599">
        <ele>301.26938</ele>
        <time>2023-11-26T15:28:49.000Z</time>
      </trkpt>
      <trkpt lat="45.83669" lon="4.70601">
        <ele>301.35873</ele>
        <time>2023-11-26T15:28:50.000Z</time>
      </trkpt>
      <trkpt lat="45.83665" lon="4.70602">
        <ele>301.43753</ele>
        <time>2023-11-26T15:28:51.000Z</time>
      </trkpt>
      <trkpt lat="45.83661" lon="4.70604">
        <ele>301.50739</ele>
        <time>2023-11-26T15:28:52.000Z</time>
      </trkpt>
      <trkpt lat="45.83657" lon="4.70606">
        <ele>301.60107</ele>
        <time>2023-11-26T15:28:53.000Z</time>
      </trkpt>
      <trkpt lat="45.83653" lon="4.70609">
        <ele>301.66943</ele>
        <time>2023-11-26T15:28:54.000Z</time>
      </trkpt>
      <trkpt lat="45.83649" lon="4.70611">
        <ele>301.76617</ele>
        <time>2023-11-26T15:28:55.000Z</time>
      </trkpt>
      <trkpt lat="45.83645" lon="4.70614">
        <ele>301.87064</ele>
        <time>2023-11-26T15:28:56.000Z</time>
      </trkpt>
      <trkpt lat="45.83641" lon="4.70616">
        <ele>301.82944</ele>
        <time>2023-11-26T15:28:57.000Z</time>
      </trkpt>
      <trkpt lat="45.83637" lon="4.70618">
        <ele>301.75235</ele>
        <time>2023-11-26T15:28:58.000Z</time>
      </trkpt>
      <trkpt lat="45.83633" lon="4.7062">
        <ele>301.68427</ele>
        <time>2023-11-26T15:28:59.000Z</time>
      </trkpt>
      <trkpt lat="45.8363" lon="4.70622">
        <ele>301.61588</ele>
        <time>2023-11-26T15:29:00.000Z</time>
      </trkpt>
      <trkpt lat="45.83626" lon="4.70624">
        <ele>301.53391</ele>
        <time>2023-11-26T15:29:01.000Z</time>
      </trkpt>
      <trkpt lat="45.83622" lon="4.70625">
        <ele>301.43073</ele>
        <time>2023-11-26T15:29:02.000Z</time>
      </trkpt>
      <trkpt lat="45.83617" lon="4.70625">
        <ele>301.22531</ele>
        <time>2023-11-26T15:29:03.000Z</time>
      </trkpt>
      <trkpt lat="45.83613" lon="4.70624">
        <ele>301.00595</ele>
        <time>2023-11-26T15:29:04.000Z</time>
      </trkpt>
      <trkpt lat="45.83609" lon="4.70622">
        <ele>300.73077</ele>
        <time>2023-11-26T15:29:05.000Z</time>
      </trkpt>
      <trkpt lat="45.83605" lon="4.70621">
        <ele>300.70663</ele>
        <time>2023-11-26T15:29:06.000Z</time>
      </trkpt>
      <trkpt lat="45.83601" lon="4.70619">
        <ele>300.68741</ele>
        <time>2023-11-26T15:29:07.000Z</time>
      </trkpt>
      <trkpt lat="45.83596" lon="4.70618">
        <ele>300.72183</ele>
        <time>2023-11-26T15:29:08.000Z</time>
      </trkpt>
      <trkpt lat="45.83592" lon="4.70616">
        <ele>300.76556</ele>
        <time>2023-11-26T15:29:09.000Z</time>
      </trkpt>
      <trkpt lat="45.83588" lon="4.70615">
        <ele>300.82495</ele>
        <time>2023-11-26T15:29:10.000Z</time>
      </trkpt>
      <trkpt lat="45.83584" lon="4.70615">
        <ele>300.74933</ele>
        <time>2023-11-26T15:29:11.000Z</time>
      </trkpt>
      <trkpt lat="45.8358" lon="4.70614">
        <ele>300.73575</ele>
        <time>2023-11-26T15:29:12.000Z</time>
      </trkpt>
      <trkpt lat="45.83575" lon="4.70613">
        <ele>300.71124</ele>
        <time>2023-11-26T15:29:13.000Z</time>
      </trkpt>
      <trkpt lat="45.8357" lon="4.70613">
        <ele>300.68802</ele>
        <time>2023-11-26T15:29:14.000Z</time>
      </trkpt>
      <trkpt lat="45.83565" lon="4.70612">
        <ele>300.62885</ele>
        <time>2023-11-26T15:29:15.000Z</time>
      </trkpt>
      <trkpt lat="45.83561" lon="4.70611">
        <ele>300.57831</ele>
        <time>2023-11-26T15:29:16.000Z</time>
      </trkpt>
      <trkpt lat="45.83556" lon="4.70611">
        <ele>300.63666</ele>
        <time>2023-11-26T15:29:17.000Z</time>
      </trkpt>
      <trkpt lat="45.83552" lon="4.70611">
        <ele>300.72961</ele>
        <time>2023-11-26T15:29:18.000Z</time>
      </trkpt>
      <trkpt lat="45.83548" lon="4.70611">
        <ele>300.81</ele>
        <time>2023-11-26T15:29:19.000Z</time>
      </trkpt>
      <trkpt lat="45.83544" lon="4.70611">
        <ele>300.89432</ele>
        <time>2023-11-26T15:29:20.000Z</time>
      </trkpt>
      <trkpt lat="45.83539" lon="4.70612">
        <ele>301.01508</ele>
        <time>2023-11-26T15:29:21.000Z</time>
      </trkpt>
      <trkpt lat="45.83534" lon="4.70612">
        <ele>301.14841</ele>
        <time>2023-11-26T15:29:22.000Z</time>
      </trkpt>
      <trkpt lat="45.8353" lon="4.70612">
        <ele>301.30264</ele>
        <time>2023-11-26T15:29:23.000Z</time>
      </trkpt>
      <trkpt lat="45.83524" lon="4.70613">
        <ele>301.45148</ele>
        <time>2023-11-26T15:29:24.000Z</time>
      </trkpt>
      <trkpt lat="45.83519" lon="4.70613">
        <ele>301.56961</ele>
        <time>2023-11-26T15:29:25.000Z</time>
      </trkpt>
      <trkpt lat="45.83513" lon="4.70613">
        <ele>301.67072</ele>
        <time>2023-11-26T15:29:26.000Z</time>
      </trkpt>
      <trkpt lat="45.83509" lon="4.70613">
        <ele>301.80139</ele>
        <time>2023-11-26T15:29:27.000Z</time>
      </trkpt>
      <trkpt lat="45.83504" lon="4.70613">
        <ele>301.88397</ele>
        <time>2023-11-26T15:29:28.000Z</time>
      </trkpt>
      <trkpt lat="45.83499" lon="4.70615">
        <ele>301.97913</ele>
        <time>2023-11-26T15:29:29.000Z</time>
      </trkpt>
      <trkpt lat="45.83495" lon="4.70615">
        <ele>302.06375</ele>
        <time>2023-11-26T15:29:30.000Z</time>
      </trkpt>
      <trkpt lat="45.8349" lon="4.70617">
        <ele>302.27032</ele>
        <time>2023-11-26T15:29:31.000Z</time>
      </trkpt>
      <trkpt lat="45.83484" lon="4.70618">
        <ele>302.39645</ele>
        <time>2023-11-26T15:29:32.000Z</time>
      </trkpt>
      <trkpt lat="45.8348" lon="4.70617">
        <ele>302.52927</ele>
        <time>2023-11-26T15:29:33.000Z</time>
      </trkpt>
      <trkpt lat="45.83474" lon="4.70618">
        <ele>302.66122</ele>
        <time>2023-11-26T15:29:34.000Z</time>
      </trkpt>
      <trkpt lat="45.83468" lon="4.70619">
        <ele>302.79648</ele>
        <time>2023-11-26T15:29:35.000Z</time>
      </trkpt>
      <trkpt lat="45.83463" lon="4.70619">
        <ele>302.95966</ele>
        <time>2023-11-26T15:29:36.000Z</time>
      </trkpt>
      <trkpt lat="45.83458" lon="4.70619">
        <ele>303.14923</ele>
        <time>2023-11-26T15:29:37.000Z</time>
      </trkpt>
      <trkpt lat="45.83452" lon="4.70618">
        <ele>303.3299</ele>
        <time>2023-11-26T15:29:38.000Z</time>
      </trkpt>
      <trkpt lat="45.83448" lon="4.70617">
        <ele>303.52686</ele>
        <time>2023-11-26T15:29:39.000Z</time>
      </trkpt>
      <trkpt lat="45.83442" lon="4.70616">
        <ele>303.76132</ele>
        <time>2023-11-26T15:29:40.000Z</time>
      </trkpt>
      <trkpt lat="45.83437" lon="4.70615">
        <ele>303.96979</ele>
        <time>2023-11-26T15:29:41.000Z</time>
      </trkpt>
      <trkpt lat="45.83431" lon="4.70613">
        <ele>304.1752</ele>
        <time>2023-11-26T15:29:42.000Z</time>
      </trkpt>
      <trkpt lat="45.83425" lon="4.70612">
        <ele>304.33643</ele>
        <time>2023-11-26T15:29:43.000Z</time>
      </trkpt>
      <trkpt lat="45.8342" lon="4.70612">
        <ele>304.44406</ele>
        <time>2023-11-26T15:29:44.000Z</time>
      </trkpt>
      <trkpt lat="45.83415" lon="4.7061">
        <ele>304.54254</ele>
        <time>2023-11-26T15:29:45.000Z</time>
      </trkpt>
      <trkpt lat="45.83409" lon="4.70609">
        <ele>304.65964</ele>
        <time>2023-11-26T15:29:46.000Z</time>
      </trkpt>
      <trkpt lat="45.83403" lon="4.70608">
        <ele>304.73105</ele>
        <time>2023-11-26T15:29:47.000Z</time>
      </trkpt>
      <trkpt lat="45.83397" lon="4.70608">
        <ele>304.80322</ele>
        <time>2023-11-26T15:29:48.000Z</time>
      </trkpt>
      <trkpt lat="45.83392" lon="4.70607">
        <ele>304.84387</ele>
        <time>2023-11-26T15:29:49.000Z</time>
      </trkpt>
      <trkpt lat="45.83386" lon="4.70606">
        <ele>304.89191</ele>
        <time>2023-11-26T15:29:50.000Z</time>
      </trkpt>
      <trkpt lat="45.83381" lon="4.70606">
        <ele>304.91754</ele>
        <time>2023-11-26T15:29:51.000Z</time>
      </trkpt>
      <trkpt lat="45.83377" lon="4.70605">
        <ele>304.98853</ele>
        <time>2023-11-26T15:29:52.000Z</time>
      </trkpt>
      <trkpt lat="45.83373" lon="4.70604">
        <ele>305.05795</ele>
        <time>2023-11-26T15:29:53.000Z</time>
      </trkpt>
      <trkpt lat="45.8337" lon="4.70604">
        <ele>305.14087</ele>
        <time>2023-11-26T15:29:54.000Z</time>
      </trkpt>
      <trkpt lat="45.83367" lon="4.70603">
        <ele>305.22794</ele>
        <time>2023-11-26T15:29:55.000Z</time>
      </trkpt>
      <trkpt lat="45.83365" lon="4.70602">
        <ele>305.27689</ele>
        <time>2023-11-26T15:29:56.000Z</time>
      </trkpt>
      <trkpt lat="45.83362" lon="4.70602">
        <ele>305.35632</ele>
        <time>2023-11-26T15:29:57.000Z</time>
      </trkpt>
      <trkpt lat="45.83359" lon="4.70601">
        <ele>305.45166</ele>
        <time>2023-11-26T15:29:59.000Z</time>
      </trkpt>
      <trkpt lat="45.83357" lon="4.70602">
        <ele>305.52673</ele>
        <time>2023-11-26T15:30:00.000Z</time>
      </trkpt>
      <trkpt lat="45.83355" lon="4.70605">
        <ele>305.47357</ele>
        <time>2023-11-26T15:30:01.000Z</time>
      </trkpt>
      <trkpt lat="45.83353" lon="4.70608">
        <ele>305.46945</ele>
        <time>2023-11-26T15:30:02.000Z</time>
      </trkpt>
      <trkpt lat="45.83353" lon="4.70613">
        <ele>305.42609</ele>
        <time>2023-11-26T15:30:03.000Z</time>
      </trkpt>
      <trkpt lat="45.83352" lon="4.70619">
        <ele>305.39841</ele>
        <time>2023-11-26T15:30:04.000Z</time>
      </trkpt>
      <trkpt lat="45.83352" lon="4.70625">
        <ele>305.44708</ele>
        <time>2023-11-26T15:30:05.000Z</time>
      </trkpt>
      <trkpt lat="45.83351" lon="4.70631">
        <ele>305.51804</ele>
        <time>2023-11-26T15:30:06.000Z</time>
      </trkpt>
      <trkpt lat="45.83351" lon="4.70637">
        <ele>305.58478</ele>
        <time>2023-11-26T15:30:07.000Z</time>
      </trkpt>
      <trkpt lat="45.8335" lon="4.70643">
        <ele>305.65683</ele>
        <time>2023-11-26T15:30:08.000Z</time>
      </trkpt>
      <trkpt lat="45.8335" lon="4.70649">
        <ele>305.69659</ele>
        <time>2023-11-26T15:30:09.000Z</time>
      </trkpt>
      <trkpt lat="45.8335" lon="4.70655">
        <ele>305.74298</ele>
        <time>2023-11-26T15:30:10.000Z</time>
      </trkpt>
      <trkpt lat="45.8335" lon="4.70662">
        <ele>305.80133</ele>
        <time>2023-11-26T15:30:11.000Z</time>
      </trkpt>
      <trkpt lat="45.83349" lon="4.70668">
        <ele>305.86548</ele>
        <time>2023-11-26T15:30:12.000Z</time>
      </trkpt>
      <trkpt lat="45.83349" lon="4.70674">
        <ele>305.91925</ele>
        <time>2023-11-26T15:30:13.000Z</time>
      </trkpt>
      <trkpt lat="45.83348" lon="4.70679">
        <ele>305.96652</ele>
        <time>2023-11-26T15:30:14.000Z</time>
      </trkpt>
      <trkpt lat="45.83348" lon="4.70685">
        <ele>306.01627</ele>
        <time>2023-11-26T15:30:15.000Z</time>
      </trkpt>
      <trkpt lat="45.83348" lon="4.7069">
        <ele>306.08066</ele>
        <time>2023-11-26T15:30:16.000Z</time>
      </trkpt>
      <trkpt lat="45.83347" lon="4.70695">
        <ele>306.12482</ele>
        <time>2023-11-26T15:30:17.000Z</time>
      </trkpt>
      <trkpt lat="45.83347" lon="4.707">
        <ele>306.13031</ele>
        <time>2023-11-26T15:30:18.000Z</time>
      </trkpt>
      <trkpt lat="45.83346" lon="4.70705">
        <ele>306.14304</ele>
        <time>2023-11-26T15:30:19.000Z</time>
      </trkpt>
      <trkpt lat="45.83346" lon="4.70709">
        <ele>306.14581</ele>
        <time>2023-11-26T15:30:20.000Z</time>
      </trkpt>
      <trkpt lat="45.83345" lon="4.70713">
        <ele>306.23853</ele>
        <time>2023-11-26T15:30:21.000Z</time>
      </trkpt>
      <trkpt lat="45.83345" lon="4.70718">
        <ele>306.28458</ele>
        <time>2023-11-26T15:30:22.000Z</time>
      </trkpt>
      <trkpt lat="45.83344" lon="4.70722">
        <ele>306.35153</ele>
        <time>2023-11-26T15:30:23.000Z</time>
      </trkpt>
      <trkpt lat="45.83344" lon="4.70727">
        <ele>306.42535</ele>
        <time>2023-11-26T15:30:24.000Z</time>
      </trkpt>
      <trkpt lat="45.83344" lon="4.70731">
        <ele>306.50098</ele>
        <time>2023-11-26T15:30:25.000Z</time>
      </trkpt>
      <trkpt lat="45.83343" lon="4.70736">
        <ele>306.4975</ele>
        <time>2023-11-26T15:30:26.000Z</time>
      </trkpt>
      <trkpt lat="45.83343" lon="4.7074">
        <ele>306.50082</ele>
        <time>2023-11-26T15:30:27.000Z</time>
      </trkpt>
      <trkpt lat="45.83343" lon="4.70744">
        <ele>306.50424</ele>
        <time>2023-11-26T15:30:28.000Z</time>
      </trkpt>
      <trkpt lat="45.83342" lon="4.70749">
        <ele>306.5509</ele>
        <time>2023-11-26T15:30:29.000Z</time>
      </trkpt>
      <trkpt lat="45.83342" lon="4.70753">
        <ele>306.57758</ele>
        <time>2023-11-26T15:30:30.000Z</time>
      </trkpt>
      <trkpt lat="45.83342" lon="4.70756">
        <ele>306.58624</ele>
        <time>2023-11-26T15:30:31.000Z</time>
      </trkpt>
      <trkpt lat="45.83341" lon="4.70759">
        <ele>306.6189</ele>
        <time>2023-11-26T15:30:32.000Z</time>
      </trkpt>
      <trkpt lat="45.8334" lon="4.70765">
        <ele>306.62848</ele>
        <time>2023-11-26T15:30:34.000Z</time>
      </trkpt>
      <trkpt lat="45.8334" lon="4.70768">
        <ele>306.62762</ele>
        <time>2023-11-26T15:30:35.000Z</time>
      </trkpt>
      <trkpt lat="45.8334" lon="4.70772">
        <ele>306.61676</ele>
        <time>2023-11-26T15:30:36.000Z</time>
      </trkpt>
      <trkpt lat="45.83339" lon="4.70776">
        <ele>306.57355</ele>
        <time>2023-11-26T15:30:37.000Z</time>
      </trkpt>
      <trkpt lat="45.83339" lon="4.7078">
        <ele>306.52905</ele>
        <time>2023-11-26T15:30:38.000Z</time>
      </trkpt>
      <trkpt lat="45.83339" lon="4.70783">
        <ele>306.49249</ele>
        <time>2023-11-26T15:30:39.000Z</time>
      </trkpt>
      <trkpt lat="45.8334" lon="4.70787">
        <ele>306.42975</ele>
        <time>2023-11-26T15:30:40.000Z</time>
      </trkpt>
      <trkpt lat="45.8334" lon="4.70792">
        <ele>306.3819</ele>
        <time>2023-11-26T15:30:41.000Z</time>
      </trkpt>
      <trkpt lat="45.8334" lon="4.70795">
        <ele>306.32858</ele>
        <time>2023-11-26T15:30:42.000Z</time>
      </trkpt>
      <trkpt lat="45.8334" lon="4.70799">
        <ele>306.27545</ele>
        <time>2023-11-26T15:30:43.000Z</time>
      </trkpt>
      <trkpt lat="45.8334" lon="4.70803">
        <ele>306.22052</ele>
        <time>2023-11-26T15:30:44.000Z</time>
      </trkpt>
      <trkpt lat="45.83339" lon="4.70807">
        <ele>306.19461</ele>
        <time>2023-11-26T15:30:45.000Z</time>
      </trkpt>
      <trkpt lat="45.83339" lon="4.7081">
        <ele>306.15186</ele>
        <time>2023-11-26T15:30:46.000Z</time>
      </trkpt>
      <trkpt lat="45.83339" lon="4.70814">
        <ele>306.20197</ele>
        <time>2023-11-26T15:30:47.000Z</time>
      </trkpt>
      <trkpt lat="45.83338" lon="4.70818">
        <ele>306.24091</ele>
        <time>2023-11-26T15:30:48.000Z</time>
      </trkpt>
      <trkpt lat="45.83338" lon="4.70822">
        <ele>306.20026</ele>
        <time>2023-11-26T15:30:49.000Z</time>
      </trkpt>
      <trkpt lat="45.83337" lon="4.70826">
        <ele>306.1441</ele>
        <time>2023-11-26T15:30:50.000Z</time>
      </trkpt>
      <trkpt lat="45.83337" lon="4.70829">
        <ele>306.08246</ele>
        <time>2023-11-26T15:30:51.000Z</time>
      </trkpt>
      <trkpt lat="45.83337" lon="4.70832">
        <ele>306.02426</ele>
        <time>2023-11-26T15:30:52.000Z</time>
      </trkpt>
      <trkpt lat="45.83337" lon="4.70836">
        <ele>305.95547</ele>
        <time>2023-11-26T15:30:53.000Z</time>
      </trkpt>
      <trkpt lat="45.83337" lon="4.70839">
        <ele>305.91763</ele>
        <time>2023-11-26T15:30:54.000Z</time>
      </trkpt>
      <trkpt lat="45.83337" lon="4.70842">
        <ele>305.87973</ele>
        <time>2023-11-26T15:30:55.000Z</time>
      </trkpt>
      <trkpt lat="45.83337" lon="4.70845">
        <ele>305.8436</ele>
        <time>2023-11-26T15:30:56.000Z</time>
      </trkpt>
      <trkpt lat="45.83336" lon="4.70849">
        <ele>305.81268</ele>
        <time>2023-11-26T15:30:57.000Z</time>
      </trkpt>
      <trkpt lat="45.83335" lon="4.70852">
        <ele>305.78552</ele>
        <time>2023-11-26T15:30:58.000Z</time>
      </trkpt>
      <trkpt lat="45.83335" lon="4.70855">
        <ele>305.74707</ele>
        <time>2023-11-26T15:30:59.000Z</time>
      </trkpt>
      <trkpt lat="45.83335" lon="4.70858">
        <ele>305.74957</ele>
        <time>2023-11-26T15:31:00.000Z</time>
      </trkpt>
      <trkpt lat="45.83335" lon="4.70862">
        <ele>305.76828</ele>
        <time>2023-11-26T15:31:01.000Z</time>
      </trkpt>
      <trkpt lat="45.83334" lon="4.70865">
        <ele>305.69073</ele>
        <time>2023-11-26T15:31:02.000Z</time>
      </trkpt>
      <trkpt lat="45.83334" lon="4.70868">
        <ele>305.63007</ele>
        <time>2023-11-26T15:31:03.000Z</time>
      </trkpt>
      <trkpt lat="45.83334" lon="4.70871">
        <ele>305.57724</ele>
        <time>2023-11-26T15:31:04.000Z</time>
      </trkpt>
      <trkpt lat="45.83334" lon="4.70874">
        <ele>305.48584</ele>
        <time>2023-11-26T15:31:05.000Z</time>
      </trkpt>
      <trkpt lat="45.83333" lon="4.70877">
        <ele>305.39636</ele>
        <time>2023-11-26T15:31:06.000Z</time>
      </trkpt>
      <trkpt lat="45.83332" lon="4.7088">
        <ele>305.28763</ele>
        <time>2023-11-26T15:31:07.000Z</time>
      </trkpt>
      <trkpt lat="45.83331" lon="4.70882">
        <ele>305.17899</ele>
        <time>2023-11-26T15:31:08.000Z</time>
      </trkpt>
      <trkpt lat="45.8333" lon="4.70885">
        <ele>305.14188</ele>
        <time>2023-11-26T15:31:09.000Z</time>
      </trkpt>
      <trkpt lat="45.8333" lon="4.70889">
        <ele>305.13895</ele>
        <time>2023-11-26T15:31:11.000Z</time>
      </trkpt>
    </trkseg>
  </trk>
</gpx>